<?xml version="1.0" encoding="UTF-8" standalone="no" ?>
<gpx xmlns="http://www.topografix.com/GPX/1/1" xmlns:xsi="http://www.w3.org/2001/XMLSchema-instance" xsi:schemaLocation="http://www.topografix.com/GPX/1/1 http://www.topografix.com/GPX/1/1/gpx.xsd" version="1.1" creator="VisuGPX - https://www.visugpx.com">
  <metadata>
    <name>Ginasservis Ouest Est-34km</name>
    <desc><![CDATA[Boucle de 34km autour du village de Ginasservis]]></desc>
  </metadata>
  <trk>
    <name><![CDATA[Chemin de Cabridon]]></name>
    <desc><![CDATA[]]></desc>
    <trkseg>
      <trkpt lat="43.67193" lon="5.8613">
        <ele>473</ele>
        <time>2016-02-20T07:46:28.478Z</time>
      </trkpt>
      <trkpt lat="43.67195" lon="5.8614">
        <ele>474</ele>
        <time>2016-02-20T07:49:08.861Z</time>
      </trkpt>
      <trkpt lat="43.67193" lon="5.86143">
        <ele>473</ele>
        <time>2016-02-20T07:49:09.826Z</time>
      </trkpt>
      <trkpt lat="43.67189" lon="5.86149">
        <ele>473</ele>
        <time>2016-02-20T07:49:11.846Z</time>
      </trkpt>
      <trkpt lat="43.67186" lon="5.86152">
        <ele>473</ele>
        <time>2016-02-20T07:49:12.823Z</time>
      </trkpt>
      <trkpt lat="43.67184" lon="5.86162">
        <ele>473</ele>
        <time>2016-02-20T07:49:14.846Z</time>
      </trkpt>
      <trkpt lat="43.67186" lon="5.86167">
        <ele>473</ele>
        <time>2016-02-20T07:49:15.823Z</time>
      </trkpt>
      <trkpt lat="43.67193" lon="5.86172">
        <ele>472</ele>
        <time>2016-02-20T07:49:17.853Z</time>
      </trkpt>
      <trkpt lat="43.67198" lon="5.86173">
        <ele>472</ele>
        <time>2016-02-20T07:49:18.818Z</time>
      </trkpt>
      <trkpt lat="43.67202" lon="5.86173">
        <ele>472</ele>
        <time>2016-02-20T07:49:19.847Z</time>
      </trkpt>
      <trkpt lat="43.67207" lon="5.86173">
        <ele>472</ele>
        <time>2016-02-20T07:49:20.815Z</time>
      </trkpt>
      <trkpt lat="43.67215" lon="5.86173">
        <ele>471</ele>
        <time>2016-02-20T07:49:22.843Z</time>
      </trkpt>
      <trkpt lat="43.67219" lon="5.86174">
        <ele>471</ele>
        <time>2016-02-20T07:49:23.815Z</time>
      </trkpt>
      <trkpt lat="43.67227" lon="5.86175">
        <ele>469</ele>
        <time>2016-02-20T07:49:25.846Z</time>
      </trkpt>
      <trkpt lat="43.67231" lon="5.86175">
        <ele>468</ele>
        <time>2016-02-20T07:49:26.823Z</time>
      </trkpt>
      <trkpt lat="43.67237" lon="5.86182">
        <ele>468</ele>
        <time>2016-02-20T07:49:28.843Z</time>
      </trkpt>
      <trkpt lat="43.67238" lon="5.86187">
        <ele>468</ele>
        <time>2016-02-20T07:49:29.820Z</time>
      </trkpt>
      <trkpt lat="43.67233" lon="5.86196">
        <ele>468</ele>
        <time>2016-02-20T07:49:31.850Z</time>
      </trkpt>
      <trkpt lat="43.67229" lon="5.86198">
        <ele>468</ele>
        <time>2016-02-20T07:49:32.820Z</time>
      </trkpt>
      <trkpt lat="43.67225" lon="5.862">
        <ele>468</ele>
        <time>2016-02-20T07:49:33.842Z</time>
      </trkpt>
      <trkpt lat="43.6722" lon="5.86201">
        <ele>468</ele>
        <time>2016-02-20T07:49:34.851Z</time>
      </trkpt>
      <trkpt lat="43.67216" lon="5.86203">
        <ele>468</ele>
        <time>2016-02-20T07:49:35.842Z</time>
      </trkpt>
      <trkpt lat="43.67211" lon="5.86205">
        <ele>468</ele>
        <time>2016-02-20T07:49:36.830Z</time>
      </trkpt>
      <trkpt lat="43.67204" lon="5.86211">
        <ele>469</ele>
        <time>2016-02-20T07:49:38.846Z</time>
      </trkpt>
      <trkpt lat="43.67202" lon="5.86215">
        <ele>469</ele>
        <time>2016-02-20T07:49:39.822Z</time>
      </trkpt>
      <trkpt lat="43.67202" lon="5.86227">
        <ele>468</ele>
        <time>2016-02-20T07:49:41.841Z</time>
      </trkpt>
      <trkpt lat="43.67205" lon="5.86232">
        <ele>467</ele>
        <time>2016-02-20T07:49:42.821Z</time>
      </trkpt>
      <trkpt lat="43.67208" lon="5.86236">
        <ele>467</ele>
        <time>2016-02-20T07:49:43.848Z</time>
      </trkpt>
      <trkpt lat="43.67216" lon="5.86239">
        <ele>467</ele>
        <time>2016-02-20T07:49:44.812Z</time>
      </trkpt>
      <trkpt lat="43.67219" lon="5.86243">
        <ele>467</ele>
        <time>2016-02-20T07:49:45.848Z</time>
      </trkpt>
      <trkpt lat="43.67223" lon="5.86249">
        <ele>466</ele>
        <time>2016-02-20T07:49:46.823Z</time>
      </trkpt>
      <trkpt lat="43.67227" lon="5.86253">
        <ele>466</ele>
        <time>2016-02-20T07:49:47.832Z</time>
      </trkpt>
      <trkpt lat="43.6723" lon="5.86258">
        <ele>466</ele>
        <time>2016-02-20T07:49:48.822Z</time>
      </trkpt>
      <trkpt lat="43.67232" lon="5.86265">
        <ele>466</ele>
        <time>2016-02-20T07:49:49.848Z</time>
      </trkpt>
      <trkpt lat="43.67234" lon="5.86271">
        <ele>466</ele>
        <time>2016-02-20T07:49:50.850Z</time>
      </trkpt>
      <trkpt lat="43.67234" lon="5.86278">
        <ele>467</ele>
        <time>2016-02-20T07:49:51.847Z</time>
      </trkpt>
      <trkpt lat="43.67234" lon="5.86285">
        <ele>467</ele>
        <time>2016-02-20T07:49:52.824Z</time>
      </trkpt>
      <trkpt lat="43.67233" lon="5.8629">
        <ele>467</ele>
        <time>2016-02-20T07:49:53.848Z</time>
      </trkpt>
      <trkpt lat="43.67233" lon="5.86297">
        <ele>468</ele>
        <time>2016-02-20T07:49:54.825Z</time>
      </trkpt>
      <trkpt lat="43.67236" lon="5.86309">
        <ele>468</ele>
        <time>2016-02-20T07:49:56.848Z</time>
      </trkpt>
      <trkpt lat="43.6724" lon="5.86313">
        <ele>469</ele>
        <time>2016-02-20T07:49:57.824Z</time>
      </trkpt>
      <trkpt lat="43.67244" lon="5.86323">
        <ele>469</ele>
        <time>2016-02-20T07:49:59.841Z</time>
      </trkpt>
      <trkpt lat="43.67247" lon="5.86328">
        <ele>469</ele>
        <time>2016-02-20T07:50:00.825Z</time>
      </trkpt>
      <trkpt lat="43.67254" lon="5.86336">
        <ele>470</ele>
        <time>2016-02-20T07:50:02.841Z</time>
      </trkpt>
      <trkpt lat="43.67259" lon="5.86335">
        <ele>470</ele>
        <time>2016-02-20T07:50:03.824Z</time>
      </trkpt>
      <trkpt lat="43.67265" lon="5.86327">
        <ele>470</ele>
        <time>2016-02-20T07:50:05.847Z</time>
      </trkpt>
      <trkpt lat="43.67266" lon="5.86322">
        <ele>470</ele>
        <time>2016-02-20T07:50:06.825Z</time>
      </trkpt>
      <trkpt lat="43.67267" lon="5.86315">
        <ele>470</ele>
        <time>2016-02-20T07:50:07.846Z</time>
      </trkpt>
      <trkpt lat="43.67266" lon="5.86307">
        <ele>470</ele>
        <time>2016-02-20T07:50:08.823Z</time>
      </trkpt>
      <trkpt lat="43.67266" lon="5.86301">
        <ele>470</ele>
        <time>2016-02-20T07:50:09.849Z</time>
      </trkpt>
      <trkpt lat="43.67267" lon="5.86293">
        <ele>469</ele>
        <time>2016-02-20T07:50:10.823Z</time>
      </trkpt>
      <trkpt lat="43.67268" lon="5.86285">
        <ele>469</ele>
        <time>2016-02-20T07:50:11.846Z</time>
      </trkpt>
      <trkpt lat="43.67269" lon="5.86277">
        <ele>469</ele>
        <time>2016-02-20T07:50:12.830Z</time>
      </trkpt>
      <trkpt lat="43.67271" lon="5.86268">
        <ele>468</ele>
        <time>2016-02-20T07:50:13.848Z</time>
      </trkpt>
      <trkpt lat="43.67273" lon="5.8626">
        <ele>468</ele>
        <time>2016-02-20T07:50:14.823Z</time>
      </trkpt>
      <trkpt lat="43.67274" lon="5.86251">
        <ele>468</ele>
        <time>2016-02-20T07:50:15.849Z</time>
      </trkpt>
      <trkpt lat="43.67276" lon="5.86242">
        <ele>468</ele>
        <time>2016-02-20T07:50:16.822Z</time>
      </trkpt>
      <trkpt lat="43.67277" lon="5.86234">
        <ele>467</ele>
        <time>2016-02-20T07:50:17.901Z</time>
      </trkpt>
      <trkpt lat="43.67279" lon="5.86225">
        <ele>467</ele>
        <time>2016-02-20T07:50:18.849Z</time>
      </trkpt>
      <trkpt lat="43.67281" lon="5.86216">
        <ele>467</ele>
        <time>2016-02-20T07:50:19.844Z</time>
      </trkpt>
      <trkpt lat="43.67283" lon="5.86208">
        <ele>467</ele>
        <time>2016-02-20T07:50:20.823Z</time>
      </trkpt>
      <trkpt lat="43.67285" lon="5.86198">
        <ele>467</ele>
        <time>2016-02-20T07:50:21.846Z</time>
      </trkpt>
      <trkpt lat="43.67286" lon="5.8619">
        <ele>466</ele>
        <time>2016-02-20T07:50:22.824Z</time>
      </trkpt>
      <trkpt lat="43.67288" lon="5.86182">
        <ele>466</ele>
        <time>2016-02-20T07:50:23.847Z</time>
      </trkpt>
      <trkpt lat="43.67291" lon="5.86172">
        <ele>466</ele>
        <time>2016-02-20T07:50:24.824Z</time>
      </trkpt>
      <trkpt lat="43.67294" lon="5.86164">
        <ele>466</ele>
        <time>2016-02-20T07:50:25.847Z</time>
      </trkpt>
      <trkpt lat="43.67297" lon="5.86156">
        <ele>466</ele>
        <time>2016-02-20T07:50:26.822Z</time>
      </trkpt>
      <trkpt lat="43.67299" lon="5.86149">
        <ele>466</ele>
        <time>2016-02-20T07:50:27.846Z</time>
      </trkpt>
      <trkpt lat="43.67303" lon="5.86142">
        <ele>467</ele>
        <time>2016-02-20T07:50:28.823Z</time>
      </trkpt>
      <trkpt lat="43.67306" lon="5.86135">
        <ele>467</ele>
        <time>2016-02-20T07:50:29.844Z</time>
      </trkpt>
      <trkpt lat="43.67309" lon="5.86129">
        <ele>467</ele>
        <time>2016-02-20T07:50:30.822Z</time>
      </trkpt>
      <trkpt lat="43.67312" lon="5.86122">
        <ele>468</ele>
        <time>2016-02-20T07:50:31.846Z</time>
      </trkpt>
      <trkpt lat="43.67315" lon="5.86116">
        <ele>467</ele>
        <time>2016-02-20T07:50:32.824Z</time>
      </trkpt>
      <trkpt lat="43.67318" lon="5.8611">
        <ele>468</ele>
        <time>2016-02-20T07:50:33.845Z</time>
      </trkpt>
      <trkpt lat="43.67321" lon="5.86103">
        <ele>468</ele>
        <time>2016-02-20T07:50:34.825Z</time>
      </trkpt>
      <trkpt lat="43.67323" lon="5.86097">
        <ele>468</ele>
        <time>2016-02-20T07:50:35.848Z</time>
      </trkpt>
      <trkpt lat="43.67325" lon="5.86092">
        <ele>468</ele>
        <time>2016-02-20T07:50:36.827Z</time>
      </trkpt>
      <trkpt lat="43.67328" lon="5.86086">
        <ele>468</ele>
        <time>2016-02-20T07:50:37.846Z</time>
      </trkpt>
      <trkpt lat="43.6733" lon="5.86081">
        <ele>469</ele>
        <time>2016-02-20T07:50:38.824Z</time>
      </trkpt>
      <trkpt lat="43.67333" lon="5.86075">
        <ele>469</ele>
        <time>2016-02-20T07:50:39.874Z</time>
      </trkpt>
      <trkpt lat="43.67335" lon="5.86069">
        <ele>469</ele>
        <time>2016-02-20T07:50:40.822Z</time>
      </trkpt>
      <trkpt lat="43.67337" lon="5.86063">
        <ele>470</ele>
        <time>2016-02-20T07:50:41.846Z</time>
      </trkpt>
      <trkpt lat="43.67338" lon="5.86056">
        <ele>470</ele>
        <time>2016-02-20T07:50:42.823Z</time>
      </trkpt>
      <trkpt lat="43.6734" lon="5.86045">
        <ele>471</ele>
        <time>2016-02-20T07:50:44.847Z</time>
      </trkpt>
      <trkpt lat="43.67341" lon="5.8604">
        <ele>471</ele>
        <time>2016-02-20T07:50:45.822Z</time>
      </trkpt>
      <trkpt lat="43.67342" lon="5.86028">
        <ele>472</ele>
        <time>2016-02-20T07:50:47.847Z</time>
      </trkpt>
      <trkpt lat="43.67343" lon="5.86022">
        <ele>472</ele>
        <time>2016-02-20T07:50:48.824Z</time>
      </trkpt>
      <trkpt lat="43.67343" lon="5.8601">
        <ele>473</ele>
        <time>2016-02-20T07:50:50.848Z</time>
      </trkpt>
      <trkpt lat="43.67343" lon="5.86004">
        <ele>473</ele>
        <time>2016-02-20T07:50:51.823Z</time>
      </trkpt>
      <trkpt lat="43.67342" lon="5.85993">
        <ele>473</ele>
        <time>2016-02-20T07:50:53.847Z</time>
      </trkpt>
      <trkpt lat="43.67342" lon="5.85987">
        <ele>474</ele>
        <time>2016-02-20T07:50:54.823Z</time>
      </trkpt>
      <trkpt lat="43.67341" lon="5.85982">
        <ele>474</ele>
        <time>2016-02-20T07:50:55.872Z</time>
      </trkpt>
      <trkpt lat="43.6734" lon="5.85975">
        <ele>474</ele>
        <time>2016-02-20T07:50:56.823Z</time>
      </trkpt>
      <trkpt lat="43.67339" lon="5.85969">
        <ele>474</ele>
        <time>2016-02-20T07:50:57.849Z</time>
      </trkpt>
      <trkpt lat="43.67338" lon="5.85963">
        <ele>474</ele>
        <time>2016-02-20T07:50:58.822Z</time>
      </trkpt>
      <trkpt lat="43.67336" lon="5.85951">
        <ele>474</ele>
        <time>2016-02-20T07:51:00.848Z</time>
      </trkpt>
      <trkpt lat="43.67335" lon="5.85944">
        <ele>473</ele>
        <time>2016-02-20T07:51:01.822Z</time>
      </trkpt>
      <trkpt lat="43.67333" lon="5.85933">
        <ele>474</ele>
        <time>2016-02-20T07:51:03.858Z</time>
      </trkpt>
      <trkpt lat="43.67331" lon="5.85926">
        <ele>474</ele>
        <time>2016-02-20T07:51:04.824Z</time>
      </trkpt>
      <trkpt lat="43.6733" lon="5.8592">
        <ele>473</ele>
        <time>2016-02-20T07:51:05.846Z</time>
      </trkpt>
      <trkpt lat="43.67329" lon="5.85913">
        <ele>473</ele>
        <time>2016-02-20T07:51:06.826Z</time>
      </trkpt>
      <trkpt lat="43.67327" lon="5.85903">
        <ele>474</ele>
        <time>2016-02-20T07:51:08.841Z</time>
      </trkpt>
      <trkpt lat="43.67325" lon="5.85897">
        <ele>474</ele>
        <time>2016-02-20T07:51:09.817Z</time>
      </trkpt>
      <trkpt lat="43.67322" lon="5.85886">
        <ele>474</ele>
        <time>2016-02-20T07:51:11.932Z</time>
      </trkpt>
      <trkpt lat="43.6732" lon="5.85881">
        <ele>474</ele>
        <time>2016-02-20T07:51:13.014Z</time>
      </trkpt>
      <trkpt lat="43.67318" lon="5.8587">
        <ele>474</ele>
        <time>2016-02-20T07:51:14.843Z</time>
      </trkpt>
      <trkpt lat="43.67317" lon="5.85864">
        <ele>475</ele>
        <time>2016-02-20T07:51:15.822Z</time>
      </trkpt>
      <trkpt lat="43.67315" lon="5.85859">
        <ele>475</ele>
        <time>2016-02-20T07:51:16.843Z</time>
      </trkpt>
      <trkpt lat="43.67313" lon="5.85852">
        <ele>474</ele>
        <time>2016-02-20T07:51:17.822Z</time>
      </trkpt>
      <trkpt lat="43.6731" lon="5.85841">
        <ele>475</ele>
        <time>2016-02-20T07:51:19.841Z</time>
      </trkpt>
      <trkpt lat="43.67309" lon="5.85835">
        <ele>475</ele>
        <time>2016-02-20T07:51:20.821Z</time>
      </trkpt>
      <trkpt lat="43.67306" lon="5.85825">
        <ele>475</ele>
        <time>2016-02-20T07:51:22.865Z</time>
      </trkpt>
      <trkpt lat="43.67305" lon="5.85819">
        <ele>474</ele>
        <time>2016-02-20T07:51:23.823Z</time>
      </trkpt>
      <trkpt lat="43.67302" lon="5.85809">
        <ele>474</ele>
        <time>2016-02-20T07:51:25.841Z</time>
      </trkpt>
      <trkpt lat="43.67301" lon="5.85804">
        <ele>474</ele>
        <time>2016-02-20T07:51:26.822Z</time>
      </trkpt>
      <trkpt lat="43.67298" lon="5.85793">
        <ele>474</ele>
        <time>2016-02-20T07:51:28.842Z</time>
      </trkpt>
      <trkpt lat="43.67297" lon="5.85789">
        <ele>474</ele>
        <time>2016-02-20T07:51:29.822Z</time>
      </trkpt>
      <trkpt lat="43.67293" lon="5.85779">
        <ele>475</ele>
        <time>2016-02-20T07:51:31.842Z</time>
      </trkpt>
      <trkpt lat="43.67292" lon="5.85774">
        <ele>475</ele>
        <time>2016-02-20T07:51:32.823Z</time>
      </trkpt>
      <trkpt lat="43.67288" lon="5.85765">
        <ele>474</ele>
        <time>2016-02-20T07:51:34.844Z</time>
      </trkpt>
      <trkpt lat="43.67286" lon="5.8576">
        <ele>475</ele>
        <time>2016-02-20T07:51:35.822Z</time>
      </trkpt>
      <trkpt lat="43.67282" lon="5.8575">
        <ele>475</ele>
        <time>2016-02-20T07:51:37.843Z</time>
      </trkpt>
      <trkpt lat="43.6728" lon="5.85745">
        <ele>475</ele>
        <time>2016-02-20T07:51:38.844Z</time>
      </trkpt>
      <trkpt lat="43.67277" lon="5.85735">
        <ele>476</ele>
        <time>2016-02-20T07:51:40.844Z</time>
      </trkpt>
      <trkpt lat="43.67275" lon="5.85729">
        <ele>477</ele>
        <time>2016-02-20T07:51:41.823Z</time>
      </trkpt>
      <trkpt lat="43.67272" lon="5.85719">
        <ele>478</ele>
        <time>2016-02-20T07:51:43.844Z</time>
      </trkpt>
      <trkpt lat="43.6727" lon="5.85713">
        <ele>478</ele>
        <time>2016-02-20T07:51:44.823Z</time>
      </trkpt>
      <trkpt lat="43.67267" lon="5.85703">
        <ele>479</ele>
        <time>2016-02-20T07:51:46.843Z</time>
      </trkpt>
      <trkpt lat="43.67265" lon="5.85698">
        <ele>479</ele>
        <time>2016-02-20T07:51:47.821Z</time>
      </trkpt>
      <trkpt lat="43.67262" lon="5.85687">
        <ele>479</ele>
        <time>2016-02-20T07:51:49.843Z</time>
      </trkpt>
      <trkpt lat="43.67261" lon="5.85682">
        <ele>480</ele>
        <time>2016-02-20T07:51:50.822Z</time>
      </trkpt>
      <trkpt lat="43.67258" lon="5.85671">
        <ele>479</ele>
        <time>2016-02-20T07:51:52.842Z</time>
      </trkpt>
      <trkpt lat="43.67257" lon="5.85666">
        <ele>480</ele>
        <time>2016-02-20T07:51:53.823Z</time>
      </trkpt>
      <trkpt lat="43.67254" lon="5.85654">
        <ele>480</ele>
        <time>2016-02-20T07:51:55.841Z</time>
      </trkpt>
      <trkpt lat="43.67253" lon="5.85649">
        <ele>480</ele>
        <time>2016-02-20T07:51:56.822Z</time>
      </trkpt>
      <trkpt lat="43.6725" lon="5.85638">
        <ele>480</ele>
        <time>2016-02-20T07:51:58.841Z</time>
      </trkpt>
      <trkpt lat="43.67249" lon="5.85633">
        <ele>480</ele>
        <time>2016-02-20T07:51:59.822Z</time>
      </trkpt>
      <trkpt lat="43.67246" lon="5.85622">
        <ele>480</ele>
        <time>2016-02-20T07:52:01.838Z</time>
      </trkpt>
      <trkpt lat="43.67245" lon="5.85616">
        <ele>481</ele>
        <time>2016-02-20T07:52:02.821Z</time>
      </trkpt>
      <trkpt lat="43.67243" lon="5.8561">
        <ele>481</ele>
        <time>2016-02-20T07:52:03.843Z</time>
      </trkpt>
      <trkpt lat="43.67242" lon="5.85604">
        <ele>480</ele>
        <time>2016-02-20T07:52:04.822Z</time>
      </trkpt>
      <trkpt lat="43.6724" lon="5.85597">
        <ele>481</ele>
        <time>2016-02-20T07:52:05.840Z</time>
      </trkpt>
      <trkpt lat="43.67239" lon="5.85591">
        <ele>481</ele>
        <time>2016-02-20T07:52:06.822Z</time>
      </trkpt>
      <trkpt lat="43.67237" lon="5.85585">
        <ele>480</ele>
        <time>2016-02-20T07:52:07.843Z</time>
      </trkpt>
      <trkpt lat="43.67236" lon="5.85577">
        <ele>480</ele>
        <time>2016-02-20T07:52:08.821Z</time>
      </trkpt>
      <trkpt lat="43.67234" lon="5.8557">
        <ele>479</ele>
        <time>2016-02-20T07:52:09.841Z</time>
      </trkpt>
      <trkpt lat="43.67234" lon="5.85562">
        <ele>479</ele>
        <time>2016-02-20T07:52:10.847Z</time>
      </trkpt>
      <trkpt lat="43.67233" lon="5.85555">
        <ele>479</ele>
        <time>2016-02-20T07:52:11.842Z</time>
      </trkpt>
      <trkpt lat="43.67232" lon="5.85546">
        <ele>479</ele>
        <time>2016-02-20T07:52:12.821Z</time>
      </trkpt>
      <trkpt lat="43.67233" lon="5.85538">
        <ele>478</ele>
        <time>2016-02-20T07:52:13.842Z</time>
      </trkpt>
      <trkpt lat="43.67233" lon="5.8553">
        <ele>478</ele>
        <time>2016-02-20T07:52:14.822Z</time>
      </trkpt>
      <trkpt lat="43.67233" lon="5.85521">
        <ele>477</ele>
        <time>2016-02-20T07:52:15.843Z</time>
      </trkpt>
      <trkpt lat="43.67234" lon="5.85512">
        <ele>477</ele>
        <time>2016-02-20T07:52:16.822Z</time>
      </trkpt>
      <trkpt lat="43.67235" lon="5.85504">
        <ele>476</ele>
        <time>2016-02-20T07:52:17.899Z</time>
      </trkpt>
      <trkpt lat="43.67235" lon="5.85494">
        <ele>476</ele>
        <time>2016-02-20T07:52:18.822Z</time>
      </trkpt>
      <trkpt lat="43.67235" lon="5.85485">
        <ele>476</ele>
        <time>2016-02-20T07:52:19.840Z</time>
      </trkpt>
      <trkpt lat="43.67236" lon="5.85474">
        <ele>475</ele>
        <time>2016-02-20T07:52:20.823Z</time>
      </trkpt>
      <trkpt lat="43.67236" lon="5.85463">
        <ele>475</ele>
        <time>2016-02-20T07:52:21.842Z</time>
      </trkpt>
      <trkpt lat="43.67237" lon="5.85453">
        <ele>474</ele>
        <time>2016-02-20T07:52:22.823Z</time>
      </trkpt>
      <trkpt lat="43.67237" lon="5.85442">
        <ele>474</ele>
        <time>2016-02-20T07:52:23.842Z</time>
      </trkpt>
      <trkpt lat="43.67237" lon="5.8543">
        <ele>473</ele>
        <time>2016-02-20T07:52:24.823Z</time>
      </trkpt>
      <trkpt lat="43.67238" lon="5.8542">
        <ele>474</ele>
        <time>2016-02-20T07:52:25.842Z</time>
      </trkpt>
      <trkpt lat="43.67239" lon="5.85408">
        <ele>473</ele>
        <time>2016-02-20T07:52:26.845Z</time>
      </trkpt>
      <trkpt lat="43.6724" lon="5.85396">
        <ele>472</ele>
        <time>2016-02-20T07:52:27.842Z</time>
      </trkpt>
      <trkpt lat="43.67241" lon="5.85386">
        <ele>472</ele>
        <time>2016-02-20T07:52:28.823Z</time>
      </trkpt>
      <trkpt lat="43.67243" lon="5.85375">
        <ele>472</ele>
        <time>2016-02-20T07:52:29.843Z</time>
      </trkpt>
      <trkpt lat="43.67244" lon="5.85364">
        <ele>472</ele>
        <time>2016-02-20T07:52:30.822Z</time>
      </trkpt>
      <trkpt lat="43.67246" lon="5.85354">
        <ele>472</ele>
        <time>2016-02-20T07:52:31.849Z</time>
      </trkpt>
      <trkpt lat="43.67247" lon="5.85343">
        <ele>471</ele>
        <time>2016-02-20T07:52:32.823Z</time>
      </trkpt>
      <trkpt lat="43.67249" lon="5.85334">
        <ele>471</ele>
        <time>2016-02-20T07:52:33.842Z</time>
      </trkpt>
      <trkpt lat="43.6725" lon="5.85324">
        <ele>471</ele>
        <time>2016-02-20T07:52:34.824Z</time>
      </trkpt>
      <trkpt lat="43.67251" lon="5.85314">
        <ele>471</ele>
        <time>2016-02-20T07:52:35.845Z</time>
      </trkpt>
      <trkpt lat="43.67252" lon="5.85305">
        <ele>471</ele>
        <time>2016-02-20T07:52:36.824Z</time>
      </trkpt>
      <trkpt lat="43.67253" lon="5.85295">
        <ele>471</ele>
        <time>2016-02-20T07:52:37.849Z</time>
      </trkpt>
      <trkpt lat="43.67253" lon="5.85285">
        <ele>471</ele>
        <time>2016-02-20T07:52:38.824Z</time>
      </trkpt>
      <trkpt lat="43.67253" lon="5.85276">
        <ele>471</ele>
        <time>2016-02-20T07:52:39.847Z</time>
      </trkpt>
      <trkpt lat="43.67254" lon="5.85267">
        <ele>471</ele>
        <time>2016-02-20T07:52:40.823Z</time>
      </trkpt>
      <trkpt lat="43.67253" lon="5.85259">
        <ele>471</ele>
        <time>2016-02-20T07:52:41.848Z</time>
      </trkpt>
      <trkpt lat="43.67253" lon="5.8525">
        <ele>471</ele>
        <time>2016-02-20T07:52:43.078Z</time>
      </trkpt>
      <trkpt lat="43.67252" lon="5.8524">
        <ele>470</ele>
        <time>2016-02-20T07:52:43.847Z</time>
      </trkpt>
      <trkpt lat="43.67251" lon="5.85232">
        <ele>470</ele>
        <time>2016-02-20T07:52:44.824Z</time>
      </trkpt>
      <trkpt lat="43.67251" lon="5.85221">
        <ele>470</ele>
        <time>2016-02-20T07:52:45.847Z</time>
      </trkpt>
      <trkpt lat="43.67251" lon="5.85213">
        <ele>470</ele>
        <time>2016-02-20T07:52:46.827Z</time>
      </trkpt>
      <trkpt lat="43.67249" lon="5.85204">
        <ele>470</ele>
        <time>2016-02-20T07:52:47.847Z</time>
      </trkpt>
      <trkpt lat="43.67245" lon="5.85196">
        <ele>469</ele>
        <time>2016-02-20T07:52:48.824Z</time>
      </trkpt>
      <trkpt lat="43.67241" lon="5.85191">
        <ele>469</ele>
        <time>2016-02-20T07:52:49.848Z</time>
      </trkpt>
      <trkpt lat="43.67235" lon="5.85184">
        <ele>469</ele>
        <time>2016-02-20T07:52:50.823Z</time>
      </trkpt>
      <trkpt lat="43.67231" lon="5.8518">
        <ele>469</ele>
        <time>2016-02-20T07:52:51.848Z</time>
      </trkpt>
      <trkpt lat="43.67227" lon="5.85174">
        <ele>469</ele>
        <time>2016-02-20T07:52:52.825Z</time>
      </trkpt>
      <trkpt lat="43.67223" lon="5.85168">
        <ele>469</ele>
        <time>2016-02-20T07:52:54.103Z</time>
      </trkpt>
      <trkpt lat="43.67218" lon="5.85163">
        <ele>468</ele>
        <time>2016-02-20T07:52:54.823Z</time>
      </trkpt>
      <trkpt lat="43.67213" lon="5.85159">
        <ele>468</ele>
        <time>2016-02-20T07:52:55.847Z</time>
      </trkpt>
      <trkpt lat="43.67208" lon="5.85154">
        <ele>468</ele>
        <time>2016-02-20T07:52:56.823Z</time>
      </trkpt>
      <trkpt lat="43.67203" lon="5.85149">
        <ele>468</ele>
        <time>2016-02-20T07:52:57.848Z</time>
      </trkpt>
      <trkpt lat="43.67198" lon="5.85144">
        <ele>468</ele>
        <time>2016-02-20T07:52:58.824Z</time>
      </trkpt>
      <trkpt lat="43.67193" lon="5.85139">
        <ele>467</ele>
        <time>2016-02-20T07:52:59.848Z</time>
      </trkpt>
      <trkpt lat="43.67188" lon="5.85136">
        <ele>467</ele>
        <time>2016-02-20T07:53:00.825Z</time>
      </trkpt>
      <trkpt lat="43.67182" lon="5.85131">
        <ele>468</ele>
        <time>2016-02-20T07:53:01.849Z</time>
      </trkpt>
      <trkpt lat="43.67178" lon="5.85127">
        <ele>467</ele>
        <time>2016-02-20T07:53:02.827Z</time>
      </trkpt>
      <trkpt lat="43.67174" lon="5.85123">
        <ele>467</ele>
        <time>2016-02-20T07:53:03.903Z</time>
      </trkpt>
      <trkpt lat="43.67168" lon="5.85119">
        <ele>467</ele>
        <time>2016-02-20T07:53:04.847Z</time>
      </trkpt>
      <trkpt lat="43.67163" lon="5.85115">
        <ele>467</ele>
        <time>2016-02-20T07:53:05.886Z</time>
      </trkpt>
      <trkpt lat="43.67158" lon="5.85111">
        <ele>466</ele>
        <time>2016-02-20T07:53:06.824Z</time>
      </trkpt>
      <trkpt lat="43.67153" lon="5.85109">
        <ele>466</ele>
        <time>2016-02-20T07:53:07.849Z</time>
      </trkpt>
      <trkpt lat="43.67148" lon="5.85104">
        <ele>466</ele>
        <time>2016-02-20T07:53:08.825Z</time>
      </trkpt>
      <trkpt lat="43.67142" lon="5.85099">
        <ele>466</ele>
        <time>2016-02-20T07:53:09.847Z</time>
      </trkpt>
      <trkpt lat="43.67138" lon="5.85095">
        <ele>466</ele>
        <time>2016-02-20T07:53:10.826Z</time>
      </trkpt>
      <trkpt lat="43.67132" lon="5.8509">
        <ele>466</ele>
        <time>2016-02-20T07:53:11.847Z</time>
      </trkpt>
      <trkpt lat="43.67127" lon="5.85087">
        <ele>465</ele>
        <time>2016-02-20T07:53:12.825Z</time>
      </trkpt>
      <trkpt lat="43.67121" lon="5.85083">
        <ele>465</ele>
        <time>2016-02-20T07:53:13.934Z</time>
      </trkpt>
      <trkpt lat="43.67116" lon="5.85081">
        <ele>465</ele>
        <time>2016-02-20T07:53:14.828Z</time>
      </trkpt>
      <trkpt lat="43.67111" lon="5.85077">
        <ele>466</ele>
        <time>2016-02-20T07:53:15.847Z</time>
      </trkpt>
      <trkpt lat="43.67107" lon="5.85075">
        <ele>467</ele>
        <time>2016-02-20T07:53:16.824Z</time>
      </trkpt>
      <trkpt lat="43.671" lon="5.85067">
        <ele>467</ele>
        <time>2016-02-20T07:53:18.849Z</time>
      </trkpt>
      <trkpt lat="43.67098" lon="5.85063">
        <ele>467</ele>
        <time>2016-02-20T07:53:19.817Z</time>
      </trkpt>
      <trkpt lat="43.67104" lon="5.85058">
        <ele>469</ele>
        <time>2016-02-20T07:53:20.848Z</time>
      </trkpt>
      <trkpt lat="43.67105" lon="5.85053">
        <ele>469</ele>
        <time>2016-02-20T07:53:21.825Z</time>
      </trkpt>
      <trkpt lat="43.67109" lon="5.85047">
        <ele>471</ele>
        <time>2016-02-20T07:53:23.847Z</time>
      </trkpt>
      <trkpt lat="43.67111" lon="5.85043">
        <ele>471</ele>
        <time>2016-02-20T07:53:24.824Z</time>
      </trkpt>
      <trkpt lat="43.67116" lon="5.85035">
        <ele>472</ele>
        <time>2016-02-20T07:53:27.854Z</time>
      </trkpt>
      <trkpt lat="43.67117" lon="5.85032">
        <ele>472</ele>
        <time>2016-02-20T07:53:28.825Z</time>
      </trkpt>
      <trkpt lat="43.67121" lon="5.85022">
        <ele>473</ele>
        <time>2016-02-20T07:53:31.848Z</time>
      </trkpt>
      <trkpt lat="43.67121" lon="5.85019">
        <ele>474</ele>
        <time>2016-02-20T07:53:32.824Z</time>
      </trkpt>
      <trkpt lat="43.67123" lon="5.85011">
        <ele>475</ele>
        <time>2016-02-20T07:53:34.849Z</time>
      </trkpt>
      <trkpt lat="43.67124" lon="5.85006">
        <ele>475</ele>
        <time>2016-02-20T07:53:35.824Z</time>
      </trkpt>
      <trkpt lat="43.67128" lon="5.84998">
        <ele>475</ele>
        <time>2016-02-20T07:53:37.846Z</time>
      </trkpt>
      <trkpt lat="43.6713" lon="5.84993">
        <ele>475</ele>
        <time>2016-02-20T07:53:38.823Z</time>
      </trkpt>
      <trkpt lat="43.67132" lon="5.84983">
        <ele>476</ele>
        <time>2016-02-20T07:53:40.847Z</time>
      </trkpt>
      <trkpt lat="43.67133" lon="5.84978">
        <ele>475</ele>
        <time>2016-02-20T07:53:41.852Z</time>
      </trkpt>
      <trkpt lat="43.67134" lon="5.84969">
        <ele>474</ele>
        <time>2016-02-20T07:53:43.850Z</time>
      </trkpt>
      <trkpt lat="43.67134" lon="5.84964">
        <ele>474</ele>
        <time>2016-02-20T07:53:44.825Z</time>
      </trkpt>
      <trkpt lat="43.67135" lon="5.84954">
        <ele>473</ele>
        <time>2016-02-20T07:53:46.916Z</time>
      </trkpt>
      <trkpt lat="43.67136" lon="5.84949">
        <ele>473</ele>
        <time>2016-02-20T07:53:47.825Z</time>
      </trkpt>
      <trkpt lat="43.67137" lon="5.84939">
        <ele>475</ele>
        <time>2016-02-20T07:53:49.849Z</time>
      </trkpt>
      <trkpt lat="43.67137" lon="5.84935">
        <ele>476</ele>
        <time>2016-02-20T07:53:50.824Z</time>
      </trkpt>
      <trkpt lat="43.67137" lon="5.84924">
        <ele>474</ele>
        <time>2016-02-20T07:53:52.846Z</time>
      </trkpt>
      <trkpt lat="43.67136" lon="5.84915">
        <ele>473</ele>
        <time>2016-02-20T07:53:53.823Z</time>
      </trkpt>
      <trkpt lat="43.67135" lon="5.84907">
        <ele>473</ele>
        <time>2016-02-20T07:53:54.848Z</time>
      </trkpt>
      <trkpt lat="43.67133" lon="5.84901">
        <ele>472</ele>
        <time>2016-02-20T07:53:55.823Z</time>
      </trkpt>
      <trkpt lat="43.6713" lon="5.84894">
        <ele>473</ele>
        <time>2016-02-20T07:53:56.843Z</time>
      </trkpt>
      <trkpt lat="43.67128" lon="5.84887">
        <ele>472</ele>
        <time>2016-02-20T07:53:57.848Z</time>
      </trkpt>
      <trkpt lat="43.67127" lon="5.8488">
        <ele>470</ele>
        <time>2016-02-20T07:53:58.867Z</time>
      </trkpt>
      <trkpt lat="43.67125" lon="5.84873">
        <ele>470</ele>
        <time>2016-02-20T07:53:59.846Z</time>
      </trkpt>
      <trkpt lat="43.67122" lon="5.84868">
        <ele>470</ele>
        <time>2016-02-20T07:54:00.849Z</time>
      </trkpt>
      <trkpt lat="43.67119" lon="5.84862">
        <ele>470</ele>
        <time>2016-02-20T07:54:01.825Z</time>
      </trkpt>
      <trkpt lat="43.67117" lon="5.84855">
        <ele>471</ele>
        <time>2016-02-20T07:54:02.846Z</time>
      </trkpt>
      <trkpt lat="43.67115" lon="5.8485">
        <ele>471</ele>
        <time>2016-02-20T07:54:03.824Z</time>
      </trkpt>
      <trkpt lat="43.67112" lon="5.84839">
        <ele>470</ele>
        <time>2016-02-20T07:54:07.846Z</time>
      </trkpt>
      <trkpt lat="43.67111" lon="5.84837">
        <ele>470</ele>
        <time>2016-02-20T07:54:08.825Z</time>
      </trkpt>
      <trkpt lat="43.67104" lon="5.84836">
        <ele>474</ele>
        <time>2016-02-20T08:01:53.899Z</time>
      </trkpt>
      <trkpt lat="43.67101" lon="5.84837">
        <ele>472</ele>
        <time>2016-02-20T08:01:54.840Z</time>
      </trkpt>
      <trkpt lat="43.67092" lon="5.84841">
        <ele>469</ele>
        <time>2016-02-20T08:01:56.891Z</time>
      </trkpt>
      <trkpt lat="43.67087" lon="5.84842">
        <ele>468</ele>
        <time>2016-02-20T08:01:57.842Z</time>
      </trkpt>
      <trkpt lat="43.67083" lon="5.84844">
        <ele>468</ele>
        <time>2016-02-20T08:01:58.918Z</time>
      </trkpt>
      <trkpt lat="43.67078" lon="5.84845">
        <ele>468</ele>
        <time>2016-02-20T08:01:59.839Z</time>
      </trkpt>
      <trkpt lat="43.67073" lon="5.84852">
        <ele>467</ele>
        <time>2016-02-20T08:02:01.919Z</time>
      </trkpt>
      <trkpt lat="43.67074" lon="5.84857">
        <ele>465</ele>
        <time>2016-02-20T08:02:02.842Z</time>
      </trkpt>
      <trkpt lat="43.67074" lon="5.84865">
        <ele>466</ele>
        <time>2016-02-20T08:02:04.844Z</time>
      </trkpt>
      <trkpt lat="43.67071" lon="5.84869">
        <ele>466</ele>
        <time>2016-02-20T08:02:05.839Z</time>
      </trkpt>
      <trkpt lat="43.67063" lon="5.84874">
        <ele>466</ele>
        <time>2016-02-20T08:02:07.902Z</time>
      </trkpt>
      <trkpt lat="43.67059" lon="5.84877">
        <ele>466</ele>
        <time>2016-02-20T08:02:08.840Z</time>
      </trkpt>
      <trkpt lat="43.67052" lon="5.84881">
        <ele>466</ele>
        <time>2016-02-20T08:02:10.904Z</time>
      </trkpt>
      <trkpt lat="43.67048" lon="5.84882">
        <ele>466</ele>
        <time>2016-02-20T08:02:11.837Z</time>
      </trkpt>
      <trkpt lat="43.67041" lon="5.84885">
        <ele>465</ele>
        <time>2016-02-20T08:02:13.904Z</time>
      </trkpt>
      <trkpt lat="43.67038" lon="5.84887">
        <ele>465</ele>
        <time>2016-02-20T08:02:14.837Z</time>
      </trkpt>
      <trkpt lat="43.6703" lon="5.84889">
        <ele>465</ele>
        <time>2016-02-20T08:02:18.032Z</time>
      </trkpt>
      <trkpt lat="43.67028" lon="5.84889">
        <ele>465</ele>
        <time>2016-02-20T08:02:18.836Z</time>
      </trkpt>
      <trkpt lat="43.67021" lon="5.84887">
        <ele>466</ele>
        <time>2016-02-20T08:02:23.900Z</time>
      </trkpt>
      <trkpt lat="43.67018" lon="5.84885">
        <ele>466</ele>
        <time>2016-02-20T08:02:24.839Z</time>
      </trkpt>
      <trkpt lat="43.67012" lon="5.8488">
        <ele>465</ele>
        <time>2016-02-20T08:02:26.896Z</time>
      </trkpt>
      <trkpt lat="43.6701" lon="5.84876">
        <ele>464</ele>
        <time>2016-02-20T08:02:27.835Z</time>
      </trkpt>
      <trkpt lat="43.67006" lon="5.84868">
        <ele>464</ele>
        <time>2016-02-20T08:02:29.894Z</time>
      </trkpt>
      <trkpt lat="43.67004" lon="5.84865">
        <ele>464</ele>
        <time>2016-02-20T08:02:30.839Z</time>
      </trkpt>
      <trkpt lat="43.66998" lon="5.84866">
        <ele>463</ele>
        <time>2016-02-20T08:02:32.901Z</time>
      </trkpt>
      <trkpt lat="43.66995" lon="5.84867">
        <ele>463</ele>
        <time>2016-02-20T08:02:33.844Z</time>
      </trkpt>
      <trkpt lat="43.66988" lon="5.84873">
        <ele>465</ele>
        <time>2016-02-20T08:02:35.924Z</time>
      </trkpt>
      <trkpt lat="43.66985" lon="5.84876">
        <ele>465</ele>
        <time>2016-02-20T08:02:36.840Z</time>
      </trkpt>
      <trkpt lat="43.66978" lon="5.84881">
        <ele>464</ele>
        <time>2016-02-20T08:02:38.949Z</time>
      </trkpt>
      <trkpt lat="43.66976" lon="5.84883">
        <ele>465</ele>
        <time>2016-02-20T08:02:39.842Z</time>
      </trkpt>
      <trkpt lat="43.6697" lon="5.84888">
        <ele>464</ele>
        <time>2016-02-20T08:02:41.889Z</time>
      </trkpt>
      <trkpt lat="43.66968" lon="5.8489">
        <ele>464</ele>
        <time>2016-02-20T08:02:42.840Z</time>
      </trkpt>
      <trkpt lat="43.6696" lon="5.84897">
        <ele>464</ele>
        <time>2016-02-20T08:02:45.893Z</time>
      </trkpt>
      <trkpt lat="43.66958" lon="5.84899">
        <ele>464</ele>
        <time>2016-02-20T08:02:46.847Z</time>
      </trkpt>
      <trkpt lat="43.6695" lon="5.84905">
        <ele>464</ele>
        <time>2016-02-20T08:02:49.904Z</time>
      </trkpt>
      <trkpt lat="43.66948" lon="5.84907">
        <ele>464</ele>
        <time>2016-02-20T08:02:50.842Z</time>
      </trkpt>
      <trkpt lat="43.66942" lon="5.8491">
        <ele>465</ele>
        <time>2016-02-20T08:02:52.901Z</time>
      </trkpt>
      <trkpt lat="43.66939" lon="5.84912">
        <ele>465</ele>
        <time>2016-02-20T08:02:53.840Z</time>
      </trkpt>
      <trkpt lat="43.66933" lon="5.84914">
        <ele>466</ele>
        <time>2016-02-20T08:02:55.901Z</time>
      </trkpt>
      <trkpt lat="43.6693" lon="5.84915">
        <ele>465</ele>
        <time>2016-02-20T08:02:56.841Z</time>
      </trkpt>
      <trkpt lat="43.66923" lon="5.84916">
        <ele>465</ele>
        <time>2016-02-20T08:02:58.894Z</time>
      </trkpt>
      <trkpt lat="43.66919" lon="5.84916">
        <ele>465</ele>
        <time>2016-02-20T08:02:59.842Z</time>
      </trkpt>
      <trkpt lat="43.66911" lon="5.84918">
        <ele>464</ele>
        <time>2016-02-20T08:03:01.899Z</time>
      </trkpt>
      <trkpt lat="43.66907" lon="5.84919">
        <ele>464</ele>
        <time>2016-02-20T08:03:03.207Z</time>
      </trkpt>
      <trkpt lat="43.66899" lon="5.84921">
        <ele>465</ele>
        <time>2016-02-20T08:03:04.910Z</time>
      </trkpt>
      <trkpt lat="43.66893" lon="5.84923">
        <ele>464</ele>
        <time>2016-02-20T08:03:05.838Z</time>
      </trkpt>
      <trkpt lat="43.66888" lon="5.84924">
        <ele>464</ele>
        <time>2016-02-20T08:03:06.902Z</time>
      </trkpt>
      <trkpt lat="43.66883" lon="5.84925">
        <ele>464</ele>
        <time>2016-02-20T08:03:07.847Z</time>
      </trkpt>
      <trkpt lat="43.66879" lon="5.84926">
        <ele>465</ele>
        <time>2016-02-20T08:03:08.902Z</time>
      </trkpt>
      <trkpt lat="43.66874" lon="5.84928">
        <ele>465</ele>
        <time>2016-02-20T08:03:09.854Z</time>
      </trkpt>
      <trkpt lat="43.66869" lon="5.8493">
        <ele>465</ele>
        <time>2016-02-20T08:03:10.891Z</time>
      </trkpt>
      <trkpt lat="43.66865" lon="5.8493">
        <ele>466</ele>
        <time>2016-02-20T08:03:11.844Z</time>
      </trkpt>
      <trkpt lat="43.6686" lon="5.84932">
        <ele>466</ele>
        <time>2016-02-20T08:03:12.903Z</time>
      </trkpt>
      <trkpt lat="43.66855" lon="5.84933">
        <ele>466</ele>
        <time>2016-02-20T08:03:13.839Z</time>
      </trkpt>
      <trkpt lat="43.66847" lon="5.84935">
        <ele>466</ele>
        <time>2016-02-20T08:03:15.893Z</time>
      </trkpt>
      <trkpt lat="43.66842" lon="5.84936">
        <ele>466</ele>
        <time>2016-02-20T08:03:16.843Z</time>
      </trkpt>
      <trkpt lat="43.66834" lon="5.84939">
        <ele>466</ele>
        <time>2016-02-20T08:03:18.908Z</time>
      </trkpt>
      <trkpt lat="43.66829" lon="5.8494">
        <ele>466</ele>
        <time>2016-02-20T08:03:19.837Z</time>
      </trkpt>
      <trkpt lat="43.66821" lon="5.84941">
        <ele>466</ele>
        <time>2016-02-20T08:03:21.892Z</time>
      </trkpt>
      <trkpt lat="43.66817" lon="5.84942">
        <ele>466</ele>
        <time>2016-02-20T08:03:22.841Z</time>
      </trkpt>
      <trkpt lat="43.66809" lon="5.84945">
        <ele>467</ele>
        <time>2016-02-20T08:03:24.887Z</time>
      </trkpt>
      <trkpt lat="43.66805" lon="5.84947">
        <ele>468</ele>
        <time>2016-02-20T08:03:25.835Z</time>
      </trkpt>
      <trkpt lat="43.66798" lon="5.8495">
        <ele>467</ele>
        <time>2016-02-20T08:03:27.894Z</time>
      </trkpt>
      <trkpt lat="43.66794" lon="5.84951">
        <ele>468</ele>
        <time>2016-02-20T08:03:28.838Z</time>
      </trkpt>
      <trkpt lat="43.66786" lon="5.84953">
        <ele>468</ele>
        <time>2016-02-20T08:03:30.894Z</time>
      </trkpt>
      <trkpt lat="43.66783" lon="5.84954">
        <ele>468</ele>
        <time>2016-02-20T08:03:31.836Z</time>
      </trkpt>
      <trkpt lat="43.66776" lon="5.84958">
        <ele>467</ele>
        <time>2016-02-20T08:03:33.896Z</time>
      </trkpt>
      <trkpt lat="43.66773" lon="5.84959">
        <ele>467</ele>
        <time>2016-02-20T08:03:34.843Z</time>
      </trkpt>
      <trkpt lat="43.66765" lon="5.84963">
        <ele>467</ele>
        <time>2016-02-20T08:03:36.888Z</time>
      </trkpt>
      <trkpt lat="43.66762" lon="5.84964">
        <ele>467</ele>
        <time>2016-02-20T08:03:37.839Z</time>
      </trkpt>
      <trkpt lat="43.66755" lon="5.84968">
        <ele>467</ele>
        <time>2016-02-20T08:03:39.904Z</time>
      </trkpt>
      <trkpt lat="43.66751" lon="5.84969">
        <ele>467</ele>
        <time>2016-02-20T08:03:40.845Z</time>
      </trkpt>
      <trkpt lat="43.66745" lon="5.84973">
        <ele>467</ele>
        <time>2016-02-20T08:03:42.891Z</time>
      </trkpt>
      <trkpt lat="43.66741" lon="5.84974">
        <ele>467</ele>
        <time>2016-02-20T08:03:43.845Z</time>
      </trkpt>
      <trkpt lat="43.66734" lon="5.84977">
        <ele>467</ele>
        <time>2016-02-20T08:03:45.911Z</time>
      </trkpt>
      <trkpt lat="43.6673" lon="5.84977">
        <ele>467</ele>
        <time>2016-02-20T08:03:46.844Z</time>
      </trkpt>
      <trkpt lat="43.66722" lon="5.84975">
        <ele>467</ele>
        <time>2016-02-20T08:03:48.896Z</time>
      </trkpt>
      <trkpt lat="43.66719" lon="5.84972">
        <ele>467</ele>
        <time>2016-02-20T08:03:50.408Z</time>
      </trkpt>
      <trkpt lat="43.66714" lon="5.84963">
        <ele>467</ele>
        <time>2016-02-20T08:03:51.907Z</time>
      </trkpt>
      <trkpt lat="43.66713" lon="5.84957">
        <ele>467</ele>
        <time>2016-02-20T08:03:52.832Z</time>
      </trkpt>
      <trkpt lat="43.66712" lon="5.84951">
        <ele>466</ele>
        <time>2016-02-20T08:03:53.904Z</time>
      </trkpt>
      <trkpt lat="43.66713" lon="5.84944">
        <ele>466</ele>
        <time>2016-02-20T08:03:54.837Z</time>
      </trkpt>
      <trkpt lat="43.66716" lon="5.84933">
        <ele>466</ele>
        <time>2016-02-20T08:03:56.893Z</time>
      </trkpt>
      <trkpt lat="43.66718" lon="5.84927">
        <ele>466</ele>
        <time>2016-02-20T08:03:57.836Z</time>
      </trkpt>
      <trkpt lat="43.66722" lon="5.84917">
        <ele>466</ele>
        <time>2016-02-20T08:03:59.906Z</time>
      </trkpt>
      <trkpt lat="43.66725" lon="5.84912">
        <ele>466</ele>
        <time>2016-02-20T08:04:00.841Z</time>
      </trkpt>
      <trkpt lat="43.66729" lon="5.84902">
        <ele>466</ele>
        <time>2016-02-20T08:04:02.927Z</time>
      </trkpt>
      <trkpt lat="43.66731" lon="5.84898">
        <ele>466</ele>
        <time>2016-02-20T08:04:03.821Z</time>
      </trkpt>
      <trkpt lat="43.66735" lon="5.84888">
        <ele>467</ele>
        <time>2016-02-20T08:04:05.900Z</time>
      </trkpt>
      <trkpt lat="43.66736" lon="5.84884">
        <ele>467</ele>
        <time>2016-02-20T08:04:06.838Z</time>
      </trkpt>
      <trkpt lat="43.6674" lon="5.84874">
        <ele>467</ele>
        <time>2016-02-20T08:04:08.898Z</time>
      </trkpt>
      <trkpt lat="43.66741" lon="5.84869">
        <ele>467</ele>
        <time>2016-02-20T08:04:09.836Z</time>
      </trkpt>
      <trkpt lat="43.66745" lon="5.8486">
        <ele>467</ele>
        <time>2016-02-20T08:04:11.894Z</time>
      </trkpt>
      <trkpt lat="43.66747" lon="5.84855">
        <ele>467</ele>
        <time>2016-02-20T08:04:12.837Z</time>
      </trkpt>
      <trkpt lat="43.6675" lon="5.84846">
        <ele>468</ele>
        <time>2016-02-20T08:04:14.898Z</time>
      </trkpt>
      <trkpt lat="43.66752" lon="5.84841">
        <ele>468</ele>
        <time>2016-02-20T08:04:15.838Z</time>
      </trkpt>
      <trkpt lat="43.66755" lon="5.84832">
        <ele>468</ele>
        <time>2016-02-20T08:04:17.895Z</time>
      </trkpt>
      <trkpt lat="43.66756" lon="5.84827">
        <ele>468</ele>
        <time>2016-02-20T08:04:18.838Z</time>
      </trkpt>
      <trkpt lat="43.66759" lon="5.84818">
        <ele>468</ele>
        <time>2016-02-20T08:04:20.911Z</time>
      </trkpt>
      <trkpt lat="43.66761" lon="5.84813">
        <ele>468</ele>
        <time>2016-02-20T08:04:21.841Z</time>
      </trkpt>
      <trkpt lat="43.66764" lon="5.84804">
        <ele>469</ele>
        <time>2016-02-20T08:04:23.898Z</time>
      </trkpt>
      <trkpt lat="43.66766" lon="5.84799">
        <ele>468</ele>
        <time>2016-02-20T08:04:24.822Z</time>
      </trkpt>
      <trkpt lat="43.66769" lon="5.8479">
        <ele>469</ele>
        <time>2016-02-20T08:04:26.893Z</time>
      </trkpt>
      <trkpt lat="43.6677" lon="5.84786">
        <ele>469</ele>
        <time>2016-02-20T08:04:27.843Z</time>
      </trkpt>
      <trkpt lat="43.66773" lon="5.84777">
        <ele>469</ele>
        <time>2016-02-20T08:04:29.918Z</time>
      </trkpt>
      <trkpt lat="43.66775" lon="5.84773">
        <ele>469</ele>
        <time>2016-02-20T08:04:30.841Z</time>
      </trkpt>
      <trkpt lat="43.66778" lon="5.84764">
        <ele>468</ele>
        <time>2016-02-20T08:04:32.895Z</time>
      </trkpt>
      <trkpt lat="43.66779" lon="5.84761">
        <ele>468</ele>
        <time>2016-02-20T08:04:33.838Z</time>
      </trkpt>
      <trkpt lat="43.66782" lon="5.84752">
        <ele>469</ele>
        <time>2016-02-20T08:04:35.895Z</time>
      </trkpt>
      <trkpt lat="43.66783" lon="5.84748">
        <ele>469</ele>
        <time>2016-02-20T08:04:36.844Z</time>
      </trkpt>
      <trkpt lat="43.66785" lon="5.84739">
        <ele>469</ele>
        <time>2016-02-20T08:04:38.914Z</time>
      </trkpt>
      <trkpt lat="43.66786" lon="5.84735">
        <ele>470</ele>
        <time>2016-02-20T08:04:39.836Z</time>
      </trkpt>
      <trkpt lat="43.66788" lon="5.84726">
        <ele>470</ele>
        <time>2016-02-20T08:04:41.886Z</time>
      </trkpt>
      <trkpt lat="43.6679" lon="5.84721">
        <ele>470</ele>
        <time>2016-02-20T08:04:42.838Z</time>
      </trkpt>
      <trkpt lat="43.66792" lon="5.84713">
        <ele>470</ele>
        <time>2016-02-20T08:04:44.898Z</time>
      </trkpt>
      <trkpt lat="43.66793" lon="5.84708">
        <ele>470</ele>
        <time>2016-02-20T08:04:45.845Z</time>
      </trkpt>
      <trkpt lat="43.66795" lon="5.847">
        <ele>470</ele>
        <time>2016-02-20T08:04:47.895Z</time>
      </trkpt>
      <trkpt lat="43.66796" lon="5.84695">
        <ele>470</ele>
        <time>2016-02-20T08:04:48.839Z</time>
      </trkpt>
      <trkpt lat="43.66798" lon="5.84686">
        <ele>470</ele>
        <time>2016-02-20T08:04:50.892Z</time>
      </trkpt>
      <trkpt lat="43.66799" lon="5.84682">
        <ele>470</ele>
        <time>2016-02-20T08:04:51.853Z</time>
      </trkpt>
      <trkpt lat="43.668" lon="5.84672">
        <ele>470</ele>
        <time>2016-02-20T08:04:53.902Z</time>
      </trkpt>
      <trkpt lat="43.66801" lon="5.84668">
        <ele>470</ele>
        <time>2016-02-20T08:04:54.838Z</time>
      </trkpt>
      <trkpt lat="43.66803" lon="5.84658">
        <ele>470</ele>
        <time>2016-02-20T08:04:57.057Z</time>
      </trkpt>
      <trkpt lat="43.66804" lon="5.84654">
        <ele>470</ele>
        <time>2016-02-20T08:04:57.844Z</time>
      </trkpt>
      <trkpt lat="43.66806" lon="5.84644">
        <ele>470</ele>
        <time>2016-02-20T08:04:59.899Z</time>
      </trkpt>
      <trkpt lat="43.66807" lon="5.84639">
        <ele>470</ele>
        <time>2016-02-20T08:05:00.843Z</time>
      </trkpt>
      <trkpt lat="43.6681" lon="5.84629">
        <ele>470</ele>
        <time>2016-02-20T08:05:02.897Z</time>
      </trkpt>
      <trkpt lat="43.66811" lon="5.84624">
        <ele>470</ele>
        <time>2016-02-20T08:05:03.835Z</time>
      </trkpt>
      <trkpt lat="43.66813" lon="5.84614">
        <ele>470</ele>
        <time>2016-02-20T08:05:05.903Z</time>
      </trkpt>
      <trkpt lat="43.66814" lon="5.84608">
        <ele>470</ele>
        <time>2016-02-20T08:05:06.843Z</time>
      </trkpt>
      <trkpt lat="43.66815" lon="5.84598">
        <ele>470</ele>
        <time>2016-02-20T08:05:08.904Z</time>
      </trkpt>
      <trkpt lat="43.66816" lon="5.84592">
        <ele>470</ele>
        <time>2016-02-20T08:05:09.845Z</time>
      </trkpt>
      <trkpt lat="43.66819" lon="5.84583">
        <ele>471</ele>
        <time>2016-02-20T08:05:11.898Z</time>
      </trkpt>
      <trkpt lat="43.6682" lon="5.84577">
        <ele>471</ele>
        <time>2016-02-20T08:05:12.838Z</time>
      </trkpt>
      <trkpt lat="43.66822" lon="5.84567">
        <ele>471</ele>
        <time>2016-02-20T08:05:14.897Z</time>
      </trkpt>
      <trkpt lat="43.66823" lon="5.84562">
        <ele>471</ele>
        <time>2016-02-20T08:05:15.838Z</time>
      </trkpt>
      <trkpt lat="43.66825" lon="5.84552">
        <ele>471</ele>
        <time>2016-02-20T08:05:17.891Z</time>
      </trkpt>
      <trkpt lat="43.66826" lon="5.84547">
        <ele>471</ele>
        <time>2016-02-20T08:05:18.845Z</time>
      </trkpt>
      <trkpt lat="43.66829" lon="5.84537">
        <ele>471</ele>
        <time>2016-02-20T08:05:20.895Z</time>
      </trkpt>
      <trkpt lat="43.6683" lon="5.84532">
        <ele>471</ele>
        <time>2016-02-20T08:05:21.841Z</time>
      </trkpt>
      <trkpt lat="43.66832" lon="5.84522">
        <ele>471</ele>
        <time>2016-02-20T08:05:23.930Z</time>
      </trkpt>
      <trkpt lat="43.66833" lon="5.84517">
        <ele>471</ele>
        <time>2016-02-20T08:05:24.842Z</time>
      </trkpt>
      <trkpt lat="43.66835" lon="5.84507">
        <ele>471</ele>
        <time>2016-02-20T08:05:26.845Z</time>
      </trkpt>
      <trkpt lat="43.66836" lon="5.84502">
        <ele>471</ele>
        <time>2016-02-20T08:05:27.836Z</time>
      </trkpt>
      <trkpt lat="43.66839" lon="5.84491">
        <ele>470</ele>
        <time>2016-02-20T08:05:29.920Z</time>
      </trkpt>
      <trkpt lat="43.6684" lon="5.84485">
        <ele>470</ele>
        <time>2016-02-20T08:05:30.843Z</time>
      </trkpt>
      <trkpt lat="43.66843" lon="5.84473">
        <ele>470</ele>
        <time>2016-02-20T08:05:32.895Z</time>
      </trkpt>
      <trkpt lat="43.66845" lon="5.84466">
        <ele>470</ele>
        <time>2016-02-20T08:05:33.845Z</time>
      </trkpt>
      <trkpt lat="43.66847" lon="5.8446">
        <ele>470</ele>
        <time>2016-02-20T08:05:34.924Z</time>
      </trkpt>
      <trkpt lat="43.66849" lon="5.84454">
        <ele>470</ele>
        <time>2016-02-20T08:05:35.843Z</time>
      </trkpt>
      <trkpt lat="43.66852" lon="5.84449">
        <ele>470</ele>
        <time>2016-02-20T08:05:37.482Z</time>
      </trkpt>
      <trkpt lat="43.66854" lon="5.84444">
        <ele>470</ele>
        <time>2016-02-20T08:05:37.822Z</time>
      </trkpt>
      <trkpt lat="43.66858" lon="5.84438">
        <ele>470</ele>
        <time>2016-02-20T08:05:38.898Z</time>
      </trkpt>
      <trkpt lat="43.66861" lon="5.84433">
        <ele>470</ele>
        <time>2016-02-20T08:05:39.843Z</time>
      </trkpt>
      <trkpt lat="43.66864" lon="5.84428">
        <ele>470</ele>
        <time>2016-02-20T08:05:40.895Z</time>
      </trkpt>
      <trkpt lat="43.66867" lon="5.84424">
        <ele>470</ele>
        <time>2016-02-20T08:05:41.841Z</time>
      </trkpt>
      <trkpt lat="43.66873" lon="5.84415">
        <ele>470</ele>
        <time>2016-02-20T08:05:43.903Z</time>
      </trkpt>
      <trkpt lat="43.66876" lon="5.84411">
        <ele>470</ele>
        <time>2016-02-20T08:05:44.841Z</time>
      </trkpt>
      <trkpt lat="43.66883" lon="5.84403">
        <ele>470</ele>
        <time>2016-02-20T08:05:46.899Z</time>
      </trkpt>
      <trkpt lat="43.66886" lon="5.84399">
        <ele>470</ele>
        <time>2016-02-20T08:05:48.280Z</time>
      </trkpt>
      <trkpt lat="43.66892" lon="5.84391">
        <ele>470</ele>
        <time>2016-02-20T08:05:49.902Z</time>
      </trkpt>
      <trkpt lat="43.66896" lon="5.84387">
        <ele>470</ele>
        <time>2016-02-20T08:05:50.841Z</time>
      </trkpt>
      <trkpt lat="43.66899" lon="5.84383">
        <ele>470</ele>
        <time>2016-02-20T08:05:51.902Z</time>
      </trkpt>
      <trkpt lat="43.66903" lon="5.84378">
        <ele>470</ele>
        <time>2016-02-20T08:05:52.848Z</time>
      </trkpt>
      <trkpt lat="43.66909" lon="5.84369">
        <ele>470</ele>
        <time>2016-02-20T08:05:54.902Z</time>
      </trkpt>
      <trkpt lat="43.66912" lon="5.84365">
        <ele>470</ele>
        <time>2016-02-20T08:05:55.843Z</time>
      </trkpt>
      <trkpt lat="43.66915" lon="5.84361">
        <ele>470</ele>
        <time>2016-02-20T08:05:56.906Z</time>
      </trkpt>
      <trkpt lat="43.66919" lon="5.84356">
        <ele>470</ele>
        <time>2016-02-20T08:05:57.838Z</time>
      </trkpt>
      <trkpt lat="43.66925" lon="5.84348">
        <ele>471</ele>
        <time>2016-02-20T08:05:59.895Z</time>
      </trkpt>
      <trkpt lat="43.66928" lon="5.84344">
        <ele>470</ele>
        <time>2016-02-20T08:06:00.843Z</time>
      </trkpt>
      <trkpt lat="43.66935" lon="5.84335">
        <ele>470</ele>
        <time>2016-02-20T08:06:02.903Z</time>
      </trkpt>
      <trkpt lat="43.66938" lon="5.84331">
        <ele>470</ele>
        <time>2016-02-20T08:06:03.836Z</time>
      </trkpt>
      <trkpt lat="43.66944" lon="5.84323">
        <ele>470</ele>
        <time>2016-02-20T08:06:05.898Z</time>
      </trkpt>
      <trkpt lat="43.66948" lon="5.84319">
        <ele>470</ele>
        <time>2016-02-20T08:06:06.840Z</time>
      </trkpt>
      <trkpt lat="43.66951" lon="5.84315">
        <ele>470</ele>
        <time>2016-02-20T08:06:07.901Z</time>
      </trkpt>
      <trkpt lat="43.66955" lon="5.84311">
        <ele>469</ele>
        <time>2016-02-20T08:06:08.848Z</time>
      </trkpt>
      <trkpt lat="43.66962" lon="5.84305">
        <ele>469</ele>
        <time>2016-02-20T08:06:10.895Z</time>
      </trkpt>
      <trkpt lat="43.66966" lon="5.84302">
        <ele>469</ele>
        <time>2016-02-20T08:06:11.821Z</time>
      </trkpt>
      <trkpt lat="43.66973" lon="5.84296">
        <ele>469</ele>
        <time>2016-02-20T08:06:13.889Z</time>
      </trkpt>
      <trkpt lat="43.66977" lon="5.84294">
        <ele>469</ele>
        <time>2016-02-20T08:06:14.842Z</time>
      </trkpt>
      <trkpt lat="43.66984" lon="5.84288">
        <ele>469</ele>
        <time>2016-02-20T08:06:16.899Z</time>
      </trkpt>
      <trkpt lat="43.66988" lon="5.84286">
        <ele>469</ele>
        <time>2016-02-20T08:06:17.845Z</time>
      </trkpt>
      <trkpt lat="43.66995" lon="5.84279">
        <ele>469</ele>
        <time>2016-02-20T08:06:19.853Z</time>
      </trkpt>
      <trkpt lat="43.66998" lon="5.84277">
        <ele>469</ele>
        <time>2016-02-20T08:06:20.846Z</time>
      </trkpt>
      <trkpt lat="43.67004" lon="5.84269">
        <ele>469</ele>
        <time>2016-02-20T08:06:22.906Z</time>
      </trkpt>
      <trkpt lat="43.67007" lon="5.84264">
        <ele>469</ele>
        <time>2016-02-20T08:06:23.836Z</time>
      </trkpt>
      <trkpt lat="43.6701" lon="5.84253">
        <ele>469</ele>
        <time>2016-02-20T08:06:25.887Z</time>
      </trkpt>
      <trkpt lat="43.67012" lon="5.84247">
        <ele>469</ele>
        <time>2016-02-20T08:06:26.837Z</time>
      </trkpt>
      <trkpt lat="43.67013" lon="5.84235">
        <ele>469</ele>
        <time>2016-02-20T08:06:28.903Z</time>
      </trkpt>
      <trkpt lat="43.67013" lon="5.84229">
        <ele>469</ele>
        <time>2016-02-20T08:06:29.848Z</time>
      </trkpt>
      <trkpt lat="43.67013" lon="5.84223">
        <ele>469</ele>
        <time>2016-02-20T08:06:30.902Z</time>
      </trkpt>
      <trkpt lat="43.67011" lon="5.84215">
        <ele>469</ele>
        <time>2016-02-20T08:06:31.839Z</time>
      </trkpt>
      <trkpt lat="43.67011" lon="5.84208">
        <ele>470</ele>
        <time>2016-02-20T08:06:32.899Z</time>
      </trkpt>
      <trkpt lat="43.67011" lon="5.84203">
        <ele>470</ele>
        <time>2016-02-20T08:06:33.845Z</time>
      </trkpt>
      <trkpt lat="43.67012" lon="5.84191">
        <ele>470</ele>
        <time>2016-02-20T08:06:35.900Z</time>
      </trkpt>
      <trkpt lat="43.67012" lon="5.84186">
        <ele>470</ele>
        <time>2016-02-20T08:06:36.848Z</time>
      </trkpt>
      <trkpt lat="43.67011" lon="5.84176">
        <ele>471</ele>
        <time>2016-02-20T08:06:38.897Z</time>
      </trkpt>
      <trkpt lat="43.67011" lon="5.84172">
        <ele>471</ele>
        <time>2016-02-20T08:06:39.846Z</time>
      </trkpt>
      <trkpt lat="43.67013" lon="5.84162">
        <ele>471</ele>
        <time>2016-02-20T08:06:41.896Z</time>
      </trkpt>
      <trkpt lat="43.67015" lon="5.84158">
        <ele>470</ele>
        <time>2016-02-20T08:06:42.847Z</time>
      </trkpt>
      <trkpt lat="43.67021" lon="5.8415">
        <ele>470</ele>
        <time>2016-02-20T08:06:44.901Z</time>
      </trkpt>
      <trkpt lat="43.67024" lon="5.84145">
        <ele>471</ele>
        <time>2016-02-20T08:06:45.847Z</time>
      </trkpt>
      <trkpt lat="43.67029" lon="5.84138">
        <ele>471</ele>
        <time>2016-02-20T08:06:47.842Z</time>
      </trkpt>
      <trkpt lat="43.67033" lon="5.84134">
        <ele>472</ele>
        <time>2016-02-20T08:06:48.846Z</time>
      </trkpt>
      <trkpt lat="43.67037" lon="5.84126">
        <ele>472</ele>
        <time>2016-02-20T08:06:50.902Z</time>
      </trkpt>
      <trkpt lat="43.6704" lon="5.84123">
        <ele>472</ele>
        <time>2016-02-20T08:06:51.839Z</time>
      </trkpt>
      <trkpt lat="43.67045" lon="5.84116">
        <ele>473</ele>
        <time>2016-02-20T08:06:53.902Z</time>
      </trkpt>
      <trkpt lat="43.67047" lon="5.84113">
        <ele>473</ele>
        <time>2016-02-20T08:06:54.840Z</time>
      </trkpt>
      <trkpt lat="43.67052" lon="5.84106">
        <ele>473</ele>
        <time>2016-02-20T08:06:56.902Z</time>
      </trkpt>
      <trkpt lat="43.67054" lon="5.84103">
        <ele>474</ele>
        <time>2016-02-20T08:06:57.845Z</time>
      </trkpt>
      <trkpt lat="43.67059" lon="5.84097">
        <ele>474</ele>
        <time>2016-02-20T08:06:59.897Z</time>
      </trkpt>
      <trkpt lat="43.67062" lon="5.84093">
        <ele>474</ele>
        <time>2016-02-20T08:07:00.847Z</time>
      </trkpt>
      <trkpt lat="43.67067" lon="5.84086">
        <ele>474</ele>
        <time>2016-02-20T08:07:02.896Z</time>
      </trkpt>
      <trkpt lat="43.6707" lon="5.84083">
        <ele>474</ele>
        <time>2016-02-20T08:07:03.841Z</time>
      </trkpt>
      <trkpt lat="43.67076" lon="5.84074">
        <ele>474</ele>
        <time>2016-02-20T08:07:05.910Z</time>
      </trkpt>
      <trkpt lat="43.67079" lon="5.8407">
        <ele>474</ele>
        <time>2016-02-20T08:07:06.850Z</time>
      </trkpt>
      <trkpt lat="43.67085" lon="5.84062">
        <ele>474</ele>
        <time>2016-02-20T08:07:08.925Z</time>
      </trkpt>
      <trkpt lat="43.67088" lon="5.84057">
        <ele>474</ele>
        <time>2016-02-20T08:07:09.839Z</time>
      </trkpt>
      <trkpt lat="43.67093" lon="5.84049">
        <ele>473</ele>
        <time>2016-02-20T08:07:11.900Z</time>
      </trkpt>
      <trkpt lat="43.67095" lon="5.84045">
        <ele>474</ele>
        <time>2016-02-20T08:07:12.843Z</time>
      </trkpt>
      <trkpt lat="43.671" lon="5.84036">
        <ele>474</ele>
        <time>2016-02-20T08:07:14.888Z</time>
      </trkpt>
      <trkpt lat="43.67103" lon="5.84033">
        <ele>474</ele>
        <time>2016-02-20T08:07:15.840Z</time>
      </trkpt>
      <trkpt lat="43.67108" lon="5.84025">
        <ele>474</ele>
        <time>2016-02-20T08:07:17.898Z</time>
      </trkpt>
      <trkpt lat="43.67111" lon="5.84022">
        <ele>473</ele>
        <time>2016-02-20T08:07:18.839Z</time>
      </trkpt>
      <trkpt lat="43.67116" lon="5.84015">
        <ele>473</ele>
        <time>2016-02-20T08:07:20.902Z</time>
      </trkpt>
      <trkpt lat="43.67118" lon="5.84011">
        <ele>474</ele>
        <time>2016-02-20T08:07:21.843Z</time>
      </trkpt>
      <trkpt lat="43.67124" lon="5.84005">
        <ele>474</ele>
        <time>2016-02-20T08:07:23.896Z</time>
      </trkpt>
      <trkpt lat="43.67126" lon="5.84002">
        <ele>473</ele>
        <time>2016-02-20T08:07:24.850Z</time>
      </trkpt>
      <trkpt lat="43.6713" lon="5.83995">
        <ele>474</ele>
        <time>2016-02-20T08:07:26.894Z</time>
      </trkpt>
      <trkpt lat="43.67132" lon="5.83993">
        <ele>474</ele>
        <time>2016-02-20T08:07:27.836Z</time>
      </trkpt>
      <trkpt lat="43.67139" lon="5.83986">
        <ele>475</ele>
        <time>2016-02-20T08:07:30.905Z</time>
      </trkpt>
      <trkpt lat="43.67141" lon="5.83983">
        <ele>475</ele>
        <time>2016-02-20T08:07:31.839Z</time>
      </trkpt>
      <trkpt lat="43.67147" lon="5.83977">
        <ele>476</ele>
        <time>2016-02-20T08:07:34.895Z</time>
      </trkpt>
      <trkpt lat="43.67148" lon="5.83975">
        <ele>476</ele>
        <time>2016-02-20T08:07:35.846Z</time>
      </trkpt>
      <trkpt lat="43.67153" lon="5.83968">
        <ele>476</ele>
        <time>2016-02-20T08:07:38.896Z</time>
      </trkpt>
      <trkpt lat="43.67155" lon="5.83965">
        <ele>476</ele>
        <time>2016-02-20T08:07:39.839Z</time>
      </trkpt>
      <trkpt lat="43.6716" lon="5.83958">
        <ele>476</ele>
        <time>2016-02-20T08:07:42.902Z</time>
      </trkpt>
      <trkpt lat="43.67162" lon="5.83956">
        <ele>477</ele>
        <time>2016-02-20T08:07:43.840Z</time>
      </trkpt>
      <trkpt lat="43.67167" lon="5.83948">
        <ele>477</ele>
        <time>2016-02-20T08:07:46.911Z</time>
      </trkpt>
      <trkpt lat="43.67169" lon="5.83946">
        <ele>477</ele>
        <time>2016-02-20T08:07:47.834Z</time>
      </trkpt>
      <trkpt lat="43.67174" lon="5.83938">
        <ele>477</ele>
        <time>2016-02-20T08:07:50.901Z</time>
      </trkpt>
      <trkpt lat="43.67176" lon="5.83936">
        <ele>477</ele>
        <time>2016-02-20T08:07:51.844Z</time>
      </trkpt>
      <trkpt lat="43.67181" lon="5.83928">
        <ele>477</ele>
        <time>2016-02-20T08:07:54.910Z</time>
      </trkpt>
      <trkpt lat="43.67183" lon="5.83925">
        <ele>477</ele>
        <time>2016-02-20T08:07:55.823Z</time>
      </trkpt>
      <trkpt lat="43.67188" lon="5.83917">
        <ele>477</ele>
        <time>2016-02-20T08:07:58.920Z</time>
      </trkpt>
      <trkpt lat="43.6719" lon="5.83915">
        <ele>477</ele>
        <time>2016-02-20T08:07:59.821Z</time>
      </trkpt>
      <trkpt lat="43.67196" lon="5.83907">
        <ele>477</ele>
        <time>2016-02-20T08:08:02.891Z</time>
      </trkpt>
      <trkpt lat="43.67197" lon="5.83905">
        <ele>477</ele>
        <time>2016-02-20T08:08:03.837Z</time>
      </trkpt>
      <trkpt lat="43.67203" lon="5.83897">
        <ele>477</ele>
        <time>2016-02-20T08:08:06.902Z</time>
      </trkpt>
      <trkpt lat="43.67204" lon="5.83895">
        <ele>477</ele>
        <time>2016-02-20T08:08:07.842Z</time>
      </trkpt>
      <trkpt lat="43.6721" lon="5.83887">
        <ele>477</ele>
        <time>2016-02-20T08:08:10.898Z</time>
      </trkpt>
      <trkpt lat="43.67211" lon="5.83885">
        <ele>477</ele>
        <time>2016-02-20T08:08:11.839Z</time>
      </trkpt>
      <trkpt lat="43.67218" lon="5.83876">
        <ele>478</ele>
        <time>2016-02-20T08:08:15.898Z</time>
      </trkpt>
      <trkpt lat="43.67219" lon="5.83874">
        <ele>478</ele>
        <time>2016-02-20T08:08:16.837Z</time>
      </trkpt>
      <trkpt lat="43.67226" lon="5.83866">
        <ele>479</ele>
        <time>2016-02-20T08:08:20.900Z</time>
      </trkpt>
      <trkpt lat="43.67227" lon="5.83863">
        <ele>479</ele>
        <time>2016-02-20T08:08:21.840Z</time>
      </trkpt>
      <trkpt lat="43.67235" lon="5.83857">
        <ele>479</ele>
        <time>2016-02-20T08:08:25.919Z</time>
      </trkpt>
      <trkpt lat="43.67237" lon="5.83856">
        <ele>479</ele>
        <time>2016-02-20T08:08:26.845Z</time>
      </trkpt>
      <trkpt lat="43.67245" lon="5.83855">
        <ele>479</ele>
        <time>2016-02-20T08:08:31.907Z</time>
      </trkpt>
      <trkpt lat="43.67247" lon="5.83855">
        <ele>479</ele>
        <time>2016-02-20T08:08:32.838Z</time>
      </trkpt>
      <trkpt lat="43.67254" lon="5.83854">
        <ele>479</ele>
        <time>2016-02-20T08:08:36.842Z</time>
      </trkpt>
      <trkpt lat="43.67257" lon="5.83854">
        <ele>479</ele>
        <time>2016-02-20T08:08:37.837Z</time>
      </trkpt>
      <trkpt lat="43.67266" lon="5.83856">
        <ele>480</ele>
        <time>2016-02-20T08:08:41.909Z</time>
      </trkpt>
      <trkpt lat="43.67268" lon="5.83855">
        <ele>480</ele>
        <time>2016-02-20T08:08:42.846Z</time>
      </trkpt>
      <trkpt lat="43.67276" lon="5.8385">
        <ele>480</ele>
        <time>2016-02-20T08:08:46.910Z</time>
      </trkpt>
      <trkpt lat="43.67277" lon="5.83848">
        <ele>480</ele>
        <time>2016-02-20T08:08:47.841Z</time>
      </trkpt>
      <trkpt lat="43.67281" lon="5.8384">
        <ele>481</ele>
        <time>2016-02-20T08:08:50.900Z</time>
      </trkpt>
      <trkpt lat="43.67282" lon="5.83838">
        <ele>482</ele>
        <time>2016-02-20T08:08:51.837Z</time>
      </trkpt>
      <trkpt lat="43.67283" lon="5.83825">
        <ele>483</ele>
        <time>2016-02-20T08:08:55.895Z</time>
      </trkpt>
      <trkpt lat="43.67282" lon="5.83822">
        <ele>483</ele>
        <time>2016-02-20T08:08:56.848Z</time>
      </trkpt>
      <trkpt lat="43.67282" lon="5.83813">
        <ele>483</ele>
        <time>2016-02-20T08:08:59.903Z</time>
      </trkpt>
      <trkpt lat="43.67281" lon="5.8381">
        <ele>483</ele>
        <time>2016-02-20T08:09:00.847Z</time>
      </trkpt>
      <trkpt lat="43.6728" lon="5.838">
        <ele>483</ele>
        <time>2016-02-20T08:09:03.917Z</time>
      </trkpt>
      <trkpt lat="43.6728" lon="5.83797">
        <ele>484</ele>
        <time>2016-02-20T08:09:04.848Z</time>
      </trkpt>
      <trkpt lat="43.67278" lon="5.83788">
        <ele>484</ele>
        <time>2016-02-20T08:09:07.902Z</time>
      </trkpt>
      <trkpt lat="43.67278" lon="5.83785">
        <ele>484</ele>
        <time>2016-02-20T08:09:08.849Z</time>
      </trkpt>
      <trkpt lat="43.67275" lon="5.83776">
        <ele>484</ele>
        <time>2016-02-20T08:09:11.930Z</time>
      </trkpt>
      <trkpt lat="43.67274" lon="5.83774">
        <ele>485</ele>
        <time>2016-02-20T08:09:12.844Z</time>
      </trkpt>
      <trkpt lat="43.67267" lon="5.83766">
        <ele>485</ele>
        <time>2016-02-20T08:09:16.903Z</time>
      </trkpt>
      <trkpt lat="43.67266" lon="5.83764">
        <ele>485</ele>
        <time>2016-02-20T08:09:17.844Z</time>
      </trkpt>
      <trkpt lat="43.67259" lon="5.83758">
        <ele>485</ele>
        <time>2016-02-20T08:09:21.899Z</time>
      </trkpt>
      <trkpt lat="43.67257" lon="5.83757">
        <ele>485</ele>
        <time>2016-02-20T08:09:22.840Z</time>
      </trkpt>
      <trkpt lat="43.67251" lon="5.83751">
        <ele>486</ele>
        <time>2016-02-20T08:09:26.845Z</time>
      </trkpt>
      <trkpt lat="43.67249" lon="5.83749">
        <ele>487</ele>
        <time>2016-02-20T08:09:27.840Z</time>
      </trkpt>
      <trkpt lat="43.67243" lon="5.83743">
        <ele>487</ele>
        <time>2016-02-20T08:09:31.918Z</time>
      </trkpt>
      <trkpt lat="43.67241" lon="5.83741">
        <ele>487</ele>
        <time>2016-02-20T08:09:32.848Z</time>
      </trkpt>
      <trkpt lat="43.67235" lon="5.83734">
        <ele>488</ele>
        <time>2016-02-20T08:09:36.939Z</time>
      </trkpt>
      <trkpt lat="43.67233" lon="5.83732">
        <ele>488</ele>
        <time>2016-02-20T08:09:37.839Z</time>
      </trkpt>
      <trkpt lat="43.67227" lon="5.83725">
        <ele>488</ele>
        <time>2016-02-20T08:09:41.894Z</time>
      </trkpt>
      <trkpt lat="43.67225" lon="5.83723">
        <ele>489</ele>
        <time>2016-02-20T08:09:42.846Z</time>
      </trkpt>
      <trkpt lat="43.67218" lon="5.83718">
        <ele>490</ele>
        <time>2016-02-20T08:09:46.903Z</time>
      </trkpt>
      <trkpt lat="43.67216" lon="5.83716">
        <ele>490</ele>
        <time>2016-02-20T08:09:47.838Z</time>
      </trkpt>
      <trkpt lat="43.67211" lon="5.83708">
        <ele>490</ele>
        <time>2016-02-20T08:09:51.901Z</time>
      </trkpt>
      <trkpt lat="43.67209" lon="5.83705">
        <ele>491</ele>
        <time>2016-02-20T08:09:52.842Z</time>
      </trkpt>
      <trkpt lat="43.67203" lon="5.83697">
        <ele>491</ele>
        <time>2016-02-20T08:09:56.896Z</time>
      </trkpt>
      <trkpt lat="43.67202" lon="5.83694">
        <ele>491</ele>
        <time>2016-02-20T08:09:57.847Z</time>
      </trkpt>
      <trkpt lat="43.67198" lon="5.83684">
        <ele>492</ele>
        <time>2016-02-20T08:10:01.889Z</time>
      </trkpt>
      <trkpt lat="43.67198" lon="5.83681">
        <ele>492</ele>
        <time>2016-02-20T08:10:02.843Z</time>
      </trkpt>
      <trkpt lat="43.672" lon="5.83672">
        <ele>492</ele>
        <time>2016-02-20T08:10:05.904Z</time>
      </trkpt>
      <trkpt lat="43.67201" lon="5.83669">
        <ele>492</ele>
        <time>2016-02-20T08:10:06.851Z</time>
      </trkpt>
      <trkpt lat="43.67204" lon="5.8366">
        <ele>493</ele>
        <time>2016-02-20T08:10:09.931Z</time>
      </trkpt>
      <trkpt lat="43.67205" lon="5.83657">
        <ele>492</ele>
        <time>2016-02-20T08:10:10.849Z</time>
      </trkpt>
      <trkpt lat="43.67208" lon="5.83645">
        <ele>492</ele>
        <time>2016-02-20T08:10:14.893Z</time>
      </trkpt>
      <trkpt lat="43.67209" lon="5.83642">
        <ele>493</ele>
        <time>2016-02-20T08:10:15.858Z</time>
      </trkpt>
      <trkpt lat="43.67211" lon="5.83633">
        <ele>493</ele>
        <time>2016-02-20T08:10:18.896Z</time>
      </trkpt>
      <trkpt lat="43.67211" lon="5.8363">
        <ele>492</ele>
        <time>2016-02-20T08:10:19.841Z</time>
      </trkpt>
      <trkpt lat="43.67214" lon="5.8362">
        <ele>493</ele>
        <time>2016-02-20T08:10:23.903Z</time>
      </trkpt>
      <trkpt lat="43.67214" lon="5.83617">
        <ele>493</ele>
        <time>2016-02-20T08:10:24.847Z</time>
      </trkpt>
      <trkpt lat="43.67217" lon="5.83606">
        <ele>494</ele>
        <time>2016-02-20T08:10:29.482Z</time>
      </trkpt>
      <trkpt lat="43.67217" lon="5.83603">
        <ele>494</ele>
        <time>2016-02-20T08:10:29.824Z</time>
      </trkpt>
      <trkpt lat="43.6722" lon="5.83592">
        <ele>494</ele>
        <time>2016-02-20T08:10:33.899Z</time>
      </trkpt>
      <trkpt lat="43.67221" lon="5.83589">
        <ele>495</ele>
        <time>2016-02-20T08:10:34.844Z</time>
      </trkpt>
      <trkpt lat="43.67223" lon="5.83579">
        <ele>495</ele>
        <time>2016-02-20T08:10:38.900Z</time>
      </trkpt>
      <trkpt lat="43.67224" lon="5.83577">
        <ele>495</ele>
        <time>2016-02-20T08:10:39.841Z</time>
      </trkpt>
      <trkpt lat="43.67226" lon="5.83566">
        <ele>495</ele>
        <time>2016-02-20T08:10:43.914Z</time>
      </trkpt>
      <trkpt lat="43.67226" lon="5.83563">
        <ele>496</ele>
        <time>2016-02-20T08:10:44.850Z</time>
      </trkpt>
      <trkpt lat="43.67229" lon="5.83552">
        <ele>496</ele>
        <time>2016-02-20T08:10:48.901Z</time>
      </trkpt>
      <trkpt lat="43.67229" lon="5.8355">
        <ele>496</ele>
        <time>2016-02-20T08:10:49.841Z</time>
      </trkpt>
      <trkpt lat="43.67232" lon="5.83539">
        <ele>496</ele>
        <time>2016-02-20T08:10:53.915Z</time>
      </trkpt>
      <trkpt lat="43.67232" lon="5.83537">
        <ele>496</ele>
        <time>2016-02-20T08:10:54.841Z</time>
      </trkpt>
      <trkpt lat="43.67235" lon="5.83528">
        <ele>497</ele>
        <time>2016-02-20T08:10:57.892Z</time>
      </trkpt>
      <trkpt lat="43.67236" lon="5.83525">
        <ele>496</ele>
        <time>2016-02-20T08:10:58.843Z</time>
      </trkpt>
      <trkpt lat="43.67239" lon="5.83514">
        <ele>497</ele>
        <time>2016-02-20T08:11:02.893Z</time>
      </trkpt>
      <trkpt lat="43.6724" lon="5.83511">
        <ele>497</ele>
        <time>2016-02-20T08:11:03.840Z</time>
      </trkpt>
      <trkpt lat="43.67242" lon="5.83502">
        <ele>497</ele>
        <time>2016-02-20T08:11:07.476Z</time>
      </trkpt>
      <trkpt lat="43.67243" lon="5.83499">
        <ele>497</ele>
        <time>2016-02-20T08:11:07.844Z</time>
      </trkpt>
      <trkpt lat="43.67247" lon="5.83488">
        <ele>498</ele>
        <time>2016-02-20T08:11:11.910Z</time>
      </trkpt>
      <trkpt lat="43.67248" lon="5.83485">
        <ele>498</ele>
        <time>2016-02-20T08:11:12.843Z</time>
      </trkpt>
      <trkpt lat="43.67251" lon="5.83474">
        <ele>498</ele>
        <time>2016-02-20T08:11:16.924Z</time>
      </trkpt>
      <trkpt lat="43.67252" lon="5.83471">
        <ele>498</ele>
        <time>2016-02-20T08:11:17.838Z</time>
      </trkpt>
      <trkpt lat="43.67254" lon="5.83461">
        <ele>499</ele>
        <time>2016-02-20T08:11:21.894Z</time>
      </trkpt>
      <trkpt lat="43.67255" lon="5.83458">
        <ele>499</ele>
        <time>2016-02-20T08:11:22.844Z</time>
      </trkpt>
      <trkpt lat="43.67258" lon="5.83447">
        <ele>500</ele>
        <time>2016-02-20T08:11:26.907Z</time>
      </trkpt>
      <trkpt lat="43.67258" lon="5.83444">
        <ele>500</ele>
        <time>2016-02-20T08:11:27.841Z</time>
      </trkpt>
      <trkpt lat="43.67262" lon="5.83433">
        <ele>500</ele>
        <time>2016-02-20T08:11:31.893Z</time>
      </trkpt>
      <trkpt lat="43.67263" lon="5.83431">
        <ele>500</ele>
        <time>2016-02-20T08:11:32.844Z</time>
      </trkpt>
      <trkpt lat="43.67268" lon="5.83422">
        <ele>501</ele>
        <time>2016-02-20T08:11:36.891Z</time>
      </trkpt>
      <trkpt lat="43.67268" lon="5.83419">
        <ele>501</ele>
        <time>2016-02-20T08:11:37.848Z</time>
      </trkpt>
      <trkpt lat="43.67271" lon="5.83408">
        <ele>502</ele>
        <time>2016-02-20T08:11:41.898Z</time>
      </trkpt>
      <trkpt lat="43.67272" lon="5.83405">
        <ele>502</ele>
        <time>2016-02-20T08:11:42.844Z</time>
      </trkpt>
      <trkpt lat="43.67277" lon="5.83396">
        <ele>502</ele>
        <time>2016-02-20T08:11:46.906Z</time>
      </trkpt>
      <trkpt lat="43.67278" lon="5.83395">
        <ele>502</ele>
        <time>2016-02-20T08:11:47.837Z</time>
      </trkpt>
      <trkpt lat="43.67286" lon="5.83391">
        <ele>502</ele>
        <time>2016-02-20T08:11:51.893Z</time>
      </trkpt>
      <trkpt lat="43.67288" lon="5.8339">
        <ele>502</ele>
        <time>2016-02-20T08:11:52.838Z</time>
      </trkpt>
      <trkpt lat="43.67295" lon="5.83386">
        <ele>503</ele>
        <time>2016-02-20T08:11:56.905Z</time>
      </trkpt>
      <trkpt lat="43.67297" lon="5.83385">
        <ele>503</ele>
        <time>2016-02-20T08:11:57.821Z</time>
      </trkpt>
      <trkpt lat="43.67303" lon="5.83379">
        <ele>503</ele>
        <time>2016-02-20T08:12:01.899Z</time>
      </trkpt>
      <trkpt lat="43.67304" lon="5.83377">
        <ele>503</ele>
        <time>2016-02-20T08:12:02.839Z</time>
      </trkpt>
      <trkpt lat="43.67311" lon="5.83371">
        <ele>504</ele>
        <time>2016-02-20T08:12:06.899Z</time>
      </trkpt>
      <trkpt lat="43.67313" lon="5.8337">
        <ele>504</ele>
        <time>2016-02-20T08:12:07.846Z</time>
      </trkpt>
      <trkpt lat="43.67321" lon="5.83368">
        <ele>503</ele>
        <time>2016-02-20T08:12:11.902Z</time>
      </trkpt>
      <trkpt lat="43.67323" lon="5.83367">
        <ele>503</ele>
        <time>2016-02-20T08:12:12.855Z</time>
      </trkpt>
      <trkpt lat="43.67331" lon="5.83366">
        <ele>502</ele>
        <time>2016-02-20T08:12:16.899Z</time>
      </trkpt>
      <trkpt lat="43.67334" lon="5.83366">
        <ele>502</ele>
        <time>2016-02-20T08:12:17.837Z</time>
      </trkpt>
      <trkpt lat="43.67342" lon="5.83363">
        <ele>502</ele>
        <time>2016-02-20T08:12:21.915Z</time>
      </trkpt>
      <trkpt lat="43.67344" lon="5.83362">
        <ele>502</ele>
        <time>2016-02-20T08:12:22.824Z</time>
      </trkpt>
      <trkpt lat="43.67351" lon="5.83356">
        <ele>502</ele>
        <time>2016-02-20T08:12:25.905Z</time>
      </trkpt>
      <trkpt lat="43.67354" lon="5.83354">
        <ele>502</ele>
        <time>2016-02-20T08:12:26.843Z</time>
      </trkpt>
      <trkpt lat="43.67359" lon="5.83349">
        <ele>501</ele>
        <time>2016-02-20T08:12:28.917Z</time>
      </trkpt>
      <trkpt lat="43.67362" lon="5.83347">
        <ele>501</ele>
        <time>2016-02-20T08:12:29.844Z</time>
      </trkpt>
      <trkpt lat="43.67369" lon="5.83344">
        <ele>501</ele>
        <time>2016-02-20T08:12:31.919Z</time>
      </trkpt>
      <trkpt lat="43.67372" lon="5.83342">
        <ele>501</ele>
        <time>2016-02-20T08:12:32.842Z</time>
      </trkpt>
      <trkpt lat="43.67378" lon="5.8334">
        <ele>500</ele>
        <time>2016-02-20T08:12:34.895Z</time>
      </trkpt>
      <trkpt lat="43.67381" lon="5.83339">
        <ele>500</ele>
        <time>2016-02-20T08:12:35.847Z</time>
      </trkpt>
      <trkpt lat="43.67388" lon="5.83337">
        <ele>500</ele>
        <time>2016-02-20T08:12:37.900Z</time>
      </trkpt>
      <trkpt lat="43.6739" lon="5.83336">
        <ele>500</ele>
        <time>2016-02-20T08:12:38.838Z</time>
      </trkpt>
      <trkpt lat="43.67397" lon="5.83334">
        <ele>500</ele>
        <time>2016-02-20T08:12:40.893Z</time>
      </trkpt>
      <trkpt lat="43.67399" lon="5.83333">
        <ele>500</ele>
        <time>2016-02-20T08:12:41.843Z</time>
      </trkpt>
      <trkpt lat="43.67406" lon="5.8333">
        <ele>500</ele>
        <time>2016-02-20T08:12:43.897Z</time>
      </trkpt>
      <trkpt lat="43.67409" lon="5.83329">
        <ele>500</ele>
        <time>2016-02-20T08:12:44.845Z</time>
      </trkpt>
      <trkpt lat="43.67415" lon="5.83327">
        <ele>500</ele>
        <time>2016-02-20T08:12:46.894Z</time>
      </trkpt>
      <trkpt lat="43.67419" lon="5.83326">
        <ele>500</ele>
        <time>2016-02-20T08:12:47.846Z</time>
      </trkpt>
      <trkpt lat="43.67425" lon="5.83324">
        <ele>500</ele>
        <time>2016-02-20T08:12:49.895Z</time>
      </trkpt>
      <trkpt lat="43.67428" lon="5.83323">
        <ele>500</ele>
        <time>2016-02-20T08:12:50.844Z</time>
      </trkpt>
      <trkpt lat="43.67435" lon="5.83322">
        <ele>499</ele>
        <time>2016-02-20T08:12:52.907Z</time>
      </trkpt>
      <trkpt lat="43.67438" lon="5.83322">
        <ele>499</ele>
        <time>2016-02-20T08:12:53.850Z</time>
      </trkpt>
      <trkpt lat="43.67444" lon="5.83323">
        <ele>500</ele>
        <time>2016-02-20T08:12:55.900Z</time>
      </trkpt>
      <trkpt lat="43.67448" lon="5.83323">
        <ele>500</ele>
        <time>2016-02-20T08:12:56.845Z</time>
      </trkpt>
      <trkpt lat="43.67454" lon="5.83323">
        <ele>500</ele>
        <time>2016-02-20T08:12:59.234Z</time>
      </trkpt>
      <trkpt lat="43.67457" lon="5.83323">
        <ele>500</ele>
        <time>2016-02-20T08:12:59.835Z</time>
      </trkpt>
      <trkpt lat="43.67464" lon="5.83322">
        <ele>499</ele>
        <time>2016-02-20T08:13:01.905Z</time>
      </trkpt>
      <trkpt lat="43.67467" lon="5.83321">
        <ele>499</ele>
        <time>2016-02-20T08:13:02.851Z</time>
      </trkpt>
      <trkpt lat="43.67473" lon="5.83319">
        <ele>499</ele>
        <time>2016-02-20T08:13:04.925Z</time>
      </trkpt>
      <trkpt lat="43.67476" lon="5.83317">
        <ele>500</ele>
        <time>2016-02-20T08:13:05.840Z</time>
      </trkpt>
      <trkpt lat="43.67482" lon="5.83311">
        <ele>500</ele>
        <time>2016-02-20T08:13:07.897Z</time>
      </trkpt>
      <trkpt lat="43.67484" lon="5.83309">
        <ele>500</ele>
        <time>2016-02-20T08:13:08.845Z</time>
      </trkpt>
      <trkpt lat="43.67489" lon="5.83302">
        <ele>500</ele>
        <time>2016-02-20T08:13:11.007Z</time>
      </trkpt>
      <trkpt lat="43.67491" lon="5.83298">
        <ele>500</ele>
        <time>2016-02-20T08:13:11.823Z</time>
      </trkpt>
      <trkpt lat="43.67496" lon="5.8329">
        <ele>501</ele>
        <time>2016-02-20T08:13:13.839Z</time>
      </trkpt>
      <trkpt lat="43.67499" lon="5.83287">
        <ele>501</ele>
        <time>2016-02-20T08:13:14.824Z</time>
      </trkpt>
      <trkpt lat="43.67504" lon="5.8328">
        <ele>501</ele>
        <time>2016-02-20T08:13:16.961Z</time>
      </trkpt>
      <trkpt lat="43.67507" lon="5.83276">
        <ele>501</ele>
        <time>2016-02-20T08:13:17.822Z</time>
      </trkpt>
      <trkpt lat="43.67511" lon="5.83268">
        <ele>501</ele>
        <time>2016-02-20T08:13:19.837Z</time>
      </trkpt>
      <trkpt lat="43.67513" lon="5.83264">
        <ele>502</ele>
        <time>2016-02-20T08:13:20.822Z</time>
      </trkpt>
      <trkpt lat="43.67518" lon="5.83257">
        <ele>501</ele>
        <time>2016-02-20T08:13:22.856Z</time>
      </trkpt>
      <trkpt lat="43.67521" lon="5.83254">
        <ele>502</ele>
        <time>2016-02-20T08:13:23.825Z</time>
      </trkpt>
      <trkpt lat="43.67527" lon="5.83247">
        <ele>501</ele>
        <time>2016-02-20T08:13:25.873Z</time>
      </trkpt>
      <trkpt lat="43.6753" lon="5.83244">
        <ele>501</ele>
        <time>2016-02-20T08:13:26.833Z</time>
      </trkpt>
      <trkpt lat="43.67536" lon="5.83237">
        <ele>501</ele>
        <time>2016-02-20T08:13:28.868Z</time>
      </trkpt>
      <trkpt lat="43.67538" lon="5.83234">
        <ele>500</ele>
        <time>2016-02-20T08:13:29.833Z</time>
      </trkpt>
      <trkpt lat="43.67544" lon="5.83227">
        <ele>500</ele>
        <time>2016-02-20T08:13:31.855Z</time>
      </trkpt>
      <trkpt lat="43.67547" lon="5.83224">
        <ele>500</ele>
        <time>2016-02-20T08:13:32.835Z</time>
      </trkpt>
      <trkpt lat="43.67553" lon="5.83219">
        <ele>501</ele>
        <time>2016-02-20T08:13:34.877Z</time>
      </trkpt>
      <trkpt lat="43.67556" lon="5.83217">
        <ele>501</ele>
        <time>2016-02-20T08:13:35.826Z</time>
      </trkpt>
      <trkpt lat="43.67563" lon="5.83212">
        <ele>501</ele>
        <time>2016-02-20T08:13:37.905Z</time>
      </trkpt>
      <trkpt lat="43.67566" lon="5.83209">
        <ele>501</ele>
        <time>2016-02-20T08:13:38.845Z</time>
      </trkpt>
      <trkpt lat="43.67571" lon="5.83204">
        <ele>501</ele>
        <time>2016-02-20T08:13:40.895Z</time>
      </trkpt>
      <trkpt lat="43.67575" lon="5.83201">
        <ele>501</ele>
        <time>2016-02-20T08:13:41.905Z</time>
      </trkpt>
      <trkpt lat="43.67581" lon="5.83197">
        <ele>501</ele>
        <time>2016-02-20T08:13:43.901Z</time>
      </trkpt>
      <trkpt lat="43.67584" lon="5.83194">
        <ele>501</ele>
        <time>2016-02-20T08:13:44.844Z</time>
      </trkpt>
      <trkpt lat="43.67591" lon="5.8319">
        <ele>501</ele>
        <time>2016-02-20T08:13:46.927Z</time>
      </trkpt>
      <trkpt lat="43.67595" lon="5.83188">
        <ele>501</ele>
        <time>2016-02-20T08:13:47.847Z</time>
      </trkpt>
      <trkpt lat="43.67602" lon="5.83185">
        <ele>501</ele>
        <time>2016-02-20T08:13:49.899Z</time>
      </trkpt>
      <trkpt lat="43.67605" lon="5.83184">
        <ele>501</ele>
        <time>2016-02-20T08:13:50.847Z</time>
      </trkpt>
      <trkpt lat="43.67612" lon="5.8318">
        <ele>501</ele>
        <time>2016-02-20T08:13:52.903Z</time>
      </trkpt>
      <trkpt lat="43.67615" lon="5.83178">
        <ele>501</ele>
        <time>2016-02-20T08:13:53.847Z</time>
      </trkpt>
      <trkpt lat="43.67622" lon="5.83174">
        <ele>501</ele>
        <time>2016-02-20T08:13:55.897Z</time>
      </trkpt>
      <trkpt lat="43.67625" lon="5.83172">
        <ele>501</ele>
        <time>2016-02-20T08:13:56.848Z</time>
      </trkpt>
      <trkpt lat="43.67631" lon="5.83167">
        <ele>501</ele>
        <time>2016-02-20T08:13:58.896Z</time>
      </trkpt>
      <trkpt lat="43.67635" lon="5.83165">
        <ele>500</ele>
        <time>2016-02-20T08:13:59.843Z</time>
      </trkpt>
      <trkpt lat="43.67642" lon="5.8316">
        <ele>500</ele>
        <time>2016-02-20T08:14:01.906Z</time>
      </trkpt>
      <trkpt lat="43.67645" lon="5.83158">
        <ele>500</ele>
        <time>2016-02-20T08:14:02.824Z</time>
      </trkpt>
      <trkpt lat="43.67652" lon="5.83155">
        <ele>499</ele>
        <time>2016-02-20T08:14:04.901Z</time>
      </trkpt>
      <trkpt lat="43.67656" lon="5.83154">
        <ele>499</ele>
        <time>2016-02-20T08:14:05.843Z</time>
      </trkpt>
      <trkpt lat="43.67663" lon="5.83149">
        <ele>499</ele>
        <time>2016-02-20T08:14:07.896Z</time>
      </trkpt>
      <trkpt lat="43.67666" lon="5.83147">
        <ele>499</ele>
        <time>2016-02-20T08:14:08.847Z</time>
      </trkpt>
      <trkpt lat="43.67673" lon="5.83142">
        <ele>499</ele>
        <time>2016-02-20T08:14:10.908Z</time>
      </trkpt>
      <trkpt lat="43.67676" lon="5.83139">
        <ele>500</ele>
        <time>2016-02-20T08:14:11.851Z</time>
      </trkpt>
      <trkpt lat="43.67683" lon="5.83136">
        <ele>499</ele>
        <time>2016-02-20T08:14:13.926Z</time>
      </trkpt>
      <trkpt lat="43.67687" lon="5.83134">
        <ele>500</ele>
        <time>2016-02-20T08:14:14.847Z</time>
      </trkpt>
      <trkpt lat="43.67694" lon="5.83131">
        <ele>500</ele>
        <time>2016-02-20T08:14:17.476Z</time>
      </trkpt>
      <trkpt lat="43.67698" lon="5.8313">
        <ele>500</ele>
        <time>2016-02-20T08:14:17.825Z</time>
      </trkpt>
      <trkpt lat="43.67705" lon="5.83126">
        <ele>500</ele>
        <time>2016-02-20T08:14:19.935Z</time>
      </trkpt>
      <trkpt lat="43.67708" lon="5.83124">
        <ele>499</ele>
        <time>2016-02-20T08:14:20.842Z</time>
      </trkpt>
      <trkpt lat="43.67714" lon="5.83118">
        <ele>500</ele>
        <time>2016-02-20T08:14:22.899Z</time>
      </trkpt>
      <trkpt lat="43.67718" lon="5.83115">
        <ele>499</ele>
        <time>2016-02-20T08:14:23.841Z</time>
      </trkpt>
      <trkpt lat="43.67724" lon="5.83109">
        <ele>499</ele>
        <time>2016-02-20T08:14:25.902Z</time>
      </trkpt>
      <trkpt lat="43.6773" lon="5.83105">
        <ele>499</ele>
        <time>2016-02-20T08:14:26.846Z</time>
      </trkpt>
      <trkpt lat="43.67734" lon="5.83102">
        <ele>499</ele>
        <time>2016-02-20T08:14:27.901Z</time>
      </trkpt>
      <trkpt lat="43.67738" lon="5.83099">
        <ele>499</ele>
        <time>2016-02-20T08:14:28.845Z</time>
      </trkpt>
      <trkpt lat="43.67743" lon="5.83096">
        <ele>498</ele>
        <time>2016-02-20T08:14:29.845Z</time>
      </trkpt>
      <trkpt lat="43.67747" lon="5.83093">
        <ele>498</ele>
        <time>2016-02-20T08:14:30.850Z</time>
      </trkpt>
      <trkpt lat="43.67751" lon="5.8309">
        <ele>498</ele>
        <time>2016-02-20T08:14:31.907Z</time>
      </trkpt>
      <trkpt lat="43.67755" lon="5.83088">
        <ele>498</ele>
        <time>2016-02-20T08:14:32.849Z</time>
      </trkpt>
      <trkpt lat="43.6776" lon="5.83086">
        <ele>497</ele>
        <time>2016-02-20T08:14:33.903Z</time>
      </trkpt>
      <trkpt lat="43.67765" lon="5.83084">
        <ele>497</ele>
        <time>2016-02-20T08:14:34.843Z</time>
      </trkpt>
      <trkpt lat="43.6777" lon="5.83082">
        <ele>497</ele>
        <time>2016-02-20T08:14:35.902Z</time>
      </trkpt>
      <trkpt lat="43.67774" lon="5.83081">
        <ele>497</ele>
        <time>2016-02-20T08:14:36.848Z</time>
      </trkpt>
      <trkpt lat="43.67778" lon="5.83079">
        <ele>496</ele>
        <time>2016-02-20T08:14:37.901Z</time>
      </trkpt>
      <trkpt lat="43.67783" lon="5.83077">
        <ele>497</ele>
        <time>2016-02-20T08:14:38.847Z</time>
      </trkpt>
      <trkpt lat="43.67787" lon="5.83075">
        <ele>496</ele>
        <time>2016-02-20T08:14:40.470Z</time>
      </trkpt>
      <trkpt lat="43.67792" lon="5.83072">
        <ele>496</ele>
        <time>2016-02-20T08:14:40.825Z</time>
      </trkpt>
      <trkpt lat="43.67796" lon="5.8307">
        <ele>496</ele>
        <time>2016-02-20T08:14:41.926Z</time>
      </trkpt>
      <trkpt lat="43.678" lon="5.83067">
        <ele>496</ele>
        <time>2016-02-20T08:14:42.845Z</time>
      </trkpt>
      <trkpt lat="43.67808" lon="5.83062">
        <ele>496</ele>
        <time>2016-02-20T08:14:44.898Z</time>
      </trkpt>
      <trkpt lat="43.67812" lon="5.83059">
        <ele>496</ele>
        <time>2016-02-20T08:14:45.840Z</time>
      </trkpt>
      <trkpt lat="43.67816" lon="5.83056">
        <ele>495</ele>
        <time>2016-02-20T08:14:46.897Z</time>
      </trkpt>
      <trkpt lat="43.6782" lon="5.83054">
        <ele>495</ele>
        <time>2016-02-20T08:14:47.847Z</time>
      </trkpt>
      <trkpt lat="43.67828" lon="5.83048">
        <ele>495</ele>
        <time>2016-02-20T08:14:49.899Z</time>
      </trkpt>
      <trkpt lat="43.67832" lon="5.83045">
        <ele>495</ele>
        <time>2016-02-20T08:14:50.848Z</time>
      </trkpt>
      <trkpt lat="43.6784" lon="5.8304">
        <ele>494</ele>
        <time>2016-02-20T08:14:52.954Z</time>
      </trkpt>
      <trkpt lat="43.67845" lon="5.83038">
        <ele>494</ele>
        <time>2016-02-20T08:14:53.844Z</time>
      </trkpt>
      <trkpt lat="43.67853" lon="5.83034">
        <ele>494</ele>
        <time>2016-02-20T08:14:55.899Z</time>
      </trkpt>
      <trkpt lat="43.67857" lon="5.83033">
        <ele>494</ele>
        <time>2016-02-20T08:14:56.852Z</time>
      </trkpt>
      <trkpt lat="43.67865" lon="5.83031">
        <ele>494</ele>
        <time>2016-02-20T08:14:58.905Z</time>
      </trkpt>
      <trkpt lat="43.67869" lon="5.8303">
        <ele>493</ele>
        <time>2016-02-20T08:14:59.846Z</time>
      </trkpt>
      <trkpt lat="43.67877" lon="5.83028">
        <ele>493</ele>
        <time>2016-02-20T08:15:01.895Z</time>
      </trkpt>
      <trkpt lat="43.6788" lon="5.83028">
        <ele>493</ele>
        <time>2016-02-20T08:15:02.843Z</time>
      </trkpt>
      <trkpt lat="43.67886" lon="5.83028">
        <ele>493</ele>
        <time>2016-02-20T08:15:04.914Z</time>
      </trkpt>
      <trkpt lat="43.6789" lon="5.83028">
        <ele>493</ele>
        <time>2016-02-20T08:15:05.845Z</time>
      </trkpt>
      <trkpt lat="43.67897" lon="5.83028">
        <ele>492</ele>
        <time>2016-02-20T08:15:07.928Z</time>
      </trkpt>
      <trkpt lat="43.679" lon="5.83028">
        <ele>492</ele>
        <time>2016-02-20T08:15:08.848Z</time>
      </trkpt>
      <trkpt lat="43.67908" lon="5.83026">
        <ele>492</ele>
        <time>2016-02-20T08:15:10.929Z</time>
      </trkpt>
      <trkpt lat="43.67912" lon="5.83026">
        <ele>492</ele>
        <time>2016-02-20T08:15:11.840Z</time>
      </trkpt>
      <trkpt lat="43.6792" lon="5.83025">
        <ele>492</ele>
        <time>2016-02-20T08:15:13.916Z</time>
      </trkpt>
      <trkpt lat="43.67924" lon="5.83024">
        <ele>492</ele>
        <time>2016-02-20T08:15:14.846Z</time>
      </trkpt>
      <trkpt lat="43.67931" lon="5.83023">
        <ele>492</ele>
        <time>2016-02-20T08:15:16.917Z</time>
      </trkpt>
      <trkpt lat="43.67935" lon="5.8302">
        <ele>492</ele>
        <time>2016-02-20T08:15:17.845Z</time>
      </trkpt>
      <trkpt lat="43.67941" lon="5.83014">
        <ele>492</ele>
        <time>2016-02-20T08:15:19.915Z</time>
      </trkpt>
      <trkpt lat="43.67944" lon="5.83011">
        <ele>492</ele>
        <time>2016-02-20T08:15:20.848Z</time>
      </trkpt>
      <trkpt lat="43.67951" lon="5.83004">
        <ele>492</ele>
        <time>2016-02-20T08:15:22.918Z</time>
      </trkpt>
      <trkpt lat="43.67954" lon="5.83001">
        <ele>492</ele>
        <time>2016-02-20T08:15:23.855Z</time>
      </trkpt>
      <trkpt lat="43.67962" lon="5.82997">
        <ele>491</ele>
        <time>2016-02-20T08:15:25.906Z</time>
      </trkpt>
      <trkpt lat="43.67966" lon="5.82994">
        <ele>491</ele>
        <time>2016-02-20T08:15:26.843Z</time>
      </trkpt>
      <trkpt lat="43.67972" lon="5.82986">
        <ele>492</ele>
        <time>2016-02-20T08:15:28.919Z</time>
      </trkpt>
      <trkpt lat="43.67975" lon="5.82982">
        <ele>491</ele>
        <time>2016-02-20T08:15:29.842Z</time>
      </trkpt>
      <trkpt lat="43.67981" lon="5.82974">
        <ele>491</ele>
        <time>2016-02-20T08:15:31.919Z</time>
      </trkpt>
      <trkpt lat="43.67985" lon="5.82971">
        <ele>491</ele>
        <time>2016-02-20T08:15:32.849Z</time>
      </trkpt>
      <trkpt lat="43.67993" lon="5.82965">
        <ele>491</ele>
        <time>2016-02-20T08:15:34.917Z</time>
      </trkpt>
      <trkpt lat="43.67996" lon="5.82962">
        <ele>492</ele>
        <time>2016-02-20T08:15:35.842Z</time>
      </trkpt>
      <trkpt lat="43.68003" lon="5.82954">
        <ele>492</ele>
        <time>2016-02-20T08:15:37.922Z</time>
      </trkpt>
      <trkpt lat="43.68006" lon="5.82949">
        <ele>492</ele>
        <time>2016-02-20T08:15:38.844Z</time>
      </trkpt>
      <trkpt lat="43.68011" lon="5.82939">
        <ele>492</ele>
        <time>2016-02-20T08:15:40.918Z</time>
      </trkpt>
      <trkpt lat="43.68014" lon="5.82934">
        <ele>492</ele>
        <time>2016-02-20T08:15:41.846Z</time>
      </trkpt>
      <trkpt lat="43.6802" lon="5.82926">
        <ele>491</ele>
        <time>2016-02-20T08:15:43.918Z</time>
      </trkpt>
      <trkpt lat="43.68024" lon="5.82923">
        <ele>491</ele>
        <time>2016-02-20T08:15:44.847Z</time>
      </trkpt>
      <trkpt lat="43.68028" lon="5.8292">
        <ele>491</ele>
        <time>2016-02-20T08:15:45.923Z</time>
      </trkpt>
      <trkpt lat="43.68032" lon="5.82917">
        <ele>491</ele>
        <time>2016-02-20T08:15:46.841Z</time>
      </trkpt>
      <trkpt lat="43.6804" lon="5.82911">
        <ele>491</ele>
        <time>2016-02-20T08:15:48.921Z</time>
      </trkpt>
      <trkpt lat="43.68044" lon="5.82909">
        <ele>490</ele>
        <time>2016-02-20T08:15:49.840Z</time>
      </trkpt>
      <trkpt lat="43.68052" lon="5.82903">
        <ele>490</ele>
        <time>2016-02-20T08:15:52.492Z</time>
      </trkpt>
      <trkpt lat="43.68055" lon="5.829">
        <ele>490</ele>
        <time>2016-02-20T08:15:52.825Z</time>
      </trkpt>
      <trkpt lat="43.68063" lon="5.82893">
        <ele>490</ele>
        <time>2016-02-20T08:15:54.922Z</time>
      </trkpt>
      <trkpt lat="43.68066" lon="5.82889">
        <ele>490</ele>
        <time>2016-02-20T08:15:55.846Z</time>
      </trkpt>
      <trkpt lat="43.6807" lon="5.82886">
        <ele>490</ele>
        <time>2016-02-20T08:15:56.913Z</time>
      </trkpt>
      <trkpt lat="43.68074" lon="5.82883">
        <ele>490</ele>
        <time>2016-02-20T08:15:57.840Z</time>
      </trkpt>
      <trkpt lat="43.68082" lon="5.82878">
        <ele>490</ele>
        <time>2016-02-20T08:15:59.918Z</time>
      </trkpt>
      <trkpt lat="43.68087" lon="5.82875">
        <ele>490</ele>
        <time>2016-02-20T08:16:00.839Z</time>
      </trkpt>
      <trkpt lat="43.68094" lon="5.82871">
        <ele>490</ele>
        <time>2016-02-20T08:16:02.917Z</time>
      </trkpt>
      <trkpt lat="43.68099" lon="5.82869">
        <ele>490</ele>
        <time>2016-02-20T08:16:03.851Z</time>
      </trkpt>
      <trkpt lat="43.68103" lon="5.82867">
        <ele>490</ele>
        <time>2016-02-20T08:16:04.915Z</time>
      </trkpt>
      <trkpt lat="43.68107" lon="5.82865">
        <ele>490</ele>
        <time>2016-02-20T08:16:05.846Z</time>
      </trkpt>
      <trkpt lat="43.68114" lon="5.82861">
        <ele>490</ele>
        <time>2016-02-20T08:16:07.927Z</time>
      </trkpt>
      <trkpt lat="43.68118" lon="5.82858">
        <ele>489</ele>
        <time>2016-02-20T08:16:08.844Z</time>
      </trkpt>
      <trkpt lat="43.68122" lon="5.82856">
        <ele>489</ele>
        <time>2016-02-20T08:16:09.854Z</time>
      </trkpt>
      <trkpt lat="43.68126" lon="5.82853">
        <ele>489</ele>
        <time>2016-02-20T08:16:10.840Z</time>
      </trkpt>
      <trkpt lat="43.68133" lon="5.82847">
        <ele>490</ele>
        <time>2016-02-20T08:16:13.466Z</time>
      </trkpt>
      <trkpt lat="43.68137" lon="5.82844">
        <ele>489</ele>
        <time>2016-02-20T08:16:13.823Z</time>
      </trkpt>
      <trkpt lat="43.68144" lon="5.82837">
        <ele>489</ele>
        <time>2016-02-20T08:16:15.919Z</time>
      </trkpt>
      <trkpt lat="43.68148" lon="5.82834">
        <ele>489</ele>
        <time>2016-02-20T08:16:16.842Z</time>
      </trkpt>
      <trkpt lat="43.68155" lon="5.82828">
        <ele>489</ele>
        <time>2016-02-20T08:16:18.911Z</time>
      </trkpt>
      <trkpt lat="43.68159" lon="5.82825">
        <ele>489</ele>
        <time>2016-02-20T08:16:19.854Z</time>
      </trkpt>
      <trkpt lat="43.68166" lon="5.82818">
        <ele>489</ele>
        <time>2016-02-20T08:16:21.916Z</time>
      </trkpt>
      <trkpt lat="43.6817" lon="5.82816">
        <ele>489</ele>
        <time>2016-02-20T08:16:22.845Z</time>
      </trkpt>
      <trkpt lat="43.68177" lon="5.8281">
        <ele>489</ele>
        <time>2016-02-20T08:16:24.919Z</time>
      </trkpt>
      <trkpt lat="43.6818" lon="5.82807">
        <ele>489</ele>
        <time>2016-02-20T08:16:25.828Z</time>
      </trkpt>
      <trkpt lat="43.68184" lon="5.82803">
        <ele>489</ele>
        <time>2016-02-20T08:16:26.911Z</time>
      </trkpt>
      <trkpt lat="43.68187" lon="5.82798">
        <ele>489</ele>
        <time>2016-02-20T08:16:27.845Z</time>
      </trkpt>
      <trkpt lat="43.68192" lon="5.82789">
        <ele>489</ele>
        <time>2016-02-20T08:16:29.915Z</time>
      </trkpt>
      <trkpt lat="43.68194" lon="5.82784">
        <ele>489</ele>
        <time>2016-02-20T08:16:30.845Z</time>
      </trkpt>
      <trkpt lat="43.68197" lon="5.82779">
        <ele>489</ele>
        <time>2016-02-20T08:16:31.923Z</time>
      </trkpt>
      <trkpt lat="43.68199" lon="5.82774">
        <ele>489</ele>
        <time>2016-02-20T08:16:32.849Z</time>
      </trkpt>
      <trkpt lat="43.68204" lon="5.82763">
        <ele>489</ele>
        <time>2016-02-20T08:16:34.918Z</time>
      </trkpt>
      <trkpt lat="43.68206" lon="5.82759">
        <ele>489</ele>
        <time>2016-02-20T08:16:35.853Z</time>
      </trkpt>
      <trkpt lat="43.68209" lon="5.82754">
        <ele>489</ele>
        <time>2016-02-20T08:16:36.918Z</time>
      </trkpt>
      <trkpt lat="43.68212" lon="5.82749">
        <ele>489</ele>
        <time>2016-02-20T08:16:37.845Z</time>
      </trkpt>
      <trkpt lat="43.68218" lon="5.82741">
        <ele>489</ele>
        <time>2016-02-20T08:16:39.916Z</time>
      </trkpt>
      <trkpt lat="43.68221" lon="5.82737">
        <ele>490</ele>
        <time>2016-02-20T08:16:40.845Z</time>
      </trkpt>
      <trkpt lat="43.68227" lon="5.82729">
        <ele>490</ele>
        <time>2016-02-20T08:16:42.922Z</time>
      </trkpt>
      <trkpt lat="43.68231" lon="5.82725">
        <ele>490</ele>
        <time>2016-02-20T08:16:43.827Z</time>
      </trkpt>
      <trkpt lat="43.68237" lon="5.82717">
        <ele>490</ele>
        <time>2016-02-20T08:16:45.912Z</time>
      </trkpt>
      <trkpt lat="43.6824" lon="5.82713">
        <ele>490</ele>
        <time>2016-02-20T08:16:46.854Z</time>
      </trkpt>
      <trkpt lat="43.68242" lon="5.82708">
        <ele>490</ele>
        <time>2016-02-20T08:16:47.857Z</time>
      </trkpt>
      <trkpt lat="43.68245" lon="5.82703">
        <ele>490</ele>
        <time>2016-02-20T08:16:48.848Z</time>
      </trkpt>
      <trkpt lat="43.68251" lon="5.82693">
        <ele>490</ele>
        <time>2016-02-20T08:16:50.917Z</time>
      </trkpt>
      <trkpt lat="43.68254" lon="5.82689">
        <ele>490</ele>
        <time>2016-02-20T08:16:51.844Z</time>
      </trkpt>
      <trkpt lat="43.68257" lon="5.82684">
        <ele>490</ele>
        <time>2016-02-20T08:16:52.854Z</time>
      </trkpt>
      <trkpt lat="43.6826" lon="5.8268">
        <ele>490</ele>
        <time>2016-02-20T08:16:53.847Z</time>
      </trkpt>
      <trkpt lat="43.68266" lon="5.82672">
        <ele>490</ele>
        <time>2016-02-20T08:16:55.922Z</time>
      </trkpt>
      <trkpt lat="43.6827" lon="5.82669">
        <ele>490</ele>
        <time>2016-02-20T08:16:56.851Z</time>
      </trkpt>
      <trkpt lat="43.68277" lon="5.82661">
        <ele>490</ele>
        <time>2016-02-20T08:16:58.916Z</time>
      </trkpt>
      <trkpt lat="43.6828" lon="5.82657">
        <ele>490</ele>
        <time>2016-02-20T08:16:59.845Z</time>
      </trkpt>
      <trkpt lat="43.68286" lon="5.82654">
        <ele>489</ele>
        <time>2016-02-20T08:17:01.919Z</time>
      </trkpt>
      <trkpt lat="43.68289" lon="5.82654">
        <ele>489</ele>
        <time>2016-02-20T08:17:02.841Z</time>
      </trkpt>
      <trkpt lat="43.68297" lon="5.82653">
        <ele>489</ele>
        <time>2016-02-20T08:17:04.936Z</time>
      </trkpt>
      <trkpt lat="43.68301" lon="5.82652">
        <ele>489</ele>
        <time>2016-02-20T08:17:05.848Z</time>
      </trkpt>
      <trkpt lat="43.68309" lon="5.82647">
        <ele>488</ele>
        <time>2016-02-20T08:17:07.920Z</time>
      </trkpt>
      <trkpt lat="43.68313" lon="5.82644">
        <ele>488</ele>
        <time>2016-02-20T08:17:08.842Z</time>
      </trkpt>
      <trkpt lat="43.68319" lon="5.82639">
        <ele>488</ele>
        <time>2016-02-20T08:17:10.924Z</time>
      </trkpt>
      <trkpt lat="43.68322" lon="5.82635">
        <ele>488</ele>
        <time>2016-02-20T08:17:11.849Z</time>
      </trkpt>
      <trkpt lat="43.68327" lon="5.82628">
        <ele>489</ele>
        <time>2016-02-20T08:17:13.949Z</time>
      </trkpt>
      <trkpt lat="43.6833" lon="5.82624">
        <ele>489</ele>
        <time>2016-02-20T08:17:14.856Z</time>
      </trkpt>
      <trkpt lat="43.68335" lon="5.82616">
        <ele>489</ele>
        <time>2016-02-20T08:17:16.918Z</time>
      </trkpt>
      <trkpt lat="43.68338" lon="5.82612">
        <ele>490</ele>
        <time>2016-02-20T08:17:17.844Z</time>
      </trkpt>
      <trkpt lat="43.68344" lon="5.82605">
        <ele>489</ele>
        <time>2016-02-20T08:17:19.919Z</time>
      </trkpt>
      <trkpt lat="43.68347" lon="5.82601">
        <ele>489</ele>
        <time>2016-02-20T08:17:20.841Z</time>
      </trkpt>
      <trkpt lat="43.68354" lon="5.82594">
        <ele>489</ele>
        <time>2016-02-20T08:17:22.927Z</time>
      </trkpt>
      <trkpt lat="43.68356" lon="5.8259">
        <ele>489</ele>
        <time>2016-02-20T08:17:23.825Z</time>
      </trkpt>
      <trkpt lat="43.68357" lon="5.82581">
        <ele>489</ele>
        <time>2016-02-20T08:17:25.925Z</time>
      </trkpt>
      <trkpt lat="43.68358" lon="5.82578">
        <ele>490</ele>
        <time>2016-02-20T08:17:26.853Z</time>
      </trkpt>
      <trkpt lat="43.68364" lon="5.8257">
        <ele>490</ele>
        <time>2016-02-20T08:17:29.913Z</time>
      </trkpt>
      <trkpt lat="43.68367" lon="5.82569">
        <ele>490</ele>
        <time>2016-02-20T08:17:30.844Z</time>
      </trkpt>
      <trkpt lat="43.68374" lon="5.82571">
        <ele>489</ele>
        <time>2016-02-20T08:17:33.935Z</time>
      </trkpt>
      <trkpt lat="43.68377" lon="5.82572">
        <ele>489</ele>
        <time>2016-02-20T08:17:34.850Z</time>
      </trkpt>
      <trkpt lat="43.68384" lon="5.82568">
        <ele>489</ele>
        <time>2016-02-20T08:17:36.929Z</time>
      </trkpt>
      <trkpt lat="43.68387" lon="5.82563">
        <ele>489</ele>
        <time>2016-02-20T08:17:37.843Z</time>
      </trkpt>
      <trkpt lat="43.68391" lon="5.82556">
        <ele>489</ele>
        <time>2016-02-20T08:17:39.919Z</time>
      </trkpt>
      <trkpt lat="43.68394" lon="5.82552">
        <ele>488</ele>
        <time>2016-02-20T08:17:40.851Z</time>
      </trkpt>
      <trkpt lat="43.68398" lon="5.82545">
        <ele>488</ele>
        <time>2016-02-20T08:17:42.925Z</time>
      </trkpt>
      <trkpt lat="43.684" lon="5.82541">
        <ele>489</ele>
        <time>2016-02-20T08:17:43.842Z</time>
      </trkpt>
      <trkpt lat="43.68404" lon="5.82531">
        <ele>489</ele>
        <time>2016-02-20T08:17:45.925Z</time>
      </trkpt>
      <trkpt lat="43.68406" lon="5.82525">
        <ele>488</ele>
        <time>2016-02-20T08:17:46.845Z</time>
      </trkpt>
      <trkpt lat="43.6841" lon="5.82517">
        <ele>489</ele>
        <time>2016-02-20T08:17:48.923Z</time>
      </trkpt>
      <trkpt lat="43.68412" lon="5.82513">
        <ele>489</ele>
        <time>2016-02-20T08:17:49.843Z</time>
      </trkpt>
      <trkpt lat="43.68415" lon="5.82506">
        <ele>489</ele>
        <time>2016-02-20T08:17:51.921Z</time>
      </trkpt>
      <trkpt lat="43.68417" lon="5.82502">
        <ele>489</ele>
        <time>2016-02-20T08:17:52.844Z</time>
      </trkpt>
      <trkpt lat="43.68422" lon="5.82496">
        <ele>489</ele>
        <time>2016-02-20T08:17:54.924Z</time>
      </trkpt>
      <trkpt lat="43.68424" lon="5.82493">
        <ele>489</ele>
        <time>2016-02-20T08:17:55.847Z</time>
      </trkpt>
      <trkpt lat="43.68432" lon="5.82488">
        <ele>489</ele>
        <time>2016-02-20T08:17:58.920Z</time>
      </trkpt>
      <trkpt lat="43.68434" lon="5.82487">
        <ele>489</ele>
        <time>2016-02-20T08:17:59.842Z</time>
      </trkpt>
      <trkpt lat="43.68442" lon="5.82484">
        <ele>488</ele>
        <time>2016-02-20T08:18:02.919Z</time>
      </trkpt>
      <trkpt lat="43.68445" lon="5.82482">
        <ele>488</ele>
        <time>2016-02-20T08:18:03.845Z</time>
      </trkpt>
      <trkpt lat="43.68452" lon="5.82477">
        <ele>488</ele>
        <time>2016-02-20T08:18:05.924Z</time>
      </trkpt>
      <trkpt lat="43.68455" lon="5.82475">
        <ele>488</ele>
        <time>2016-02-20T08:18:06.845Z</time>
      </trkpt>
      <trkpt lat="43.68461" lon="5.8247">
        <ele>488</ele>
        <time>2016-02-20T08:18:08.952Z</time>
      </trkpt>
      <trkpt lat="43.68464" lon="5.82468">
        <ele>488</ele>
        <time>2016-02-20T08:18:09.843Z</time>
      </trkpt>
      <trkpt lat="43.68469" lon="5.82462">
        <ele>488</ele>
        <time>2016-02-20T08:18:12.470Z</time>
      </trkpt>
      <trkpt lat="43.68472" lon="5.82459">
        <ele>488</ele>
        <time>2016-02-20T08:18:12.825Z</time>
      </trkpt>
      <trkpt lat="43.68477" lon="5.82453">
        <ele>489</ele>
        <time>2016-02-20T08:18:14.922Z</time>
      </trkpt>
      <trkpt lat="43.68479" lon="5.82449">
        <ele>489</ele>
        <time>2016-02-20T08:18:15.844Z</time>
      </trkpt>
      <trkpt lat="43.68483" lon="5.82442">
        <ele>488</ele>
        <time>2016-02-20T08:18:17.924Z</time>
      </trkpt>
      <trkpt lat="43.68486" lon="5.82438">
        <ele>488</ele>
        <time>2016-02-20T08:18:18.842Z</time>
      </trkpt>
      <trkpt lat="43.6849" lon="5.8243">
        <ele>489</ele>
        <time>2016-02-20T08:18:20.947Z</time>
      </trkpt>
      <trkpt lat="43.68493" lon="5.82427">
        <ele>489</ele>
        <time>2016-02-20T08:18:21.843Z</time>
      </trkpt>
      <trkpt lat="43.68498" lon="5.82419">
        <ele>488</ele>
        <time>2016-02-20T08:18:23.927Z</time>
      </trkpt>
      <trkpt lat="43.68501" lon="5.82415">
        <ele>489</ele>
        <time>2016-02-20T08:18:24.843Z</time>
      </trkpt>
      <trkpt lat="43.68507" lon="5.82409">
        <ele>489</ele>
        <time>2016-02-20T08:18:26.924Z</time>
      </trkpt>
      <trkpt lat="43.6851" lon="5.82406">
        <ele>490</ele>
        <time>2016-02-20T08:18:27.844Z</time>
      </trkpt>
      <trkpt lat="43.68516" lon="5.824">
        <ele>490</ele>
        <time>2016-02-20T08:18:29.929Z</time>
      </trkpt>
      <trkpt lat="43.68518" lon="5.82397">
        <ele>490</ele>
        <time>2016-02-20T08:18:30.846Z</time>
      </trkpt>
      <trkpt lat="43.68524" lon="5.8239">
        <ele>489</ele>
        <time>2016-02-20T08:18:32.920Z</time>
      </trkpt>
      <trkpt lat="43.68527" lon="5.82387">
        <ele>489</ele>
        <time>2016-02-20T08:18:33.846Z</time>
      </trkpt>
      <trkpt lat="43.68533" lon="5.82382">
        <ele>489</ele>
        <time>2016-02-20T08:18:35.942Z</time>
      </trkpt>
      <trkpt lat="43.68537" lon="5.8238">
        <ele>489</ele>
        <time>2016-02-20T08:18:36.835Z</time>
      </trkpt>
      <trkpt lat="43.68543" lon="5.82377">
        <ele>489</ele>
        <time>2016-02-20T08:18:38.919Z</time>
      </trkpt>
      <trkpt lat="43.68547" lon="5.82376">
        <ele>489</ele>
        <time>2016-02-20T08:18:39.845Z</time>
      </trkpt>
      <trkpt lat="43.68554" lon="5.82374">
        <ele>489</ele>
        <time>2016-02-20T08:18:41.944Z</time>
      </trkpt>
      <trkpt lat="43.68558" lon="5.82372">
        <ele>489</ele>
        <time>2016-02-20T08:18:42.844Z</time>
      </trkpt>
      <trkpt lat="43.68565" lon="5.8237">
        <ele>488</ele>
        <time>2016-02-20T08:18:44.917Z</time>
      </trkpt>
      <trkpt lat="43.68568" lon="5.82368">
        <ele>488</ele>
        <time>2016-02-20T08:18:45.843Z</time>
      </trkpt>
      <trkpt lat="43.68574" lon="5.82364">
        <ele>488</ele>
        <time>2016-02-20T08:18:48.494Z</time>
      </trkpt>
      <trkpt lat="43.68578" lon="5.82361">
        <ele>488</ele>
        <time>2016-02-20T08:18:48.825Z</time>
      </trkpt>
      <trkpt lat="43.68583" lon="5.82354">
        <ele>488</ele>
        <time>2016-02-20T08:18:50.918Z</time>
      </trkpt>
      <trkpt lat="43.68586" lon="5.82351">
        <ele>488</ele>
        <time>2016-02-20T08:18:51.846Z</time>
      </trkpt>
      <trkpt lat="43.68592" lon="5.82345">
        <ele>489</ele>
        <time>2016-02-20T08:18:53.922Z</time>
      </trkpt>
      <trkpt lat="43.68595" lon="5.82342">
        <ele>488</ele>
        <time>2016-02-20T08:18:54.848Z</time>
      </trkpt>
      <trkpt lat="43.68601" lon="5.82336">
        <ele>488</ele>
        <time>2016-02-20T08:18:56.923Z</time>
      </trkpt>
      <trkpt lat="43.68604" lon="5.82334">
        <ele>488</ele>
        <time>2016-02-20T08:18:57.842Z</time>
      </trkpt>
      <trkpt lat="43.6861" lon="5.82328">
        <ele>487</ele>
        <time>2016-02-20T08:19:00.516Z</time>
      </trkpt>
      <trkpt lat="43.68613" lon="5.82325">
        <ele>487</ele>
        <time>2016-02-20T08:19:00.827Z</time>
      </trkpt>
      <trkpt lat="43.68619" lon="5.82319">
        <ele>487</ele>
        <time>2016-02-20T08:19:02.922Z</time>
      </trkpt>
      <trkpt lat="43.68622" lon="5.82316">
        <ele>487</ele>
        <time>2016-02-20T08:19:03.844Z</time>
      </trkpt>
      <trkpt lat="43.68627" lon="5.8231">
        <ele>487</ele>
        <time>2016-02-20T08:19:05.924Z</time>
      </trkpt>
      <trkpt lat="43.6863" lon="5.82306">
        <ele>487</ele>
        <time>2016-02-20T08:19:06.843Z</time>
      </trkpt>
      <trkpt lat="43.68635" lon="5.82301">
        <ele>487</ele>
        <time>2016-02-20T08:19:08.930Z</time>
      </trkpt>
      <trkpt lat="43.68637" lon="5.82297">
        <ele>487</ele>
        <time>2016-02-20T08:19:09.853Z</time>
      </trkpt>
      <trkpt lat="43.68643" lon="5.82291">
        <ele>488</ele>
        <time>2016-02-20T08:19:11.926Z</time>
      </trkpt>
      <trkpt lat="43.68647" lon="5.82287">
        <ele>488</ele>
        <time>2016-02-20T08:19:12.848Z</time>
      </trkpt>
      <trkpt lat="43.68653" lon="5.82278">
        <ele>488</ele>
        <time>2016-02-20T08:19:14.923Z</time>
      </trkpt>
      <trkpt lat="43.68656" lon="5.82274">
        <ele>488</ele>
        <time>2016-02-20T08:19:15.843Z</time>
      </trkpt>
      <trkpt lat="43.6866" lon="5.82264">
        <ele>489</ele>
        <time>2016-02-20T08:19:17.923Z</time>
      </trkpt>
      <trkpt lat="43.68662" lon="5.8226">
        <ele>488</ele>
        <time>2016-02-20T08:19:18.849Z</time>
      </trkpt>
      <trkpt lat="43.68665" lon="5.82248">
        <ele>489</ele>
        <time>2016-02-20T08:19:20.937Z</time>
      </trkpt>
      <trkpt lat="43.68665" lon="5.82242">
        <ele>489</ele>
        <time>2016-02-20T08:19:21.844Z</time>
      </trkpt>
      <trkpt lat="43.68667" lon="5.82231">
        <ele>489</ele>
        <time>2016-02-20T08:19:23.913Z</time>
      </trkpt>
      <trkpt lat="43.68668" lon="5.82226">
        <ele>489</ele>
        <time>2016-02-20T08:19:24.844Z</time>
      </trkpt>
      <trkpt lat="43.68672" lon="5.82216">
        <ele>490</ele>
        <time>2016-02-20T08:19:26.933Z</time>
      </trkpt>
      <trkpt lat="43.68674" lon="5.82211">
        <ele>491</ele>
        <time>2016-02-20T08:19:27.847Z</time>
      </trkpt>
      <trkpt lat="43.68679" lon="5.82202">
        <ele>491</ele>
        <time>2016-02-20T08:19:29.920Z</time>
      </trkpt>
      <trkpt lat="43.68682" lon="5.82197">
        <ele>490</ele>
        <time>2016-02-20T08:19:30.849Z</time>
      </trkpt>
      <trkpt lat="43.68687" lon="5.8219">
        <ele>491</ele>
        <time>2016-02-20T08:19:32.909Z</time>
      </trkpt>
      <trkpt lat="43.6869" lon="5.82186">
        <ele>491</ele>
        <time>2016-02-20T08:19:33.845Z</time>
      </trkpt>
      <trkpt lat="43.68695" lon="5.82179">
        <ele>491</ele>
        <time>2016-02-20T08:19:35.929Z</time>
      </trkpt>
      <trkpt lat="43.68698" lon="5.82174">
        <ele>492</ele>
        <time>2016-02-20T08:19:36.841Z</time>
      </trkpt>
      <trkpt lat="43.68705" lon="5.82166">
        <ele>492</ele>
        <time>2016-02-20T08:19:38.923Z</time>
      </trkpt>
      <trkpt lat="43.68708" lon="5.8216">
        <ele>492</ele>
        <time>2016-02-20T08:19:39.853Z</time>
      </trkpt>
      <trkpt lat="43.6871" lon="5.82154">
        <ele>492</ele>
        <time>2016-02-20T08:19:40.906Z</time>
      </trkpt>
      <trkpt lat="43.68712" lon="5.82149">
        <ele>492</ele>
        <time>2016-02-20T08:19:41.848Z</time>
      </trkpt>
      <trkpt lat="43.68714" lon="5.82143">
        <ele>492</ele>
        <time>2016-02-20T08:19:42.924Z</time>
      </trkpt>
      <trkpt lat="43.68716" lon="5.82137">
        <ele>491</ele>
        <time>2016-02-20T08:19:43.852Z</time>
      </trkpt>
      <trkpt lat="43.68721" lon="5.8213">
        <ele>492</ele>
        <time>2016-02-20T08:19:45.860Z</time>
      </trkpt>
      <trkpt lat="43.68723" lon="5.82125">
        <ele>490</ele>
        <time>2016-02-20T08:19:46.844Z</time>
      </trkpt>
      <trkpt lat="43.68723" lon="5.82114">
        <ele>490</ele>
        <time>2016-02-20T08:19:48.924Z</time>
      </trkpt>
      <trkpt lat="43.68723" lon="5.82108">
        <ele>490</ele>
        <time>2016-02-20T08:19:49.844Z</time>
      </trkpt>
      <trkpt lat="43.68723" lon="5.82101">
        <ele>490</ele>
        <time>2016-02-20T08:19:50.925Z</time>
      </trkpt>
      <trkpt lat="43.68723" lon="5.82095">
        <ele>490</ele>
        <time>2016-02-20T08:19:51.848Z</time>
      </trkpt>
      <trkpt lat="43.68722" lon="5.82088">
        <ele>489</ele>
        <time>2016-02-20T08:19:52.914Z</time>
      </trkpt>
      <trkpt lat="43.68721" lon="5.82081">
        <ele>489</ele>
        <time>2016-02-20T08:19:53.848Z</time>
      </trkpt>
      <trkpt lat="43.68719" lon="5.82074">
        <ele>489</ele>
        <time>2016-02-20T08:19:54.917Z</time>
      </trkpt>
      <trkpt lat="43.68718" lon="5.82068">
        <ele>489</ele>
        <time>2016-02-20T08:19:55.844Z</time>
      </trkpt>
      <trkpt lat="43.68719" lon="5.82061">
        <ele>489</ele>
        <time>2016-02-20T08:19:57.483Z</time>
      </trkpt>
      <trkpt lat="43.68719" lon="5.82053">
        <ele>488</ele>
        <time>2016-02-20T08:19:57.846Z</time>
      </trkpt>
      <trkpt lat="43.6872" lon="5.82046">
        <ele>487</ele>
        <time>2016-02-20T08:19:58.925Z</time>
      </trkpt>
      <trkpt lat="43.6872" lon="5.82038">
        <ele>487</ele>
        <time>2016-02-20T08:19:59.843Z</time>
      </trkpt>
      <trkpt lat="43.68719" lon="5.8203">
        <ele>487</ele>
        <time>2016-02-20T08:20:00.915Z</time>
      </trkpt>
      <trkpt lat="43.68719" lon="5.82023">
        <ele>487</ele>
        <time>2016-02-20T08:20:01.848Z</time>
      </trkpt>
      <trkpt lat="43.68719" lon="5.82015">
        <ele>486</ele>
        <time>2016-02-20T08:20:02.930Z</time>
      </trkpt>
      <trkpt lat="43.68719" lon="5.82008">
        <ele>486</ele>
        <time>2016-02-20T08:20:03.849Z</time>
      </trkpt>
      <trkpt lat="43.68719" lon="5.82">
        <ele>486</ele>
        <time>2016-02-20T08:20:04.921Z</time>
      </trkpt>
      <trkpt lat="43.68721" lon="5.81992">
        <ele>485</ele>
        <time>2016-02-20T08:20:05.843Z</time>
      </trkpt>
      <trkpt lat="43.68723" lon="5.81985">
        <ele>486</ele>
        <time>2016-02-20T08:20:06.926Z</time>
      </trkpt>
      <trkpt lat="43.68726" lon="5.81979">
        <ele>486</ele>
        <time>2016-02-20T08:20:07.849Z</time>
      </trkpt>
      <trkpt lat="43.68729" lon="5.81971">
        <ele>485</ele>
        <time>2016-02-20T08:20:08.919Z</time>
      </trkpt>
      <trkpt lat="43.68731" lon="5.81965">
        <ele>485</ele>
        <time>2016-02-20T08:20:09.843Z</time>
      </trkpt>
      <trkpt lat="43.68733" lon="5.81958">
        <ele>485</ele>
        <time>2016-02-20T08:20:10.920Z</time>
      </trkpt>
      <trkpt lat="43.68734" lon="5.81951">
        <ele>484</ele>
        <time>2016-02-20T08:20:11.849Z</time>
      </trkpt>
      <trkpt lat="43.68734" lon="5.81943">
        <ele>483</ele>
        <time>2016-02-20T08:20:12.927Z</time>
      </trkpt>
      <trkpt lat="43.68735" lon="5.81935">
        <ele>483</ele>
        <time>2016-02-20T08:20:13.855Z</time>
      </trkpt>
      <trkpt lat="43.68736" lon="5.81928">
        <ele>483</ele>
        <time>2016-02-20T08:20:14.853Z</time>
      </trkpt>
      <trkpt lat="43.68738" lon="5.81921">
        <ele>482</ele>
        <time>2016-02-20T08:20:15.831Z</time>
      </trkpt>
      <trkpt lat="43.68739" lon="5.81913">
        <ele>482</ele>
        <time>2016-02-20T08:20:16.919Z</time>
      </trkpt>
      <trkpt lat="43.6874" lon="5.81905">
        <ele>481</ele>
        <time>2016-02-20T08:20:17.846Z</time>
      </trkpt>
      <trkpt lat="43.68742" lon="5.81897">
        <ele>482</ele>
        <time>2016-02-20T08:20:18.858Z</time>
      </trkpt>
      <trkpt lat="43.68743" lon="5.81891">
        <ele>482</ele>
        <time>2016-02-20T08:20:19.854Z</time>
      </trkpt>
      <trkpt lat="43.68744" lon="5.81884">
        <ele>481</ele>
        <time>2016-02-20T08:20:20.937Z</time>
      </trkpt>
      <trkpt lat="43.68747" lon="5.81878">
        <ele>482</ele>
        <time>2016-02-20T08:20:21.845Z</time>
      </trkpt>
      <trkpt lat="43.68752" lon="5.8187">
        <ele>482</ele>
        <time>2016-02-20T08:20:23.920Z</time>
      </trkpt>
      <trkpt lat="43.68754" lon="5.81864">
        <ele>483</ele>
        <time>2016-02-20T08:20:24.846Z</time>
      </trkpt>
      <trkpt lat="43.68757" lon="5.81854">
        <ele>483</ele>
        <time>2016-02-20T08:20:26.923Z</time>
      </trkpt>
      <trkpt lat="43.68758" lon="5.81847">
        <ele>484</ele>
        <time>2016-02-20T08:20:27.851Z</time>
      </trkpt>
      <trkpt lat="43.68759" lon="5.81842">
        <ele>483</ele>
        <time>2016-02-20T08:20:29.231Z</time>
      </trkpt>
      <trkpt lat="43.6876" lon="5.81835">
        <ele>483</ele>
        <time>2016-02-20T08:20:29.845Z</time>
      </trkpt>
      <trkpt lat="43.6876" lon="5.81829">
        <ele>483</ele>
        <time>2016-02-20T08:20:30.922Z</time>
      </trkpt>
      <trkpt lat="43.6876" lon="5.81822">
        <ele>483</ele>
        <time>2016-02-20T08:20:31.842Z</time>
      </trkpt>
      <trkpt lat="43.6876" lon="5.81815">
        <ele>483</ele>
        <time>2016-02-20T08:20:32.898Z</time>
      </trkpt>
      <trkpt lat="43.68759" lon="5.81809">
        <ele>483</ele>
        <time>2016-02-20T08:20:33.845Z</time>
      </trkpt>
      <trkpt lat="43.6876" lon="5.81798">
        <ele>483</ele>
        <time>2016-02-20T08:20:35.923Z</time>
      </trkpt>
      <trkpt lat="43.68761" lon="5.81794">
        <ele>483</ele>
        <time>2016-02-20T08:20:36.851Z</time>
      </trkpt>
      <trkpt lat="43.68763" lon="5.81785">
        <ele>483</ele>
        <time>2016-02-20T08:20:39.503Z</time>
      </trkpt>
      <trkpt lat="43.68764" lon="5.81782">
        <ele>483</ele>
        <time>2016-02-20T08:20:39.828Z</time>
      </trkpt>
      <trkpt lat="43.68765" lon="5.81771">
        <ele>484</ele>
        <time>2016-02-20T08:20:42.922Z</time>
      </trkpt>
      <trkpt lat="43.68765" lon="5.81768">
        <ele>483</ele>
        <time>2016-02-20T08:20:43.851Z</time>
      </trkpt>
      <trkpt lat="43.68766" lon="5.81756">
        <ele>483</ele>
        <time>2016-02-20T08:20:46.916Z</time>
      </trkpt>
      <trkpt lat="43.68766" lon="5.81751">
        <ele>483</ele>
        <time>2016-02-20T08:20:47.851Z</time>
      </trkpt>
      <trkpt lat="43.68766" lon="5.81744">
        <ele>483</ele>
        <time>2016-02-20T08:20:48.911Z</time>
      </trkpt>
      <trkpt lat="43.68767" lon="5.81738">
        <ele>483</ele>
        <time>2016-02-20T08:20:49.845Z</time>
      </trkpt>
      <trkpt lat="43.68767" lon="5.81731">
        <ele>483</ele>
        <time>2016-02-20T08:20:51.379Z</time>
      </trkpt>
      <trkpt lat="43.68768" lon="5.81724">
        <ele>482</ele>
        <time>2016-02-20T08:20:51.827Z</time>
      </trkpt>
      <trkpt lat="43.68768" lon="5.81717">
        <ele>482</ele>
        <time>2016-02-20T08:20:52.924Z</time>
      </trkpt>
      <trkpt lat="43.68769" lon="5.8171">
        <ele>481</ele>
        <time>2016-02-20T08:20:53.856Z</time>
      </trkpt>
      <trkpt lat="43.6877" lon="5.81703">
        <ele>481</ele>
        <time>2016-02-20T08:20:54.864Z</time>
      </trkpt>
      <trkpt lat="43.68771" lon="5.81696">
        <ele>481</ele>
        <time>2016-02-20T08:20:55.825Z</time>
      </trkpt>
      <trkpt lat="43.68773" lon="5.81689">
        <ele>481</ele>
        <time>2016-02-20T08:20:56.933Z</time>
      </trkpt>
      <trkpt lat="43.68775" lon="5.81683">
        <ele>480</ele>
        <time>2016-02-20T08:20:57.851Z</time>
      </trkpt>
      <trkpt lat="43.68777" lon="5.81676">
        <ele>480</ele>
        <time>2016-02-20T08:20:58.944Z</time>
      </trkpt>
      <trkpt lat="43.6878" lon="5.81668">
        <ele>481</ele>
        <time>2016-02-20T08:20:59.847Z</time>
      </trkpt>
      <trkpt lat="43.68782" lon="5.81662">
        <ele>481</ele>
        <time>2016-02-20T08:21:01.538Z</time>
      </trkpt>
      <trkpt lat="43.68784" lon="5.81655">
        <ele>481</ele>
        <time>2016-02-20T08:21:01.824Z</time>
      </trkpt>
      <trkpt lat="43.68786" lon="5.81649">
        <ele>481</ele>
        <time>2016-02-20T08:21:02.917Z</time>
      </trkpt>
      <trkpt lat="43.68787" lon="5.81643">
        <ele>481</ele>
        <time>2016-02-20T08:21:03.826Z</time>
      </trkpt>
      <trkpt lat="43.68792" lon="5.81633">
        <ele>481</ele>
        <time>2016-02-20T08:21:05.924Z</time>
      </trkpt>
      <trkpt lat="43.68793" lon="5.81628">
        <ele>481</ele>
        <time>2016-02-20T08:21:06.851Z</time>
      </trkpt>
      <trkpt lat="43.68798" lon="5.81618">
        <ele>481</ele>
        <time>2016-02-20T08:21:08.923Z</time>
      </trkpt>
      <trkpt lat="43.688" lon="5.81612">
        <ele>481</ele>
        <time>2016-02-20T08:21:09.847Z</time>
      </trkpt>
      <trkpt lat="43.68804" lon="5.81602">
        <ele>481</ele>
        <time>2016-02-20T08:21:11.924Z</time>
      </trkpt>
      <trkpt lat="43.68807" lon="5.81596">
        <ele>481</ele>
        <time>2016-02-20T08:21:13.217Z</time>
      </trkpt>
      <trkpt lat="43.6881" lon="5.81585">
        <ele>481</ele>
        <time>2016-02-20T08:21:14.949Z</time>
      </trkpt>
      <trkpt lat="43.68812" lon="5.81579">
        <ele>482</ele>
        <time>2016-02-20T08:21:15.849Z</time>
      </trkpt>
      <trkpt lat="43.68816" lon="5.81569">
        <ele>482</ele>
        <time>2016-02-20T08:21:17.925Z</time>
      </trkpt>
      <trkpt lat="43.68819" lon="5.81564">
        <ele>482</ele>
        <time>2016-02-20T08:21:18.851Z</time>
      </trkpt>
      <trkpt lat="43.68821" lon="5.81559">
        <ele>482</ele>
        <time>2016-02-20T08:21:19.919Z</time>
      </trkpt>
      <trkpt lat="43.68823" lon="5.81553">
        <ele>483</ele>
        <time>2016-02-20T08:21:20.826Z</time>
      </trkpt>
      <trkpt lat="43.68825" lon="5.81547">
        <ele>483</ele>
        <time>2016-02-20T08:21:21.923Z</time>
      </trkpt>
      <trkpt lat="43.68827" lon="5.81541">
        <ele>483</ele>
        <time>2016-02-20T08:21:22.850Z</time>
      </trkpt>
      <trkpt lat="43.68829" lon="5.81535">
        <ele>483</ele>
        <time>2016-02-20T08:21:24.240Z</time>
      </trkpt>
      <trkpt lat="43.68831" lon="5.8153">
        <ele>483</ele>
        <time>2016-02-20T08:21:24.830Z</time>
      </trkpt>
      <trkpt lat="43.68834" lon="5.81524">
        <ele>483</ele>
        <time>2016-02-20T08:21:25.938Z</time>
      </trkpt>
      <trkpt lat="43.68836" lon="5.81519">
        <ele>483</ele>
        <time>2016-02-20T08:21:26.851Z</time>
      </trkpt>
      <trkpt lat="43.68839" lon="5.81513">
        <ele>481</ele>
        <time>2016-02-20T08:21:27.923Z</time>
      </trkpt>
      <trkpt lat="43.68841" lon="5.81508">
        <ele>481</ele>
        <time>2016-02-20T08:21:28.845Z</time>
      </trkpt>
      <trkpt lat="43.68844" lon="5.81503">
        <ele>481</ele>
        <time>2016-02-20T08:21:29.926Z</time>
      </trkpt>
      <trkpt lat="43.68847" lon="5.81498">
        <ele>481</ele>
        <time>2016-02-20T08:21:30.847Z</time>
      </trkpt>
      <trkpt lat="43.68851" lon="5.81487">
        <ele>482</ele>
        <time>2016-02-20T08:21:32.926Z</time>
      </trkpt>
      <trkpt lat="43.68854" lon="5.81482">
        <ele>482</ele>
        <time>2016-02-20T08:21:33.851Z</time>
      </trkpt>
      <trkpt lat="43.6886" lon="5.81475">
        <ele>481</ele>
        <time>2016-02-20T08:21:35.858Z</time>
      </trkpt>
      <trkpt lat="43.68863" lon="5.81469">
        <ele>481</ele>
        <time>2016-02-20T08:21:36.855Z</time>
      </trkpt>
      <trkpt lat="43.68867" lon="5.81458">
        <ele>481</ele>
        <time>2016-02-20T08:21:38.923Z</time>
      </trkpt>
      <trkpt lat="43.6887" lon="5.81453">
        <ele>481</ele>
        <time>2016-02-20T08:21:39.854Z</time>
      </trkpt>
      <trkpt lat="43.68874" lon="5.81448">
        <ele>480</ele>
        <time>2016-02-20T08:21:40.955Z</time>
      </trkpt>
      <trkpt lat="43.68877" lon="5.81442">
        <ele>480</ele>
        <time>2016-02-20T08:21:41.848Z</time>
      </trkpt>
      <trkpt lat="43.68879" lon="5.81437">
        <ele>480</ele>
        <time>2016-02-20T08:21:42.904Z</time>
      </trkpt>
      <trkpt lat="43.68882" lon="5.8143">
        <ele>480</ele>
        <time>2016-02-20T08:21:43.845Z</time>
      </trkpt>
      <trkpt lat="43.68885" lon="5.8142">
        <ele>480</ele>
        <time>2016-02-20T08:21:45.917Z</time>
      </trkpt>
      <trkpt lat="43.68887" lon="5.81415">
        <ele>480</ele>
        <time>2016-02-20T08:21:46.828Z</time>
      </trkpt>
      <trkpt lat="43.68889" lon="5.81407">
        <ele>481</ele>
        <time>2016-02-20T08:21:48.914Z</time>
      </trkpt>
      <trkpt lat="43.68891" lon="5.81401">
        <ele>480</ele>
        <time>2016-02-20T08:21:49.848Z</time>
      </trkpt>
      <trkpt lat="43.68894" lon="5.81396">
        <ele>480</ele>
        <time>2016-02-20T08:21:50.908Z</time>
      </trkpt>
      <trkpt lat="43.68897" lon="5.8139">
        <ele>479</ele>
        <time>2016-02-20T08:21:51.848Z</time>
      </trkpt>
      <trkpt lat="43.689" lon="5.81385">
        <ele>479</ele>
        <time>2016-02-20T08:21:52.856Z</time>
      </trkpt>
      <trkpt lat="43.68903" lon="5.8138">
        <ele>479</ele>
        <time>2016-02-20T08:21:53.847Z</time>
      </trkpt>
      <trkpt lat="43.6891" lon="5.81372">
        <ele>479</ele>
        <time>2016-02-20T08:21:55.916Z</time>
      </trkpt>
      <trkpt lat="43.68912" lon="5.81367">
        <ele>479</ele>
        <time>2016-02-20T08:21:56.847Z</time>
      </trkpt>
      <trkpt lat="43.68916" lon="5.81358">
        <ele>478</ele>
        <time>2016-02-20T08:21:58.946Z</time>
      </trkpt>
      <trkpt lat="43.68918" lon="5.81354">
        <ele>478</ele>
        <time>2016-02-20T08:21:59.850Z</time>
      </trkpt>
      <trkpt lat="43.68922" lon="5.81343">
        <ele>479</ele>
        <time>2016-02-20T08:22:01.924Z</time>
      </trkpt>
      <trkpt lat="43.68922" lon="5.81336">
        <ele>478</ele>
        <time>2016-02-20T08:22:02.845Z</time>
      </trkpt>
      <trkpt lat="43.68922" lon="5.8133">
        <ele>478</ele>
        <time>2016-02-20T08:22:03.921Z</time>
      </trkpt>
      <trkpt lat="43.68921" lon="5.81324">
        <ele>478</ele>
        <time>2016-02-20T08:22:04.844Z</time>
      </trkpt>
      <trkpt lat="43.68921" lon="5.81311">
        <ele>478</ele>
        <time>2016-02-20T08:22:06.929Z</time>
      </trkpt>
      <trkpt lat="43.68921" lon="5.81306">
        <ele>478</ele>
        <time>2016-02-20T08:22:07.843Z</time>
      </trkpt>
      <trkpt lat="43.68923" lon="5.81296">
        <ele>478</ele>
        <time>2016-02-20T08:22:09.926Z</time>
      </trkpt>
      <trkpt lat="43.68923" lon="5.81291">
        <ele>478</ele>
        <time>2016-02-20T08:22:10.844Z</time>
      </trkpt>
      <trkpt lat="43.68925" lon="5.81282">
        <ele>478</ele>
        <time>2016-02-20T08:22:12.924Z</time>
      </trkpt>
      <trkpt lat="43.68925" lon="5.81277">
        <ele>478</ele>
        <time>2016-02-20T08:22:13.849Z</time>
      </trkpt>
      <trkpt lat="43.68926" lon="5.81268">
        <ele>478</ele>
        <time>2016-02-20T08:22:15.937Z</time>
      </trkpt>
      <trkpt lat="43.68926" lon="5.81263">
        <ele>478</ele>
        <time>2016-02-20T08:22:16.847Z</time>
      </trkpt>
      <trkpt lat="43.68927" lon="5.81254">
        <ele>476</ele>
        <time>2016-02-20T08:22:18.902Z</time>
      </trkpt>
      <trkpt lat="43.68928" lon="5.81249">
        <ele>477</ele>
        <time>2016-02-20T08:22:19.851Z</time>
      </trkpt>
      <trkpt lat="43.6893" lon="5.81241">
        <ele>477</ele>
        <time>2016-02-20T08:22:21.920Z</time>
      </trkpt>
      <trkpt lat="43.68932" lon="5.81237">
        <ele>478</ele>
        <time>2016-02-20T08:22:22.825Z</time>
      </trkpt>
      <trkpt lat="43.68934" lon="5.81228">
        <ele>478</ele>
        <time>2016-02-20T08:22:24.929Z</time>
      </trkpt>
      <trkpt lat="43.68935" lon="5.81225">
        <ele>478</ele>
        <time>2016-02-20T08:22:25.849Z</time>
      </trkpt>
      <trkpt lat="43.68937" lon="5.81216">
        <ele>478</ele>
        <time>2016-02-20T08:22:27.923Z</time>
      </trkpt>
      <trkpt lat="43.68938" lon="5.81212">
        <ele>478</ele>
        <time>2016-02-20T08:22:28.845Z</time>
      </trkpt>
      <trkpt lat="43.6894" lon="5.81204">
        <ele>478</ele>
        <time>2016-02-20T08:22:30.912Z</time>
      </trkpt>
      <trkpt lat="43.68941" lon="5.81201">
        <ele>478</ele>
        <time>2016-02-20T08:22:31.860Z</time>
      </trkpt>
      <trkpt lat="43.68943" lon="5.81193">
        <ele>479</ele>
        <time>2016-02-20T08:22:33.941Z</time>
      </trkpt>
      <trkpt lat="43.68944" lon="5.81188">
        <ele>479</ele>
        <time>2016-02-20T08:22:34.825Z</time>
      </trkpt>
      <trkpt lat="43.68946" lon="5.8118">
        <ele>480</ele>
        <time>2016-02-20T08:22:36.921Z</time>
      </trkpt>
      <trkpt lat="43.68948" lon="5.81176">
        <ele>481</ele>
        <time>2016-02-20T08:22:37.850Z</time>
      </trkpt>
      <trkpt lat="43.6895" lon="5.81168">
        <ele>480</ele>
        <time>2016-02-20T08:22:39.897Z</time>
      </trkpt>
      <trkpt lat="43.68952" lon="5.81164">
        <ele>480</ele>
        <time>2016-02-20T08:22:40.849Z</time>
      </trkpt>
      <trkpt lat="43.68954" lon="5.81155">
        <ele>481</ele>
        <time>2016-02-20T08:22:42.937Z</time>
      </trkpt>
      <trkpt lat="43.68955" lon="5.81151">
        <ele>481</ele>
        <time>2016-02-20T08:22:43.845Z</time>
      </trkpt>
      <trkpt lat="43.68957" lon="5.81142">
        <ele>481</ele>
        <time>2016-02-20T08:22:45.930Z</time>
      </trkpt>
      <trkpt lat="43.68958" lon="5.81137">
        <ele>481</ele>
        <time>2016-02-20T08:22:46.846Z</time>
      </trkpt>
      <trkpt lat="43.68959" lon="5.81128">
        <ele>480</ele>
        <time>2016-02-20T08:22:48.938Z</time>
      </trkpt>
      <trkpt lat="43.6896" lon="5.81123">
        <ele>481</ele>
        <time>2016-02-20T08:22:49.844Z</time>
      </trkpt>
      <trkpt lat="43.68962" lon="5.81113">
        <ele>481</ele>
        <time>2016-02-20T08:22:51.924Z</time>
      </trkpt>
      <trkpt lat="43.68963" lon="5.81108">
        <ele>481</ele>
        <time>2016-02-20T08:22:52.847Z</time>
      </trkpt>
      <trkpt lat="43.68964" lon="5.81097">
        <ele>482</ele>
        <time>2016-02-20T08:22:54.915Z</time>
      </trkpt>
      <trkpt lat="43.68964" lon="5.81092">
        <ele>482</ele>
        <time>2016-02-20T08:22:55.852Z</time>
      </trkpt>
      <trkpt lat="43.68965" lon="5.81082">
        <ele>480</ele>
        <time>2016-02-20T08:22:57.917Z</time>
      </trkpt>
      <trkpt lat="43.68966" lon="5.81076">
        <ele>480</ele>
        <time>2016-02-20T08:22:58.846Z</time>
      </trkpt>
      <trkpt lat="43.68968" lon="5.81065">
        <ele>481</ele>
        <time>2016-02-20T08:23:00.926Z</time>
      </trkpt>
      <trkpt lat="43.68969" lon="5.81059">
        <ele>481</ele>
        <time>2016-02-20T08:23:01.825Z</time>
      </trkpt>
      <trkpt lat="43.68971" lon="5.81047">
        <ele>480</ele>
        <time>2016-02-20T08:23:03.924Z</time>
      </trkpt>
      <trkpt lat="43.68972" lon="5.81041">
        <ele>480</ele>
        <time>2016-02-20T08:23:04.907Z</time>
      </trkpt>
      <trkpt lat="43.68974" lon="5.8103">
        <ele>480</ele>
        <time>2016-02-20T08:23:06.902Z</time>
      </trkpt>
      <trkpt lat="43.68976" lon="5.81025">
        <ele>479</ele>
        <time>2016-02-20T08:23:07.854Z</time>
      </trkpt>
      <trkpt lat="43.68979" lon="5.81018">
        <ele>479</ele>
        <time>2016-02-20T08:23:09.902Z</time>
      </trkpt>
      <trkpt lat="43.68981" lon="5.81015">
        <ele>479</ele>
        <time>2016-02-20T08:23:10.852Z</time>
      </trkpt>
      <trkpt lat="43.68986" lon="5.81008">
        <ele>480</ele>
        <time>2016-02-20T08:23:13.111Z</time>
      </trkpt>
      <trkpt lat="43.68987" lon="5.81004">
        <ele>480</ele>
        <time>2016-02-20T08:23:13.824Z</time>
      </trkpt>
      <trkpt lat="43.6899" lon="5.80996">
        <ele>480</ele>
        <time>2016-02-20T08:23:15.863Z</time>
      </trkpt>
      <trkpt lat="43.68991" lon="5.80992">
        <ele>480</ele>
        <time>2016-02-20T08:23:16.876Z</time>
      </trkpt>
      <trkpt lat="43.68994" lon="5.80984">
        <ele>480</ele>
        <time>2016-02-20T08:23:18.919Z</time>
      </trkpt>
      <trkpt lat="43.68995" lon="5.8098">
        <ele>480</ele>
        <time>2016-02-20T08:23:19.826Z</time>
      </trkpt>
      <trkpt lat="43.68997" lon="5.80972">
        <ele>480</ele>
        <time>2016-02-20T08:23:21.908Z</time>
      </trkpt>
      <trkpt lat="43.68998" lon="5.80967">
        <ele>480</ele>
        <time>2016-02-20T08:23:22.855Z</time>
      </trkpt>
      <trkpt lat="43.69001" lon="5.80959">
        <ele>480</ele>
        <time>2016-02-20T08:23:24.906Z</time>
      </trkpt>
      <trkpt lat="43.69003" lon="5.80955">
        <ele>480</ele>
        <time>2016-02-20T08:23:25.856Z</time>
      </trkpt>
      <trkpt lat="43.69008" lon="5.80949">
        <ele>480</ele>
        <time>2016-02-20T08:23:27.908Z</time>
      </trkpt>
      <trkpt lat="43.69012" lon="5.80946">
        <ele>480</ele>
        <time>2016-02-20T08:23:28.852Z</time>
      </trkpt>
      <trkpt lat="43.69017" lon="5.80942">
        <ele>478</ele>
        <time>2016-02-20T08:23:30.894Z</time>
      </trkpt>
      <trkpt lat="43.6902" lon="5.8094">
        <ele>478</ele>
        <time>2016-02-20T08:23:31.857Z</time>
      </trkpt>
      <trkpt lat="43.69026" lon="5.80932">
        <ele>478</ele>
        <time>2016-02-20T08:23:34.911Z</time>
      </trkpt>
      <trkpt lat="43.69028" lon="5.80929">
        <ele>477</ele>
        <time>2016-02-20T08:23:35.846Z</time>
      </trkpt>
      <trkpt lat="43.69032" lon="5.80922">
        <ele>478</ele>
        <time>2016-02-20T08:23:37.900Z</time>
      </trkpt>
      <trkpt lat="43.69035" lon="5.80918">
        <ele>477</ele>
        <time>2016-02-20T08:23:38.851Z</time>
      </trkpt>
      <trkpt lat="43.69039" lon="5.8091">
        <ele>478</ele>
        <time>2016-02-20T08:23:40.898Z</time>
      </trkpt>
      <trkpt lat="43.69042" lon="5.80906">
        <ele>478</ele>
        <time>2016-02-20T08:23:41.849Z</time>
      </trkpt>
      <trkpt lat="43.69048" lon="5.809">
        <ele>477</ele>
        <time>2016-02-20T08:23:43.899Z</time>
      </trkpt>
      <trkpt lat="43.69052" lon="5.80897">
        <ele>477</ele>
        <time>2016-02-20T08:23:44.845Z</time>
      </trkpt>
      <trkpt lat="43.69059" lon="5.80892">
        <ele>476</ele>
        <time>2016-02-20T08:23:46.914Z</time>
      </trkpt>
      <trkpt lat="43.69063" lon="5.8089">
        <ele>476</ele>
        <time>2016-02-20T08:23:47.849Z</time>
      </trkpt>
      <trkpt lat="43.69071" lon="5.80885">
        <ele>476</ele>
        <time>2016-02-20T08:23:49.898Z</time>
      </trkpt>
      <trkpt lat="43.69074" lon="5.80884">
        <ele>476</ele>
        <time>2016-02-20T08:23:50.845Z</time>
      </trkpt>
      <trkpt lat="43.69081" lon="5.8088">
        <ele>476</ele>
        <time>2016-02-20T08:23:52.917Z</time>
      </trkpt>
      <trkpt lat="43.69084" lon="5.80877">
        <ele>476</ele>
        <time>2016-02-20T08:23:53.846Z</time>
      </trkpt>
      <trkpt lat="43.69091" lon="5.80872">
        <ele>476</ele>
        <time>2016-02-20T08:23:55.912Z</time>
      </trkpt>
      <trkpt lat="43.69094" lon="5.80869">
        <ele>476</ele>
        <time>2016-02-20T08:23:56.848Z</time>
      </trkpt>
      <trkpt lat="43.69098" lon="5.80866">
        <ele>474</ele>
        <time>2016-02-20T08:23:57.921Z</time>
      </trkpt>
      <trkpt lat="43.69102" lon="5.80862">
        <ele>474</ele>
        <time>2016-02-20T08:23:58.851Z</time>
      </trkpt>
      <trkpt lat="43.69106" lon="5.80859">
        <ele>474</ele>
        <time>2016-02-20T08:23:59.847Z</time>
      </trkpt>
      <trkpt lat="43.6911" lon="5.80855">
        <ele>474</ele>
        <time>2016-02-20T08:24:00.849Z</time>
      </trkpt>
      <trkpt lat="43.69113" lon="5.80852">
        <ele>473</ele>
        <time>2016-02-20T08:24:01.846Z</time>
      </trkpt>
      <trkpt lat="43.69118" lon="5.80848">
        <ele>474</ele>
        <time>2016-02-20T08:24:02.845Z</time>
      </trkpt>
      <trkpt lat="43.69122" lon="5.80845">
        <ele>473</ele>
        <time>2016-02-20T08:24:03.941Z</time>
      </trkpt>
      <trkpt lat="43.69126" lon="5.80842">
        <ele>473</ele>
        <time>2016-02-20T08:24:04.854Z</time>
      </trkpt>
      <trkpt lat="43.69133" lon="5.80835">
        <ele>473</ele>
        <time>2016-02-20T08:24:06.903Z</time>
      </trkpt>
      <trkpt lat="43.69138" lon="5.80832">
        <ele>473</ele>
        <time>2016-02-20T08:24:07.853Z</time>
      </trkpt>
      <trkpt lat="43.69143" lon="5.8083">
        <ele>473</ele>
        <time>2016-02-20T08:24:08.907Z</time>
      </trkpt>
      <trkpt lat="43.69146" lon="5.80828">
        <ele>475</ele>
        <time>2016-02-20T08:24:09.846Z</time>
      </trkpt>
      <trkpt lat="43.69154" lon="5.80823">
        <ele>475</ele>
        <time>2016-02-20T08:24:11.900Z</time>
      </trkpt>
      <trkpt lat="43.69157" lon="5.8082">
        <ele>475</ele>
        <time>2016-02-20T08:24:12.847Z</time>
      </trkpt>
      <trkpt lat="43.69163" lon="5.80815">
        <ele>475</ele>
        <time>2016-02-20T08:24:14.851Z</time>
      </trkpt>
      <trkpt lat="43.69167" lon="5.80812">
        <ele>474</ele>
        <time>2016-02-20T08:24:15.843Z</time>
      </trkpt>
      <trkpt lat="43.69174" lon="5.80807">
        <ele>474</ele>
        <time>2016-02-20T08:24:17.849Z</time>
      </trkpt>
      <trkpt lat="43.69178" lon="5.80804">
        <ele>473</ele>
        <time>2016-02-20T08:24:18.846Z</time>
      </trkpt>
      <trkpt lat="43.69184" lon="5.808">
        <ele>472</ele>
        <time>2016-02-20T08:24:20.907Z</time>
      </trkpt>
      <trkpt lat="43.69188" lon="5.80798">
        <ele>473</ele>
        <time>2016-02-20T08:24:21.848Z</time>
      </trkpt>
      <trkpt lat="43.69195" lon="5.80792">
        <ele>472</ele>
        <time>2016-02-20T08:24:23.897Z</time>
      </trkpt>
      <trkpt lat="43.69199" lon="5.80789">
        <ele>472</ele>
        <time>2016-02-20T08:24:24.849Z</time>
      </trkpt>
      <trkpt lat="43.69206" lon="5.80782">
        <ele>474</ele>
        <time>2016-02-20T08:24:26.893Z</time>
      </trkpt>
      <trkpt lat="43.69209" lon="5.80779">
        <ele>474</ele>
        <time>2016-02-20T08:24:27.846Z</time>
      </trkpt>
      <trkpt lat="43.69216" lon="5.80774">
        <ele>475</ele>
        <time>2016-02-20T08:24:29.906Z</time>
      </trkpt>
      <trkpt lat="43.69219" lon="5.80771">
        <ele>476</ele>
        <time>2016-02-20T08:24:30.845Z</time>
      </trkpt>
      <trkpt lat="43.69226" lon="5.80766">
        <ele>476</ele>
        <time>2016-02-20T08:24:32.905Z</time>
      </trkpt>
      <trkpt lat="43.69228" lon="5.80764">
        <ele>476</ele>
        <time>2016-02-20T08:24:33.845Z</time>
      </trkpt>
      <trkpt lat="43.69234" lon="5.8076">
        <ele>477</ele>
        <time>2016-02-20T08:24:35.900Z</time>
      </trkpt>
      <trkpt lat="43.69237" lon="5.80758">
        <ele>477</ele>
        <time>2016-02-20T08:24:36.855Z</time>
      </trkpt>
      <trkpt lat="43.69243" lon="5.80752">
        <ele>477</ele>
        <time>2016-02-20T08:24:39.909Z</time>
      </trkpt>
      <trkpt lat="43.69245" lon="5.8075">
        <ele>477</ele>
        <time>2016-02-20T08:24:40.828Z</time>
      </trkpt>
      <trkpt lat="43.6925" lon="5.80744">
        <ele>477</ele>
        <time>2016-02-20T08:24:43.904Z</time>
      </trkpt>
      <trkpt lat="43.69252" lon="5.80742">
        <ele>477</ele>
        <time>2016-02-20T08:24:44.850Z</time>
      </trkpt>
      <trkpt lat="43.69258" lon="5.80734">
        <ele>477</ele>
        <time>2016-02-20T08:24:48.903Z</time>
      </trkpt>
      <trkpt lat="43.69259" lon="5.80733">
        <ele>477</ele>
        <time>2016-02-20T08:24:49.856Z</time>
      </trkpt>
      <trkpt lat="43.69265" lon="5.80726">
        <ele>478</ele>
        <time>2016-02-20T08:24:54.852Z</time>
      </trkpt>
      <trkpt lat="43.69266" lon="5.80724">
        <ele>479</ele>
        <time>2016-02-20T08:24:55.857Z</time>
      </trkpt>
      <trkpt lat="43.69273" lon="5.80717">
        <ele>479</ele>
        <time>2016-02-20T08:24:59.904Z</time>
      </trkpt>
      <trkpt lat="43.69275" lon="5.80716">
        <ele>479</ele>
        <time>2016-02-20T08:25:00.854Z</time>
      </trkpt>
      <trkpt lat="43.69281" lon="5.80709">
        <ele>480</ele>
        <time>2016-02-20T08:25:04.910Z</time>
      </trkpt>
      <trkpt lat="43.69283" lon="5.80707">
        <ele>480</ele>
        <time>2016-02-20T08:25:05.843Z</time>
      </trkpt>
      <trkpt lat="43.69289" lon="5.807">
        <ele>480</ele>
        <time>2016-02-20T08:25:09.909Z</time>
      </trkpt>
      <trkpt lat="43.69291" lon="5.80698">
        <ele>480</ele>
        <time>2016-02-20T08:25:10.855Z</time>
      </trkpt>
      <trkpt lat="43.69296" lon="5.80692">
        <ele>481</ele>
        <time>2016-02-20T08:25:13.905Z</time>
      </trkpt>
      <trkpt lat="43.69298" lon="5.8069">
        <ele>481</ele>
        <time>2016-02-20T08:25:14.856Z</time>
      </trkpt>
      <trkpt lat="43.69303" lon="5.80682">
        <ele>481</ele>
        <time>2016-02-20T08:25:17.904Z</time>
      </trkpt>
      <trkpt lat="43.69305" lon="5.8068">
        <ele>481</ele>
        <time>2016-02-20T08:25:18.855Z</time>
      </trkpt>
      <trkpt lat="43.69311" lon="5.80673">
        <ele>482</ele>
        <time>2016-02-20T08:25:21.906Z</time>
      </trkpt>
      <trkpt lat="43.69313" lon="5.80671">
        <ele>483</ele>
        <time>2016-02-20T08:25:22.854Z</time>
      </trkpt>
      <trkpt lat="43.69318" lon="5.80663">
        <ele>484</ele>
        <time>2016-02-20T08:25:25.897Z</time>
      </trkpt>
      <trkpt lat="43.69319" lon="5.80661">
        <ele>484</ele>
        <time>2016-02-20T08:25:26.847Z</time>
      </trkpt>
      <trkpt lat="43.69324" lon="5.80653">
        <ele>484</ele>
        <time>2016-02-20T08:25:29.925Z</time>
      </trkpt>
      <trkpt lat="43.69325" lon="5.8065">
        <ele>484</ele>
        <time>2016-02-20T08:25:30.851Z</time>
      </trkpt>
      <trkpt lat="43.6933" lon="5.80641">
        <ele>484</ele>
        <time>2016-02-20T08:25:33.896Z</time>
      </trkpt>
      <trkpt lat="43.69331" lon="5.80639">
        <ele>484</ele>
        <time>2016-02-20T08:25:34.847Z</time>
      </trkpt>
      <trkpt lat="43.69336" lon="5.8063">
        <ele>486</ele>
        <time>2016-02-20T08:25:37.901Z</time>
      </trkpt>
      <trkpt lat="43.69338" lon="5.80627">
        <ele>485</ele>
        <time>2016-02-20T08:25:38.849Z</time>
      </trkpt>
      <trkpt lat="43.69343" lon="5.80617">
        <ele>485</ele>
        <time>2016-02-20T08:25:41.920Z</time>
      </trkpt>
      <trkpt lat="43.69344" lon="5.80614">
        <ele>485</ele>
        <time>2016-02-20T08:25:42.852Z</time>
      </trkpt>
      <trkpt lat="43.69347" lon="5.80606">
        <ele>486</ele>
        <time>2016-02-20T08:25:44.916Z</time>
      </trkpt>
      <trkpt lat="43.69348" lon="5.80602">
        <ele>486</ele>
        <time>2016-02-20T08:25:45.847Z</time>
      </trkpt>
      <trkpt lat="43.69351" lon="5.80593">
        <ele>487</ele>
        <time>2016-02-20T08:25:47.910Z</time>
      </trkpt>
      <trkpt lat="43.69352" lon="5.8059">
        <ele>487</ele>
        <time>2016-02-20T08:25:48.846Z</time>
      </trkpt>
      <trkpt lat="43.69353" lon="5.80581">
        <ele>488</ele>
        <time>2016-02-20T08:25:50.911Z</time>
      </trkpt>
      <trkpt lat="43.69354" lon="5.80577">
        <ele>488</ele>
        <time>2016-02-20T08:25:51.845Z</time>
      </trkpt>
      <trkpt lat="43.69355" lon="5.80569">
        <ele>488</ele>
        <time>2016-02-20T08:25:53.905Z</time>
      </trkpt>
      <trkpt lat="43.69355" lon="5.80564">
        <ele>488</ele>
        <time>2016-02-20T08:25:54.836Z</time>
      </trkpt>
      <trkpt lat="43.69357" lon="5.80552">
        <ele>488</ele>
        <time>2016-02-20T08:25:57.903Z</time>
      </trkpt>
      <trkpt lat="43.69357" lon="5.80548">
        <ele>488</ele>
        <time>2016-02-20T08:25:58.830Z</time>
      </trkpt>
      <trkpt lat="43.69357" lon="5.80539">
        <ele>488</ele>
        <time>2016-02-20T08:26:00.900Z</time>
      </trkpt>
      <trkpt lat="43.69356" lon="5.80535">
        <ele>489</ele>
        <time>2016-02-20T08:26:01.852Z</time>
      </trkpt>
      <trkpt lat="43.69354" lon="5.80525">
        <ele>489</ele>
        <time>2016-02-20T08:26:03.937Z</time>
      </trkpt>
      <trkpt lat="43.69354" lon="5.80521">
        <ele>490</ele>
        <time>2016-02-20T08:26:04.854Z</time>
      </trkpt>
      <trkpt lat="43.69352" lon="5.80512">
        <ele>490</ele>
        <time>2016-02-20T08:26:06.906Z</time>
      </trkpt>
      <trkpt lat="43.69352" lon="5.80508">
        <ele>490</ele>
        <time>2016-02-20T08:26:07.855Z</time>
      </trkpt>
      <trkpt lat="43.69351" lon="5.80498">
        <ele>490</ele>
        <time>2016-02-20T08:26:09.896Z</time>
      </trkpt>
      <trkpt lat="43.69351" lon="5.80493">
        <ele>489</ele>
        <time>2016-02-20T08:26:10.847Z</time>
      </trkpt>
      <trkpt lat="43.69351" lon="5.80484">
        <ele>489</ele>
        <time>2016-02-20T08:26:12.901Z</time>
      </trkpt>
      <trkpt lat="43.69351" lon="5.80479">
        <ele>489</ele>
        <time>2016-02-20T08:26:13.846Z</time>
      </trkpt>
      <trkpt lat="43.69351" lon="5.8047">
        <ele>488</ele>
        <time>2016-02-20T08:26:15.905Z</time>
      </trkpt>
      <trkpt lat="43.69351" lon="5.80465">
        <ele>489</ele>
        <time>2016-02-20T08:26:16.856Z</time>
      </trkpt>
      <trkpt lat="43.69351" lon="5.80455">
        <ele>489</ele>
        <time>2016-02-20T08:26:18.898Z</time>
      </trkpt>
      <trkpt lat="43.69351" lon="5.8045">
        <ele>489</ele>
        <time>2016-02-20T08:26:19.849Z</time>
      </trkpt>
      <trkpt lat="43.69352" lon="5.80439">
        <ele>490</ele>
        <time>2016-02-20T08:26:21.920Z</time>
      </trkpt>
      <trkpt lat="43.69353" lon="5.80434">
        <ele>492</ele>
        <time>2016-02-20T08:26:22.849Z</time>
      </trkpt>
      <trkpt lat="43.69354" lon="5.80423">
        <ele>492</ele>
        <time>2016-02-20T08:26:24.908Z</time>
      </trkpt>
      <trkpt lat="43.69354" lon="5.80417">
        <ele>492</ele>
        <time>2016-02-20T08:26:25.844Z</time>
      </trkpt>
      <trkpt lat="43.69353" lon="5.80408">
        <ele>492</ele>
        <time>2016-02-20T08:26:26.847Z</time>
      </trkpt>
      <trkpt lat="43.69353" lon="5.80403">
        <ele>492</ele>
        <time>2016-02-20T08:26:27.851Z</time>
      </trkpt>
      <trkpt lat="43.69354" lon="5.80396">
        <ele>492</ele>
        <time>2016-02-20T08:26:29.055Z</time>
      </trkpt>
      <trkpt lat="43.69354" lon="5.8039">
        <ele>492</ele>
        <time>2016-02-20T08:26:29.826Z</time>
      </trkpt>
      <trkpt lat="43.69353" lon="5.80378">
        <ele>492</ele>
        <time>2016-02-20T08:26:31.861Z</time>
      </trkpt>
      <trkpt lat="43.69352" lon="5.80372">
        <ele>493</ele>
        <time>2016-02-20T08:26:32.942Z</time>
      </trkpt>
      <trkpt lat="43.69353" lon="5.80365">
        <ele>492</ele>
        <time>2016-02-20T08:26:33.912Z</time>
      </trkpt>
      <trkpt lat="43.69353" lon="5.80359">
        <ele>492</ele>
        <time>2016-02-20T08:26:34.853Z</time>
      </trkpt>
      <trkpt lat="43.69354" lon="5.80353">
        <ele>492</ele>
        <time>2016-02-20T08:26:35.908Z</time>
      </trkpt>
      <trkpt lat="43.69354" lon="5.80346">
        <ele>491</ele>
        <time>2016-02-20T08:26:36.845Z</time>
      </trkpt>
      <trkpt lat="43.69355" lon="5.80339">
        <ele>492</ele>
        <time>2016-02-20T08:26:37.907Z</time>
      </trkpt>
      <trkpt lat="43.69354" lon="5.80332">
        <ele>492</ele>
        <time>2016-02-20T08:26:38.853Z</time>
      </trkpt>
      <trkpt lat="43.69354" lon="5.80325">
        <ele>491</ele>
        <time>2016-02-20T08:26:39.850Z</time>
      </trkpt>
      <trkpt lat="43.69354" lon="5.80318">
        <ele>491</ele>
        <time>2016-02-20T08:26:40.848Z</time>
      </trkpt>
      <trkpt lat="43.69354" lon="5.80311">
        <ele>491</ele>
        <time>2016-02-20T08:26:41.857Z</time>
      </trkpt>
      <trkpt lat="43.69354" lon="5.80303">
        <ele>491</ele>
        <time>2016-02-20T08:26:42.839Z</time>
      </trkpt>
      <trkpt lat="43.69354" lon="5.80296">
        <ele>490</ele>
        <time>2016-02-20T08:26:43.904Z</time>
      </trkpt>
      <trkpt lat="43.69355" lon="5.80288">
        <ele>489</ele>
        <time>2016-02-20T08:26:44.853Z</time>
      </trkpt>
      <trkpt lat="43.69355" lon="5.8028">
        <ele>489</ele>
        <time>2016-02-20T08:26:45.847Z</time>
      </trkpt>
      <trkpt lat="43.69355" lon="5.80273">
        <ele>488</ele>
        <time>2016-02-20T08:26:46.845Z</time>
      </trkpt>
      <trkpt lat="43.69355" lon="5.80266">
        <ele>489</ele>
        <time>2016-02-20T08:26:47.895Z</time>
      </trkpt>
      <trkpt lat="43.69355" lon="5.80258">
        <ele>488</ele>
        <time>2016-02-20T08:26:48.843Z</time>
      </trkpt>
      <trkpt lat="43.69355" lon="5.80251">
        <ele>488</ele>
        <time>2016-02-20T08:26:49.853Z</time>
      </trkpt>
      <trkpt lat="43.69355" lon="5.80244">
        <ele>487</ele>
        <time>2016-02-20T08:26:50.843Z</time>
      </trkpt>
      <trkpt lat="43.69355" lon="5.80235">
        <ele>487</ele>
        <time>2016-02-20T08:26:51.906Z</time>
      </trkpt>
      <trkpt lat="43.69356" lon="5.80228">
        <ele>486</ele>
        <time>2016-02-20T08:26:52.850Z</time>
      </trkpt>
      <trkpt lat="43.69356" lon="5.8022">
        <ele>486</ele>
        <time>2016-02-20T08:26:53.883Z</time>
      </trkpt>
      <trkpt lat="43.69356" lon="5.80214">
        <ele>486</ele>
        <time>2016-02-20T08:26:54.852Z</time>
      </trkpt>
      <trkpt lat="43.69359" lon="5.80207">
        <ele>485</ele>
        <time>2016-02-20T08:26:55.914Z</time>
      </trkpt>
      <trkpt lat="43.6936" lon="5.80199">
        <ele>485</ele>
        <time>2016-02-20T08:26:56.853Z</time>
      </trkpt>
      <trkpt lat="43.69361" lon="5.80192">
        <ele>486</ele>
        <time>2016-02-20T08:26:57.905Z</time>
      </trkpt>
      <trkpt lat="43.69363" lon="5.80184">
        <ele>486</ele>
        <time>2016-02-20T08:26:58.850Z</time>
      </trkpt>
      <trkpt lat="43.69362" lon="5.80176">
        <ele>486</ele>
        <time>2016-02-20T08:26:59.898Z</time>
      </trkpt>
      <trkpt lat="43.69361" lon="5.80169">
        <ele>486</ele>
        <time>2016-02-20T08:27:00.847Z</time>
      </trkpt>
      <trkpt lat="43.6936" lon="5.80161">
        <ele>486</ele>
        <time>2016-02-20T08:27:01.909Z</time>
      </trkpt>
      <trkpt lat="43.69358" lon="5.80156">
        <ele>486</ele>
        <time>2016-02-20T08:27:02.847Z</time>
      </trkpt>
      <trkpt lat="43.69356" lon="5.80149">
        <ele>487</ele>
        <time>2016-02-20T08:27:03.979Z</time>
      </trkpt>
      <trkpt lat="43.69354" lon="5.80143">
        <ele>487</ele>
        <time>2016-02-20T08:27:04.837Z</time>
      </trkpt>
      <trkpt lat="43.69351" lon="5.80138">
        <ele>487</ele>
        <time>2016-02-20T08:27:05.905Z</time>
      </trkpt>
      <trkpt lat="43.69348" lon="5.80133">
        <ele>486</ele>
        <time>2016-02-20T08:27:06.851Z</time>
      </trkpt>
      <trkpt lat="43.69345" lon="5.80127">
        <ele>486</ele>
        <time>2016-02-20T08:27:08.907Z</time>
      </trkpt>
      <trkpt lat="43.69342" lon="5.80123">
        <ele>486</ele>
        <time>2016-02-20T08:27:09.845Z</time>
      </trkpt>
      <trkpt lat="43.6934" lon="5.80116">
        <ele>488</ele>
        <time>2016-02-20T08:27:11.900Z</time>
      </trkpt>
      <trkpt lat="43.69339" lon="5.8011">
        <ele>487</ele>
        <time>2016-02-20T08:27:12.848Z</time>
      </trkpt>
      <trkpt lat="43.69338" lon="5.80104">
        <ele>485</ele>
        <time>2016-02-20T08:27:13.903Z</time>
      </trkpt>
      <trkpt lat="43.69337" lon="5.80097">
        <ele>486</ele>
        <time>2016-02-20T08:27:14.830Z</time>
      </trkpt>
      <trkpt lat="43.69333" lon="5.80086">
        <ele>485</ele>
        <time>2016-02-20T08:27:16.850Z</time>
      </trkpt>
      <trkpt lat="43.69332" lon="5.8008">
        <ele>487</ele>
        <time>2016-02-20T08:27:17.845Z</time>
      </trkpt>
      <trkpt lat="43.69333" lon="5.80073">
        <ele>486</ele>
        <time>2016-02-20T08:27:18.905Z</time>
      </trkpt>
      <trkpt lat="43.69331" lon="5.80067">
        <ele>486</ele>
        <time>2016-02-20T08:27:19.853Z</time>
      </trkpt>
      <trkpt lat="43.6933" lon="5.80059">
        <ele>486</ele>
        <time>2016-02-20T08:27:20.901Z</time>
      </trkpt>
      <trkpt lat="43.69328" lon="5.80052">
        <ele>486</ele>
        <time>2016-02-20T08:27:21.864Z</time>
      </trkpt>
      <trkpt lat="43.69327" lon="5.80046">
        <ele>486</ele>
        <time>2016-02-20T08:27:22.903Z</time>
      </trkpt>
      <trkpt lat="43.69325" lon="5.80038">
        <ele>486</ele>
        <time>2016-02-20T08:27:23.847Z</time>
      </trkpt>
      <trkpt lat="43.69324" lon="5.80031">
        <ele>485</ele>
        <time>2016-02-20T08:27:24.911Z</time>
      </trkpt>
      <trkpt lat="43.69323" lon="5.80022">
        <ele>484</ele>
        <time>2016-02-20T08:27:25.844Z</time>
      </trkpt>
      <trkpt lat="43.6932" lon="5.80011">
        <ele>483</ele>
        <time>2016-02-20T08:27:27.849Z</time>
      </trkpt>
      <trkpt lat="43.69318" lon="5.80006">
        <ele>482</ele>
        <time>2016-02-20T08:27:28.874Z</time>
      </trkpt>
      <trkpt lat="43.69315" lon="5.79996">
        <ele>483</ele>
        <time>2016-02-20T08:27:30.914Z</time>
      </trkpt>
      <trkpt lat="43.69316" lon="5.7999">
        <ele>483</ele>
        <time>2016-02-20T08:27:31.858Z</time>
      </trkpt>
      <trkpt lat="43.69315" lon="5.7998">
        <ele>483</ele>
        <time>2016-02-20T08:27:33.915Z</time>
      </trkpt>
      <trkpt lat="43.69316" lon="5.79975">
        <ele>482</ele>
        <time>2016-02-20T08:27:34.851Z</time>
      </trkpt>
      <trkpt lat="43.69317" lon="5.79965">
        <ele>482</ele>
        <time>2016-02-20T08:27:36.945Z</time>
      </trkpt>
      <trkpt lat="43.69317" lon="5.7996">
        <ele>481</ele>
        <time>2016-02-20T08:27:37.854Z</time>
      </trkpt>
      <trkpt lat="43.69316" lon="5.79948">
        <ele>481</ele>
        <time>2016-02-20T08:27:39.902Z</time>
      </trkpt>
      <trkpt lat="43.69316" lon="5.79943">
        <ele>482</ele>
        <time>2016-02-20T08:27:40.845Z</time>
      </trkpt>
      <trkpt lat="43.69314" lon="5.79933">
        <ele>481</ele>
        <time>2016-02-20T08:27:43.910Z</time>
      </trkpt>
      <trkpt lat="43.69314" lon="5.7993">
        <ele>480</ele>
        <time>2016-02-20T08:27:44.853Z</time>
      </trkpt>
      <trkpt lat="43.69313" lon="5.7992">
        <ele>482</ele>
        <time>2016-02-20T08:27:47.937Z</time>
      </trkpt>
      <trkpt lat="43.69313" lon="5.79917">
        <ele>482</ele>
        <time>2016-02-20T08:27:48.848Z</time>
      </trkpt>
      <trkpt lat="43.69312" lon="5.79906">
        <ele>484</ele>
        <time>2016-02-20T08:27:51.897Z</time>
      </trkpt>
      <trkpt lat="43.69312" lon="5.79901">
        <ele>483</ele>
        <time>2016-02-20T08:27:52.844Z</time>
      </trkpt>
      <trkpt lat="43.69312" lon="5.79892">
        <ele>484</ele>
        <time>2016-02-20T08:27:54.903Z</time>
      </trkpt>
      <trkpt lat="43.69312" lon="5.79888">
        <ele>484</ele>
        <time>2016-02-20T08:27:55.848Z</time>
      </trkpt>
      <trkpt lat="43.69311" lon="5.79875">
        <ele>484</ele>
        <time>2016-02-20T08:27:58.920Z</time>
      </trkpt>
      <trkpt lat="43.69311" lon="5.79871">
        <ele>484</ele>
        <time>2016-02-20T08:27:59.851Z</time>
      </trkpt>
      <trkpt lat="43.6931" lon="5.79863">
        <ele>484</ele>
        <time>2016-02-20T08:28:01.917Z</time>
      </trkpt>
      <trkpt lat="43.6931" lon="5.79859">
        <ele>484</ele>
        <time>2016-02-20T08:28:02.849Z</time>
      </trkpt>
      <trkpt lat="43.69309" lon="5.79851">
        <ele>484</ele>
        <time>2016-02-20T08:28:04.907Z</time>
      </trkpt>
      <trkpt lat="43.69309" lon="5.79846">
        <ele>484</ele>
        <time>2016-02-20T08:28:05.856Z</time>
      </trkpt>
      <trkpt lat="43.69307" lon="5.79835">
        <ele>484</ele>
        <time>2016-02-20T08:28:07.907Z</time>
      </trkpt>
      <trkpt lat="43.69307" lon="5.79829">
        <ele>485</ele>
        <time>2016-02-20T08:28:08.851Z</time>
      </trkpt>
      <trkpt lat="43.69307" lon="5.79817">
        <ele>485</ele>
        <time>2016-02-20T08:28:10.902Z</time>
      </trkpt>
      <trkpt lat="43.69306" lon="5.79811">
        <ele>485</ele>
        <time>2016-02-20T08:28:11.850Z</time>
      </trkpt>
      <trkpt lat="43.69305" lon="5.798">
        <ele>484</ele>
        <time>2016-02-20T08:28:13.904Z</time>
      </trkpt>
      <trkpt lat="43.69305" lon="5.79794">
        <ele>484</ele>
        <time>2016-02-20T08:28:14.846Z</time>
      </trkpt>
      <trkpt lat="43.69305" lon="5.79783">
        <ele>484</ele>
        <time>2016-02-20T08:28:16.906Z</time>
      </trkpt>
      <trkpt lat="43.69304" lon="5.79778">
        <ele>484</ele>
        <time>2016-02-20T08:28:17.851Z</time>
      </trkpt>
      <trkpt lat="43.69301" lon="5.79768">
        <ele>485</ele>
        <time>2016-02-20T08:28:19.896Z</time>
      </trkpt>
      <trkpt lat="43.693" lon="5.79763">
        <ele>485</ele>
        <time>2016-02-20T08:28:20.857Z</time>
      </trkpt>
      <trkpt lat="43.69296" lon="5.79753">
        <ele>485</ele>
        <time>2016-02-20T08:28:22.910Z</time>
      </trkpt>
      <trkpt lat="43.69295" lon="5.79749">
        <ele>485</ele>
        <time>2016-02-20T08:28:23.848Z</time>
      </trkpt>
      <trkpt lat="43.69292" lon="5.7974">
        <ele>485</ele>
        <time>2016-02-20T08:28:25.904Z</time>
      </trkpt>
      <trkpt lat="43.6929" lon="5.79735">
        <ele>486</ele>
        <time>2016-02-20T08:28:26.853Z</time>
      </trkpt>
      <trkpt lat="43.69289" lon="5.79726">
        <ele>486</ele>
        <time>2016-02-20T08:28:28.913Z</time>
      </trkpt>
      <trkpt lat="43.69287" lon="5.79721">
        <ele>486</ele>
        <time>2016-02-20T08:28:29.853Z</time>
      </trkpt>
      <trkpt lat="43.69282" lon="5.79713">
        <ele>486</ele>
        <time>2016-02-20T08:28:31.918Z</time>
      </trkpt>
      <trkpt lat="43.69279" lon="5.79709">
        <ele>486</ele>
        <time>2016-02-20T08:28:32.852Z</time>
      </trkpt>
      <trkpt lat="43.69273" lon="5.79702">
        <ele>486</ele>
        <time>2016-02-20T08:28:34.909Z</time>
      </trkpt>
      <trkpt lat="43.69271" lon="5.79697">
        <ele>486</ele>
        <time>2016-02-20T08:28:35.851Z</time>
      </trkpt>
      <trkpt lat="43.69268" lon="5.79692">
        <ele>485</ele>
        <time>2016-02-20T08:28:36.902Z</time>
      </trkpt>
      <trkpt lat="43.69266" lon="5.79685">
        <ele>485</ele>
        <time>2016-02-20T08:28:38.416Z</time>
      </trkpt>
      <trkpt lat="43.69268" lon="5.79675">
        <ele>485</ele>
        <time>2016-02-20T08:28:38.851Z</time>
      </trkpt>
      <trkpt lat="43.6927" lon="5.7967">
        <ele>485</ele>
        <time>2016-02-20T08:28:39.860Z</time>
      </trkpt>
      <trkpt lat="43.69275" lon="5.7966">
        <ele>486</ele>
        <time>2016-02-20T08:28:41.920Z</time>
      </trkpt>
      <trkpt lat="43.69277" lon="5.79655">
        <ele>486</ele>
        <time>2016-02-20T08:28:42.854Z</time>
      </trkpt>
      <trkpt lat="43.69279" lon="5.79645">
        <ele>487</ele>
        <time>2016-02-20T08:28:44.905Z</time>
      </trkpt>
      <trkpt lat="43.69279" lon="5.79641">
        <ele>486</ele>
        <time>2016-02-20T08:28:45.843Z</time>
      </trkpt>
      <trkpt lat="43.69279" lon="5.79631">
        <ele>488</ele>
        <time>2016-02-20T08:28:51.900Z</time>
      </trkpt>
      <trkpt lat="43.69279" lon="5.79628">
        <ele>488</ele>
        <time>2016-02-20T08:28:52.848Z</time>
      </trkpt>
      <trkpt lat="43.69279" lon="5.79617">
        <ele>487</ele>
        <time>2016-02-20T08:28:54.911Z</time>
      </trkpt>
      <trkpt lat="43.69278" lon="5.79611">
        <ele>487</ele>
        <time>2016-02-20T08:28:55.851Z</time>
      </trkpt>
      <trkpt lat="43.69276" lon="5.79599">
        <ele>486</ele>
        <time>2016-02-20T08:28:57.905Z</time>
      </trkpt>
      <trkpt lat="43.69275" lon="5.79593">
        <ele>486</ele>
        <time>2016-02-20T08:28:58.857Z</time>
      </trkpt>
      <trkpt lat="43.69274" lon="5.79583">
        <ele>486</ele>
        <time>2016-02-20T08:29:00.896Z</time>
      </trkpt>
      <trkpt lat="43.69274" lon="5.79577">
        <ele>485</ele>
        <time>2016-02-20T08:29:01.854Z</time>
      </trkpt>
      <trkpt lat="43.69274" lon="5.79567">
        <ele>485</ele>
        <time>2016-02-20T08:29:03.906Z</time>
      </trkpt>
      <trkpt lat="43.69272" lon="5.79562">
        <ele>485</ele>
        <time>2016-02-20T08:29:04.850Z</time>
      </trkpt>
      <trkpt lat="43.69269" lon="5.79554">
        <ele>485</ele>
        <time>2016-02-20T08:29:06.909Z</time>
      </trkpt>
      <trkpt lat="43.69268" lon="5.7955">
        <ele>485</ele>
        <time>2016-02-20T08:29:07.850Z</time>
      </trkpt>
      <trkpt lat="43.69267" lon="5.79542">
        <ele>483</ele>
        <time>2016-02-20T08:29:10.048Z</time>
      </trkpt>
      <trkpt lat="43.69267" lon="5.79538">
        <ele>483</ele>
        <time>2016-02-20T08:29:10.857Z</time>
      </trkpt>
      <trkpt lat="43.69264" lon="5.79527">
        <ele>481</ele>
        <time>2016-02-20T08:29:13.902Z</time>
      </trkpt>
      <trkpt lat="43.69263" lon="5.79523">
        <ele>481</ele>
        <time>2016-02-20T08:29:14.848Z</time>
      </trkpt>
      <trkpt lat="43.69262" lon="5.79511">
        <ele>482</ele>
        <time>2016-02-20T08:29:17.904Z</time>
      </trkpt>
      <trkpt lat="43.69262" lon="5.79507">
        <ele>482</ele>
        <time>2016-02-20T08:29:18.852Z</time>
      </trkpt>
      <trkpt lat="43.69261" lon="5.79495">
        <ele>482</ele>
        <time>2016-02-20T08:29:21.940Z</time>
      </trkpt>
      <trkpt lat="43.69259" lon="5.79491">
        <ele>482</ele>
        <time>2016-02-20T08:29:22.858Z</time>
      </trkpt>
      <trkpt lat="43.69253" lon="5.79487">
        <ele>482</ele>
        <time>2016-02-20T08:29:27.890Z</time>
      </trkpt>
      <trkpt lat="43.69251" lon="5.79486">
        <ele>482</ele>
        <time>2016-02-20T08:29:28.849Z</time>
      </trkpt>
      <trkpt lat="43.69247" lon="5.79477">
        <ele>482</ele>
        <time>2016-02-20T08:29:30.915Z</time>
      </trkpt>
      <trkpt lat="43.69246" lon="5.79472">
        <ele>481</ele>
        <time>2016-02-20T08:29:31.856Z</time>
      </trkpt>
      <trkpt lat="43.69245" lon="5.79462">
        <ele>482</ele>
        <time>2016-02-20T08:29:33.915Z</time>
      </trkpt>
      <trkpt lat="43.69245" lon="5.79457">
        <ele>482</ele>
        <time>2016-02-20T08:29:34.847Z</time>
      </trkpt>
      <trkpt lat="43.69244" lon="5.79447">
        <ele>482</ele>
        <time>2016-02-20T08:29:36.917Z</time>
      </trkpt>
      <trkpt lat="43.69243" lon="5.79442">
        <ele>482</ele>
        <time>2016-02-20T08:29:37.855Z</time>
      </trkpt>
      <trkpt lat="43.69242" lon="5.79433">
        <ele>482</ele>
        <time>2016-02-20T08:29:39.901Z</time>
      </trkpt>
      <trkpt lat="43.69241" lon="5.79428">
        <ele>482</ele>
        <time>2016-02-20T08:29:40.845Z</time>
      </trkpt>
      <trkpt lat="43.6924" lon="5.79418">
        <ele>482</ele>
        <time>2016-02-20T08:29:42.905Z</time>
      </trkpt>
      <trkpt lat="43.6924" lon="5.79413">
        <ele>483</ele>
        <time>2016-02-20T08:29:43.849Z</time>
      </trkpt>
      <trkpt lat="43.69239" lon="5.79403">
        <ele>483</ele>
        <time>2016-02-20T08:29:45.908Z</time>
      </trkpt>
      <trkpt lat="43.69239" lon="5.79398">
        <ele>483</ele>
        <time>2016-02-20T08:29:46.849Z</time>
      </trkpt>
      <trkpt lat="43.69238" lon="5.79389">
        <ele>484</ele>
        <time>2016-02-20T08:29:48.940Z</time>
      </trkpt>
      <trkpt lat="43.69238" lon="5.79384">
        <ele>484</ele>
        <time>2016-02-20T08:29:49.845Z</time>
      </trkpt>
      <trkpt lat="43.69238" lon="5.79375">
        <ele>484</ele>
        <time>2016-02-20T08:29:51.898Z</time>
      </trkpt>
      <trkpt lat="43.69238" lon="5.7937">
        <ele>484</ele>
        <time>2016-02-20T08:29:52.851Z</time>
      </trkpt>
      <trkpt lat="43.69238" lon="5.79361">
        <ele>484</ele>
        <time>2016-02-20T08:29:54.905Z</time>
      </trkpt>
      <trkpt lat="43.69238" lon="5.79357">
        <ele>484</ele>
        <time>2016-02-20T08:29:55.844Z</time>
      </trkpt>
      <trkpt lat="43.69238" lon="5.79348">
        <ele>484</ele>
        <time>2016-02-20T08:29:57.908Z</time>
      </trkpt>
      <trkpt lat="43.69238" lon="5.79344">
        <ele>484</ele>
        <time>2016-02-20T08:29:58.854Z</time>
      </trkpt>
      <trkpt lat="43.69238" lon="5.79335">
        <ele>484</ele>
        <time>2016-02-20T08:30:00.902Z</time>
      </trkpt>
      <trkpt lat="43.69239" lon="5.79331">
        <ele>484</ele>
        <time>2016-02-20T08:30:01.856Z</time>
      </trkpt>
      <trkpt lat="43.69239" lon="5.79321">
        <ele>484</ele>
        <time>2016-02-20T08:30:04.902Z</time>
      </trkpt>
      <trkpt lat="43.69239" lon="5.79316">
        <ele>485</ele>
        <time>2016-02-20T08:30:05.858Z</time>
      </trkpt>
      <trkpt lat="43.69239" lon="5.79308">
        <ele>484</ele>
        <time>2016-02-20T08:30:07.900Z</time>
      </trkpt>
      <trkpt lat="43.69239" lon="5.79304">
        <ele>484</ele>
        <time>2016-02-20T08:30:08.853Z</time>
      </trkpt>
      <trkpt lat="43.69239" lon="5.79295">
        <ele>484</ele>
        <time>2016-02-20T08:30:10.941Z</time>
      </trkpt>
      <trkpt lat="43.69239" lon="5.79291">
        <ele>485</ele>
        <time>2016-02-20T08:30:11.845Z</time>
      </trkpt>
      <trkpt lat="43.69239" lon="5.79281">
        <ele>485</ele>
        <time>2016-02-20T08:30:13.907Z</time>
      </trkpt>
      <trkpt lat="43.69239" lon="5.79277">
        <ele>485</ele>
        <time>2016-02-20T08:30:14.848Z</time>
      </trkpt>
      <trkpt lat="43.69239" lon="5.79268">
        <ele>485</ele>
        <time>2016-02-20T08:30:16.902Z</time>
      </trkpt>
      <trkpt lat="43.69239" lon="5.79263">
        <ele>485</ele>
        <time>2016-02-20T08:30:17.856Z</time>
      </trkpt>
      <trkpt lat="43.69238" lon="5.79254">
        <ele>485</ele>
        <time>2016-02-20T08:30:19.905Z</time>
      </trkpt>
      <trkpt lat="43.69237" lon="5.7925">
        <ele>485</ele>
        <time>2016-02-20T08:30:20.847Z</time>
      </trkpt>
      <trkpt lat="43.69236" lon="5.79241">
        <ele>485</ele>
        <time>2016-02-20T08:30:22.912Z</time>
      </trkpt>
      <trkpt lat="43.69236" lon="5.79237">
        <ele>484</ele>
        <time>2016-02-20T08:30:23.854Z</time>
      </trkpt>
      <trkpt lat="43.69235" lon="5.79228">
        <ele>484</ele>
        <time>2016-02-20T08:30:25.924Z</time>
      </trkpt>
      <trkpt lat="43.69234" lon="5.79223">
        <ele>484</ele>
        <time>2016-02-20T08:30:26.851Z</time>
      </trkpt>
      <trkpt lat="43.69233" lon="5.79214">
        <ele>484</ele>
        <time>2016-02-20T08:30:28.910Z</time>
      </trkpt>
      <trkpt lat="43.69233" lon="5.79208">
        <ele>483</ele>
        <time>2016-02-20T08:30:29.853Z</time>
      </trkpt>
      <trkpt lat="43.69231" lon="5.79197">
        <ele>483</ele>
        <time>2016-02-20T08:30:31.902Z</time>
      </trkpt>
      <trkpt lat="43.69231" lon="5.79192">
        <ele>483</ele>
        <time>2016-02-20T08:30:32.852Z</time>
      </trkpt>
      <trkpt lat="43.6923" lon="5.79183">
        <ele>483</ele>
        <time>2016-02-20T08:30:34.901Z</time>
      </trkpt>
      <trkpt lat="43.69229" lon="5.79178">
        <ele>483</ele>
        <time>2016-02-20T08:30:35.849Z</time>
      </trkpt>
      <trkpt lat="43.69228" lon="5.79169">
        <ele>483</ele>
        <time>2016-02-20T08:30:37.957Z</time>
      </trkpt>
      <trkpt lat="43.69228" lon="5.79164">
        <ele>483</ele>
        <time>2016-02-20T08:30:38.846Z</time>
      </trkpt>
      <trkpt lat="43.69228" lon="5.79154">
        <ele>483</ele>
        <time>2016-02-20T08:30:40.908Z</time>
      </trkpt>
      <trkpt lat="43.69228" lon="5.79149">
        <ele>483</ele>
        <time>2016-02-20T08:30:41.857Z</time>
      </trkpt>
      <trkpt lat="43.69229" lon="5.7914">
        <ele>482</ele>
        <time>2016-02-20T08:30:43.910Z</time>
      </trkpt>
      <trkpt lat="43.6923" lon="5.79135">
        <ele>482</ele>
        <time>2016-02-20T08:30:44.854Z</time>
      </trkpt>
      <trkpt lat="43.69231" lon="5.79126">
        <ele>482</ele>
        <time>2016-02-20T08:30:46.905Z</time>
      </trkpt>
      <trkpt lat="43.69232" lon="5.79123">
        <ele>482</ele>
        <time>2016-02-20T08:30:47.851Z</time>
      </trkpt>
      <trkpt lat="43.69232" lon="5.79115">
        <ele>482</ele>
        <time>2016-02-20T08:30:49.907Z</time>
      </trkpt>
      <trkpt lat="43.69233" lon="5.7911">
        <ele>482</ele>
        <time>2016-02-20T08:30:50.850Z</time>
      </trkpt>
      <trkpt lat="43.69233" lon="5.79101">
        <ele>481</ele>
        <time>2016-02-20T08:30:52.904Z</time>
      </trkpt>
      <trkpt lat="43.69234" lon="5.79096">
        <ele>481</ele>
        <time>2016-02-20T08:30:53.845Z</time>
      </trkpt>
      <trkpt lat="43.69234" lon="5.79085">
        <ele>481</ele>
        <time>2016-02-20T08:30:55.902Z</time>
      </trkpt>
      <trkpt lat="43.69234" lon="5.79078">
        <ele>480</ele>
        <time>2016-02-20T08:30:56.850Z</time>
      </trkpt>
      <trkpt lat="43.69235" lon="5.79072">
        <ele>480</ele>
        <time>2016-02-20T08:30:57.905Z</time>
      </trkpt>
      <trkpt lat="43.69235" lon="5.79064">
        <ele>480</ele>
        <time>2016-02-20T08:30:58.849Z</time>
      </trkpt>
      <trkpt lat="43.69234" lon="5.79057">
        <ele>479</ele>
        <time>2016-02-20T08:30:59.958Z</time>
      </trkpt>
      <trkpt lat="43.69234" lon="5.79049">
        <ele>479</ele>
        <time>2016-02-20T08:31:00.858Z</time>
      </trkpt>
      <trkpt lat="43.69234" lon="5.79041">
        <ele>478</ele>
        <time>2016-02-20T08:31:02.459Z</time>
      </trkpt>
      <trkpt lat="43.69234" lon="5.79033">
        <ele>477</ele>
        <time>2016-02-20T08:31:02.850Z</time>
      </trkpt>
      <trkpt lat="43.69234" lon="5.79025">
        <ele>477</ele>
        <time>2016-02-20T08:31:03.915Z</time>
      </trkpt>
      <trkpt lat="43.69234" lon="5.79015">
        <ele>476</ele>
        <time>2016-02-20T08:31:04.857Z</time>
      </trkpt>
      <trkpt lat="43.69234" lon="5.79007">
        <ele>476</ele>
        <time>2016-02-20T08:31:05.899Z</time>
      </trkpt>
      <trkpt lat="43.69233" lon="5.78998">
        <ele>475</ele>
        <time>2016-02-20T08:31:06.847Z</time>
      </trkpt>
      <trkpt lat="43.69233" lon="5.78989">
        <ele>474</ele>
        <time>2016-02-20T08:31:07.903Z</time>
      </trkpt>
      <trkpt lat="43.69233" lon="5.78979">
        <ele>475</ele>
        <time>2016-02-20T08:31:08.851Z</time>
      </trkpt>
      <trkpt lat="43.69232" lon="5.78969">
        <ele>475</ele>
        <time>2016-02-20T08:31:09.853Z</time>
      </trkpt>
      <trkpt lat="43.69231" lon="5.78961">
        <ele>474</ele>
        <time>2016-02-20T08:31:10.856Z</time>
      </trkpt>
      <trkpt lat="43.69231" lon="5.78951">
        <ele>474</ele>
        <time>2016-02-20T08:31:11.851Z</time>
      </trkpt>
      <trkpt lat="43.69232" lon="5.78942">
        <ele>473</ele>
        <time>2016-02-20T08:31:12.859Z</time>
      </trkpt>
      <trkpt lat="43.69232" lon="5.78933">
        <ele>473</ele>
        <time>2016-02-20T08:31:13.910Z</time>
      </trkpt>
      <trkpt lat="43.69233" lon="5.78925">
        <ele>473</ele>
        <time>2016-02-20T08:31:14.855Z</time>
      </trkpt>
      <trkpt lat="43.69234" lon="5.78917">
        <ele>474</ele>
        <time>2016-02-20T08:31:15.904Z</time>
      </trkpt>
      <trkpt lat="43.69235" lon="5.78911">
        <ele>474</ele>
        <time>2016-02-20T08:31:16.847Z</time>
      </trkpt>
      <trkpt lat="43.69237" lon="5.78904">
        <ele>474</ele>
        <time>2016-02-20T08:31:17.911Z</time>
      </trkpt>
      <trkpt lat="43.69237" lon="5.78898">
        <ele>475</ele>
        <time>2016-02-20T08:31:18.856Z</time>
      </trkpt>
      <trkpt lat="43.69239" lon="5.78892">
        <ele>475</ele>
        <time>2016-02-20T08:31:19.903Z</time>
      </trkpt>
      <trkpt lat="43.6924" lon="5.78886">
        <ele>475</ele>
        <time>2016-02-20T08:31:20.850Z</time>
      </trkpt>
      <trkpt lat="43.69242" lon="5.78875">
        <ele>475</ele>
        <time>2016-02-20T08:31:22.893Z</time>
      </trkpt>
      <trkpt lat="43.69243" lon="5.7887">
        <ele>476</ele>
        <time>2016-02-20T08:31:23.851Z</time>
      </trkpt>
      <trkpt lat="43.69243" lon="5.78859">
        <ele>475</ele>
        <time>2016-02-20T08:31:25.888Z</time>
      </trkpt>
      <trkpt lat="43.69243" lon="5.78853">
        <ele>475</ele>
        <time>2016-02-20T08:31:26.850Z</time>
      </trkpt>
      <trkpt lat="43.69245" lon="5.78841">
        <ele>475</ele>
        <time>2016-02-20T08:31:28.912Z</time>
      </trkpt>
      <trkpt lat="43.69245" lon="5.78835">
        <ele>475</ele>
        <time>2016-02-20T08:31:29.857Z</time>
      </trkpt>
      <trkpt lat="43.69246" lon="5.78829">
        <ele>475</ele>
        <time>2016-02-20T08:31:30.908Z</time>
      </trkpt>
      <trkpt lat="43.69247" lon="5.78822">
        <ele>475</ele>
        <time>2016-02-20T08:31:31.855Z</time>
      </trkpt>
      <trkpt lat="43.69248" lon="5.78815">
        <ele>475</ele>
        <time>2016-02-20T08:31:32.935Z</time>
      </trkpt>
      <trkpt lat="43.69249" lon="5.78808">
        <ele>474</ele>
        <time>2016-02-20T08:31:33.858Z</time>
      </trkpt>
      <trkpt lat="43.69249" lon="5.78801">
        <ele>475</ele>
        <time>2016-02-20T08:31:34.923Z</time>
      </trkpt>
      <trkpt lat="43.69249" lon="5.78793">
        <ele>475</ele>
        <time>2016-02-20T08:31:35.827Z</time>
      </trkpt>
      <trkpt lat="43.69249" lon="5.78786">
        <ele>475</ele>
        <time>2016-02-20T08:31:36.902Z</time>
      </trkpt>
      <trkpt lat="43.69249" lon="5.7878">
        <ele>475</ele>
        <time>2016-02-20T08:31:37.846Z</time>
      </trkpt>
      <trkpt lat="43.69252" lon="5.78769">
        <ele>473</ele>
        <time>2016-02-20T08:31:46.903Z</time>
      </trkpt>
      <trkpt lat="43.69253" lon="5.78768">
        <ele>474</ele>
        <time>2016-02-20T08:31:47.851Z</time>
      </trkpt>
      <trkpt lat="43.69247" lon="5.7876">
        <ele>477</ele>
        <time>2016-02-20T08:35:37.902Z</time>
      </trkpt>
      <trkpt lat="43.69247" lon="5.78757">
        <ele>477</ele>
        <time>2016-02-20T08:35:38.847Z</time>
      </trkpt>
      <trkpt lat="43.69246" lon="5.78746">
        <ele>479</ele>
        <time>2016-02-20T08:35:42.915Z</time>
      </trkpt>
      <trkpt lat="43.69246" lon="5.78743">
        <ele>479</ele>
        <time>2016-02-20T08:35:43.851Z</time>
      </trkpt>
      <trkpt lat="43.69245" lon="5.78732">
        <ele>479</ele>
        <time>2016-02-20T08:35:47.900Z</time>
      </trkpt>
      <trkpt lat="43.69245" lon="5.78729">
        <ele>479</ele>
        <time>2016-02-20T08:35:48.847Z</time>
      </trkpt>
      <trkpt lat="43.69244" lon="5.7872">
        <ele>479</ele>
        <time>2016-02-20T08:35:51.913Z</time>
      </trkpt>
      <trkpt lat="43.69244" lon="5.78716">
        <ele>479</ele>
        <time>2016-02-20T08:35:52.859Z</time>
      </trkpt>
      <trkpt lat="43.69244" lon="5.78704">
        <ele>478</ele>
        <time>2016-02-20T08:35:55.902Z</time>
      </trkpt>
      <trkpt lat="43.69244" lon="5.787">
        <ele>478</ele>
        <time>2016-02-20T08:35:56.850Z</time>
      </trkpt>
      <trkpt lat="43.69243" lon="5.78691">
        <ele>478</ele>
        <time>2016-02-20T08:35:58.909Z</time>
      </trkpt>
      <trkpt lat="43.69243" lon="5.78686">
        <ele>477</ele>
        <time>2016-02-20T08:35:59.856Z</time>
      </trkpt>
      <trkpt lat="43.69242" lon="5.78675">
        <ele>476</ele>
        <time>2016-02-20T08:36:01.901Z</time>
      </trkpt>
      <trkpt lat="43.69241" lon="5.78665">
        <ele>475</ele>
        <time>2016-02-20T08:36:02.854Z</time>
      </trkpt>
      <trkpt lat="43.6924" lon="5.78657">
        <ele>475</ele>
        <time>2016-02-20T08:36:03.851Z</time>
      </trkpt>
      <trkpt lat="43.69239" lon="5.78649">
        <ele>474</ele>
        <time>2016-02-20T08:36:04.860Z</time>
      </trkpt>
      <trkpt lat="43.69239" lon="5.7864">
        <ele>474</ele>
        <time>2016-02-20T08:36:06.468Z</time>
      </trkpt>
      <trkpt lat="43.69237" lon="5.78632">
        <ele>473</ele>
        <time>2016-02-20T08:36:06.854Z</time>
      </trkpt>
      <trkpt lat="43.69235" lon="5.78623">
        <ele>473</ele>
        <time>2016-02-20T08:36:07.910Z</time>
      </trkpt>
      <trkpt lat="43.69233" lon="5.78615">
        <ele>473</ele>
        <time>2016-02-20T08:36:08.851Z</time>
      </trkpt>
      <trkpt lat="43.69231" lon="5.78607">
        <ele>473</ele>
        <time>2016-02-20T08:36:09.929Z</time>
      </trkpt>
      <trkpt lat="43.69229" lon="5.78598">
        <ele>473</ele>
        <time>2016-02-20T08:36:10.848Z</time>
      </trkpt>
      <trkpt lat="43.69226" lon="5.78591">
        <ele>473</ele>
        <time>2016-02-20T08:36:11.911Z</time>
      </trkpt>
      <trkpt lat="43.69223" lon="5.78584">
        <ele>474</ele>
        <time>2016-02-20T08:36:12.856Z</time>
      </trkpt>
      <trkpt lat="43.69221" lon="5.78576">
        <ele>473</ele>
        <time>2016-02-20T08:36:13.912Z</time>
      </trkpt>
      <trkpt lat="43.69219" lon="5.7857">
        <ele>474</ele>
        <time>2016-02-20T08:36:14.848Z</time>
      </trkpt>
      <trkpt lat="43.69216" lon="5.78564">
        <ele>474</ele>
        <time>2016-02-20T08:36:15.944Z</time>
      </trkpt>
      <trkpt lat="43.69214" lon="5.78559">
        <ele>474</ele>
        <time>2016-02-20T08:36:16.848Z</time>
      </trkpt>
      <trkpt lat="43.69209" lon="5.78549">
        <ele>475</ele>
        <time>2016-02-20T08:36:18.907Z</time>
      </trkpt>
      <trkpt lat="43.69208" lon="5.78545">
        <ele>475</ele>
        <time>2016-02-20T08:36:19.851Z</time>
      </trkpt>
      <trkpt lat="43.69205" lon="5.78535">
        <ele>475</ele>
        <time>2016-02-20T08:36:21.919Z</time>
      </trkpt>
      <trkpt lat="43.69205" lon="5.7853">
        <ele>476</ele>
        <time>2016-02-20T08:36:22.854Z</time>
      </trkpt>
      <trkpt lat="43.69204" lon="5.78521">
        <ele>476</ele>
        <time>2016-02-20T08:36:24.904Z</time>
      </trkpt>
      <trkpt lat="43.69204" lon="5.78517">
        <ele>476</ele>
        <time>2016-02-20T08:36:25.857Z</time>
      </trkpt>
      <trkpt lat="43.69204" lon="5.78509">
        <ele>476</ele>
        <time>2016-02-20T08:36:27.926Z</time>
      </trkpt>
      <trkpt lat="43.69205" lon="5.78505">
        <ele>477</ele>
        <time>2016-02-20T08:36:28.835Z</time>
      </trkpt>
      <trkpt lat="43.69206" lon="5.78496">
        <ele>477</ele>
        <time>2016-02-20T08:36:30.910Z</time>
      </trkpt>
      <trkpt lat="43.69207" lon="5.78491">
        <ele>477</ele>
        <time>2016-02-20T08:36:31.854Z</time>
      </trkpt>
      <trkpt lat="43.69208" lon="5.78482">
        <ele>477</ele>
        <time>2016-02-20T08:36:33.915Z</time>
      </trkpt>
      <trkpt lat="43.6921" lon="5.78478">
        <ele>478</ele>
        <time>2016-02-20T08:36:34.856Z</time>
      </trkpt>
      <trkpt lat="43.69213" lon="5.7847">
        <ele>478</ele>
        <time>2016-02-20T08:36:36.953Z</time>
      </trkpt>
      <trkpt lat="43.69215" lon="5.78465">
        <ele>478</ele>
        <time>2016-02-20T08:36:37.859Z</time>
      </trkpt>
      <trkpt lat="43.69218" lon="5.78457">
        <ele>479</ele>
        <time>2016-02-20T08:36:39.853Z</time>
      </trkpt>
      <trkpt lat="43.69221" lon="5.78452">
        <ele>479</ele>
        <time>2016-02-20T08:36:40.845Z</time>
      </trkpt>
      <trkpt lat="43.69225" lon="5.78443">
        <ele>479</ele>
        <time>2016-02-20T08:36:42.900Z</time>
      </trkpt>
      <trkpt lat="43.69227" lon="5.78439">
        <ele>479</ele>
        <time>2016-02-20T08:36:43.855Z</time>
      </trkpt>
      <trkpt lat="43.69231" lon="5.7843">
        <ele>479</ele>
        <time>2016-02-20T08:36:45.913Z</time>
      </trkpt>
      <trkpt lat="43.69232" lon="5.78426">
        <ele>479</ele>
        <time>2016-02-20T08:36:46.854Z</time>
      </trkpt>
      <trkpt lat="43.69236" lon="5.78416">
        <ele>479</ele>
        <time>2016-02-20T08:36:48.909Z</time>
      </trkpt>
      <trkpt lat="43.69237" lon="5.78412">
        <ele>478</ele>
        <time>2016-02-20T08:36:49.858Z</time>
      </trkpt>
      <trkpt lat="43.6924" lon="5.78403">
        <ele>479</ele>
        <time>2016-02-20T08:36:51.854Z</time>
      </trkpt>
      <trkpt lat="43.69241" lon="5.78398">
        <ele>479</ele>
        <time>2016-02-20T08:36:52.853Z</time>
      </trkpt>
      <trkpt lat="43.69244" lon="5.78389">
        <ele>479</ele>
        <time>2016-02-20T08:36:54.906Z</time>
      </trkpt>
      <trkpt lat="43.69246" lon="5.78384">
        <ele>479</ele>
        <time>2016-02-20T08:36:55.854Z</time>
      </trkpt>
      <trkpt lat="43.69249" lon="5.78375">
        <ele>479</ele>
        <time>2016-02-20T08:36:57.908Z</time>
      </trkpt>
      <trkpt lat="43.6925" lon="5.7837">
        <ele>479</ele>
        <time>2016-02-20T08:36:58.854Z</time>
      </trkpt>
      <trkpt lat="43.69253" lon="5.7836">
        <ele>479</ele>
        <time>2016-02-20T08:37:00.909Z</time>
      </trkpt>
      <trkpt lat="43.69255" lon="5.78355">
        <ele>478</ele>
        <time>2016-02-20T08:37:01.852Z</time>
      </trkpt>
      <trkpt lat="43.69258" lon="5.78346">
        <ele>478</ele>
        <time>2016-02-20T08:37:03.858Z</time>
      </trkpt>
      <trkpt lat="43.6926" lon="5.78341">
        <ele>478</ele>
        <time>2016-02-20T08:37:04.868Z</time>
      </trkpt>
      <trkpt lat="43.69262" lon="5.78331">
        <ele>478</ele>
        <time>2016-02-20T08:37:06.905Z</time>
      </trkpt>
      <trkpt lat="43.69262" lon="5.78326">
        <ele>478</ele>
        <time>2016-02-20T08:37:07.847Z</time>
      </trkpt>
      <trkpt lat="43.69263" lon="5.78316">
        <ele>477</ele>
        <time>2016-02-20T08:37:09.910Z</time>
      </trkpt>
      <trkpt lat="43.69264" lon="5.78311">
        <ele>477</ele>
        <time>2016-02-20T08:37:10.848Z</time>
      </trkpt>
      <trkpt lat="43.69263" lon="5.783">
        <ele>477</ele>
        <time>2016-02-20T08:37:12.899Z</time>
      </trkpt>
      <trkpt lat="43.69262" lon="5.78295">
        <ele>477</ele>
        <time>2016-02-20T08:37:13.861Z</time>
      </trkpt>
      <trkpt lat="43.6926" lon="5.78289">
        <ele>477</ele>
        <time>2016-02-20T08:37:14.902Z</time>
      </trkpt>
      <trkpt lat="43.69255" lon="5.78282">
        <ele>477</ele>
        <time>2016-02-20T08:37:15.832Z</time>
      </trkpt>
      <trkpt lat="43.69253" lon="5.78276">
        <ele>476</ele>
        <time>2016-02-20T08:37:16.903Z</time>
      </trkpt>
      <trkpt lat="43.69251" lon="5.7827">
        <ele>476</ele>
        <time>2016-02-20T08:37:17.854Z</time>
      </trkpt>
      <trkpt lat="43.69249" lon="5.78264">
        <ele>476</ele>
        <time>2016-02-20T08:37:18.909Z</time>
      </trkpt>
      <trkpt lat="43.69246" lon="5.78258">
        <ele>476</ele>
        <time>2016-02-20T08:37:19.860Z</time>
      </trkpt>
      <trkpt lat="43.69244" lon="5.78251">
        <ele>476</ele>
        <time>2016-02-20T08:37:20.910Z</time>
      </trkpt>
      <trkpt lat="43.69242" lon="5.78244">
        <ele>475</ele>
        <time>2016-02-20T08:37:21.859Z</time>
      </trkpt>
      <trkpt lat="43.6924" lon="5.78237">
        <ele>475</ele>
        <time>2016-02-20T08:37:22.905Z</time>
      </trkpt>
      <trkpt lat="43.69238" lon="5.78231">
        <ele>475</ele>
        <time>2016-02-20T08:37:23.854Z</time>
      </trkpt>
      <trkpt lat="43.69235" lon="5.78224">
        <ele>474</ele>
        <time>2016-02-20T08:37:24.900Z</time>
      </trkpt>
      <trkpt lat="43.69231" lon="5.78216">
        <ele>474</ele>
        <time>2016-02-20T08:37:25.855Z</time>
      </trkpt>
      <trkpt lat="43.69227" lon="5.78211">
        <ele>474</ele>
        <time>2016-02-20T08:37:26.856Z</time>
      </trkpt>
      <trkpt lat="43.69223" lon="5.78205">
        <ele>473</ele>
        <time>2016-02-20T08:37:27.853Z</time>
      </trkpt>
      <trkpt lat="43.69218" lon="5.78199">
        <ele>473</ele>
        <time>2016-02-20T08:37:28.912Z</time>
      </trkpt>
      <trkpt lat="43.69214" lon="5.78193">
        <ele>472</ele>
        <time>2016-02-20T08:37:29.854Z</time>
      </trkpt>
      <trkpt lat="43.69208" lon="5.78184">
        <ele>472</ele>
        <time>2016-02-20T08:37:31.909Z</time>
      </trkpt>
      <trkpt lat="43.69206" lon="5.7818">
        <ele>472</ele>
        <time>2016-02-20T08:37:32.855Z</time>
      </trkpt>
      <trkpt lat="43.69203" lon="5.7817">
        <ele>472</ele>
        <time>2016-02-20T08:37:35.922Z</time>
      </trkpt>
      <trkpt lat="43.69202" lon="5.78165">
        <ele>472</ele>
        <time>2016-02-20T08:37:36.859Z</time>
      </trkpt>
      <trkpt lat="43.69202" lon="5.78154">
        <ele>472</ele>
        <time>2016-02-20T08:37:38.973Z</time>
      </trkpt>
      <trkpt lat="43.69202" lon="5.78149">
        <ele>473</ele>
        <time>2016-02-20T08:37:39.846Z</time>
      </trkpt>
      <trkpt lat="43.69204" lon="5.78138">
        <ele>473</ele>
        <time>2016-02-20T08:37:41.907Z</time>
      </trkpt>
      <trkpt lat="43.69205" lon="5.78134">
        <ele>473</ele>
        <time>2016-02-20T08:37:42.849Z</time>
      </trkpt>
      <trkpt lat="43.69207" lon="5.78125">
        <ele>473</ele>
        <time>2016-02-20T08:37:44.906Z</time>
      </trkpt>
      <trkpt lat="43.69207" lon="5.78122">
        <ele>473</ele>
        <time>2016-02-20T08:37:45.849Z</time>
      </trkpt>
      <trkpt lat="43.69205" lon="5.78113">
        <ele>474</ele>
        <time>2016-02-20T08:37:47.911Z</time>
      </trkpt>
      <trkpt lat="43.69204" lon="5.7811">
        <ele>475</ele>
        <time>2016-02-20T08:37:48.850Z</time>
      </trkpt>
      <trkpt lat="43.692" lon="5.78102">
        <ele>475</ele>
        <time>2016-02-20T08:37:50.911Z</time>
      </trkpt>
      <trkpt lat="43.69199" lon="5.78098">
        <ele>475</ele>
        <time>2016-02-20T08:37:51.854Z</time>
      </trkpt>
      <trkpt lat="43.69197" lon="5.7809">
        <ele>475</ele>
        <time>2016-02-20T08:37:53.930Z</time>
      </trkpt>
      <trkpt lat="43.69197" lon="5.78085">
        <ele>475</ele>
        <time>2016-02-20T08:37:54.855Z</time>
      </trkpt>
      <trkpt lat="43.69201" lon="5.78075">
        <ele>475</ele>
        <time>2016-02-20T08:37:56.901Z</time>
      </trkpt>
      <trkpt lat="43.69203" lon="5.7807">
        <ele>475</ele>
        <time>2016-02-20T08:37:57.851Z</time>
      </trkpt>
      <trkpt lat="43.69209" lon="5.78061">
        <ele>474</ele>
        <time>2016-02-20T08:37:59.937Z</time>
      </trkpt>
      <trkpt lat="43.69213" lon="5.78056">
        <ele>473</ele>
        <time>2016-02-20T08:38:00.844Z</time>
      </trkpt>
      <trkpt lat="43.69218" lon="5.78052">
        <ele>473</ele>
        <time>2016-02-20T08:38:01.854Z</time>
      </trkpt>
      <trkpt lat="43.69222" lon="5.78047">
        <ele>473</ele>
        <time>2016-02-20T08:38:02.855Z</time>
      </trkpt>
      <trkpt lat="43.69227" lon="5.78042">
        <ele>472</ele>
        <time>2016-02-20T08:38:03.912Z</time>
      </trkpt>
      <trkpt lat="43.6923" lon="5.78037">
        <ele>471</ele>
        <time>2016-02-20T08:38:04.848Z</time>
      </trkpt>
      <trkpt lat="43.69236" lon="5.7803">
        <ele>470</ele>
        <time>2016-02-20T08:38:05.853Z</time>
      </trkpt>
      <trkpt lat="43.6924" lon="5.78023">
        <ele>470</ele>
        <time>2016-02-20T08:38:06.860Z</time>
      </trkpt>
      <trkpt lat="43.69244" lon="5.78015">
        <ele>469</ele>
        <time>2016-02-20T08:38:07.861Z</time>
      </trkpt>
      <trkpt lat="43.69249" lon="5.78005">
        <ele>468</ele>
        <time>2016-02-20T08:38:08.852Z</time>
      </trkpt>
      <trkpt lat="43.69252" lon="5.77996">
        <ele>467</ele>
        <time>2016-02-20T08:38:09.925Z</time>
      </trkpt>
      <trkpt lat="43.69257" lon="5.77984">
        <ele>466</ele>
        <time>2016-02-20T08:38:10.869Z</time>
      </trkpt>
      <trkpt lat="43.6926" lon="5.77974">
        <ele>465</ele>
        <time>2016-02-20T08:38:11.863Z</time>
      </trkpt>
      <trkpt lat="43.69264" lon="5.77963">
        <ele>464</ele>
        <time>2016-02-20T08:38:12.833Z</time>
      </trkpt>
      <trkpt lat="43.69264" lon="5.77963">
        <ele>464</ele>
        <time>2016-02-20T08:38:12.866Z</time>
      </trkpt>
      <trkpt lat="43.69268" lon="5.7795">
        <ele>464</ele>
        <time>2016-02-20T08:38:13.853Z</time>
      </trkpt>
      <trkpt lat="43.69268" lon="5.7795">
        <ele>464</ele>
        <time>2016-02-20T08:38:13.913Z</time>
      </trkpt>
      <trkpt lat="43.69272" lon="5.77939">
        <ele>463</ele>
        <time>2016-02-20T08:38:14.850Z</time>
      </trkpt>
      <trkpt lat="43.69272" lon="5.77939">
        <ele>463</ele>
        <time>2016-02-20T08:38:14.953Z</time>
      </trkpt>
      <trkpt lat="43.69275" lon="5.77927">
        <ele>462</ele>
        <time>2016-02-20T08:38:15.835Z</time>
      </trkpt>
      <trkpt lat="43.69275" lon="5.77927">
        <ele>462</ele>
        <time>2016-02-20T08:38:15.860Z</time>
      </trkpt>
      <trkpt lat="43.69278" lon="5.77914">
        <ele>462</ele>
        <time>2016-02-20T08:38:16.850Z</time>
      </trkpt>
      <trkpt lat="43.6928" lon="5.77904">
        <ele>462</ele>
        <time>2016-02-20T08:38:17.862Z</time>
      </trkpt>
      <trkpt lat="43.69284" lon="5.77892">
        <ele>461</ele>
        <time>2016-02-20T08:38:18.854Z</time>
      </trkpt>
      <trkpt lat="43.69287" lon="5.77882">
        <ele>460</ele>
        <time>2016-02-20T08:38:19.929Z</time>
      </trkpt>
      <trkpt lat="43.69286" lon="5.77873">
        <ele>460</ele>
        <time>2016-02-20T08:38:20.853Z</time>
      </trkpt>
      <trkpt lat="43.69284" lon="5.77863">
        <ele>460</ele>
        <time>2016-02-20T08:38:21.956Z</time>
      </trkpt>
      <trkpt lat="43.69281" lon="5.77855">
        <ele>460</ele>
        <time>2016-02-20T08:38:22.857Z</time>
      </trkpt>
      <trkpt lat="43.69278" lon="5.77846">
        <ele>459</ele>
        <time>2016-02-20T08:38:23.860Z</time>
      </trkpt>
      <trkpt lat="43.69274" lon="5.77836">
        <ele>458</ele>
        <time>2016-02-20T08:38:24.857Z</time>
      </trkpt>
      <trkpt lat="43.6927" lon="5.77827">
        <ele>458</ele>
        <time>2016-02-20T08:38:25.926Z</time>
      </trkpt>
      <trkpt lat="43.69266" lon="5.77817">
        <ele>457</ele>
        <time>2016-02-20T08:38:26.851Z</time>
      </trkpt>
      <trkpt lat="43.69262" lon="5.77807">
        <ele>456</ele>
        <time>2016-02-20T08:38:27.930Z</time>
      </trkpt>
      <trkpt lat="43.69258" lon="5.77796">
        <ele>456</ele>
        <time>2016-02-20T08:38:28.855Z</time>
      </trkpt>
      <trkpt lat="43.69255" lon="5.77785">
        <ele>455</ele>
        <time>2016-02-20T08:38:29.920Z</time>
      </trkpt>
      <trkpt lat="43.69253" lon="5.77776">
        <ele>456</ele>
        <time>2016-02-20T08:38:30.852Z</time>
      </trkpt>
      <trkpt lat="43.6925" lon="5.77767">
        <ele>456</ele>
        <time>2016-02-20T08:38:31.927Z</time>
      </trkpt>
      <trkpt lat="43.69249" lon="5.77758">
        <ele>457</ele>
        <time>2016-02-20T08:38:32.855Z</time>
      </trkpt>
      <trkpt lat="43.69248" lon="5.77752">
        <ele>458</ele>
        <time>2016-02-20T08:38:34.160Z</time>
      </trkpt>
      <trkpt lat="43.69247" lon="5.77746">
        <ele>458</ele>
        <time>2016-02-20T08:38:34.848Z</time>
      </trkpt>
      <trkpt lat="43.69247" lon="5.77736">
        <ele>459</ele>
        <time>2016-02-20T08:38:36.927Z</time>
      </trkpt>
      <trkpt lat="43.69246" lon="5.7773">
        <ele>459</ele>
        <time>2016-02-20T08:38:37.852Z</time>
      </trkpt>
      <trkpt lat="43.69244" lon="5.77721">
        <ele>460</ele>
        <time>2016-02-20T08:38:39.929Z</time>
      </trkpt>
      <trkpt lat="43.69242" lon="5.77717">
        <ele>460</ele>
        <time>2016-02-20T08:38:40.853Z</time>
      </trkpt>
      <trkpt lat="43.69241" lon="5.77707">
        <ele>460</ele>
        <time>2016-02-20T08:38:42.930Z</time>
      </trkpt>
      <trkpt lat="43.69241" lon="5.77702">
        <ele>461</ele>
        <time>2016-02-20T08:38:43.854Z</time>
      </trkpt>
      <trkpt lat="43.69241" lon="5.77694">
        <ele>461</ele>
        <time>2016-02-20T08:38:45.937Z</time>
      </trkpt>
      <trkpt lat="43.69241" lon="5.77689">
        <ele>460</ele>
        <time>2016-02-20T08:38:46.857Z</time>
      </trkpt>
      <trkpt lat="43.69238" lon="5.7768">
        <ele>460</ele>
        <time>2016-02-20T08:38:48.943Z</time>
      </trkpt>
      <trkpt lat="43.69237" lon="5.77674">
        <ele>459</ele>
        <time>2016-02-20T08:38:49.856Z</time>
      </trkpt>
      <trkpt lat="43.69235" lon="5.77668">
        <ele>459</ele>
        <time>2016-02-20T08:38:50.938Z</time>
      </trkpt>
      <trkpt lat="43.69233" lon="5.77662">
        <ele>459</ele>
        <time>2016-02-20T08:38:51.851Z</time>
      </trkpt>
      <trkpt lat="43.69229" lon="5.77651">
        <ele>458</ele>
        <time>2016-02-20T08:38:53.920Z</time>
      </trkpt>
      <trkpt lat="43.69228" lon="5.77645">
        <ele>458</ele>
        <time>2016-02-20T08:38:54.855Z</time>
      </trkpt>
      <trkpt lat="43.69226" lon="5.7764">
        <ele>458</ele>
        <time>2016-02-20T08:38:55.862Z</time>
      </trkpt>
      <trkpt lat="43.69224" lon="5.77634">
        <ele>458</ele>
        <time>2016-02-20T08:38:56.830Z</time>
      </trkpt>
      <trkpt lat="43.69222" lon="5.77627">
        <ele>458</ele>
        <time>2016-02-20T08:38:57.936Z</time>
      </trkpt>
      <trkpt lat="43.6922" lon="5.7762">
        <ele>458</ele>
        <time>2016-02-20T08:38:58.859Z</time>
      </trkpt>
      <trkpt lat="43.69219" lon="5.77609">
        <ele>458</ele>
        <time>2016-02-20T08:39:00.930Z</time>
      </trkpt>
      <trkpt lat="43.69218" lon="5.77603">
        <ele>458</ele>
        <time>2016-02-20T08:39:01.857Z</time>
      </trkpt>
      <trkpt lat="43.69217" lon="5.77593">
        <ele>459</ele>
        <time>2016-02-20T08:39:03.929Z</time>
      </trkpt>
      <trkpt lat="43.69216" lon="5.77589">
        <ele>459</ele>
        <time>2016-02-20T08:39:04.856Z</time>
      </trkpt>
      <trkpt lat="43.69214" lon="5.77578">
        <ele>459</ele>
        <time>2016-02-20T08:39:06.932Z</time>
      </trkpt>
      <trkpt lat="43.69214" lon="5.77573">
        <ele>459</ele>
        <time>2016-02-20T08:39:07.859Z</time>
      </trkpt>
      <trkpt lat="43.69214" lon="5.77563">
        <ele>459</ele>
        <time>2016-02-20T08:39:09.907Z</time>
      </trkpt>
      <trkpt lat="43.69214" lon="5.77559">
        <ele>460</ele>
        <time>2016-02-20T08:39:10.856Z</time>
      </trkpt>
      <trkpt lat="43.69213" lon="5.7755">
        <ele>460</ele>
        <time>2016-02-20T08:39:12.938Z</time>
      </trkpt>
      <trkpt lat="43.69212" lon="5.77546">
        <ele>460</ele>
        <time>2016-02-20T08:39:13.860Z</time>
      </trkpt>
      <trkpt lat="43.6921" lon="5.77537">
        <ele>460</ele>
        <time>2016-02-20T08:39:15.924Z</time>
      </trkpt>
      <trkpt lat="43.69208" lon="5.77533">
        <ele>460</ele>
        <time>2016-02-20T08:39:16.849Z</time>
      </trkpt>
      <trkpt lat="43.69203" lon="5.77522">
        <ele>460</ele>
        <time>2016-02-20T08:39:18.940Z</time>
      </trkpt>
      <trkpt lat="43.69201" lon="5.77517">
        <ele>459</ele>
        <time>2016-02-20T08:39:19.832Z</time>
      </trkpt>
      <trkpt lat="43.69199" lon="5.77508">
        <ele>459</ele>
        <time>2016-02-20T08:39:20.925Z</time>
      </trkpt>
      <trkpt lat="43.692" lon="5.77501">
        <ele>459</ele>
        <time>2016-02-20T08:39:21.858Z</time>
      </trkpt>
      <trkpt lat="43.69201" lon="5.77493">
        <ele>458</ele>
        <time>2016-02-20T08:39:22.863Z</time>
      </trkpt>
      <trkpt lat="43.69202" lon="5.77486">
        <ele>458</ele>
        <time>2016-02-20T08:39:23.849Z</time>
      </trkpt>
      <trkpt lat="43.69204" lon="5.7748">
        <ele>459</ele>
        <time>2016-02-20T08:39:24.932Z</time>
      </trkpt>
      <trkpt lat="43.69206" lon="5.77472">
        <ele>459</ele>
        <time>2016-02-20T08:39:25.850Z</time>
      </trkpt>
      <trkpt lat="43.69208" lon="5.77467">
        <ele>459</ele>
        <time>2016-02-20T08:39:26.860Z</time>
      </trkpt>
      <trkpt lat="43.69209" lon="5.77461">
        <ele>459</ele>
        <time>2016-02-20T08:39:27.852Z</time>
      </trkpt>
      <trkpt lat="43.69209" lon="5.77449">
        <ele>459</ele>
        <time>2016-02-20T08:39:29.925Z</time>
      </trkpt>
      <trkpt lat="43.69209" lon="5.77442">
        <ele>460</ele>
        <time>2016-02-20T08:39:30.849Z</time>
      </trkpt>
      <trkpt lat="43.69208" lon="5.77431">
        <ele>462</ele>
        <time>2016-02-20T08:39:32.869Z</time>
      </trkpt>
      <trkpt lat="43.69208" lon="5.77425">
        <ele>462</ele>
        <time>2016-02-20T08:39:33.850Z</time>
      </trkpt>
      <trkpt lat="43.69207" lon="5.77415">
        <ele>462</ele>
        <time>2016-02-20T08:39:35.923Z</time>
      </trkpt>
      <trkpt lat="43.69207" lon="5.77409">
        <ele>462</ele>
        <time>2016-02-20T08:39:36.856Z</time>
      </trkpt>
      <trkpt lat="43.69206" lon="5.77398">
        <ele>462</ele>
        <time>2016-02-20T08:39:38.964Z</time>
      </trkpt>
      <trkpt lat="43.69204" lon="5.77392">
        <ele>461</ele>
        <time>2016-02-20T08:39:39.854Z</time>
      </trkpt>
      <trkpt lat="43.69202" lon="5.77387">
        <ele>461</ele>
        <time>2016-02-20T08:39:40.930Z</time>
      </trkpt>
      <trkpt lat="43.69201" lon="5.77381">
        <ele>461</ele>
        <time>2016-02-20T08:39:41.854Z</time>
      </trkpt>
      <trkpt lat="43.69199" lon="5.77375">
        <ele>461</ele>
        <time>2016-02-20T08:39:42.864Z</time>
      </trkpt>
      <trkpt lat="43.69197" lon="5.77369">
        <ele>461</ele>
        <time>2016-02-20T08:39:43.854Z</time>
      </trkpt>
      <trkpt lat="43.69195" lon="5.77363">
        <ele>460</ele>
        <time>2016-02-20T08:39:44.924Z</time>
      </trkpt>
      <trkpt lat="43.69194" lon="5.77357">
        <ele>460</ele>
        <time>2016-02-20T08:39:45.852Z</time>
      </trkpt>
      <trkpt lat="43.69192" lon="5.7735">
        <ele>460</ele>
        <time>2016-02-20T08:39:46.934Z</time>
      </trkpt>
      <trkpt lat="43.69191" lon="5.77345">
        <ele>460</ele>
        <time>2016-02-20T08:39:47.845Z</time>
      </trkpt>
      <trkpt lat="43.69186" lon="5.77334">
        <ele>460</ele>
        <time>2016-02-20T08:39:49.942Z</time>
      </trkpt>
      <trkpt lat="43.69184" lon="5.7733">
        <ele>460</ele>
        <time>2016-02-20T08:39:50.855Z</time>
      </trkpt>
      <trkpt lat="43.69178" lon="5.77321">
        <ele>461</ele>
        <time>2016-02-20T08:39:52.924Z</time>
      </trkpt>
      <trkpt lat="43.69176" lon="5.77317">
        <ele>461</ele>
        <time>2016-02-20T08:39:53.859Z</time>
      </trkpt>
      <trkpt lat="43.69172" lon="5.77307">
        <ele>461</ele>
        <time>2016-02-20T08:39:55.930Z</time>
      </trkpt>
      <trkpt lat="43.6917" lon="5.77303">
        <ele>461</ele>
        <time>2016-02-20T08:39:56.851Z</time>
      </trkpt>
      <trkpt lat="43.69164" lon="5.77296">
        <ele>461</ele>
        <time>2016-02-20T08:39:58.935Z</time>
      </trkpt>
      <trkpt lat="43.69161" lon="5.77292">
        <ele>460</ele>
        <time>2016-02-20T08:39:59.856Z</time>
      </trkpt>
      <trkpt lat="43.69155" lon="5.77286">
        <ele>460</ele>
        <time>2016-02-20T08:40:01.932Z</time>
      </trkpt>
      <trkpt lat="43.69152" lon="5.77282">
        <ele>460</ele>
        <time>2016-02-20T08:40:02.858Z</time>
      </trkpt>
      <trkpt lat="43.69148" lon="5.77273">
        <ele>460</ele>
        <time>2016-02-20T08:40:04.968Z</time>
      </trkpt>
      <trkpt lat="43.69147" lon="5.77267">
        <ele>460</ele>
        <time>2016-02-20T08:40:05.843Z</time>
      </trkpt>
      <trkpt lat="43.69147" lon="5.77256">
        <ele>459</ele>
        <time>2016-02-20T08:40:07.861Z</time>
      </trkpt>
      <trkpt lat="43.69148" lon="5.7725">
        <ele>459</ele>
        <time>2016-02-20T08:40:08.850Z</time>
      </trkpt>
      <trkpt lat="43.69147" lon="5.77238">
        <ele>459</ele>
        <time>2016-02-20T08:40:10.913Z</time>
      </trkpt>
      <trkpt lat="43.69147" lon="5.77233">
        <ele>458</ele>
        <time>2016-02-20T08:40:11.860Z</time>
      </trkpt>
      <trkpt lat="43.69147" lon="5.77222">
        <ele>458</ele>
        <time>2016-02-20T08:40:13.928Z</time>
      </trkpt>
      <trkpt lat="43.69147" lon="5.77217">
        <ele>459</ele>
        <time>2016-02-20T08:40:14.855Z</time>
      </trkpt>
      <trkpt lat="43.69148" lon="5.77206">
        <ele>459</ele>
        <time>2016-02-20T08:40:16.932Z</time>
      </trkpt>
      <trkpt lat="43.69147" lon="5.77203">
        <ele>459</ele>
        <time>2016-02-20T08:40:17.851Z</time>
      </trkpt>
      <trkpt lat="43.69141" lon="5.77196">
        <ele>459</ele>
        <time>2016-02-20T08:41:35.924Z</time>
      </trkpt>
      <trkpt lat="43.69139" lon="5.77195">
        <ele>459</ele>
        <time>2016-02-20T08:41:36.851Z</time>
      </trkpt>
      <trkpt lat="43.69131" lon="5.77193">
        <ele>459</ele>
        <time>2016-02-20T08:41:39.861Z</time>
      </trkpt>
      <trkpt lat="43.69128" lon="5.77193">
        <ele>458</ele>
        <time>2016-02-20T08:41:40.857Z</time>
      </trkpt>
      <trkpt lat="43.69121" lon="5.77193">
        <ele>458</ele>
        <time>2016-02-20T08:41:42.931Z</time>
      </trkpt>
      <trkpt lat="43.69118" lon="5.77193">
        <ele>458</ele>
        <time>2016-02-20T08:41:43.857Z</time>
      </trkpt>
      <trkpt lat="43.69113" lon="5.77193">
        <ele>457</ele>
        <time>2016-02-20T08:41:44.931Z</time>
      </trkpt>
      <trkpt lat="43.69109" lon="5.77193">
        <ele>457</ele>
        <time>2016-02-20T08:41:45.854Z</time>
      </trkpt>
      <trkpt lat="43.69103" lon="5.77192">
        <ele>456</ele>
        <time>2016-02-20T08:41:46.930Z</time>
      </trkpt>
      <trkpt lat="43.69097" lon="5.77193">
        <ele>455</ele>
        <time>2016-02-20T08:41:47.856Z</time>
      </trkpt>
      <trkpt lat="43.69092" lon="5.77193">
        <ele>454</ele>
        <time>2016-02-20T08:41:48.934Z</time>
      </trkpt>
      <trkpt lat="43.69086" lon="5.77193">
        <ele>454</ele>
        <time>2016-02-20T08:41:49.851Z</time>
      </trkpt>
      <trkpt lat="43.6908" lon="5.77194">
        <ele>453</ele>
        <time>2016-02-20T08:41:51.480Z</time>
      </trkpt>
      <trkpt lat="43.69074" lon="5.77194">
        <ele>452</ele>
        <time>2016-02-20T08:41:51.848Z</time>
      </trkpt>
      <trkpt lat="43.69066" lon="5.77196">
        <ele>452</ele>
        <time>2016-02-20T08:41:52.959Z</time>
      </trkpt>
      <trkpt lat="43.6906" lon="5.77196">
        <ele>451</ele>
        <time>2016-02-20T08:41:53.853Z</time>
      </trkpt>
      <trkpt lat="43.69053" lon="5.77196">
        <ele>451</ele>
        <time>2016-02-20T08:41:54.939Z</time>
      </trkpt>
      <trkpt lat="43.69047" lon="5.77196">
        <ele>451</ele>
        <time>2016-02-20T08:41:55.853Z</time>
      </trkpt>
      <trkpt lat="43.69041" lon="5.77197">
        <ele>451</ele>
        <time>2016-02-20T08:41:56.944Z</time>
      </trkpt>
      <trkpt lat="43.69034" lon="5.77197">
        <ele>450</ele>
        <time>2016-02-20T08:41:57.854Z</time>
      </trkpt>
      <trkpt lat="43.69028" lon="5.77198">
        <ele>450</ele>
        <time>2016-02-20T08:41:58.931Z</time>
      </trkpt>
      <trkpt lat="43.69023" lon="5.77198">
        <ele>450</ele>
        <time>2016-02-20T08:41:59.855Z</time>
      </trkpt>
      <trkpt lat="43.69017" lon="5.77199">
        <ele>449</ele>
        <time>2016-02-20T08:42:00.946Z</time>
      </trkpt>
      <trkpt lat="43.69014" lon="5.77198">
        <ele>449</ele>
        <time>2016-02-20T08:42:01.851Z</time>
      </trkpt>
      <trkpt lat="43.69006" lon="5.77195">
        <ele>448</ele>
        <time>2016-02-20T08:42:03.927Z</time>
      </trkpt>
      <trkpt lat="43.69002" lon="5.77193">
        <ele>447</ele>
        <time>2016-02-20T08:42:04.852Z</time>
      </trkpt>
      <trkpt lat="43.68995" lon="5.77187">
        <ele>445</ele>
        <time>2016-02-20T08:42:07.918Z</time>
      </trkpt>
      <trkpt lat="43.68993" lon="5.77185">
        <ele>444</ele>
        <time>2016-02-20T08:42:08.859Z</time>
      </trkpt>
      <trkpt lat="43.68985" lon="5.77179">
        <ele>441</ele>
        <time>2016-02-20T08:42:11.929Z</time>
      </trkpt>
      <trkpt lat="43.68982" lon="5.77177">
        <ele>440</ele>
        <time>2016-02-20T08:42:13.455Z</time>
      </trkpt>
      <trkpt lat="43.68978" lon="5.7717">
        <ele>438</ele>
        <time>2016-02-20T08:42:14.926Z</time>
      </trkpt>
      <trkpt lat="43.68975" lon="5.77167">
        <ele>436</ele>
        <time>2016-02-20T08:42:15.851Z</time>
      </trkpt>
      <trkpt lat="43.6897" lon="5.77162">
        <ele>434</ele>
        <time>2016-02-20T08:42:16.943Z</time>
      </trkpt>
      <trkpt lat="43.68963" lon="5.77158">
        <ele>433</ele>
        <time>2016-02-20T08:42:17.857Z</time>
      </trkpt>
      <trkpt lat="43.68955" lon="5.77153">
        <ele>431</ele>
        <time>2016-02-20T08:42:18.933Z</time>
      </trkpt>
      <trkpt lat="43.68948" lon="5.77147">
        <ele>430</ele>
        <time>2016-02-20T08:42:19.856Z</time>
      </trkpt>
      <trkpt lat="43.6894" lon="5.77142">
        <ele>429</ele>
        <time>2016-02-20T08:42:20.928Z</time>
      </trkpt>
      <trkpt lat="43.68933" lon="5.77136">
        <ele>428</ele>
        <time>2016-02-20T08:42:21.856Z</time>
      </trkpt>
      <trkpt lat="43.68926" lon="5.77132">
        <ele>428</ele>
        <time>2016-02-20T08:42:22.938Z</time>
      </trkpt>
      <trkpt lat="43.68919" lon="5.7713">
        <ele>428</ele>
        <time>2016-02-20T08:42:23.858Z</time>
      </trkpt>
      <trkpt lat="43.68912" lon="5.7713">
        <ele>426</ele>
        <time>2016-02-20T08:42:25.096Z</time>
      </trkpt>
      <trkpt lat="43.68907" lon="5.77131">
        <ele>426</ele>
        <time>2016-02-20T08:42:25.855Z</time>
      </trkpt>
      <trkpt lat="43.68901" lon="5.77134">
        <ele>425</ele>
        <time>2016-02-20T08:42:26.933Z</time>
      </trkpt>
      <trkpt lat="43.68896" lon="5.77137">
        <ele>424</ele>
        <time>2016-02-20T08:42:27.850Z</time>
      </trkpt>
      <trkpt lat="43.68891" lon="5.77141">
        <ele>422</ele>
        <time>2016-02-20T08:42:28.935Z</time>
      </trkpt>
      <trkpt lat="43.68886" lon="5.77144">
        <ele>421</ele>
        <time>2016-02-20T08:42:29.849Z</time>
      </trkpt>
      <trkpt lat="43.68882" lon="5.77147">
        <ele>419</ele>
        <time>2016-02-20T08:42:30.938Z</time>
      </trkpt>
      <trkpt lat="43.68877" lon="5.7715">
        <ele>417</ele>
        <time>2016-02-20T08:42:31.865Z</time>
      </trkpt>
      <trkpt lat="43.68871" lon="5.77154">
        <ele>415</ele>
        <time>2016-02-20T08:42:32.927Z</time>
      </trkpt>
      <trkpt lat="43.68866" lon="5.77157">
        <ele>414</ele>
        <time>2016-02-20T08:42:34.422Z</time>
      </trkpt>
      <trkpt lat="43.68861" lon="5.77159">
        <ele>413</ele>
        <time>2016-02-20T08:42:34.860Z</time>
      </trkpt>
      <trkpt lat="43.68856" lon="5.77162">
        <ele>412</ele>
        <time>2016-02-20T08:42:35.854Z</time>
      </trkpt>
      <trkpt lat="43.68849" lon="5.77164">
        <ele>410</ele>
        <time>2016-02-20T08:42:36.940Z</time>
      </trkpt>
      <trkpt lat="43.68842" lon="5.77168">
        <ele>408</ele>
        <time>2016-02-20T08:42:37.855Z</time>
      </trkpt>
      <trkpt lat="43.68836" lon="5.77171">
        <ele>406</ele>
        <time>2016-02-20T08:42:38.930Z</time>
      </trkpt>
      <trkpt lat="43.6883" lon="5.77174">
        <ele>405</ele>
        <time>2016-02-20T08:42:39.854Z</time>
      </trkpt>
      <trkpt lat="43.68823" lon="5.77178">
        <ele>404</ele>
        <time>2016-02-20T08:42:40.955Z</time>
      </trkpt>
      <trkpt lat="43.68817" lon="5.77182">
        <ele>403</ele>
        <time>2016-02-20T08:42:41.865Z</time>
      </trkpt>
      <trkpt lat="43.68812" lon="5.77185">
        <ele>403</ele>
        <time>2016-02-20T08:42:42.938Z</time>
      </trkpt>
      <trkpt lat="43.68809" lon="5.77187">
        <ele>402</ele>
        <time>2016-02-20T08:42:43.854Z</time>
      </trkpt>
      <trkpt lat="43.68807" lon="5.77196">
        <ele>400</ele>
        <time>2016-02-20T08:42:50.925Z</time>
      </trkpt>
      <trkpt lat="43.68807" lon="5.77199">
        <ele>400</ele>
        <time>2016-02-20T08:42:51.863Z</time>
      </trkpt>
      <trkpt lat="43.68808" lon="5.7721">
        <ele>400</ele>
        <time>2016-02-20T08:42:55.931Z</time>
      </trkpt>
      <trkpt lat="43.68809" lon="5.77214">
        <ele>399</ele>
        <time>2016-02-20T08:42:56.857Z</time>
      </trkpt>
      <trkpt lat="43.6881" lon="5.77225">
        <ele>400</ele>
        <time>2016-02-20T08:42:59.956Z</time>
      </trkpt>
      <trkpt lat="43.6881" lon="5.77228">
        <ele>400</ele>
        <time>2016-02-20T08:43:01.240Z</time>
      </trkpt>
      <trkpt lat="43.68811" lon="5.77241">
        <ele>400</ele>
        <time>2016-02-20T08:43:03.935Z</time>
      </trkpt>
      <trkpt lat="43.68812" lon="5.77245">
        <ele>400</ele>
        <time>2016-02-20T08:43:04.854Z</time>
      </trkpt>
      <trkpt lat="43.68813" lon="5.77254">
        <ele>400</ele>
        <time>2016-02-20T08:43:06.927Z</time>
      </trkpt>
      <trkpt lat="43.68814" lon="5.77258">
        <ele>400</ele>
        <time>2016-02-20T08:43:07.862Z</time>
      </trkpt>
      <trkpt lat="43.68815" lon="5.77268">
        <ele>399</ele>
        <time>2016-02-20T08:43:09.944Z</time>
      </trkpt>
      <trkpt lat="43.68816" lon="5.77272">
        <ele>399</ele>
        <time>2016-02-20T08:43:10.852Z</time>
      </trkpt>
      <trkpt lat="43.68818" lon="5.77281">
        <ele>399</ele>
        <time>2016-02-20T08:43:12.923Z</time>
      </trkpt>
      <trkpt lat="43.68819" lon="5.77284">
        <ele>400</ele>
        <time>2016-02-20T08:43:13.909Z</time>
      </trkpt>
      <trkpt lat="43.68822" lon="5.77294">
        <ele>399</ele>
        <time>2016-02-20T08:43:16.931Z</time>
      </trkpt>
      <trkpt lat="43.68823" lon="5.77296">
        <ele>399</ele>
        <time>2016-02-20T08:43:17.871Z</time>
      </trkpt>
      <trkpt lat="43.68826" lon="5.77305">
        <ele>398</ele>
        <time>2016-02-20T08:43:20.845Z</time>
      </trkpt>
      <trkpt lat="43.68827" lon="5.77308">
        <ele>398</ele>
        <time>2016-02-20T08:43:21.840Z</time>
      </trkpt>
      <trkpt lat="43.6883" lon="5.77317">
        <ele>398</ele>
        <time>2016-02-20T08:43:24.870Z</time>
      </trkpt>
      <trkpt lat="43.68831" lon="5.7732">
        <ele>398</ele>
        <time>2016-02-20T08:43:25.832Z</time>
      </trkpt>
      <trkpt lat="43.68833" lon="5.77329">
        <ele>399</ele>
        <time>2016-02-20T08:43:28.928Z</time>
      </trkpt>
      <trkpt lat="43.68833" lon="5.77332">
        <ele>399</ele>
        <time>2016-02-20T08:43:29.857Z</time>
      </trkpt>
      <trkpt lat="43.68835" lon="5.77343">
        <ele>400</ele>
        <time>2016-02-20T08:43:33.948Z</time>
      </trkpt>
      <trkpt lat="43.68836" lon="5.77346">
        <ele>400</ele>
        <time>2016-02-20T08:43:34.842Z</time>
      </trkpt>
      <trkpt lat="43.68842" lon="5.77354">
        <ele>400</ele>
        <time>2016-02-20T08:43:39.924Z</time>
      </trkpt>
      <trkpt lat="43.68843" lon="5.77355">
        <ele>400</ele>
        <time>2016-02-20T08:43:40.855Z</time>
      </trkpt>
      <trkpt lat="43.68849" lon="5.77361">
        <ele>401</ele>
        <time>2016-02-20T08:43:54.930Z</time>
      </trkpt>
      <trkpt lat="43.68851" lon="5.77363">
        <ele>401</ele>
        <time>2016-02-20T08:43:55.858Z</time>
      </trkpt>
      <trkpt lat="43.68857" lon="5.77371">
        <ele>401</ele>
        <time>2016-02-20T08:43:58.933Z</time>
      </trkpt>
      <trkpt lat="43.68859" lon="5.77373">
        <ele>402</ele>
        <time>2016-02-20T08:43:59.855Z</time>
      </trkpt>
      <trkpt lat="43.68865" lon="5.77381">
        <ele>402</ele>
        <time>2016-02-20T08:44:02.929Z</time>
      </trkpt>
      <trkpt lat="43.68867" lon="5.77384">
        <ele>402</ele>
        <time>2016-02-20T08:44:03.858Z</time>
      </trkpt>
      <trkpt lat="43.68873" lon="5.77391">
        <ele>404</ele>
        <time>2016-02-20T08:44:07.940Z</time>
      </trkpt>
      <trkpt lat="43.68874" lon="5.77393">
        <ele>404</ele>
        <time>2016-02-20T08:44:08.871Z</time>
      </trkpt>
      <trkpt lat="43.68879" lon="5.77401">
        <ele>404</ele>
        <time>2016-02-20T08:44:12.928Z</time>
      </trkpt>
      <trkpt lat="43.68881" lon="5.77403">
        <ele>404</ele>
        <time>2016-02-20T08:44:13.857Z</time>
      </trkpt>
      <trkpt lat="43.68886" lon="5.77409">
        <ele>404</ele>
        <time>2016-02-20T08:44:17.944Z</time>
      </trkpt>
      <trkpt lat="43.68887" lon="5.77411">
        <ele>404</ele>
        <time>2016-02-20T08:44:18.853Z</time>
      </trkpt>
      <trkpt lat="43.68893" lon="5.7742">
        <ele>405</ele>
        <time>2016-02-20T08:44:23.928Z</time>
      </trkpt>
      <trkpt lat="43.68894" lon="5.77422">
        <ele>405</ele>
        <time>2016-02-20T08:44:24.853Z</time>
      </trkpt>
      <trkpt lat="43.68899" lon="5.77429">
        <ele>406</ele>
        <time>2016-02-20T08:44:28.933Z</time>
      </trkpt>
      <trkpt lat="43.68901" lon="5.77431">
        <ele>406</ele>
        <time>2016-02-20T08:44:29.863Z</time>
      </trkpt>
      <trkpt lat="43.68907" lon="5.77439">
        <ele>406</ele>
        <time>2016-02-20T08:44:34.935Z</time>
      </trkpt>
      <trkpt lat="43.68908" lon="5.7744">
        <ele>406</ele>
        <time>2016-02-20T08:44:35.858Z</time>
      </trkpt>
      <trkpt lat="43.68915" lon="5.77446">
        <ele>408</ele>
        <time>2016-02-20T08:44:40.953Z</time>
      </trkpt>
      <trkpt lat="43.68916" lon="5.77448">
        <ele>408</ele>
        <time>2016-02-20T08:44:41.852Z</time>
      </trkpt>
      <trkpt lat="43.68919" lon="5.77459">
        <ele>408</ele>
        <time>2016-02-20T08:44:46.929Z</time>
      </trkpt>
      <trkpt lat="43.68919" lon="5.77462">
        <ele>409</ele>
        <time>2016-02-20T08:44:47.850Z</time>
      </trkpt>
      <trkpt lat="43.68918" lon="5.77474">
        <ele>410</ele>
        <time>2016-02-20T08:44:52.903Z</time>
      </trkpt>
      <trkpt lat="43.68917" lon="5.77476">
        <ele>410</ele>
        <time>2016-02-20T08:44:53.856Z</time>
      </trkpt>
      <trkpt lat="43.68909" lon="5.77477">
        <ele>410</ele>
        <time>2016-02-20T08:44:57.923Z</time>
      </trkpt>
      <trkpt lat="43.68907" lon="5.77476">
        <ele>410</ele>
        <time>2016-02-20T08:44:58.861Z</time>
      </trkpt>
      <trkpt lat="43.689" lon="5.77475">
        <ele>411</ele>
        <time>2016-02-20T08:45:02.945Z</time>
      </trkpt>
      <trkpt lat="43.68898" lon="5.77475">
        <ele>411</ele>
        <time>2016-02-20T08:45:03.836Z</time>
      </trkpt>
      <trkpt lat="43.6889" lon="5.77475">
        <ele>412</ele>
        <time>2016-02-20T08:45:07.927Z</time>
      </trkpt>
      <trkpt lat="43.68888" lon="5.77475">
        <ele>412</ele>
        <time>2016-02-20T08:45:08.858Z</time>
      </trkpt>
      <trkpt lat="43.68881" lon="5.77477">
        <ele>412</ele>
        <time>2016-02-20T08:45:12.921Z</time>
      </trkpt>
      <trkpt lat="43.68879" lon="5.77478">
        <ele>413</ele>
        <time>2016-02-20T08:45:13.857Z</time>
      </trkpt>
      <trkpt lat="43.68872" lon="5.77483">
        <ele>414</ele>
        <time>2016-02-20T08:45:18.929Z</time>
      </trkpt>
      <trkpt lat="43.68871" lon="5.77484">
        <ele>414</ele>
        <time>2016-02-20T08:45:19.849Z</time>
      </trkpt>
      <trkpt lat="43.68865" lon="5.77492">
        <ele>414</ele>
        <time>2016-02-20T08:45:24.955Z</time>
      </trkpt>
      <trkpt lat="43.68864" lon="5.77494">
        <ele>414</ele>
        <time>2016-02-20T08:45:25.858Z</time>
      </trkpt>
      <trkpt lat="43.68859" lon="5.77503">
        <ele>415</ele>
        <time>2016-02-20T08:45:30.865Z</time>
      </trkpt>
      <trkpt lat="43.68857" lon="5.77505">
        <ele>416</ele>
        <time>2016-02-20T08:45:31.860Z</time>
      </trkpt>
      <trkpt lat="43.68852" lon="5.77514">
        <ele>416</ele>
        <time>2016-02-20T08:45:36.932Z</time>
      </trkpt>
      <trkpt lat="43.68851" lon="5.77516">
        <ele>416</ele>
        <time>2016-02-20T08:45:37.859Z</time>
      </trkpt>
      <trkpt lat="43.68845" lon="5.77523">
        <ele>417</ele>
        <time>2016-02-20T08:45:42.865Z</time>
      </trkpt>
      <trkpt lat="43.68844" lon="5.77524">
        <ele>417</ele>
        <time>2016-02-20T08:45:43.850Z</time>
      </trkpt>
      <trkpt lat="43.68838" lon="5.77531">
        <ele>418</ele>
        <time>2016-02-20T08:45:48.920Z</time>
      </trkpt>
      <trkpt lat="43.68836" lon="5.77532">
        <ele>419</ele>
        <time>2016-02-20T08:45:49.856Z</time>
      </trkpt>
      <trkpt lat="43.6883" lon="5.77538">
        <ele>419</ele>
        <time>2016-02-20T08:45:54.891Z</time>
      </trkpt>
      <trkpt lat="43.68829" lon="5.7754">
        <ele>419</ele>
        <time>2016-02-20T08:45:55.831Z</time>
      </trkpt>
      <trkpt lat="43.68825" lon="5.7755">
        <ele>420</ele>
        <time>2016-02-20T08:46:00.956Z</time>
      </trkpt>
      <trkpt lat="43.68824" lon="5.77552">
        <ele>420</ele>
        <time>2016-02-20T08:46:01.855Z</time>
      </trkpt>
      <trkpt lat="43.6882" lon="5.77563">
        <ele>421</ele>
        <time>2016-02-20T08:46:06.857Z</time>
      </trkpt>
      <trkpt lat="43.6882" lon="5.77565">
        <ele>421</ele>
        <time>2016-02-20T08:46:07.860Z</time>
      </trkpt>
      <trkpt lat="43.68816" lon="5.77575">
        <ele>422</ele>
        <time>2016-02-20T08:46:12.908Z</time>
      </trkpt>
      <trkpt lat="43.68815" lon="5.77578">
        <ele>422</ele>
        <time>2016-02-20T08:46:13.860Z</time>
      </trkpt>
      <trkpt lat="43.68811" lon="5.77587">
        <ele>422</ele>
        <time>2016-02-20T08:46:19.283Z</time>
      </trkpt>
      <trkpt lat="43.6881" lon="5.77589">
        <ele>422</ele>
        <time>2016-02-20T08:46:19.845Z</time>
      </trkpt>
      <trkpt lat="43.68805" lon="5.77599">
        <ele>423</ele>
        <time>2016-02-20T08:46:24.919Z</time>
      </trkpt>
      <trkpt lat="43.68805" lon="5.77601">
        <ele>424</ele>
        <time>2016-02-20T08:46:25.856Z</time>
      </trkpt>
      <trkpt lat="43.68799" lon="5.77609">
        <ele>424</ele>
        <time>2016-02-20T08:46:31.507Z</time>
      </trkpt>
      <trkpt lat="43.68797" lon="5.7761">
        <ele>424</ele>
        <time>2016-02-20T08:46:31.854Z</time>
      </trkpt>
      <trkpt lat="43.68791" lon="5.77617">
        <ele>425</ele>
        <time>2016-02-20T08:46:36.942Z</time>
      </trkpt>
      <trkpt lat="43.68789" lon="5.77619">
        <ele>426</ele>
        <time>2016-02-20T08:46:37.856Z</time>
      </trkpt>
      <trkpt lat="43.68782" lon="5.77625">
        <ele>427</ele>
        <time>2016-02-20T08:46:43.468Z</time>
      </trkpt>
      <trkpt lat="43.68781" lon="5.77626">
        <ele>427</ele>
        <time>2016-02-20T08:46:43.836Z</time>
      </trkpt>
      <trkpt lat="43.68772" lon="5.77628">
        <ele>428</ele>
        <time>2016-02-20T08:46:48.914Z</time>
      </trkpt>
      <trkpt lat="43.68771" lon="5.77628">
        <ele>428</ele>
        <time>2016-02-20T08:46:49.857Z</time>
      </trkpt>
      <trkpt lat="43.68763" lon="5.77624">
        <ele>428</ele>
        <time>2016-02-20T08:46:53.904Z</time>
      </trkpt>
      <trkpt lat="43.68762" lon="5.77623">
        <ele>429</ele>
        <time>2016-02-20T08:46:54.858Z</time>
      </trkpt>
      <trkpt lat="43.68756" lon="5.77617">
        <ele>429</ele>
        <time>2016-02-20T08:46:58.909Z</time>
      </trkpt>
      <trkpt lat="43.68754" lon="5.77615">
        <ele>429</ele>
        <time>2016-02-20T08:46:59.850Z</time>
      </trkpt>
      <trkpt lat="43.68748" lon="5.77609">
        <ele>429</ele>
        <time>2016-02-20T08:47:03.911Z</time>
      </trkpt>
      <trkpt lat="43.68747" lon="5.77608">
        <ele>430</ele>
        <time>2016-02-20T08:47:04.858Z</time>
      </trkpt>
      <trkpt lat="43.6874" lon="5.77602">
        <ele>430</ele>
        <time>2016-02-20T08:47:09.487Z</time>
      </trkpt>
      <trkpt lat="43.68738" lon="5.77601">
        <ele>430</ele>
        <time>2016-02-20T08:47:09.836Z</time>
      </trkpt>
      <trkpt lat="43.68732" lon="5.77596">
        <ele>430</ele>
        <time>2016-02-20T08:47:12.912Z</time>
      </trkpt>
      <trkpt lat="43.6873" lon="5.77595">
        <ele>430</ele>
        <time>2016-02-20T08:47:13.866Z</time>
      </trkpt>
      <trkpt lat="43.68724" lon="5.7759">
        <ele>430</ele>
        <time>2016-02-20T08:47:16.908Z</time>
      </trkpt>
      <trkpt lat="43.68722" lon="5.77588">
        <ele>430</ele>
        <time>2016-02-20T08:47:17.866Z</time>
      </trkpt>
      <trkpt lat="43.68716" lon="5.77583">
        <ele>431</ele>
        <time>2016-02-20T08:47:20.906Z</time>
      </trkpt>
      <trkpt lat="43.68714" lon="5.77582">
        <ele>431</ele>
        <time>2016-02-20T08:47:21.839Z</time>
      </trkpt>
      <trkpt lat="43.68707" lon="5.77577">
        <ele>431</ele>
        <time>2016-02-20T08:47:24.943Z</time>
      </trkpt>
      <trkpt lat="43.68705" lon="5.77575">
        <ele>431</ele>
        <time>2016-02-20T08:47:25.860Z</time>
      </trkpt>
      <trkpt lat="43.68698" lon="5.77569">
        <ele>431</ele>
        <time>2016-02-20T08:47:28.916Z</time>
      </trkpt>
      <trkpt lat="43.68696" lon="5.77568">
        <ele>431</ele>
        <time>2016-02-20T08:47:29.861Z</time>
      </trkpt>
      <trkpt lat="43.68689" lon="5.77562">
        <ele>430</ele>
        <time>2016-02-20T08:47:32.916Z</time>
      </trkpt>
      <trkpt lat="43.68687" lon="5.7756">
        <ele>431</ele>
        <time>2016-02-20T08:47:33.867Z</time>
      </trkpt>
      <trkpt lat="43.68681" lon="5.77553">
        <ele>431</ele>
        <time>2016-02-20T08:47:36.931Z</time>
      </trkpt>
      <trkpt lat="43.6868" lon="5.7755">
        <ele>431</ele>
        <time>2016-02-20T08:47:37.856Z</time>
      </trkpt>
      <trkpt lat="43.68677" lon="5.77542">
        <ele>431</ele>
        <time>2016-02-20T08:47:39.912Z</time>
      </trkpt>
      <trkpt lat="43.68676" lon="5.77539">
        <ele>431</ele>
        <time>2016-02-20T08:47:40.859Z</time>
      </trkpt>
      <trkpt lat="43.68672" lon="5.7753">
        <ele>431</ele>
        <time>2016-02-20T08:47:43.908Z</time>
      </trkpt>
      <trkpt lat="43.6867" lon="5.77528">
        <ele>431</ele>
        <time>2016-02-20T08:47:44.855Z</time>
      </trkpt>
      <trkpt lat="43.68663" lon="5.77526">
        <ele>431</ele>
        <time>2016-02-20T08:47:47.924Z</time>
      </trkpt>
      <trkpt lat="43.6866" lon="5.77526">
        <ele>431</ele>
        <time>2016-02-20T08:47:48.859Z</time>
      </trkpt>
      <trkpt lat="43.68653" lon="5.77529">
        <ele>430</ele>
        <time>2016-02-20T08:47:50.910Z</time>
      </trkpt>
      <trkpt lat="43.68649" lon="5.7753">
        <ele>430</ele>
        <time>2016-02-20T08:47:51.866Z</time>
      </trkpt>
      <trkpt lat="43.68641" lon="5.77534">
        <ele>430</ele>
        <time>2016-02-20T08:47:53.923Z</time>
      </trkpt>
      <trkpt lat="43.68637" lon="5.77535">
        <ele>430</ele>
        <time>2016-02-20T08:47:54.857Z</time>
      </trkpt>
      <trkpt lat="43.68629" lon="5.77538">
        <ele>430</ele>
        <time>2016-02-20T08:47:56.903Z</time>
      </trkpt>
      <trkpt lat="43.68625" lon="5.7754">
        <ele>430</ele>
        <time>2016-02-20T08:47:57.834Z</time>
      </trkpt>
      <trkpt lat="43.68617" lon="5.77543">
        <ele>430</ele>
        <time>2016-02-20T08:47:59.909Z</time>
      </trkpt>
      <trkpt lat="43.68614" lon="5.77544">
        <ele>430</ele>
        <time>2016-02-20T08:48:00.859Z</time>
      </trkpt>
      <trkpt lat="43.68608" lon="5.77546">
        <ele>430</ele>
        <time>2016-02-20T08:48:02.911Z</time>
      </trkpt>
      <trkpt lat="43.68605" lon="5.77547">
        <ele>430</ele>
        <time>2016-02-20T08:48:03.859Z</time>
      </trkpt>
      <trkpt lat="43.68596" lon="5.77548">
        <ele>431</ele>
        <time>2016-02-20T08:48:06.909Z</time>
      </trkpt>
      <trkpt lat="43.68593" lon="5.77548">
        <ele>431</ele>
        <time>2016-02-20T08:48:07.857Z</time>
      </trkpt>
      <trkpt lat="43.68587" lon="5.77547">
        <ele>431</ele>
        <time>2016-02-20T08:48:09.913Z</time>
      </trkpt>
      <trkpt lat="43.68584" lon="5.77547">
        <ele>431</ele>
        <time>2016-02-20T08:48:10.861Z</time>
      </trkpt>
      <trkpt lat="43.68575" lon="5.77546">
        <ele>431</ele>
        <time>2016-02-20T08:48:13.913Z</time>
      </trkpt>
      <trkpt lat="43.68572" lon="5.77546">
        <ele>431</ele>
        <time>2016-02-20T08:48:14.864Z</time>
      </trkpt>
      <trkpt lat="43.68564" lon="5.77547">
        <ele>432</ele>
        <time>2016-02-20T08:48:17.916Z</time>
      </trkpt>
      <trkpt lat="43.68562" lon="5.77548">
        <ele>432</ele>
        <time>2016-02-20T08:48:18.854Z</time>
      </trkpt>
      <trkpt lat="43.68556" lon="5.77554">
        <ele>432</ele>
        <time>2016-02-20T08:48:21.910Z</time>
      </trkpt>
      <trkpt lat="43.68555" lon="5.77557">
        <ele>432</ele>
        <time>2016-02-20T08:48:22.836Z</time>
      </trkpt>
      <trkpt lat="43.68554" lon="5.77569">
        <ele>432</ele>
        <time>2016-02-20T08:48:25.907Z</time>
      </trkpt>
      <trkpt lat="43.68554" lon="5.77573">
        <ele>432</ele>
        <time>2016-02-20T08:48:26.863Z</time>
      </trkpt>
      <trkpt lat="43.68557" lon="5.7758">
        <ele>431</ele>
        <time>2016-02-20T08:48:28.912Z</time>
      </trkpt>
      <trkpt lat="43.68558" lon="5.77584">
        <ele>432</ele>
        <time>2016-02-20T08:48:29.864Z</time>
      </trkpt>
      <trkpt lat="43.68562" lon="5.77595">
        <ele>431</ele>
        <time>2016-02-20T08:48:32.912Z</time>
      </trkpt>
      <trkpt lat="43.68563" lon="5.77598">
        <ele>431</ele>
        <time>2016-02-20T08:48:33.861Z</time>
      </trkpt>
      <trkpt lat="43.68567" lon="5.77609">
        <ele>432</ele>
        <time>2016-02-20T08:48:36.944Z</time>
      </trkpt>
      <trkpt lat="43.68568" lon="5.77613">
        <ele>432</ele>
        <time>2016-02-20T08:48:37.855Z</time>
      </trkpt>
      <trkpt lat="43.68572" lon="5.77624">
        <ele>432</ele>
        <time>2016-02-20T08:48:40.938Z</time>
      </trkpt>
      <trkpt lat="43.68573" lon="5.77627">
        <ele>432</ele>
        <time>2016-02-20T08:48:41.860Z</time>
      </trkpt>
      <trkpt lat="43.68575" lon="5.77638">
        <ele>432</ele>
        <time>2016-02-20T08:48:44.914Z</time>
      </trkpt>
      <trkpt lat="43.68576" lon="5.77642">
        <ele>432</ele>
        <time>2016-02-20T08:48:45.855Z</time>
      </trkpt>
      <trkpt lat="43.68577" lon="5.77653">
        <ele>433</ele>
        <time>2016-02-20T08:48:48.907Z</time>
      </trkpt>
      <trkpt lat="43.68578" lon="5.77656">
        <ele>433</ele>
        <time>2016-02-20T08:48:49.855Z</time>
      </trkpt>
      <trkpt lat="43.68579" lon="5.77667">
        <ele>433</ele>
        <time>2016-02-20T08:48:52.919Z</time>
      </trkpt>
      <trkpt lat="43.68579" lon="5.77671">
        <ele>433</ele>
        <time>2016-02-20T08:48:53.860Z</time>
      </trkpt>
      <trkpt lat="43.68578" lon="5.77682">
        <ele>434</ele>
        <time>2016-02-20T08:48:56.920Z</time>
      </trkpt>
      <trkpt lat="43.68578" lon="5.77686">
        <ele>434</ele>
        <time>2016-02-20T08:48:57.856Z</time>
      </trkpt>
      <trkpt lat="43.68576" lon="5.77696">
        <ele>435</ele>
        <time>2016-02-20T08:49:00.911Z</time>
      </trkpt>
      <trkpt lat="43.68576" lon="5.777">
        <ele>435</ele>
        <time>2016-02-20T08:49:01.860Z</time>
      </trkpt>
      <trkpt lat="43.68574" lon="5.77711">
        <ele>435</ele>
        <time>2016-02-20T08:49:04.913Z</time>
      </trkpt>
      <trkpt lat="43.68573" lon="5.77714">
        <ele>435</ele>
        <time>2016-02-20T08:49:05.867Z</time>
      </trkpt>
      <trkpt lat="43.68571" lon="5.77725">
        <ele>435</ele>
        <time>2016-02-20T08:49:08.918Z</time>
      </trkpt>
      <trkpt lat="43.6857" lon="5.77728">
        <ele>435</ele>
        <time>2016-02-20T08:49:09.853Z</time>
      </trkpt>
      <trkpt lat="43.68567" lon="5.77739">
        <ele>436</ele>
        <time>2016-02-20T08:49:12.919Z</time>
      </trkpt>
      <trkpt lat="43.68566" lon="5.77743">
        <ele>436</ele>
        <time>2016-02-20T08:49:13.859Z</time>
      </trkpt>
      <trkpt lat="43.68564" lon="5.77753">
        <ele>436</ele>
        <time>2016-02-20T08:49:16.912Z</time>
      </trkpt>
      <trkpt lat="43.68563" lon="5.77757">
        <ele>437</ele>
        <time>2016-02-20T08:49:17.858Z</time>
      </trkpt>
      <trkpt lat="43.68561" lon="5.77768">
        <ele>437</ele>
        <time>2016-02-20T08:49:20.909Z</time>
      </trkpt>
      <trkpt lat="43.68561" lon="5.77772">
        <ele>437</ele>
        <time>2016-02-20T08:49:21.862Z</time>
      </trkpt>
      <trkpt lat="43.68563" lon="5.77783">
        <ele>437</ele>
        <time>2016-02-20T08:49:24.914Z</time>
      </trkpt>
      <trkpt lat="43.68563" lon="5.77787">
        <ele>437</ele>
        <time>2016-02-20T08:49:25.862Z</time>
      </trkpt>
      <trkpt lat="43.68566" lon="5.77798">
        <ele>437</ele>
        <time>2016-02-20T08:49:28.858Z</time>
      </trkpt>
      <trkpt lat="43.68567" lon="5.77802">
        <ele>437</ele>
        <time>2016-02-20T08:49:29.863Z</time>
      </trkpt>
      <trkpt lat="43.6857" lon="5.77811">
        <ele>437</ele>
        <time>2016-02-20T08:49:31.916Z</time>
      </trkpt>
      <trkpt lat="43.6857" lon="5.77815">
        <ele>436</ele>
        <time>2016-02-20T08:49:32.857Z</time>
      </trkpt>
      <trkpt lat="43.68572" lon="5.77825">
        <ele>437</ele>
        <time>2016-02-20T08:49:34.915Z</time>
      </trkpt>
      <trkpt lat="43.68572" lon="5.7783">
        <ele>437</ele>
        <time>2016-02-20T08:49:35.862Z</time>
      </trkpt>
      <trkpt lat="43.68571" lon="5.77839">
        <ele>437</ele>
        <time>2016-02-20T08:49:37.904Z</time>
      </trkpt>
      <trkpt lat="43.68571" lon="5.77844">
        <ele>437</ele>
        <time>2016-02-20T08:49:38.858Z</time>
      </trkpt>
      <trkpt lat="43.68571" lon="5.77853">
        <ele>437</ele>
        <time>2016-02-20T08:49:40.931Z</time>
      </trkpt>
      <trkpt lat="43.68572" lon="5.77858">
        <ele>437</ele>
        <time>2016-02-20T08:49:41.858Z</time>
      </trkpt>
      <trkpt lat="43.68574" lon="5.77867">
        <ele>437</ele>
        <time>2016-02-20T08:49:43.915Z</time>
      </trkpt>
      <trkpt lat="43.68576" lon="5.77871">
        <ele>437</ele>
        <time>2016-02-20T08:49:44.859Z</time>
      </trkpt>
      <trkpt lat="43.6858" lon="5.77879">
        <ele>437</ele>
        <time>2016-02-20T08:49:46.853Z</time>
      </trkpt>
      <trkpt lat="43.68583" lon="5.77883">
        <ele>437</ele>
        <time>2016-02-20T08:49:47.866Z</time>
      </trkpt>
      <trkpt lat="43.68588" lon="5.77891">
        <ele>437</ele>
        <time>2016-02-20T08:49:49.911Z</time>
      </trkpt>
      <trkpt lat="43.6859" lon="5.77894">
        <ele>437</ele>
        <time>2016-02-20T08:49:50.859Z</time>
      </trkpt>
      <trkpt lat="43.68596" lon="5.77903">
        <ele>436</ele>
        <time>2016-02-20T08:49:52.908Z</time>
      </trkpt>
      <trkpt lat="43.68598" lon="5.77908">
        <ele>436</ele>
        <time>2016-02-20T08:49:53.859Z</time>
      </trkpt>
      <trkpt lat="43.68602" lon="5.77918">
        <ele>436</ele>
        <time>2016-02-20T08:49:55.916Z</time>
      </trkpt>
      <trkpt lat="43.68604" lon="5.77924">
        <ele>436</ele>
        <time>2016-02-20T08:49:56.874Z</time>
      </trkpt>
      <trkpt lat="43.68606" lon="5.77936">
        <ele>436</ele>
        <time>2016-02-20T08:49:58.857Z</time>
      </trkpt>
      <trkpt lat="43.68607" lon="5.77941">
        <ele>436</ele>
        <time>2016-02-20T08:49:59.858Z</time>
      </trkpt>
      <trkpt lat="43.68608" lon="5.77952">
        <ele>437</ele>
        <time>2016-02-20T08:50:01.934Z</time>
      </trkpt>
      <trkpt lat="43.68608" lon="5.77958">
        <ele>437</ele>
        <time>2016-02-20T08:50:02.858Z</time>
      </trkpt>
      <trkpt lat="43.6861" lon="5.77967">
        <ele>438</ele>
        <time>2016-02-20T08:50:04.917Z</time>
      </trkpt>
      <trkpt lat="43.68611" lon="5.77972">
        <ele>438</ele>
        <time>2016-02-20T08:50:05.855Z</time>
      </trkpt>
      <trkpt lat="43.68614" lon="5.7798">
        <ele>439</ele>
        <time>2016-02-20T08:50:07.936Z</time>
      </trkpt>
      <trkpt lat="43.68616" lon="5.77984">
        <ele>439</ele>
        <time>2016-02-20T08:50:08.860Z</time>
      </trkpt>
      <trkpt lat="43.68621" lon="5.77992">
        <ele>439</ele>
        <time>2016-02-20T08:50:11.222Z</time>
      </trkpt>
      <trkpt lat="43.68623" lon="5.77995">
        <ele>439</ele>
        <time>2016-02-20T08:50:11.862Z</time>
      </trkpt>
      <trkpt lat="43.68628" lon="5.78002">
        <ele>440</ele>
        <time>2016-02-20T08:50:13.906Z</time>
      </trkpt>
      <trkpt lat="43.6863" lon="5.78005">
        <ele>440</ele>
        <time>2016-02-20T08:50:14.857Z</time>
      </trkpt>
      <trkpt lat="43.68636" lon="5.7801">
        <ele>440</ele>
        <time>2016-02-20T08:50:16.926Z</time>
      </trkpt>
      <trkpt lat="43.68639" lon="5.78011">
        <ele>440</ele>
        <time>2016-02-20T08:50:17.860Z</time>
      </trkpt>
      <trkpt lat="43.68646" lon="5.78015">
        <ele>440</ele>
        <time>2016-02-20T08:50:19.917Z</time>
      </trkpt>
      <trkpt lat="43.68649" lon="5.78016">
        <ele>439</ele>
        <time>2016-02-20T08:50:20.868Z</time>
      </trkpt>
      <trkpt lat="43.68657" lon="5.78017">
        <ele>439</ele>
        <time>2016-02-20T08:50:23.464Z</time>
      </trkpt>
      <trkpt lat="43.68661" lon="5.78017">
        <ele>438</ele>
        <time>2016-02-20T08:50:23.856Z</time>
      </trkpt>
      <trkpt lat="43.68668" lon="5.78018">
        <ele>438</ele>
        <time>2016-02-20T08:50:25.913Z</time>
      </trkpt>
      <trkpt lat="43.68672" lon="5.78018">
        <ele>437</ele>
        <time>2016-02-20T08:50:26.863Z</time>
      </trkpt>
      <trkpt lat="43.68679" lon="5.78019">
        <ele>437</ele>
        <time>2016-02-20T08:50:28.919Z</time>
      </trkpt>
      <trkpt lat="43.68683" lon="5.78021">
        <ele>437</ele>
        <time>2016-02-20T08:50:29.857Z</time>
      </trkpt>
      <trkpt lat="43.68687" lon="5.78029">
        <ele>438</ele>
        <time>2016-02-20T08:50:31.912Z</time>
      </trkpt>
      <trkpt lat="43.68687" lon="5.78035">
        <ele>438</ele>
        <time>2016-02-20T08:50:32.860Z</time>
      </trkpt>
      <trkpt lat="43.68686" lon="5.78046">
        <ele>438</ele>
        <time>2016-02-20T08:50:34.926Z</time>
      </trkpt>
      <trkpt lat="43.68685" lon="5.7805">
        <ele>437</ele>
        <time>2016-02-20T08:50:35.858Z</time>
      </trkpt>
      <trkpt lat="43.68681" lon="5.7806">
        <ele>437</ele>
        <time>2016-02-20T08:50:37.916Z</time>
      </trkpt>
      <trkpt lat="43.6868" lon="5.78064">
        <ele>437</ele>
        <time>2016-02-20T08:50:38.852Z</time>
      </trkpt>
      <trkpt lat="43.68676" lon="5.78073">
        <ele>437</ele>
        <time>2016-02-20T08:50:40.965Z</time>
      </trkpt>
      <trkpt lat="43.68675" lon="5.78078">
        <ele>437</ele>
        <time>2016-02-20T08:50:41.860Z</time>
      </trkpt>
      <trkpt lat="43.68672" lon="5.78089">
        <ele>437</ele>
        <time>2016-02-20T08:50:43.904Z</time>
      </trkpt>
      <trkpt lat="43.68671" lon="5.78095">
        <ele>437</ele>
        <time>2016-02-20T08:50:44.861Z</time>
      </trkpt>
      <trkpt lat="43.68673" lon="5.78106">
        <ele>436</ele>
        <time>2016-02-20T08:50:46.911Z</time>
      </trkpt>
      <trkpt lat="43.68674" lon="5.78112">
        <ele>436</ele>
        <time>2016-02-20T08:50:47.838Z</time>
      </trkpt>
      <trkpt lat="43.68678" lon="5.78122">
        <ele>435</ele>
        <time>2016-02-20T08:50:49.910Z</time>
      </trkpt>
      <trkpt lat="43.6868" lon="5.78127">
        <ele>435</ele>
        <time>2016-02-20T08:50:50.861Z</time>
      </trkpt>
      <trkpt lat="43.68684" lon="5.78137">
        <ele>435</ele>
        <time>2016-02-20T08:50:52.908Z</time>
      </trkpt>
      <trkpt lat="43.68686" lon="5.78142">
        <ele>435</ele>
        <time>2016-02-20T08:50:53.862Z</time>
      </trkpt>
      <trkpt lat="43.6869" lon="5.78151">
        <ele>434</ele>
        <time>2016-02-20T08:50:55.909Z</time>
      </trkpt>
      <trkpt lat="43.68692" lon="5.78154">
        <ele>433</ele>
        <time>2016-02-20T08:50:56.852Z</time>
      </trkpt>
      <trkpt lat="43.68698" lon="5.78159">
        <ele>433</ele>
        <time>2016-02-20T08:51:37.924Z</time>
      </trkpt>
      <trkpt lat="43.687" lon="5.7816">
        <ele>433</ele>
        <time>2016-02-20T08:51:38.835Z</time>
      </trkpt>
      <trkpt lat="43.68708" lon="5.78164">
        <ele>432</ele>
        <time>2016-02-20T08:51:42.907Z</time>
      </trkpt>
      <trkpt lat="43.6871" lon="5.78165">
        <ele>433</ele>
        <time>2016-02-20T08:51:43.855Z</time>
      </trkpt>
      <trkpt lat="43.68716" lon="5.78168">
        <ele>433</ele>
        <time>2016-02-20T08:51:45.918Z</time>
      </trkpt>
      <trkpt lat="43.68719" lon="5.78169">
        <ele>432</ele>
        <time>2016-02-20T08:51:46.871Z</time>
      </trkpt>
      <trkpt lat="43.68726" lon="5.78171">
        <ele>432</ele>
        <time>2016-02-20T08:51:49.528Z</time>
      </trkpt>
      <trkpt lat="43.68731" lon="5.78172">
        <ele>432</ele>
        <time>2016-02-20T08:51:49.839Z</time>
      </trkpt>
      <trkpt lat="43.6874" lon="5.78172">
        <ele>432</ele>
        <time>2016-02-20T08:51:51.913Z</time>
      </trkpt>
      <trkpt lat="43.68745" lon="5.78171">
        <ele>431</ele>
        <time>2016-02-20T08:51:52.861Z</time>
      </trkpt>
      <trkpt lat="43.6875" lon="5.78168">
        <ele>431</ele>
        <time>2016-02-20T08:51:53.911Z</time>
      </trkpt>
      <trkpt lat="43.68755" lon="5.78166">
        <ele>431</ele>
        <time>2016-02-20T08:51:54.856Z</time>
      </trkpt>
      <trkpt lat="43.68762" lon="5.78163">
        <ele>431</ele>
        <time>2016-02-20T08:51:56.913Z</time>
      </trkpt>
      <trkpt lat="43.68766" lon="5.78161">
        <ele>431</ele>
        <time>2016-02-20T08:51:57.864Z</time>
      </trkpt>
      <trkpt lat="43.68773" lon="5.78157">
        <ele>431</ele>
        <time>2016-02-20T08:51:59.935Z</time>
      </trkpt>
      <trkpt lat="43.68777" lon="5.78155">
        <ele>431</ele>
        <time>2016-02-20T08:52:00.859Z</time>
      </trkpt>
      <trkpt lat="43.68781" lon="5.78153">
        <ele>430</ele>
        <time>2016-02-20T08:52:01.912Z</time>
      </trkpt>
      <trkpt lat="43.68786" lon="5.78151">
        <ele>430</ele>
        <time>2016-02-20T08:52:02.862Z</time>
      </trkpt>
      <trkpt lat="43.68794" lon="5.78147">
        <ele>430</ele>
        <time>2016-02-20T08:52:04.921Z</time>
      </trkpt>
      <trkpt lat="43.68798" lon="5.78145">
        <ele>429</ele>
        <time>2016-02-20T08:52:05.856Z</time>
      </trkpt>
      <trkpt lat="43.68806" lon="5.78142">
        <ele>429</ele>
        <time>2016-02-20T08:52:07.911Z</time>
      </trkpt>
      <trkpt lat="43.6881" lon="5.78141">
        <ele>429</ele>
        <time>2016-02-20T08:52:08.864Z</time>
      </trkpt>
      <trkpt lat="43.68819" lon="5.78141">
        <ele>429</ele>
        <time>2016-02-20T08:52:10.911Z</time>
      </trkpt>
      <trkpt lat="43.68823" lon="5.78143">
        <ele>429</ele>
        <time>2016-02-20T08:52:11.858Z</time>
      </trkpt>
      <trkpt lat="43.6883" lon="5.78148">
        <ele>428</ele>
        <time>2016-02-20T08:52:13.913Z</time>
      </trkpt>
      <trkpt lat="43.68833" lon="5.78151">
        <ele>428</ele>
        <time>2016-02-20T08:52:14.839Z</time>
      </trkpt>
      <trkpt lat="43.68839" lon="5.78158">
        <ele>428</ele>
        <time>2016-02-20T08:52:16.913Z</time>
      </trkpt>
      <trkpt lat="43.68841" lon="5.78162">
        <ele>428</ele>
        <time>2016-02-20T08:52:17.862Z</time>
      </trkpt>
      <trkpt lat="43.68844" lon="5.78172">
        <ele>427</ele>
        <time>2016-02-20T08:52:19.955Z</time>
      </trkpt>
      <trkpt lat="43.68843" lon="5.78178">
        <ele>427</ele>
        <time>2016-02-20T08:52:20.854Z</time>
      </trkpt>
      <trkpt lat="43.68835" lon="5.78185">
        <ele>427</ele>
        <time>2016-02-20T08:52:21.908Z</time>
      </trkpt>
      <trkpt lat="43.68832" lon="5.78187">
        <ele>428</ele>
        <time>2016-02-20T08:52:22.854Z</time>
      </trkpt>
      <trkpt lat="43.68825" lon="5.78192">
        <ele>428</ele>
        <time>2016-02-20T08:52:24.866Z</time>
      </trkpt>
      <trkpt lat="43.68822" lon="5.78193">
        <ele>428</ele>
        <time>2016-02-20T08:52:25.845Z</time>
      </trkpt>
      <trkpt lat="43.68817" lon="5.78199">
        <ele>428</ele>
        <time>2016-02-20T08:52:28.023Z</time>
      </trkpt>
      <trkpt lat="43.68814" lon="5.78203">
        <ele>429</ele>
        <time>2016-02-20T08:52:28.861Z</time>
      </trkpt>
      <trkpt lat="43.68809" lon="5.7821">
        <ele>429</ele>
        <time>2016-02-20T08:52:30.939Z</time>
      </trkpt>
      <trkpt lat="43.68807" lon="5.78213">
        <ele>429</ele>
        <time>2016-02-20T08:52:31.857Z</time>
      </trkpt>
      <trkpt lat="43.68802" lon="5.78222">
        <ele>429</ele>
        <time>2016-02-20T08:52:33.909Z</time>
      </trkpt>
      <trkpt lat="43.688" lon="5.78226">
        <ele>429</ele>
        <time>2016-02-20T08:52:34.859Z</time>
      </trkpt>
      <trkpt lat="43.68796" lon="5.78234">
        <ele>430</ele>
        <time>2016-02-20T08:52:36.914Z</time>
      </trkpt>
      <trkpt lat="43.68793" lon="5.78238">
        <ele>430</ele>
        <time>2016-02-20T08:52:37.859Z</time>
      </trkpt>
      <trkpt lat="43.68788" lon="5.78245">
        <ele>430</ele>
        <time>2016-02-20T08:52:39.921Z</time>
      </trkpt>
      <trkpt lat="43.68786" lon="5.78248">
        <ele>430</ele>
        <time>2016-02-20T08:52:40.863Z</time>
      </trkpt>
      <trkpt lat="43.68781" lon="5.78256">
        <ele>430</ele>
        <time>2016-02-20T08:52:42.919Z</time>
      </trkpt>
      <trkpt lat="43.68778" lon="5.78259">
        <ele>431</ele>
        <time>2016-02-20T08:52:43.858Z</time>
      </trkpt>
      <trkpt lat="43.68772" lon="5.78266">
        <ele>431</ele>
        <time>2016-02-20T08:52:45.919Z</time>
      </trkpt>
      <trkpt lat="43.68769" lon="5.78269">
        <ele>431</ele>
        <time>2016-02-20T08:52:46.859Z</time>
      </trkpt>
      <trkpt lat="43.68762" lon="5.78276">
        <ele>431</ele>
        <time>2016-02-20T08:52:48.860Z</time>
      </trkpt>
      <trkpt lat="43.68759" lon="5.78279">
        <ele>431</ele>
        <time>2016-02-20T08:52:49.861Z</time>
      </trkpt>
      <trkpt lat="43.68752" lon="5.78286">
        <ele>430</ele>
        <time>2016-02-20T08:52:51.935Z</time>
      </trkpt>
      <trkpt lat="43.68747" lon="5.7829">
        <ele>430</ele>
        <time>2016-02-20T08:52:52.856Z</time>
      </trkpt>
      <trkpt lat="43.6874" lon="5.78297">
        <ele>430</ele>
        <time>2016-02-20T08:52:54.962Z</time>
      </trkpt>
      <trkpt lat="43.68736" lon="5.78301">
        <ele>430</ele>
        <time>2016-02-20T08:52:55.860Z</time>
      </trkpt>
      <trkpt lat="43.6873" lon="5.7831">
        <ele>431</ele>
        <time>2016-02-20T08:52:57.953Z</time>
      </trkpt>
      <trkpt lat="43.68729" lon="5.78315">
        <ele>431</ele>
        <time>2016-02-20T08:52:58.864Z</time>
      </trkpt>
      <trkpt lat="43.68726" lon="5.78326">
        <ele>431</ele>
        <time>2016-02-20T08:53:00.929Z</time>
      </trkpt>
      <trkpt lat="43.68726" lon="5.78331">
        <ele>431</ele>
        <time>2016-02-20T08:53:01.872Z</time>
      </trkpt>
      <trkpt lat="43.68726" lon="5.78337">
        <ele>430</ele>
        <time>2016-02-20T08:53:02.865Z</time>
      </trkpt>
      <trkpt lat="43.68727" lon="5.78344">
        <ele>431</ele>
        <time>2016-02-20T08:53:03.867Z</time>
      </trkpt>
      <trkpt lat="43.68729" lon="5.7835">
        <ele>431</ele>
        <time>2016-02-20T08:53:04.864Z</time>
      </trkpt>
      <trkpt lat="43.6873" lon="5.78356">
        <ele>430</ele>
        <time>2016-02-20T08:53:05.872Z</time>
      </trkpt>
      <trkpt lat="43.68734" lon="5.78367">
        <ele>430</ele>
        <time>2016-02-20T08:53:07.935Z</time>
      </trkpt>
      <trkpt lat="43.68736" lon="5.78372">
        <ele>430</ele>
        <time>2016-02-20T08:53:08.873Z</time>
      </trkpt>
      <trkpt lat="43.68741" lon="5.7838">
        <ele>430</ele>
        <time>2016-02-20T08:53:10.925Z</time>
      </trkpt>
      <trkpt lat="43.68744" lon="5.78384">
        <ele>430</ele>
        <time>2016-02-20T08:53:11.844Z</time>
      </trkpt>
      <trkpt lat="43.6875" lon="5.78392">
        <ele>430</ele>
        <time>2016-02-20T08:53:13.958Z</time>
      </trkpt>
      <trkpt lat="43.68754" lon="5.78396">
        <ele>429</ele>
        <time>2016-02-20T08:53:14.853Z</time>
      </trkpt>
      <trkpt lat="43.6876" lon="5.78404">
        <ele>429</ele>
        <time>2016-02-20T08:53:16.913Z</time>
      </trkpt>
      <trkpt lat="43.68763" lon="5.78408">
        <ele>430</ele>
        <time>2016-02-20T08:53:17.859Z</time>
      </trkpt>
      <trkpt lat="43.68768" lon="5.78416">
        <ele>428</ele>
        <time>2016-02-20T08:53:19.929Z</time>
      </trkpt>
      <trkpt lat="43.68771" lon="5.78421">
        <ele>429</ele>
        <time>2016-02-20T08:53:20.862Z</time>
      </trkpt>
      <trkpt lat="43.68776" lon="5.78431">
        <ele>428</ele>
        <time>2016-02-20T08:53:22.926Z</time>
      </trkpt>
      <trkpt lat="43.68777" lon="5.78436">
        <ele>428</ele>
        <time>2016-02-20T08:53:23.855Z</time>
      </trkpt>
      <trkpt lat="43.68779" lon="5.78442">
        <ele>428</ele>
        <time>2016-02-20T08:53:24.923Z</time>
      </trkpt>
      <trkpt lat="43.68779" lon="5.78449">
        <ele>428</ele>
        <time>2016-02-20T08:53:25.871Z</time>
      </trkpt>
      <trkpt lat="43.6878" lon="5.7846">
        <ele>428</ele>
        <time>2016-02-20T08:53:27.918Z</time>
      </trkpt>
      <trkpt lat="43.6878" lon="5.78467">
        <ele>428</ele>
        <time>2016-02-20T08:53:28.859Z</time>
      </trkpt>
      <trkpt lat="43.68782" lon="5.78477">
        <ele>429</ele>
        <time>2016-02-20T08:53:30.921Z</time>
      </trkpt>
      <trkpt lat="43.68784" lon="5.78482">
        <ele>429</ele>
        <time>2016-02-20T08:53:31.863Z</time>
      </trkpt>
      <trkpt lat="43.6879" lon="5.78491">
        <ele>429</ele>
        <time>2016-02-20T08:53:33.924Z</time>
      </trkpt>
      <trkpt lat="43.68792" lon="5.78495">
        <ele>429</ele>
        <time>2016-02-20T08:53:34.873Z</time>
      </trkpt>
      <trkpt lat="43.68798" lon="5.78503">
        <ele>429</ele>
        <time>2016-02-20T08:53:36.916Z</time>
      </trkpt>
      <trkpt lat="43.688" lon="5.78507">
        <ele>430</ele>
        <time>2016-02-20T08:53:37.863Z</time>
      </trkpt>
      <trkpt lat="43.68804" lon="5.78517">
        <ele>430</ele>
        <time>2016-02-20T08:53:39.917Z</time>
      </trkpt>
      <trkpt lat="43.68804" lon="5.78522">
        <ele>430</ele>
        <time>2016-02-20T08:53:40.861Z</time>
      </trkpt>
      <trkpt lat="43.68805" lon="5.78533">
        <ele>430</ele>
        <time>2016-02-20T08:53:42.915Z</time>
      </trkpt>
      <trkpt lat="43.68804" lon="5.78539">
        <ele>430</ele>
        <time>2016-02-20T08:53:43.865Z</time>
      </trkpt>
      <trkpt lat="43.68799" lon="5.78548">
        <ele>430</ele>
        <time>2016-02-20T08:53:46.046Z</time>
      </trkpt>
      <trkpt lat="43.68794" lon="5.78552">
        <ele>430</ele>
        <time>2016-02-20T08:53:46.851Z</time>
      </trkpt>
      <trkpt lat="43.68786" lon="5.78549">
        <ele>430</ele>
        <time>2016-02-20T08:53:47.925Z</time>
      </trkpt>
      <trkpt lat="43.68783" lon="5.78549">
        <ele>429</ele>
        <time>2016-02-20T08:53:48.873Z</time>
      </trkpt>
      <trkpt lat="43.68778" lon="5.78546">
        <ele>430</ele>
        <time>2016-02-20T08:53:49.921Z</time>
      </trkpt>
      <trkpt lat="43.68775" lon="5.78543">
        <ele>430</ele>
        <time>2016-02-20T08:53:50.857Z</time>
      </trkpt>
      <trkpt lat="43.68769" lon="5.78536">
        <ele>431</ele>
        <time>2016-02-20T08:53:52.939Z</time>
      </trkpt>
      <trkpt lat="43.68766" lon="5.78533">
        <ele>431</ele>
        <time>2016-02-20T08:53:53.866Z</time>
      </trkpt>
      <trkpt lat="43.6876" lon="5.78527">
        <ele>432</ele>
        <time>2016-02-20T08:53:55.927Z</time>
      </trkpt>
      <trkpt lat="43.68756" lon="5.78524">
        <ele>433</ele>
        <time>2016-02-20T08:53:56.860Z</time>
      </trkpt>
      <trkpt lat="43.68751" lon="5.78517">
        <ele>433</ele>
        <time>2016-02-20T08:53:58.924Z</time>
      </trkpt>
      <trkpt lat="43.68748" lon="5.78514">
        <ele>433</ele>
        <time>2016-02-20T08:53:59.861Z</time>
      </trkpt>
      <trkpt lat="43.68743" lon="5.78507">
        <ele>433</ele>
        <time>2016-02-20T08:54:01.918Z</time>
      </trkpt>
      <trkpt lat="43.6874" lon="5.78502">
        <ele>433</ele>
        <time>2016-02-20T08:54:02.859Z</time>
      </trkpt>
      <trkpt lat="43.68736" lon="5.78494">
        <ele>433</ele>
        <time>2016-02-20T08:54:04.911Z</time>
      </trkpt>
      <trkpt lat="43.68734" lon="5.78489">
        <ele>433</ele>
        <time>2016-02-20T08:54:05.857Z</time>
      </trkpt>
      <trkpt lat="43.68729" lon="5.78481">
        <ele>433</ele>
        <time>2016-02-20T08:54:07.970Z</time>
      </trkpt>
      <trkpt lat="43.68726" lon="5.78478">
        <ele>433</ele>
        <time>2016-02-20T08:54:08.850Z</time>
      </trkpt>
      <trkpt lat="43.6872" lon="5.78472">
        <ele>433</ele>
        <time>2016-02-20T08:54:10.918Z</time>
      </trkpt>
      <trkpt lat="43.68716" lon="5.7847">
        <ele>433</ele>
        <time>2016-02-20T08:54:11.860Z</time>
      </trkpt>
      <trkpt lat="43.68708" lon="5.78468">
        <ele>432</ele>
        <time>2016-02-20T08:54:13.922Z</time>
      </trkpt>
      <trkpt lat="43.68703" lon="5.78469">
        <ele>433</ele>
        <time>2016-02-20T08:54:14.861Z</time>
      </trkpt>
      <trkpt lat="43.68697" lon="5.78473">
        <ele>433</ele>
        <time>2016-02-20T08:54:15.917Z</time>
      </trkpt>
      <trkpt lat="43.68692" lon="5.78475">
        <ele>433</ele>
        <time>2016-02-20T08:54:16.861Z</time>
      </trkpt>
      <trkpt lat="43.68687" lon="5.78477">
        <ele>433</ele>
        <time>2016-02-20T08:54:17.921Z</time>
      </trkpt>
      <trkpt lat="43.68683" lon="5.7848">
        <ele>433</ele>
        <time>2016-02-20T08:54:18.838Z</time>
      </trkpt>
      <trkpt lat="43.68677" lon="5.78481">
        <ele>433</ele>
        <time>2016-02-20T08:54:19.922Z</time>
      </trkpt>
      <trkpt lat="43.68673" lon="5.78479">
        <ele>432</ele>
        <time>2016-02-20T08:54:20.865Z</time>
      </trkpt>
      <trkpt lat="43.68668" lon="5.78471">
        <ele>433</ele>
        <time>2016-02-20T08:54:22.968Z</time>
      </trkpt>
      <trkpt lat="43.68667" lon="5.78465">
        <ele>433</ele>
        <time>2016-02-20T08:54:23.859Z</time>
      </trkpt>
      <trkpt lat="43.68665" lon="5.78454">
        <ele>433</ele>
        <time>2016-02-20T08:54:25.918Z</time>
      </trkpt>
      <trkpt lat="43.68665" lon="5.78448">
        <ele>433</ele>
        <time>2016-02-20T08:54:26.859Z</time>
      </trkpt>
      <trkpt lat="43.68661" lon="5.78439">
        <ele>433</ele>
        <time>2016-02-20T08:54:28.910Z</time>
      </trkpt>
      <trkpt lat="43.68659" lon="5.78433">
        <ele>434</ele>
        <time>2016-02-20T08:54:29.873Z</time>
      </trkpt>
      <trkpt lat="43.68653" lon="5.78426">
        <ele>433</ele>
        <time>2016-02-20T08:54:31.924Z</time>
      </trkpt>
      <trkpt lat="43.68649" lon="5.78423">
        <ele>433</ele>
        <time>2016-02-20T08:54:32.857Z</time>
      </trkpt>
      <trkpt lat="43.68642" lon="5.78417">
        <ele>434</ele>
        <time>2016-02-20T08:54:34.928Z</time>
      </trkpt>
      <trkpt lat="43.68639" lon="5.78414">
        <ele>434</ele>
        <time>2016-02-20T08:54:35.865Z</time>
      </trkpt>
      <trkpt lat="43.68632" lon="5.7841">
        <ele>434</ele>
        <time>2016-02-20T08:54:37.919Z</time>
      </trkpt>
      <trkpt lat="43.68629" lon="5.78407">
        <ele>435</ele>
        <time>2016-02-20T08:54:38.864Z</time>
      </trkpt>
      <trkpt lat="43.68623" lon="5.78399">
        <ele>435</ele>
        <time>2016-02-20T08:54:40.979Z</time>
      </trkpt>
      <trkpt lat="43.68621" lon="5.78395">
        <ele>436</ele>
        <time>2016-02-20T08:54:41.858Z</time>
      </trkpt>
      <trkpt lat="43.68618" lon="5.78386">
        <ele>436</ele>
        <time>2016-02-20T08:54:43.916Z</time>
      </trkpt>
      <trkpt lat="43.68617" lon="5.78382">
        <ele>436</ele>
        <time>2016-02-20T08:54:44.862Z</time>
      </trkpt>
      <trkpt lat="43.68614" lon="5.78375">
        <ele>436</ele>
        <time>2016-02-20T08:54:46.910Z</time>
      </trkpt>
      <trkpt lat="43.68612" lon="5.78371">
        <ele>436</ele>
        <time>2016-02-20T08:54:47.870Z</time>
      </trkpt>
      <trkpt lat="43.68608" lon="5.78364">
        <ele>436</ele>
        <time>2016-02-20T08:54:49.918Z</time>
      </trkpt>
      <trkpt lat="43.68605" lon="5.7836">
        <ele>437</ele>
        <time>2016-02-20T08:54:50.862Z</time>
      </trkpt>
      <trkpt lat="43.686" lon="5.78354">
        <ele>437</ele>
        <time>2016-02-20T08:54:52.917Z</time>
      </trkpt>
      <trkpt lat="43.68597" lon="5.78351">
        <ele>437</ele>
        <time>2016-02-20T08:54:53.865Z</time>
      </trkpt>
      <trkpt lat="43.68591" lon="5.78346">
        <ele>437</ele>
        <time>2016-02-20T08:54:55.921Z</time>
      </trkpt>
      <trkpt lat="43.68587" lon="5.78343">
        <ele>437</ele>
        <time>2016-02-20T08:54:56.866Z</time>
      </trkpt>
      <trkpt lat="43.6858" lon="5.78338">
        <ele>437</ele>
        <time>2016-02-20T08:54:58.921Z</time>
      </trkpt>
      <trkpt lat="43.68576" lon="5.78336">
        <ele>437</ele>
        <time>2016-02-20T08:54:59.861Z</time>
      </trkpt>
      <trkpt lat="43.68569" lon="5.7833">
        <ele>437</ele>
        <time>2016-02-20T08:55:01.921Z</time>
      </trkpt>
      <trkpt lat="43.68565" lon="5.78328">
        <ele>437</ele>
        <time>2016-02-20T08:55:02.864Z</time>
      </trkpt>
      <trkpt lat="43.68557" lon="5.78324">
        <ele>437</ele>
        <time>2016-02-20T08:55:04.917Z</time>
      </trkpt>
      <trkpt lat="43.68554" lon="5.78322">
        <ele>437</ele>
        <time>2016-02-20T08:55:05.857Z</time>
      </trkpt>
      <trkpt lat="43.68545" lon="5.7832">
        <ele>437</ele>
        <time>2016-02-20T08:55:07.920Z</time>
      </trkpt>
      <trkpt lat="43.68542" lon="5.78319">
        <ele>438</ele>
        <time>2016-02-20T08:55:08.866Z</time>
      </trkpt>
      <trkpt lat="43.68534" lon="5.78317">
        <ele>438</ele>
        <time>2016-02-20T08:55:10.928Z</time>
      </trkpt>
      <trkpt lat="43.6853" lon="5.78316">
        <ele>438</ele>
        <time>2016-02-20T08:55:11.861Z</time>
      </trkpt>
      <trkpt lat="43.68523" lon="5.78315">
        <ele>439</ele>
        <time>2016-02-20T08:55:13.940Z</time>
      </trkpt>
      <trkpt lat="43.68519" lon="5.78314">
        <ele>439</ele>
        <time>2016-02-20T08:55:14.872Z</time>
      </trkpt>
      <trkpt lat="43.68513" lon="5.78312">
        <ele>439</ele>
        <time>2016-02-20T08:55:16.909Z</time>
      </trkpt>
      <trkpt lat="43.68509" lon="5.78311">
        <ele>439</ele>
        <time>2016-02-20T08:55:17.867Z</time>
      </trkpt>
      <trkpt lat="43.68503" lon="5.7831">
        <ele>440</ele>
        <time>2016-02-20T08:55:19.913Z</time>
      </trkpt>
      <trkpt lat="43.68499" lon="5.78309">
        <ele>440</ele>
        <time>2016-02-20T08:55:20.873Z</time>
      </trkpt>
      <trkpt lat="43.68492" lon="5.78308">
        <ele>440</ele>
        <time>2016-02-20T08:55:22.932Z</time>
      </trkpt>
      <trkpt lat="43.68489" lon="5.78308">
        <ele>441</ele>
        <time>2016-02-20T08:55:23.860Z</time>
      </trkpt>
      <trkpt lat="43.68482" lon="5.78309">
        <ele>441</ele>
        <time>2016-02-20T08:55:25.924Z</time>
      </trkpt>
      <trkpt lat="43.68478" lon="5.7831">
        <ele>441</ele>
        <time>2016-02-20T08:55:26.863Z</time>
      </trkpt>
      <trkpt lat="43.68471" lon="5.78313">
        <ele>441</ele>
        <time>2016-02-20T08:55:28.916Z</time>
      </trkpt>
      <trkpt lat="43.68468" lon="5.78315">
        <ele>442</ele>
        <time>2016-02-20T08:55:29.869Z</time>
      </trkpt>
      <trkpt lat="43.68462" lon="5.78321">
        <ele>442</ele>
        <time>2016-02-20T08:55:31.913Z</time>
      </trkpt>
      <trkpt lat="43.68459" lon="5.78324">
        <ele>443</ele>
        <time>2016-02-20T08:55:32.862Z</time>
      </trkpt>
      <trkpt lat="43.68453" lon="5.78329">
        <ele>442</ele>
        <time>2016-02-20T08:55:34.915Z</time>
      </trkpt>
      <trkpt lat="43.68449" lon="5.78332">
        <ele>443</ele>
        <time>2016-02-20T08:55:35.869Z</time>
      </trkpt>
      <trkpt lat="43.68443" lon="5.78337">
        <ele>443</ele>
        <time>2016-02-20T08:55:37.915Z</time>
      </trkpt>
      <trkpt lat="43.6844" lon="5.7834">
        <ele>443</ele>
        <time>2016-02-20T08:55:38.866Z</time>
      </trkpt>
      <trkpt lat="43.68433" lon="5.78344">
        <ele>443</ele>
        <time>2016-02-20T08:55:40.930Z</time>
      </trkpt>
      <trkpt lat="43.6843" lon="5.78346">
        <ele>443</ele>
        <time>2016-02-20T08:55:41.870Z</time>
      </trkpt>
      <trkpt lat="43.68423" lon="5.78351">
        <ele>444</ele>
        <time>2016-02-20T08:55:43.921Z</time>
      </trkpt>
      <trkpt lat="43.6842" lon="5.78353">
        <ele>444</ele>
        <time>2016-02-20T08:55:44.867Z</time>
      </trkpt>
      <trkpt lat="43.68414" lon="5.78357">
        <ele>444</ele>
        <time>2016-02-20T08:55:46.917Z</time>
      </trkpt>
      <trkpt lat="43.68411" lon="5.78359">
        <ele>445</ele>
        <time>2016-02-20T08:55:47.860Z</time>
      </trkpt>
      <trkpt lat="43.68405" lon="5.78364">
        <ele>444</ele>
        <time>2016-02-20T08:55:49.929Z</time>
      </trkpt>
      <trkpt lat="43.68403" lon="5.78367">
        <ele>444</ele>
        <time>2016-02-20T08:55:50.860Z</time>
      </trkpt>
      <trkpt lat="43.68399" lon="5.78374">
        <ele>445</ele>
        <time>2016-02-20T08:55:52.916Z</time>
      </trkpt>
      <trkpt lat="43.68398" lon="5.78378">
        <ele>445</ele>
        <time>2016-02-20T08:55:53.863Z</time>
      </trkpt>
      <trkpt lat="43.68397" lon="5.78388">
        <ele>445</ele>
        <time>2016-02-20T08:55:55.926Z</time>
      </trkpt>
      <trkpt lat="43.68397" lon="5.78392">
        <ele>444</ele>
        <time>2016-02-20T08:55:56.871Z</time>
      </trkpt>
      <trkpt lat="43.68398" lon="5.78402">
        <ele>444</ele>
        <time>2016-02-20T08:55:58.923Z</time>
      </trkpt>
      <trkpt lat="43.68399" lon="5.78407">
        <ele>444</ele>
        <time>2016-02-20T08:55:59.861Z</time>
      </trkpt>
      <trkpt lat="43.68401" lon="5.78416">
        <ele>444</ele>
        <time>2016-02-20T08:56:01.919Z</time>
      </trkpt>
      <trkpt lat="43.68403" lon="5.78421">
        <ele>444</ele>
        <time>2016-02-20T08:56:02.865Z</time>
      </trkpt>
      <trkpt lat="43.68406" lon="5.78432">
        <ele>444</ele>
        <time>2016-02-20T08:56:04.915Z</time>
      </trkpt>
      <trkpt lat="43.68408" lon="5.78438">
        <ele>444</ele>
        <time>2016-02-20T08:56:05.857Z</time>
      </trkpt>
      <trkpt lat="43.68412" lon="5.78448">
        <ele>444</ele>
        <time>2016-02-20T08:56:07.923Z</time>
      </trkpt>
      <trkpt lat="43.68414" lon="5.78454">
        <ele>444</ele>
        <time>2016-02-20T08:56:08.880Z</time>
      </trkpt>
      <trkpt lat="43.68419" lon="5.78464">
        <ele>443</ele>
        <time>2016-02-20T08:56:10.910Z</time>
      </trkpt>
      <trkpt lat="43.68421" lon="5.78469">
        <ele>443</ele>
        <time>2016-02-20T08:56:11.863Z</time>
      </trkpt>
      <trkpt lat="43.68426" lon="5.78478">
        <ele>443</ele>
        <time>2016-02-20T08:56:13.930Z</time>
      </trkpt>
      <trkpt lat="43.68428" lon="5.78483">
        <ele>443</ele>
        <time>2016-02-20T08:56:14.870Z</time>
      </trkpt>
      <trkpt lat="43.68432" lon="5.78492">
        <ele>443</ele>
        <time>2016-02-20T08:56:16.916Z</time>
      </trkpt>
      <trkpt lat="43.68433" lon="5.78497">
        <ele>444</ele>
        <time>2016-02-20T08:56:17.856Z</time>
      </trkpt>
      <trkpt lat="43.68437" lon="5.78506">
        <ele>443</ele>
        <time>2016-02-20T08:56:19.934Z</time>
      </trkpt>
      <trkpt lat="43.68439" lon="5.7851">
        <ele>443</ele>
        <time>2016-02-20T08:56:20.855Z</time>
      </trkpt>
      <trkpt lat="43.68443" lon="5.7852">
        <ele>443</ele>
        <time>2016-02-20T08:56:22.918Z</time>
      </trkpt>
      <trkpt lat="43.68444" lon="5.78525">
        <ele>443</ele>
        <time>2016-02-20T08:56:23.874Z</time>
      </trkpt>
      <trkpt lat="43.68446" lon="5.78535">
        <ele>444</ele>
        <time>2016-02-20T08:56:25.927Z</time>
      </trkpt>
      <trkpt lat="43.68447" lon="5.78541">
        <ele>443</ele>
        <time>2016-02-20T08:56:26.874Z</time>
      </trkpt>
      <trkpt lat="43.68446" lon="5.78552">
        <ele>444</ele>
        <time>2016-02-20T08:56:28.923Z</time>
      </trkpt>
      <trkpt lat="43.68445" lon="5.78558">
        <ele>444</ele>
        <time>2016-02-20T08:56:29.865Z</time>
      </trkpt>
      <trkpt lat="43.68442" lon="5.78567">
        <ele>444</ele>
        <time>2016-02-20T08:56:31.920Z</time>
      </trkpt>
      <trkpt lat="43.6844" lon="5.78572">
        <ele>444</ele>
        <time>2016-02-20T08:56:32.858Z</time>
      </trkpt>
      <trkpt lat="43.68436" lon="5.78581">
        <ele>445</ele>
        <time>2016-02-20T08:56:34.919Z</time>
      </trkpt>
      <trkpt lat="43.68434" lon="5.78585">
        <ele>445</ele>
        <time>2016-02-20T08:56:35.867Z</time>
      </trkpt>
      <trkpt lat="43.68429" lon="5.78594">
        <ele>445</ele>
        <time>2016-02-20T08:56:37.929Z</time>
      </trkpt>
      <trkpt lat="43.68427" lon="5.78597">
        <ele>445</ele>
        <time>2016-02-20T08:56:38.863Z</time>
      </trkpt>
      <trkpt lat="43.68423" lon="5.78606">
        <ele>445</ele>
        <time>2016-02-20T08:56:40.922Z</time>
      </trkpt>
      <trkpt lat="43.6842" lon="5.7861">
        <ele>445</ele>
        <time>2016-02-20T08:56:41.878Z</time>
      </trkpt>
      <trkpt lat="43.68415" lon="5.78618">
        <ele>446</ele>
        <time>2016-02-20T08:56:43.914Z</time>
      </trkpt>
      <trkpt lat="43.68412" lon="5.78621">
        <ele>446</ele>
        <time>2016-02-20T08:56:44.871Z</time>
      </trkpt>
      <trkpt lat="43.68406" lon="5.78629">
        <ele>446</ele>
        <time>2016-02-20T08:56:46.911Z</time>
      </trkpt>
      <trkpt lat="43.68403" lon="5.78633">
        <ele>446</ele>
        <time>2016-02-20T08:56:47.864Z</time>
      </trkpt>
      <trkpt lat="43.68397" lon="5.7864">
        <ele>447</ele>
        <time>2016-02-20T08:56:49.926Z</time>
      </trkpt>
      <trkpt lat="43.68394" lon="5.78643">
        <ele>446</ele>
        <time>2016-02-20T08:56:50.862Z</time>
      </trkpt>
      <trkpt lat="43.68388" lon="5.78651">
        <ele>446</ele>
        <time>2016-02-20T08:56:52.949Z</time>
      </trkpt>
      <trkpt lat="43.68385" lon="5.78656">
        <ele>446</ele>
        <time>2016-02-20T08:56:53.864Z</time>
      </trkpt>
      <trkpt lat="43.68382" lon="5.78665">
        <ele>446</ele>
        <time>2016-02-20T08:56:55.923Z</time>
      </trkpt>
      <trkpt lat="43.6838" lon="5.78671">
        <ele>446</ele>
        <time>2016-02-20T08:56:56.865Z</time>
      </trkpt>
      <trkpt lat="43.68378" lon="5.78682">
        <ele>446</ele>
        <time>2016-02-20T08:56:58.935Z</time>
      </trkpt>
      <trkpt lat="43.68376" lon="5.78688">
        <ele>445</ele>
        <time>2016-02-20T08:56:59.869Z</time>
      </trkpt>
      <trkpt lat="43.68375" lon="5.78694">
        <ele>445</ele>
        <time>2016-02-20T08:57:00.942Z</time>
      </trkpt>
      <trkpt lat="43.68373" lon="5.78702">
        <ele>445</ele>
        <time>2016-02-20T08:57:01.856Z</time>
      </trkpt>
      <trkpt lat="43.6837" lon="5.78708">
        <ele>444</ele>
        <time>2016-02-20T08:57:02.864Z</time>
      </trkpt>
      <trkpt lat="43.68367" lon="5.78715">
        <ele>444</ele>
        <time>2016-02-20T08:57:03.874Z</time>
      </trkpt>
      <trkpt lat="43.68365" lon="5.78722">
        <ele>444</ele>
        <time>2016-02-20T08:57:04.862Z</time>
      </trkpt>
      <trkpt lat="43.68362" lon="5.78728">
        <ele>444</ele>
        <time>2016-02-20T08:57:05.841Z</time>
      </trkpt>
      <trkpt lat="43.68359" lon="5.78736">
        <ele>444</ele>
        <time>2016-02-20T08:57:06.923Z</time>
      </trkpt>
      <trkpt lat="43.68356" lon="5.78743">
        <ele>444</ele>
        <time>2016-02-20T08:57:07.864Z</time>
      </trkpt>
      <trkpt lat="43.68355" lon="5.78749">
        <ele>444</ele>
        <time>2016-02-20T08:57:08.916Z</time>
      </trkpt>
      <trkpt lat="43.68353" lon="5.78756">
        <ele>444</ele>
        <time>2016-02-20T08:57:09.865Z</time>
      </trkpt>
      <trkpt lat="43.68351" lon="5.78763">
        <ele>444</ele>
        <time>2016-02-20T08:57:10.909Z</time>
      </trkpt>
      <trkpt lat="43.6835" lon="5.7877">
        <ele>443</ele>
        <time>2016-02-20T08:57:11.839Z</time>
      </trkpt>
      <trkpt lat="43.68349" lon="5.78777">
        <ele>443</ele>
        <time>2016-02-20T08:57:12.913Z</time>
      </trkpt>
      <trkpt lat="43.68349" lon="5.78783">
        <ele>443</ele>
        <time>2016-02-20T08:57:13.858Z</time>
      </trkpt>
      <trkpt lat="43.68349" lon="5.7879">
        <ele>443</ele>
        <time>2016-02-20T08:57:14.943Z</time>
      </trkpt>
      <trkpt lat="43.68348" lon="5.78797">
        <ele>443</ele>
        <time>2016-02-20T08:57:15.864Z</time>
      </trkpt>
      <trkpt lat="43.68347" lon="5.78804">
        <ele>443</ele>
        <time>2016-02-20T08:57:16.857Z</time>
      </trkpt>
      <trkpt lat="43.68347" lon="5.78812">
        <ele>442</ele>
        <time>2016-02-20T08:57:17.857Z</time>
      </trkpt>
      <trkpt lat="43.68347" lon="5.78818">
        <ele>442</ele>
        <time>2016-02-20T08:57:18.925Z</time>
      </trkpt>
      <trkpt lat="43.68347" lon="5.78826">
        <ele>442</ele>
        <time>2016-02-20T08:57:19.858Z</time>
      </trkpt>
      <trkpt lat="43.68348" lon="5.78834">
        <ele>443</ele>
        <time>2016-02-20T08:57:20.918Z</time>
      </trkpt>
      <trkpt lat="43.68348" lon="5.7884">
        <ele>442</ele>
        <time>2016-02-20T08:57:21.861Z</time>
      </trkpt>
      <trkpt lat="43.6835" lon="5.78847">
        <ele>442</ele>
        <time>2016-02-20T08:57:22.924Z</time>
      </trkpt>
      <trkpt lat="43.6835" lon="5.78852">
        <ele>443</ele>
        <time>2016-02-20T08:57:23.866Z</time>
      </trkpt>
      <trkpt lat="43.68351" lon="5.78859">
        <ele>443</ele>
        <time>2016-02-20T08:57:24.922Z</time>
      </trkpt>
      <trkpt lat="43.68352" lon="5.78865">
        <ele>443</ele>
        <time>2016-02-20T08:57:25.874Z</time>
      </trkpt>
      <trkpt lat="43.68355" lon="5.7887">
        <ele>443</ele>
        <time>2016-02-20T08:57:26.912Z</time>
      </trkpt>
      <trkpt lat="43.68356" lon="5.78876">
        <ele>443</ele>
        <time>2016-02-20T08:57:27.861Z</time>
      </trkpt>
      <trkpt lat="43.68362" lon="5.78884">
        <ele>443</ele>
        <time>2016-02-20T08:57:29.924Z</time>
      </trkpt>
      <trkpt lat="43.68365" lon="5.78888">
        <ele>443</ele>
        <time>2016-02-20T08:57:30.864Z</time>
      </trkpt>
      <trkpt lat="43.6837" lon="5.78892">
        <ele>443</ele>
        <time>2016-02-20T08:57:32.915Z</time>
      </trkpt>
      <trkpt lat="43.68374" lon="5.78894">
        <ele>443</ele>
        <time>2016-02-20T08:57:33.868Z</time>
      </trkpt>
      <trkpt lat="43.68381" lon="5.78897">
        <ele>443</ele>
        <time>2016-02-20T08:57:35.967Z</time>
      </trkpt>
      <trkpt lat="43.68384" lon="5.78897">
        <ele>444</ele>
        <time>2016-02-20T08:57:36.874Z</time>
      </trkpt>
      <trkpt lat="43.68392" lon="5.78898">
        <ele>444</ele>
        <time>2016-02-20T08:57:38.916Z</time>
      </trkpt>
      <trkpt lat="43.68396" lon="5.78897">
        <ele>444</ele>
        <time>2016-02-20T08:57:39.860Z</time>
      </trkpt>
      <trkpt lat="43.68403" lon="5.78895">
        <ele>444</ele>
        <time>2016-02-20T08:57:41.913Z</time>
      </trkpt>
      <trkpt lat="43.68407" lon="5.78894">
        <ele>444</ele>
        <time>2016-02-20T08:57:42.867Z</time>
      </trkpt>
      <trkpt lat="43.68414" lon="5.78891">
        <ele>444</ele>
        <time>2016-02-20T08:57:44.919Z</time>
      </trkpt>
      <trkpt lat="43.68417" lon="5.7889">
        <ele>444</ele>
        <time>2016-02-20T08:57:45.871Z</time>
      </trkpt>
      <trkpt lat="43.68424" lon="5.78888">
        <ele>444</ele>
        <time>2016-02-20T08:57:47.960Z</time>
      </trkpt>
      <trkpt lat="43.68427" lon="5.78887">
        <ele>444</ele>
        <time>2016-02-20T08:57:48.864Z</time>
      </trkpt>
      <trkpt lat="43.68434" lon="5.78885">
        <ele>443</ele>
        <time>2016-02-20T08:57:50.920Z</time>
      </trkpt>
      <trkpt lat="43.68438" lon="5.78885">
        <ele>443</ele>
        <time>2016-02-20T08:57:51.855Z</time>
      </trkpt>
      <trkpt lat="43.68445" lon="5.78883">
        <ele>442</ele>
        <time>2016-02-20T08:57:53.928Z</time>
      </trkpt>
      <trkpt lat="43.6845" lon="5.78882">
        <ele>442</ele>
        <time>2016-02-20T08:57:54.871Z</time>
      </trkpt>
      <trkpt lat="43.68457" lon="5.78883">
        <ele>441</ele>
        <time>2016-02-20T08:57:56.931Z</time>
      </trkpt>
      <trkpt lat="43.68462" lon="5.78885">
        <ele>441</ele>
        <time>2016-02-20T08:57:57.857Z</time>
      </trkpt>
      <trkpt lat="43.68468" lon="5.78891">
        <ele>441</ele>
        <time>2016-02-20T08:57:59.919Z</time>
      </trkpt>
      <trkpt lat="43.68471" lon="5.78896">
        <ele>440</ele>
        <time>2016-02-20T08:58:01.260Z</time>
      </trkpt>
      <trkpt lat="43.6847" lon="5.78907">
        <ele>441</ele>
        <time>2016-02-20T08:58:02.917Z</time>
      </trkpt>
      <trkpt lat="43.68468" lon="5.78912">
        <ele>441</ele>
        <time>2016-02-20T08:58:03.867Z</time>
      </trkpt>
      <trkpt lat="43.68462" lon="5.78921">
        <ele>442</ele>
        <time>2016-02-20T08:58:05.928Z</time>
      </trkpt>
      <trkpt lat="43.68459" lon="5.78925">
        <ele>443</ele>
        <time>2016-02-20T08:58:06.869Z</time>
      </trkpt>
      <trkpt lat="43.68453" lon="5.78932">
        <ele>443</ele>
        <time>2016-02-20T08:58:08.920Z</time>
      </trkpt>
      <trkpt lat="43.6845" lon="5.78935">
        <ele>444</ele>
        <time>2016-02-20T08:58:09.861Z</time>
      </trkpt>
      <trkpt lat="43.68444" lon="5.78942">
        <ele>444</ele>
        <time>2016-02-20T08:58:11.919Z</time>
      </trkpt>
      <trkpt lat="43.68442" lon="5.78945">
        <ele>444</ele>
        <time>2016-02-20T08:58:12.865Z</time>
      </trkpt>
      <trkpt lat="43.68436" lon="5.78952">
        <ele>445</ele>
        <time>2016-02-20T08:58:14.920Z</time>
      </trkpt>
      <trkpt lat="43.68434" lon="5.78956">
        <ele>445</ele>
        <time>2016-02-20T08:58:15.862Z</time>
      </trkpt>
      <trkpt lat="43.68428" lon="5.78963">
        <ele>445</ele>
        <time>2016-02-20T08:58:17.911Z</time>
      </trkpt>
      <trkpt lat="43.68424" lon="5.78968">
        <ele>445</ele>
        <time>2016-02-20T08:58:18.860Z</time>
      </trkpt>
      <trkpt lat="43.68417" lon="5.78975">
        <ele>444</ele>
        <time>2016-02-20T08:58:20.946Z</time>
      </trkpt>
      <trkpt lat="43.68413" lon="5.7898">
        <ele>444</ele>
        <time>2016-02-20T08:58:21.860Z</time>
      </trkpt>
      <trkpt lat="43.68409" lon="5.78984">
        <ele>444</ele>
        <time>2016-02-20T08:58:22.950Z</time>
      </trkpt>
      <trkpt lat="43.68406" lon="5.78988">
        <ele>444</ele>
        <time>2016-02-20T08:58:23.859Z</time>
      </trkpt>
      <trkpt lat="43.68403" lon="5.78993">
        <ele>444</ele>
        <time>2016-02-20T08:58:24.909Z</time>
      </trkpt>
      <trkpt lat="43.68399" lon="5.78997">
        <ele>444</ele>
        <time>2016-02-20T08:58:25.862Z</time>
      </trkpt>
      <trkpt lat="43.68395" lon="5.79001">
        <ele>443</ele>
        <time>2016-02-20T08:58:26.920Z</time>
      </trkpt>
      <trkpt lat="43.68391" lon="5.79005">
        <ele>443</ele>
        <time>2016-02-20T08:58:27.864Z</time>
      </trkpt>
      <trkpt lat="43.68387" lon="5.7901">
        <ele>443</ele>
        <time>2016-02-20T08:58:28.911Z</time>
      </trkpt>
      <trkpt lat="43.68382" lon="5.79015">
        <ele>442</ele>
        <time>2016-02-20T08:58:29.863Z</time>
      </trkpt>
      <trkpt lat="43.68378" lon="5.7902">
        <ele>442</ele>
        <time>2016-02-20T08:58:31.056Z</time>
      </trkpt>
      <trkpt lat="43.68374" lon="5.79026">
        <ele>441</ele>
        <time>2016-02-20T08:58:31.869Z</time>
      </trkpt>
      <trkpt lat="43.6837" lon="5.79033">
        <ele>440</ele>
        <time>2016-02-20T08:58:32.914Z</time>
      </trkpt>
      <trkpt lat="43.68367" lon="5.79039">
        <ele>440</ele>
        <time>2016-02-20T08:58:33.859Z</time>
      </trkpt>
      <trkpt lat="43.68362" lon="5.79046">
        <ele>440</ele>
        <time>2016-02-20T08:58:34.914Z</time>
      </trkpt>
      <trkpt lat="43.68358" lon="5.79052">
        <ele>439</ele>
        <time>2016-02-20T08:58:35.866Z</time>
      </trkpt>
      <trkpt lat="43.68355" lon="5.79059">
        <ele>439</ele>
        <time>2016-02-20T08:58:36.921Z</time>
      </trkpt>
      <trkpt lat="43.68351" lon="5.79066">
        <ele>439</ele>
        <time>2016-02-20T08:58:37.839Z</time>
      </trkpt>
      <trkpt lat="43.68348" lon="5.79073">
        <ele>439</ele>
        <time>2016-02-20T08:58:38.922Z</time>
      </trkpt>
      <trkpt lat="43.68347" lon="5.7908">
        <ele>440</ele>
        <time>2016-02-20T08:58:39.869Z</time>
      </trkpt>
      <trkpt lat="43.68346" lon="5.79087">
        <ele>439</ele>
        <time>2016-02-20T08:58:40.931Z</time>
      </trkpt>
      <trkpt lat="43.68346" lon="5.79094">
        <ele>440</ele>
        <time>2016-02-20T08:58:41.871Z</time>
      </trkpt>
      <trkpt lat="43.68345" lon="5.79101">
        <ele>440</ele>
        <time>2016-02-20T08:58:42.863Z</time>
      </trkpt>
      <trkpt lat="43.68345" lon="5.79107">
        <ele>440</ele>
        <time>2016-02-20T08:58:43.850Z</time>
      </trkpt>
      <trkpt lat="43.68345" lon="5.79114">
        <ele>440</ele>
        <time>2016-02-20T08:58:44.861Z</time>
      </trkpt>
      <trkpt lat="43.68346" lon="5.7912">
        <ele>440</ele>
        <time>2016-02-20T08:58:45.855Z</time>
      </trkpt>
      <trkpt lat="43.68348" lon="5.79131">
        <ele>439</ele>
        <time>2016-02-20T08:58:47.956Z</time>
      </trkpt>
      <trkpt lat="43.68349" lon="5.79138">
        <ele>439</ele>
        <time>2016-02-20T08:58:48.864Z</time>
      </trkpt>
      <trkpt lat="43.6835" lon="5.79143">
        <ele>438</ele>
        <time>2016-02-20T08:58:49.874Z</time>
      </trkpt>
      <trkpt lat="43.68354" lon="5.7915">
        <ele>438</ele>
        <time>2016-02-20T08:58:50.865Z</time>
      </trkpt>
      <trkpt lat="43.68357" lon="5.79156">
        <ele>437</ele>
        <time>2016-02-20T08:58:51.862Z</time>
      </trkpt>
      <trkpt lat="43.68362" lon="5.7916">
        <ele>437</ele>
        <time>2016-02-20T08:58:52.884Z</time>
      </trkpt>
      <trkpt lat="43.68366" lon="5.79165">
        <ele>436</ele>
        <time>2016-02-20T08:58:53.929Z</time>
      </trkpt>
      <trkpt lat="43.68371" lon="5.7917">
        <ele>437</ele>
        <time>2016-02-20T08:58:54.866Z</time>
      </trkpt>
      <trkpt lat="43.68377" lon="5.79173">
        <ele>436</ele>
        <time>2016-02-20T08:58:55.917Z</time>
      </trkpt>
      <trkpt lat="43.68382" lon="5.79177">
        <ele>436</ele>
        <time>2016-02-20T08:58:56.870Z</time>
      </trkpt>
      <trkpt lat="43.68386" lon="5.79181">
        <ele>436</ele>
        <time>2016-02-20T08:58:57.934Z</time>
      </trkpt>
      <trkpt lat="43.68391" lon="5.79184">
        <ele>436</ele>
        <time>2016-02-20T08:58:58.872Z</time>
      </trkpt>
      <trkpt lat="43.68398" lon="5.7919">
        <ele>436</ele>
        <time>2016-02-20T08:59:00.924Z</time>
      </trkpt>
      <trkpt lat="43.68403" lon="5.79194">
        <ele>436</ele>
        <time>2016-02-20T08:59:01.861Z</time>
      </trkpt>
      <trkpt lat="43.68407" lon="5.79197">
        <ele>436</ele>
        <time>2016-02-20T08:59:02.868Z</time>
      </trkpt>
      <trkpt lat="43.68411" lon="5.792">
        <ele>436</ele>
        <time>2016-02-20T08:59:03.867Z</time>
      </trkpt>
      <trkpt lat="43.68415" lon="5.79204">
        <ele>436</ele>
        <time>2016-02-20T08:59:04.921Z</time>
      </trkpt>
      <trkpt lat="43.68419" lon="5.79208">
        <ele>435</ele>
        <time>2016-02-20T08:59:05.866Z</time>
      </trkpt>
      <trkpt lat="43.68423" lon="5.79213">
        <ele>435</ele>
        <time>2016-02-20T08:59:06.925Z</time>
      </trkpt>
      <trkpt lat="43.68426" lon="5.79219">
        <ele>435</ele>
        <time>2016-02-20T08:59:07.865Z</time>
      </trkpt>
      <trkpt lat="43.68428" lon="5.79225">
        <ele>434</ele>
        <time>2016-02-20T08:59:08.903Z</time>
      </trkpt>
      <trkpt lat="43.68429" lon="5.79233">
        <ele>434</ele>
        <time>2016-02-20T08:59:09.872Z</time>
      </trkpt>
      <trkpt lat="43.68428" lon="5.7924">
        <ele>434</ele>
        <time>2016-02-20T08:59:10.876Z</time>
      </trkpt>
      <trkpt lat="43.68427" lon="5.79247">
        <ele>434</ele>
        <time>2016-02-20T08:59:11.871Z</time>
      </trkpt>
      <trkpt lat="43.68426" lon="5.79254">
        <ele>434</ele>
        <time>2016-02-20T08:59:12.860Z</time>
      </trkpt>
      <trkpt lat="43.68423" lon="5.7926">
        <ele>434</ele>
        <time>2016-02-20T08:59:13.859Z</time>
      </trkpt>
      <trkpt lat="43.6842" lon="5.79266">
        <ele>434</ele>
        <time>2016-02-20T08:59:14.913Z</time>
      </trkpt>
      <trkpt lat="43.68417" lon="5.7927">
        <ele>434</ele>
        <time>2016-02-20T08:59:15.866Z</time>
      </trkpt>
      <trkpt lat="43.68413" lon="5.79274">
        <ele>434</ele>
        <time>2016-02-20T08:59:16.916Z</time>
      </trkpt>
      <trkpt lat="43.6841" lon="5.79279">
        <ele>434</ele>
        <time>2016-02-20T08:59:17.875Z</time>
      </trkpt>
      <trkpt lat="43.68403" lon="5.79285">
        <ele>435</ele>
        <time>2016-02-20T08:59:19.914Z</time>
      </trkpt>
      <trkpt lat="43.684" lon="5.79289">
        <ele>435</ele>
        <time>2016-02-20T08:59:20.867Z</time>
      </trkpt>
      <trkpt lat="43.68393" lon="5.79297">
        <ele>435</ele>
        <time>2016-02-20T08:59:22.920Z</time>
      </trkpt>
      <trkpt lat="43.68391" lon="5.79302">
        <ele>435</ele>
        <time>2016-02-20T08:59:23.867Z</time>
      </trkpt>
      <trkpt lat="43.68388" lon="5.79307">
        <ele>435</ele>
        <time>2016-02-20T08:59:24.915Z</time>
      </trkpt>
      <trkpt lat="43.68387" lon="5.79313">
        <ele>435</ele>
        <time>2016-02-20T08:59:25.865Z</time>
      </trkpt>
      <trkpt lat="43.68388" lon="5.7932">
        <ele>435</ele>
        <time>2016-02-20T08:59:26.929Z</time>
      </trkpt>
      <trkpt lat="43.68389" lon="5.79326">
        <ele>435</ele>
        <time>2016-02-20T08:59:27.870Z</time>
      </trkpt>
      <trkpt lat="43.6839" lon="5.79334">
        <ele>435</ele>
        <time>2016-02-20T08:59:28.919Z</time>
      </trkpt>
      <trkpt lat="43.68391" lon="5.7934">
        <ele>435</ele>
        <time>2016-02-20T08:59:29.862Z</time>
      </trkpt>
      <trkpt lat="43.68391" lon="5.79348">
        <ele>434</ele>
        <time>2016-02-20T08:59:30.925Z</time>
      </trkpt>
      <trkpt lat="43.6839" lon="5.79354">
        <ele>434</ele>
        <time>2016-02-20T08:59:31.873Z</time>
      </trkpt>
      <trkpt lat="43.68388" lon="5.7936">
        <ele>435</ele>
        <time>2016-02-20T08:59:33.493Z</time>
      </trkpt>
      <trkpt lat="43.68387" lon="5.79366">
        <ele>435</ele>
        <time>2016-02-20T08:59:33.839Z</time>
      </trkpt>
      <trkpt lat="43.68385" lon="5.79376">
        <ele>435</ele>
        <time>2016-02-20T08:59:35.927Z</time>
      </trkpt>
      <trkpt lat="43.68384" lon="5.79383">
        <ele>436</ele>
        <time>2016-02-20T08:59:36.865Z</time>
      </trkpt>
      <trkpt lat="43.68386" lon="5.79393">
        <ele>435</ele>
        <time>2016-02-20T08:59:38.917Z</time>
      </trkpt>
      <trkpt lat="43.68389" lon="5.79399">
        <ele>435</ele>
        <time>2016-02-20T08:59:39.870Z</time>
      </trkpt>
      <trkpt lat="43.68393" lon="5.79409">
        <ele>436</ele>
        <time>2016-02-20T08:59:41.923Z</time>
      </trkpt>
      <trkpt lat="43.68395" lon="5.79414">
        <ele>436</ele>
        <time>2016-02-20T08:59:42.879Z</time>
      </trkpt>
      <trkpt lat="43.68396" lon="5.7942">
        <ele>436</ele>
        <time>2016-02-20T08:59:43.918Z</time>
      </trkpt>
      <trkpt lat="43.68396" lon="5.79426">
        <ele>436</ele>
        <time>2016-02-20T08:59:44.867Z</time>
      </trkpt>
      <trkpt lat="43.68394" lon="5.79437">
        <ele>437</ele>
        <time>2016-02-20T08:59:46.919Z</time>
      </trkpt>
      <trkpt lat="43.68392" lon="5.79442">
        <ele>436</ele>
        <time>2016-02-20T08:59:47.862Z</time>
      </trkpt>
      <trkpt lat="43.68388" lon="5.79451">
        <ele>437</ele>
        <time>2016-02-20T08:59:49.920Z</time>
      </trkpt>
      <trkpt lat="43.68385" lon="5.79455">
        <ele>437</ele>
        <time>2016-02-20T08:59:50.872Z</time>
      </trkpt>
      <trkpt lat="43.68382" lon="5.79464">
        <ele>437</ele>
        <time>2016-02-20T08:59:52.932Z</time>
      </trkpt>
      <trkpt lat="43.68381" lon="5.79469">
        <ele>437</ele>
        <time>2016-02-20T08:59:53.873Z</time>
      </trkpt>
      <trkpt lat="43.6838" lon="5.7948">
        <ele>437</ele>
        <time>2016-02-20T08:59:55.916Z</time>
      </trkpt>
      <trkpt lat="43.6838" lon="5.79484">
        <ele>437</ele>
        <time>2016-02-20T08:59:56.862Z</time>
      </trkpt>
      <trkpt lat="43.68383" lon="5.79494">
        <ele>437</ele>
        <time>2016-02-20T08:59:58.914Z</time>
      </trkpt>
      <trkpt lat="43.68385" lon="5.79499">
        <ele>438</ele>
        <time>2016-02-20T08:59:59.837Z</time>
      </trkpt>
      <trkpt lat="43.6839" lon="5.79507">
        <ele>437</ele>
        <time>2016-02-20T09:00:01.925Z</time>
      </trkpt>
      <trkpt lat="43.68393" lon="5.79511">
        <ele>437</ele>
        <time>2016-02-20T09:00:02.861Z</time>
      </trkpt>
      <trkpt lat="43.68399" lon="5.79518">
        <ele>437</ele>
        <time>2016-02-20T09:00:04.911Z</time>
      </trkpt>
      <trkpt lat="43.68401" lon="5.79522">
        <ele>437</ele>
        <time>2016-02-20T09:00:05.867Z</time>
      </trkpt>
      <trkpt lat="43.68406" lon="5.79531">
        <ele>437</ele>
        <time>2016-02-20T09:00:07.928Z</time>
      </trkpt>
      <trkpt lat="43.68408" lon="5.79535">
        <ele>438</ele>
        <time>2016-02-20T09:00:08.866Z</time>
      </trkpt>
      <trkpt lat="43.68412" lon="5.79544">
        <ele>438</ele>
        <time>2016-02-20T09:00:10.917Z</time>
      </trkpt>
      <trkpt lat="43.68414" lon="5.79549">
        <ele>438</ele>
        <time>2016-02-20T09:00:11.869Z</time>
      </trkpt>
      <trkpt lat="43.68417" lon="5.79557">
        <ele>438</ele>
        <time>2016-02-20T09:00:13.918Z</time>
      </trkpt>
      <trkpt lat="43.68419" lon="5.79561">
        <ele>438</ele>
        <time>2016-02-20T09:00:14.868Z</time>
      </trkpt>
      <trkpt lat="43.68423" lon="5.7957">
        <ele>438</ele>
        <time>2016-02-20T09:00:16.918Z</time>
      </trkpt>
      <trkpt lat="43.68425" lon="5.79574">
        <ele>438</ele>
        <time>2016-02-20T09:00:17.860Z</time>
      </trkpt>
      <trkpt lat="43.68428" lon="5.79583">
        <ele>438</ele>
        <time>2016-02-20T09:00:20.490Z</time>
      </trkpt>
      <trkpt lat="43.68429" lon="5.79587">
        <ele>438</ele>
        <time>2016-02-20T09:00:20.860Z</time>
      </trkpt>
      <trkpt lat="43.68431" lon="5.79597">
        <ele>438</ele>
        <time>2016-02-20T09:00:22.927Z</time>
      </trkpt>
      <trkpt lat="43.68432" lon="5.79601">
        <ele>438</ele>
        <time>2016-02-20T09:00:23.872Z</time>
      </trkpt>
      <trkpt lat="43.68433" lon="5.79611">
        <ele>438</ele>
        <time>2016-02-20T09:00:25.924Z</time>
      </trkpt>
      <trkpt lat="43.68433" lon="5.79617">
        <ele>439</ele>
        <time>2016-02-20T09:00:26.858Z</time>
      </trkpt>
      <trkpt lat="43.68432" lon="5.79628">
        <ele>438</ele>
        <time>2016-02-20T09:00:29.058Z</time>
      </trkpt>
      <trkpt lat="43.68431" lon="5.79634">
        <ele>438</ele>
        <time>2016-02-20T09:00:29.859Z</time>
      </trkpt>
      <trkpt lat="43.68427" lon="5.79644">
        <ele>439</ele>
        <time>2016-02-20T09:00:32.246Z</time>
      </trkpt>
      <trkpt lat="43.68425" lon="5.79649">
        <ele>439</ele>
        <time>2016-02-20T09:00:32.853Z</time>
      </trkpt>
      <trkpt lat="43.6842" lon="5.79658">
        <ele>439</ele>
        <time>2016-02-20T09:00:34.918Z</time>
      </trkpt>
      <trkpt lat="43.68418" lon="5.79663">
        <ele>439</ele>
        <time>2016-02-20T09:00:35.869Z</time>
      </trkpt>
      <trkpt lat="43.68415" lon="5.79673">
        <ele>438</ele>
        <time>2016-02-20T09:00:37.913Z</time>
      </trkpt>
      <trkpt lat="43.68414" lon="5.79678">
        <ele>438</ele>
        <time>2016-02-20T09:00:38.864Z</time>
      </trkpt>
      <trkpt lat="43.68417" lon="5.79689">
        <ele>438</ele>
        <time>2016-02-20T09:00:40.920Z</time>
      </trkpt>
      <trkpt lat="43.68419" lon="5.79693">
        <ele>437</ele>
        <time>2016-02-20T09:00:41.865Z</time>
      </trkpt>
      <trkpt lat="43.68424" lon="5.79695">
        <ele>437</ele>
        <time>2016-02-20T09:00:42.943Z</time>
      </trkpt>
      <trkpt lat="43.68433" lon="5.79692">
        <ele>436</ele>
        <time>2016-02-20T09:00:43.868Z</time>
      </trkpt>
      <trkpt lat="43.68437" lon="5.7969">
        <ele>436</ele>
        <time>2016-02-20T09:00:44.894Z</time>
      </trkpt>
      <trkpt lat="43.68444" lon="5.79687">
        <ele>435</ele>
        <time>2016-02-20T09:00:45.863Z</time>
      </trkpt>
      <trkpt lat="43.68449" lon="5.79684">
        <ele>435</ele>
        <time>2016-02-20T09:00:46.864Z</time>
      </trkpt>
      <trkpt lat="43.68455" lon="5.79681">
        <ele>434</ele>
        <time>2016-02-20T09:00:47.873Z</time>
      </trkpt>
      <trkpt lat="43.68462" lon="5.79678">
        <ele>434</ele>
        <time>2016-02-20T09:00:48.924Z</time>
      </trkpt>
      <trkpt lat="43.68467" lon="5.79676">
        <ele>433</ele>
        <time>2016-02-20T09:00:49.869Z</time>
      </trkpt>
      <trkpt lat="43.68474" lon="5.79672">
        <ele>433</ele>
        <time>2016-02-20T09:00:50.920Z</time>
      </trkpt>
      <trkpt lat="43.68479" lon="5.79669">
        <ele>433</ele>
        <time>2016-02-20T09:00:51.868Z</time>
      </trkpt>
      <trkpt lat="43.68485" lon="5.79667">
        <ele>433</ele>
        <time>2016-02-20T09:00:52.938Z</time>
      </trkpt>
      <trkpt lat="43.68491" lon="5.79664">
        <ele>432</ele>
        <time>2016-02-20T09:00:53.877Z</time>
      </trkpt>
      <trkpt lat="43.68496" lon="5.79662">
        <ele>432</ele>
        <time>2016-02-20T09:00:54.920Z</time>
      </trkpt>
      <trkpt lat="43.68501" lon="5.7966">
        <ele>431</ele>
        <time>2016-02-20T09:00:55.842Z</time>
      </trkpt>
      <trkpt lat="43.68507" lon="5.79658">
        <ele>431</ele>
        <time>2016-02-20T09:00:56.916Z</time>
      </trkpt>
      <trkpt lat="43.68511" lon="5.79656">
        <ele>431</ele>
        <time>2016-02-20T09:00:57.870Z</time>
      </trkpt>
      <trkpt lat="43.68517" lon="5.79655">
        <ele>431</ele>
        <time>2016-02-20T09:00:58.924Z</time>
      </trkpt>
      <trkpt lat="43.68521" lon="5.79654">
        <ele>431</ele>
        <time>2016-02-20T09:00:59.862Z</time>
      </trkpt>
      <trkpt lat="43.68526" lon="5.79652">
        <ele>431</ele>
        <time>2016-02-20T09:01:00.921Z</time>
      </trkpt>
      <trkpt lat="43.6853" lon="5.7965">
        <ele>431</ele>
        <time>2016-02-20T09:01:01.869Z</time>
      </trkpt>
      <trkpt lat="43.68539" lon="5.79647">
        <ele>431</ele>
        <time>2016-02-20T09:01:03.923Z</time>
      </trkpt>
      <trkpt lat="43.68544" lon="5.79644">
        <ele>431</ele>
        <time>2016-02-20T09:01:04.860Z</time>
      </trkpt>
      <trkpt lat="43.68548" lon="5.79643">
        <ele>431</ele>
        <time>2016-02-20T09:01:05.912Z</time>
      </trkpt>
      <trkpt lat="43.68553" lon="5.79641">
        <ele>431</ele>
        <time>2016-02-20T09:01:06.864Z</time>
      </trkpt>
      <trkpt lat="43.68558" lon="5.79641">
        <ele>431</ele>
        <time>2016-02-20T09:01:07.930Z</time>
      </trkpt>
      <trkpt lat="43.68563" lon="5.79644">
        <ele>431</ele>
        <time>2016-02-20T09:01:08.864Z</time>
      </trkpt>
      <trkpt lat="43.68568" lon="5.79649">
        <ele>431</ele>
        <time>2016-02-20T09:01:09.867Z</time>
      </trkpt>
      <trkpt lat="43.6857" lon="5.79654">
        <ele>431</ele>
        <time>2016-02-20T09:01:10.865Z</time>
      </trkpt>
      <trkpt lat="43.68572" lon="5.79661">
        <ele>432</ele>
        <time>2016-02-20T09:01:11.956Z</time>
      </trkpt>
      <trkpt lat="43.68573" lon="5.79668">
        <ele>432</ele>
        <time>2016-02-20T09:01:12.841Z</time>
      </trkpt>
      <trkpt lat="43.68572" lon="5.7968">
        <ele>432</ele>
        <time>2016-02-20T09:01:14.926Z</time>
      </trkpt>
      <trkpt lat="43.6857" lon="5.79686">
        <ele>432</ele>
        <time>2016-02-20T09:01:15.872Z</time>
      </trkpt>
      <trkpt lat="43.68566" lon="5.79697">
        <ele>432</ele>
        <time>2016-02-20T09:01:17.935Z</time>
      </trkpt>
      <trkpt lat="43.68564" lon="5.79701">
        <ele>432</ele>
        <time>2016-02-20T09:01:18.866Z</time>
      </trkpt>
      <trkpt lat="43.6856" lon="5.79712">
        <ele>431</ele>
        <time>2016-02-20T09:01:20.936Z</time>
      </trkpt>
      <trkpt lat="43.68558" lon="5.79717">
        <ele>431</ele>
        <time>2016-02-20T09:01:21.865Z</time>
      </trkpt>
      <trkpt lat="43.68556" lon="5.79722">
        <ele>431</ele>
        <time>2016-02-20T09:01:22.935Z</time>
      </trkpt>
      <trkpt lat="43.68553" lon="5.79728">
        <ele>431</ele>
        <time>2016-02-20T09:01:23.873Z</time>
      </trkpt>
      <trkpt lat="43.6855" lon="5.79733">
        <ele>431</ele>
        <time>2016-02-20T09:01:24.874Z</time>
      </trkpt>
      <trkpt lat="43.68547" lon="5.79738">
        <ele>431</ele>
        <time>2016-02-20T09:01:25.859Z</time>
      </trkpt>
      <trkpt lat="43.68541" lon="5.79746">
        <ele>432</ele>
        <time>2016-02-20T09:01:27.937Z</time>
      </trkpt>
      <trkpt lat="43.68537" lon="5.7975">
        <ele>432</ele>
        <time>2016-02-20T09:01:29.358Z</time>
      </trkpt>
      <trkpt lat="43.68531" lon="5.79758">
        <ele>433</ele>
        <time>2016-02-20T09:01:30.940Z</time>
      </trkpt>
      <trkpt lat="43.68528" lon="5.79761">
        <ele>434</ele>
        <time>2016-02-20T09:01:31.870Z</time>
      </trkpt>
      <trkpt lat="43.68522" lon="5.79768">
        <ele>435</ele>
        <time>2016-02-20T09:01:33.933Z</time>
      </trkpt>
      <trkpt lat="43.6852" lon="5.79771">
        <ele>435</ele>
        <time>2016-02-20T09:01:34.873Z</time>
      </trkpt>
      <trkpt lat="43.68515" lon="5.79779">
        <ele>435</ele>
        <time>2016-02-20T09:01:36.938Z</time>
      </trkpt>
      <trkpt lat="43.68514" lon="5.79784">
        <ele>436</ele>
        <time>2016-02-20T09:01:37.873Z</time>
      </trkpt>
      <trkpt lat="43.68512" lon="5.79793">
        <ele>436</ele>
        <time>2016-02-20T09:01:39.953Z</time>
      </trkpt>
      <trkpt lat="43.68512" lon="5.79798">
        <ele>436</ele>
        <time>2016-02-20T09:01:41.216Z</time>
      </trkpt>
      <trkpt lat="43.68514" lon="5.79808">
        <ele>436</ele>
        <time>2016-02-20T09:01:42.978Z</time>
      </trkpt>
      <trkpt lat="43.68515" lon="5.79812">
        <ele>436</ele>
        <time>2016-02-20T09:01:43.866Z</time>
      </trkpt>
      <trkpt lat="43.6852" lon="5.79821">
        <ele>436</ele>
        <time>2016-02-20T09:01:45.941Z</time>
      </trkpt>
      <trkpt lat="43.68523" lon="5.79826">
        <ele>435</ele>
        <time>2016-02-20T09:01:46.863Z</time>
      </trkpt>
      <trkpt lat="43.68527" lon="5.79831">
        <ele>435</ele>
        <time>2016-02-20T09:01:47.926Z</time>
      </trkpt>
      <trkpt lat="43.68531" lon="5.79836">
        <ele>435</ele>
        <time>2016-02-20T09:01:48.861Z</time>
      </trkpt>
      <trkpt lat="43.68535" lon="5.79842">
        <ele>435</ele>
        <time>2016-02-20T09:01:49.868Z</time>
      </trkpt>
      <trkpt lat="43.68538" lon="5.79846">
        <ele>435</ele>
        <time>2016-02-20T09:01:50.865Z</time>
      </trkpt>
      <trkpt lat="43.68542" lon="5.79851">
        <ele>435</ele>
        <time>2016-02-20T09:01:52.138Z</time>
      </trkpt>
      <trkpt lat="43.68546" lon="5.79856">
        <ele>435</ele>
        <time>2016-02-20T09:01:52.866Z</time>
      </trkpt>
      <trkpt lat="43.68548" lon="5.79861">
        <ele>435</ele>
        <time>2016-02-20T09:01:53.956Z</time>
      </trkpt>
      <trkpt lat="43.68551" lon="5.79866">
        <ele>435</ele>
        <time>2016-02-20T09:01:54.880Z</time>
      </trkpt>
      <trkpt lat="43.68556" lon="5.79876">
        <ele>435</ele>
        <time>2016-02-20T09:01:56.959Z</time>
      </trkpt>
      <trkpt lat="43.68558" lon="5.79882">
        <ele>435</ele>
        <time>2016-02-20T09:01:57.864Z</time>
      </trkpt>
      <trkpt lat="43.68562" lon="5.79892">
        <ele>435</ele>
        <time>2016-02-20T09:01:59.939Z</time>
      </trkpt>
      <trkpt lat="43.68563" lon="5.79898">
        <ele>435</ele>
        <time>2016-02-20T09:02:00.860Z</time>
      </trkpt>
      <trkpt lat="43.68565" lon="5.79909">
        <ele>436</ele>
        <time>2016-02-20T09:02:03.517Z</time>
      </trkpt>
      <trkpt lat="43.68566" lon="5.79915">
        <ele>435</ele>
        <time>2016-02-20T09:02:03.839Z</time>
      </trkpt>
      <trkpt lat="43.68567" lon="5.79926">
        <ele>435</ele>
        <time>2016-02-20T09:02:05.930Z</time>
      </trkpt>
      <trkpt lat="43.68568" lon="5.79931">
        <ele>435</ele>
        <time>2016-02-20T09:02:06.859Z</time>
      </trkpt>
      <trkpt lat="43.68569" lon="5.79943">
        <ele>435</ele>
        <time>2016-02-20T09:02:08.948Z</time>
      </trkpt>
      <trkpt lat="43.68569" lon="5.79948">
        <ele>435</ele>
        <time>2016-02-20T09:02:09.873Z</time>
      </trkpt>
      <trkpt lat="43.68569" lon="5.79959">
        <ele>434</ele>
        <time>2016-02-20T09:02:11.932Z</time>
      </trkpt>
      <trkpt lat="43.68568" lon="5.79965">
        <ele>434</ele>
        <time>2016-02-20T09:02:12.864Z</time>
      </trkpt>
      <trkpt lat="43.68568" lon="5.79976">
        <ele>434</ele>
        <time>2016-02-20T09:02:15.251Z</time>
      </trkpt>
      <trkpt lat="43.68567" lon="5.79982">
        <ele>434</ele>
        <time>2016-02-20T09:02:15.856Z</time>
      </trkpt>
      <trkpt lat="43.68565" lon="5.79993">
        <ele>434</ele>
        <time>2016-02-20T09:02:17.944Z</time>
      </trkpt>
      <trkpt lat="43.68565" lon="5.79999">
        <ele>434</ele>
        <time>2016-02-20T09:02:18.863Z</time>
      </trkpt>
      <trkpt lat="43.68564" lon="5.80011">
        <ele>434</ele>
        <time>2016-02-20T09:02:20.947Z</time>
      </trkpt>
      <trkpt lat="43.68564" lon="5.80019">
        <ele>434</ele>
        <time>2016-02-20T09:02:21.864Z</time>
      </trkpt>
      <trkpt lat="43.68566" lon="5.8003">
        <ele>434</ele>
        <time>2016-02-20T09:02:23.936Z</time>
      </trkpt>
      <trkpt lat="43.68568" lon="5.80036">
        <ele>434</ele>
        <time>2016-02-20T09:02:24.859Z</time>
      </trkpt>
      <trkpt lat="43.68571" lon="5.8004">
        <ele>434</ele>
        <time>2016-02-20T09:02:25.986Z</time>
      </trkpt>
      <trkpt lat="43.68574" lon="5.80045">
        <ele>433</ele>
        <time>2016-02-20T09:02:26.865Z</time>
      </trkpt>
      <trkpt lat="43.68577" lon="5.8005">
        <ele>433</ele>
        <time>2016-02-20T09:02:27.870Z</time>
      </trkpt>
      <trkpt lat="43.68579" lon="5.80055">
        <ele>433</ele>
        <time>2016-02-20T09:02:28.879Z</time>
      </trkpt>
      <trkpt lat="43.6858" lon="5.80062">
        <ele>432</ele>
        <time>2016-02-20T09:02:29.934Z</time>
      </trkpt>
      <trkpt lat="43.68578" lon="5.80069">
        <ele>432</ele>
        <time>2016-02-20T09:02:30.866Z</time>
      </trkpt>
      <trkpt lat="43.68574" lon="5.80073">
        <ele>432</ele>
        <time>2016-02-20T09:02:31.861Z</time>
      </trkpt>
      <trkpt lat="43.68569" lon="5.80076">
        <ele>432</ele>
        <time>2016-02-20T09:02:32.859Z</time>
      </trkpt>
      <trkpt lat="43.68563" lon="5.80077">
        <ele>432</ele>
        <time>2016-02-20T09:02:33.870Z</time>
      </trkpt>
      <trkpt lat="43.68558" lon="5.80076">
        <ele>432</ele>
        <time>2016-02-20T09:02:34.863Z</time>
      </trkpt>
      <trkpt lat="43.68553" lon="5.80074">
        <ele>432</ele>
        <time>2016-02-20T09:02:35.947Z</time>
      </trkpt>
      <trkpt lat="43.68548" lon="5.80071">
        <ele>432</ele>
        <time>2016-02-20T09:02:36.862Z</time>
      </trkpt>
      <trkpt lat="43.68543" lon="5.80069">
        <ele>432</ele>
        <time>2016-02-20T09:02:38.496Z</time>
      </trkpt>
      <trkpt lat="43.6854" lon="5.80065">
        <ele>432</ele>
        <time>2016-02-20T09:02:38.843Z</time>
      </trkpt>
      <trkpt lat="43.68536" lon="5.8006">
        <ele>432</ele>
        <time>2016-02-20T09:02:39.942Z</time>
      </trkpt>
      <trkpt lat="43.68533" lon="5.80054">
        <ele>433</ele>
        <time>2016-02-20T09:02:40.865Z</time>
      </trkpt>
      <trkpt lat="43.68529" lon="5.80049">
        <ele>432</ele>
        <time>2016-02-20T09:02:41.878Z</time>
      </trkpt>
      <trkpt lat="43.68525" lon="5.80044">
        <ele>432</ele>
        <time>2016-02-20T09:02:42.859Z</time>
      </trkpt>
      <trkpt lat="43.68521" lon="5.80033">
        <ele>432</ele>
        <time>2016-02-20T09:02:44.940Z</time>
      </trkpt>
      <trkpt lat="43.68519" lon="5.80028">
        <ele>432</ele>
        <time>2016-02-20T09:02:45.862Z</time>
      </trkpt>
      <trkpt lat="43.68516" lon="5.80017">
        <ele>433</ele>
        <time>2016-02-20T09:02:47.970Z</time>
      </trkpt>
      <trkpt lat="43.68514" lon="5.80011">
        <ele>433</ele>
        <time>2016-02-20T09:02:48.859Z</time>
      </trkpt>
      <trkpt lat="43.68512" lon="5.80001">
        <ele>434</ele>
        <time>2016-02-20T09:02:50.871Z</time>
      </trkpt>
      <trkpt lat="43.68511" lon="5.79996">
        <ele>433</ele>
        <time>2016-02-20T09:02:51.874Z</time>
      </trkpt>
      <trkpt lat="43.68508" lon="5.79985">
        <ele>434</ele>
        <time>2016-02-20T09:02:53.941Z</time>
      </trkpt>
      <trkpt lat="43.68507" lon="5.7998">
        <ele>434</ele>
        <time>2016-02-20T09:02:54.864Z</time>
      </trkpt>
      <trkpt lat="43.68504" lon="5.79969">
        <ele>435</ele>
        <time>2016-02-20T09:02:56.952Z</time>
      </trkpt>
      <trkpt lat="43.68503" lon="5.79964">
        <ele>435</ele>
        <time>2016-02-20T09:02:57.864Z</time>
      </trkpt>
      <trkpt lat="43.68499" lon="5.79955">
        <ele>435</ele>
        <time>2016-02-20T09:02:59.943Z</time>
      </trkpt>
      <trkpt lat="43.68497" lon="5.7995">
        <ele>436</ele>
        <time>2016-02-20T09:03:00.860Z</time>
      </trkpt>
      <trkpt lat="43.68492" lon="5.79942">
        <ele>436</ele>
        <time>2016-02-20T09:03:02.927Z</time>
      </trkpt>
      <trkpt lat="43.68489" lon="5.79937">
        <ele>436</ele>
        <time>2016-02-20T09:03:03.864Z</time>
      </trkpt>
      <trkpt lat="43.68485" lon="5.79929">
        <ele>436</ele>
        <time>2016-02-20T09:03:05.945Z</time>
      </trkpt>
      <trkpt lat="43.68482" lon="5.79925">
        <ele>436</ele>
        <time>2016-02-20T09:03:06.865Z</time>
      </trkpt>
      <trkpt lat="43.68477" lon="5.79918">
        <ele>436</ele>
        <time>2016-02-20T09:03:08.941Z</time>
      </trkpt>
      <trkpt lat="43.68474" lon="5.79914">
        <ele>436</ele>
        <time>2016-02-20T09:03:09.873Z</time>
      </trkpt>
      <trkpt lat="43.68468" lon="5.79908">
        <ele>436</ele>
        <time>2016-02-20T09:03:11.940Z</time>
      </trkpt>
      <trkpt lat="43.68465" lon="5.79905">
        <ele>436</ele>
        <time>2016-02-20T09:03:12.865Z</time>
      </trkpt>
      <trkpt lat="43.68458" lon="5.79899">
        <ele>437</ele>
        <time>2016-02-20T09:03:14.914Z</time>
      </trkpt>
      <trkpt lat="43.68455" lon="5.79897">
        <ele>437</ele>
        <time>2016-02-20T09:03:15.844Z</time>
      </trkpt>
      <trkpt lat="43.68448" lon="5.79891">
        <ele>438</ele>
        <time>2016-02-20T09:03:17.931Z</time>
      </trkpt>
      <trkpt lat="43.68445" lon="5.79889">
        <ele>438</ele>
        <time>2016-02-20T09:03:18.902Z</time>
      </trkpt>
      <trkpt lat="43.68438" lon="5.79885">
        <ele>438</ele>
        <time>2016-02-20T09:03:20.910Z</time>
      </trkpt>
      <trkpt lat="43.68434" lon="5.79884">
        <ele>438</ele>
        <time>2016-02-20T09:03:21.842Z</time>
      </trkpt>
      <trkpt lat="43.68426" lon="5.79884">
        <ele>437</ele>
        <time>2016-02-20T09:03:23.936Z</time>
      </trkpt>
      <trkpt lat="43.68423" lon="5.79885">
        <ele>439</ele>
        <time>2016-02-20T09:03:24.865Z</time>
      </trkpt>
      <trkpt lat="43.68416" lon="5.79887">
        <ele>440</ele>
        <time>2016-02-20T09:03:26.936Z</time>
      </trkpt>
      <trkpt lat="43.68412" lon="5.79889">
        <ele>440</ele>
        <time>2016-02-20T09:03:27.863Z</time>
      </trkpt>
      <trkpt lat="43.68404" lon="5.79893">
        <ele>440</ele>
        <time>2016-02-20T09:03:29.934Z</time>
      </trkpt>
      <trkpt lat="43.684" lon="5.79895">
        <ele>440</ele>
        <time>2016-02-20T09:03:30.866Z</time>
      </trkpt>
      <trkpt lat="43.68393" lon="5.799">
        <ele>440</ele>
        <time>2016-02-20T09:03:32.942Z</time>
      </trkpt>
      <trkpt lat="43.68389" lon="5.79903">
        <ele>440</ele>
        <time>2016-02-20T09:03:33.865Z</time>
      </trkpt>
      <trkpt lat="43.68382" lon="5.79907">
        <ele>440</ele>
        <time>2016-02-20T09:03:35.941Z</time>
      </trkpt>
      <trkpt lat="43.68378" lon="5.79911">
        <ele>440</ele>
        <time>2016-02-20T09:03:36.870Z</time>
      </trkpt>
      <trkpt lat="43.68371" lon="5.79917">
        <ele>440</ele>
        <time>2016-02-20T09:03:38.939Z</time>
      </trkpt>
      <trkpt lat="43.68367" lon="5.79921">
        <ele>439</ele>
        <time>2016-02-20T09:03:39.863Z</time>
      </trkpt>
      <trkpt lat="43.68363" lon="5.79925">
        <ele>439</ele>
        <time>2016-02-20T09:03:40.938Z</time>
      </trkpt>
      <trkpt lat="43.6836" lon="5.79929">
        <ele>439</ele>
        <time>2016-02-20T09:03:41.865Z</time>
      </trkpt>
      <trkpt lat="43.68356" lon="5.79933">
        <ele>439</ele>
        <time>2016-02-20T09:03:42.938Z</time>
      </trkpt>
      <trkpt lat="43.68352" lon="5.79937">
        <ele>438</ele>
        <time>2016-02-20T09:03:43.859Z</time>
      </trkpt>
      <trkpt lat="43.68348" lon="5.79941">
        <ele>438</ele>
        <time>2016-02-20T09:03:44.939Z</time>
      </trkpt>
      <trkpt lat="43.68345" lon="5.79946">
        <ele>438</ele>
        <time>2016-02-20T09:03:45.859Z</time>
      </trkpt>
      <trkpt lat="43.68341" lon="5.7995">
        <ele>438</ele>
        <time>2016-02-20T09:03:46.944Z</time>
      </trkpt>
      <trkpt lat="43.68338" lon="5.79954">
        <ele>438</ele>
        <time>2016-02-20T09:03:47.875Z</time>
      </trkpt>
      <trkpt lat="43.68333" lon="5.79963">
        <ele>438</ele>
        <time>2016-02-20T09:03:49.872Z</time>
      </trkpt>
      <trkpt lat="43.6833" lon="5.79967">
        <ele>438</ele>
        <time>2016-02-20T09:03:50.865Z</time>
      </trkpt>
      <trkpt lat="43.68326" lon="5.79977">
        <ele>438</ele>
        <time>2016-02-20T09:03:52.944Z</time>
      </trkpt>
      <trkpt lat="43.68324" lon="5.79982">
        <ele>438</ele>
        <time>2016-02-20T09:03:53.863Z</time>
      </trkpt>
      <trkpt lat="43.68321" lon="5.79992">
        <ele>438</ele>
        <time>2016-02-20T09:03:55.960Z</time>
      </trkpt>
      <trkpt lat="43.68319" lon="5.79997">
        <ele>438</ele>
        <time>2016-02-20T09:03:56.862Z</time>
      </trkpt>
      <trkpt lat="43.68318" lon="5.80009">
        <ele>438</ele>
        <time>2016-02-20T09:03:58.954Z</time>
      </trkpt>
      <trkpt lat="43.68317" lon="5.80015">
        <ele>438</ele>
        <time>2016-02-20T09:03:59.861Z</time>
      </trkpt>
      <trkpt lat="43.68316" lon="5.80025">
        <ele>438</ele>
        <time>2016-02-20T09:04:01.937Z</time>
      </trkpt>
      <trkpt lat="43.68316" lon="5.80031">
        <ele>437</ele>
        <time>2016-02-20T09:04:02.874Z</time>
      </trkpt>
      <trkpt lat="43.68317" lon="5.80041">
        <ele>437</ele>
        <time>2016-02-20T09:04:04.936Z</time>
      </trkpt>
      <trkpt lat="43.68318" lon="5.80046">
        <ele>436</ele>
        <time>2016-02-20T09:04:05.860Z</time>
      </trkpt>
      <trkpt lat="43.68323" lon="5.80056">
        <ele>436</ele>
        <time>2016-02-20T09:04:08.945Z</time>
      </trkpt>
      <trkpt lat="43.68326" lon="5.80057">
        <ele>436</ele>
        <time>2016-02-20T09:04:09.874Z</time>
      </trkpt>
      <trkpt lat="43.68318" lon="5.80058">
        <ele>436</ele>
        <time>2016-02-20T09:12:25.929Z</time>
      </trkpt>
      <trkpt lat="43.68315" lon="5.80058">
        <ele>436</ele>
        <time>2016-02-20T09:12:26.863Z</time>
      </trkpt>
      <trkpt lat="43.68307" lon="5.80055">
        <ele>436</ele>
        <time>2016-02-20T09:12:30.930Z</time>
      </trkpt>
      <trkpt lat="43.68305" lon="5.80053">
        <ele>436</ele>
        <time>2016-02-20T09:12:31.869Z</time>
      </trkpt>
      <trkpt lat="43.68299" lon="5.80048">
        <ele>435</ele>
        <time>2016-02-20T09:12:34.926Z</time>
      </trkpt>
      <trkpt lat="43.68296" lon="5.80046">
        <ele>436</ele>
        <time>2016-02-20T09:12:35.866Z</time>
      </trkpt>
      <trkpt lat="43.68291" lon="5.8004">
        <ele>435</ele>
        <time>2016-02-20T09:12:37.935Z</time>
      </trkpt>
      <trkpt lat="43.68289" lon="5.80037">
        <ele>435</ele>
        <time>2016-02-20T09:12:38.879Z</time>
      </trkpt>
      <trkpt lat="43.68284" lon="5.80029">
        <ele>434</ele>
        <time>2016-02-20T09:12:40.927Z</time>
      </trkpt>
      <trkpt lat="43.68282" lon="5.80025">
        <ele>434</ele>
        <time>2016-02-20T09:12:41.866Z</time>
      </trkpt>
      <trkpt lat="43.68278" lon="5.80015">
        <ele>435</ele>
        <time>2016-02-20T09:12:43.919Z</time>
      </trkpt>
      <trkpt lat="43.68276" lon="5.8001">
        <ele>434</ele>
        <time>2016-02-20T09:12:44.865Z</time>
      </trkpt>
      <trkpt lat="43.68272" lon="5.79999">
        <ele>435</ele>
        <time>2016-02-20T09:12:46.919Z</time>
      </trkpt>
      <trkpt lat="43.6827" lon="5.79994">
        <ele>435</ele>
        <time>2016-02-20T09:12:47.846Z</time>
      </trkpt>
      <trkpt lat="43.68265" lon="5.79985">
        <ele>435</ele>
        <time>2016-02-20T09:12:49.918Z</time>
      </trkpt>
      <trkpt lat="43.68263" lon="5.79981">
        <ele>435</ele>
        <time>2016-02-20T09:12:50.885Z</time>
      </trkpt>
      <trkpt lat="43.68259" lon="5.79975">
        <ele>435</ele>
        <time>2016-02-20T09:12:52.921Z</time>
      </trkpt>
      <trkpt lat="43.68257" lon="5.79972">
        <ele>435</ele>
        <time>2016-02-20T09:12:53.868Z</time>
      </trkpt>
      <trkpt lat="43.68252" lon="5.79966">
        <ele>435</ele>
        <time>2016-02-20T09:12:55.922Z</time>
      </trkpt>
      <trkpt lat="43.68249" lon="5.79962">
        <ele>434</ele>
        <time>2016-02-20T09:12:56.876Z</time>
      </trkpt>
      <trkpt lat="43.68243" lon="5.79954">
        <ele>433</ele>
        <time>2016-02-20T09:12:58.932Z</time>
      </trkpt>
      <trkpt lat="43.68239" lon="5.79949">
        <ele>433</ele>
        <time>2016-02-20T09:12:59.870Z</time>
      </trkpt>
      <trkpt lat="43.68236" lon="5.79944">
        <ele>433</ele>
        <time>2016-02-20T09:13:00.864Z</time>
      </trkpt>
      <trkpt lat="43.68233" lon="5.79938">
        <ele>432</ele>
        <time>2016-02-20T09:13:01.870Z</time>
      </trkpt>
      <trkpt lat="43.68229" lon="5.79931">
        <ele>432</ele>
        <time>2016-02-20T09:13:02.911Z</time>
      </trkpt>
      <trkpt lat="43.68226" lon="5.79925">
        <ele>431</ele>
        <time>2016-02-20T09:13:03.869Z</time>
      </trkpt>
      <trkpt lat="43.68223" lon="5.79917">
        <ele>431</ele>
        <time>2016-02-20T09:13:04.869Z</time>
      </trkpt>
      <trkpt lat="43.6822" lon="5.79911">
        <ele>431</ele>
        <time>2016-02-20T09:13:05.868Z</time>
      </trkpt>
      <trkpt lat="43.68216" lon="5.79904">
        <ele>430</ele>
        <time>2016-02-20T09:13:06.923Z</time>
      </trkpt>
      <trkpt lat="43.68213" lon="5.79897">
        <ele>429</ele>
        <time>2016-02-20T09:13:07.860Z</time>
      </trkpt>
      <trkpt lat="43.68209" lon="5.7989">
        <ele>428</ele>
        <time>2016-02-20T09:13:08.929Z</time>
      </trkpt>
      <trkpt lat="43.68205" lon="5.79882">
        <ele>428</ele>
        <time>2016-02-20T09:13:09.868Z</time>
      </trkpt>
      <trkpt lat="43.68202" lon="5.79874">
        <ele>427</ele>
        <time>2016-02-20T09:13:10.922Z</time>
      </trkpt>
      <trkpt lat="43.68198" lon="5.79865">
        <ele>426</ele>
        <time>2016-02-20T09:13:11.868Z</time>
      </trkpt>
      <trkpt lat="43.68195" lon="5.79854">
        <ele>425</ele>
        <time>2016-02-20T09:13:13.529Z</time>
      </trkpt>
      <trkpt lat="43.68192" lon="5.79845">
        <ele>424</ele>
        <time>2016-02-20T09:13:13.868Z</time>
      </trkpt>
      <trkpt lat="43.68188" lon="5.79834">
        <ele>423</ele>
        <time>2016-02-20T09:13:15.075Z</time>
      </trkpt>
      <trkpt lat="43.68184" lon="5.79824">
        <ele>422</ele>
        <time>2016-02-20T09:13:15.847Z</time>
      </trkpt>
      <trkpt lat="43.68184" lon="5.79824">
        <ele>422</ele>
        <time>2016-02-20T09:13:15.875Z</time>
      </trkpt>
      <trkpt lat="43.6818" lon="5.79812">
        <ele>423</ele>
        <time>2016-02-20T09:13:16.887Z</time>
      </trkpt>
      <trkpt lat="43.68174" lon="5.79803">
        <ele>421</ele>
        <time>2016-02-20T09:13:17.900Z</time>
      </trkpt>
      <trkpt lat="43.6817" lon="5.79793">
        <ele>420</ele>
        <time>2016-02-20T09:13:18.853Z</time>
      </trkpt>
      <trkpt lat="43.68165" lon="5.79784">
        <ele>419</ele>
        <time>2016-02-20T09:13:19.939Z</time>
      </trkpt>
      <trkpt lat="43.68162" lon="5.79775">
        <ele>418</ele>
        <time>2016-02-20T09:13:20.911Z</time>
      </trkpt>
      <trkpt lat="43.68158" lon="5.79765">
        <ele>418</ele>
        <time>2016-02-20T09:13:21.910Z</time>
      </trkpt>
      <trkpt lat="43.68154" lon="5.79754">
        <ele>417</ele>
        <time>2016-02-20T09:13:22.904Z</time>
      </trkpt>
      <trkpt lat="43.6815" lon="5.79744">
        <ele>416</ele>
        <time>2016-02-20T09:13:23.879Z</time>
      </trkpt>
      <trkpt lat="43.68146" lon="5.79733">
        <ele>415</ele>
        <time>2016-02-20T09:13:24.871Z</time>
      </trkpt>
      <trkpt lat="43.68146" lon="5.79733">
        <ele>415</ele>
        <time>2016-02-20T09:13:24.921Z</time>
      </trkpt>
      <trkpt lat="43.68141" lon="5.79721">
        <ele>414</ele>
        <time>2016-02-20T09:13:25.887Z</time>
      </trkpt>
      <trkpt lat="43.68135" lon="5.79712">
        <ele>414</ele>
        <time>2016-02-20T09:13:26.920Z</time>
      </trkpt>
      <trkpt lat="43.68128" lon="5.79705">
        <ele>413</ele>
        <time>2016-02-20T09:13:27.877Z</time>
      </trkpt>
      <trkpt lat="43.68128" lon="5.79705">
        <ele>413</ele>
        <time>2016-02-20T09:13:27.951Z</time>
      </trkpt>
      <trkpt lat="43.6812" lon="5.79696">
        <ele>412</ele>
        <time>2016-02-20T09:13:28.877Z</time>
      </trkpt>
      <trkpt lat="43.68114" lon="5.79688">
        <ele>411</ele>
        <time>2016-02-20T09:13:29.931Z</time>
      </trkpt>
      <trkpt lat="43.68107" lon="5.79679">
        <ele>410</ele>
        <time>2016-02-20T09:13:30.866Z</time>
      </trkpt>
      <trkpt lat="43.68102" lon="5.79669">
        <ele>410</ele>
        <time>2016-02-20T09:13:31.917Z</time>
      </trkpt>
      <trkpt lat="43.68098" lon="5.79658">
        <ele>409</ele>
        <time>2016-02-20T09:13:32.865Z</time>
      </trkpt>
      <trkpt lat="43.68098" lon="5.79658">
        <ele>409</ele>
        <time>2016-02-20T09:13:33.501Z</time>
      </trkpt>
      <trkpt lat="43.68095" lon="5.79645">
        <ele>409</ele>
        <time>2016-02-20T09:13:33.845Z</time>
      </trkpt>
      <trkpt lat="43.68092" lon="5.79634">
        <ele>408</ele>
        <time>2016-02-20T09:13:34.935Z</time>
      </trkpt>
      <trkpt lat="43.68088" lon="5.79623">
        <ele>407</ele>
        <time>2016-02-20T09:13:35.875Z</time>
      </trkpt>
      <trkpt lat="43.68088" lon="5.79623">
        <ele>407</ele>
        <time>2016-02-20T09:13:35.927Z</time>
      </trkpt>
      <trkpt lat="43.68082" lon="5.79612">
        <ele>407</ele>
        <time>2016-02-20T09:13:36.863Z</time>
      </trkpt>
      <trkpt lat="43.68076" lon="5.79606">
        <ele>406</ele>
        <time>2016-02-20T09:13:37.912Z</time>
      </trkpt>
      <trkpt lat="43.68067" lon="5.796">
        <ele>405</ele>
        <time>2016-02-20T09:13:38.872Z</time>
      </trkpt>
      <trkpt lat="43.68059" lon="5.79598">
        <ele>405</ele>
        <time>2016-02-20T09:13:39.956Z</time>
      </trkpt>
      <trkpt lat="43.68051" lon="5.79594">
        <ele>404</ele>
        <time>2016-02-20T09:13:40.869Z</time>
      </trkpt>
      <trkpt lat="43.68044" lon="5.79588">
        <ele>404</ele>
        <time>2016-02-20T09:13:41.918Z</time>
      </trkpt>
      <trkpt lat="43.68037" lon="5.79583">
        <ele>403</ele>
        <time>2016-02-20T09:13:42.866Z</time>
      </trkpt>
      <trkpt lat="43.6803" lon="5.79576">
        <ele>402</ele>
        <time>2016-02-20T09:13:43.866Z</time>
      </trkpt>
      <trkpt lat="43.68023" lon="5.79569">
        <ele>401</ele>
        <time>2016-02-20T09:13:44.880Z</time>
      </trkpt>
      <trkpt lat="43.68018" lon="5.7956">
        <ele>400</ele>
        <time>2016-02-20T09:13:45.946Z</time>
      </trkpt>
      <trkpt lat="43.68015" lon="5.79548">
        <ele>399</ele>
        <time>2016-02-20T09:13:46.870Z</time>
      </trkpt>
      <trkpt lat="43.68013" lon="5.79536">
        <ele>398</ele>
        <time>2016-02-20T09:13:47.868Z</time>
      </trkpt>
      <trkpt lat="43.68014" lon="5.79526">
        <ele>398</ele>
        <time>2016-02-20T09:13:48.867Z</time>
      </trkpt>
      <trkpt lat="43.68015" lon="5.79518">
        <ele>398</ele>
        <time>2016-02-20T09:13:49.866Z</time>
      </trkpt>
      <trkpt lat="43.68018" lon="5.7951">
        <ele>397</ele>
        <time>2016-02-20T09:13:50.866Z</time>
      </trkpt>
      <trkpt lat="43.68019" lon="5.79503">
        <ele>397</ele>
        <time>2016-02-20T09:13:51.920Z</time>
      </trkpt>
      <trkpt lat="43.68019" lon="5.79496">
        <ele>397</ele>
        <time>2016-02-20T09:13:52.867Z</time>
      </trkpt>
      <trkpt lat="43.68014" lon="5.79488">
        <ele>396</ele>
        <time>2016-02-20T09:13:55.493Z</time>
      </trkpt>
      <trkpt lat="43.68011" lon="5.79485">
        <ele>396</ele>
        <time>2016-02-20T09:13:55.868Z</time>
      </trkpt>
      <trkpt lat="43.68006" lon="5.79483">
        <ele>396</ele>
        <time>2016-02-20T09:13:56.921Z</time>
      </trkpt>
      <trkpt lat="43.68001" lon="5.79482">
        <ele>396</ele>
        <time>2016-02-20T09:13:57.866Z</time>
      </trkpt>
      <trkpt lat="43.67996" lon="5.7948">
        <ele>396</ele>
        <time>2016-02-20T09:13:58.918Z</time>
      </trkpt>
      <trkpt lat="43.67991" lon="5.79479">
        <ele>395</ele>
        <time>2016-02-20T09:13:59.867Z</time>
      </trkpt>
      <trkpt lat="43.67982" lon="5.7948">
        <ele>395</ele>
        <time>2016-02-20T09:14:01.959Z</time>
      </trkpt>
      <trkpt lat="43.67978" lon="5.79479">
        <ele>395</ele>
        <time>2016-02-20T09:14:02.859Z</time>
      </trkpt>
      <trkpt lat="43.6797" lon="5.79479">
        <ele>396</ele>
        <time>2016-02-20T09:14:04.919Z</time>
      </trkpt>
      <trkpt lat="43.67965" lon="5.7948">
        <ele>395</ele>
        <time>2016-02-20T09:14:05.865Z</time>
      </trkpt>
      <trkpt lat="43.67961" lon="5.79482">
        <ele>395</ele>
        <time>2016-02-20T09:14:06.867Z</time>
      </trkpt>
      <trkpt lat="43.67956" lon="5.79484">
        <ele>395</ele>
        <time>2016-02-20T09:14:07.874Z</time>
      </trkpt>
      <trkpt lat="43.67951" lon="5.79485">
        <ele>395</ele>
        <time>2016-02-20T09:14:08.930Z</time>
      </trkpt>
      <trkpt lat="43.67947" lon="5.79487">
        <ele>396</ele>
        <time>2016-02-20T09:14:09.867Z</time>
      </trkpt>
      <trkpt lat="43.67939" lon="5.79491">
        <ele>396</ele>
        <time>2016-02-20T09:14:11.922Z</time>
      </trkpt>
      <trkpt lat="43.67936" lon="5.79492">
        <ele>396</ele>
        <time>2016-02-20T09:14:12.862Z</time>
      </trkpt>
      <trkpt lat="43.67929" lon="5.79494">
        <ele>398</ele>
        <time>2016-02-20T09:14:14.925Z</time>
      </trkpt>
      <trkpt lat="43.67926" lon="5.79495">
        <ele>398</ele>
        <time>2016-02-20T09:14:15.868Z</time>
      </trkpt>
      <trkpt lat="43.67917" lon="5.79498">
        <ele>399</ele>
        <time>2016-02-20T09:14:18.866Z</time>
      </trkpt>
      <trkpt lat="43.67915" lon="5.79499">
        <ele>399</ele>
        <time>2016-02-20T09:14:19.874Z</time>
      </trkpt>
      <trkpt lat="43.67911" lon="5.79508">
        <ele>399</ele>
        <time>2016-02-20T09:14:23.921Z</time>
      </trkpt>
      <trkpt lat="43.6791" lon="5.79511">
        <ele>399</ele>
        <time>2016-02-20T09:14:24.869Z</time>
      </trkpt>
      <trkpt lat="43.67907" lon="5.79522">
        <ele>400</ele>
        <time>2016-02-20T09:14:28.928Z</time>
      </trkpt>
      <trkpt lat="43.67907" lon="5.79525">
        <ele>400</ele>
        <time>2016-02-20T09:14:29.863Z</time>
      </trkpt>
      <trkpt lat="43.67905" lon="5.79537">
        <ele>400</ele>
        <time>2016-02-20T09:14:32.933Z</time>
      </trkpt>
      <trkpt lat="43.67904" lon="5.7954">
        <ele>400</ele>
        <time>2016-02-20T09:14:33.870Z</time>
      </trkpt>
      <trkpt lat="43.67902" lon="5.79551">
        <ele>401</ele>
        <time>2016-02-20T09:14:36.913Z</time>
      </trkpt>
      <trkpt lat="43.67901" lon="5.79555">
        <ele>401</ele>
        <time>2016-02-20T09:14:37.868Z</time>
      </trkpt>
      <trkpt lat="43.67899" lon="5.79566">
        <ele>401</ele>
        <time>2016-02-20T09:14:40.915Z</time>
      </trkpt>
      <trkpt lat="43.67898" lon="5.7957">
        <ele>401</ele>
        <time>2016-02-20T09:14:41.865Z</time>
      </trkpt>
      <trkpt lat="43.67896" lon="5.79581">
        <ele>402</ele>
        <time>2016-02-20T09:14:44.917Z</time>
      </trkpt>
      <trkpt lat="43.67895" lon="5.79585">
        <ele>402</ele>
        <time>2016-02-20T09:14:45.869Z</time>
      </trkpt>
      <trkpt lat="43.67893" lon="5.79597">
        <ele>402</ele>
        <time>2016-02-20T09:14:48.927Z</time>
      </trkpt>
      <trkpt lat="43.67893" lon="5.79601">
        <ele>402</ele>
        <time>2016-02-20T09:14:49.867Z</time>
      </trkpt>
      <trkpt lat="43.6789" lon="5.79612">
        <ele>402</ele>
        <time>2016-02-20T09:14:52.913Z</time>
      </trkpt>
      <trkpt lat="43.67889" lon="5.79616">
        <ele>402</ele>
        <time>2016-02-20T09:14:53.868Z</time>
      </trkpt>
      <trkpt lat="43.67887" lon="5.79628">
        <ele>402</ele>
        <time>2016-02-20T09:14:56.939Z</time>
      </trkpt>
      <trkpt lat="43.67886" lon="5.79632">
        <ele>402</ele>
        <time>2016-02-20T09:14:57.870Z</time>
      </trkpt>
      <trkpt lat="43.67884" lon="5.7964">
        <ele>402</ele>
        <time>2016-02-20T09:14:59.926Z</time>
      </trkpt>
      <trkpt lat="43.67883" lon="5.79644">
        <ele>402</ele>
        <time>2016-02-20T09:15:00.852Z</time>
      </trkpt>
      <trkpt lat="43.67881" lon="5.79653">
        <ele>403</ele>
        <time>2016-02-20T09:15:02.930Z</time>
      </trkpt>
      <trkpt lat="43.6788" lon="5.79657">
        <ele>402</ele>
        <time>2016-02-20T09:15:03.870Z</time>
      </trkpt>
      <trkpt lat="43.67879" lon="5.79666">
        <ele>402</ele>
        <time>2016-02-20T09:15:05.916Z</time>
      </trkpt>
      <trkpt lat="43.67878" lon="5.79671">
        <ele>402</ele>
        <time>2016-02-20T09:15:06.869Z</time>
      </trkpt>
      <trkpt lat="43.67876" lon="5.7968">
        <ele>402</ele>
        <time>2016-02-20T09:15:08.922Z</time>
      </trkpt>
      <trkpt lat="43.67875" lon="5.79685">
        <ele>402</ele>
        <time>2016-02-20T09:15:09.869Z</time>
      </trkpt>
      <trkpt lat="43.67874" lon="5.79694">
        <ele>402</ele>
        <time>2016-02-20T09:15:11.922Z</time>
      </trkpt>
      <trkpt lat="43.67874" lon="5.79699">
        <ele>402</ele>
        <time>2016-02-20T09:15:12.868Z</time>
      </trkpt>
      <trkpt lat="43.67873" lon="5.79709">
        <ele>402</ele>
        <time>2016-02-20T09:15:14.929Z</time>
      </trkpt>
      <trkpt lat="43.67874" lon="5.79713">
        <ele>403</ele>
        <time>2016-02-20T09:15:15.874Z</time>
      </trkpt>
      <trkpt lat="43.67875" lon="5.79723">
        <ele>403</ele>
        <time>2016-02-20T09:15:17.937Z</time>
      </trkpt>
      <trkpt lat="43.67876" lon="5.79727">
        <ele>403</ele>
        <time>2016-02-20T09:15:19.320Z</time>
      </trkpt>
      <trkpt lat="43.67879" lon="5.79735">
        <ele>403</ele>
        <time>2016-02-20T09:15:20.919Z</time>
      </trkpt>
      <trkpt lat="43.6788" lon="5.79739">
        <ele>403</ele>
        <time>2016-02-20T09:15:21.868Z</time>
      </trkpt>
      <trkpt lat="43.67883" lon="5.79748">
        <ele>403</ele>
        <time>2016-02-20T09:15:23.925Z</time>
      </trkpt>
      <trkpt lat="43.67884" lon="5.79752">
        <ele>403</ele>
        <time>2016-02-20T09:15:24.863Z</time>
      </trkpt>
      <trkpt lat="43.67886" lon="5.79761">
        <ele>403</ele>
        <time>2016-02-20T09:15:26.918Z</time>
      </trkpt>
      <trkpt lat="43.67887" lon="5.79766">
        <ele>403</ele>
        <time>2016-02-20T09:15:27.868Z</time>
      </trkpt>
      <trkpt lat="43.67889" lon="5.79775">
        <ele>403</ele>
        <time>2016-02-20T09:15:29.955Z</time>
      </trkpt>
      <trkpt lat="43.67889" lon="5.7978">
        <ele>403</ele>
        <time>2016-02-20T09:15:30.846Z</time>
      </trkpt>
      <trkpt lat="43.6789" lon="5.79789">
        <ele>403</ele>
        <time>2016-02-20T09:15:32.920Z</time>
      </trkpt>
      <trkpt lat="43.6789" lon="5.79794">
        <ele>403</ele>
        <time>2016-02-20T09:15:33.868Z</time>
      </trkpt>
      <trkpt lat="43.67889" lon="5.79802">
        <ele>403</ele>
        <time>2016-02-20T09:15:35.921Z</time>
      </trkpt>
      <trkpt lat="43.67888" lon="5.79807">
        <ele>403</ele>
        <time>2016-02-20T09:15:36.871Z</time>
      </trkpt>
      <trkpt lat="43.67886" lon="5.79816">
        <ele>403</ele>
        <time>2016-02-20T09:15:38.946Z</time>
      </trkpt>
      <trkpt lat="43.67885" lon="5.7982">
        <ele>403</ele>
        <time>2016-02-20T09:15:39.867Z</time>
      </trkpt>
      <trkpt lat="43.67882" lon="5.79828">
        <ele>403</ele>
        <time>2016-02-20T09:15:41.906Z</time>
      </trkpt>
      <trkpt lat="43.6788" lon="5.79832">
        <ele>403</ele>
        <time>2016-02-20T09:15:42.868Z</time>
      </trkpt>
      <trkpt lat="43.67876" lon="5.79839">
        <ele>403</ele>
        <time>2016-02-20T09:15:44.916Z</time>
      </trkpt>
      <trkpt lat="43.67874" lon="5.79842">
        <ele>403</ele>
        <time>2016-02-20T09:15:45.871Z</time>
      </trkpt>
      <trkpt lat="43.67869" lon="5.79848">
        <ele>403</ele>
        <time>2016-02-20T09:15:47.917Z</time>
      </trkpt>
      <trkpt lat="43.67866" lon="5.79851">
        <ele>403</ele>
        <time>2016-02-20T09:15:48.867Z</time>
      </trkpt>
      <trkpt lat="43.6786" lon="5.79856">
        <ele>404</ele>
        <time>2016-02-20T09:15:50.921Z</time>
      </trkpt>
      <trkpt lat="43.67857" lon="5.79859">
        <ele>404</ele>
        <time>2016-02-20T09:15:51.884Z</time>
      </trkpt>
      <trkpt lat="43.6785" lon="5.79863">
        <ele>404</ele>
        <time>2016-02-20T09:15:53.928Z</time>
      </trkpt>
      <trkpt lat="43.67847" lon="5.79865">
        <ele>404</ele>
        <time>2016-02-20T09:15:54.852Z</time>
      </trkpt>
      <trkpt lat="43.6784" lon="5.79869">
        <ele>403</ele>
        <time>2016-02-20T09:15:56.917Z</time>
      </trkpt>
      <trkpt lat="43.67837" lon="5.79871">
        <ele>404</ele>
        <time>2016-02-20T09:15:57.869Z</time>
      </trkpt>
      <trkpt lat="43.67831" lon="5.79875">
        <ele>404</ele>
        <time>2016-02-20T09:15:59.866Z</time>
      </trkpt>
      <trkpt lat="43.67828" lon="5.79877">
        <ele>404</ele>
        <time>2016-02-20T09:16:00.868Z</time>
      </trkpt>
      <trkpt lat="43.67821" lon="5.79882">
        <ele>404</ele>
        <time>2016-02-20T09:16:02.944Z</time>
      </trkpt>
      <trkpt lat="43.67818" lon="5.79884">
        <ele>404</ele>
        <time>2016-02-20T09:16:03.871Z</time>
      </trkpt>
      <trkpt lat="43.67812" lon="5.79888">
        <ele>405</ele>
        <time>2016-02-20T09:16:06.506Z</time>
      </trkpt>
      <trkpt lat="43.67809" lon="5.7989">
        <ele>405</ele>
        <time>2016-02-20T09:16:06.866Z</time>
      </trkpt>
      <trkpt lat="43.67802" lon="5.79894">
        <ele>405</ele>
        <time>2016-02-20T09:16:08.930Z</time>
      </trkpt>
      <trkpt lat="43.67799" lon="5.79896">
        <ele>405</ele>
        <time>2016-02-20T09:16:09.871Z</time>
      </trkpt>
      <trkpt lat="43.67793" lon="5.79901">
        <ele>405</ele>
        <time>2016-02-20T09:16:11.912Z</time>
      </trkpt>
      <trkpt lat="43.67791" lon="5.79903">
        <ele>405</ele>
        <time>2016-02-20T09:16:12.866Z</time>
      </trkpt>
      <trkpt lat="43.67785" lon="5.79907">
        <ele>406</ele>
        <time>2016-02-20T09:16:14.929Z</time>
      </trkpt>
      <trkpt lat="43.67782" lon="5.79909">
        <ele>406</ele>
        <time>2016-02-20T09:16:15.866Z</time>
      </trkpt>
      <trkpt lat="43.67776" lon="5.79913">
        <ele>406</ele>
        <time>2016-02-20T09:16:17.861Z</time>
      </trkpt>
      <trkpt lat="43.67773" lon="5.79915">
        <ele>406</ele>
        <time>2016-02-20T09:16:18.866Z</time>
      </trkpt>
      <trkpt lat="43.67768" lon="5.79919">
        <ele>407</ele>
        <time>2016-02-20T09:16:20.919Z</time>
      </trkpt>
      <trkpt lat="43.67765" lon="5.79922">
        <ele>406</ele>
        <time>2016-02-20T09:16:21.874Z</time>
      </trkpt>
      <trkpt lat="43.67759" lon="5.79925">
        <ele>407</ele>
        <time>2016-02-20T09:16:23.924Z</time>
      </trkpt>
      <trkpt lat="43.67756" lon="5.79927">
        <ele>407</ele>
        <time>2016-02-20T09:16:24.874Z</time>
      </trkpt>
      <trkpt lat="43.67751" lon="5.79931">
        <ele>407</ele>
        <time>2016-02-20T09:16:26.919Z</time>
      </trkpt>
      <trkpt lat="43.67748" lon="5.79934">
        <ele>407</ele>
        <time>2016-02-20T09:16:27.865Z</time>
      </trkpt>
      <trkpt lat="43.67742" lon="5.79939">
        <ele>407</ele>
        <time>2016-02-20T09:16:29.922Z</time>
      </trkpt>
      <trkpt lat="43.6774" lon="5.79941">
        <ele>407</ele>
        <time>2016-02-20T09:16:30.869Z</time>
      </trkpt>
      <trkpt lat="43.67734" lon="5.79946">
        <ele>407</ele>
        <time>2016-02-20T09:16:32.927Z</time>
      </trkpt>
      <trkpt lat="43.67731" lon="5.79948">
        <ele>407</ele>
        <time>2016-02-20T09:16:33.864Z</time>
      </trkpt>
      <trkpt lat="43.67726" lon="5.79954">
        <ele>406</ele>
        <time>2016-02-20T09:16:35.949Z</time>
      </trkpt>
      <trkpt lat="43.67723" lon="5.79956">
        <ele>406</ele>
        <time>2016-02-20T09:16:36.870Z</time>
      </trkpt>
      <trkpt lat="43.67718" lon="5.79962">
        <ele>406</ele>
        <time>2016-02-20T09:16:38.924Z</time>
      </trkpt>
      <trkpt lat="43.67715" lon="5.79965">
        <ele>406</ele>
        <time>2016-02-20T09:16:39.867Z</time>
      </trkpt>
      <trkpt lat="43.6771" lon="5.7997">
        <ele>406</ele>
        <time>2016-02-20T09:16:41.930Z</time>
      </trkpt>
      <trkpt lat="43.67707" lon="5.79974">
        <ele>406</ele>
        <time>2016-02-20T09:16:42.868Z</time>
      </trkpt>
      <trkpt lat="43.67703" lon="5.7998">
        <ele>406</ele>
        <time>2016-02-20T09:16:44.932Z</time>
      </trkpt>
      <trkpt lat="43.67701" lon="5.79983">
        <ele>406</ele>
        <time>2016-02-20T09:16:45.870Z</time>
      </trkpt>
      <trkpt lat="43.67695" lon="5.79992">
        <ele>406</ele>
        <time>2016-02-20T09:16:48.917Z</time>
      </trkpt>
      <trkpt lat="43.67694" lon="5.79995">
        <ele>406</ele>
        <time>2016-02-20T09:16:49.873Z</time>
      </trkpt>
      <trkpt lat="43.67691" lon="5.80005">
        <ele>406</ele>
        <time>2016-02-20T09:16:53.498Z</time>
      </trkpt>
      <trkpt lat="43.67691" lon="5.80009">
        <ele>406</ele>
        <time>2016-02-20T09:16:53.844Z</time>
      </trkpt>
      <trkpt lat="43.67691" lon="5.8002">
        <ele>406</ele>
        <time>2016-02-20T09:16:56.914Z</time>
      </trkpt>
      <trkpt lat="43.67691" lon="5.80024">
        <ele>406</ele>
        <time>2016-02-20T09:16:57.886Z</time>
      </trkpt>
      <trkpt lat="43.67694" lon="5.80035">
        <ele>406</ele>
        <time>2016-02-20T09:17:00.918Z</time>
      </trkpt>
      <trkpt lat="43.67695" lon="5.80038">
        <ele>406</ele>
        <time>2016-02-20T09:17:01.869Z</time>
      </trkpt>
      <trkpt lat="43.67699" lon="5.80048">
        <ele>406</ele>
        <time>2016-02-20T09:17:04.922Z</time>
      </trkpt>
      <trkpt lat="43.67701" lon="5.80051">
        <ele>407</ele>
        <time>2016-02-20T09:17:06.454Z</time>
      </trkpt>
      <trkpt lat="43.67707" lon="5.8006">
        <ele>406</ele>
        <time>2016-02-20T09:17:08.965Z</time>
      </trkpt>
      <trkpt lat="43.67709" lon="5.80063">
        <ele>406</ele>
        <time>2016-02-20T09:17:09.871Z</time>
      </trkpt>
      <trkpt lat="43.67715" lon="5.80071">
        <ele>407</ele>
        <time>2016-02-20T09:17:12.919Z</time>
      </trkpt>
      <trkpt lat="43.67717" lon="5.80074">
        <ele>407</ele>
        <time>2016-02-20T09:17:13.865Z</time>
      </trkpt>
      <trkpt lat="43.67722" lon="5.80082">
        <ele>407</ele>
        <time>2016-02-20T09:17:16.918Z</time>
      </trkpt>
      <trkpt lat="43.67724" lon="5.80085">
        <ele>406</ele>
        <time>2016-02-20T09:17:17.874Z</time>
      </trkpt>
      <trkpt lat="43.6773" lon="5.80092">
        <ele>406</ele>
        <time>2016-02-20T09:17:20.917Z</time>
      </trkpt>
      <trkpt lat="43.67732" lon="5.80094">
        <ele>406</ele>
        <time>2016-02-20T09:17:21.869Z</time>
      </trkpt>
      <trkpt lat="43.67737" lon="5.80103">
        <ele>406</ele>
        <time>2016-02-20T09:17:24.926Z</time>
      </trkpt>
      <trkpt lat="43.67738" lon="5.80105">
        <ele>406</ele>
        <time>2016-02-20T09:17:25.869Z</time>
      </trkpt>
      <trkpt lat="43.67744" lon="5.80113">
        <ele>407</ele>
        <time>2016-02-20T09:17:29.286Z</time>
      </trkpt>
      <trkpt lat="43.67746" lon="5.80116">
        <ele>407</ele>
        <time>2016-02-20T09:17:29.857Z</time>
      </trkpt>
      <trkpt lat="43.67751" lon="5.80124">
        <ele>406</ele>
        <time>2016-02-20T09:17:32.920Z</time>
      </trkpt>
      <trkpt lat="43.67753" lon="5.80126">
        <ele>406</ele>
        <time>2016-02-20T09:17:33.871Z</time>
      </trkpt>
      <trkpt lat="43.67759" lon="5.80135">
        <ele>406</ele>
        <time>2016-02-20T09:17:36.943Z</time>
      </trkpt>
      <trkpt lat="43.6776" lon="5.80137">
        <ele>406</ele>
        <time>2016-02-20T09:17:37.871Z</time>
      </trkpt>
      <trkpt lat="43.67764" lon="5.80147">
        <ele>406</ele>
        <time>2016-02-20T09:17:40.917Z</time>
      </trkpt>
      <trkpt lat="43.67765" lon="5.80151">
        <ele>406</ele>
        <time>2016-02-20T09:17:41.876Z</time>
      </trkpt>
      <trkpt lat="43.67767" lon="5.80163">
        <ele>407</ele>
        <time>2016-02-20T09:17:44.917Z</time>
      </trkpt>
      <trkpt lat="43.67766" lon="5.80166">
        <ele>407</ele>
        <time>2016-02-20T09:17:45.873Z</time>
      </trkpt>
      <trkpt lat="43.67766" lon="5.80178">
        <ele>407</ele>
        <time>2016-02-20T09:17:48.925Z</time>
      </trkpt>
      <trkpt lat="43.67765" lon="5.80182">
        <ele>407</ele>
        <time>2016-02-20T09:17:49.867Z</time>
      </trkpt>
      <trkpt lat="43.67763" lon="5.80193">
        <ele>408</ele>
        <time>2016-02-20T09:17:52.959Z</time>
      </trkpt>
      <trkpt lat="43.67762" lon="5.80197">
        <ele>408</ele>
        <time>2016-02-20T09:17:53.873Z</time>
      </trkpt>
      <trkpt lat="43.67759" lon="5.80207">
        <ele>408</ele>
        <time>2016-02-20T09:17:56.946Z</time>
      </trkpt>
      <trkpt lat="43.67758" lon="5.8021">
        <ele>408</ele>
        <time>2016-02-20T09:17:57.870Z</time>
      </trkpt>
      <trkpt lat="43.67754" lon="5.8022">
        <ele>408</ele>
        <time>2016-02-20T09:18:00.919Z</time>
      </trkpt>
      <trkpt lat="43.67753" lon="5.80223">
        <ele>408</ele>
        <time>2016-02-20T09:18:01.872Z</time>
      </trkpt>
      <trkpt lat="43.67748" lon="5.80234">
        <ele>409</ele>
        <time>2016-02-20T09:18:04.922Z</time>
      </trkpt>
      <trkpt lat="43.67747" lon="5.80238">
        <ele>409</ele>
        <time>2016-02-20T09:18:05.865Z</time>
      </trkpt>
      <trkpt lat="43.67744" lon="5.80246">
        <ele>409</ele>
        <time>2016-02-20T09:18:07.866Z</time>
      </trkpt>
      <trkpt lat="43.67743" lon="5.80249">
        <ele>410</ele>
        <time>2016-02-20T09:18:08.875Z</time>
      </trkpt>
      <trkpt lat="43.67739" lon="5.8026">
        <ele>410</ele>
        <time>2016-02-20T09:18:11.920Z</time>
      </trkpt>
      <trkpt lat="43.67737" lon="5.80263">
        <ele>410</ele>
        <time>2016-02-20T09:18:12.871Z</time>
      </trkpt>
      <trkpt lat="43.67734" lon="5.80274">
        <ele>410</ele>
        <time>2016-02-20T09:18:15.924Z</time>
      </trkpt>
      <trkpt lat="43.67732" lon="5.80278">
        <ele>411</ele>
        <time>2016-02-20T09:18:16.868Z</time>
      </trkpt>
      <trkpt lat="43.67728" lon="5.80288">
        <ele>411</ele>
        <time>2016-02-20T09:18:19.953Z</time>
      </trkpt>
      <trkpt lat="43.67727" lon="5.80292">
        <ele>411</ele>
        <time>2016-02-20T09:18:20.873Z</time>
      </trkpt>
      <trkpt lat="43.67724" lon="5.80302">
        <ele>411</ele>
        <time>2016-02-20T09:18:23.942Z</time>
      </trkpt>
      <trkpt lat="43.67723" lon="5.80305">
        <ele>411</ele>
        <time>2016-02-20T09:18:24.870Z</time>
      </trkpt>
      <trkpt lat="43.6772" lon="5.80315">
        <ele>411</ele>
        <time>2016-02-20T09:18:27.930Z</time>
      </trkpt>
      <trkpt lat="43.67719" lon="5.80319">
        <ele>411</ele>
        <time>2016-02-20T09:18:28.868Z</time>
      </trkpt>
      <trkpt lat="43.67719" lon="5.8033">
        <ele>411</ele>
        <time>2016-02-20T09:18:31.866Z</time>
      </trkpt>
      <trkpt lat="43.67719" lon="5.80334">
        <ele>411</ele>
        <time>2016-02-20T09:18:32.875Z</time>
      </trkpt>
      <trkpt lat="43.67719" lon="5.80344">
        <ele>411</ele>
        <time>2016-02-20T09:18:35.955Z</time>
      </trkpt>
      <trkpt lat="43.67719" lon="5.80347">
        <ele>411</ele>
        <time>2016-02-20T09:18:36.877Z</time>
      </trkpt>
      <trkpt lat="43.67718" lon="5.80357">
        <ele>411</ele>
        <time>2016-02-20T09:18:39.918Z</time>
      </trkpt>
      <trkpt lat="43.67718" lon="5.8036">
        <ele>411</ele>
        <time>2016-02-20T09:18:40.871Z</time>
      </trkpt>
      <trkpt lat="43.67722" lon="5.80371">
        <ele>410</ele>
        <time>2016-02-20T09:18:44.868Z</time>
      </trkpt>
      <trkpt lat="43.67723" lon="5.80374">
        <ele>411</ele>
        <time>2016-02-20T09:18:45.871Z</time>
      </trkpt>
      <trkpt lat="43.67725" lon="5.80384">
        <ele>411</ele>
        <time>2016-02-20T09:18:48.916Z</time>
      </trkpt>
      <trkpt lat="43.67726" lon="5.80388">
        <ele>411</ele>
        <time>2016-02-20T09:18:49.869Z</time>
      </trkpt>
      <trkpt lat="43.6773" lon="5.80398">
        <ele>411</ele>
        <time>2016-02-20T09:18:52.916Z</time>
      </trkpt>
      <trkpt lat="43.67732" lon="5.80401">
        <ele>412</ele>
        <time>2016-02-20T09:18:53.871Z</time>
      </trkpt>
      <trkpt lat="43.67736" lon="5.80409">
        <ele>412</ele>
        <time>2016-02-20T09:18:56.870Z</time>
      </trkpt>
      <trkpt lat="43.67738" lon="5.80412">
        <ele>412</ele>
        <time>2016-02-20T09:18:57.874Z</time>
      </trkpt>
      <trkpt lat="43.67742" lon="5.80421">
        <ele>412</ele>
        <time>2016-02-20T09:19:00.927Z</time>
      </trkpt>
      <trkpt lat="43.67744" lon="5.80424">
        <ele>412</ele>
        <time>2016-02-20T09:19:01.866Z</time>
      </trkpt>
      <trkpt lat="43.67749" lon="5.8043">
        <ele>412</ele>
        <time>2016-02-20T09:19:03.918Z</time>
      </trkpt>
      <trkpt lat="43.67751" lon="5.80432">
        <ele>411</ele>
        <time>2016-02-20T09:19:04.869Z</time>
      </trkpt>
      <trkpt lat="43.67758" lon="5.80439">
        <ele>412</ele>
        <time>2016-02-20T09:19:07.927Z</time>
      </trkpt>
      <trkpt lat="43.6776" lon="5.80441">
        <ele>413</ele>
        <time>2016-02-20T09:19:08.872Z</time>
      </trkpt>
      <trkpt lat="43.67767" lon="5.80447">
        <ele>413</ele>
        <time>2016-02-20T09:19:11.915Z</time>
      </trkpt>
      <trkpt lat="43.67769" lon="5.80449">
        <ele>413</ele>
        <time>2016-02-20T09:19:12.871Z</time>
      </trkpt>
      <trkpt lat="43.67777" lon="5.80454">
        <ele>413</ele>
        <time>2016-02-20T09:19:15.926Z</time>
      </trkpt>
      <trkpt lat="43.6778" lon="5.80456">
        <ele>413</ele>
        <time>2016-02-20T09:19:16.865Z</time>
      </trkpt>
      <trkpt lat="43.67787" lon="5.80463">
        <ele>413</ele>
        <time>2016-02-20T09:19:19.923Z</time>
      </trkpt>
      <trkpt lat="43.67789" lon="5.80466">
        <ele>413</ele>
        <time>2016-02-20T09:19:20.868Z</time>
      </trkpt>
      <trkpt lat="43.67795" lon="5.80474">
        <ele>413</ele>
        <time>2016-02-20T09:19:23.929Z</time>
      </trkpt>
      <trkpt lat="43.67797" lon="5.80477">
        <ele>413</ele>
        <time>2016-02-20T09:19:24.869Z</time>
      </trkpt>
      <trkpt lat="43.67803" lon="5.80485">
        <ele>414</ele>
        <time>2016-02-20T09:19:27.930Z</time>
      </trkpt>
      <trkpt lat="43.67806" lon="5.80488">
        <ele>413</ele>
        <time>2016-02-20T09:19:28.869Z</time>
      </trkpt>
      <trkpt lat="43.67811" lon="5.80498">
        <ele>414</ele>
        <time>2016-02-20T09:19:32.093Z</time>
      </trkpt>
      <trkpt lat="43.67812" lon="5.80501">
        <ele>414</ele>
        <time>2016-02-20T09:19:32.844Z</time>
      </trkpt>
      <trkpt lat="43.67815" lon="5.80513">
        <ele>414</ele>
        <time>2016-02-20T09:19:35.925Z</time>
      </trkpt>
      <trkpt lat="43.67817" lon="5.80516">
        <ele>415</ele>
        <time>2016-02-20T09:19:36.869Z</time>
      </trkpt>
      <trkpt lat="43.67821" lon="5.80526">
        <ele>415</ele>
        <time>2016-02-20T09:19:39.923Z</time>
      </trkpt>
      <trkpt lat="43.67822" lon="5.8053">
        <ele>414</ele>
        <time>2016-02-20T09:19:40.884Z</time>
      </trkpt>
      <trkpt lat="43.67825" lon="5.80541">
        <ele>415</ele>
        <time>2016-02-20T09:19:43.922Z</time>
      </trkpt>
      <trkpt lat="43.67826" lon="5.80545">
        <ele>415</ele>
        <time>2016-02-20T09:19:44.869Z</time>
      </trkpt>
      <trkpt lat="43.67827" lon="5.80556">
        <ele>416</ele>
        <time>2016-02-20T09:19:47.921Z</time>
      </trkpt>
      <trkpt lat="43.67827" lon="5.8056">
        <ele>416</ele>
        <time>2016-02-20T09:19:48.863Z</time>
      </trkpt>
      <trkpt lat="43.67829" lon="5.80571">
        <ele>417</ele>
        <time>2016-02-20T09:19:51.950Z</time>
      </trkpt>
      <trkpt lat="43.67829" lon="5.80574">
        <ele>417</ele>
        <time>2016-02-20T09:19:52.870Z</time>
      </trkpt>
      <trkpt lat="43.67833" lon="5.80584">
        <ele>418</ele>
        <time>2016-02-20T09:19:55.919Z</time>
      </trkpt>
      <trkpt lat="43.67835" lon="5.80587">
        <ele>418</ele>
        <time>2016-02-20T09:19:56.871Z</time>
      </trkpt>
      <trkpt lat="43.67839" lon="5.80597">
        <ele>418</ele>
        <time>2016-02-20T09:19:59.920Z</time>
      </trkpt>
      <trkpt lat="43.67841" lon="5.80601">
        <ele>418</ele>
        <time>2016-02-20T09:20:00.869Z</time>
      </trkpt>
      <trkpt lat="43.67844" lon="5.80611">
        <ele>418</ele>
        <time>2016-02-20T09:20:03.926Z</time>
      </trkpt>
      <trkpt lat="43.67845" lon="5.80615">
        <ele>418</ele>
        <time>2016-02-20T09:20:04.878Z</time>
      </trkpt>
      <trkpt lat="43.67849" lon="5.80625">
        <ele>419</ele>
        <time>2016-02-20T09:20:07.917Z</time>
      </trkpt>
      <trkpt lat="43.67851" lon="5.80629">
        <ele>419</ele>
        <time>2016-02-20T09:20:08.878Z</time>
      </trkpt>
      <trkpt lat="43.67855" lon="5.80639">
        <ele>419</ele>
        <time>2016-02-20T09:20:11.914Z</time>
      </trkpt>
      <trkpt lat="43.67856" lon="5.80642">
        <ele>420</ele>
        <time>2016-02-20T09:20:12.872Z</time>
      </trkpt>
      <trkpt lat="43.67863" lon="5.80649">
        <ele>420</ele>
        <time>2016-02-20T09:20:16.068Z</time>
      </trkpt>
      <trkpt lat="43.67865" lon="5.80651">
        <ele>419</ele>
        <time>2016-02-20T09:20:16.868Z</time>
      </trkpt>
      <trkpt lat="43.67872" lon="5.80656">
        <ele>420</ele>
        <time>2016-02-20T09:20:19.938Z</time>
      </trkpt>
      <trkpt lat="43.67875" lon="5.80658">
        <ele>420</ele>
        <time>2016-02-20T09:20:20.871Z</time>
      </trkpt>
      <trkpt lat="43.67882" lon="5.80663">
        <ele>420</ele>
        <time>2016-02-20T09:20:23.922Z</time>
      </trkpt>
      <trkpt lat="43.67884" lon="5.80665">
        <ele>420</ele>
        <time>2016-02-20T09:20:24.878Z</time>
      </trkpt>
      <trkpt lat="43.67891" lon="5.80672">
        <ele>420</ele>
        <time>2016-02-20T09:20:27.932Z</time>
      </trkpt>
      <trkpt lat="43.67893" lon="5.80674">
        <ele>420</ele>
        <time>2016-02-20T09:20:28.875Z</time>
      </trkpt>
      <trkpt lat="43.679" lon="5.80679">
        <ele>421</ele>
        <time>2016-02-20T09:20:31.918Z</time>
      </trkpt>
      <trkpt lat="43.67903" lon="5.80681">
        <ele>421</ele>
        <time>2016-02-20T09:20:32.874Z</time>
      </trkpt>
      <trkpt lat="43.6791" lon="5.80687">
        <ele>421</ele>
        <time>2016-02-20T09:20:35.918Z</time>
      </trkpt>
      <trkpt lat="43.67912" lon="5.80689">
        <ele>421</ele>
        <time>2016-02-20T09:20:36.870Z</time>
      </trkpt>
      <trkpt lat="43.67919" lon="5.80695">
        <ele>421</ele>
        <time>2016-02-20T09:20:39.921Z</time>
      </trkpt>
      <trkpt lat="43.67921" lon="5.80697">
        <ele>421</ele>
        <time>2016-02-20T09:20:40.870Z</time>
      </trkpt>
      <trkpt lat="43.67929" lon="5.80703">
        <ele>421</ele>
        <time>2016-02-20T09:20:43.928Z</time>
      </trkpt>
      <trkpt lat="43.67931" lon="5.80705">
        <ele>421</ele>
        <time>2016-02-20T09:20:44.878Z</time>
      </trkpt>
      <trkpt lat="43.67939" lon="5.80708">
        <ele>422</ele>
        <time>2016-02-20T09:20:47.925Z</time>
      </trkpt>
      <trkpt lat="43.67941" lon="5.80709">
        <ele>423</ele>
        <time>2016-02-20T09:20:48.873Z</time>
      </trkpt>
      <trkpt lat="43.67949" lon="5.80709">
        <ele>423</ele>
        <time>2016-02-20T09:20:51.963Z</time>
      </trkpt>
      <trkpt lat="43.67952" lon="5.80709">
        <ele>423</ele>
        <time>2016-02-20T09:20:52.870Z</time>
      </trkpt>
      <trkpt lat="43.67959" lon="5.80704">
        <ele>424</ele>
        <time>2016-02-20T09:20:55.957Z</time>
      </trkpt>
      <trkpt lat="43.67961" lon="5.80701">
        <ele>424</ele>
        <time>2016-02-20T09:20:56.869Z</time>
      </trkpt>
      <trkpt lat="43.67967" lon="5.80693">
        <ele>424</ele>
        <time>2016-02-20T09:20:59.923Z</time>
      </trkpt>
      <trkpt lat="43.67969" lon="5.8069">
        <ele>424</ele>
        <time>2016-02-20T09:21:00.879Z</time>
      </trkpt>
      <trkpt lat="43.67975" lon="5.80681">
        <ele>424</ele>
        <time>2016-02-20T09:21:03.929Z</time>
      </trkpt>
      <trkpt lat="43.67978" lon="5.80678">
        <ele>425</ele>
        <time>2016-02-20T09:21:04.869Z</time>
      </trkpt>
      <trkpt lat="43.67984" lon="5.80671">
        <ele>426</ele>
        <time>2016-02-20T09:21:07.961Z</time>
      </trkpt>
      <trkpt lat="43.67986" lon="5.80669">
        <ele>427</ele>
        <time>2016-02-20T09:21:08.869Z</time>
      </trkpt>
      <trkpt lat="43.67994" lon="5.80666">
        <ele>427</ele>
        <time>2016-02-20T09:21:11.871Z</time>
      </trkpt>
      <trkpt lat="43.67997" lon="5.80665">
        <ele>428</ele>
        <time>2016-02-20T09:21:12.883Z</time>
      </trkpt>
      <trkpt lat="43.68005" lon="5.80662">
        <ele>428</ele>
        <time>2016-02-20T09:21:15.921Z</time>
      </trkpt>
      <trkpt lat="43.68007" lon="5.80662">
        <ele>428</ele>
        <time>2016-02-20T09:21:16.873Z</time>
      </trkpt>
      <trkpt lat="43.68016" lon="5.80657">
        <ele>429</ele>
        <time>2016-02-20T09:21:19.933Z</time>
      </trkpt>
      <trkpt lat="43.68018" lon="5.80655">
        <ele>429</ele>
        <time>2016-02-20T09:21:20.873Z</time>
      </trkpt>
      <trkpt lat="43.68023" lon="5.80646">
        <ele>429</ele>
        <time>2016-02-20T09:21:23.944Z</time>
      </trkpt>
      <trkpt lat="43.68025" lon="5.80643">
        <ele>429</ele>
        <time>2016-02-20T09:21:24.873Z</time>
      </trkpt>
      <trkpt lat="43.6803" lon="5.80635">
        <ele>430</ele>
        <time>2016-02-20T09:21:27.925Z</time>
      </trkpt>
      <trkpt lat="43.68033" lon="5.80633">
        <ele>429</ele>
        <time>2016-02-20T09:21:28.878Z</time>
      </trkpt>
      <trkpt lat="43.6804" lon="5.80626">
        <ele>430</ele>
        <time>2016-02-20T09:21:31.934Z</time>
      </trkpt>
      <trkpt lat="43.68042" lon="5.80624">
        <ele>430</ele>
        <time>2016-02-20T09:21:32.870Z</time>
      </trkpt>
      <trkpt lat="43.68051" lon="5.80627">
        <ele>430</ele>
        <time>2016-02-20T09:21:35.872Z</time>
      </trkpt>
      <trkpt lat="43.68053" lon="5.80629">
        <ele>430</ele>
        <time>2016-02-20T09:21:36.877Z</time>
      </trkpt>
      <trkpt lat="43.68059" lon="5.80637">
        <ele>430</ele>
        <time>2016-02-20T09:21:39.920Z</time>
      </trkpt>
      <trkpt lat="43.68061" lon="5.8064">
        <ele>430</ele>
        <time>2016-02-20T09:21:40.873Z</time>
      </trkpt>
      <trkpt lat="43.68067" lon="5.80649">
        <ele>430</ele>
        <time>2016-02-20T09:21:43.921Z</time>
      </trkpt>
      <trkpt lat="43.68068" lon="5.80653">
        <ele>430</ele>
        <time>2016-02-20T09:21:44.870Z</time>
      </trkpt>
      <trkpt lat="43.68068" lon="5.80662">
        <ele>431</ele>
        <time>2016-02-20T09:21:46.929Z</time>
      </trkpt>
      <trkpt lat="43.68067" lon="5.80666">
        <ele>431</ele>
        <time>2016-02-20T09:21:47.872Z</time>
      </trkpt>
      <trkpt lat="43.68065" lon="5.80674">
        <ele>431</ele>
        <time>2016-02-20T09:21:49.931Z</time>
      </trkpt>
      <trkpt lat="43.68063" lon="5.80678">
        <ele>431</ele>
        <time>2016-02-20T09:21:50.877Z</time>
      </trkpt>
      <trkpt lat="43.68059" lon="5.80685">
        <ele>432</ele>
        <time>2016-02-20T09:21:52.924Z</time>
      </trkpt>
      <trkpt lat="43.68057" lon="5.80689">
        <ele>432</ele>
        <time>2016-02-20T09:21:53.871Z</time>
      </trkpt>
      <trkpt lat="43.68053" lon="5.80696">
        <ele>431</ele>
        <time>2016-02-20T09:21:55.936Z</time>
      </trkpt>
      <trkpt lat="43.68052" lon="5.807">
        <ele>432</ele>
        <time>2016-02-20T09:21:56.871Z</time>
      </trkpt>
      <trkpt lat="43.68049" lon="5.8071">
        <ele>431</ele>
        <time>2016-02-20T09:21:59.917Z</time>
      </trkpt>
      <trkpt lat="43.68049" lon="5.80714">
        <ele>431</ele>
        <time>2016-02-20T09:22:00.874Z</time>
      </trkpt>
      <trkpt lat="43.68051" lon="5.80725">
        <ele>430</ele>
        <time>2016-02-20T09:22:03.941Z</time>
      </trkpt>
      <trkpt lat="43.68053" lon="5.80728">
        <ele>430</ele>
        <time>2016-02-20T09:22:04.877Z</time>
      </trkpt>
      <trkpt lat="43.68057" lon="5.80738">
        <ele>430</ele>
        <time>2016-02-20T09:22:07.919Z</time>
      </trkpt>
      <trkpt lat="43.68058" lon="5.80741">
        <ele>430</ele>
        <time>2016-02-20T09:22:08.870Z</time>
      </trkpt>
      <trkpt lat="43.68063" lon="5.8075">
        <ele>430</ele>
        <time>2016-02-20T09:22:11.920Z</time>
      </trkpt>
      <trkpt lat="43.68065" lon="5.80753">
        <ele>430</ele>
        <time>2016-02-20T09:22:12.871Z</time>
      </trkpt>
      <trkpt lat="43.6807" lon="5.80762">
        <ele>430</ele>
        <time>2016-02-20T09:22:15.922Z</time>
      </trkpt>
      <trkpt lat="43.68071" lon="5.80765">
        <ele>430</ele>
        <time>2016-02-20T09:22:16.873Z</time>
      </trkpt>
      <trkpt lat="43.68077" lon="5.80771">
        <ele>430</ele>
        <time>2016-02-20T09:22:19.932Z</time>
      </trkpt>
      <trkpt lat="43.68079" lon="5.80773">
        <ele>430</ele>
        <time>2016-02-20T09:22:20.872Z</time>
      </trkpt>
      <trkpt lat="43.68085" lon="5.80779">
        <ele>430</ele>
        <time>2016-02-20T09:22:23.926Z</time>
      </trkpt>
      <trkpt lat="43.68088" lon="5.80781">
        <ele>431</ele>
        <time>2016-02-20T09:22:24.850Z</time>
      </trkpt>
      <trkpt lat="43.68093" lon="5.80786">
        <ele>431</ele>
        <time>2016-02-20T09:22:27.916Z</time>
      </trkpt>
      <trkpt lat="43.68096" lon="5.80787">
        <ele>432</ele>
        <time>2016-02-20T09:22:28.871Z</time>
      </trkpt>
      <trkpt lat="43.68102" lon="5.80791">
        <ele>432</ele>
        <time>2016-02-20T09:22:31.920Z</time>
      </trkpt>
      <trkpt lat="43.68104" lon="5.80793">
        <ele>432</ele>
        <time>2016-02-20T09:22:32.871Z</time>
      </trkpt>
      <trkpt lat="43.68111" lon="5.80797">
        <ele>432</ele>
        <time>2016-02-20T09:22:35.931Z</time>
      </trkpt>
      <trkpt lat="43.68114" lon="5.80798">
        <ele>432</ele>
        <time>2016-02-20T09:22:36.867Z</time>
      </trkpt>
      <trkpt lat="43.6812" lon="5.80802">
        <ele>433</ele>
        <time>2016-02-20T09:22:39.931Z</time>
      </trkpt>
      <trkpt lat="43.68123" lon="5.80804">
        <ele>434</ele>
        <time>2016-02-20T09:22:40.888Z</time>
      </trkpt>
      <trkpt lat="43.68129" lon="5.80807">
        <ele>434</ele>
        <time>2016-02-20T09:22:43.948Z</time>
      </trkpt>
      <trkpt lat="43.68132" lon="5.80808">
        <ele>434</ele>
        <time>2016-02-20T09:22:44.879Z</time>
      </trkpt>
      <trkpt lat="43.68139" lon="5.80808">
        <ele>434</ele>
        <time>2016-02-20T09:22:47.923Z</time>
      </trkpt>
      <trkpt lat="43.68142" lon="5.80807">
        <ele>435</ele>
        <time>2016-02-20T09:22:48.873Z</time>
      </trkpt>
      <trkpt lat="43.68149" lon="5.80807">
        <ele>435</ele>
        <time>2016-02-20T09:22:51.962Z</time>
      </trkpt>
      <trkpt lat="43.68151" lon="5.80808">
        <ele>435</ele>
        <time>2016-02-20T09:22:52.870Z</time>
      </trkpt>
      <trkpt lat="43.68156" lon="5.80814">
        <ele>436</ele>
        <time>2016-02-20T09:22:55.925Z</time>
      </trkpt>
      <trkpt lat="43.68157" lon="5.80818">
        <ele>435</ele>
        <time>2016-02-20T09:22:56.871Z</time>
      </trkpt>
      <trkpt lat="43.68159" lon="5.80828">
        <ele>436</ele>
        <time>2016-02-20T09:22:59.925Z</time>
      </trkpt>
      <trkpt lat="43.68159" lon="5.80832">
        <ele>436</ele>
        <time>2016-02-20T09:23:00.862Z</time>
      </trkpt>
      <trkpt lat="43.6816" lon="5.8084">
        <ele>436</ele>
        <time>2016-02-20T09:23:03.104Z</time>
      </trkpt>
      <trkpt lat="43.68161" lon="5.80844">
        <ele>436</ele>
        <time>2016-02-20T09:23:03.850Z</time>
      </trkpt>
      <trkpt lat="43.68162" lon="5.80853">
        <ele>436</ele>
        <time>2016-02-20T09:23:05.952Z</time>
      </trkpt>
      <trkpt lat="43.68162" lon="5.80857">
        <ele>436</ele>
        <time>2016-02-20T09:23:06.873Z</time>
      </trkpt>
      <trkpt lat="43.68163" lon="5.80869">
        <ele>437</ele>
        <time>2016-02-20T09:23:09.921Z</time>
      </trkpt>
      <trkpt lat="43.68163" lon="5.80872">
        <ele>437</ele>
        <time>2016-02-20T09:23:10.872Z</time>
      </trkpt>
      <trkpt lat="43.68164" lon="5.80884">
        <ele>437</ele>
        <time>2016-02-20T09:23:13.950Z</time>
      </trkpt>
      <trkpt lat="43.68164" lon="5.80888">
        <ele>437</ele>
        <time>2016-02-20T09:23:14.879Z</time>
      </trkpt>
      <trkpt lat="43.68165" lon="5.80896">
        <ele>438</ele>
        <time>2016-02-20T09:23:16.879Z</time>
      </trkpt>
      <trkpt lat="43.68165" lon="5.809">
        <ele>438</ele>
        <time>2016-02-20T09:23:17.906Z</time>
      </trkpt>
      <trkpt lat="43.68165" lon="5.80909">
        <ele>438</ele>
        <time>2016-02-20T09:23:19.935Z</time>
      </trkpt>
      <trkpt lat="43.68165" lon="5.80914">
        <ele>438</ele>
        <time>2016-02-20T09:23:20.878Z</time>
      </trkpt>
      <trkpt lat="43.68165" lon="5.80925">
        <ele>437</ele>
        <time>2016-02-20T09:23:23.932Z</time>
      </trkpt>
      <trkpt lat="43.68165" lon="5.80929">
        <ele>437</ele>
        <time>2016-02-20T09:23:24.873Z</time>
      </trkpt>
      <trkpt lat="43.68166" lon="5.8094">
        <ele>437</ele>
        <time>2016-02-20T09:23:27.919Z</time>
      </trkpt>
      <trkpt lat="43.68166" lon="5.80944">
        <ele>437</ele>
        <time>2016-02-20T09:23:28.863Z</time>
      </trkpt>
      <trkpt lat="43.68169" lon="5.80954">
        <ele>438</ele>
        <time>2016-02-20T09:23:31.924Z</time>
      </trkpt>
      <trkpt lat="43.68171" lon="5.80957">
        <ele>438</ele>
        <time>2016-02-20T09:23:32.871Z</time>
      </trkpt>
      <trkpt lat="43.68176" lon="5.80965">
        <ele>439</ele>
        <time>2016-02-20T09:23:35.945Z</time>
      </trkpt>
      <trkpt lat="43.68178" lon="5.80968">
        <ele>439</ele>
        <time>2016-02-20T09:23:36.868Z</time>
      </trkpt>
      <trkpt lat="43.68184" lon="5.80976">
        <ele>440</ele>
        <time>2016-02-20T09:23:39.925Z</time>
      </trkpt>
      <trkpt lat="43.68186" lon="5.80978">
        <ele>440</ele>
        <time>2016-02-20T09:23:40.860Z</time>
      </trkpt>
      <trkpt lat="43.68192" lon="5.80985">
        <ele>439</ele>
        <time>2016-02-20T09:23:43.932Z</time>
      </trkpt>
      <trkpt lat="43.68194" lon="5.80988">
        <ele>439</ele>
        <time>2016-02-20T09:23:44.876Z</time>
      </trkpt>
      <trkpt lat="43.682" lon="5.80994">
        <ele>440</ele>
        <time>2016-02-20T09:23:47.921Z</time>
      </trkpt>
      <trkpt lat="43.68203" lon="5.80996">
        <ele>440</ele>
        <time>2016-02-20T09:23:48.871Z</time>
      </trkpt>
      <trkpt lat="43.68209" lon="5.81002">
        <ele>441</ele>
        <time>2016-02-20T09:23:51.927Z</time>
      </trkpt>
      <trkpt lat="43.68212" lon="5.81004">
        <ele>440</ele>
        <time>2016-02-20T09:23:52.875Z</time>
      </trkpt>
      <trkpt lat="43.6822" lon="5.81008">
        <ele>440</ele>
        <time>2016-02-20T09:23:55.927Z</time>
      </trkpt>
      <trkpt lat="43.68222" lon="5.81009">
        <ele>440</ele>
        <time>2016-02-20T09:23:56.872Z</time>
      </trkpt>
      <trkpt lat="43.68231" lon="5.81013">
        <ele>441</ele>
        <time>2016-02-20T09:23:59.920Z</time>
      </trkpt>
      <trkpt lat="43.68233" lon="5.81014">
        <ele>441</ele>
        <time>2016-02-20T09:24:00.850Z</time>
      </trkpt>
      <trkpt lat="43.68242" lon="5.81017">
        <ele>442</ele>
        <time>2016-02-20T09:24:04.258Z</time>
      </trkpt>
      <trkpt lat="43.68244" lon="5.81017">
        <ele>442</ele>
        <time>2016-02-20T09:24:04.851Z</time>
      </trkpt>
      <trkpt lat="43.68252" lon="5.81021">
        <ele>443</ele>
        <time>2016-02-20T09:24:07.922Z</time>
      </trkpt>
      <trkpt lat="43.68255" lon="5.81022">
        <ele>443</ele>
        <time>2016-02-20T09:24:08.882Z</time>
      </trkpt>
      <trkpt lat="43.68262" lon="5.81028">
        <ele>443</ele>
        <time>2016-02-20T09:24:11.931Z</time>
      </trkpt>
      <trkpt lat="43.68264" lon="5.8103">
        <ele>443</ele>
        <time>2016-02-20T09:24:12.872Z</time>
      </trkpt>
      <trkpt lat="43.6827" lon="5.81036">
        <ele>443</ele>
        <time>2016-02-20T09:24:15.934Z</time>
      </trkpt>
      <trkpt lat="43.68272" lon="5.81039">
        <ele>443</ele>
        <time>2016-02-20T09:24:17.429Z</time>
      </trkpt>
      <trkpt lat="43.68277" lon="5.81047">
        <ele>443</ele>
        <time>2016-02-20T09:24:19.970Z</time>
      </trkpt>
      <trkpt lat="43.68279" lon="5.81049">
        <ele>443</ele>
        <time>2016-02-20T09:24:20.892Z</time>
      </trkpt>
      <trkpt lat="43.68283" lon="5.81058">
        <ele>443</ele>
        <time>2016-02-20T09:24:23.945Z</time>
      </trkpt>
      <trkpt lat="43.68285" lon="5.8106">
        <ele>443</ele>
        <time>2016-02-20T09:24:24.881Z</time>
      </trkpt>
      <trkpt lat="43.68288" lon="5.81069">
        <ele>444</ele>
        <time>2016-02-20T09:24:28.494Z</time>
      </trkpt>
      <trkpt lat="43.68288" lon="5.81072">
        <ele>443</ele>
        <time>2016-02-20T09:24:28.849Z</time>
      </trkpt>
      <trkpt lat="43.68286" lon="5.81082">
        <ele>444</ele>
        <time>2016-02-20T09:24:31.944Z</time>
      </trkpt>
      <trkpt lat="43.68285" lon="5.81086">
        <ele>444</ele>
        <time>2016-02-20T09:24:32.874Z</time>
      </trkpt>
      <trkpt lat="43.68282" lon="5.81095">
        <ele>445</ele>
        <time>2016-02-20T09:24:35.947Z</time>
      </trkpt>
      <trkpt lat="43.68281" lon="5.81098">
        <ele>445</ele>
        <time>2016-02-20T09:24:36.868Z</time>
      </trkpt>
      <trkpt lat="43.68279" lon="5.81109">
        <ele>446</ele>
        <time>2016-02-20T09:24:39.960Z</time>
      </trkpt>
      <trkpt lat="43.68278" lon="5.81113">
        <ele>445</ele>
        <time>2016-02-20T09:24:40.849Z</time>
      </trkpt>
      <trkpt lat="43.68275" lon="5.81123">
        <ele>446</ele>
        <time>2016-02-20T09:24:43.944Z</time>
      </trkpt>
      <trkpt lat="43.68275" lon="5.81127">
        <ele>446</ele>
        <time>2016-02-20T09:24:44.875Z</time>
      </trkpt>
      <trkpt lat="43.68272" lon="5.81137">
        <ele>447</ele>
        <time>2016-02-20T09:24:47.950Z</time>
      </trkpt>
      <trkpt lat="43.6827" lon="5.81141">
        <ele>447</ele>
        <time>2016-02-20T09:24:48.872Z</time>
      </trkpt>
      <trkpt lat="43.68267" lon="5.81151">
        <ele>447</ele>
        <time>2016-02-20T09:24:51.933Z</time>
      </trkpt>
      <trkpt lat="43.68266" lon="5.81155">
        <ele>447</ele>
        <time>2016-02-20T09:24:52.870Z</time>
      </trkpt>
      <trkpt lat="43.68262" lon="5.81165">
        <ele>448</ele>
        <time>2016-02-20T09:24:55.950Z</time>
      </trkpt>
      <trkpt lat="43.68261" lon="5.81168">
        <ele>448</ele>
        <time>2016-02-20T09:24:56.873Z</time>
      </trkpt>
      <trkpt lat="43.68256" lon="5.81178">
        <ele>448</ele>
        <time>2016-02-20T09:24:59.977Z</time>
      </trkpt>
      <trkpt lat="43.68255" lon="5.81181">
        <ele>448</ele>
        <time>2016-02-20T09:25:00.876Z</time>
      </trkpt>
      <trkpt lat="43.6825" lon="5.81191">
        <ele>448</ele>
        <time>2016-02-20T09:25:03.886Z</time>
      </trkpt>
      <trkpt lat="43.68248" lon="5.81195">
        <ele>448</ele>
        <time>2016-02-20T09:25:04.885Z</time>
      </trkpt>
      <trkpt lat="43.68244" lon="5.81205">
        <ele>448</ele>
        <time>2016-02-20T09:25:07.949Z</time>
      </trkpt>
      <trkpt lat="43.68243" lon="5.81209">
        <ele>448</ele>
        <time>2016-02-20T09:25:08.871Z</time>
      </trkpt>
      <trkpt lat="43.68239" lon="5.8122">
        <ele>448</ele>
        <time>2016-02-20T09:25:11.945Z</time>
      </trkpt>
      <trkpt lat="43.68238" lon="5.81224">
        <ele>448</ele>
        <time>2016-02-20T09:25:12.874Z</time>
      </trkpt>
      <trkpt lat="43.68235" lon="5.81232">
        <ele>448</ele>
        <time>2016-02-20T09:25:14.967Z</time>
      </trkpt>
      <trkpt lat="43.68234" lon="5.81235">
        <ele>448</ele>
        <time>2016-02-20T09:25:15.887Z</time>
      </trkpt>
      <trkpt lat="43.68231" lon="5.81247">
        <ele>448</ele>
        <time>2016-02-20T09:25:18.878Z</time>
      </trkpt>
      <trkpt lat="43.6823" lon="5.81251">
        <ele>448</ele>
        <time>2016-02-20T09:25:19.871Z</time>
      </trkpt>
      <trkpt lat="43.68228" lon="5.81259">
        <ele>449</ele>
        <time>2016-02-20T09:25:21.953Z</time>
      </trkpt>
      <trkpt lat="43.68227" lon="5.81263">
        <ele>449</ele>
        <time>2016-02-20T09:25:22.873Z</time>
      </trkpt>
      <trkpt lat="43.68225" lon="5.8127">
        <ele>449</ele>
        <time>2016-02-20T09:25:24.952Z</time>
      </trkpt>
      <trkpt lat="43.68224" lon="5.81275">
        <ele>449</ele>
        <time>2016-02-20T09:25:25.877Z</time>
      </trkpt>
      <trkpt lat="43.68222" lon="5.81286">
        <ele>449</ele>
        <time>2016-02-20T09:25:28.942Z</time>
      </trkpt>
      <trkpt lat="43.68221" lon="5.8129">
        <ele>449</ele>
        <time>2016-02-20T09:25:29.846Z</time>
      </trkpt>
      <trkpt lat="43.68219" lon="5.81298">
        <ele>448</ele>
        <time>2016-02-20T09:25:31.945Z</time>
      </trkpt>
      <trkpt lat="43.68218" lon="5.81302">
        <ele>448</ele>
        <time>2016-02-20T09:25:32.879Z</time>
      </trkpt>
      <trkpt lat="43.68214" lon="5.81309">
        <ele>449</ele>
        <time>2016-02-20T09:25:34.955Z</time>
      </trkpt>
      <trkpt lat="43.68212" lon="5.81312">
        <ele>449</ele>
        <time>2016-02-20T09:25:35.872Z</time>
      </trkpt>
      <trkpt lat="43.68207" lon="5.81316">
        <ele>450</ele>
        <time>2016-02-20T09:25:37.942Z</time>
      </trkpt>
      <trkpt lat="43.68204" lon="5.81318">
        <ele>450</ele>
        <time>2016-02-20T09:25:38.879Z</time>
      </trkpt>
      <trkpt lat="43.68199" lon="5.81323">
        <ele>450</ele>
        <time>2016-02-20T09:25:40.945Z</time>
      </trkpt>
      <trkpt lat="43.68197" lon="5.81327">
        <ele>450</ele>
        <time>2016-02-20T09:25:41.855Z</time>
      </trkpt>
      <trkpt lat="43.68194" lon="5.81334">
        <ele>450</ele>
        <time>2016-02-20T09:25:43.943Z</time>
      </trkpt>
      <trkpt lat="43.68193" lon="5.81338">
        <ele>450</ele>
        <time>2016-02-20T09:25:44.885Z</time>
      </trkpt>
      <trkpt lat="43.68191" lon="5.81347">
        <ele>451</ele>
        <time>2016-02-20T09:25:46.956Z</time>
      </trkpt>
      <trkpt lat="43.68191" lon="5.81351">
        <ele>450</ele>
        <time>2016-02-20T09:25:47.873Z</time>
      </trkpt>
      <trkpt lat="43.68189" lon="5.8136">
        <ele>450</ele>
        <time>2016-02-20T09:25:49.953Z</time>
      </trkpt>
      <trkpt lat="43.68188" lon="5.81364">
        <ele>450</ele>
        <time>2016-02-20T09:25:50.869Z</time>
      </trkpt>
      <trkpt lat="43.68186" lon="5.81372">
        <ele>450</ele>
        <time>2016-02-20T09:25:52.955Z</time>
      </trkpt>
      <trkpt lat="43.68184" lon="5.81376">
        <ele>450</ele>
        <time>2016-02-20T09:25:53.847Z</time>
      </trkpt>
      <trkpt lat="43.68181" lon="5.81383">
        <ele>451</ele>
        <time>2016-02-20T09:25:55.941Z</time>
      </trkpt>
      <trkpt lat="43.6818" lon="5.81386">
        <ele>451</ele>
        <time>2016-02-20T09:25:56.874Z</time>
      </trkpt>
      <trkpt lat="43.68176" lon="5.81395">
        <ele>451</ele>
        <time>2016-02-20T09:25:59.950Z</time>
      </trkpt>
      <trkpt lat="43.68175" lon="5.81398">
        <ele>452</ele>
        <time>2016-02-20T09:26:00.872Z</time>
      </trkpt>
      <trkpt lat="43.68172" lon="5.81407">
        <ele>452</ele>
        <time>2016-02-20T09:26:03.946Z</time>
      </trkpt>
      <trkpt lat="43.68171" lon="5.8141">
        <ele>452</ele>
        <time>2016-02-20T09:26:04.874Z</time>
      </trkpt>
      <trkpt lat="43.68167" lon="5.81419">
        <ele>454</ele>
        <time>2016-02-20T09:26:07.938Z</time>
      </trkpt>
      <trkpt lat="43.68166" lon="5.81422">
        <ele>454</ele>
        <time>2016-02-20T09:26:08.877Z</time>
      </trkpt>
      <trkpt lat="43.6816" lon="5.81429">
        <ele>454</ele>
        <time>2016-02-20T09:26:11.944Z</time>
      </trkpt>
      <trkpt lat="43.68158" lon="5.8143">
        <ele>454</ele>
        <time>2016-02-20T09:26:12.850Z</time>
      </trkpt>
      <trkpt lat="43.6815" lon="5.8143">
        <ele>455</ele>
        <time>2016-02-20T09:26:15.946Z</time>
      </trkpt>
      <trkpt lat="43.68147" lon="5.81428">
        <ele>455</ele>
        <time>2016-02-20T09:26:16.872Z</time>
      </trkpt>
      <trkpt lat="43.68139" lon="5.81423">
        <ele>455</ele>
        <time>2016-02-20T09:26:19.945Z</time>
      </trkpt>
      <trkpt lat="43.68137" lon="5.81421">
        <ele>455</ele>
        <time>2016-02-20T09:26:20.876Z</time>
      </trkpt>
      <trkpt lat="43.68131" lon="5.81416">
        <ele>455</ele>
        <time>2016-02-20T09:26:22.961Z</time>
      </trkpt>
      <trkpt lat="43.68128" lon="5.81413">
        <ele>454</ele>
        <time>2016-02-20T09:26:23.879Z</time>
      </trkpt>
      <trkpt lat="43.68122" lon="5.81407">
        <ele>455</ele>
        <time>2016-02-20T09:26:25.947Z</time>
      </trkpt>
      <trkpt lat="43.68118" lon="5.81405">
        <ele>455</ele>
        <time>2016-02-20T09:26:26.876Z</time>
      </trkpt>
      <trkpt lat="43.68112" lon="5.81405">
        <ele>455</ele>
        <time>2016-02-20T09:26:29.019Z</time>
      </trkpt>
      <trkpt lat="43.68109" lon="5.81406">
        <ele>455</ele>
        <time>2016-02-20T09:26:29.846Z</time>
      </trkpt>
      <trkpt lat="43.68101" lon="5.81412">
        <ele>456</ele>
        <time>2016-02-20T09:26:32.947Z</time>
      </trkpt>
      <trkpt lat="43.68099" lon="5.81414">
        <ele>456</ele>
        <time>2016-02-20T09:26:33.877Z</time>
      </trkpt>
      <trkpt lat="43.68094" lon="5.8142">
        <ele>457</ele>
        <time>2016-02-20T09:26:35.960Z</time>
      </trkpt>
      <trkpt lat="43.68092" lon="5.81422">
        <ele>457</ele>
        <time>2016-02-20T09:26:36.873Z</time>
      </trkpt>
      <trkpt lat="43.68086" lon="5.81426">
        <ele>457</ele>
        <time>2016-02-20T09:26:38.958Z</time>
      </trkpt>
      <trkpt lat="43.68083" lon="5.81427">
        <ele>457</ele>
        <time>2016-02-20T09:26:39.871Z</time>
      </trkpt>
      <trkpt lat="43.68077" lon="5.81429">
        <ele>457</ele>
        <time>2016-02-20T09:26:42.520Z</time>
      </trkpt>
      <trkpt lat="43.68074" lon="5.81429">
        <ele>457</ele>
        <time>2016-02-20T09:26:42.875Z</time>
      </trkpt>
      <trkpt lat="43.68065" lon="5.81427">
        <ele>457</ele>
        <time>2016-02-20T09:26:45.948Z</time>
      </trkpt>
      <trkpt lat="43.68062" lon="5.81426">
        <ele>457</ele>
        <time>2016-02-20T09:26:46.876Z</time>
      </trkpt>
      <trkpt lat="43.68054" lon="5.81427">
        <ele>458</ele>
        <time>2016-02-20T09:26:49.940Z</time>
      </trkpt>
      <trkpt lat="43.68051" lon="5.81428">
        <ele>458</ele>
        <time>2016-02-20T09:26:50.869Z</time>
      </trkpt>
      <trkpt lat="43.68044" lon="5.81435">
        <ele>459</ele>
        <time>2016-02-20T09:26:53.948Z</time>
      </trkpt>
      <trkpt lat="43.68042" lon="5.81437">
        <ele>459</ele>
        <time>2016-02-20T09:26:55.454Z</time>
      </trkpt>
      <trkpt lat="43.68036" lon="5.81444">
        <ele>459</ele>
        <time>2016-02-20T09:26:57.953Z</time>
      </trkpt>
      <trkpt lat="43.68034" lon="5.81447">
        <ele>459</ele>
        <time>2016-02-20T09:26:58.869Z</time>
      </trkpt>
      <trkpt lat="43.68028" lon="5.81453">
        <ele>459</ele>
        <time>2016-02-20T09:27:01.943Z</time>
      </trkpt>
      <trkpt lat="43.68026" lon="5.81455">
        <ele>459</ele>
        <time>2016-02-20T09:27:02.886Z</time>
      </trkpt>
      <trkpt lat="43.68022" lon="5.81465">
        <ele>460</ele>
        <time>2016-02-20T09:27:05.955Z</time>
      </trkpt>
      <trkpt lat="43.6802" lon="5.81468">
        <ele>460</ele>
        <time>2016-02-20T09:27:06.878Z</time>
      </trkpt>
      <trkpt lat="43.68014" lon="5.81474">
        <ele>460</ele>
        <time>2016-02-20T09:27:09.950Z</time>
      </trkpt>
      <trkpt lat="43.68012" lon="5.81476">
        <ele>460</ele>
        <time>2016-02-20T09:27:10.876Z</time>
      </trkpt>
      <trkpt lat="43.68004" lon="5.8148">
        <ele>461</ele>
        <time>2016-02-20T09:27:13.950Z</time>
      </trkpt>
      <trkpt lat="43.68002" lon="5.81482">
        <ele>461</ele>
        <time>2016-02-20T09:27:14.875Z</time>
      </trkpt>
      <trkpt lat="43.67995" lon="5.81487">
        <ele>461</ele>
        <time>2016-02-20T09:27:17.947Z</time>
      </trkpt>
      <trkpt lat="43.67993" lon="5.81489">
        <ele>462</ele>
        <time>2016-02-20T09:27:18.872Z</time>
      </trkpt>
      <trkpt lat="43.67988" lon="5.81497">
        <ele>462</ele>
        <time>2016-02-20T09:27:21.948Z</time>
      </trkpt>
      <trkpt lat="43.67986" lon="5.815">
        <ele>462</ele>
        <time>2016-02-20T09:27:22.869Z</time>
      </trkpt>
      <trkpt lat="43.67981" lon="5.81509">
        <ele>462</ele>
        <time>2016-02-20T09:27:25.942Z</time>
      </trkpt>
      <trkpt lat="43.6798" lon="5.81512">
        <ele>462</ele>
        <time>2016-02-20T09:27:26.871Z</time>
      </trkpt>
      <trkpt lat="43.67977" lon="5.81521">
        <ele>463</ele>
        <time>2016-02-20T09:27:29.946Z</time>
      </trkpt>
      <trkpt lat="43.67977" lon="5.81525">
        <ele>463</ele>
        <time>2016-02-20T09:27:30.872Z</time>
      </trkpt>
      <trkpt lat="43.67975" lon="5.81535">
        <ele>463</ele>
        <time>2016-02-20T09:27:33.945Z</time>
      </trkpt>
      <trkpt lat="43.67974" lon="5.81538">
        <ele>463</ele>
        <time>2016-02-20T09:27:34.899Z</time>
      </trkpt>
      <trkpt lat="43.67973" lon="5.81548">
        <ele>464</ele>
        <time>2016-02-20T09:27:37.936Z</time>
      </trkpt>
      <trkpt lat="43.67972" lon="5.81551">
        <ele>464</ele>
        <time>2016-02-20T09:27:38.875Z</time>
      </trkpt>
      <trkpt lat="43.6797" lon="5.81562">
        <ele>464</ele>
        <time>2016-02-20T09:27:41.987Z</time>
      </trkpt>
      <trkpt lat="43.67969" lon="5.81565">
        <ele>464</ele>
        <time>2016-02-20T09:27:42.872Z</time>
      </trkpt>
      <trkpt lat="43.67966" lon="5.81575">
        <ele>465</ele>
        <time>2016-02-20T09:27:45.934Z</time>
      </trkpt>
      <trkpt lat="43.67965" lon="5.81579">
        <ele>465</ele>
        <time>2016-02-20T09:27:46.875Z</time>
      </trkpt>
      <trkpt lat="43.67959" lon="5.81586">
        <ele>466</ele>
        <time>2016-02-20T09:27:49.947Z</time>
      </trkpt>
      <trkpt lat="43.67957" lon="5.81588">
        <ele>466</ele>
        <time>2016-02-20T09:27:50.873Z</time>
      </trkpt>
      <trkpt lat="43.67952" lon="5.81595">
        <ele>466</ele>
        <time>2016-02-20T09:27:53.939Z</time>
      </trkpt>
      <trkpt lat="43.6795" lon="5.81597">
        <ele>466</ele>
        <time>2016-02-20T09:27:54.875Z</time>
      </trkpt>
      <trkpt lat="43.67941" lon="5.816">
        <ele>466</ele>
        <time>2016-02-20T09:27:58.942Z</time>
      </trkpt>
      <trkpt lat="43.67939" lon="5.81598">
        <ele>466</ele>
        <time>2016-02-20T09:27:59.875Z</time>
      </trkpt>
      <trkpt lat="43.67938" lon="5.81587">
        <ele>465</ele>
        <time>2016-02-20T09:28:02.952Z</time>
      </trkpt>
      <trkpt lat="43.67939" lon="5.81583">
        <ele>465</ele>
        <time>2016-02-20T09:28:03.877Z</time>
      </trkpt>
      <trkpt lat="43.67938" lon="5.81573">
        <ele>465</ele>
        <time>2016-02-20T09:28:06.945Z</time>
      </trkpt>
      <trkpt lat="43.67938" lon="5.8157">
        <ele>465</ele>
        <time>2016-02-20T09:28:07.872Z</time>
      </trkpt>
      <trkpt lat="43.67935" lon="5.8156">
        <ele>466</ele>
        <time>2016-02-20T09:28:10.958Z</time>
      </trkpt>
      <trkpt lat="43.67934" lon="5.81557">
        <ele>466</ele>
        <time>2016-02-20T09:28:11.870Z</time>
      </trkpt>
      <trkpt lat="43.67932" lon="5.81547">
        <ele>465</ele>
        <time>2016-02-20T09:28:14.942Z</time>
      </trkpt>
      <trkpt lat="43.67931" lon="5.81543">
        <ele>465</ele>
        <time>2016-02-20T09:28:15.873Z</time>
      </trkpt>
      <trkpt lat="43.67931" lon="5.81534">
        <ele>464</ele>
        <time>2016-02-20T09:28:17.973Z</time>
      </trkpt>
      <trkpt lat="43.67931" lon="5.81529">
        <ele>464</ele>
        <time>2016-02-20T09:28:18.881Z</time>
      </trkpt>
      <trkpt lat="43.67932" lon="5.8152">
        <ele>464</ele>
        <time>2016-02-20T09:28:20.879Z</time>
      </trkpt>
      <trkpt lat="43.67932" lon="5.81515">
        <ele>464</ele>
        <time>2016-02-20T09:28:21.869Z</time>
      </trkpt>
      <trkpt lat="43.67931" lon="5.81506">
        <ele>464</ele>
        <time>2016-02-20T09:28:23.958Z</time>
      </trkpt>
      <trkpt lat="43.67932" lon="5.81502">
        <ele>464</ele>
        <time>2016-02-20T09:28:24.881Z</time>
      </trkpt>
      <trkpt lat="43.67933" lon="5.81493">
        <ele>463</ele>
        <time>2016-02-20T09:28:26.950Z</time>
      </trkpt>
      <trkpt lat="43.67933" lon="5.81489">
        <ele>464</ele>
        <time>2016-02-20T09:28:27.875Z</time>
      </trkpt>
      <trkpt lat="43.67934" lon="5.8148">
        <ele>464</ele>
        <time>2016-02-20T09:28:29.966Z</time>
      </trkpt>
      <trkpt lat="43.67935" lon="5.81476">
        <ele>464</ele>
        <time>2016-02-20T09:28:30.876Z</time>
      </trkpt>
      <trkpt lat="43.67934" lon="5.81466">
        <ele>464</ele>
        <time>2016-02-20T09:28:33.960Z</time>
      </trkpt>
      <trkpt lat="43.67932" lon="5.81464">
        <ele>465</ele>
        <time>2016-02-20T09:28:34.875Z</time>
      </trkpt>
      <trkpt lat="43.67924" lon="5.81459">
        <ele>464</ele>
        <time>2016-02-20T09:28:40.957Z</time>
      </trkpt>
      <trkpt lat="43.67923" lon="5.81459">
        <ele>464</ele>
        <time>2016-02-20T09:28:41.870Z</time>
      </trkpt>
      <trkpt lat="43.67918" lon="5.8145">
        <ele>463</ele>
        <time>2016-02-20T09:28:45.949Z</time>
      </trkpt>
      <trkpt lat="43.67916" lon="5.81448">
        <ele>463</ele>
        <time>2016-02-20T09:28:46.878Z</time>
      </trkpt>
      <trkpt lat="43.67909" lon="5.81453">
        <ele>461</ele>
        <time>2016-02-20T09:28:50.953Z</time>
      </trkpt>
      <trkpt lat="43.67908" lon="5.81455">
        <ele>461</ele>
        <time>2016-02-20T09:28:51.875Z</time>
      </trkpt>
      <trkpt lat="43.67903" lon="5.81463">
        <ele>460</ele>
        <time>2016-02-20T09:28:54.943Z</time>
      </trkpt>
      <trkpt lat="43.67899" lon="5.81468">
        <ele>459</ele>
        <time>2016-02-20T09:28:55.874Z</time>
      </trkpt>
      <trkpt lat="43.67899" lon="5.81468">
        <ele>459</ele>
        <time>2016-02-20T09:28:55.966Z</time>
      </trkpt>
      <trkpt lat="43.67891" lon="5.81475">
        <ele>459</ele>
        <time>2016-02-20T09:28:56.872Z</time>
      </trkpt>
      <trkpt lat="43.67887" lon="5.81479">
        <ele>458</ele>
        <time>2016-02-20T09:28:57.955Z</time>
      </trkpt>
      <trkpt lat="43.67881" lon="5.81483">
        <ele>458</ele>
        <time>2016-02-20T09:28:58.871Z</time>
      </trkpt>
      <trkpt lat="43.67874" lon="5.81488">
        <ele>456</ele>
        <time>2016-02-20T09:29:00.942Z</time>
      </trkpt>
      <trkpt lat="43.6787" lon="5.81491">
        <ele>456</ele>
        <time>2016-02-20T09:29:01.870Z</time>
      </trkpt>
      <trkpt lat="43.67868" lon="5.81501">
        <ele>456</ele>
        <time>2016-02-20T09:29:04.943Z</time>
      </trkpt>
      <trkpt lat="43.67866" lon="5.81504">
        <ele>456</ele>
        <time>2016-02-20T09:29:05.870Z</time>
      </trkpt>
      <trkpt lat="43.67861" lon="5.81512">
        <ele>455</ele>
        <time>2016-02-20T09:29:07.946Z</time>
      </trkpt>
      <trkpt lat="43.6786" lon="5.81517">
        <ele>455</ele>
        <time>2016-02-20T09:29:08.875Z</time>
      </trkpt>
      <trkpt lat="43.67854" lon="5.81524">
        <ele>453</ele>
        <time>2016-02-20T09:29:11.944Z</time>
      </trkpt>
      <trkpt lat="43.6785" lon="5.81527">
        <ele>453</ele>
        <time>2016-02-20T09:29:12.873Z</time>
      </trkpt>
      <trkpt lat="43.67844" lon="5.81533">
        <ele>451</ele>
        <time>2016-02-20T09:29:13.989Z</time>
      </trkpt>
      <trkpt lat="43.67838" lon="5.81536">
        <ele>450</ele>
        <time>2016-02-20T09:29:14.870Z</time>
      </trkpt>
      <trkpt lat="43.67831" lon="5.81538">
        <ele>450</ele>
        <time>2016-02-20T09:29:15.938Z</time>
      </trkpt>
      <trkpt lat="43.67825" lon="5.81539">
        <ele>450</ele>
        <time>2016-02-20T09:29:16.877Z</time>
      </trkpt>
      <trkpt lat="43.67819" lon="5.81539">
        <ele>451</ele>
        <time>2016-02-20T09:29:17.959Z</time>
      </trkpt>
      <trkpt lat="43.67814" lon="5.81539">
        <ele>450</ele>
        <time>2016-02-20T09:29:18.878Z</time>
      </trkpt>
      <trkpt lat="43.67808" lon="5.81534">
        <ele>451</ele>
        <time>2016-02-20T09:29:20.956Z</time>
      </trkpt>
      <trkpt lat="43.67806" lon="5.81531">
        <ele>451</ele>
        <time>2016-02-20T09:29:21.847Z</time>
      </trkpt>
      <trkpt lat="43.67809" lon="5.81521">
        <ele>450</ele>
        <time>2016-02-20T09:29:24.940Z</time>
      </trkpt>
      <trkpt lat="43.67809" lon="5.81518">
        <ele>450</ele>
        <time>2016-02-20T09:29:25.876Z</time>
      </trkpt>
      <trkpt lat="43.6781" lon="5.81506">
        <ele>451</ele>
        <time>2016-02-20T09:29:29.980Z</time>
      </trkpt>
      <trkpt lat="43.67809" lon="5.81504">
        <ele>451</ele>
        <time>2016-02-20T09:29:30.870Z</time>
      </trkpt>
      <trkpt lat="43.67807" lon="5.81492">
        <ele>452</ele>
        <time>2016-02-20T09:29:34.943Z</time>
      </trkpt>
      <trkpt lat="43.67807" lon="5.81489">
        <ele>452</ele>
        <time>2016-02-20T09:29:35.876Z</time>
      </trkpt>
      <trkpt lat="43.67809" lon="5.81478">
        <ele>452</ele>
        <time>2016-02-20T09:29:39.878Z</time>
      </trkpt>
      <trkpt lat="43.6781" lon="5.81476">
        <ele>452</ele>
        <time>2016-02-20T09:29:40.896Z</time>
      </trkpt>
      <trkpt lat="43.67812" lon="5.81465">
        <ele>453</ele>
        <time>2016-02-20T09:29:44.960Z</time>
      </trkpt>
      <trkpt lat="43.67813" lon="5.81462">
        <ele>452</ele>
        <time>2016-02-20T09:29:45.870Z</time>
      </trkpt>
      <trkpt lat="43.67815" lon="5.81454">
        <ele>452</ele>
        <time>2016-02-20T09:29:48.955Z</time>
      </trkpt>
      <trkpt lat="43.67817" lon="5.81451">
        <ele>452</ele>
        <time>2016-02-20T09:29:49.872Z</time>
      </trkpt>
      <trkpt lat="43.67821" lon="5.81444">
        <ele>451</ele>
        <time>2016-02-20T09:29:51.972Z</time>
      </trkpt>
      <trkpt lat="43.67823" lon="5.8144">
        <ele>451</ele>
        <time>2016-02-20T09:29:52.870Z</time>
      </trkpt>
      <trkpt lat="43.67823" lon="5.81431">
        <ele>452</ele>
        <time>2016-02-20T09:29:55.938Z</time>
      </trkpt>
      <trkpt lat="43.67823" lon="5.81427">
        <ele>452</ele>
        <time>2016-02-20T09:29:56.876Z</time>
      </trkpt>
      <trkpt lat="43.6782" lon="5.81416">
        <ele>453</ele>
        <time>2016-02-20T09:30:00.958Z</time>
      </trkpt>
      <trkpt lat="43.67819" lon="5.81414">
        <ele>453</ele>
        <time>2016-02-20T09:30:01.871Z</time>
      </trkpt>
      <trkpt lat="43.67818" lon="5.81403">
        <ele>452</ele>
        <time>2016-02-20T09:30:05.947Z</time>
      </trkpt>
      <trkpt lat="43.67818" lon="5.814">
        <ele>452</ele>
        <time>2016-02-20T09:30:06.874Z</time>
      </trkpt>
      <trkpt lat="43.67818" lon="5.8139">
        <ele>451</ele>
        <time>2016-02-20T09:30:09.957Z</time>
      </trkpt>
      <trkpt lat="43.67817" lon="5.81386">
        <ele>451</ele>
        <time>2016-02-20T09:30:11.438Z</time>
      </trkpt>
      <trkpt lat="43.67814" lon="5.81379">
        <ele>451</ele>
        <time>2016-02-20T09:30:12.945Z</time>
      </trkpt>
      <trkpt lat="43.67812" lon="5.81374">
        <ele>450</ele>
        <time>2016-02-20T09:30:13.894Z</time>
      </trkpt>
      <trkpt lat="43.6781" lon="5.81369">
        <ele>449</ele>
        <time>2016-02-20T09:30:14.959Z</time>
      </trkpt>
      <trkpt lat="43.67808" lon="5.81362">
        <ele>449</ele>
        <time>2016-02-20T09:30:15.879Z</time>
      </trkpt>
      <trkpt lat="43.67805" lon="5.81354">
        <ele>447</ele>
        <time>2016-02-20T09:30:16.959Z</time>
      </trkpt>
      <trkpt lat="43.67802" lon="5.81347">
        <ele>447</ele>
        <time>2016-02-20T09:30:17.885Z</time>
      </trkpt>
      <trkpt lat="43.67799" lon="5.81339">
        <ele>447</ele>
        <time>2016-02-20T09:30:18.951Z</time>
      </trkpt>
      <trkpt lat="43.67797" lon="5.81332">
        <ele>447</ele>
        <time>2016-02-20T09:30:19.876Z</time>
      </trkpt>
      <trkpt lat="43.67795" lon="5.81325">
        <ele>446</ele>
        <time>2016-02-20T09:30:20.946Z</time>
      </trkpt>
      <trkpt lat="43.67791" lon="5.81316">
        <ele>445</ele>
        <time>2016-02-20T09:30:21.878Z</time>
      </trkpt>
      <trkpt lat="43.67788" lon="5.81307">
        <ele>444</ele>
        <time>2016-02-20T09:30:22.879Z</time>
      </trkpt>
      <trkpt lat="43.67785" lon="5.81299">
        <ele>445</ele>
        <time>2016-02-20T09:30:23.875Z</time>
      </trkpt>
      <trkpt lat="43.67783" lon="5.81291">
        <ele>445</ele>
        <time>2016-02-20T09:30:25.006Z</time>
      </trkpt>
      <trkpt lat="43.67781" lon="5.81283">
        <ele>444</ele>
        <time>2016-02-20T09:30:25.876Z</time>
      </trkpt>
      <trkpt lat="43.67779" lon="5.81276">
        <ele>444</ele>
        <time>2016-02-20T09:30:26.945Z</time>
      </trkpt>
      <trkpt lat="43.67778" lon="5.8127">
        <ele>444</ele>
        <time>2016-02-20T09:30:27.872Z</time>
      </trkpt>
      <trkpt lat="43.67777" lon="5.8126">
        <ele>444</ele>
        <time>2016-02-20T09:30:29.951Z</time>
      </trkpt>
      <trkpt lat="43.67777" lon="5.81256">
        <ele>443</ele>
        <time>2016-02-20T09:30:30.878Z</time>
      </trkpt>
      <trkpt lat="43.67777" lon="5.81246">
        <ele>443</ele>
        <time>2016-02-20T09:30:32.879Z</time>
      </trkpt>
      <trkpt lat="43.67777" lon="5.81243">
        <ele>443</ele>
        <time>2016-02-20T09:30:33.863Z</time>
      </trkpt>
      <trkpt lat="43.67777" lon="5.81232">
        <ele>443</ele>
        <time>2016-02-20T09:30:37.084Z</time>
      </trkpt>
      <trkpt lat="43.67778" lon="5.81228">
        <ele>443</ele>
        <time>2016-02-20T09:30:37.872Z</time>
      </trkpt>
      <trkpt lat="43.67779" lon="5.81218">
        <ele>443</ele>
        <time>2016-02-20T09:30:40.943Z</time>
      </trkpt>
      <trkpt lat="43.6778" lon="5.81214">
        <ele>443</ele>
        <time>2016-02-20T09:30:41.872Z</time>
      </trkpt>
      <trkpt lat="43.67782" lon="5.81203">
        <ele>443</ele>
        <time>2016-02-20T09:30:44.915Z</time>
      </trkpt>
      <trkpt lat="43.67782" lon="5.81199">
        <ele>443</ele>
        <time>2016-02-20T09:30:45.876Z</time>
      </trkpt>
      <trkpt lat="43.67783" lon="5.81188">
        <ele>443</ele>
        <time>2016-02-20T09:30:48.943Z</time>
      </trkpt>
      <trkpt lat="43.67783" lon="5.81185">
        <ele>443</ele>
        <time>2016-02-20T09:30:49.873Z</time>
      </trkpt>
      <trkpt lat="43.6778" lon="5.81173">
        <ele>443</ele>
        <time>2016-02-20T09:30:55.945Z</time>
      </trkpt>
      <trkpt lat="43.67779" lon="5.81172">
        <ele>443</ele>
        <time>2016-02-20T09:30:56.867Z</time>
      </trkpt>
      <trkpt lat="43.67771" lon="5.8117">
        <ele>445</ele>
        <time>2016-02-20T09:31:01.941Z</time>
      </trkpt>
      <trkpt lat="43.6777" lon="5.81169">
        <ele>445</ele>
        <time>2016-02-20T09:31:02.897Z</time>
      </trkpt>
      <trkpt lat="43.67764" lon="5.8116">
        <ele>445</ele>
        <time>2016-02-20T09:31:07.985Z</time>
      </trkpt>
      <trkpt lat="43.67763" lon="5.81158">
        <ele>445</ele>
        <time>2016-02-20T09:31:08.872Z</time>
      </trkpt>
      <trkpt lat="43.6776" lon="5.81148">
        <ele>446</ele>
        <time>2016-02-20T09:31:12.941Z</time>
      </trkpt>
      <trkpt lat="43.67759" lon="5.81145">
        <ele>446</ele>
        <time>2016-02-20T09:31:13.885Z</time>
      </trkpt>
      <trkpt lat="43.67755" lon="5.81136">
        <ele>448</ele>
        <time>2016-02-20T09:31:17.958Z</time>
      </trkpt>
      <trkpt lat="43.67753" lon="5.81135">
        <ele>448</ele>
        <time>2016-02-20T09:31:18.878Z</time>
      </trkpt>
      <trkpt lat="43.67746" lon="5.81128">
        <ele>449</ele>
        <time>2016-02-20T09:31:23.887Z</time>
      </trkpt>
      <trkpt lat="43.67745" lon="5.81126">
        <ele>449</ele>
        <time>2016-02-20T09:31:24.891Z</time>
      </trkpt>
      <trkpt lat="43.67739" lon="5.81117">
        <ele>450</ele>
        <time>2016-02-20T09:31:30.944Z</time>
      </trkpt>
      <trkpt lat="43.67738" lon="5.81116">
        <ele>450</ele>
        <time>2016-02-20T09:31:31.878Z</time>
      </trkpt>
      <trkpt lat="43.67734" lon="5.81107">
        <ele>451</ele>
        <time>2016-02-20T09:31:36.944Z</time>
      </trkpt>
      <trkpt lat="43.67733" lon="5.81105">
        <ele>451</ele>
        <time>2016-02-20T09:31:37.875Z</time>
      </trkpt>
      <trkpt lat="43.67728" lon="5.81097">
        <ele>453</ele>
        <time>2016-02-20T09:31:42.945Z</time>
      </trkpt>
      <trkpt lat="43.67728" lon="5.81095">
        <ele>453</ele>
        <time>2016-02-20T09:31:43.874Z</time>
      </trkpt>
      <trkpt lat="43.67723" lon="5.81086">
        <ele>453</ele>
        <time>2016-02-20T09:31:48.944Z</time>
      </trkpt>
      <trkpt lat="43.67722" lon="5.81084">
        <ele>454</ele>
        <time>2016-02-20T09:31:49.871Z</time>
      </trkpt>
      <trkpt lat="43.67714" lon="5.81078">
        <ele>455</ele>
        <time>2016-02-20T09:31:55.941Z</time>
      </trkpt>
      <trkpt lat="43.67713" lon="5.81079">
        <ele>456</ele>
        <time>2016-02-20T09:31:56.874Z</time>
      </trkpt>
      <trkpt lat="43.67712" lon="5.8109">
        <ele>456</ele>
        <time>2016-02-20T09:32:01.938Z</time>
      </trkpt>
      <trkpt lat="43.67712" lon="5.81092">
        <ele>457</ele>
        <time>2016-02-20T09:32:02.877Z</time>
      </trkpt>
      <trkpt lat="43.6771" lon="5.81104">
        <ele>457</ele>
        <time>2016-02-20T09:32:07.948Z</time>
      </trkpt>
      <trkpt lat="43.67711" lon="5.81107">
        <ele>457</ele>
        <time>2016-02-20T09:32:08.870Z</time>
      </trkpt>
      <trkpt lat="43.67711" lon="5.81119">
        <ele>457</ele>
        <time>2016-02-20T09:32:13.889Z</time>
      </trkpt>
      <trkpt lat="43.67711" lon="5.81121">
        <ele>458</ele>
        <time>2016-02-20T09:32:14.874Z</time>
      </trkpt>
      <trkpt lat="43.67708" lon="5.81132">
        <ele>458</ele>
        <time>2016-02-20T09:32:19.930Z</time>
      </trkpt>
      <trkpt lat="43.67708" lon="5.81135">
        <ele>458</ele>
        <time>2016-02-20T09:32:20.856Z</time>
      </trkpt>
      <trkpt lat="43.67706" lon="5.81146">
        <ele>460</ele>
        <time>2016-02-20T09:32:25.919Z</time>
      </trkpt>
      <trkpt lat="43.67705" lon="5.81147">
        <ele>459</ele>
        <time>2016-02-20T09:32:26.876Z</time>
      </trkpt>
      <trkpt lat="43.67699" lon="5.81155">
        <ele>460</ele>
        <time>2016-02-20T09:32:31.927Z</time>
      </trkpt>
      <trkpt lat="43.67697" lon="5.81156">
        <ele>460</ele>
        <time>2016-02-20T09:32:32.875Z</time>
      </trkpt>
      <trkpt lat="43.67691" lon="5.81163">
        <ele>461</ele>
        <time>2016-02-20T09:32:37.926Z</time>
      </trkpt>
      <trkpt lat="43.6769" lon="5.81165">
        <ele>462</ele>
        <time>2016-02-20T09:32:38.873Z</time>
      </trkpt>
      <trkpt lat="43.67686" lon="5.81175">
        <ele>462</ele>
        <time>2016-02-20T09:32:43.937Z</time>
      </trkpt>
      <trkpt lat="43.67684" lon="5.81176">
        <ele>463</ele>
        <time>2016-02-20T09:32:44.876Z</time>
      </trkpt>
      <trkpt lat="43.67678" lon="5.81183">
        <ele>464</ele>
        <time>2016-02-20T09:32:49.935Z</time>
      </trkpt>
      <trkpt lat="43.67678" lon="5.81186">
        <ele>464</ele>
        <time>2016-02-20T09:32:50.875Z</time>
      </trkpt>
      <trkpt lat="43.67676" lon="5.81196">
        <ele>463</ele>
        <time>2016-02-20T09:32:54.954Z</time>
      </trkpt>
      <trkpt lat="43.67676" lon="5.81199">
        <ele>463</ele>
        <time>2016-02-20T09:32:55.875Z</time>
      </trkpt>
      <trkpt lat="43.67675" lon="5.8121">
        <ele>462</ele>
        <time>2016-02-20T09:32:59.949Z</time>
      </trkpt>
      <trkpt lat="43.67675" lon="5.81212">
        <ele>462</ele>
        <time>2016-02-20T09:33:00.878Z</time>
      </trkpt>
      <trkpt lat="43.6767" lon="5.81221">
        <ele>461</ele>
        <time>2016-02-20T09:33:04.922Z</time>
      </trkpt>
      <trkpt lat="43.67669" lon="5.81224">
        <ele>461</ele>
        <time>2016-02-20T09:33:05.876Z</time>
      </trkpt>
      <trkpt lat="43.67671" lon="5.81236">
        <ele>461</ele>
        <time>2016-02-20T09:33:09.921Z</time>
      </trkpt>
      <trkpt lat="43.67672" lon="5.81238">
        <ele>461</ele>
        <time>2016-02-20T09:33:10.873Z</time>
      </trkpt>
      <trkpt lat="43.67675" lon="5.8125">
        <ele>460</ele>
        <time>2016-02-20T09:33:14.922Z</time>
      </trkpt>
      <trkpt lat="43.67676" lon="5.81253">
        <ele>461</ele>
        <time>2016-02-20T09:33:15.970Z</time>
      </trkpt>
      <trkpt lat="43.67676" lon="5.81264">
        <ele>461</ele>
        <time>2016-02-20T09:33:19.939Z</time>
      </trkpt>
      <trkpt lat="43.67676" lon="5.81267">
        <ele>461</ele>
        <time>2016-02-20T09:33:20.886Z</time>
      </trkpt>
      <trkpt lat="43.67675" lon="5.81278">
        <ele>462</ele>
        <time>2016-02-20T09:33:24.928Z</time>
      </trkpt>
      <trkpt lat="43.67675" lon="5.81281">
        <ele>462</ele>
        <time>2016-02-20T09:33:25.874Z</time>
      </trkpt>
      <trkpt lat="43.67672" lon="5.8129">
        <ele>463</ele>
        <time>2016-02-20T09:33:28.929Z</time>
      </trkpt>
      <trkpt lat="43.67671" lon="5.81293">
        <ele>463</ele>
        <time>2016-02-20T09:33:29.871Z</time>
      </trkpt>
      <trkpt lat="43.67667" lon="5.813">
        <ele>464</ele>
        <time>2016-02-20T09:33:32.921Z</time>
      </trkpt>
      <trkpt lat="43.67665" lon="5.81302">
        <ele>463</ele>
        <time>2016-02-20T09:33:33.879Z</time>
      </trkpt>
      <trkpt lat="43.6766" lon="5.81312">
        <ele>464</ele>
        <time>2016-02-20T09:33:37.936Z</time>
      </trkpt>
      <trkpt lat="43.6766" lon="5.81316">
        <ele>464</ele>
        <time>2016-02-20T09:33:38.898Z</time>
      </trkpt>
      <trkpt lat="43.67659" lon="5.81327">
        <ele>464</ele>
        <time>2016-02-20T09:33:41.927Z</time>
      </trkpt>
      <trkpt lat="43.67659" lon="5.81331">
        <ele>464</ele>
        <time>2016-02-20T09:33:42.873Z</time>
      </trkpt>
      <trkpt lat="43.67657" lon="5.81341">
        <ele>464</ele>
        <time>2016-02-20T09:33:45.937Z</time>
      </trkpt>
      <trkpt lat="43.67656" lon="5.81344">
        <ele>464</ele>
        <time>2016-02-20T09:33:47.021Z</time>
      </trkpt>
      <trkpt lat="43.67652" lon="5.81353">
        <ele>464</ele>
        <time>2016-02-20T09:33:49.929Z</time>
      </trkpt>
      <trkpt lat="43.67651" lon="5.81357">
        <ele>464</ele>
        <time>2016-02-20T09:33:50.848Z</time>
      </trkpt>
      <trkpt lat="43.67651" lon="5.81368">
        <ele>464</ele>
        <time>2016-02-20T09:33:53.927Z</time>
      </trkpt>
      <trkpt lat="43.67652" lon="5.81372">
        <ele>464</ele>
        <time>2016-02-20T09:33:54.875Z</time>
      </trkpt>
      <trkpt lat="43.67654" lon="5.81383">
        <ele>465</ele>
        <time>2016-02-20T09:33:57.930Z</time>
      </trkpt>
      <trkpt lat="43.67655" lon="5.81387">
        <ele>465</ele>
        <time>2016-02-20T09:33:58.879Z</time>
      </trkpt>
      <trkpt lat="43.67656" lon="5.81398">
        <ele>465</ele>
        <time>2016-02-20T09:34:01.917Z</time>
      </trkpt>
      <trkpt lat="43.67656" lon="5.81401">
        <ele>465</ele>
        <time>2016-02-20T09:34:02.877Z</time>
      </trkpt>
      <trkpt lat="43.67656" lon="5.81412">
        <ele>464</ele>
        <time>2016-02-20T09:34:05.932Z</time>
      </trkpt>
      <trkpt lat="43.67656" lon="5.81415">
        <ele>464</ele>
        <time>2016-02-20T09:34:06.873Z</time>
      </trkpt>
      <trkpt lat="43.6766" lon="5.81425">
        <ele>464</ele>
        <time>2016-02-20T09:34:09.931Z</time>
      </trkpt>
      <trkpt lat="43.67661" lon="5.81428">
        <ele>464</ele>
        <time>2016-02-20T09:34:10.875Z</time>
      </trkpt>
      <trkpt lat="43.67663" lon="5.81438">
        <ele>464</ele>
        <time>2016-02-20T09:34:13.924Z</time>
      </trkpt>
      <trkpt lat="43.67663" lon="5.81441">
        <ele>464</ele>
        <time>2016-02-20T09:34:14.876Z</time>
      </trkpt>
      <trkpt lat="43.67664" lon="5.81451">
        <ele>465</ele>
        <time>2016-02-20T09:34:20.934Z</time>
      </trkpt>
      <trkpt lat="43.67664" lon="5.81455">
        <ele>466</ele>
        <time>2016-02-20T09:34:21.875Z</time>
      </trkpt>
      <trkpt lat="43.67663" lon="5.81464">
        <ele>466</ele>
        <time>2016-02-20T09:34:24.928Z</time>
      </trkpt>
      <trkpt lat="43.67662" lon="5.81467">
        <ele>466</ele>
        <time>2016-02-20T09:34:25.876Z</time>
      </trkpt>
      <trkpt lat="43.67657" lon="5.81475">
        <ele>466</ele>
        <time>2016-02-20T09:34:28.931Z</time>
      </trkpt>
      <trkpt lat="43.67655" lon="5.81479">
        <ele>466</ele>
        <time>2016-02-20T09:34:29.877Z</time>
      </trkpt>
      <trkpt lat="43.67652" lon="5.81489">
        <ele>466</ele>
        <time>2016-02-20T09:34:32.934Z</time>
      </trkpt>
      <trkpt lat="43.67652" lon="5.81492">
        <ele>466</ele>
        <time>2016-02-20T09:34:33.880Z</time>
      </trkpt>
      <trkpt lat="43.67652" lon="5.81503">
        <ele>466</ele>
        <time>2016-02-20T09:34:36.929Z</time>
      </trkpt>
      <trkpt lat="43.67653" lon="5.81508">
        <ele>466</ele>
        <time>2016-02-20T09:34:37.872Z</time>
      </trkpt>
      <trkpt lat="43.67654" lon="5.81519">
        <ele>466</ele>
        <time>2016-02-20T09:34:40.943Z</time>
      </trkpt>
      <trkpt lat="43.67656" lon="5.81523">
        <ele>466</ele>
        <time>2016-02-20T09:34:41.878Z</time>
      </trkpt>
      <trkpt lat="43.67661" lon="5.81532">
        <ele>466</ele>
        <time>2016-02-20T09:34:44.924Z</time>
      </trkpt>
      <trkpt lat="43.67663" lon="5.81535">
        <ele>466</ele>
        <time>2016-02-20T09:34:45.895Z</time>
      </trkpt>
      <trkpt lat="43.67668" lon="5.81544">
        <ele>466</ele>
        <time>2016-02-20T09:34:48.927Z</time>
      </trkpt>
      <trkpt lat="43.67668" lon="5.81548">
        <ele>467</ele>
        <time>2016-02-20T09:34:49.869Z</time>
      </trkpt>
      <trkpt lat="43.67666" lon="5.81559">
        <ele>466</ele>
        <time>2016-02-20T09:34:52.909Z</time>
      </trkpt>
      <trkpt lat="43.67665" lon="5.81563">
        <ele>466</ele>
        <time>2016-02-20T09:34:53.874Z</time>
      </trkpt>
      <trkpt lat="43.67662" lon="5.81574">
        <ele>467</ele>
        <time>2016-02-20T09:34:56.944Z</time>
      </trkpt>
      <trkpt lat="43.67661" lon="5.81578">
        <ele>467</ele>
        <time>2016-02-20T09:34:57.872Z</time>
      </trkpt>
      <trkpt lat="43.67657" lon="5.81588">
        <ele>468</ele>
        <time>2016-02-20T09:35:00.934Z</time>
      </trkpt>
      <trkpt lat="43.67655" lon="5.81591">
        <ele>469</ele>
        <time>2016-02-20T09:35:01.873Z</time>
      </trkpt>
      <trkpt lat="43.67654" lon="5.81603">
        <ele>468</ele>
        <time>2016-02-20T09:35:05.905Z</time>
      </trkpt>
      <trkpt lat="43.67654" lon="5.81607">
        <ele>468</ele>
        <time>2016-02-20T09:35:06.868Z</time>
      </trkpt>
      <trkpt lat="43.67653" lon="5.81617">
        <ele>468</ele>
        <time>2016-02-20T09:35:09.924Z</time>
      </trkpt>
      <trkpt lat="43.67652" lon="5.81621">
        <ele>468</ele>
        <time>2016-02-20T09:35:10.878Z</time>
      </trkpt>
      <trkpt lat="43.6765" lon="5.81629">
        <ele>468</ele>
        <time>2016-02-20T09:35:12.924Z</time>
      </trkpt>
      <trkpt lat="43.67648" lon="5.81632">
        <ele>468</ele>
        <time>2016-02-20T09:35:13.879Z</time>
      </trkpt>
      <trkpt lat="43.67647" lon="5.8164">
        <ele>468</ele>
        <time>2016-02-20T09:35:15.929Z</time>
      </trkpt>
      <trkpt lat="43.67646" lon="5.81644">
        <ele>468</ele>
        <time>2016-02-20T09:35:16.870Z</time>
      </trkpt>
      <trkpt lat="43.67643" lon="5.81655">
        <ele>468</ele>
        <time>2016-02-20T09:35:19.929Z</time>
      </trkpt>
      <trkpt lat="43.67641" lon="5.81659">
        <ele>468</ele>
        <time>2016-02-20T09:35:20.881Z</time>
      </trkpt>
      <trkpt lat="43.67642" lon="5.8167">
        <ele>468</ele>
        <time>2016-02-20T09:35:23.933Z</time>
      </trkpt>
      <trkpt lat="43.67642" lon="5.81673">
        <ele>468</ele>
        <time>2016-02-20T09:35:24.880Z</time>
      </trkpt>
      <trkpt lat="43.6764" lon="5.81682">
        <ele>468</ele>
        <time>2016-02-20T09:35:27.929Z</time>
      </trkpt>
      <trkpt lat="43.67639" lon="5.81686">
        <ele>468</ele>
        <time>2016-02-20T09:35:28.887Z</time>
      </trkpt>
      <trkpt lat="43.67636" lon="5.81695">
        <ele>469</ele>
        <time>2016-02-20T09:35:32.920Z</time>
      </trkpt>
      <trkpt lat="43.67636" lon="5.81697">
        <ele>469</ele>
        <time>2016-02-20T09:35:33.874Z</time>
      </trkpt>
      <trkpt lat="43.67632" lon="5.81707">
        <ele>470</ele>
        <time>2016-02-20T09:35:38.932Z</time>
      </trkpt>
      <trkpt lat="43.67631" lon="5.8171">
        <ele>470</ele>
        <time>2016-02-20T09:35:39.893Z</time>
      </trkpt>
      <trkpt lat="43.67629" lon="5.81718">
        <ele>470</ele>
        <time>2016-02-20T09:35:42.872Z</time>
      </trkpt>
      <trkpt lat="43.67628" lon="5.81721">
        <ele>470</ele>
        <time>2016-02-20T09:35:43.885Z</time>
      </trkpt>
      <trkpt lat="43.67626" lon="5.81731">
        <ele>470</ele>
        <time>2016-02-20T09:35:46.924Z</time>
      </trkpt>
      <trkpt lat="43.67626" lon="5.81735">
        <ele>470</ele>
        <time>2016-02-20T09:35:47.873Z</time>
      </trkpt>
      <trkpt lat="43.67624" lon="5.81743">
        <ele>471</ele>
        <time>2016-02-20T09:35:50.921Z</time>
      </trkpt>
      <trkpt lat="43.67622" lon="5.81746">
        <ele>471</ele>
        <time>2016-02-20T09:35:51.878Z</time>
      </trkpt>
      <trkpt lat="43.67617" lon="5.81755">
        <ele>471</ele>
        <time>2016-02-20T09:35:54.874Z</time>
      </trkpt>
      <trkpt lat="43.67615" lon="5.81758">
        <ele>471</ele>
        <time>2016-02-20T09:35:55.876Z</time>
      </trkpt>
      <trkpt lat="43.6761" lon="5.81766">
        <ele>472</ele>
        <time>2016-02-20T09:35:59.086Z</time>
      </trkpt>
      <trkpt lat="43.67609" lon="5.81768">
        <ele>472</ele>
        <time>2016-02-20T09:35:59.877Z</time>
      </trkpt>
      <trkpt lat="43.67604" lon="5.81777">
        <ele>473</ele>
        <time>2016-02-20T09:36:02.874Z</time>
      </trkpt>
      <trkpt lat="43.67602" lon="5.8178">
        <ele>473</ele>
        <time>2016-02-20T09:36:03.876Z</time>
      </trkpt>
      <trkpt lat="43.67598" lon="5.81789">
        <ele>473</ele>
        <time>2016-02-20T09:36:06.874Z</time>
      </trkpt>
      <trkpt lat="43.67596" lon="5.81792">
        <ele>473</ele>
        <time>2016-02-20T09:36:07.886Z</time>
      </trkpt>
      <trkpt lat="43.67591" lon="5.81801">
        <ele>473</ele>
        <time>2016-02-20T09:36:10.928Z</time>
      </trkpt>
      <trkpt lat="43.6759" lon="5.81804">
        <ele>473</ele>
        <time>2016-02-20T09:36:11.873Z</time>
      </trkpt>
      <trkpt lat="43.67588" lon="5.81816">
        <ele>472</ele>
        <time>2016-02-20T09:36:14.928Z</time>
      </trkpt>
      <trkpt lat="43.67587" lon="5.8182">
        <ele>472</ele>
        <time>2016-02-20T09:36:15.874Z</time>
      </trkpt>
      <trkpt lat="43.67585" lon="5.8183">
        <ele>472</ele>
        <time>2016-02-20T09:36:17.930Z</time>
      </trkpt>
      <trkpt lat="43.67585" lon="5.81834">
        <ele>472</ele>
        <time>2016-02-20T09:36:18.888Z</time>
      </trkpt>
      <trkpt lat="43.67583" lon="5.81843">
        <ele>473</ele>
        <time>2016-02-20T09:36:20.950Z</time>
      </trkpt>
      <trkpt lat="43.67582" lon="5.81847">
        <ele>473</ele>
        <time>2016-02-20T09:36:21.878Z</time>
      </trkpt>
      <trkpt lat="43.6758" lon="5.81855">
        <ele>473</ele>
        <time>2016-02-20T09:36:23.935Z</time>
      </trkpt>
      <trkpt lat="43.67578" lon="5.81859">
        <ele>473</ele>
        <time>2016-02-20T09:36:24.874Z</time>
      </trkpt>
      <trkpt lat="43.67576" lon="5.81867">
        <ele>473</ele>
        <time>2016-02-20T09:36:26.928Z</time>
      </trkpt>
      <trkpt lat="43.67576" lon="5.81871">
        <ele>472</ele>
        <time>2016-02-20T09:36:27.877Z</time>
      </trkpt>
      <trkpt lat="43.67573" lon="5.81882">
        <ele>473</ele>
        <time>2016-02-20T09:36:30.966Z</time>
      </trkpt>
      <trkpt lat="43.67572" lon="5.81887">
        <ele>472</ele>
        <time>2016-02-20T09:36:31.876Z</time>
      </trkpt>
      <trkpt lat="43.67569" lon="5.81894">
        <ele>472</ele>
        <time>2016-02-20T09:36:33.937Z</time>
      </trkpt>
      <trkpt lat="43.67568" lon="5.81898">
        <ele>472</ele>
        <time>2016-02-20T09:36:34.869Z</time>
      </trkpt>
      <trkpt lat="43.67562" lon="5.81908">
        <ele>473</ele>
        <time>2016-02-20T09:36:37.928Z</time>
      </trkpt>
      <trkpt lat="43.67561" lon="5.81911">
        <ele>473</ele>
        <time>2016-02-20T09:36:38.870Z</time>
      </trkpt>
      <trkpt lat="43.67558" lon="5.81923">
        <ele>473</ele>
        <time>2016-02-20T09:36:42.071Z</time>
      </trkpt>
      <trkpt lat="43.67557" lon="5.81927">
        <ele>473</ele>
        <time>2016-02-20T09:36:42.849Z</time>
      </trkpt>
      <trkpt lat="43.67555" lon="5.81935">
        <ele>473</ele>
        <time>2016-02-20T09:36:44.933Z</time>
      </trkpt>
      <trkpt lat="43.67553" lon="5.81939">
        <ele>473</ele>
        <time>2016-02-20T09:36:45.877Z</time>
      </trkpt>
      <trkpt lat="43.6755" lon="5.81946">
        <ele>474</ele>
        <time>2016-02-20T09:36:47.929Z</time>
      </trkpt>
      <trkpt lat="43.67549" lon="5.8195">
        <ele>474</ele>
        <time>2016-02-20T09:36:48.877Z</time>
      </trkpt>
      <trkpt lat="43.67547" lon="5.81958">
        <ele>474</ele>
        <time>2016-02-20T09:36:50.928Z</time>
      </trkpt>
      <trkpt lat="43.67546" lon="5.81962">
        <ele>474</ele>
        <time>2016-02-20T09:36:51.882Z</time>
      </trkpt>
      <trkpt lat="43.67543" lon="5.8197">
        <ele>475</ele>
        <time>2016-02-20T09:36:53.920Z</time>
      </trkpt>
      <trkpt lat="43.67541" lon="5.81973">
        <ele>475</ele>
        <time>2016-02-20T09:36:54.874Z</time>
      </trkpt>
      <trkpt lat="43.67538" lon="5.81981">
        <ele>475</ele>
        <time>2016-02-20T09:36:56.924Z</time>
      </trkpt>
      <trkpt lat="43.67537" lon="5.81985">
        <ele>475</ele>
        <time>2016-02-20T09:36:57.874Z</time>
      </trkpt>
      <trkpt lat="43.67535" lon="5.81993">
        <ele>476</ele>
        <time>2016-02-20T09:36:59.933Z</time>
      </trkpt>
      <trkpt lat="43.67534" lon="5.81997">
        <ele>476</ele>
        <time>2016-02-20T09:37:00.877Z</time>
      </trkpt>
      <trkpt lat="43.67532" lon="5.82006">
        <ele>476</ele>
        <time>2016-02-20T09:37:02.968Z</time>
      </trkpt>
      <trkpt lat="43.67532" lon="5.8201">
        <ele>476</ele>
        <time>2016-02-20T09:37:03.878Z</time>
      </trkpt>
      <trkpt lat="43.67531" lon="5.82018">
        <ele>476</ele>
        <time>2016-02-20T09:37:05.943Z</time>
      </trkpt>
      <trkpt lat="43.6753" lon="5.82023">
        <ele>476</ele>
        <time>2016-02-20T09:37:06.873Z</time>
      </trkpt>
      <trkpt lat="43.67528" lon="5.82031">
        <ele>475</ele>
        <time>2016-02-20T09:37:08.937Z</time>
      </trkpt>
      <trkpt lat="43.67526" lon="5.82035">
        <ele>475</ele>
        <time>2016-02-20T09:37:09.874Z</time>
      </trkpt>
      <trkpt lat="43.67523" lon="5.82041">
        <ele>476</ele>
        <time>2016-02-20T09:37:11.928Z</time>
      </trkpt>
      <trkpt lat="43.6752" lon="5.82045">
        <ele>476</ele>
        <time>2016-02-20T09:37:12.875Z</time>
      </trkpt>
      <trkpt lat="43.67517" lon="5.82052">
        <ele>476</ele>
        <time>2016-02-20T09:37:14.938Z</time>
      </trkpt>
      <trkpt lat="43.67515" lon="5.82056">
        <ele>476</ele>
        <time>2016-02-20T09:37:15.874Z</time>
      </trkpt>
      <trkpt lat="43.67512" lon="5.82067">
        <ele>476</ele>
        <time>2016-02-20T09:37:18.931Z</time>
      </trkpt>
      <trkpt lat="43.67511" lon="5.82071">
        <ele>476</ele>
        <time>2016-02-20T09:37:19.849Z</time>
      </trkpt>
      <trkpt lat="43.67507" lon="5.82081">
        <ele>475</ele>
        <time>2016-02-20T09:37:22.934Z</time>
      </trkpt>
      <trkpt lat="43.67506" lon="5.82084">
        <ele>475</ele>
        <time>2016-02-20T09:37:23.880Z</time>
      </trkpt>
      <trkpt lat="43.675" lon="5.82093">
        <ele>475</ele>
        <time>2016-02-20T09:37:26.939Z</time>
      </trkpt>
      <trkpt lat="43.67499" lon="5.82097">
        <ele>475</ele>
        <time>2016-02-20T09:37:27.875Z</time>
      </trkpt>
      <trkpt lat="43.67497" lon="5.82104">
        <ele>475</ele>
        <time>2016-02-20T09:37:29.924Z</time>
      </trkpt>
      <trkpt lat="43.67495" lon="5.82109">
        <ele>475</ele>
        <time>2016-02-20T09:37:30.880Z</time>
      </trkpt>
      <trkpt lat="43.67492" lon="5.8212">
        <ele>474</ele>
        <time>2016-02-20T09:37:33.947Z</time>
      </trkpt>
      <trkpt lat="43.67491" lon="5.82124">
        <ele>474</ele>
        <time>2016-02-20T09:37:34.875Z</time>
      </trkpt>
      <trkpt lat="43.67488" lon="5.82132">
        <ele>475</ele>
        <time>2016-02-20T09:37:36.926Z</time>
      </trkpt>
      <trkpt lat="43.67487" lon="5.82135">
        <ele>475</ele>
        <time>2016-02-20T09:37:37.882Z</time>
      </trkpt>
      <trkpt lat="43.67486" lon="5.82144">
        <ele>475</ele>
        <time>2016-02-20T09:37:39.929Z</time>
      </trkpt>
      <trkpt lat="43.67485" lon="5.82148">
        <ele>475</ele>
        <time>2016-02-20T09:37:40.881Z</time>
      </trkpt>
      <trkpt lat="43.67485" lon="5.82156">
        <ele>475</ele>
        <time>2016-02-20T09:37:42.933Z</time>
      </trkpt>
      <trkpt lat="43.67484" lon="5.8216">
        <ele>476</ele>
        <time>2016-02-20T09:37:43.882Z</time>
      </trkpt>
      <trkpt lat="43.67482" lon="5.82172">
        <ele>476</ele>
        <time>2016-02-20T09:37:46.952Z</time>
      </trkpt>
      <trkpt lat="43.67481" lon="5.82176">
        <ele>476</ele>
        <time>2016-02-20T09:37:47.878Z</time>
      </trkpt>
      <trkpt lat="43.67479" lon="5.82187">
        <ele>475</ele>
        <time>2016-02-20T09:37:50.932Z</time>
      </trkpt>
      <trkpt lat="43.67478" lon="5.82191">
        <ele>475</ele>
        <time>2016-02-20T09:37:51.873Z</time>
      </trkpt>
      <trkpt lat="43.67477" lon="5.82198">
        <ele>475</ele>
        <time>2016-02-20T09:37:53.931Z</time>
      </trkpt>
      <trkpt lat="43.67476" lon="5.82203">
        <ele>476</ele>
        <time>2016-02-20T09:37:54.871Z</time>
      </trkpt>
      <trkpt lat="43.67475" lon="5.82211">
        <ele>475</ele>
        <time>2016-02-20T09:37:56.923Z</time>
      </trkpt>
      <trkpt lat="43.67474" lon="5.82216">
        <ele>475</ele>
        <time>2016-02-20T09:37:57.865Z</time>
      </trkpt>
      <trkpt lat="43.67473" lon="5.82224">
        <ele>475</ele>
        <time>2016-02-20T09:37:59.932Z</time>
      </trkpt>
      <trkpt lat="43.67472" lon="5.82229">
        <ele>475</ele>
        <time>2016-02-20T09:38:00.875Z</time>
      </trkpt>
      <trkpt lat="43.67469" lon="5.82237">
        <ele>476</ele>
        <time>2016-02-20T09:38:02.927Z</time>
      </trkpt>
      <trkpt lat="43.67466" lon="5.8224">
        <ele>476</ele>
        <time>2016-02-20T09:38:03.873Z</time>
      </trkpt>
      <trkpt lat="43.67462" lon="5.82247">
        <ele>477</ele>
        <time>2016-02-20T09:38:05.941Z</time>
      </trkpt>
      <trkpt lat="43.6746" lon="5.8225">
        <ele>477</ele>
        <time>2016-02-20T09:38:06.888Z</time>
      </trkpt>
      <trkpt lat="43.67455" lon="5.82256">
        <ele>477</ele>
        <time>2016-02-20T09:38:08.909Z</time>
      </trkpt>
      <trkpt lat="43.67454" lon="5.82259">
        <ele>477</ele>
        <time>2016-02-20T09:38:09.868Z</time>
      </trkpt>
      <trkpt lat="43.6745" lon="5.82266">
        <ele>477</ele>
        <time>2016-02-20T09:38:11.923Z</time>
      </trkpt>
      <trkpt lat="43.67449" lon="5.8227">
        <ele>478</ele>
        <time>2016-02-20T09:38:12.876Z</time>
      </trkpt>
      <trkpt lat="43.67446" lon="5.82278">
        <ele>478</ele>
        <time>2016-02-20T09:38:14.945Z</time>
      </trkpt>
      <trkpt lat="43.67445" lon="5.82283">
        <ele>478</ele>
        <time>2016-02-20T09:38:15.877Z</time>
      </trkpt>
      <trkpt lat="43.67442" lon="5.82291">
        <ele>477</ele>
        <time>2016-02-20T09:38:17.931Z</time>
      </trkpt>
      <trkpt lat="43.67441" lon="5.82295">
        <ele>477</ele>
        <time>2016-02-20T09:38:18.879Z</time>
      </trkpt>
      <trkpt lat="43.67438" lon="5.82303">
        <ele>477</ele>
        <time>2016-02-20T09:38:20.928Z</time>
      </trkpt>
      <trkpt lat="43.67436" lon="5.82307">
        <ele>477</ele>
        <time>2016-02-20T09:38:21.876Z</time>
      </trkpt>
      <trkpt lat="43.67431" lon="5.82312">
        <ele>478</ele>
        <time>2016-02-20T09:38:23.932Z</time>
      </trkpt>
      <trkpt lat="43.67428" lon="5.82315">
        <ele>477</ele>
        <time>2016-02-20T09:38:24.880Z</time>
      </trkpt>
      <trkpt lat="43.67423" lon="5.82322">
        <ele>478</ele>
        <time>2016-02-20T09:38:26.921Z</time>
      </trkpt>
      <trkpt lat="43.67421" lon="5.82325">
        <ele>477</ele>
        <time>2016-02-20T09:38:27.880Z</time>
      </trkpt>
      <trkpt lat="43.67416" lon="5.82331">
        <ele>478</ele>
        <time>2016-02-20T09:38:29.968Z</time>
      </trkpt>
      <trkpt lat="43.67414" lon="5.82334">
        <ele>479</ele>
        <time>2016-02-20T09:38:30.875Z</time>
      </trkpt>
      <trkpt lat="43.6741" lon="5.82341">
        <ele>479</ele>
        <time>2016-02-20T09:38:32.920Z</time>
      </trkpt>
      <trkpt lat="43.67408" lon="5.82345">
        <ele>479</ele>
        <time>2016-02-20T09:38:33.879Z</time>
      </trkpt>
      <trkpt lat="43.67405" lon="5.82353">
        <ele>479</ele>
        <time>2016-02-20T09:38:35.927Z</time>
      </trkpt>
      <trkpt lat="43.67404" lon="5.82358">
        <ele>479</ele>
        <time>2016-02-20T09:38:36.870Z</time>
      </trkpt>
      <trkpt lat="43.67403" lon="5.82366">
        <ele>479</ele>
        <time>2016-02-20T09:38:38.946Z</time>
      </trkpt>
      <trkpt lat="43.67401" lon="5.82371">
        <ele>479</ele>
        <time>2016-02-20T09:38:39.875Z</time>
      </trkpt>
      <trkpt lat="43.67398" lon="5.82379">
        <ele>480</ele>
        <time>2016-02-20T09:38:41.944Z</time>
      </trkpt>
      <trkpt lat="43.67396" lon="5.82383">
        <ele>480</ele>
        <time>2016-02-20T09:38:42.879Z</time>
      </trkpt>
      <trkpt lat="43.67391" lon="5.82389">
        <ele>480</ele>
        <time>2016-02-20T09:38:44.928Z</time>
      </trkpt>
      <trkpt lat="43.67388" lon="5.82393">
        <ele>480</ele>
        <time>2016-02-20T09:38:45.890Z</time>
      </trkpt>
      <trkpt lat="43.67384" lon="5.82399">
        <ele>480</ele>
        <time>2016-02-20T09:38:47.939Z</time>
      </trkpt>
      <trkpt lat="43.67382" lon="5.82403">
        <ele>481</ele>
        <time>2016-02-20T09:38:48.877Z</time>
      </trkpt>
      <trkpt lat="43.67378" lon="5.82411">
        <ele>481</ele>
        <time>2016-02-20T09:38:50.925Z</time>
      </trkpt>
      <trkpt lat="43.67377" lon="5.82415">
        <ele>481</ele>
        <time>2016-02-20T09:38:51.888Z</time>
      </trkpt>
      <trkpt lat="43.67374" lon="5.82424">
        <ele>481</ele>
        <time>2016-02-20T09:38:54.516Z</time>
      </trkpt>
      <trkpt lat="43.67373" lon="5.82428">
        <ele>481</ele>
        <time>2016-02-20T09:38:54.852Z</time>
      </trkpt>
      <trkpt lat="43.67372" lon="5.82436">
        <ele>481</ele>
        <time>2016-02-20T09:38:56.923Z</time>
      </trkpt>
      <trkpt lat="43.67372" lon="5.82441">
        <ele>481</ele>
        <time>2016-02-20T09:38:57.876Z</time>
      </trkpt>
      <trkpt lat="43.67372" lon="5.82451">
        <ele>480</ele>
        <time>2016-02-20T09:38:59.928Z</time>
      </trkpt>
      <trkpt lat="43.67371" lon="5.82456">
        <ele>480</ele>
        <time>2016-02-20T09:39:00.884Z</time>
      </trkpt>
      <trkpt lat="43.67371" lon="5.82467">
        <ele>480</ele>
        <time>2016-02-20T09:39:02.964Z</time>
      </trkpt>
      <trkpt lat="43.6737" lon="5.82472">
        <ele>480</ele>
        <time>2016-02-20T09:39:03.881Z</time>
      </trkpt>
      <trkpt lat="43.67368" lon="5.82483">
        <ele>480</ele>
        <time>2016-02-20T09:39:06.510Z</time>
      </trkpt>
      <trkpt lat="43.67367" lon="5.82489">
        <ele>480</ele>
        <time>2016-02-20T09:39:06.850Z</time>
      </trkpt>
      <trkpt lat="43.67365" lon="5.82499">
        <ele>479</ele>
        <time>2016-02-20T09:39:08.931Z</time>
      </trkpt>
      <trkpt lat="43.67364" lon="5.82505">
        <ele>479</ele>
        <time>2016-02-20T09:39:09.881Z</time>
      </trkpt>
      <trkpt lat="43.67364" lon="5.82515">
        <ele>479</ele>
        <time>2016-02-20T09:39:11.934Z</time>
      </trkpt>
      <trkpt lat="43.67364" lon="5.8252">
        <ele>480</ele>
        <time>2016-02-20T09:39:12.871Z</time>
      </trkpt>
      <trkpt lat="43.67364" lon="5.8253">
        <ele>479</ele>
        <time>2016-02-20T09:39:14.931Z</time>
      </trkpt>
      <trkpt lat="43.67364" lon="5.82535">
        <ele>479</ele>
        <time>2016-02-20T09:39:15.879Z</time>
      </trkpt>
      <trkpt lat="43.67364" lon="5.82546">
        <ele>480</ele>
        <time>2016-02-20T09:39:17.924Z</time>
      </trkpt>
      <trkpt lat="43.67363" lon="5.8255">
        <ele>479</ele>
        <time>2016-02-20T09:39:18.856Z</time>
      </trkpt>
      <trkpt lat="43.67363" lon="5.8256">
        <ele>480</ele>
        <time>2016-02-20T09:39:20.948Z</time>
      </trkpt>
      <trkpt lat="43.67362" lon="5.82565">
        <ele>480</ele>
        <time>2016-02-20T09:39:21.873Z</time>
      </trkpt>
      <trkpt lat="43.67361" lon="5.82574">
        <ele>480</ele>
        <time>2016-02-20T09:39:23.929Z</time>
      </trkpt>
      <trkpt lat="43.67361" lon="5.82578">
        <ele>480</ele>
        <time>2016-02-20T09:39:24.886Z</time>
      </trkpt>
      <trkpt lat="43.67362" lon="5.82588">
        <ele>480</ele>
        <time>2016-02-20T09:39:26.930Z</time>
      </trkpt>
      <trkpt lat="43.67361" lon="5.82592">
        <ele>480</ele>
        <time>2016-02-20T09:39:27.881Z</time>
      </trkpt>
      <trkpt lat="43.6736" lon="5.82602">
        <ele>480</ele>
        <time>2016-02-20T09:39:30.517Z</time>
      </trkpt>
      <trkpt lat="43.67359" lon="5.82607">
        <ele>480</ele>
        <time>2016-02-20T09:39:30.853Z</time>
      </trkpt>
      <trkpt lat="43.67358" lon="5.82617">
        <ele>481</ele>
        <time>2016-02-20T09:39:32.930Z</time>
      </trkpt>
      <trkpt lat="43.67357" lon="5.82622">
        <ele>481</ele>
        <time>2016-02-20T09:39:33.876Z</time>
      </trkpt>
      <trkpt lat="43.67354" lon="5.82632">
        <ele>481</ele>
        <time>2016-02-20T09:39:35.880Z</time>
      </trkpt>
      <trkpt lat="43.67353" lon="5.82637">
        <ele>481</ele>
        <time>2016-02-20T09:39:36.880Z</time>
      </trkpt>
      <trkpt lat="43.6735" lon="5.82646">
        <ele>481</ele>
        <time>2016-02-20T09:39:38.931Z</time>
      </trkpt>
      <trkpt lat="43.67348" lon="5.82651">
        <ele>481</ele>
        <time>2016-02-20T09:39:39.878Z</time>
      </trkpt>
      <trkpt lat="43.67344" lon="5.8266">
        <ele>481</ele>
        <time>2016-02-20T09:39:42.499Z</time>
      </trkpt>
      <trkpt lat="43.67343" lon="5.82665">
        <ele>481</ele>
        <time>2016-02-20T09:39:42.853Z</time>
      </trkpt>
      <trkpt lat="43.67341" lon="5.82675">
        <ele>481</ele>
        <time>2016-02-20T09:39:44.946Z</time>
      </trkpt>
      <trkpt lat="43.6734" lon="5.82679">
        <ele>481</ele>
        <time>2016-02-20T09:39:45.881Z</time>
      </trkpt>
      <trkpt lat="43.67336" lon="5.82687">
        <ele>482</ele>
        <time>2016-02-20T09:39:47.931Z</time>
      </trkpt>
      <trkpt lat="43.67333" lon="5.8269">
        <ele>482</ele>
        <time>2016-02-20T09:39:48.870Z</time>
      </trkpt>
      <trkpt lat="43.67326" lon="5.82692">
        <ele>482</ele>
        <time>2016-02-20T09:39:50.921Z</time>
      </trkpt>
      <trkpt lat="43.67322" lon="5.82691">
        <ele>482</ele>
        <time>2016-02-20T09:39:51.872Z</time>
      </trkpt>
      <trkpt lat="43.67317" lon="5.82687">
        <ele>482</ele>
        <time>2016-02-20T09:39:53.932Z</time>
      </trkpt>
      <trkpt lat="43.67314" lon="5.82685">
        <ele>483</ele>
        <time>2016-02-20T09:39:54.881Z</time>
      </trkpt>
      <trkpt lat="43.67305" lon="5.82684">
        <ele>483</ele>
        <time>2016-02-20T09:39:57.935Z</time>
      </trkpt>
      <trkpt lat="43.67302" lon="5.82684">
        <ele>483</ele>
        <time>2016-02-20T09:39:58.878Z</time>
      </trkpt>
      <trkpt lat="43.67296" lon="5.82683">
        <ele>483</ele>
        <time>2016-02-20T09:40:00.928Z</time>
      </trkpt>
      <trkpt lat="43.67293" lon="5.82683">
        <ele>483</ele>
        <time>2016-02-20T09:40:01.880Z</time>
      </trkpt>
      <trkpt lat="43.67287" lon="5.8268">
        <ele>484</ele>
        <time>2016-02-20T09:40:03.931Z</time>
      </trkpt>
      <trkpt lat="43.67284" lon="5.82679">
        <ele>483</ele>
        <time>2016-02-20T09:40:04.876Z</time>
      </trkpt>
      <trkpt lat="43.67277" lon="5.82677">
        <ele>484</ele>
        <time>2016-02-20T09:40:06.929Z</time>
      </trkpt>
      <trkpt lat="43.67274" lon="5.82677">
        <ele>483</ele>
        <time>2016-02-20T09:40:07.878Z</time>
      </trkpt>
      <trkpt lat="43.67267" lon="5.82678">
        <ele>484</ele>
        <time>2016-02-20T09:40:09.942Z</time>
      </trkpt>
      <trkpt lat="43.67263" lon="5.82679">
        <ele>484</ele>
        <time>2016-02-20T09:40:10.873Z</time>
      </trkpt>
      <trkpt lat="43.67256" lon="5.82681">
        <ele>484</ele>
        <time>2016-02-20T09:40:12.966Z</time>
      </trkpt>
      <trkpt lat="43.67252" lon="5.82682">
        <ele>484</ele>
        <time>2016-02-20T09:40:13.876Z</time>
      </trkpt>
      <trkpt lat="43.67245" lon="5.82686">
        <ele>484</ele>
        <time>2016-02-20T09:40:15.941Z</time>
      </trkpt>
      <trkpt lat="43.67241" lon="5.82688">
        <ele>483</ele>
        <time>2016-02-20T09:40:16.871Z</time>
      </trkpt>
      <trkpt lat="43.67234" lon="5.82691">
        <ele>483</ele>
        <time>2016-02-20T09:40:18.938Z</time>
      </trkpt>
      <trkpt lat="43.67231" lon="5.82692">
        <ele>483</ele>
        <time>2016-02-20T09:40:19.881Z</time>
      </trkpt>
      <trkpt lat="43.67224" lon="5.82695">
        <ele>483</ele>
        <time>2016-02-20T09:40:21.938Z</time>
      </trkpt>
      <trkpt lat="43.6722" lon="5.82697">
        <ele>483</ele>
        <time>2016-02-20T09:40:22.878Z</time>
      </trkpt>
      <trkpt lat="43.67214" lon="5.82702">
        <ele>482</ele>
        <time>2016-02-20T09:40:24.941Z</time>
      </trkpt>
      <trkpt lat="43.67211" lon="5.82704">
        <ele>483</ele>
        <time>2016-02-20T09:40:25.874Z</time>
      </trkpt>
      <trkpt lat="43.67206" lon="5.82709">
        <ele>483</ele>
        <time>2016-02-20T09:40:27.933Z</time>
      </trkpt>
      <trkpt lat="43.67203" lon="5.82712">
        <ele>483</ele>
        <time>2016-02-20T09:40:28.855Z</time>
      </trkpt>
      <trkpt lat="43.67199" lon="5.82719">
        <ele>483</ele>
        <time>2016-02-20T09:40:30.930Z</time>
      </trkpt>
      <trkpt lat="43.67197" lon="5.82723">
        <ele>483</ele>
        <time>2016-02-20T09:40:31.877Z</time>
      </trkpt>
      <trkpt lat="43.67193" lon="5.82731">
        <ele>483</ele>
        <time>2016-02-20T09:40:33.927Z</time>
      </trkpt>
      <trkpt lat="43.67191" lon="5.82735">
        <ele>483</ele>
        <time>2016-02-20T09:40:34.883Z</time>
      </trkpt>
      <trkpt lat="43.67186" lon="5.82743">
        <ele>483</ele>
        <time>2016-02-20T09:40:36.929Z</time>
      </trkpt>
      <trkpt lat="43.67184" lon="5.82747">
        <ele>483</ele>
        <time>2016-02-20T09:40:37.881Z</time>
      </trkpt>
      <trkpt lat="43.67182" lon="5.82736">
        <ele>482</ele>
        <time>2016-02-20T09:40:48.934Z</time>
      </trkpt>
      <trkpt lat="43.67181" lon="5.82734">
        <ele>482</ele>
        <time>2016-02-20T09:40:49.873Z</time>
      </trkpt>
      <trkpt lat="43.67178" lon="5.82726">
        <ele>483</ele>
        <time>2016-02-20T09:40:52.931Z</time>
      </trkpt>
      <trkpt lat="43.67178" lon="5.82722">
        <ele>483</ele>
        <time>2016-02-20T09:40:53.878Z</time>
      </trkpt>
      <trkpt lat="43.67175" lon="5.82713">
        <ele>482</ele>
        <time>2016-02-20T09:40:56.982Z</time>
      </trkpt>
      <trkpt lat="43.67174" lon="5.82711">
        <ele>482</ele>
        <time>2016-02-20T09:40:57.879Z</time>
      </trkpt>
      <trkpt lat="43.67166" lon="5.82708">
        <ele>481</ele>
        <time>2016-02-20T09:41:01.930Z</time>
      </trkpt>
      <trkpt lat="43.67164" lon="5.8271">
        <ele>480</ele>
        <time>2016-02-20T09:41:02.875Z</time>
      </trkpt>
      <trkpt lat="43.67156" lon="5.82708">
        <ele>481</ele>
        <time>2016-02-20T09:41:06.958Z</time>
      </trkpt>
      <trkpt lat="43.67155" lon="5.82705">
        <ele>481</ele>
        <time>2016-02-20T09:41:07.886Z</time>
      </trkpt>
      <trkpt lat="43.67151" lon="5.82698">
        <ele>481</ele>
        <time>2016-02-20T09:41:09.939Z</time>
      </trkpt>
      <trkpt lat="43.6715" lon="5.82693">
        <ele>481</ele>
        <time>2016-02-20T09:41:10.880Z</time>
      </trkpt>
      <trkpt lat="43.67145" lon="5.82685">
        <ele>480</ele>
        <time>2016-02-20T09:41:12.956Z</time>
      </trkpt>
      <trkpt lat="43.67144" lon="5.82681">
        <ele>480</ele>
        <time>2016-02-20T09:41:13.877Z</time>
      </trkpt>
      <trkpt lat="43.67139" lon="5.82672">
        <ele>479</ele>
        <time>2016-02-20T09:41:16.926Z</time>
      </trkpt>
      <trkpt lat="43.67138" lon="5.82669">
        <ele>479</ele>
        <time>2016-02-20T09:41:17.883Z</time>
      </trkpt>
      <trkpt lat="43.67134" lon="5.82659">
        <ele>478</ele>
        <time>2016-02-20T09:41:20.915Z</time>
      </trkpt>
      <trkpt lat="43.67132" lon="5.82655">
        <ele>478</ele>
        <time>2016-02-20T09:41:21.880Z</time>
      </trkpt>
      <trkpt lat="43.6713" lon="5.82646">
        <ele>478</ele>
        <time>2016-02-20T09:41:23.876Z</time>
      </trkpt>
      <trkpt lat="43.67129" lon="5.82642">
        <ele>478</ele>
        <time>2016-02-20T09:41:24.893Z</time>
      </trkpt>
      <trkpt lat="43.67125" lon="5.82634">
        <ele>478</ele>
        <time>2016-02-20T09:41:26.927Z</time>
      </trkpt>
      <trkpt lat="43.67124" lon="5.82629">
        <ele>478</ele>
        <time>2016-02-20T09:41:27.879Z</time>
      </trkpt>
      <trkpt lat="43.67122" lon="5.82619">
        <ele>477</ele>
        <time>2016-02-20T09:41:29.890Z</time>
      </trkpt>
      <trkpt lat="43.67121" lon="5.82614">
        <ele>477</ele>
        <time>2016-02-20T09:41:30.872Z</time>
      </trkpt>
      <trkpt lat="43.6712" lon="5.82603">
        <ele>477</ele>
        <time>2016-02-20T09:41:32.931Z</time>
      </trkpt>
      <trkpt lat="43.67119" lon="5.82598">
        <ele>477</ele>
        <time>2016-02-20T09:41:33.894Z</time>
      </trkpt>
      <trkpt lat="43.67114" lon="5.82593">
        <ele>477</ele>
        <time>2016-02-20T09:41:35.923Z</time>
      </trkpt>
      <trkpt lat="43.6711" lon="5.82592">
        <ele>476</ele>
        <time>2016-02-20T09:41:36.881Z</time>
      </trkpt>
      <trkpt lat="43.67103" lon="5.82588">
        <ele>476</ele>
        <time>2016-02-20T09:41:38.931Z</time>
      </trkpt>
      <trkpt lat="43.671" lon="5.82586">
        <ele>475</ele>
        <time>2016-02-20T09:41:39.886Z</time>
      </trkpt>
      <trkpt lat="43.671" lon="5.82576">
        <ele>474</ele>
        <time>2016-02-20T09:41:42.918Z</time>
      </trkpt>
      <trkpt lat="43.671" lon="5.82573">
        <ele>474</ele>
        <time>2016-02-20T09:41:43.875Z</time>
      </trkpt>
      <trkpt lat="43.67096" lon="5.82563">
        <ele>474</ele>
        <time>2016-02-20T09:41:46.929Z</time>
      </trkpt>
      <trkpt lat="43.67093" lon="5.8256">
        <ele>474</ele>
        <time>2016-02-20T09:41:47.886Z</time>
      </trkpt>
      <trkpt lat="43.67087" lon="5.82554">
        <ele>473</ele>
        <time>2016-02-20T09:41:49.934Z</time>
      </trkpt>
      <trkpt lat="43.67085" lon="5.8255">
        <ele>473</ele>
        <time>2016-02-20T09:41:50.885Z</time>
      </trkpt>
      <trkpt lat="43.67081" lon="5.82542">
        <ele>473</ele>
        <time>2016-02-20T09:41:52.931Z</time>
      </trkpt>
      <trkpt lat="43.67078" lon="5.82538">
        <ele>474</ele>
        <time>2016-02-20T09:41:53.880Z</time>
      </trkpt>
      <trkpt lat="43.67073" lon="5.82532">
        <ele>474</ele>
        <time>2016-02-20T09:41:55.927Z</time>
      </trkpt>
      <trkpt lat="43.6707" lon="5.82529">
        <ele>474</ele>
        <time>2016-02-20T09:41:56.880Z</time>
      </trkpt>
      <trkpt lat="43.67064" lon="5.82525">
        <ele>474</ele>
        <time>2016-02-20T09:41:58.951Z</time>
      </trkpt>
      <trkpt lat="43.6706" lon="5.82524">
        <ele>474</ele>
        <time>2016-02-20T09:41:59.880Z</time>
      </trkpt>
      <trkpt lat="43.67053" lon="5.82522">
        <ele>474</ele>
        <time>2016-02-20T09:42:01.939Z</time>
      </trkpt>
      <trkpt lat="43.6705" lon="5.82521">
        <ele>474</ele>
        <time>2016-02-20T09:42:02.879Z</time>
      </trkpt>
      <trkpt lat="43.67044" lon="5.82518">
        <ele>474</ele>
        <time>2016-02-20T09:42:04.936Z</time>
      </trkpt>
      <trkpt lat="43.67041" lon="5.82515">
        <ele>474</ele>
        <time>2016-02-20T09:42:05.885Z</time>
      </trkpt>
      <trkpt lat="43.67036" lon="5.82509">
        <ele>474</ele>
        <time>2016-02-20T09:42:07.930Z</time>
      </trkpt>
      <trkpt lat="43.67033" lon="5.82507">
        <ele>474</ele>
        <time>2016-02-20T09:42:08.886Z</time>
      </trkpt>
      <trkpt lat="43.67027" lon="5.82505">
        <ele>474</ele>
        <time>2016-02-20T09:42:10.942Z</time>
      </trkpt>
      <trkpt lat="43.67024" lon="5.82505">
        <ele>474</ele>
        <time>2016-02-20T09:42:11.879Z</time>
      </trkpt>
      <trkpt lat="43.67015" lon="5.82501">
        <ele>474</ele>
        <time>2016-02-20T09:42:16.938Z</time>
      </trkpt>
      <trkpt lat="43.67013" lon="5.825">
        <ele>473</ele>
        <time>2016-02-20T09:42:17.853Z</time>
      </trkpt>
      <trkpt lat="43.67007" lon="5.82496">
        <ele>473</ele>
        <time>2016-02-20T09:42:20.934Z</time>
      </trkpt>
      <trkpt lat="43.67005" lon="5.82494">
        <ele>474</ele>
        <time>2016-02-20T09:42:21.880Z</time>
      </trkpt>
      <trkpt lat="43.66997" lon="5.82496">
        <ele>474</ele>
        <time>2016-02-20T09:42:25.937Z</time>
      </trkpt>
      <trkpt lat="43.66996" lon="5.825">
        <ele>474</ele>
        <time>2016-02-20T09:42:26.878Z</time>
      </trkpt>
      <trkpt lat="43.66997" lon="5.82512">
        <ele>474</ele>
        <time>2016-02-20T09:42:29.873Z</time>
      </trkpt>
      <trkpt lat="43.66997" lon="5.82515">
        <ele>474</ele>
        <time>2016-02-20T09:42:30.884Z</time>
      </trkpt>
      <trkpt lat="43.66991" lon="5.82522">
        <ele>473</ele>
        <time>2016-02-20T09:42:34.930Z</time>
      </trkpt>
      <trkpt lat="43.66988" lon="5.8252">
        <ele>474</ele>
        <time>2016-02-20T09:42:35.876Z</time>
      </trkpt>
      <trkpt lat="43.66982" lon="5.82515">
        <ele>474</ele>
        <time>2016-02-20T09:42:37.939Z</time>
      </trkpt>
      <trkpt lat="43.66979" lon="5.82512">
        <ele>473</ele>
        <time>2016-02-20T09:42:38.882Z</time>
      </trkpt>
      <trkpt lat="43.66974" lon="5.82503">
        <ele>474</ele>
        <time>2016-02-20T09:42:40.933Z</time>
      </trkpt>
      <trkpt lat="43.66973" lon="5.82499">
        <ele>474</ele>
        <time>2016-02-20T09:42:41.852Z</time>
      </trkpt>
      <trkpt lat="43.66971" lon="5.82489">
        <ele>473</ele>
        <time>2016-02-20T09:42:43.962Z</time>
      </trkpt>
      <trkpt lat="43.6697" lon="5.82484">
        <ele>473</ele>
        <time>2016-02-20T09:42:44.878Z</time>
      </trkpt>
      <trkpt lat="43.66966" lon="5.82476">
        <ele>473</ele>
        <time>2016-02-20T09:42:46.958Z</time>
      </trkpt>
      <trkpt lat="43.66965" lon="5.82471">
        <ele>473</ele>
        <time>2016-02-20T09:42:47.881Z</time>
      </trkpt>
      <trkpt lat="43.66962" lon="5.82462">
        <ele>472</ele>
        <time>2016-02-20T09:42:49.933Z</time>
      </trkpt>
      <trkpt lat="43.66961" lon="5.82457">
        <ele>472</ele>
        <time>2016-02-20T09:42:50.881Z</time>
      </trkpt>
      <trkpt lat="43.6696" lon="5.82446">
        <ele>472</ele>
        <time>2016-02-20T09:42:52.936Z</time>
      </trkpt>
      <trkpt lat="43.66959" lon="5.8244">
        <ele>471</ele>
        <time>2016-02-20T09:42:53.858Z</time>
      </trkpt>
      <trkpt lat="43.66958" lon="5.8243">
        <ele>471</ele>
        <time>2016-02-20T09:42:55.934Z</time>
      </trkpt>
      <trkpt lat="43.66957" lon="5.82424">
        <ele>471</ele>
        <time>2016-02-20T09:42:56.881Z</time>
      </trkpt>
      <trkpt lat="43.66955" lon="5.82413">
        <ele>470</ele>
        <time>2016-02-20T09:42:58.933Z</time>
      </trkpt>
      <trkpt lat="43.66954" lon="5.82408">
        <ele>470</ele>
        <time>2016-02-20T09:42:59.880Z</time>
      </trkpt>
      <trkpt lat="43.66952" lon="5.82398">
        <ele>470</ele>
        <time>2016-02-20T09:43:01.972Z</time>
      </trkpt>
      <trkpt lat="43.66951" lon="5.82393">
        <ele>470</ele>
        <time>2016-02-20T09:43:02.880Z</time>
      </trkpt>
      <trkpt lat="43.66949" lon="5.82383">
        <ele>470</ele>
        <time>2016-02-20T09:43:04.925Z</time>
      </trkpt>
      <trkpt lat="43.66949" lon="5.82378">
        <ele>469</ele>
        <time>2016-02-20T09:43:05.851Z</time>
      </trkpt>
      <trkpt lat="43.66947" lon="5.82368">
        <ele>470</ele>
        <time>2016-02-20T09:43:07.942Z</time>
      </trkpt>
      <trkpt lat="43.66946" lon="5.82363">
        <ele>470</ele>
        <time>2016-02-20T09:43:08.899Z</time>
      </trkpt>
      <trkpt lat="43.66944" lon="5.82352">
        <ele>469</ele>
        <time>2016-02-20T09:43:10.934Z</time>
      </trkpt>
      <trkpt lat="43.66943" lon="5.82347">
        <ele>469</ele>
        <time>2016-02-20T09:43:11.875Z</time>
      </trkpt>
      <trkpt lat="43.66939" lon="5.82336">
        <ele>469</ele>
        <time>2016-02-20T09:43:13.924Z</time>
      </trkpt>
      <trkpt lat="43.66936" lon="5.82331">
        <ele>469</ele>
        <time>2016-02-20T09:43:14.884Z</time>
      </trkpt>
      <trkpt lat="43.66933" lon="5.82327">
        <ele>469</ele>
        <time>2016-02-20T09:43:15.876Z</time>
      </trkpt>
      <trkpt lat="43.66928" lon="5.82321">
        <ele>469</ele>
        <time>2016-02-20T09:43:16.877Z</time>
      </trkpt>
      <trkpt lat="43.66925" lon="5.82316">
        <ele>469</ele>
        <time>2016-02-20T09:43:17.926Z</time>
      </trkpt>
      <trkpt lat="43.66922" lon="5.8231">
        <ele>469</ele>
        <time>2016-02-20T09:43:18.886Z</time>
      </trkpt>
      <trkpt lat="43.66919" lon="5.82305">
        <ele>469</ele>
        <time>2016-02-20T09:43:19.994Z</time>
      </trkpt>
      <trkpt lat="43.66915" lon="5.82299">
        <ele>469</ele>
        <time>2016-02-20T09:43:20.900Z</time>
      </trkpt>
      <trkpt lat="43.66907" lon="5.82294">
        <ele>469</ele>
        <time>2016-02-20T09:43:22.867Z</time>
      </trkpt>
      <trkpt lat="43.66903" lon="5.82291">
        <ele>468</ele>
        <time>2016-02-20T09:43:23.875Z</time>
      </trkpt>
      <trkpt lat="43.66899" lon="5.82287">
        <ele>468</ele>
        <time>2016-02-20T09:43:24.951Z</time>
      </trkpt>
      <trkpt lat="43.66895" lon="5.82283">
        <ele>469</ele>
        <time>2016-02-20T09:43:25.878Z</time>
      </trkpt>
      <trkpt lat="43.66891" lon="5.8228">
        <ele>470</ele>
        <time>2016-02-20T09:43:26.926Z</time>
      </trkpt>
      <trkpt lat="43.66887" lon="5.82275">
        <ele>470</ele>
        <time>2016-02-20T09:43:27.874Z</time>
      </trkpt>
      <trkpt lat="43.66883" lon="5.8227">
        <ele>471</ele>
        <time>2016-02-20T09:43:28.874Z</time>
      </trkpt>
      <trkpt lat="43.6688" lon="5.82266">
        <ele>471</ele>
        <time>2016-02-20T09:43:29.882Z</time>
      </trkpt>
      <trkpt lat="43.66876" lon="5.82262">
        <ele>471</ele>
        <time>2016-02-20T09:43:30.932Z</time>
      </trkpt>
      <trkpt lat="43.66872" lon="5.82258">
        <ele>470</ele>
        <time>2016-02-20T09:43:31.880Z</time>
      </trkpt>
      <trkpt lat="43.66867" lon="5.82255">
        <ele>469</ele>
        <time>2016-02-20T09:43:32.925Z</time>
      </trkpt>
      <trkpt lat="43.66862" lon="5.82252">
        <ele>468</ele>
        <time>2016-02-20T09:43:33.880Z</time>
      </trkpt>
      <trkpt lat="43.66854" lon="5.82251">
        <ele>468</ele>
        <time>2016-02-20T09:43:35.937Z</time>
      </trkpt>
      <trkpt lat="43.66849" lon="5.82252">
        <ele>468</ele>
        <time>2016-02-20T09:43:36.879Z</time>
      </trkpt>
      <trkpt lat="43.66841" lon="5.82254">
        <ele>467</ele>
        <time>2016-02-20T09:43:38.933Z</time>
      </trkpt>
      <trkpt lat="43.66838" lon="5.82256">
        <ele>467</ele>
        <time>2016-02-20T09:43:39.879Z</time>
      </trkpt>
      <trkpt lat="43.6683" lon="5.82256">
        <ele>466</ele>
        <time>2016-02-20T09:43:41.920Z</time>
      </trkpt>
      <trkpt lat="43.66826" lon="5.82255">
        <ele>465</ele>
        <time>2016-02-20T09:43:42.880Z</time>
      </trkpt>
      <trkpt lat="43.66818" lon="5.8225">
        <ele>465</ele>
        <time>2016-02-20T09:43:46.923Z</time>
      </trkpt>
      <trkpt lat="43.66817" lon="5.82249">
        <ele>465</ele>
        <time>2016-02-20T09:43:47.877Z</time>
      </trkpt>
      <trkpt lat="43.66812" lon="5.82242">
        <ele>465</ele>
        <time>2016-02-20T09:43:51.932Z</time>
      </trkpt>
      <trkpt lat="43.66811" lon="5.82239">
        <ele>465</ele>
        <time>2016-02-20T09:43:52.883Z</time>
      </trkpt>
      <trkpt lat="43.66806" lon="5.82229">
        <ele>465</ele>
        <time>2016-02-20T09:43:54.936Z</time>
      </trkpt>
      <trkpt lat="43.66804" lon="5.82223">
        <ele>464</ele>
        <time>2016-02-20T09:43:55.884Z</time>
      </trkpt>
      <trkpt lat="43.66802" lon="5.82216">
        <ele>464</ele>
        <time>2016-02-20T09:43:56.877Z</time>
      </trkpt>
      <trkpt lat="43.66799" lon="5.82209">
        <ele>464</ele>
        <time>2016-02-20T09:43:57.871Z</time>
      </trkpt>
      <trkpt lat="43.66796" lon="5.82203">
        <ele>464</ele>
        <time>2016-02-20T09:43:58.930Z</time>
      </trkpt>
      <trkpt lat="43.66794" lon="5.82197">
        <ele>464</ele>
        <time>2016-02-20T09:43:59.878Z</time>
      </trkpt>
      <trkpt lat="43.66791" lon="5.8219">
        <ele>463</ele>
        <time>2016-02-20T09:44:00.927Z</time>
      </trkpt>
      <trkpt lat="43.66789" lon="5.82184">
        <ele>463</ele>
        <time>2016-02-20T09:44:01.878Z</time>
      </trkpt>
      <trkpt lat="43.66786" lon="5.82178">
        <ele>463</ele>
        <time>2016-02-20T09:44:02.923Z</time>
      </trkpt>
      <trkpt lat="43.66785" lon="5.82173">
        <ele>463</ele>
        <time>2016-02-20T09:44:03.878Z</time>
      </trkpt>
      <trkpt lat="43.66782" lon="5.82167">
        <ele>463</ele>
        <time>2016-02-20T09:44:04.977Z</time>
      </trkpt>
      <trkpt lat="43.66779" lon="5.82162">
        <ele>463</ele>
        <time>2016-02-20T09:44:05.851Z</time>
      </trkpt>
      <trkpt lat="43.66777" lon="5.82157">
        <ele>462</ele>
        <time>2016-02-20T09:44:06.924Z</time>
      </trkpt>
      <trkpt lat="43.66775" lon="5.82151">
        <ele>462</ele>
        <time>2016-02-20T09:44:07.877Z</time>
      </trkpt>
      <trkpt lat="43.66773" lon="5.82144">
        <ele>462</ele>
        <time>2016-02-20T09:44:08.935Z</time>
      </trkpt>
      <trkpt lat="43.66771" lon="5.82138">
        <ele>462</ele>
        <time>2016-02-20T09:44:09.883Z</time>
      </trkpt>
      <trkpt lat="43.66768" lon="5.8213">
        <ele>461</ele>
        <time>2016-02-20T09:44:10.932Z</time>
      </trkpt>
      <trkpt lat="43.66766" lon="5.82122">
        <ele>461</ele>
        <time>2016-02-20T09:44:11.881Z</time>
      </trkpt>
      <trkpt lat="43.66764" lon="5.82115">
        <ele>460</ele>
        <time>2016-02-20T09:44:12.978Z</time>
      </trkpt>
      <trkpt lat="43.66762" lon="5.82106">
        <ele>460</ele>
        <time>2016-02-20T09:44:13.879Z</time>
      </trkpt>
      <trkpt lat="43.6676" lon="5.82099">
        <ele>459</ele>
        <time>2016-02-20T09:44:14.930Z</time>
      </trkpt>
      <trkpt lat="43.66757" lon="5.82091">
        <ele>458</ele>
        <time>2016-02-20T09:44:15.880Z</time>
      </trkpt>
      <trkpt lat="43.66753" lon="5.82081">
        <ele>459</ele>
        <time>2016-02-20T09:44:16.922Z</time>
      </trkpt>
      <trkpt lat="43.66751" lon="5.82073">
        <ele>457</ele>
        <time>2016-02-20T09:44:17.882Z</time>
      </trkpt>
      <trkpt lat="43.66747" lon="5.82064">
        <ele>456</ele>
        <time>2016-02-20T09:44:18.965Z</time>
      </trkpt>
      <trkpt lat="43.66743" lon="5.82056">
        <ele>456</ele>
        <time>2016-02-20T09:44:19.879Z</time>
      </trkpt>
      <trkpt lat="43.66739" lon="5.82048">
        <ele>455</ele>
        <time>2016-02-20T09:44:20.941Z</time>
      </trkpt>
      <trkpt lat="43.66734" lon="5.82039">
        <ele>455</ele>
        <time>2016-02-20T09:44:21.883Z</time>
      </trkpt>
      <trkpt lat="43.66731" lon="5.82032">
        <ele>455</ele>
        <time>2016-02-20T09:44:22.924Z</time>
      </trkpt>
      <trkpt lat="43.66728" lon="5.82024">
        <ele>454</ele>
        <time>2016-02-20T09:44:23.880Z</time>
      </trkpt>
      <trkpt lat="43.66724" lon="5.82016">
        <ele>454</ele>
        <time>2016-02-20T09:44:24.926Z</time>
      </trkpt>
      <trkpt lat="43.6672" lon="5.82008">
        <ele>454</ele>
        <time>2016-02-20T09:44:25.884Z</time>
      </trkpt>
      <trkpt lat="43.66716" lon="5.81999">
        <ele>453</ele>
        <time>2016-02-20T09:44:26.878Z</time>
      </trkpt>
      <trkpt lat="43.66712" lon="5.81991">
        <ele>453</ele>
        <time>2016-02-20T09:44:27.877Z</time>
      </trkpt>
      <trkpt lat="43.66708" lon="5.81984">
        <ele>452</ele>
        <time>2016-02-20T09:44:28.936Z</time>
      </trkpt>
      <trkpt lat="43.66704" lon="5.81975">
        <ele>452</ele>
        <time>2016-02-20T09:44:29.878Z</time>
      </trkpt>
      <trkpt lat="43.667" lon="5.81968">
        <ele>452</ele>
        <time>2016-02-20T09:44:30.923Z</time>
      </trkpt>
      <trkpt lat="43.66697" lon="5.81959">
        <ele>452</ele>
        <time>2016-02-20T09:44:31.883Z</time>
      </trkpt>
      <trkpt lat="43.66693" lon="5.8195">
        <ele>451</ele>
        <time>2016-02-20T09:44:32.928Z</time>
      </trkpt>
      <trkpt lat="43.66689" lon="5.81943">
        <ele>451</ele>
        <time>2016-02-20T09:44:33.884Z</time>
      </trkpt>
      <trkpt lat="43.66685" lon="5.81934">
        <ele>451</ele>
        <time>2016-02-20T09:44:34.950Z</time>
      </trkpt>
      <trkpt lat="43.66681" lon="5.81926">
        <ele>451</ele>
        <time>2016-02-20T09:44:35.871Z</time>
      </trkpt>
      <trkpt lat="43.66677" lon="5.81918">
        <ele>451</ele>
        <time>2016-02-20T09:44:36.875Z</time>
      </trkpt>
      <trkpt lat="43.66672" lon="5.81909">
        <ele>451</ele>
        <time>2016-02-20T09:44:38.453Z</time>
      </trkpt>
      <trkpt lat="43.66669" lon="5.81902">
        <ele>451</ele>
        <time>2016-02-20T09:44:38.873Z</time>
      </trkpt>
      <trkpt lat="43.66665" lon="5.81894">
        <ele>450</ele>
        <time>2016-02-20T09:44:39.884Z</time>
      </trkpt>
      <trkpt lat="43.66661" lon="5.81885">
        <ele>450</ele>
        <time>2016-02-20T09:44:40.931Z</time>
      </trkpt>
      <trkpt lat="43.66657" lon="5.81878">
        <ele>450</ele>
        <time>2016-02-20T09:44:41.869Z</time>
      </trkpt>
      <trkpt lat="43.66652" lon="5.8187">
        <ele>450</ele>
        <time>2016-02-20T09:44:42.934Z</time>
      </trkpt>
      <trkpt lat="43.66648" lon="5.81862">
        <ele>449</ele>
        <time>2016-02-20T09:44:43.873Z</time>
      </trkpt>
      <trkpt lat="43.66644" lon="5.81855">
        <ele>449</ele>
        <time>2016-02-20T09:44:44.927Z</time>
      </trkpt>
      <trkpt lat="43.6664" lon="5.81847">
        <ele>449</ele>
        <time>2016-02-20T09:44:45.888Z</time>
      </trkpt>
      <trkpt lat="43.66636" lon="5.8184">
        <ele>450</ele>
        <time>2016-02-20T09:44:46.923Z</time>
      </trkpt>
      <trkpt lat="43.66632" lon="5.81832">
        <ele>451</ele>
        <time>2016-02-20T09:44:47.884Z</time>
      </trkpt>
      <trkpt lat="43.66629" lon="5.81823">
        <ele>451</ele>
        <time>2016-02-20T09:44:48.881Z</time>
      </trkpt>
      <trkpt lat="43.66626" lon="5.81815">
        <ele>449</ele>
        <time>2016-02-20T09:44:49.891Z</time>
      </trkpt>
      <trkpt lat="43.66622" lon="5.81805">
        <ele>449</ele>
        <time>2016-02-20T09:44:50.928Z</time>
      </trkpt>
      <trkpt lat="43.66619" lon="5.81798">
        <ele>449</ele>
        <time>2016-02-20T09:44:51.882Z</time>
      </trkpt>
      <trkpt lat="43.66616" lon="5.81791">
        <ele>449</ele>
        <time>2016-02-20T09:44:52.931Z</time>
      </trkpt>
      <trkpt lat="43.66612" lon="5.81783">
        <ele>448</ele>
        <time>2016-02-20T09:44:53.882Z</time>
      </trkpt>
      <trkpt lat="43.66609" lon="5.81776">
        <ele>448</ele>
        <time>2016-02-20T09:44:54.927Z</time>
      </trkpt>
      <trkpt lat="43.66606" lon="5.81769">
        <ele>449</ele>
        <time>2016-02-20T09:44:55.882Z</time>
      </trkpt>
      <trkpt lat="43.66602" lon="5.81763">
        <ele>449</ele>
        <time>2016-02-20T09:44:56.957Z</time>
      </trkpt>
      <trkpt lat="43.666" lon="5.81757">
        <ele>449</ele>
        <time>2016-02-20T09:44:57.878Z</time>
      </trkpt>
      <trkpt lat="43.66594" lon="5.8175">
        <ele>449</ele>
        <time>2016-02-20T09:45:00.518Z</time>
      </trkpt>
      <trkpt lat="43.66591" lon="5.81749">
        <ele>449</ele>
        <time>2016-02-20T09:45:00.857Z</time>
      </trkpt>
      <trkpt lat="43.66582" lon="5.81751">
        <ele>449</ele>
        <time>2016-02-20T09:45:03.953Z</time>
      </trkpt>
      <trkpt lat="43.66578" lon="5.81751">
        <ele>449</ele>
        <time>2016-02-20T09:45:04.878Z</time>
      </trkpt>
      <trkpt lat="43.66572" lon="5.81749">
        <ele>449</ele>
        <time>2016-02-20T09:45:06.938Z</time>
      </trkpt>
      <trkpt lat="43.66569" lon="5.81748">
        <ele>449</ele>
        <time>2016-02-20T09:45:07.878Z</time>
      </trkpt>
      <trkpt lat="43.66562" lon="5.81744">
        <ele>449</ele>
        <time>2016-02-20T09:45:09.940Z</time>
      </trkpt>
      <trkpt lat="43.6656" lon="5.81743">
        <ele>449</ele>
        <time>2016-02-20T09:45:10.878Z</time>
      </trkpt>
      <trkpt lat="43.66551" lon="5.81746">
        <ele>449</ele>
        <time>2016-02-20T09:45:13.934Z</time>
      </trkpt>
      <trkpt lat="43.66548" lon="5.81749">
        <ele>449</ele>
        <time>2016-02-20T09:45:14.883Z</time>
      </trkpt>
      <trkpt lat="43.66544" lon="5.81754">
        <ele>450</ele>
        <time>2016-02-20T09:45:16.929Z</time>
      </trkpt>
      <trkpt lat="43.66541" lon="5.81758">
        <ele>449</ele>
        <time>2016-02-20T09:45:17.882Z</time>
      </trkpt>
      <trkpt lat="43.66537" lon="5.81763">
        <ele>450</ele>
        <time>2016-02-20T09:45:19.930Z</time>
      </trkpt>
      <trkpt lat="43.66534" lon="5.81766">
        <ele>450</ele>
        <time>2016-02-20T09:45:20.874Z</time>
      </trkpt>
      <trkpt lat="43.66529" lon="5.81774">
        <ele>450</ele>
        <time>2016-02-20T09:45:23.879Z</time>
      </trkpt>
      <trkpt lat="43.66527" lon="5.81776">
        <ele>450</ele>
        <time>2016-02-20T09:45:24.883Z</time>
      </trkpt>
      <trkpt lat="43.66522" lon="5.81783">
        <ele>450</ele>
        <time>2016-02-20T09:45:28.071Z</time>
      </trkpt>
      <trkpt lat="43.6652" lon="5.81785">
        <ele>449</ele>
        <time>2016-02-20T09:45:28.883Z</time>
      </trkpt>
      <trkpt lat="43.66516" lon="5.81794">
        <ele>450</ele>
        <time>2016-02-20T09:45:32.931Z</time>
      </trkpt>
      <trkpt lat="43.66515" lon="5.81796">
        <ele>450</ele>
        <time>2016-02-20T09:45:33.880Z</time>
      </trkpt>
      <trkpt lat="43.66509" lon="5.81805">
        <ele>450</ele>
        <time>2016-02-20T09:45:38.936Z</time>
      </trkpt>
      <trkpt lat="43.66507" lon="5.81806">
        <ele>451</ele>
        <time>2016-02-20T09:45:39.880Z</time>
      </trkpt>
      <trkpt lat="43.665" lon="5.81812">
        <ele>451</ele>
        <time>2016-02-20T09:45:43.933Z</time>
      </trkpt>
      <trkpt lat="43.66497" lon="5.81813">
        <ele>451</ele>
        <time>2016-02-20T09:45:44.879Z</time>
      </trkpt>
      <trkpt lat="43.6649" lon="5.81812">
        <ele>451</ele>
        <time>2016-02-20T09:45:47.926Z</time>
      </trkpt>
      <trkpt lat="43.66488" lon="5.81811">
        <ele>450</ele>
        <time>2016-02-20T09:45:48.873Z</time>
      </trkpt>
      <trkpt lat="43.6648" lon="5.81807">
        <ele>451</ele>
        <time>2016-02-20T09:45:51.979Z</time>
      </trkpt>
      <trkpt lat="43.66478" lon="5.81806">
        <ele>450</ele>
        <time>2016-02-20T09:45:52.886Z</time>
      </trkpt>
      <trkpt lat="43.66469" lon="5.81805">
        <ele>450</ele>
        <time>2016-02-20T09:45:56.885Z</time>
      </trkpt>
      <trkpt lat="43.66466" lon="5.81806">
        <ele>450</ele>
        <time>2016-02-20T09:45:57.850Z</time>
      </trkpt>
      <trkpt lat="43.66459" lon="5.81812">
        <ele>448</ele>
        <time>2016-02-20T09:46:01.876Z</time>
      </trkpt>
      <trkpt lat="43.66456" lon="5.81813">
        <ele>447</ele>
        <time>2016-02-20T09:46:02.871Z</time>
      </trkpt>
      <trkpt lat="43.66449" lon="5.81817">
        <ele>447</ele>
        <time>2016-02-20T09:46:05.927Z</time>
      </trkpt>
      <trkpt lat="43.66446" lon="5.81818">
        <ele>446</ele>
        <time>2016-02-20T09:46:06.876Z</time>
      </trkpt>
      <trkpt lat="43.66438" lon="5.81822">
        <ele>447</ele>
        <time>2016-02-20T09:46:09.925Z</time>
      </trkpt>
      <trkpt lat="43.66436" lon="5.81824">
        <ele>447</ele>
        <time>2016-02-20T09:46:10.879Z</time>
      </trkpt>
      <trkpt lat="43.66429" lon="5.8183">
        <ele>447</ele>
        <time>2016-02-20T09:46:13.886Z</time>
      </trkpt>
      <trkpt lat="43.66427" lon="5.81833">
        <ele>447</ele>
        <time>2016-02-20T09:46:14.878Z</time>
      </trkpt>
      <trkpt lat="43.6642" lon="5.8184">
        <ele>447</ele>
        <time>2016-02-20T09:46:17.939Z</time>
      </trkpt>
      <trkpt lat="43.66418" lon="5.81842">
        <ele>448</ele>
        <time>2016-02-20T09:46:18.884Z</time>
      </trkpt>
      <trkpt lat="43.66412" lon="5.8185">
        <ele>448</ele>
        <time>2016-02-20T09:46:21.927Z</time>
      </trkpt>
      <trkpt lat="43.66411" lon="5.81852">
        <ele>448</ele>
        <time>2016-02-20T09:46:22.878Z</time>
      </trkpt>
      <trkpt lat="43.66404" lon="5.81859">
        <ele>448</ele>
        <time>2016-02-20T09:46:25.922Z</time>
      </trkpt>
      <trkpt lat="43.66402" lon="5.81862">
        <ele>448</ele>
        <time>2016-02-20T09:46:26.861Z</time>
      </trkpt>
      <trkpt lat="43.66395" lon="5.81867">
        <ele>448</ele>
        <time>2016-02-20T09:46:29.930Z</time>
      </trkpt>
      <trkpt lat="43.66393" lon="5.81869">
        <ele>448</ele>
        <time>2016-02-20T09:46:30.881Z</time>
      </trkpt>
      <trkpt lat="43.66386" lon="5.81875">
        <ele>447</ele>
        <time>2016-02-20T09:46:33.928Z</time>
      </trkpt>
      <trkpt lat="43.66384" lon="5.81877">
        <ele>446</ele>
        <time>2016-02-20T09:46:34.889Z</time>
      </trkpt>
      <trkpt lat="43.66378" lon="5.81885">
        <ele>446</ele>
        <time>2016-02-20T09:46:37.877Z</time>
      </trkpt>
      <trkpt lat="43.66376" lon="5.81887">
        <ele>446</ele>
        <time>2016-02-20T09:46:38.883Z</time>
      </trkpt>
      <trkpt lat="43.6637" lon="5.81893">
        <ele>447</ele>
        <time>2016-02-20T09:46:41.932Z</time>
      </trkpt>
      <trkpt lat="43.66368" lon="5.81895">
        <ele>447</ele>
        <time>2016-02-20T09:46:42.881Z</time>
      </trkpt>
      <trkpt lat="43.66361" lon="5.819">
        <ele>447</ele>
        <time>2016-02-20T09:46:45.982Z</time>
      </trkpt>
      <trkpt lat="43.66359" lon="5.81902">
        <ele>446</ele>
        <time>2016-02-20T09:46:46.875Z</time>
      </trkpt>
      <trkpt lat="43.66352" lon="5.81906">
        <ele>447</ele>
        <time>2016-02-20T09:46:49.941Z</time>
      </trkpt>
      <trkpt lat="43.6635" lon="5.81908">
        <ele>448</ele>
        <time>2016-02-20T09:46:50.879Z</time>
      </trkpt>
      <trkpt lat="43.66343" lon="5.81914">
        <ele>447</ele>
        <time>2016-02-20T09:46:53.955Z</time>
      </trkpt>
      <trkpt lat="43.66342" lon="5.81916">
        <ele>447</ele>
        <time>2016-02-20T09:46:54.872Z</time>
      </trkpt>
      <trkpt lat="43.66337" lon="5.81925">
        <ele>449</ele>
        <time>2016-02-20T09:46:57.936Z</time>
      </trkpt>
      <trkpt lat="43.66336" lon="5.81928">
        <ele>449</ele>
        <time>2016-02-20T09:46:58.876Z</time>
      </trkpt>
      <trkpt lat="43.66331" lon="5.81937">
        <ele>450</ele>
        <time>2016-02-20T09:47:01.925Z</time>
      </trkpt>
      <trkpt lat="43.66329" lon="5.81939">
        <ele>450</ele>
        <time>2016-02-20T09:47:02.863Z</time>
      </trkpt>
      <trkpt lat="43.66325" lon="5.81947">
        <ele>451</ele>
        <time>2016-02-20T09:47:05.927Z</time>
      </trkpt>
      <trkpt lat="43.66323" lon="5.8195">
        <ele>451</ele>
        <time>2016-02-20T09:47:06.878Z</time>
      </trkpt>
      <trkpt lat="43.66318" lon="5.81958">
        <ele>451</ele>
        <time>2016-02-20T09:47:09.934Z</time>
      </trkpt>
      <trkpt lat="43.66316" lon="5.81961">
        <ele>452</ele>
        <time>2016-02-20T09:47:10.877Z</time>
      </trkpt>
      <trkpt lat="43.66311" lon="5.81969">
        <ele>452</ele>
        <time>2016-02-20T09:47:13.933Z</time>
      </trkpt>
      <trkpt lat="43.66309" lon="5.81973">
        <ele>453</ele>
        <time>2016-02-20T09:47:14.879Z</time>
      </trkpt>
      <trkpt lat="43.66305" lon="5.81982">
        <ele>454</ele>
        <time>2016-02-20T09:47:17.934Z</time>
      </trkpt>
      <trkpt lat="43.66305" lon="5.81985">
        <ele>454</ele>
        <time>2016-02-20T09:47:18.888Z</time>
      </trkpt>
      <trkpt lat="43.66301" lon="5.81994">
        <ele>455</ele>
        <time>2016-02-20T09:47:21.951Z</time>
      </trkpt>
      <trkpt lat="43.66299" lon="5.81997">
        <ele>455</ele>
        <time>2016-02-20T09:47:22.881Z</time>
      </trkpt>
      <trkpt lat="43.66293" lon="5.82004">
        <ele>456</ele>
        <time>2016-02-20T09:47:25.947Z</time>
      </trkpt>
      <trkpt lat="43.66292" lon="5.82007">
        <ele>456</ele>
        <time>2016-02-20T09:47:26.858Z</time>
      </trkpt>
      <trkpt lat="43.66286" lon="5.82014">
        <ele>456</ele>
        <time>2016-02-20T09:47:29.976Z</time>
      </trkpt>
      <trkpt lat="43.66284" lon="5.82017">
        <ele>456</ele>
        <time>2016-02-20T09:47:30.878Z</time>
      </trkpt>
      <trkpt lat="43.66277" lon="5.82023">
        <ele>455</ele>
        <time>2016-02-20T09:47:34.099Z</time>
      </trkpt>
      <trkpt lat="43.66275" lon="5.82025">
        <ele>456</ele>
        <time>2016-02-20T09:47:34.885Z</time>
      </trkpt>
      <trkpt lat="43.66269" lon="5.82032">
        <ele>456</ele>
        <time>2016-02-20T09:47:37.940Z</time>
      </trkpt>
      <trkpt lat="43.66267" lon="5.82035">
        <ele>456</ele>
        <time>2016-02-20T09:47:38.893Z</time>
      </trkpt>
      <trkpt lat="43.66262" lon="5.82044">
        <ele>457</ele>
        <time>2016-02-20T09:47:41.951Z</time>
      </trkpt>
      <trkpt lat="43.66261" lon="5.82047">
        <ele>457</ele>
        <time>2016-02-20T09:47:42.875Z</time>
      </trkpt>
      <trkpt lat="43.66256" lon="5.82056">
        <ele>458</ele>
        <time>2016-02-20T09:47:45.958Z</time>
      </trkpt>
      <trkpt lat="43.66255" lon="5.8206">
        <ele>457</ele>
        <time>2016-02-20T09:47:46.880Z</time>
      </trkpt>
      <trkpt lat="43.66252" lon="5.8207">
        <ele>458</ele>
        <time>2016-02-20T09:47:49.961Z</time>
      </trkpt>
      <trkpt lat="43.6625" lon="5.82073">
        <ele>458</ele>
        <time>2016-02-20T09:47:50.881Z</time>
      </trkpt>
      <trkpt lat="43.66245" lon="5.82081">
        <ele>458</ele>
        <time>2016-02-20T09:47:53.978Z</time>
      </trkpt>
      <trkpt lat="43.66243" lon="5.82084">
        <ele>457</ele>
        <time>2016-02-20T09:47:54.879Z</time>
      </trkpt>
      <trkpt lat="43.66239" lon="5.82095">
        <ele>458</ele>
        <time>2016-02-20T09:47:57.988Z</time>
      </trkpt>
      <trkpt lat="43.66238" lon="5.82098">
        <ele>458</ele>
        <time>2016-02-20T09:47:58.879Z</time>
      </trkpt>
      <trkpt lat="43.66233" lon="5.82108">
        <ele>458</ele>
        <time>2016-02-20T09:48:01.942Z</time>
      </trkpt>
      <trkpt lat="43.66232" lon="5.82112">
        <ele>459</ele>
        <time>2016-02-20T09:48:02.880Z</time>
      </trkpt>
      <trkpt lat="43.66227" lon="5.82121">
        <ele>459</ele>
        <time>2016-02-20T09:48:05.951Z</time>
      </trkpt>
      <trkpt lat="43.66226" lon="5.82124">
        <ele>459</ele>
        <time>2016-02-20T09:48:06.888Z</time>
      </trkpt>
      <trkpt lat="43.66221" lon="5.82132">
        <ele>458</ele>
        <time>2016-02-20T09:48:09.941Z</time>
      </trkpt>
      <trkpt lat="43.66219" lon="5.82135">
        <ele>459</ele>
        <time>2016-02-20T09:48:10.881Z</time>
      </trkpt>
      <trkpt lat="43.66215" lon="5.82144">
        <ele>459</ele>
        <time>2016-02-20T09:48:13.955Z</time>
      </trkpt>
      <trkpt lat="43.66214" lon="5.82147">
        <ele>460</ele>
        <time>2016-02-20T09:48:14.881Z</time>
      </trkpt>
      <trkpt lat="43.66211" lon="5.82156">
        <ele>460</ele>
        <time>2016-02-20T09:48:17.948Z</time>
      </trkpt>
      <trkpt lat="43.6621" lon="5.82159">
        <ele>459</ele>
        <time>2016-02-20T09:48:18.875Z</time>
      </trkpt>
      <trkpt lat="43.66206" lon="5.82168">
        <ele>459</ele>
        <time>2016-02-20T09:48:21.956Z</time>
      </trkpt>
      <trkpt lat="43.66205" lon="5.82171">
        <ele>459</ele>
        <time>2016-02-20T09:48:22.879Z</time>
      </trkpt>
      <trkpt lat="43.66201" lon="5.8218">
        <ele>459</ele>
        <time>2016-02-20T09:48:25.957Z</time>
      </trkpt>
      <trkpt lat="43.662" lon="5.82183">
        <ele>459</ele>
        <time>2016-02-20T09:48:26.865Z</time>
      </trkpt>
      <trkpt lat="43.66196" lon="5.82193">
        <ele>460</ele>
        <time>2016-02-20T09:48:29.949Z</time>
      </trkpt>
      <trkpt lat="43.66195" lon="5.82195">
        <ele>460</ele>
        <time>2016-02-20T09:48:30.884Z</time>
      </trkpt>
      <trkpt lat="43.66191" lon="5.82204">
        <ele>459</ele>
        <time>2016-02-20T09:48:33.955Z</time>
      </trkpt>
      <trkpt lat="43.6619" lon="5.82207">
        <ele>459</ele>
        <time>2016-02-20T09:48:34.880Z</time>
      </trkpt>
      <trkpt lat="43.66186" lon="5.82216">
        <ele>460</ele>
        <time>2016-02-20T09:48:37.960Z</time>
      </trkpt>
      <trkpt lat="43.66184" lon="5.82219">
        <ele>460</ele>
        <time>2016-02-20T09:48:38.885Z</time>
      </trkpt>
      <trkpt lat="43.66181" lon="5.82227">
        <ele>460</ele>
        <time>2016-02-20T09:48:41.954Z</time>
      </trkpt>
      <trkpt lat="43.66179" lon="5.8223">
        <ele>461</ele>
        <time>2016-02-20T09:48:42.886Z</time>
      </trkpt>
      <trkpt lat="43.66176" lon="5.82239">
        <ele>461</ele>
        <time>2016-02-20T09:48:45.956Z</time>
      </trkpt>
      <trkpt lat="43.66175" lon="5.82242">
        <ele>461</ele>
        <time>2016-02-20T09:48:46.879Z</time>
      </trkpt>
      <trkpt lat="43.6617" lon="5.82251">
        <ele>461</ele>
        <time>2016-02-20T09:48:49.949Z</time>
      </trkpt>
      <trkpt lat="43.66169" lon="5.82254">
        <ele>461</ele>
        <time>2016-02-20T09:48:50.889Z</time>
      </trkpt>
      <trkpt lat="43.66165" lon="5.82264">
        <ele>462</ele>
        <time>2016-02-20T09:48:53.968Z</time>
      </trkpt>
      <trkpt lat="43.66163" lon="5.82266">
        <ele>462</ele>
        <time>2016-02-20T09:48:54.885Z</time>
      </trkpt>
      <trkpt lat="43.66158" lon="5.82275">
        <ele>462</ele>
        <time>2016-02-20T09:48:57.952Z</time>
      </trkpt>
      <trkpt lat="43.66156" lon="5.82278">
        <ele>462</ele>
        <time>2016-02-20T09:48:58.880Z</time>
      </trkpt>
      <trkpt lat="43.66149" lon="5.82284">
        <ele>462</ele>
        <time>2016-02-20T09:49:01.968Z</time>
      </trkpt>
      <trkpt lat="43.66147" lon="5.82286">
        <ele>462</ele>
        <time>2016-02-20T09:49:02.879Z</time>
      </trkpt>
      <trkpt lat="43.66141" lon="5.82293">
        <ele>463</ele>
        <time>2016-02-20T09:49:05.966Z</time>
      </trkpt>
      <trkpt lat="43.66139" lon="5.82296">
        <ele>463</ele>
        <time>2016-02-20T09:49:06.889Z</time>
      </trkpt>
      <trkpt lat="43.66135" lon="5.82305">
        <ele>464</ele>
        <time>2016-02-20T09:49:09.950Z</time>
      </trkpt>
      <trkpt lat="43.66134" lon="5.82308">
        <ele>464</ele>
        <time>2016-02-20T09:49:10.882Z</time>
      </trkpt>
      <trkpt lat="43.66129" lon="5.82316">
        <ele>464</ele>
        <time>2016-02-20T09:49:13.948Z</time>
      </trkpt>
      <trkpt lat="43.66127" lon="5.82319">
        <ele>464</ele>
        <time>2016-02-20T09:49:14.882Z</time>
      </trkpt>
      <trkpt lat="43.66121" lon="5.82327">
        <ele>464</ele>
        <time>2016-02-20T09:49:17.970Z</time>
      </trkpt>
      <trkpt lat="43.66119" lon="5.82329">
        <ele>465</ele>
        <time>2016-02-20T09:49:18.881Z</time>
      </trkpt>
      <trkpt lat="43.66112" lon="5.82336">
        <ele>464</ele>
        <time>2016-02-20T09:49:21.960Z</time>
      </trkpt>
      <trkpt lat="43.6611" lon="5.82339">
        <ele>464</ele>
        <time>2016-02-20T09:49:22.884Z</time>
      </trkpt>
      <trkpt lat="43.66104" lon="5.82348">
        <ele>465</ele>
        <time>2016-02-20T09:49:25.952Z</time>
      </trkpt>
      <trkpt lat="43.66103" lon="5.82351">
        <ele>465</ele>
        <time>2016-02-20T09:49:26.884Z</time>
      </trkpt>
      <trkpt lat="43.66099" lon="5.8236">
        <ele>465</ele>
        <time>2016-02-20T09:49:29.881Z</time>
      </trkpt>
      <trkpt lat="43.66097" lon="5.82363">
        <ele>465</ele>
        <time>2016-02-20T09:49:30.880Z</time>
      </trkpt>
      <trkpt lat="43.66093" lon="5.82372">
        <ele>465</ele>
        <time>2016-02-20T09:49:33.960Z</time>
      </trkpt>
      <trkpt lat="43.66092" lon="5.82375">
        <ele>465</ele>
        <time>2016-02-20T09:49:34.872Z</time>
      </trkpt>
      <trkpt lat="43.66089" lon="5.82385">
        <ele>465</ele>
        <time>2016-02-20T09:49:37.965Z</time>
      </trkpt>
      <trkpt lat="43.66088" lon="5.82388">
        <ele>465</ele>
        <time>2016-02-20T09:49:38.889Z</time>
      </trkpt>
      <trkpt lat="43.66081" lon="5.82395">
        <ele>465</ele>
        <time>2016-02-20T09:49:41.953Z</time>
      </trkpt>
      <trkpt lat="43.66079" lon="5.82397">
        <ele>466</ele>
        <time>2016-02-20T09:49:42.893Z</time>
      </trkpt>
      <trkpt lat="43.66072" lon="5.82405">
        <ele>465</ele>
        <time>2016-02-20T09:49:45.954Z</time>
      </trkpt>
      <trkpt lat="43.6607" lon="5.82407">
        <ele>465</ele>
        <time>2016-02-20T09:49:46.886Z</time>
      </trkpt>
      <trkpt lat="43.66063" lon="5.82414">
        <ele>466</ele>
        <time>2016-02-20T09:49:49.971Z</time>
      </trkpt>
      <trkpt lat="43.66061" lon="5.82416">
        <ele>465</ele>
        <time>2016-02-20T09:49:50.878Z</time>
      </trkpt>
      <trkpt lat="43.66055" lon="5.82424">
        <ele>466</ele>
        <time>2016-02-20T09:49:53.883Z</time>
      </trkpt>
      <trkpt lat="43.66053" lon="5.82427">
        <ele>466</ele>
        <time>2016-02-20T09:49:54.881Z</time>
      </trkpt>
      <trkpt lat="43.66047" lon="5.82435">
        <ele>466</ele>
        <time>2016-02-20T09:49:57.958Z</time>
      </trkpt>
      <trkpt lat="43.66045" lon="5.82437">
        <ele>466</ele>
        <time>2016-02-20T09:49:58.879Z</time>
      </trkpt>
      <trkpt lat="43.66041" lon="5.82445">
        <ele>468</ele>
        <time>2016-02-20T09:50:01.945Z</time>
      </trkpt>
      <trkpt lat="43.66039" lon="5.82447">
        <ele>468</ele>
        <time>2016-02-20T09:50:02.883Z</time>
      </trkpt>
      <trkpt lat="43.66033" lon="5.82455">
        <ele>467</ele>
        <time>2016-02-20T09:50:06.955Z</time>
      </trkpt>
      <trkpt lat="43.66032" lon="5.82457">
        <ele>467</ele>
        <time>2016-02-20T09:50:07.881Z</time>
      </trkpt>
      <trkpt lat="43.66026" lon="5.82465">
        <ele>469</ele>
        <time>2016-02-20T09:50:11.957Z</time>
      </trkpt>
      <trkpt lat="43.66025" lon="5.82466">
        <ele>469</ele>
        <time>2016-02-20T09:50:12.885Z</time>
      </trkpt>
      <trkpt lat="43.66019" lon="5.82473">
        <ele>471</ele>
        <time>2016-02-20T09:50:16.991Z</time>
      </trkpt>
      <trkpt lat="43.66018" lon="5.82475">
        <ele>471</ele>
        <time>2016-02-20T09:50:17.879Z</time>
      </trkpt>
      <trkpt lat="43.66012" lon="5.82482">
        <ele>471</ele>
        <time>2016-02-20T09:50:21.958Z</time>
      </trkpt>
      <trkpt lat="43.66011" lon="5.82485">
        <ele>471</ele>
        <time>2016-02-20T09:50:22.884Z</time>
      </trkpt>
      <trkpt lat="43.66007" lon="5.82494">
        <ele>469</ele>
        <time>2016-02-20T09:50:26.958Z</time>
      </trkpt>
      <trkpt lat="43.66006" lon="5.82497">
        <ele>467</ele>
        <time>2016-02-20T09:50:27.878Z</time>
      </trkpt>
      <trkpt lat="43.66" lon="5.82506">
        <ele>470</ele>
        <time>2016-02-20T09:50:31.886Z</time>
      </trkpt>
      <trkpt lat="43.65998" lon="5.82508">
        <ele>470</ele>
        <time>2016-02-20T09:50:32.873Z</time>
      </trkpt>
      <trkpt lat="43.65993" lon="5.82518">
        <ele>473</ele>
        <time>2016-02-20T09:50:36.950Z</time>
      </trkpt>
      <trkpt lat="43.65991" lon="5.8252">
        <ele>474</ele>
        <time>2016-02-20T09:50:37.879Z</time>
      </trkpt>
      <trkpt lat="43.65986" lon="5.82527">
        <ele>476</ele>
        <time>2016-02-20T09:50:40.954Z</time>
      </trkpt>
      <trkpt lat="43.65984" lon="5.82529">
        <ele>476</ele>
        <time>2016-02-20T09:50:41.877Z</time>
      </trkpt>
      <trkpt lat="43.65979" lon="5.82538">
        <ele>475</ele>
        <time>2016-02-20T09:50:44.948Z</time>
      </trkpt>
      <trkpt lat="43.65977" lon="5.82542">
        <ele>475</ele>
        <time>2016-02-20T09:50:45.868Z</time>
      </trkpt>
      <trkpt lat="43.65974" lon="5.82552">
        <ele>475</ele>
        <time>2016-02-20T09:50:48.951Z</time>
      </trkpt>
      <trkpt lat="43.65972" lon="5.82554">
        <ele>475</ele>
        <time>2016-02-20T09:50:49.882Z</time>
      </trkpt>
      <trkpt lat="43.65965" lon="5.82559">
        <ele>474</ele>
        <time>2016-02-20T09:50:52.959Z</time>
      </trkpt>
      <trkpt lat="43.65963" lon="5.82561">
        <ele>474</ele>
        <time>2016-02-20T09:50:53.880Z</time>
      </trkpt>
      <trkpt lat="43.65957" lon="5.82567">
        <ele>474</ele>
        <time>2016-02-20T09:50:56.953Z</time>
      </trkpt>
      <trkpt lat="43.65955" lon="5.82569">
        <ele>475</ele>
        <time>2016-02-20T09:50:57.877Z</time>
      </trkpt>
      <trkpt lat="43.65949" lon="5.82577">
        <ele>476</ele>
        <time>2016-02-20T09:51:00.998Z</time>
      </trkpt>
      <trkpt lat="43.65947" lon="5.8258">
        <ele>475</ele>
        <time>2016-02-20T09:51:01.881Z</time>
      </trkpt>
      <trkpt lat="43.65942" lon="5.82588">
        <ele>477</ele>
        <time>2016-02-20T09:51:04.951Z</time>
      </trkpt>
      <trkpt lat="43.65941" lon="5.82591">
        <ele>477</ele>
        <time>2016-02-20T09:51:05.876Z</time>
      </trkpt>
      <trkpt lat="43.65936" lon="5.826">
        <ele>476</ele>
        <time>2016-02-20T09:51:08.945Z</time>
      </trkpt>
      <trkpt lat="43.65934" lon="5.82603">
        <ele>476</ele>
        <time>2016-02-20T09:51:09.885Z</time>
      </trkpt>
      <trkpt lat="43.65928" lon="5.82611">
        <ele>476</ele>
        <time>2016-02-20T09:51:12.950Z</time>
      </trkpt>
      <trkpt lat="43.65927" lon="5.82614">
        <ele>476</ele>
        <time>2016-02-20T09:51:13.874Z</time>
      </trkpt>
      <trkpt lat="43.65922" lon="5.82623">
        <ele>477</ele>
        <time>2016-02-20T09:51:16.945Z</time>
      </trkpt>
      <trkpt lat="43.65921" lon="5.82627">
        <ele>477</ele>
        <time>2016-02-20T09:51:17.888Z</time>
      </trkpt>
      <trkpt lat="43.65918" lon="5.82637">
        <ele>477</ele>
        <time>2016-02-20T09:51:20.980Z</time>
      </trkpt>
      <trkpt lat="43.65918" lon="5.82641">
        <ele>477</ele>
        <time>2016-02-20T09:51:21.877Z</time>
      </trkpt>
      <trkpt lat="43.65916" lon="5.82651">
        <ele>477</ele>
        <time>2016-02-20T09:51:24.950Z</time>
      </trkpt>
      <trkpt lat="43.65915" lon="5.82655">
        <ele>477</ele>
        <time>2016-02-20T09:51:25.879Z</time>
      </trkpt>
      <trkpt lat="43.65916" lon="5.82664">
        <ele>476</ele>
        <time>2016-02-20T09:51:27.949Z</time>
      </trkpt>
      <trkpt lat="43.65917" lon="5.82669">
        <ele>477</ele>
        <time>2016-02-20T09:51:28.887Z</time>
      </trkpt>
      <trkpt lat="43.65918" lon="5.82679">
        <ele>477</ele>
        <time>2016-02-20T09:51:30.957Z</time>
      </trkpt>
      <trkpt lat="43.65918" lon="5.82684">
        <ele>477</ele>
        <time>2016-02-20T09:51:31.881Z</time>
      </trkpt>
      <trkpt lat="43.65918" lon="5.82694">
        <ele>476</ele>
        <time>2016-02-20T09:51:33.947Z</time>
      </trkpt>
      <trkpt lat="43.65918" lon="5.82698">
        <ele>476</ele>
        <time>2016-02-20T09:51:34.877Z</time>
      </trkpt>
      <trkpt lat="43.65917" lon="5.82707">
        <ele>476</ele>
        <time>2016-02-20T09:51:36.960Z</time>
      </trkpt>
      <trkpt lat="43.65917" lon="5.82711">
        <ele>475</ele>
        <time>2016-02-20T09:51:37.886Z</time>
      </trkpt>
      <trkpt lat="43.65918" lon="5.82721">
        <ele>475</ele>
        <time>2016-02-20T09:51:39.955Z</time>
      </trkpt>
      <trkpt lat="43.65919" lon="5.82725">
        <ele>475</ele>
        <time>2016-02-20T09:51:40.882Z</time>
      </trkpt>
      <trkpt lat="43.6592" lon="5.82734">
        <ele>475</ele>
        <time>2016-02-20T09:51:42.947Z</time>
      </trkpt>
      <trkpt lat="43.65921" lon="5.82739">
        <ele>475</ele>
        <time>2016-02-20T09:51:43.859Z</time>
      </trkpt>
      <trkpt lat="43.65922" lon="5.82748">
        <ele>474</ele>
        <time>2016-02-20T09:51:45.946Z</time>
      </trkpt>
      <trkpt lat="43.65922" lon="5.82753">
        <ele>474</ele>
        <time>2016-02-20T09:51:46.887Z</time>
      </trkpt>
      <trkpt lat="43.65923" lon="5.82762">
        <ele>474</ele>
        <time>2016-02-20T09:51:48.951Z</time>
      </trkpt>
      <trkpt lat="43.65923" lon="5.82767">
        <ele>474</ele>
        <time>2016-02-20T09:51:49.884Z</time>
      </trkpt>
      <trkpt lat="43.65924" lon="5.82775">
        <ele>474</ele>
        <time>2016-02-20T09:51:51.926Z</time>
      </trkpt>
      <trkpt lat="43.65924" lon="5.8278">
        <ele>474</ele>
        <time>2016-02-20T09:51:52.863Z</time>
      </trkpt>
      <trkpt lat="43.65925" lon="5.82789">
        <ele>474</ele>
        <time>2016-02-20T09:51:54.899Z</time>
      </trkpt>
      <trkpt lat="43.65925" lon="5.82794">
        <ele>473</ele>
        <time>2016-02-20T09:51:55.922Z</time>
      </trkpt>
      <trkpt lat="43.65924" lon="5.82806">
        <ele>473</ele>
        <time>2016-02-20T09:51:57.919Z</time>
      </trkpt>
      <trkpt lat="43.65922" lon="5.82811">
        <ele>472</ele>
        <time>2016-02-20T09:51:58.859Z</time>
      </trkpt>
      <trkpt lat="43.65918" lon="5.82821">
        <ele>472</ele>
        <time>2016-02-20T09:52:00.866Z</time>
      </trkpt>
      <trkpt lat="43.65918" lon="5.82826">
        <ele>473</ele>
        <time>2016-02-20T09:52:01.882Z</time>
      </trkpt>
      <trkpt lat="43.65917" lon="5.82837">
        <ele>473</ele>
        <time>2016-02-20T09:52:03.957Z</time>
      </trkpt>
      <trkpt lat="43.65917" lon="5.82843">
        <ele>473</ele>
        <time>2016-02-20T09:52:04.892Z</time>
      </trkpt>
      <trkpt lat="43.65916" lon="5.82854">
        <ele>473</ele>
        <time>2016-02-20T09:52:06.864Z</time>
      </trkpt>
      <trkpt lat="43.65917" lon="5.82863">
        <ele>473</ele>
        <time>2016-02-20T09:52:07.847Z</time>
      </trkpt>
      <trkpt lat="43.65917" lon="5.82873">
        <ele>472</ele>
        <time>2016-02-20T09:52:09.979Z</time>
      </trkpt>
      <trkpt lat="43.65919" lon="5.82878">
        <ele>473</ele>
        <time>2016-02-20T09:52:10.877Z</time>
      </trkpt>
      <trkpt lat="43.65924" lon="5.82888">
        <ele>472</ele>
        <time>2016-02-20T09:52:12.951Z</time>
      </trkpt>
      <trkpt lat="43.65928" lon="5.82892">
        <ele>472</ele>
        <time>2016-02-20T09:52:13.872Z</time>
      </trkpt>
      <trkpt lat="43.65929" lon="5.82898">
        <ele>472</ele>
        <time>2016-02-20T09:52:14.981Z</time>
      </trkpt>
      <trkpt lat="43.65931" lon="5.82905">
        <ele>472</ele>
        <time>2016-02-20T09:52:15.886Z</time>
      </trkpt>
      <trkpt lat="43.65932" lon="5.82912">
        <ele>471</ele>
        <time>2016-02-20T09:52:16.882Z</time>
      </trkpt>
      <trkpt lat="43.65932" lon="5.82918">
        <ele>471</ele>
        <time>2016-02-20T09:52:17.876Z</time>
      </trkpt>
      <trkpt lat="43.65933" lon="5.82926">
        <ele>470</ele>
        <time>2016-02-20T09:52:18.952Z</time>
      </trkpt>
      <trkpt lat="43.65934" lon="5.82931">
        <ele>470</ele>
        <time>2016-02-20T09:52:19.885Z</time>
      </trkpt>
      <trkpt lat="43.65936" lon="5.82943">
        <ele>469</ele>
        <time>2016-02-20T09:52:21.948Z</time>
      </trkpt>
      <trkpt lat="43.65938" lon="5.82948">
        <ele>468</ele>
        <time>2016-02-20T09:52:23.462Z</time>
      </trkpt>
      <trkpt lat="43.65941" lon="5.82954">
        <ele>468</ele>
        <time>2016-02-20T09:52:23.891Z</time>
      </trkpt>
      <trkpt lat="43.65944" lon="5.8296">
        <ele>468</ele>
        <time>2016-02-20T09:52:24.869Z</time>
      </trkpt>
      <trkpt lat="43.65947" lon="5.82964">
        <ele>469</ele>
        <time>2016-02-20T09:52:25.883Z</time>
      </trkpt>
      <trkpt lat="43.6595" lon="5.8297">
        <ele>469</ele>
        <time>2016-02-20T09:52:26.884Z</time>
      </trkpt>
      <trkpt lat="43.65951" lon="5.82976">
        <ele>468</ele>
        <time>2016-02-20T09:52:27.961Z</time>
      </trkpt>
      <trkpt lat="43.65951" lon="5.82983">
        <ele>470</ele>
        <time>2016-02-20T09:52:28.883Z</time>
      </trkpt>
      <trkpt lat="43.6595" lon="5.8299">
        <ele>469</ele>
        <time>2016-02-20T09:52:29.950Z</time>
      </trkpt>
      <trkpt lat="43.6595" lon="5.82997">
        <ele>469</ele>
        <time>2016-02-20T09:52:30.886Z</time>
      </trkpt>
      <trkpt lat="43.6595" lon="5.83004">
        <ele>468</ele>
        <time>2016-02-20T09:52:31.885Z</time>
      </trkpt>
      <trkpt lat="43.65951" lon="5.83012">
        <ele>468</ele>
        <time>2016-02-20T09:52:32.874Z</time>
      </trkpt>
      <trkpt lat="43.65952" lon="5.8302">
        <ele>468</ele>
        <time>2016-02-20T09:52:33.961Z</time>
      </trkpt>
      <trkpt lat="43.65952" lon="5.83028">
        <ele>467</ele>
        <time>2016-02-20T09:52:34.877Z</time>
      </trkpt>
      <trkpt lat="43.65952" lon="5.83035">
        <ele>467</ele>
        <time>2016-02-20T09:52:35.892Z</time>
      </trkpt>
      <trkpt lat="43.65952" lon="5.83042">
        <ele>467</ele>
        <time>2016-02-20T09:52:36.881Z</time>
      </trkpt>
      <trkpt lat="43.65952" lon="5.8305">
        <ele>467</ele>
        <time>2016-02-20T09:52:37.956Z</time>
      </trkpt>
      <trkpt lat="43.65952" lon="5.83057">
        <ele>467</ele>
        <time>2016-02-20T09:52:38.895Z</time>
      </trkpt>
      <trkpt lat="43.65951" lon="5.83064">
        <ele>466</ele>
        <time>2016-02-20T09:52:39.948Z</time>
      </trkpt>
      <trkpt lat="43.65948" lon="5.83072">
        <ele>466</ele>
        <time>2016-02-20T09:52:40.892Z</time>
      </trkpt>
      <trkpt lat="43.65947" lon="5.83077">
        <ele>465</ele>
        <time>2016-02-20T09:52:41.938Z</time>
      </trkpt>
      <trkpt lat="43.65946" lon="5.83085">
        <ele>465</ele>
        <time>2016-02-20T09:52:42.883Z</time>
      </trkpt>
      <trkpt lat="43.65947" lon="5.83091">
        <ele>465</ele>
        <time>2016-02-20T09:52:43.953Z</time>
      </trkpt>
      <trkpt lat="43.65951" lon="5.83096">
        <ele>465</ele>
        <time>2016-02-20T09:52:44.887Z</time>
      </trkpt>
      <trkpt lat="43.65955" lon="5.83101">
        <ele>465</ele>
        <time>2016-02-20T09:52:45.954Z</time>
      </trkpt>
      <trkpt lat="43.65956" lon="5.83109">
        <ele>465</ele>
        <time>2016-02-20T09:52:46.874Z</time>
      </trkpt>
      <trkpt lat="43.65955" lon="5.83115">
        <ele>463</ele>
        <time>2016-02-20T09:52:47.963Z</time>
      </trkpt>
      <trkpt lat="43.65952" lon="5.83122">
        <ele>463</ele>
        <time>2016-02-20T09:52:48.878Z</time>
      </trkpt>
      <trkpt lat="43.6595" lon="5.83127">
        <ele>463</ele>
        <time>2016-02-20T09:52:49.885Z</time>
      </trkpt>
      <trkpt lat="43.65948" lon="5.83135">
        <ele>463</ele>
        <time>2016-02-20T09:52:50.887Z</time>
      </trkpt>
      <trkpt lat="43.65947" lon="5.83141">
        <ele>462</ele>
        <time>2016-02-20T09:52:51.956Z</time>
      </trkpt>
      <trkpt lat="43.65945" lon="5.83148">
        <ele>463</ele>
        <time>2016-02-20T09:52:52.889Z</time>
      </trkpt>
      <trkpt lat="43.65943" lon="5.83155">
        <ele>462</ele>
        <time>2016-02-20T09:52:53.947Z</time>
      </trkpt>
      <trkpt lat="43.65943" lon="5.8316">
        <ele>462</ele>
        <time>2016-02-20T09:52:54.884Z</time>
      </trkpt>
      <trkpt lat="43.65946" lon="5.8317">
        <ele>461</ele>
        <time>2016-02-20T09:52:56.951Z</time>
      </trkpt>
      <trkpt lat="43.65949" lon="5.83173">
        <ele>461</ele>
        <time>2016-02-20T09:52:57.866Z</time>
      </trkpt>
      <trkpt lat="43.65954" lon="5.83183">
        <ele>460</ele>
        <time>2016-02-20T09:52:59.960Z</time>
      </trkpt>
      <trkpt lat="43.65955" lon="5.83189">
        <ele>460</ele>
        <time>2016-02-20T09:53:00.882Z</time>
      </trkpt>
      <trkpt lat="43.65956" lon="5.83195">
        <ele>460</ele>
        <time>2016-02-20T09:53:01.953Z</time>
      </trkpt>
      <trkpt lat="43.65957" lon="5.83201">
        <ele>459</ele>
        <time>2016-02-20T09:53:02.882Z</time>
      </trkpt>
      <trkpt lat="43.65958" lon="5.83208">
        <ele>459</ele>
        <time>2016-02-20T09:53:03.946Z</time>
      </trkpt>
      <trkpt lat="43.6596" lon="5.83215">
        <ele>459</ele>
        <time>2016-02-20T09:53:04.879Z</time>
      </trkpt>
      <trkpt lat="43.65961" lon="5.83221">
        <ele>458</ele>
        <time>2016-02-20T09:53:05.890Z</time>
      </trkpt>
      <trkpt lat="43.65962" lon="5.83229">
        <ele>458</ele>
        <time>2016-02-20T09:53:07.454Z</time>
      </trkpt>
      <trkpt lat="43.65962" lon="5.83235">
        <ele>458</ele>
        <time>2016-02-20T09:53:07.886Z</time>
      </trkpt>
      <trkpt lat="43.65962" lon="5.83242">
        <ele>457</ele>
        <time>2016-02-20T09:53:08.886Z</time>
      </trkpt>
      <trkpt lat="43.65963" lon="5.8325">
        <ele>457</ele>
        <time>2016-02-20T09:53:09.949Z</time>
      </trkpt>
      <trkpt lat="43.65965" lon="5.83256">
        <ele>456</ele>
        <time>2016-02-20T09:53:10.884Z</time>
      </trkpt>
      <trkpt lat="43.65968" lon="5.83262">
        <ele>456</ele>
        <time>2016-02-20T09:53:11.948Z</time>
      </trkpt>
      <trkpt lat="43.65972" lon="5.83267">
        <ele>456</ele>
        <time>2016-02-20T09:53:12.862Z</time>
      </trkpt>
      <trkpt lat="43.65975" lon="5.8327">
        <ele>456</ele>
        <time>2016-02-20T09:53:13.947Z</time>
      </trkpt>
      <trkpt lat="43.6598" lon="5.83274">
        <ele>456</ele>
        <time>2016-02-20T09:53:14.858Z</time>
      </trkpt>
      <trkpt lat="43.65983" lon="5.83279">
        <ele>456</ele>
        <time>2016-02-20T09:53:15.956Z</time>
      </trkpt>
      <trkpt lat="43.65987" lon="5.83283">
        <ele>456</ele>
        <time>2016-02-20T09:53:17.268Z</time>
      </trkpt>
      <trkpt lat="43.6599" lon="5.83289">
        <ele>456</ele>
        <time>2016-02-20T09:53:17.901Z</time>
      </trkpt>
      <trkpt lat="43.65993" lon="5.83294">
        <ele>456</ele>
        <time>2016-02-20T09:53:18.863Z</time>
      </trkpt>
      <trkpt lat="43.65997" lon="5.83299">
        <ele>456</ele>
        <time>2016-02-20T09:53:19.969Z</time>
      </trkpt>
      <trkpt lat="43.66" lon="5.83304">
        <ele>455</ele>
        <time>2016-02-20T09:53:20.904Z</time>
      </trkpt>
      <trkpt lat="43.66003" lon="5.83309">
        <ele>456</ele>
        <time>2016-02-20T09:53:21.942Z</time>
      </trkpt>
      <trkpt lat="43.66007" lon="5.83313">
        <ele>456</ele>
        <time>2016-02-20T09:53:22.860Z</time>
      </trkpt>
      <trkpt lat="43.6601" lon="5.83318">
        <ele>456</ele>
        <time>2016-02-20T09:53:23.943Z</time>
      </trkpt>
      <trkpt lat="43.66014" lon="5.83322">
        <ele>456</ele>
        <time>2016-02-20T09:53:24.856Z</time>
      </trkpt>
      <trkpt lat="43.66021" lon="5.8333">
        <ele>457</ele>
        <time>2016-02-20T09:53:26.960Z</time>
      </trkpt>
      <trkpt lat="43.66024" lon="5.83333">
        <ele>456</ele>
        <time>2016-02-20T09:53:27.884Z</time>
      </trkpt>
      <trkpt lat="43.6603" lon="5.83338">
        <ele>457</ele>
        <time>2016-02-20T09:53:29.956Z</time>
      </trkpt>
      <trkpt lat="43.66034" lon="5.83341">
        <ele>457</ele>
        <time>2016-02-20T09:53:30.884Z</time>
      </trkpt>
      <trkpt lat="43.66039" lon="5.83347">
        <ele>457</ele>
        <time>2016-02-20T09:53:32.955Z</time>
      </trkpt>
      <trkpt lat="43.66042" lon="5.8335">
        <ele>457</ele>
        <time>2016-02-20T09:53:33.883Z</time>
      </trkpt>
      <trkpt lat="43.66048" lon="5.83356">
        <ele>457</ele>
        <time>2016-02-20T09:53:35.954Z</time>
      </trkpt>
      <trkpt lat="43.6605" lon="5.83359">
        <ele>458</ele>
        <time>2016-02-20T09:53:36.886Z</time>
      </trkpt>
      <trkpt lat="43.66055" lon="5.83366">
        <ele>457</ele>
        <time>2016-02-20T09:53:39.087Z</time>
      </trkpt>
      <trkpt lat="43.66058" lon="5.83368">
        <ele>457</ele>
        <time>2016-02-20T09:53:39.882Z</time>
      </trkpt>
      <trkpt lat="43.66066" lon="5.83374">
        <ele>457</ele>
        <time>2016-02-20T09:53:42.963Z</time>
      </trkpt>
      <trkpt lat="43.66068" lon="5.83377">
        <ele>457</ele>
        <time>2016-02-20T09:53:43.882Z</time>
      </trkpt>
      <trkpt lat="43.66072" lon="5.83383">
        <ele>458</ele>
        <time>2016-02-20T09:53:45.956Z</time>
      </trkpt>
      <trkpt lat="43.66074" lon="5.83387">
        <ele>457</ele>
        <time>2016-02-20T09:53:46.882Z</time>
      </trkpt>
      <trkpt lat="43.66078" lon="5.83395">
        <ele>458</ele>
        <time>2016-02-20T09:53:48.973Z</time>
      </trkpt>
      <trkpt lat="43.6608" lon="5.83399">
        <ele>458</ele>
        <time>2016-02-20T09:53:49.886Z</time>
      </trkpt>
      <trkpt lat="43.66085" lon="5.83405">
        <ele>458</ele>
        <time>2016-02-20T09:53:51.884Z</time>
      </trkpt>
      <trkpt lat="43.66087" lon="5.8341">
        <ele>458</ele>
        <time>2016-02-20T09:53:52.888Z</time>
      </trkpt>
      <trkpt lat="43.66091" lon="5.8342">
        <ele>458</ele>
        <time>2016-02-20T09:53:54.951Z</time>
      </trkpt>
      <trkpt lat="43.66092" lon="5.83424">
        <ele>458</ele>
        <time>2016-02-20T09:53:55.883Z</time>
      </trkpt>
      <trkpt lat="43.66095" lon="5.83435">
        <ele>457</ele>
        <time>2016-02-20T09:53:57.954Z</time>
      </trkpt>
      <trkpt lat="43.66095" lon="5.8344">
        <ele>457</ele>
        <time>2016-02-20T09:53:58.881Z</time>
      </trkpt>
      <trkpt lat="43.66094" lon="5.83452">
        <ele>456</ele>
        <time>2016-02-20T09:54:00.957Z</time>
      </trkpt>
      <trkpt lat="43.66093" lon="5.83457">
        <ele>455</ele>
        <time>2016-02-20T09:54:01.882Z</time>
      </trkpt>
      <trkpt lat="43.66093" lon="5.83469">
        <ele>455</ele>
        <time>2016-02-20T09:54:03.883Z</time>
      </trkpt>
      <trkpt lat="43.66093" lon="5.83475">
        <ele>455</ele>
        <time>2016-02-20T09:54:04.887Z</time>
      </trkpt>
      <trkpt lat="43.66095" lon="5.83485">
        <ele>454</ele>
        <time>2016-02-20T09:54:06.951Z</time>
      </trkpt>
      <trkpt lat="43.66096" lon="5.8349">
        <ele>454</ele>
        <time>2016-02-20T09:54:07.887Z</time>
      </trkpt>
      <trkpt lat="43.661" lon="5.83501">
        <ele>454</ele>
        <time>2016-02-20T09:54:09.961Z</time>
      </trkpt>
      <trkpt lat="43.66101" lon="5.83506">
        <ele>454</ele>
        <time>2016-02-20T09:54:10.889Z</time>
      </trkpt>
      <trkpt lat="43.66105" lon="5.83517">
        <ele>453</ele>
        <time>2016-02-20T09:54:12.961Z</time>
      </trkpt>
      <trkpt lat="43.66106" lon="5.83522">
        <ele>453</ele>
        <time>2016-02-20T09:54:13.896Z</time>
      </trkpt>
      <trkpt lat="43.66108" lon="5.83533">
        <ele>453</ele>
        <time>2016-02-20T09:54:15.975Z</time>
      </trkpt>
      <trkpt lat="43.6611" lon="5.83539">
        <ele>453</ele>
        <time>2016-02-20T09:54:16.855Z</time>
      </trkpt>
      <trkpt lat="43.66111" lon="5.83551">
        <ele>453</ele>
        <time>2016-02-20T09:54:18.950Z</time>
      </trkpt>
      <trkpt lat="43.6611" lon="5.83557">
        <ele>453</ele>
        <time>2016-02-20T09:54:19.884Z</time>
      </trkpt>
      <trkpt lat="43.66109" lon="5.83563">
        <ele>453</ele>
        <time>2016-02-20T09:54:20.958Z</time>
      </trkpt>
      <trkpt lat="43.66106" lon="5.8357">
        <ele>453</ele>
        <time>2016-02-20T09:54:21.895Z</time>
      </trkpt>
      <trkpt lat="43.66102" lon="5.83581">
        <ele>452</ele>
        <time>2016-02-20T09:54:23.953Z</time>
      </trkpt>
      <trkpt lat="43.661" lon="5.83587">
        <ele>451</ele>
        <time>2016-02-20T09:54:24.886Z</time>
      </trkpt>
      <trkpt lat="43.66099" lon="5.83599">
        <ele>451</ele>
        <time>2016-02-20T09:54:26.958Z</time>
      </trkpt>
      <trkpt lat="43.661" lon="5.83604">
        <ele>451</ele>
        <time>2016-02-20T09:54:27.897Z</time>
      </trkpt>
      <trkpt lat="43.66106" lon="5.83614">
        <ele>451</ele>
        <time>2016-02-20T09:54:29.952Z</time>
      </trkpt>
      <trkpt lat="43.66109" lon="5.83618">
        <ele>451</ele>
        <time>2016-02-20T09:54:30.883Z</time>
      </trkpt>
      <trkpt lat="43.66111" lon="5.83623">
        <ele>451</ele>
        <time>2016-02-20T09:54:31.959Z</time>
      </trkpt>
      <trkpt lat="43.66115" lon="5.83627">
        <ele>451</ele>
        <time>2016-02-20T09:54:32.905Z</time>
      </trkpt>
      <trkpt lat="43.66118" lon="5.8363">
        <ele>451</ele>
        <time>2016-02-20T09:54:33.965Z</time>
      </trkpt>
      <trkpt lat="43.66122" lon="5.83634">
        <ele>451</ele>
        <time>2016-02-20T09:54:34.891Z</time>
      </trkpt>
      <trkpt lat="43.66128" lon="5.83644">
        <ele>450</ele>
        <time>2016-02-20T09:54:36.962Z</time>
      </trkpt>
      <trkpt lat="43.66131" lon="5.83649">
        <ele>450</ele>
        <time>2016-02-20T09:54:37.882Z</time>
      </trkpt>
      <trkpt lat="43.66137" lon="5.83658">
        <ele>450</ele>
        <time>2016-02-20T09:54:39.953Z</time>
      </trkpt>
      <trkpt lat="43.6614" lon="5.83663">
        <ele>450</ele>
        <time>2016-02-20T09:54:40.899Z</time>
      </trkpt>
      <trkpt lat="43.66144" lon="5.83672">
        <ele>450</ele>
        <time>2016-02-20T09:54:42.947Z</time>
      </trkpt>
      <trkpt lat="43.66147" lon="5.83677">
        <ele>450</ele>
        <time>2016-02-20T09:54:43.893Z</time>
      </trkpt>
      <trkpt lat="43.66152" lon="5.83685">
        <ele>450</ele>
        <time>2016-02-20T09:54:45.956Z</time>
      </trkpt>
      <trkpt lat="43.66155" lon="5.83689">
        <ele>450</ele>
        <time>2016-02-20T09:54:46.880Z</time>
      </trkpt>
      <trkpt lat="43.66159" lon="5.837">
        <ele>450</ele>
        <time>2016-02-20T09:54:48.991Z</time>
      </trkpt>
      <trkpt lat="43.6616" lon="5.83705">
        <ele>450</ele>
        <time>2016-02-20T09:54:49.879Z</time>
      </trkpt>
      <trkpt lat="43.66161" lon="5.83712">
        <ele>450</ele>
        <time>2016-02-20T09:54:50.887Z</time>
      </trkpt>
      <trkpt lat="43.66163" lon="5.83717">
        <ele>450</ele>
        <time>2016-02-20T09:54:51.880Z</time>
      </trkpt>
      <trkpt lat="43.66164" lon="5.83723">
        <ele>450</ele>
        <time>2016-02-20T09:54:52.968Z</time>
      </trkpt>
      <trkpt lat="43.66166" lon="5.83729">
        <ele>450</ele>
        <time>2016-02-20T09:54:53.886Z</time>
      </trkpt>
      <trkpt lat="43.66169" lon="5.83739">
        <ele>451</ele>
        <time>2016-02-20T09:54:55.950Z</time>
      </trkpt>
      <trkpt lat="43.6617" lon="5.83745">
        <ele>450</ele>
        <time>2016-02-20T09:54:56.889Z</time>
      </trkpt>
      <trkpt lat="43.66171" lon="5.83756">
        <ele>450</ele>
        <time>2016-02-20T09:54:58.951Z</time>
      </trkpt>
      <trkpt lat="43.66173" lon="5.83761">
        <ele>450</ele>
        <time>2016-02-20T09:54:59.881Z</time>
      </trkpt>
      <trkpt lat="43.66174" lon="5.83767">
        <ele>450</ele>
        <time>2016-02-20T09:55:00.965Z</time>
      </trkpt>
      <trkpt lat="43.66176" lon="5.83774">
        <ele>449</ele>
        <time>2016-02-20T09:55:01.883Z</time>
      </trkpt>
      <trkpt lat="43.66177" lon="5.8378">
        <ele>449</ele>
        <time>2016-02-20T09:55:02.892Z</time>
      </trkpt>
      <trkpt lat="43.66178" lon="5.83786">
        <ele>448</ele>
        <time>2016-02-20T09:55:03.885Z</time>
      </trkpt>
      <trkpt lat="43.66185" lon="5.83794">
        <ele>449</ele>
        <time>2016-02-20T09:55:05.951Z</time>
      </trkpt>
      <trkpt lat="43.66189" lon="5.83797">
        <ele>449</ele>
        <time>2016-02-20T09:55:06.881Z</time>
      </trkpt>
      <trkpt lat="43.66196" lon="5.83804">
        <ele>449</ele>
        <time>2016-02-20T09:55:08.961Z</time>
      </trkpt>
      <trkpt lat="43.662" lon="5.83808">
        <ele>449</ele>
        <time>2016-02-20T09:55:09.885Z</time>
      </trkpt>
      <trkpt lat="43.66207" lon="5.83814">
        <ele>450</ele>
        <time>2016-02-20T09:55:11.955Z</time>
      </trkpt>
      <trkpt lat="43.66211" lon="5.83817">
        <ele>450</ele>
        <time>2016-02-20T09:55:12.886Z</time>
      </trkpt>
      <trkpt lat="43.6622" lon="5.8382">
        <ele>450</ele>
        <time>2016-02-20T09:55:14.889Z</time>
      </trkpt>
      <trkpt lat="43.66223" lon="5.83821">
        <ele>451</ele>
        <time>2016-02-20T09:55:15.885Z</time>
      </trkpt>
      <trkpt lat="43.6623" lon="5.83824">
        <ele>451</ele>
        <time>2016-02-20T09:55:17.963Z</time>
      </trkpt>
      <trkpt lat="43.66233" lon="5.83826">
        <ele>451</ele>
        <time>2016-02-20T09:55:18.891Z</time>
      </trkpt>
      <trkpt lat="43.66239" lon="5.8383">
        <ele>451</ele>
        <time>2016-02-20T09:55:20.953Z</time>
      </trkpt>
      <trkpt lat="43.66241" lon="5.83832">
        <ele>452</ele>
        <time>2016-02-20T09:55:21.871Z</time>
      </trkpt>
      <trkpt lat="43.66247" lon="5.83836">
        <ele>452</ele>
        <time>2016-02-20T09:55:24.018Z</time>
      </trkpt>
      <trkpt lat="43.66249" lon="5.83839">
        <ele>452</ele>
        <time>2016-02-20T09:55:24.859Z</time>
      </trkpt>
      <trkpt lat="43.66255" lon="5.83843">
        <ele>452</ele>
        <time>2016-02-20T09:55:26.937Z</time>
      </trkpt>
      <trkpt lat="43.66257" lon="5.83845">
        <ele>452</ele>
        <time>2016-02-20T09:55:27.887Z</time>
      </trkpt>
      <trkpt lat="43.66263" lon="5.83849">
        <ele>453</ele>
        <time>2016-02-20T09:55:29.935Z</time>
      </trkpt>
      <trkpt lat="43.66266" lon="5.83851">
        <ele>453</ele>
        <time>2016-02-20T09:55:30.885Z</time>
      </trkpt>
      <trkpt lat="43.66272" lon="5.83853">
        <ele>453</ele>
        <time>2016-02-20T09:55:32.955Z</time>
      </trkpt>
      <trkpt lat="43.66276" lon="5.83855">
        <ele>453</ele>
        <time>2016-02-20T09:55:33.885Z</time>
      </trkpt>
      <trkpt lat="43.66282" lon="5.83857">
        <ele>454</ele>
        <time>2016-02-20T09:55:35.927Z</time>
      </trkpt>
      <trkpt lat="43.66285" lon="5.83859">
        <ele>454</ele>
        <time>2016-02-20T09:55:36.886Z</time>
      </trkpt>
      <trkpt lat="43.66291" lon="5.83862">
        <ele>454</ele>
        <time>2016-02-20T09:55:38.933Z</time>
      </trkpt>
      <trkpt lat="43.66294" lon="5.83864">
        <ele>453</ele>
        <time>2016-02-20T09:55:39.881Z</time>
      </trkpt>
      <trkpt lat="43.66299" lon="5.83868">
        <ele>453</ele>
        <time>2016-02-20T09:55:41.935Z</time>
      </trkpt>
      <trkpt lat="43.66302" lon="5.83872">
        <ele>453</ele>
        <time>2016-02-20T09:55:42.883Z</time>
      </trkpt>
      <trkpt lat="43.66308" lon="5.8388">
        <ele>453</ele>
        <time>2016-02-20T09:55:44.937Z</time>
      </trkpt>
      <trkpt lat="43.6631" lon="5.83883">
        <ele>453</ele>
        <time>2016-02-20T09:55:45.891Z</time>
      </trkpt>
      <trkpt lat="43.66315" lon="5.8389">
        <ele>453</ele>
        <time>2016-02-20T09:55:47.934Z</time>
      </trkpt>
      <trkpt lat="43.66317" lon="5.83894">
        <ele>453</ele>
        <time>2016-02-20T09:55:48.858Z</time>
      </trkpt>
      <trkpt lat="43.66322" lon="5.839">
        <ele>452</ele>
        <time>2016-02-20T09:55:50.934Z</time>
      </trkpt>
      <trkpt lat="43.66325" lon="5.83904">
        <ele>452</ele>
        <time>2016-02-20T09:55:51.885Z</time>
      </trkpt>
      <trkpt lat="43.66331" lon="5.83909">
        <ele>451</ele>
        <time>2016-02-20T09:55:53.940Z</time>
      </trkpt>
      <trkpt lat="43.66334" lon="5.83912">
        <ele>451</ele>
        <time>2016-02-20T09:55:54.883Z</time>
      </trkpt>
      <trkpt lat="43.6634" lon="5.8392">
        <ele>451</ele>
        <time>2016-02-20T09:55:56.933Z</time>
      </trkpt>
      <trkpt lat="43.66343" lon="5.83924">
        <ele>452</ele>
        <time>2016-02-20T09:55:57.885Z</time>
      </trkpt>
      <trkpt lat="43.66347" lon="5.83933">
        <ele>452</ele>
        <time>2016-02-20T09:56:00.559Z</time>
      </trkpt>
      <trkpt lat="43.66349" lon="5.83938">
        <ele>452</ele>
        <time>2016-02-20T09:56:00.860Z</time>
      </trkpt>
      <trkpt lat="43.66353" lon="5.83947">
        <ele>452</ele>
        <time>2016-02-20T09:56:02.933Z</time>
      </trkpt>
      <trkpt lat="43.66355" lon="5.83951">
        <ele>452</ele>
        <time>2016-02-20T09:56:03.896Z</time>
      </trkpt>
      <trkpt lat="43.66361" lon="5.83959">
        <ele>451</ele>
        <time>2016-02-20T09:56:05.932Z</time>
      </trkpt>
      <trkpt lat="43.66364" lon="5.83962">
        <ele>451</ele>
        <time>2016-02-20T09:56:06.882Z</time>
      </trkpt>
      <trkpt lat="43.66367" lon="5.83967">
        <ele>451</ele>
        <time>2016-02-20T09:56:07.934Z</time>
      </trkpt>
      <trkpt lat="43.6637" lon="5.83972">
        <ele>451</ele>
        <time>2016-02-20T09:56:08.882Z</time>
      </trkpt>
      <trkpt lat="43.66376" lon="5.83981">
        <ele>451</ele>
        <time>2016-02-20T09:56:10.929Z</time>
      </trkpt>
      <trkpt lat="43.66378" lon="5.83986">
        <ele>451</ele>
        <time>2016-02-20T09:56:12.116Z</time>
      </trkpt>
      <trkpt lat="43.66383" lon="5.83994">
        <ele>452</ele>
        <time>2016-02-20T09:56:13.946Z</time>
      </trkpt>
      <trkpt lat="43.66385" lon="5.83997">
        <ele>452</ele>
        <time>2016-02-20T09:56:14.884Z</time>
      </trkpt>
      <trkpt lat="43.66391" lon="5.84005">
        <ele>452</ele>
        <time>2016-02-20T09:56:16.944Z</time>
      </trkpt>
      <trkpt lat="43.66394" lon="5.84008">
        <ele>452</ele>
        <time>2016-02-20T09:56:17.898Z</time>
      </trkpt>
      <trkpt lat="43.66401" lon="5.84014">
        <ele>451</ele>
        <time>2016-02-20T09:56:19.939Z</time>
      </trkpt>
      <trkpt lat="43.66404" lon="5.84017">
        <ele>451</ele>
        <time>2016-02-20T09:56:20.885Z</time>
      </trkpt>
      <trkpt lat="43.66411" lon="5.84024">
        <ele>450</ele>
        <time>2016-02-20T09:56:22.930Z</time>
      </trkpt>
      <trkpt lat="43.66414" lon="5.84028">
        <ele>450</ele>
        <time>2016-02-20T09:56:24.255Z</time>
      </trkpt>
      <trkpt lat="43.66419" lon="5.84036">
        <ele>450</ele>
        <time>2016-02-20T09:56:25.946Z</time>
      </trkpt>
      <trkpt lat="43.66422" lon="5.84041">
        <ele>451</ele>
        <time>2016-02-20T09:56:26.905Z</time>
      </trkpt>
      <trkpt lat="43.66427" lon="5.84049">
        <ele>450</ele>
        <time>2016-02-20T09:56:28.928Z</time>
      </trkpt>
      <trkpt lat="43.66429" lon="5.84053">
        <ele>451</ele>
        <time>2016-02-20T09:56:29.883Z</time>
      </trkpt>
      <trkpt lat="43.66435" lon="5.84059">
        <ele>451</ele>
        <time>2016-02-20T09:56:31.944Z</time>
      </trkpt>
      <trkpt lat="43.66438" lon="5.84061">
        <ele>451</ele>
        <time>2016-02-20T09:56:32.879Z</time>
      </trkpt>
      <trkpt lat="43.66445" lon="5.84064">
        <ele>452</ele>
        <time>2016-02-20T09:56:34.937Z</time>
      </trkpt>
      <trkpt lat="43.66449" lon="5.84065">
        <ele>452</ele>
        <time>2016-02-20T09:56:35.857Z</time>
      </trkpt>
      <trkpt lat="43.66456" lon="5.84069">
        <ele>453</ele>
        <time>2016-02-20T09:56:37.954Z</time>
      </trkpt>
      <trkpt lat="43.66459" lon="5.84071">
        <ele>454</ele>
        <time>2016-02-20T09:56:38.889Z</time>
      </trkpt>
      <trkpt lat="43.66466" lon="5.84075">
        <ele>454</ele>
        <time>2016-02-20T09:56:40.941Z</time>
      </trkpt>
      <trkpt lat="43.66469" lon="5.84075">
        <ele>454</ele>
        <time>2016-02-20T09:56:41.884Z</time>
      </trkpt>
      <trkpt lat="43.66476" lon="5.84073">
        <ele>454</ele>
        <time>2016-02-20T09:56:43.927Z</time>
      </trkpt>
      <trkpt lat="43.66479" lon="5.84073">
        <ele>455</ele>
        <time>2016-02-20T09:56:44.882Z</time>
      </trkpt>
      <trkpt lat="43.66485" lon="5.84077">
        <ele>455</ele>
        <time>2016-02-20T09:56:46.868Z</time>
      </trkpt>
      <trkpt lat="43.66487" lon="5.84081">
        <ele>455</ele>
        <time>2016-02-20T09:56:47.893Z</time>
      </trkpt>
      <trkpt lat="43.66492" lon="5.84087">
        <ele>454</ele>
        <time>2016-02-20T09:56:49.931Z</time>
      </trkpt>
      <trkpt lat="43.66494" lon="5.84091">
        <ele>454</ele>
        <time>2016-02-20T09:56:50.885Z</time>
      </trkpt>
      <trkpt lat="43.66499" lon="5.84096">
        <ele>454</ele>
        <time>2016-02-20T09:56:52.884Z</time>
      </trkpt>
      <trkpt lat="43.66502" lon="5.84098">
        <ele>454</ele>
        <time>2016-02-20T09:56:53.868Z</time>
      </trkpt>
      <trkpt lat="43.66507" lon="5.84103">
        <ele>455</ele>
        <time>2016-02-20T09:56:55.965Z</time>
      </trkpt>
      <trkpt lat="43.6651" lon="5.84105">
        <ele>455</ele>
        <time>2016-02-20T09:56:56.886Z</time>
      </trkpt>
      <trkpt lat="43.66519" lon="5.84108">
        <ele>456</ele>
        <time>2016-02-20T09:56:59.940Z</time>
      </trkpt>
      <trkpt lat="43.66521" lon="5.84107">
        <ele>456</ele>
        <time>2016-02-20T09:57:00.855Z</time>
      </trkpt>
      <trkpt lat="43.66529" lon="5.84103">
        <ele>457</ele>
        <time>2016-02-20T09:57:03.949Z</time>
      </trkpt>
      <trkpt lat="43.66532" lon="5.84102">
        <ele>456</ele>
        <time>2016-02-20T09:57:04.899Z</time>
      </trkpt>
      <trkpt lat="43.66538" lon="5.84104">
        <ele>457</ele>
        <time>2016-02-20T09:57:06.928Z</time>
      </trkpt>
      <trkpt lat="43.66541" lon="5.84107">
        <ele>457</ele>
        <time>2016-02-20T09:57:07.886Z</time>
      </trkpt>
      <trkpt lat="43.66547" lon="5.84112">
        <ele>457</ele>
        <time>2016-02-20T09:57:09.915Z</time>
      </trkpt>
      <trkpt lat="43.66549" lon="5.84113">
        <ele>457</ele>
        <time>2016-02-20T09:57:10.894Z</time>
      </trkpt>
      <trkpt lat="43.66555" lon="5.84117">
        <ele>457</ele>
        <time>2016-02-20T09:57:12.934Z</time>
      </trkpt>
      <trkpt lat="43.66557" lon="5.84119">
        <ele>457</ele>
        <time>2016-02-20T09:57:13.890Z</time>
      </trkpt>
      <trkpt lat="43.66562" lon="5.84125">
        <ele>457</ele>
        <time>2016-02-20T09:57:15.969Z</time>
      </trkpt>
      <trkpt lat="43.66565" lon="5.84127">
        <ele>457</ele>
        <time>2016-02-20T09:57:16.885Z</time>
      </trkpt>
      <trkpt lat="43.6657" lon="5.84131">
        <ele>457</ele>
        <time>2016-02-20T09:57:18.943Z</time>
      </trkpt>
      <trkpt lat="43.66573" lon="5.84134">
        <ele>457</ele>
        <time>2016-02-20T09:57:19.882Z</time>
      </trkpt>
      <trkpt lat="43.66578" lon="5.84138">
        <ele>457</ele>
        <time>2016-02-20T09:57:22.553Z</time>
      </trkpt>
      <trkpt lat="43.66581" lon="5.84141">
        <ele>457</ele>
        <time>2016-02-20T09:57:22.856Z</time>
      </trkpt>
      <trkpt lat="43.66585" lon="5.84147">
        <ele>457</ele>
        <time>2016-02-20T09:57:24.929Z</time>
      </trkpt>
      <trkpt lat="43.66586" lon="5.84151">
        <ele>457</ele>
        <time>2016-02-20T09:57:25.883Z</time>
      </trkpt>
      <trkpt lat="43.6659" lon="5.84157">
        <ele>456</ele>
        <time>2016-02-20T09:57:27.931Z</time>
      </trkpt>
      <trkpt lat="43.66592" lon="5.8416">
        <ele>456</ele>
        <time>2016-02-20T09:57:28.886Z</time>
      </trkpt>
      <trkpt lat="43.66597" lon="5.84166">
        <ele>457</ele>
        <time>2016-02-20T09:57:30.952Z</time>
      </trkpt>
      <trkpt lat="43.66599" lon="5.84169">
        <ele>457</ele>
        <time>2016-02-20T09:57:31.878Z</time>
      </trkpt>
      <trkpt lat="43.66606" lon="5.84172">
        <ele>457</ele>
        <time>2016-02-20T09:57:34.528Z</time>
      </trkpt>
      <trkpt lat="43.66609" lon="5.84172">
        <ele>457</ele>
        <time>2016-02-20T09:57:34.859Z</time>
      </trkpt>
      <trkpt lat="43.66615" lon="5.84171">
        <ele>458</ele>
        <time>2016-02-20T09:57:36.933Z</time>
      </trkpt>
      <trkpt lat="43.66618" lon="5.84171">
        <ele>458</ele>
        <time>2016-02-20T09:57:37.886Z</time>
      </trkpt>
      <trkpt lat="43.66626" lon="5.8417">
        <ele>460</ele>
        <time>2016-02-20T09:57:40.935Z</time>
      </trkpt>
      <trkpt lat="43.66629" lon="5.8417">
        <ele>460</ele>
        <time>2016-02-20T09:57:41.889Z</time>
      </trkpt>
      <trkpt lat="43.66637" lon="5.84172">
        <ele>461</ele>
        <time>2016-02-20T09:57:45.505Z</time>
      </trkpt>
      <trkpt lat="43.66639" lon="5.84174">
        <ele>460</ele>
        <time>2016-02-20T09:57:45.857Z</time>
      </trkpt>
      <trkpt lat="43.66645" lon="5.84181">
        <ele>460</ele>
        <time>2016-02-20T09:57:48.961Z</time>
      </trkpt>
      <trkpt lat="43.66647" lon="5.84185">
        <ele>460</ele>
        <time>2016-02-20T09:57:49.881Z</time>
      </trkpt>
      <trkpt lat="43.66652" lon="5.8419">
        <ele>461</ele>
        <time>2016-02-20T09:57:51.938Z</time>
      </trkpt>
      <trkpt lat="43.66655" lon="5.84193">
        <ele>461</ele>
        <time>2016-02-20T09:57:52.889Z</time>
      </trkpt>
      <trkpt lat="43.6666" lon="5.84198">
        <ele>460</ele>
        <time>2016-02-20T09:57:54.979Z</time>
      </trkpt>
      <trkpt lat="43.66662" lon="5.84201">
        <ele>460</ele>
        <time>2016-02-20T09:57:55.957Z</time>
      </trkpt>
      <trkpt lat="43.66668" lon="5.84206">
        <ele>460</ele>
        <time>2016-02-20T09:57:57.881Z</time>
      </trkpt>
      <trkpt lat="43.6667" lon="5.84209">
        <ele>461</ele>
        <time>2016-02-20T09:57:58.885Z</time>
      </trkpt>
      <trkpt lat="43.66674" lon="5.84215">
        <ele>461</ele>
        <time>2016-02-20T09:58:00.895Z</time>
      </trkpt>
      <trkpt lat="43.66676" lon="5.84218">
        <ele>461</ele>
        <time>2016-02-20T09:58:01.886Z</time>
      </trkpt>
      <trkpt lat="43.66682" lon="5.84225">
        <ele>461</ele>
        <time>2016-02-20T09:58:03.938Z</time>
      </trkpt>
      <trkpt lat="43.66684" lon="5.84228">
        <ele>461</ele>
        <time>2016-02-20T09:58:04.886Z</time>
      </trkpt>
      <trkpt lat="43.66689" lon="5.84235">
        <ele>461</ele>
        <time>2016-02-20T09:58:06.949Z</time>
      </trkpt>
      <trkpt lat="43.66691" lon="5.84239">
        <ele>461</ele>
        <time>2016-02-20T09:58:07.865Z</time>
      </trkpt>
      <trkpt lat="43.66695" lon="5.84247">
        <ele>460</ele>
        <time>2016-02-20T09:58:09.883Z</time>
      </trkpt>
      <trkpt lat="43.66697" lon="5.84253">
        <ele>459</ele>
        <time>2016-02-20T09:58:10.881Z</time>
      </trkpt>
      <trkpt lat="43.66699" lon="5.84259">
        <ele>459</ele>
        <time>2016-02-20T09:58:11.933Z</time>
      </trkpt>
      <trkpt lat="43.66702" lon="5.84265">
        <ele>459</ele>
        <time>2016-02-20T09:58:12.888Z</time>
      </trkpt>
      <trkpt lat="43.66704" lon="5.84271">
        <ele>458</ele>
        <time>2016-02-20T09:58:13.933Z</time>
      </trkpt>
      <trkpt lat="43.66707" lon="5.84276">
        <ele>458</ele>
        <time>2016-02-20T09:58:14.888Z</time>
      </trkpt>
      <trkpt lat="43.66712" lon="5.84285">
        <ele>458</ele>
        <time>2016-02-20T09:58:16.935Z</time>
      </trkpt>
      <trkpt lat="43.66714" lon="5.84289">
        <ele>460</ele>
        <time>2016-02-20T09:58:17.885Z</time>
      </trkpt>
      <trkpt lat="43.66719" lon="5.84296">
        <ele>460</ele>
        <time>2016-02-20T09:58:19.936Z</time>
      </trkpt>
      <trkpt lat="43.6672" lon="5.84299">
        <ele>460</ele>
        <time>2016-02-20T09:58:20.885Z</time>
      </trkpt>
      <trkpt lat="43.66725" lon="5.84306">
        <ele>460</ele>
        <time>2016-02-20T09:58:22.945Z</time>
      </trkpt>
      <trkpt lat="43.66727" lon="5.84309">
        <ele>461</ele>
        <time>2016-02-20T09:58:23.891Z</time>
      </trkpt>
      <trkpt lat="43.66732" lon="5.84315">
        <ele>461</ele>
        <time>2016-02-20T09:58:25.935Z</time>
      </trkpt>
      <trkpt lat="43.66734" lon="5.84318">
        <ele>461</ele>
        <time>2016-02-20T09:58:26.886Z</time>
      </trkpt>
      <trkpt lat="43.66741" lon="5.84326">
        <ele>461</ele>
        <time>2016-02-20T09:58:29.938Z</time>
      </trkpt>
      <trkpt lat="43.66743" lon="5.84328">
        <ele>461</ele>
        <time>2016-02-20T09:58:30.889Z</time>
      </trkpt>
      <trkpt lat="43.66749" lon="5.84336">
        <ele>462</ele>
        <time>2016-02-20T09:58:33.883Z</time>
      </trkpt>
      <trkpt lat="43.66751" lon="5.84338">
        <ele>461</ele>
        <time>2016-02-20T09:58:34.882Z</time>
      </trkpt>
      <trkpt lat="43.66756" lon="5.84344">
        <ele>462</ele>
        <time>2016-02-20T09:58:37.985Z</time>
      </trkpt>
      <trkpt lat="43.66758" lon="5.84346">
        <ele>462</ele>
        <time>2016-02-20T09:58:38.882Z</time>
      </trkpt>
      <trkpt lat="43.66763" lon="5.84352">
        <ele>461</ele>
        <time>2016-02-20T09:58:41.951Z</time>
      </trkpt>
      <trkpt lat="43.66765" lon="5.84354">
        <ele>461</ele>
        <time>2016-02-20T09:58:42.883Z</time>
      </trkpt>
      <trkpt lat="43.66771" lon="5.84362">
        <ele>462</ele>
        <time>2016-02-20T09:58:46.930Z</time>
      </trkpt>
      <trkpt lat="43.66773" lon="5.84364">
        <ele>463</ele>
        <time>2016-02-20T09:58:47.883Z</time>
      </trkpt>
      <trkpt lat="43.66778" lon="5.8437">
        <ele>464</ele>
        <time>2016-02-20T09:58:50.930Z</time>
      </trkpt>
      <trkpt lat="43.66779" lon="5.84372">
        <ele>464</ele>
        <time>2016-02-20T09:58:51.885Z</time>
      </trkpt>
      <trkpt lat="43.66786" lon="5.8438">
        <ele>464</ele>
        <time>2016-02-20T09:58:55.937Z</time>
      </trkpt>
      <trkpt lat="43.66788" lon="5.84382">
        <ele>464</ele>
        <time>2016-02-20T09:58:56.882Z</time>
      </trkpt>
      <trkpt lat="43.66795" lon="5.8439">
        <ele>465</ele>
        <time>2016-02-20T09:59:00.931Z</time>
      </trkpt>
      <trkpt lat="43.66796" lon="5.84392">
        <ele>465</ele>
        <time>2016-02-20T09:59:01.890Z</time>
      </trkpt>
      <trkpt lat="43.66803" lon="5.84399">
        <ele>466</ele>
        <time>2016-02-20T09:59:05.939Z</time>
      </trkpt>
      <trkpt lat="43.66805" lon="5.84401">
        <ele>466</ele>
        <time>2016-02-20T09:59:06.885Z</time>
      </trkpt>
      <trkpt lat="43.6681" lon="5.84409">
        <ele>467</ele>
        <time>2016-02-20T09:59:10.888Z</time>
      </trkpt>
      <trkpt lat="43.66812" lon="5.84411">
        <ele>467</ele>
        <time>2016-02-20T09:59:11.882Z</time>
      </trkpt>
      <trkpt lat="43.66817" lon="5.84419">
        <ele>468</ele>
        <time>2016-02-20T09:59:16.942Z</time>
      </trkpt>
      <trkpt lat="43.66819" lon="5.84421">
        <ele>468</ele>
        <time>2016-02-20T09:59:17.881Z</time>
      </trkpt>
      <trkpt lat="43.66825" lon="5.84428">
        <ele>468</ele>
        <time>2016-02-20T09:59:22.935Z</time>
      </trkpt>
      <trkpt lat="43.66826" lon="5.84429">
        <ele>469</ele>
        <time>2016-02-20T09:59:24.473Z</time>
      </trkpt>
      <trkpt lat="43.66833" lon="5.84436">
        <ele>470</ele>
        <time>2016-02-20T09:59:28.941Z</time>
      </trkpt>
      <trkpt lat="43.66834" lon="5.84438">
        <ele>470</ele>
        <time>2016-02-20T09:59:29.886Z</time>
      </trkpt>
      <trkpt lat="43.6684" lon="5.84444">
        <ele>472</ele>
        <time>2016-02-20T09:59:34.938Z</time>
      </trkpt>
      <trkpt lat="43.66842" lon="5.84445">
        <ele>472</ele>
        <time>2016-02-20T09:59:35.859Z</time>
      </trkpt>
      <trkpt lat="43.66845" lon="5.84454">
        <ele>473</ele>
        <time>2016-02-20T09:59:40.941Z</time>
      </trkpt>
      <trkpt lat="43.66844" lon="5.84458">
        <ele>472</ele>
        <time>2016-02-20T09:59:41.885Z</time>
      </trkpt>
      <trkpt lat="43.6684" lon="5.84468">
        <ele>472</ele>
        <time>2016-02-20T09:59:44.935Z</time>
      </trkpt>
      <trkpt lat="43.66839" lon="5.84471">
        <ele>472</ele>
        <time>2016-02-20T09:59:45.888Z</time>
      </trkpt>
      <trkpt lat="43.66836" lon="5.8448">
        <ele>472</ele>
        <time>2016-02-20T09:59:48.932Z</time>
      </trkpt>
      <trkpt lat="43.66836" lon="5.84483">
        <ele>471</ele>
        <time>2016-02-20T09:59:49.881Z</time>
      </trkpt>
      <trkpt lat="43.66833" lon="5.84493">
        <ele>471</ele>
        <time>2016-02-20T09:59:52.931Z</time>
      </trkpt>
      <trkpt lat="43.66833" lon="5.84496">
        <ele>470</ele>
        <time>2016-02-20T09:59:53.896Z</time>
      </trkpt>
      <trkpt lat="43.6683" lon="5.84506">
        <ele>470</ele>
        <time>2016-02-20T09:59:56.940Z</time>
      </trkpt>
      <trkpt lat="43.66829" lon="5.8451">
        <ele>470</ele>
        <time>2016-02-20T09:59:57.888Z</time>
      </trkpt>
      <trkpt lat="43.66827" lon="5.84521">
        <ele>471</ele>
        <time>2016-02-20T10:00:00.927Z</time>
      </trkpt>
      <trkpt lat="43.66826" lon="5.84524">
        <ele>470</ele>
        <time>2016-02-20T10:00:01.889Z</time>
      </trkpt>
      <trkpt lat="43.66824" lon="5.84535">
        <ele>470</ele>
        <time>2016-02-20T10:00:04.935Z</time>
      </trkpt>
      <trkpt lat="43.66823" lon="5.84539">
        <ele>470</ele>
        <time>2016-02-20T10:00:05.882Z</time>
      </trkpt>
      <trkpt lat="43.66821" lon="5.84548">
        <ele>470</ele>
        <time>2016-02-20T10:00:07.943Z</time>
      </trkpt>
      <trkpt lat="43.6682" lon="5.84552">
        <ele>470</ele>
        <time>2016-02-20T10:00:08.879Z</time>
      </trkpt>
      <trkpt lat="43.66819" lon="5.8456">
        <ele>471</ele>
        <time>2016-02-20T10:00:10.939Z</time>
      </trkpt>
      <trkpt lat="43.66818" lon="5.84565">
        <ele>471</ele>
        <time>2016-02-20T10:00:11.886Z</time>
      </trkpt>
      <trkpt lat="43.66816" lon="5.84576">
        <ele>471</ele>
        <time>2016-02-20T10:00:14.933Z</time>
      </trkpt>
      <trkpt lat="43.66815" lon="5.8458">
        <ele>471</ele>
        <time>2016-02-20T10:00:15.886Z</time>
      </trkpt>
      <trkpt lat="43.66813" lon="5.84588">
        <ele>470</ele>
        <time>2016-02-20T10:00:17.944Z</time>
      </trkpt>
      <trkpt lat="43.66812" lon="5.84593">
        <ele>470</ele>
        <time>2016-02-20T10:00:18.883Z</time>
      </trkpt>
      <trkpt lat="43.6681" lon="5.84602">
        <ele>470</ele>
        <time>2016-02-20T10:00:20.958Z</time>
      </trkpt>
      <trkpt lat="43.66809" lon="5.84606">
        <ele>470</ele>
        <time>2016-02-20T10:00:21.865Z</time>
      </trkpt>
      <trkpt lat="43.66807" lon="5.84615">
        <ele>469</ele>
        <time>2016-02-20T10:00:24.505Z</time>
      </trkpt>
      <trkpt lat="43.66806" lon="5.84619">
        <ele>469</ele>
        <time>2016-02-20T10:00:24.857Z</time>
      </trkpt>
      <trkpt lat="43.66804" lon="5.84628">
        <ele>469</ele>
        <time>2016-02-20T10:00:26.927Z</time>
      </trkpt>
      <trkpt lat="43.66803" lon="5.84632">
        <ele>469</ele>
        <time>2016-02-20T10:00:27.883Z</time>
      </trkpt>
      <trkpt lat="43.66802" lon="5.8464">
        <ele>469</ele>
        <time>2016-02-20T10:00:29.941Z</time>
      </trkpt>
      <trkpt lat="43.66801" lon="5.84644">
        <ele>469</ele>
        <time>2016-02-20T10:00:30.885Z</time>
      </trkpt>
      <trkpt lat="43.66799" lon="5.84653">
        <ele>469</ele>
        <time>2016-02-20T10:00:32.933Z</time>
      </trkpt>
      <trkpt lat="43.66798" lon="5.84657">
        <ele>469</ele>
        <time>2016-02-20T10:00:33.882Z</time>
      </trkpt>
      <trkpt lat="43.66796" lon="5.84665">
        <ele>470</ele>
        <time>2016-02-20T10:00:35.886Z</time>
      </trkpt>
      <trkpt lat="43.66795" lon="5.8467">
        <ele>470</ele>
        <time>2016-02-20T10:00:36.881Z</time>
      </trkpt>
      <trkpt lat="43.66792" lon="5.8468">
        <ele>470</ele>
        <time>2016-02-20T10:00:39.091Z</time>
      </trkpt>
      <trkpt lat="43.66791" lon="5.84685">
        <ele>470</ele>
        <time>2016-02-20T10:00:39.881Z</time>
      </trkpt>
      <trkpt lat="43.66789" lon="5.84695">
        <ele>469</ele>
        <time>2016-02-20T10:00:41.947Z</time>
      </trkpt>
      <trkpt lat="43.66788" lon="5.847">
        <ele>469</ele>
        <time>2016-02-20T10:00:42.882Z</time>
      </trkpt>
      <trkpt lat="43.66787" lon="5.8471">
        <ele>469</ele>
        <time>2016-02-20T10:00:44.927Z</time>
      </trkpt>
      <trkpt lat="43.66786" lon="5.84716">
        <ele>469</ele>
        <time>2016-02-20T10:00:45.882Z</time>
      </trkpt>
      <trkpt lat="43.66783" lon="5.84726">
        <ele>469</ele>
        <time>2016-02-20T10:00:47.931Z</time>
      </trkpt>
      <trkpt lat="43.66782" lon="5.84732">
        <ele>469</ele>
        <time>2016-02-20T10:00:48.885Z</time>
      </trkpt>
      <trkpt lat="43.66781" lon="5.84738">
        <ele>469</ele>
        <time>2016-02-20T10:00:49.940Z</time>
      </trkpt>
      <trkpt lat="43.66779" lon="5.84745">
        <ele>468</ele>
        <time>2016-02-20T10:00:50.886Z</time>
      </trkpt>
      <trkpt lat="43.66777" lon="5.84751">
        <ele>468</ele>
        <time>2016-02-20T10:00:51.944Z</time>
      </trkpt>
      <trkpt lat="43.66775" lon="5.84757">
        <ele>468</ele>
        <time>2016-02-20T10:00:52.886Z</time>
      </trkpt>
      <trkpt lat="43.66773" lon="5.84763">
        <ele>467</ele>
        <time>2016-02-20T10:00:53.976Z</time>
      </trkpt>
      <trkpt lat="43.6677" lon="5.84769">
        <ele>467</ele>
        <time>2016-02-20T10:00:54.887Z</time>
      </trkpt>
      <trkpt lat="43.66768" lon="5.84776">
        <ele>467</ele>
        <time>2016-02-20T10:00:55.932Z</time>
      </trkpt>
      <trkpt lat="43.66766" lon="5.84784">
        <ele>466</ele>
        <time>2016-02-20T10:00:56.885Z</time>
      </trkpt>
      <trkpt lat="43.66764" lon="5.84792">
        <ele>466</ele>
        <time>2016-02-20T10:00:58.535Z</time>
      </trkpt>
      <trkpt lat="43.66761" lon="5.848">
        <ele>465</ele>
        <time>2016-02-20T10:00:58.892Z</time>
      </trkpt>
      <trkpt lat="43.66758" lon="5.84808">
        <ele>465</ele>
        <time>2016-02-20T10:00:59.932Z</time>
      </trkpt>
      <trkpt lat="43.66756" lon="5.84815">
        <ele>465</ele>
        <time>2016-02-20T10:01:00.882Z</time>
      </trkpt>
      <trkpt lat="43.66753" lon="5.84823">
        <ele>465</ele>
        <time>2016-02-20T10:01:01.933Z</time>
      </trkpt>
      <trkpt lat="43.66751" lon="5.84831">
        <ele>465</ele>
        <time>2016-02-20T10:01:02.887Z</time>
      </trkpt>
      <trkpt lat="43.66748" lon="5.84838">
        <ele>465</ele>
        <time>2016-02-20T10:01:03.944Z</time>
      </trkpt>
      <trkpt lat="43.66746" lon="5.84846">
        <ele>465</ele>
        <time>2016-02-20T10:01:04.900Z</time>
      </trkpt>
      <trkpt lat="43.66744" lon="5.84854">
        <ele>465</ele>
        <time>2016-02-20T10:01:05.936Z</time>
      </trkpt>
      <trkpt lat="43.66741" lon="5.84861">
        <ele>465</ele>
        <time>2016-02-20T10:01:06.885Z</time>
      </trkpt>
      <trkpt lat="43.66739" lon="5.84868">
        <ele>465</ele>
        <time>2016-02-20T10:01:07.945Z</time>
      </trkpt>
      <trkpt lat="43.66736" lon="5.84876">
        <ele>464</ele>
        <time>2016-02-20T10:01:08.886Z</time>
      </trkpt>
      <trkpt lat="43.66733" lon="5.84883">
        <ele>464</ele>
        <time>2016-02-20T10:01:09.878Z</time>
      </trkpt>
      <trkpt lat="43.66731" lon="5.84889">
        <ele>464</ele>
        <time>2016-02-20T10:01:10.886Z</time>
      </trkpt>
      <trkpt lat="43.66728" lon="5.84895">
        <ele>463</ele>
        <time>2016-02-20T10:01:11.958Z</time>
      </trkpt>
      <trkpt lat="43.66725" lon="5.84902">
        <ele>463</ele>
        <time>2016-02-20T10:01:12.898Z</time>
      </trkpt>
      <trkpt lat="43.66722" lon="5.84908">
        <ele>463</ele>
        <time>2016-02-20T10:01:13.937Z</time>
      </trkpt>
      <trkpt lat="43.6672" lon="5.84916">
        <ele>463</ele>
        <time>2016-02-20T10:01:14.881Z</time>
      </trkpt>
      <trkpt lat="43.66717" lon="5.84924">
        <ele>464</ele>
        <time>2016-02-20T10:01:15.948Z</time>
      </trkpt>
      <trkpt lat="43.66714" lon="5.8493">
        <ele>464</ele>
        <time>2016-02-20T10:01:16.889Z</time>
      </trkpt>
      <trkpt lat="43.66712" lon="5.84937">
        <ele>463</ele>
        <time>2016-02-20T10:01:17.941Z</time>
      </trkpt>
      <trkpt lat="43.6671" lon="5.84943">
        <ele>463</ele>
        <time>2016-02-20T10:01:18.882Z</time>
      </trkpt>
      <trkpt lat="43.66709" lon="5.8495">
        <ele>463</ele>
        <time>2016-02-20T10:01:19.936Z</time>
      </trkpt>
      <trkpt lat="43.6671" lon="5.84958">
        <ele>464</ele>
        <time>2016-02-20T10:01:21.463Z</time>
      </trkpt>
      <trkpt lat="43.66712" lon="5.84963">
        <ele>464</ele>
        <time>2016-02-20T10:01:21.875Z</time>
      </trkpt>
      <trkpt lat="43.66714" lon="5.8497">
        <ele>464</ele>
        <time>2016-02-20T10:01:22.886Z</time>
      </trkpt>
      <trkpt lat="43.66717" lon="5.84973">
        <ele>465</ele>
        <time>2016-02-20T10:01:23.940Z</time>
      </trkpt>
      <trkpt lat="43.66722" lon="5.84978">
        <ele>465</ele>
        <time>2016-02-20T10:01:24.892Z</time>
      </trkpt>
      <trkpt lat="43.66726" lon="5.8498">
        <ele>465</ele>
        <time>2016-02-20T10:01:25.934Z</time>
      </trkpt>
      <trkpt lat="43.66731" lon="5.84981">
        <ele>465</ele>
        <time>2016-02-20T10:01:26.884Z</time>
      </trkpt>
      <trkpt lat="43.66736" lon="5.8498">
        <ele>464</ele>
        <time>2016-02-20T10:01:27.938Z</time>
      </trkpt>
      <trkpt lat="43.66741" lon="5.84979">
        <ele>464</ele>
        <time>2016-02-20T10:01:28.884Z</time>
      </trkpt>
      <trkpt lat="43.66746" lon="5.84977">
        <ele>465</ele>
        <time>2016-02-20T10:01:29.938Z</time>
      </trkpt>
      <trkpt lat="43.6675" lon="5.84974">
        <ele>465</ele>
        <time>2016-02-20T10:01:30.879Z</time>
      </trkpt>
      <trkpt lat="43.66758" lon="5.8497">
        <ele>464</ele>
        <time>2016-02-20T10:01:32.880Z</time>
      </trkpt>
      <trkpt lat="43.66762" lon="5.84968">
        <ele>464</ele>
        <time>2016-02-20T10:01:33.887Z</time>
      </trkpt>
      <trkpt lat="43.6677" lon="5.84965">
        <ele>465</ele>
        <time>2016-02-20T10:01:35.935Z</time>
      </trkpt>
      <trkpt lat="43.66773" lon="5.84963">
        <ele>465</ele>
        <time>2016-02-20T10:01:36.885Z</time>
      </trkpt>
      <trkpt lat="43.66782" lon="5.8496">
        <ele>466</ele>
        <time>2016-02-20T10:01:39.933Z</time>
      </trkpt>
      <trkpt lat="43.66785" lon="5.84958">
        <ele>465</ele>
        <time>2016-02-20T10:01:40.892Z</time>
      </trkpt>
      <trkpt lat="43.66791" lon="5.84954">
        <ele>465</ele>
        <time>2016-02-20T10:01:42.884Z</time>
      </trkpt>
      <trkpt lat="43.66795" lon="5.84953">
        <ele>465</ele>
        <time>2016-02-20T10:01:43.885Z</time>
      </trkpt>
      <trkpt lat="43.66803" lon="5.84949">
        <ele>465</ele>
        <time>2016-02-20T10:01:45.960Z</time>
      </trkpt>
      <trkpt lat="43.66808" lon="5.84947">
        <ele>464</ele>
        <time>2016-02-20T10:01:46.883Z</time>
      </trkpt>
      <trkpt lat="43.66813" lon="5.84945">
        <ele>465</ele>
        <time>2016-02-20T10:01:47.967Z</time>
      </trkpt>
      <trkpt lat="43.66817" lon="5.84944">
        <ele>464</ele>
        <time>2016-02-20T10:01:48.885Z</time>
      </trkpt>
      <trkpt lat="43.66822" lon="5.84943">
        <ele>464</ele>
        <time>2016-02-20T10:01:49.937Z</time>
      </trkpt>
      <trkpt lat="43.66827" lon="5.84942">
        <ele>464</ele>
        <time>2016-02-20T10:01:50.895Z</time>
      </trkpt>
      <trkpt lat="43.66831" lon="5.8494">
        <ele>464</ele>
        <time>2016-02-20T10:01:51.938Z</time>
      </trkpt>
      <trkpt lat="43.66836" lon="5.84939">
        <ele>464</ele>
        <time>2016-02-20T10:01:52.889Z</time>
      </trkpt>
      <trkpt lat="43.66841" lon="5.84939">
        <ele>464</ele>
        <time>2016-02-20T10:01:53.933Z</time>
      </trkpt>
      <trkpt lat="43.66845" lon="5.84937">
        <ele>464</ele>
        <time>2016-02-20T10:01:54.863Z</time>
      </trkpt>
      <trkpt lat="43.66853" lon="5.84934">
        <ele>463</ele>
        <time>2016-02-20T10:01:56.937Z</time>
      </trkpt>
      <trkpt lat="43.66858" lon="5.84933">
        <ele>463</ele>
        <time>2016-02-20T10:01:57.890Z</time>
      </trkpt>
      <trkpt lat="43.66866" lon="5.84931">
        <ele>464</ele>
        <time>2016-02-20T10:01:59.934Z</time>
      </trkpt>
      <trkpt lat="43.6687" lon="5.84929">
        <ele>463</ele>
        <time>2016-02-20T10:02:00.882Z</time>
      </trkpt>
      <trkpt lat="43.66878" lon="5.84926">
        <ele>464</ele>
        <time>2016-02-20T10:02:02.932Z</time>
      </trkpt>
      <trkpt lat="43.66882" lon="5.84925">
        <ele>465</ele>
        <time>2016-02-20T10:02:03.885Z</time>
      </trkpt>
      <trkpt lat="43.6689" lon="5.84923">
        <ele>465</ele>
        <time>2016-02-20T10:02:05.933Z</time>
      </trkpt>
      <trkpt lat="43.66894" lon="5.84923">
        <ele>465</ele>
        <time>2016-02-20T10:02:06.859Z</time>
      </trkpt>
      <trkpt lat="43.66901" lon="5.84921">
        <ele>466</ele>
        <time>2016-02-20T10:02:08.944Z</time>
      </trkpt>
      <trkpt lat="43.66904" lon="5.84921">
        <ele>466</ele>
        <time>2016-02-20T10:02:09.895Z</time>
      </trkpt>
      <trkpt lat="43.66913" lon="5.84919">
        <ele>466</ele>
        <time>2016-02-20T10:02:12.932Z</time>
      </trkpt>
      <trkpt lat="43.66915" lon="5.8492">
        <ele>466</ele>
        <time>2016-02-20T10:02:13.886Z</time>
      </trkpt>
      <trkpt lat="43.66922" lon="5.84919">
        <ele>467</ele>
        <time>2016-02-20T10:02:16.958Z</time>
      </trkpt>
      <trkpt lat="43.66925" lon="5.84918">
        <ele>466</ele>
        <time>2016-02-20T10:02:17.893Z</time>
      </trkpt>
      <trkpt lat="43.66932" lon="5.84916">
        <ele>467</ele>
        <time>2016-02-20T10:02:19.960Z</time>
      </trkpt>
      <trkpt lat="43.66935" lon="5.84915">
        <ele>466</ele>
        <time>2016-02-20T10:02:20.895Z</time>
      </trkpt>
      <trkpt lat="43.66941" lon="5.84912">
        <ele>466</ele>
        <time>2016-02-20T10:02:22.944Z</time>
      </trkpt>
      <trkpt lat="43.66944" lon="5.8491">
        <ele>465</ele>
        <time>2016-02-20T10:02:23.890Z</time>
      </trkpt>
      <trkpt lat="43.66949" lon="5.84906">
        <ele>465</ele>
        <time>2016-02-20T10:02:25.935Z</time>
      </trkpt>
      <trkpt lat="43.66952" lon="5.84904">
        <ele>465</ele>
        <time>2016-02-20T10:02:26.887Z</time>
      </trkpt>
      <trkpt lat="43.66958" lon="5.84899">
        <ele>465</ele>
        <time>2016-02-20T10:02:28.946Z</time>
      </trkpt>
      <trkpt lat="43.66961" lon="5.84896">
        <ele>465</ele>
        <time>2016-02-20T10:02:29.876Z</time>
      </trkpt>
      <trkpt lat="43.66967" lon="5.8489">
        <ele>465</ele>
        <time>2016-02-20T10:02:31.972Z</time>
      </trkpt>
      <trkpt lat="43.6697" lon="5.84888">
        <ele>466</ele>
        <time>2016-02-20T10:02:32.869Z</time>
      </trkpt>
      <trkpt lat="43.66977" lon="5.84883">
        <ele>465</ele>
        <time>2016-02-20T10:02:34.941Z</time>
      </trkpt>
      <trkpt lat="43.66981" lon="5.8488">
        <ele>464</ele>
        <time>2016-02-20T10:02:35.895Z</time>
      </trkpt>
      <trkpt lat="43.66987" lon="5.84875">
        <ele>465</ele>
        <time>2016-02-20T10:02:37.938Z</time>
      </trkpt>
      <trkpt lat="43.6699" lon="5.84873">
        <ele>466</ele>
        <time>2016-02-20T10:02:38.886Z</time>
      </trkpt>
      <trkpt lat="43.66997" lon="5.84869">
        <ele>467</ele>
        <time>2016-02-20T10:02:40.946Z</time>
      </trkpt>
      <trkpt lat="43.67" lon="5.84868">
        <ele>467</ele>
        <time>2016-02-20T10:02:42.228Z</time>
      </trkpt>
      <trkpt lat="43.67006" lon="5.84874">
        <ele>468</ele>
        <time>2016-02-20T10:02:43.939Z</time>
      </trkpt>
      <trkpt lat="43.67008" lon="5.8488">
        <ele>468</ele>
        <time>2016-02-20T10:02:44.888Z</time>
      </trkpt>
      <trkpt lat="43.67012" lon="5.84891">
        <ele>468</ele>
        <time>2016-02-20T10:02:46.932Z</time>
      </trkpt>
      <trkpt lat="43.67014" lon="5.84896">
        <ele>467</ele>
        <time>2016-02-20T10:02:47.888Z</time>
      </trkpt>
      <trkpt lat="43.67018" lon="5.84904">
        <ele>467</ele>
        <time>2016-02-20T10:02:49.942Z</time>
      </trkpt>
      <trkpt lat="43.67019" lon="5.84908">
        <ele>467</ele>
        <time>2016-02-20T10:02:50.885Z</time>
      </trkpt>
      <trkpt lat="43.67024" lon="5.84917">
        <ele>467</ele>
        <time>2016-02-20T10:02:54.488Z</time>
      </trkpt>
      <trkpt lat="43.67025" lon="5.8492">
        <ele>467</ele>
        <time>2016-02-20T10:02:54.858Z</time>
      </trkpt>
      <trkpt lat="43.67029" lon="5.8493">
        <ele>467</ele>
        <time>2016-02-20T10:02:58.959Z</time>
      </trkpt>
      <trkpt lat="43.67029" lon="5.84932">
        <ele>467</ele>
        <time>2016-02-20T10:02:59.888Z</time>
      </trkpt>
      <trkpt lat="43.67026" lon="5.84942">
        <ele>464</ele>
        <time>2016-02-20T10:03:03.940Z</time>
      </trkpt>
      <trkpt lat="43.67023" lon="5.84945">
        <ele>463</ele>
        <time>2016-02-20T10:03:04.889Z</time>
      </trkpt>
      <trkpt lat="43.6702" lon="5.84949">
        <ele>462</ele>
        <time>2016-02-20T10:03:05.928Z</time>
      </trkpt>
      <trkpt lat="43.67015" lon="5.84955">
        <ele>462</ele>
        <time>2016-02-20T10:03:06.857Z</time>
      </trkpt>
      <trkpt lat="43.67015" lon="5.84955">
        <ele>462</ele>
        <time>2016-02-20T10:03:06.888Z</time>
      </trkpt>
      <trkpt lat="43.67001" lon="5.84961">
        <ele>462</ele>
        <time>2016-02-20T10:03:07.887Z</time>
      </trkpt>
      <trkpt lat="43.66994" lon="5.84965">
        <ele>462</ele>
        <time>2016-02-20T10:03:08.966Z</time>
      </trkpt>
      <trkpt lat="43.66985" lon="5.84969">
        <ele>462</ele>
        <time>2016-02-20T10:03:09.897Z</time>
      </trkpt>
      <trkpt lat="43.66979" lon="5.84974">
        <ele>462</ele>
        <time>2016-02-20T10:03:10.942Z</time>
      </trkpt>
      <trkpt lat="43.66972" lon="5.84978">
        <ele>460</ele>
        <time>2016-02-20T10:03:11.885Z</time>
      </trkpt>
      <trkpt lat="43.66967" lon="5.84981">
        <ele>460</ele>
        <time>2016-02-20T10:03:12.878Z</time>
      </trkpt>
      <trkpt lat="43.66963" lon="5.84985">
        <ele>460</ele>
        <time>2016-02-20T10:03:13.879Z</time>
      </trkpt>
      <trkpt lat="43.66957" lon="5.84991">
        <ele>460</ele>
        <time>2016-02-20T10:03:15.937Z</time>
      </trkpt>
      <trkpt lat="43.66957" lon="5.84995">
        <ele>460</ele>
        <time>2016-02-20T10:03:16.887Z</time>
      </trkpt>
      <trkpt lat="43.66963" lon="5.85003">
        <ele>462</ele>
        <time>2016-02-20T10:03:19.936Z</time>
      </trkpt>
      <trkpt lat="43.66965" lon="5.85003">
        <ele>463</ele>
        <time>2016-02-20T10:03:20.892Z</time>
      </trkpt>
      <trkpt lat="43.66972" lon="5.85004">
        <ele>463</ele>
        <time>2016-02-20T10:03:23.935Z</time>
      </trkpt>
      <trkpt lat="43.66975" lon="5.85005">
        <ele>462</ele>
        <time>2016-02-20T10:03:24.876Z</time>
      </trkpt>
      <trkpt lat="43.66981" lon="5.85011">
        <ele>463</ele>
        <time>2016-02-20T10:03:27.978Z</time>
      </trkpt>
      <trkpt lat="43.66982" lon="5.85014">
        <ele>464</ele>
        <time>2016-02-20T10:03:28.897Z</time>
      </trkpt>
      <trkpt lat="43.66981" lon="5.85026">
        <ele>466</ele>
        <time>2016-02-20T10:03:32.963Z</time>
      </trkpt>
      <trkpt lat="43.66981" lon="5.85029">
        <ele>466</ele>
        <time>2016-02-20T10:03:33.885Z</time>
      </trkpt>
      <trkpt lat="43.6698" lon="5.8504">
        <ele>465</ele>
        <time>2016-02-20T10:03:37.011Z</time>
      </trkpt>
      <trkpt lat="43.66981" lon="5.85043">
        <ele>466</ele>
        <time>2016-02-20T10:03:37.924Z</time>
      </trkpt>
      <trkpt lat="43.66984" lon="5.85053">
        <ele>467</ele>
        <time>2016-02-20T10:03:40.947Z</time>
      </trkpt>
      <trkpt lat="43.66986" lon="5.85056">
        <ele>467</ele>
        <time>2016-02-20T10:03:41.885Z</time>
      </trkpt>
      <trkpt lat="43.66993" lon="5.85063">
        <ele>468</ele>
        <time>2016-02-20T10:03:44.949Z</time>
      </trkpt>
      <trkpt lat="43.66995" lon="5.85065">
        <ele>469</ele>
        <time>2016-02-20T10:03:45.883Z</time>
      </trkpt>
      <trkpt lat="43.67003" lon="5.8507">
        <ele>468</ele>
        <time>2016-02-20T10:03:48.955Z</time>
      </trkpt>
      <trkpt lat="43.67006" lon="5.85072">
        <ele>468</ele>
        <time>2016-02-20T10:03:49.867Z</time>
      </trkpt>
      <trkpt lat="43.67012" lon="5.85075">
        <ele>467</ele>
        <time>2016-02-20T10:03:51.935Z</time>
      </trkpt>
      <trkpt lat="43.67015" lon="5.85077">
        <ele>466</ele>
        <time>2016-02-20T10:03:52.903Z</time>
      </trkpt>
      <trkpt lat="43.67022" lon="5.85082">
        <ele>466</ele>
        <time>2016-02-20T10:03:54.883Z</time>
      </trkpt>
      <trkpt lat="43.67025" lon="5.85084">
        <ele>465</ele>
        <time>2016-02-20T10:03:55.888Z</time>
      </trkpt>
      <trkpt lat="43.67031" lon="5.85089">
        <ele>465</ele>
        <time>2016-02-20T10:03:57.918Z</time>
      </trkpt>
      <trkpt lat="43.67035" lon="5.8509">
        <ele>465</ele>
        <time>2016-02-20T10:03:58.888Z</time>
      </trkpt>
      <trkpt lat="43.67042" lon="5.8509">
        <ele>463</ele>
        <time>2016-02-20T10:04:00.937Z</time>
      </trkpt>
      <trkpt lat="43.67045" lon="5.85089">
        <ele>464</ele>
        <time>2016-02-20T10:04:01.884Z</time>
      </trkpt>
      <trkpt lat="43.67053" lon="5.85094">
        <ele>465</ele>
        <time>2016-02-20T10:04:05.937Z</time>
      </trkpt>
      <trkpt lat="43.67054" lon="5.85098">
        <ele>465</ele>
        <time>2016-02-20T10:04:06.883Z</time>
      </trkpt>
      <trkpt lat="43.67056" lon="5.85106">
        <ele>466</ele>
        <time>2016-02-20T10:04:08.941Z</time>
      </trkpt>
      <trkpt lat="43.67057" lon="5.8511">
        <ele>466</ele>
        <time>2016-02-20T10:04:09.886Z</time>
      </trkpt>
      <trkpt lat="43.67058" lon="5.85119">
        <ele>467</ele>
        <time>2016-02-20T10:04:12.937Z</time>
      </trkpt>
      <trkpt lat="43.67057" lon="5.85122">
        <ele>468</ele>
        <time>2016-02-20T10:04:13.859Z</time>
      </trkpt>
      <trkpt lat="43.67053" lon="5.85132">
        <ele>467</ele>
        <time>2016-02-20T10:04:15.937Z</time>
      </trkpt>
      <trkpt lat="43.67051" lon="5.85138">
        <ele>467</ele>
        <time>2016-02-20T10:04:16.889Z</time>
      </trkpt>
      <trkpt lat="43.6705" lon="5.85144">
        <ele>466</ele>
        <time>2016-02-20T10:04:17.932Z</time>
      </trkpt>
      <trkpt lat="43.67048" lon="5.85151">
        <ele>465</ele>
        <time>2016-02-20T10:04:18.889Z</time>
      </trkpt>
      <trkpt lat="43.67046" lon="5.8516">
        <ele>466</ele>
        <time>2016-02-20T10:04:19.878Z</time>
      </trkpt>
      <trkpt lat="43.67044" lon="5.85168">
        <ele>465</ele>
        <time>2016-02-20T10:04:20.894Z</time>
      </trkpt>
      <trkpt lat="43.67042" lon="5.85177">
        <ele>465</ele>
        <time>2016-02-20T10:04:21.944Z</time>
      </trkpt>
      <trkpt lat="43.67041" lon="5.85185">
        <ele>465</ele>
        <time>2016-02-20T10:04:22.885Z</time>
      </trkpt>
      <trkpt lat="43.67038" lon="5.85194">
        <ele>464</ele>
        <time>2016-02-20T10:04:23.939Z</time>
      </trkpt>
      <trkpt lat="43.67035" lon="5.85203">
        <ele>463</ele>
        <time>2016-02-20T10:04:24.888Z</time>
      </trkpt>
      <trkpt lat="43.67031" lon="5.8521">
        <ele>463</ele>
        <time>2016-02-20T10:04:26.000Z</time>
      </trkpt>
      <trkpt lat="43.67026" lon="5.85217">
        <ele>461</ele>
        <time>2016-02-20T10:04:26.881Z</time>
      </trkpt>
      <trkpt lat="43.67021" lon="5.85225">
        <ele>459</ele>
        <time>2016-02-20T10:04:27.949Z</time>
      </trkpt>
      <trkpt lat="43.67015" lon="5.85233">
        <ele>458</ele>
        <time>2016-02-20T10:04:28.886Z</time>
      </trkpt>
      <trkpt lat="43.6701" lon="5.85241">
        <ele>457</ele>
        <time>2016-02-20T10:04:29.938Z</time>
      </trkpt>
      <trkpt lat="43.67006" lon="5.8525">
        <ele>456</ele>
        <time>2016-02-20T10:04:30.862Z</time>
      </trkpt>
      <trkpt lat="43.67002" lon="5.8526">
        <ele>456</ele>
        <time>2016-02-20T10:04:31.941Z</time>
      </trkpt>
      <trkpt lat="43.66997" lon="5.8527">
        <ele>454</ele>
        <time>2016-02-20T10:04:32.886Z</time>
      </trkpt>
      <trkpt lat="43.66993" lon="5.85279">
        <ele>454</ele>
        <time>2016-02-20T10:04:33.957Z</time>
      </trkpt>
      <trkpt lat="43.66988" lon="5.85287">
        <ele>453</ele>
        <time>2016-02-20T10:04:34.888Z</time>
      </trkpt>
      <trkpt lat="43.66984" lon="5.85296">
        <ele>452</ele>
        <time>2016-02-20T10:04:35.948Z</time>
      </trkpt>
      <trkpt lat="43.6698" lon="5.85306">
        <ele>452</ele>
        <time>2016-02-20T10:04:36.881Z</time>
      </trkpt>
      <trkpt lat="43.66976" lon="5.85317">
        <ele>451</ele>
        <time>2016-02-20T10:04:37.947Z</time>
      </trkpt>
      <trkpt lat="43.66973" lon="5.85327">
        <ele>451</ele>
        <time>2016-02-20T10:04:38.887Z</time>
      </trkpt>
      <trkpt lat="43.6697" lon="5.85338">
        <ele>450</ele>
        <time>2016-02-20T10:04:39.942Z</time>
      </trkpt>
      <trkpt lat="43.66966" lon="5.85351">
        <ele>450</ele>
        <time>2016-02-20T10:04:40.861Z</time>
      </trkpt>
      <trkpt lat="43.66964" lon="5.85362">
        <ele>449</ele>
        <time>2016-02-20T10:04:41.942Z</time>
      </trkpt>
      <trkpt lat="43.66961" lon="5.85374">
        <ele>448</ele>
        <time>2016-02-20T10:04:42.888Z</time>
      </trkpt>
      <trkpt lat="43.66959" lon="5.85384">
        <ele>448</ele>
        <time>2016-02-20T10:04:43.937Z</time>
      </trkpt>
      <trkpt lat="43.66958" lon="5.85393">
        <ele>447</ele>
        <time>2016-02-20T10:04:44.880Z</time>
      </trkpt>
      <trkpt lat="43.66959" lon="5.85403">
        <ele>447</ele>
        <time>2016-02-20T10:04:45.939Z</time>
      </trkpt>
      <trkpt lat="43.66961" lon="5.85412">
        <ele>447</ele>
        <time>2016-02-20T10:04:46.859Z</time>
      </trkpt>
      <trkpt lat="43.66962" lon="5.85421">
        <ele>447</ele>
        <time>2016-02-20T10:04:47.952Z</time>
      </trkpt>
      <trkpt lat="43.66961" lon="5.8543">
        <ele>448</ele>
        <time>2016-02-20T10:04:48.892Z</time>
      </trkpt>
      <trkpt lat="43.66959" lon="5.85437">
        <ele>448</ele>
        <time>2016-02-20T10:04:49.941Z</time>
      </trkpt>
      <trkpt lat="43.66957" lon="5.85445">
        <ele>448</ele>
        <time>2016-02-20T10:04:50.888Z</time>
      </trkpt>
      <trkpt lat="43.66955" lon="5.85452">
        <ele>448</ele>
        <time>2016-02-20T10:04:51.883Z</time>
      </trkpt>
      <trkpt lat="43.66954" lon="5.8546">
        <ele>449</ele>
        <time>2016-02-20T10:04:52.890Z</time>
      </trkpt>
      <trkpt lat="43.66953" lon="5.85468">
        <ele>449</ele>
        <time>2016-02-20T10:04:53.941Z</time>
      </trkpt>
      <trkpt lat="43.66951" lon="5.85474">
        <ele>449</ele>
        <time>2016-02-20T10:04:54.893Z</time>
      </trkpt>
      <trkpt lat="43.6695" lon="5.85481">
        <ele>449</ele>
        <time>2016-02-20T10:04:55.947Z</time>
      </trkpt>
      <trkpt lat="43.66949" lon="5.85488">
        <ele>449</ele>
        <time>2016-02-20T10:04:56.886Z</time>
      </trkpt>
      <trkpt lat="43.66946" lon="5.85497">
        <ele>448</ele>
        <time>2016-02-20T10:04:58.974Z</time>
      </trkpt>
      <trkpt lat="43.66945" lon="5.855">
        <ele>448</ele>
        <time>2016-02-20T10:04:59.887Z</time>
      </trkpt>
      <trkpt lat="43.66942" lon="5.8551">
        <ele>448</ele>
        <time>2016-02-20T10:05:04.557Z</time>
      </trkpt>
      <trkpt lat="43.66941" lon="5.85513">
        <ele>448</ele>
        <time>2016-02-20T10:05:04.859Z</time>
      </trkpt>
      <trkpt lat="43.66938" lon="5.85524">
        <ele>449</ele>
        <time>2016-02-20T10:05:08.934Z</time>
      </trkpt>
      <trkpt lat="43.66937" lon="5.85526">
        <ele>449</ele>
        <time>2016-02-20T10:05:09.889Z</time>
      </trkpt>
      <trkpt lat="43.66935" lon="5.85536">
        <ele>450</ele>
        <time>2016-02-20T10:05:13.946Z</time>
      </trkpt>
      <trkpt lat="43.66934" lon="5.85539">
        <ele>450</ele>
        <time>2016-02-20T10:05:14.887Z</time>
      </trkpt>
      <trkpt lat="43.66931" lon="5.8555">
        <ele>450</ele>
        <time>2016-02-20T10:05:19.934Z</time>
      </trkpt>
      <trkpt lat="43.6693" lon="5.85552">
        <ele>451</ele>
        <time>2016-02-20T10:05:20.880Z</time>
      </trkpt>
      <trkpt lat="43.66927" lon="5.85562">
        <ele>454</ele>
        <time>2016-02-20T10:05:26.939Z</time>
      </trkpt>
      <trkpt lat="43.66926" lon="5.85564">
        <ele>454</ele>
        <time>2016-02-20T10:05:27.890Z</time>
      </trkpt>
      <trkpt lat="43.66919" lon="5.85572">
        <ele>457</ele>
        <time>2016-02-20T10:05:34.940Z</time>
      </trkpt>
      <trkpt lat="43.66918" lon="5.85572">
        <ele>457</ele>
        <time>2016-02-20T10:05:35.890Z</time>
      </trkpt>
      <trkpt lat="43.6691" lon="5.85574">
        <ele>459</ele>
        <time>2016-02-20T10:05:41.880Z</time>
      </trkpt>
      <trkpt lat="43.66908" lon="5.85574">
        <ele>459</ele>
        <time>2016-02-20T10:05:42.887Z</time>
      </trkpt>
      <trkpt lat="43.66901" lon="5.85577">
        <ele>459</ele>
        <time>2016-02-20T10:05:47.994Z</time>
      </trkpt>
      <trkpt lat="43.66899" lon="5.85578">
        <ele>458</ele>
        <time>2016-02-20T10:05:48.887Z</time>
      </trkpt>
      <trkpt lat="43.66891" lon="5.85581">
        <ele>460</ele>
        <time>2016-02-20T10:05:54.928Z</time>
      </trkpt>
      <trkpt lat="43.6689" lon="5.85581">
        <ele>460</ele>
        <time>2016-02-20T10:05:55.887Z</time>
      </trkpt>
      <trkpt lat="43.66881" lon="5.85583">
        <ele>460</ele>
        <time>2016-02-20T10:06:01.937Z</time>
      </trkpt>
      <trkpt lat="43.6688" lon="5.85584">
        <ele>459</ele>
        <time>2016-02-20T10:06:02.879Z</time>
      </trkpt>
      <trkpt lat="43.66872" lon="5.85585">
        <ele>457</ele>
        <time>2016-02-20T10:06:07.880Z</time>
      </trkpt>
      <trkpt lat="43.6687" lon="5.85585">
        <ele>458</ele>
        <time>2016-02-20T10:06:08.891Z</time>
      </trkpt>
      <trkpt lat="43.66862" lon="5.85585">
        <ele>457</ele>
        <time>2016-02-20T10:06:12.944Z</time>
      </trkpt>
      <trkpt lat="43.6686" lon="5.85585">
        <ele>457</ele>
        <time>2016-02-20T10:06:13.887Z</time>
      </trkpt>
      <trkpt lat="43.66853" lon="5.85585">
        <ele>458</ele>
        <time>2016-02-20T10:06:17.934Z</time>
      </trkpt>
      <trkpt lat="43.66851" lon="5.85585">
        <ele>457</ele>
        <time>2016-02-20T10:06:18.887Z</time>
      </trkpt>
      <trkpt lat="43.66844" lon="5.85583">
        <ele>459</ele>
        <time>2016-02-20T10:06:22.946Z</time>
      </trkpt>
      <trkpt lat="43.66841" lon="5.85582">
        <ele>458</ele>
        <time>2016-02-20T10:06:23.888Z</time>
      </trkpt>
      <trkpt lat="43.66834" lon="5.8558">
        <ele>458</ele>
        <time>2016-02-20T10:06:25.939Z</time>
      </trkpt>
      <trkpt lat="43.66831" lon="5.85579">
        <ele>458</ele>
        <time>2016-02-20T10:06:26.882Z</time>
      </trkpt>
      <trkpt lat="43.66823" lon="5.85575">
        <ele>458</ele>
        <time>2016-02-20T10:06:29.943Z</time>
      </trkpt>
      <trkpt lat="43.6682" lon="5.85575">
        <ele>457</ele>
        <time>2016-02-20T10:06:30.891Z</time>
      </trkpt>
      <trkpt lat="43.66813" lon="5.85572">
        <ele>457</ele>
        <time>2016-02-20T10:06:33.953Z</time>
      </trkpt>
      <trkpt lat="43.66811" lon="5.85571">
        <ele>457</ele>
        <time>2016-02-20T10:06:34.883Z</time>
      </trkpt>
      <trkpt lat="43.66803" lon="5.8557">
        <ele>456</ele>
        <time>2016-02-20T10:06:37.939Z</time>
      </trkpt>
      <trkpt lat="43.66801" lon="5.85569">
        <ele>455</ele>
        <time>2016-02-20T10:06:38.897Z</time>
      </trkpt>
      <trkpt lat="43.66794" lon="5.85568">
        <ele>455</ele>
        <time>2016-02-20T10:06:40.929Z</time>
      </trkpt>
      <trkpt lat="43.66791" lon="5.85567">
        <ele>455</ele>
        <time>2016-02-20T10:06:41.886Z</time>
      </trkpt>
      <trkpt lat="43.66784" lon="5.85566">
        <ele>455</ele>
        <time>2016-02-20T10:06:43.881Z</time>
      </trkpt>
      <trkpt lat="43.66781" lon="5.85566">
        <ele>456</ele>
        <time>2016-02-20T10:06:44.887Z</time>
      </trkpt>
      <trkpt lat="43.66774" lon="5.85564">
        <ele>454</ele>
        <time>2016-02-20T10:06:46.942Z</time>
      </trkpt>
      <trkpt lat="43.6677" lon="5.85563">
        <ele>456</ele>
        <time>2016-02-20T10:06:47.891Z</time>
      </trkpt>
      <trkpt lat="43.66762" lon="5.85561">
        <ele>456</ele>
        <time>2016-02-20T10:06:49.948Z</time>
      </trkpt>
      <trkpt lat="43.66758" lon="5.85561">
        <ele>455</ele>
        <time>2016-02-20T10:06:50.896Z</time>
      </trkpt>
      <trkpt lat="43.66749" lon="5.85561">
        <ele>456</ele>
        <time>2016-02-20T10:06:52.953Z</time>
      </trkpt>
      <trkpt lat="43.66745" lon="5.85562">
        <ele>455</ele>
        <time>2016-02-20T10:06:53.885Z</time>
      </trkpt>
      <trkpt lat="43.66737" lon="5.85563">
        <ele>455</ele>
        <time>2016-02-20T10:06:55.942Z</time>
      </trkpt>
      <trkpt lat="43.66733" lon="5.85564">
        <ele>455</ele>
        <time>2016-02-20T10:06:56.889Z</time>
      </trkpt>
      <trkpt lat="43.66725" lon="5.85565">
        <ele>453</ele>
        <time>2016-02-20T10:06:58.887Z</time>
      </trkpt>
      <trkpt lat="43.66721" lon="5.85567">
        <ele>454</ele>
        <time>2016-02-20T10:06:59.879Z</time>
      </trkpt>
      <trkpt lat="43.66714" lon="5.85572">
        <ele>453</ele>
        <time>2016-02-20T10:07:01.931Z</time>
      </trkpt>
      <trkpt lat="43.66711" lon="5.85576">
        <ele>455</ele>
        <time>2016-02-20T10:07:02.878Z</time>
      </trkpt>
      <trkpt lat="43.66706" lon="5.85585">
        <ele>457</ele>
        <time>2016-02-20T10:07:05.940Z</time>
      </trkpt>
      <trkpt lat="43.66705" lon="5.85588">
        <ele>457</ele>
        <time>2016-02-20T10:07:06.889Z</time>
      </trkpt>
      <trkpt lat="43.667" lon="5.85598">
        <ele>457</ele>
        <time>2016-02-20T10:07:10.931Z</time>
      </trkpt>
      <trkpt lat="43.66699" lon="5.85601">
        <ele>457</ele>
        <time>2016-02-20T10:07:11.885Z</time>
      </trkpt>
      <trkpt lat="43.66695" lon="5.85609">
        <ele>457</ele>
        <time>2016-02-20T10:07:14.934Z</time>
      </trkpt>
      <trkpt lat="43.66694" lon="5.85613">
        <ele>456</ele>
        <time>2016-02-20T10:07:15.892Z</time>
      </trkpt>
      <trkpt lat="43.6669" lon="5.85622">
        <ele>458</ele>
        <time>2016-02-20T10:07:18.944Z</time>
      </trkpt>
      <trkpt lat="43.66689" lon="5.85624">
        <ele>457</ele>
        <time>2016-02-20T10:07:19.899Z</time>
      </trkpt>
      <trkpt lat="43.66685" lon="5.85634">
        <ele>459</ele>
        <time>2016-02-20T10:07:23.934Z</time>
      </trkpt>
      <trkpt lat="43.66683" lon="5.85636">
        <ele>458</ele>
        <time>2016-02-20T10:07:24.889Z</time>
      </trkpt>
      <trkpt lat="43.66676" lon="5.85643">
        <ele>457</ele>
        <time>2016-02-20T10:07:28.962Z</time>
      </trkpt>
      <trkpt lat="43.66675" lon="5.85644">
        <ele>458</ele>
        <time>2016-02-20T10:07:29.893Z</time>
      </trkpt>
      <trkpt lat="43.66666" lon="5.85649">
        <ele>460</ele>
        <time>2016-02-20T10:07:33.901Z</time>
      </trkpt>
      <trkpt lat="43.66665" lon="5.8565">
        <ele>461</ele>
        <time>2016-02-20T10:07:34.891Z</time>
      </trkpt>
      <trkpt lat="43.66657" lon="5.85654">
        <ele>462</ele>
        <time>2016-02-20T10:07:38.952Z</time>
      </trkpt>
      <trkpt lat="43.66656" lon="5.85655">
        <ele>462</ele>
        <time>2016-02-20T10:07:39.888Z</time>
      </trkpt>
      <trkpt lat="43.66648" lon="5.8566">
        <ele>460</ele>
        <time>2016-02-20T10:07:43.943Z</time>
      </trkpt>
      <trkpt lat="43.66646" lon="5.85661">
        <ele>459</ele>
        <time>2016-02-20T10:07:44.888Z</time>
      </trkpt>
      <trkpt lat="43.66639" lon="5.85665">
        <ele>459</ele>
        <time>2016-02-20T10:07:48.951Z</time>
      </trkpt>
      <trkpt lat="43.66637" lon="5.85666">
        <ele>458</ele>
        <time>2016-02-20T10:07:49.884Z</time>
      </trkpt>
      <trkpt lat="43.66631" lon="5.8567">
        <ele>458</ele>
        <time>2016-02-20T10:07:53.933Z</time>
      </trkpt>
      <trkpt lat="43.66629" lon="5.85672">
        <ele>458</ele>
        <time>2016-02-20T10:07:54.886Z</time>
      </trkpt>
      <trkpt lat="43.66621" lon="5.85676">
        <ele>458</ele>
        <time>2016-02-20T10:07:59.986Z</time>
      </trkpt>
      <trkpt lat="43.66619" lon="5.85677">
        <ele>459</ele>
        <time>2016-02-20T10:08:00.882Z</time>
      </trkpt>
      <trkpt lat="43.66611" lon="5.85682">
        <ele>459</ele>
        <time>2016-02-20T10:08:05.991Z</time>
      </trkpt>
      <trkpt lat="43.6661" lon="5.85683">
        <ele>459</ele>
        <time>2016-02-20T10:08:06.859Z</time>
      </trkpt>
      <trkpt lat="43.66603" lon="5.8569">
        <ele>460</ele>
        <time>2016-02-20T10:08:11.937Z</time>
      </trkpt>
      <trkpt lat="43.66601" lon="5.85692">
        <ele>460</ele>
        <time>2016-02-20T10:08:12.885Z</time>
      </trkpt>
      <trkpt lat="43.66594" lon="5.85697">
        <ele>460</ele>
        <time>2016-02-20T10:08:17.937Z</time>
      </trkpt>
      <trkpt lat="43.66592" lon="5.85698">
        <ele>461</ele>
        <time>2016-02-20T10:08:18.887Z</time>
      </trkpt>
      <trkpt lat="43.66585" lon="5.85706">
        <ele>462</ele>
        <time>2016-02-20T10:08:30.934Z</time>
      </trkpt>
      <trkpt lat="43.66584" lon="5.85707">
        <ele>462</ele>
        <time>2016-02-20T10:08:31.888Z</time>
      </trkpt>
      <trkpt lat="43.66576" lon="5.85709">
        <ele>464</ele>
        <time>2016-02-20T10:08:40.966Z</time>
      </trkpt>
      <trkpt lat="43.66576" lon="5.85709">
        <ele>464</ele>
        <time>2016-02-20T10:08:41.892Z</time>
      </trkpt>
      <trkpt lat="43.66568" lon="5.85704">
        <ele>466</ele>
        <time>2016-02-20T10:08:54.942Z</time>
      </trkpt>
      <trkpt lat="43.66567" lon="5.85703">
        <ele>466</ele>
        <time>2016-02-20T10:08:55.887Z</time>
      </trkpt>
      <trkpt lat="43.66563" lon="5.85696">
        <ele>467</ele>
        <time>2016-02-20T10:09:38.943Z</time>
      </trkpt>
      <trkpt lat="43.6656" lon="5.85694">
        <ele>467</ele>
        <time>2016-02-20T10:09:39.890Z</time>
      </trkpt>
      <trkpt lat="43.66552" lon="5.85692">
        <ele>466</ele>
        <time>2016-02-20T10:09:41.944Z</time>
      </trkpt>
      <trkpt lat="43.66547" lon="5.85691">
        <ele>466</ele>
        <time>2016-02-20T10:09:42.891Z</time>
      </trkpt>
      <trkpt lat="43.6654" lon="5.8569">
        <ele>465</ele>
        <time>2016-02-20T10:09:43.950Z</time>
      </trkpt>
      <trkpt lat="43.66533" lon="5.8569">
        <ele>464</ele>
        <time>2016-02-20T10:09:44.888Z</time>
      </trkpt>
      <trkpt lat="43.66526" lon="5.85691">
        <ele>462</ele>
        <time>2016-02-20T10:09:45.941Z</time>
      </trkpt>
      <trkpt lat="43.66518" lon="5.85692">
        <ele>460</ele>
        <time>2016-02-20T10:09:46.888Z</time>
      </trkpt>
      <trkpt lat="43.66511" lon="5.85694">
        <ele>460</ele>
        <time>2016-02-20T10:09:47.940Z</time>
      </trkpt>
      <trkpt lat="43.66503" lon="5.85695">
        <ele>459</ele>
        <time>2016-02-20T10:09:48.905Z</time>
      </trkpt>
      <trkpt lat="43.66496" lon="5.85695">
        <ele>458</ele>
        <time>2016-02-20T10:09:49.950Z</time>
      </trkpt>
      <trkpt lat="43.6649" lon="5.85697">
        <ele>458</ele>
        <time>2016-02-20T10:09:50.890Z</time>
      </trkpt>
      <trkpt lat="43.66483" lon="5.85699">
        <ele>456</ele>
        <time>2016-02-20T10:09:51.968Z</time>
      </trkpt>
      <trkpt lat="43.66477" lon="5.85703">
        <ele>455</ele>
        <time>2016-02-20T10:09:52.896Z</time>
      </trkpt>
      <trkpt lat="43.66471" lon="5.85706">
        <ele>454</ele>
        <time>2016-02-20T10:09:53.945Z</time>
      </trkpt>
      <trkpt lat="43.66465" lon="5.85712">
        <ele>453</ele>
        <time>2016-02-20T10:09:54.891Z</time>
      </trkpt>
      <trkpt lat="43.66461" lon="5.85717">
        <ele>452</ele>
        <time>2016-02-20T10:09:55.940Z</time>
      </trkpt>
      <trkpt lat="43.66458" lon="5.85724">
        <ele>452</ele>
        <time>2016-02-20T10:09:56.888Z</time>
      </trkpt>
      <trkpt lat="43.66452" lon="5.85731">
        <ele>450</ele>
        <time>2016-02-20T10:09:58.943Z</time>
      </trkpt>
      <trkpt lat="43.6645" lon="5.85736">
        <ele>449</ele>
        <time>2016-02-20T10:09:59.889Z</time>
      </trkpt>
      <trkpt lat="43.66449" lon="5.85743">
        <ele>449</ele>
        <time>2016-02-20T10:10:00.960Z</time>
      </trkpt>
      <trkpt lat="43.66447" lon="5.85748">
        <ele>449</ele>
        <time>2016-02-20T10:10:01.884Z</time>
      </trkpt>
      <trkpt lat="43.66441" lon="5.85754">
        <ele>447</ele>
        <time>2016-02-20T10:10:04.982Z</time>
      </trkpt>
      <trkpt lat="43.66437" lon="5.85754">
        <ele>446</ele>
        <time>2016-02-20T10:10:05.881Z</time>
      </trkpt>
      <trkpt lat="43.66428" lon="5.85758">
        <ele>445</ele>
        <time>2016-02-20T10:10:08.943Z</time>
      </trkpt>
      <trkpt lat="43.66426" lon="5.85758">
        <ele>443</ele>
        <time>2016-02-20T10:10:09.879Z</time>
      </trkpt>
      <trkpt lat="43.6642" lon="5.85756">
        <ele>441</ele>
        <time>2016-02-20T10:10:11.941Z</time>
      </trkpt>
      <trkpt lat="43.66417" lon="5.85755">
        <ele>440</ele>
        <time>2016-02-20T10:10:12.888Z</time>
      </trkpt>
      <trkpt lat="43.66409" lon="5.85759">
        <ele>439</ele>
        <time>2016-02-20T10:10:20.944Z</time>
      </trkpt>
      <trkpt lat="43.66408" lon="5.85759">
        <ele>439</ele>
        <time>2016-02-20T10:10:21.885Z</time>
      </trkpt>
      <trkpt lat="43.66401" lon="5.85758">
        <ele>438</ele>
        <time>2016-02-20T10:10:28.970Z</time>
      </trkpt>
      <trkpt lat="43.66396" lon="5.85759">
        <ele>437</ele>
        <time>2016-02-20T10:10:29.890Z</time>
      </trkpt>
      <trkpt lat="43.66389" lon="5.85761">
        <ele>436</ele>
        <time>2016-02-20T10:10:31.976Z</time>
      </trkpt>
      <trkpt lat="43.66386" lon="5.85762">
        <ele>436</ele>
        <time>2016-02-20T10:10:32.886Z</time>
      </trkpt>
      <trkpt lat="43.66378" lon="5.85768">
        <ele>435</ele>
        <time>2016-02-20T10:10:35.955Z</time>
      </trkpt>
      <trkpt lat="43.66376" lon="5.8577">
        <ele>435</ele>
        <time>2016-02-20T10:10:36.905Z</time>
      </trkpt>
      <trkpt lat="43.66371" lon="5.85774">
        <ele>434</ele>
        <time>2016-02-20T10:10:38.898Z</time>
      </trkpt>
      <trkpt lat="43.66368" lon="5.85776">
        <ele>435</ele>
        <time>2016-02-20T10:10:39.886Z</time>
      </trkpt>
      <trkpt lat="43.66359" lon="5.85779">
        <ele>434</ele>
        <time>2016-02-20T10:10:41.951Z</time>
      </trkpt>
      <trkpt lat="43.66355" lon="5.85779">
        <ele>433</ele>
        <time>2016-02-20T10:10:42.881Z</time>
      </trkpt>
      <trkpt lat="43.66349" lon="5.85778">
        <ele>433</ele>
        <time>2016-02-20T10:10:44.960Z</time>
      </trkpt>
      <trkpt lat="43.66345" lon="5.8578">
        <ele>433</ele>
        <time>2016-02-20T10:10:45.867Z</time>
      </trkpt>
      <trkpt lat="43.6634" lon="5.85786">
        <ele>432</ele>
        <time>2016-02-20T10:10:47.972Z</time>
      </trkpt>
      <trkpt lat="43.66337" lon="5.8579">
        <ele>432</ele>
        <time>2016-02-20T10:10:48.881Z</time>
      </trkpt>
      <trkpt lat="43.6633" lon="5.85797">
        <ele>431</ele>
        <time>2016-02-20T10:10:50.966Z</time>
      </trkpt>
      <trkpt lat="43.66324" lon="5.85803">
        <ele>431</ele>
        <time>2016-02-20T10:10:51.898Z</time>
      </trkpt>
      <trkpt lat="43.66317" lon="5.85806">
        <ele>430</ele>
        <time>2016-02-20T10:10:54.958Z</time>
      </trkpt>
      <trkpt lat="43.66315" lon="5.85806">
        <ele>429</ele>
        <time>2016-02-20T10:10:55.888Z</time>
      </trkpt>
      <trkpt lat="43.66309" lon="5.85801">
        <ele>428</ele>
        <time>2016-02-20T10:10:57.964Z</time>
      </trkpt>
      <trkpt lat="43.66304" lon="5.858">
        <ele>427</ele>
        <time>2016-02-20T10:10:58.887Z</time>
      </trkpt>
      <trkpt lat="43.66298" lon="5.85799">
        <ele>427</ele>
        <time>2016-02-20T10:10:59.969Z</time>
      </trkpt>
      <trkpt lat="43.66293" lon="5.85796">
        <ele>426</ele>
        <time>2016-02-20T10:11:00.895Z</time>
      </trkpt>
      <trkpt lat="43.66285" lon="5.85794">
        <ele>426</ele>
        <time>2016-02-20T10:11:02.890Z</time>
      </trkpt>
      <trkpt lat="43.66282" lon="5.85794">
        <ele>425</ele>
        <time>2016-02-20T10:11:03.889Z</time>
      </trkpt>
      <trkpt lat="43.66277" lon="5.85797">
        <ele>423</ele>
        <time>2016-02-20T10:11:05.967Z</time>
      </trkpt>
      <trkpt lat="43.66273" lon="5.85801">
        <ele>422</ele>
        <time>2016-02-20T10:11:06.890Z</time>
      </trkpt>
      <trkpt lat="43.66269" lon="5.85804">
        <ele>422</ele>
        <time>2016-02-20T10:11:07.957Z</time>
      </trkpt>
      <trkpt lat="43.66264" lon="5.85806">
        <ele>421</ele>
        <time>2016-02-20T10:11:08.881Z</time>
      </trkpt>
      <trkpt lat="43.66258" lon="5.85809">
        <ele>420</ele>
        <time>2016-02-20T10:11:09.993Z</time>
      </trkpt>
      <trkpt lat="43.66253" lon="5.85811">
        <ele>419</ele>
        <time>2016-02-20T10:11:10.886Z</time>
      </trkpt>
      <trkpt lat="43.66249" lon="5.85809">
        <ele>419</ele>
        <time>2016-02-20T10:11:11.966Z</time>
      </trkpt>
      <trkpt lat="43.66245" lon="5.85804">
        <ele>418</ele>
        <time>2016-02-20T10:11:12.888Z</time>
      </trkpt>
      <trkpt lat="43.66242" lon="5.85799">
        <ele>418</ele>
        <time>2016-02-20T10:11:13.956Z</time>
      </trkpt>
      <trkpt lat="43.66238" lon="5.85795">
        <ele>418</ele>
        <time>2016-02-20T10:11:14.890Z</time>
      </trkpt>
      <trkpt lat="43.6623" lon="5.85794">
        <ele>417</ele>
        <time>2016-02-20T10:11:16.956Z</time>
      </trkpt>
      <trkpt lat="43.66225" lon="5.85796">
        <ele>417</ele>
        <time>2016-02-20T10:11:17.893Z</time>
      </trkpt>
      <trkpt lat="43.66216" lon="5.85799">
        <ele>416</ele>
        <time>2016-02-20T10:11:19.958Z</time>
      </trkpt>
      <trkpt lat="43.66213" lon="5.85799">
        <ele>415</ele>
        <time>2016-02-20T10:11:20.880Z</time>
      </trkpt>
      <trkpt lat="43.66205" lon="5.85798">
        <ele>415</ele>
        <time>2016-02-20T10:11:23.955Z</time>
      </trkpt>
      <trkpt lat="43.66202" lon="5.858">
        <ele>415</ele>
        <time>2016-02-20T10:11:24.889Z</time>
      </trkpt>
      <trkpt lat="43.66194" lon="5.85806">
        <ele>417</ele>
        <time>2016-02-20T10:11:27.955Z</time>
      </trkpt>
      <trkpt lat="43.66191" lon="5.85807">
        <ele>416</ele>
        <time>2016-02-20T10:11:28.888Z</time>
      </trkpt>
      <trkpt lat="43.66185" lon="5.85811">
        <ele>415</ele>
        <time>2016-02-20T10:11:30.948Z</time>
      </trkpt>
      <trkpt lat="43.66183" lon="5.85813">
        <ele>415</ele>
        <time>2016-02-20T10:11:31.887Z</time>
      </trkpt>
      <trkpt lat="43.66178" lon="5.8582">
        <ele>415</ele>
        <time>2016-02-20T10:11:34.136Z</time>
      </trkpt>
      <trkpt lat="43.66176" lon="5.85823">
        <ele>415</ele>
        <time>2016-02-20T10:11:34.880Z</time>
      </trkpt>
      <trkpt lat="43.66172" lon="5.85831">
        <ele>415</ele>
        <time>2016-02-20T10:11:37.034Z</time>
      </trkpt>
      <trkpt lat="43.66169" lon="5.85834">
        <ele>415</ele>
        <time>2016-02-20T10:11:37.861Z</time>
      </trkpt>
      <trkpt lat="43.66165" lon="5.85841">
        <ele>415</ele>
        <time>2016-02-20T10:11:39.956Z</time>
      </trkpt>
      <trkpt lat="43.66162" lon="5.85844">
        <ele>416</ele>
        <time>2016-02-20T10:11:40.886Z</time>
      </trkpt>
      <trkpt lat="43.66156" lon="5.85848">
        <ele>415</ele>
        <time>2016-02-20T10:11:43.988Z</time>
      </trkpt>
      <trkpt lat="43.66153" lon="5.85849">
        <ele>414</ele>
        <time>2016-02-20T10:11:44.897Z</time>
      </trkpt>
      <trkpt lat="43.66148" lon="5.8585">
        <ele>414</ele>
        <time>2016-02-20T10:11:46.956Z</time>
      </trkpt>
      <trkpt lat="43.66144" lon="5.85851">
        <ele>414</ele>
        <time>2016-02-20T10:11:47.885Z</time>
      </trkpt>
      <trkpt lat="43.66138" lon="5.85853">
        <ele>414</ele>
        <time>2016-02-20T10:11:49.961Z</time>
      </trkpt>
      <trkpt lat="43.66135" lon="5.85855">
        <ele>414</ele>
        <time>2016-02-20T10:11:50.896Z</time>
      </trkpt>
      <trkpt lat="43.66129" lon="5.85859">
        <ele>414</ele>
        <time>2016-02-20T10:11:52.975Z</time>
      </trkpt>
      <trkpt lat="43.66127" lon="5.85861">
        <ele>414</ele>
        <time>2016-02-20T10:11:53.881Z</time>
      </trkpt>
      <trkpt lat="43.66121" lon="5.85865">
        <ele>414</ele>
        <time>2016-02-20T10:11:55.957Z</time>
      </trkpt>
      <trkpt lat="43.66118" lon="5.85867">
        <ele>414</ele>
        <time>2016-02-20T10:11:56.893Z</time>
      </trkpt>
      <trkpt lat="43.66112" lon="5.85868">
        <ele>414</ele>
        <time>2016-02-20T10:11:58.989Z</time>
      </trkpt>
      <trkpt lat="43.66109" lon="5.85868">
        <ele>414</ele>
        <time>2016-02-20T10:11:59.883Z</time>
      </trkpt>
      <trkpt lat="43.66101" lon="5.85868">
        <ele>414</ele>
        <time>2016-02-20T10:12:01.905Z</time>
      </trkpt>
      <trkpt lat="43.66098" lon="5.85869">
        <ele>414</ele>
        <time>2016-02-20T10:12:02.895Z</time>
      </trkpt>
      <trkpt lat="43.66092" lon="5.85871">
        <ele>414</ele>
        <time>2016-02-20T10:12:04.953Z</time>
      </trkpt>
      <trkpt lat="43.66089" lon="5.85873">
        <ele>413</ele>
        <time>2016-02-20T10:12:05.887Z</time>
      </trkpt>
      <trkpt lat="43.66083" lon="5.85875">
        <ele>413</ele>
        <time>2016-02-20T10:12:07.951Z</time>
      </trkpt>
      <trkpt lat="43.6608" lon="5.85876">
        <ele>413</ele>
        <time>2016-02-20T10:12:08.893Z</time>
      </trkpt>
      <trkpt lat="43.66074" lon="5.85878">
        <ele>413</ele>
        <time>2016-02-20T10:12:10.945Z</time>
      </trkpt>
      <trkpt lat="43.66071" lon="5.8588">
        <ele>413</ele>
        <time>2016-02-20T10:12:11.890Z</time>
      </trkpt>
      <trkpt lat="43.66065" lon="5.85884">
        <ele>413</ele>
        <time>2016-02-20T10:12:13.935Z</time>
      </trkpt>
      <trkpt lat="43.66062" lon="5.85885">
        <ele>413</ele>
        <time>2016-02-20T10:12:14.882Z</time>
      </trkpt>
      <trkpt lat="43.66055" lon="5.85888">
        <ele>413</ele>
        <time>2016-02-20T10:12:16.954Z</time>
      </trkpt>
      <trkpt lat="43.66052" lon="5.8589">
        <ele>414</ele>
        <time>2016-02-20T10:12:17.890Z</time>
      </trkpt>
      <trkpt lat="43.66045" lon="5.85893">
        <ele>413</ele>
        <time>2016-02-20T10:12:19.955Z</time>
      </trkpt>
      <trkpt lat="43.66041" lon="5.85895">
        <ele>413</ele>
        <time>2016-02-20T10:12:20.889Z</time>
      </trkpt>
      <trkpt lat="43.66035" lon="5.85898">
        <ele>414</ele>
        <time>2016-02-20T10:12:22.961Z</time>
      </trkpt>
      <trkpt lat="43.66032" lon="5.85901">
        <ele>413</ele>
        <time>2016-02-20T10:12:23.900Z</time>
      </trkpt>
      <trkpt lat="43.66025" lon="5.85905">
        <ele>413</ele>
        <time>2016-02-20T10:12:26.957Z</time>
      </trkpt>
      <trkpt lat="43.66022" lon="5.85907">
        <ele>413</ele>
        <time>2016-02-20T10:12:27.890Z</time>
      </trkpt>
      <trkpt lat="43.66016" lon="5.8591">
        <ele>414</ele>
        <time>2016-02-20T10:12:29.961Z</time>
      </trkpt>
      <trkpt lat="43.66013" lon="5.85912">
        <ele>414</ele>
        <time>2016-02-20T10:12:30.888Z</time>
      </trkpt>
      <trkpt lat="43.66006" lon="5.85918">
        <ele>413</ele>
        <time>2016-02-20T10:12:32.954Z</time>
      </trkpt>
      <trkpt lat="43.66003" lon="5.85922">
        <ele>414</ele>
        <time>2016-02-20T10:12:33.898Z</time>
      </trkpt>
      <trkpt lat="43.65999" lon="5.85929">
        <ele>414</ele>
        <time>2016-02-20T10:12:35.977Z</time>
      </trkpt>
      <trkpt lat="43.65996" lon="5.85933">
        <ele>413</ele>
        <time>2016-02-20T10:12:36.902Z</time>
      </trkpt>
      <trkpt lat="43.65991" lon="5.8594">
        <ele>413</ele>
        <time>2016-02-20T10:12:38.955Z</time>
      </trkpt>
      <trkpt lat="43.6599" lon="5.85944">
        <ele>412</ele>
        <time>2016-02-20T10:12:39.888Z</time>
      </trkpt>
      <trkpt lat="43.65986" lon="5.85953">
        <ele>413</ele>
        <time>2016-02-20T10:12:42.978Z</time>
      </trkpt>
      <trkpt lat="43.65985" lon="5.85955">
        <ele>413</ele>
        <time>2016-02-20T10:12:43.886Z</time>
      </trkpt>
      <trkpt lat="43.65979" lon="5.85962">
        <ele>413</ele>
        <time>2016-02-20T10:12:47.987Z</time>
      </trkpt>
      <trkpt lat="43.65977" lon="5.85964">
        <ele>413</ele>
        <time>2016-02-20T10:12:48.859Z</time>
      </trkpt>
      <trkpt lat="43.65969" lon="5.85963">
        <ele>412</ele>
        <time>2016-02-20T10:12:54.955Z</time>
      </trkpt>
      <trkpt lat="43.65967" lon="5.85959">
        <ele>411</ele>
        <time>2016-02-20T10:12:55.886Z</time>
      </trkpt>
      <trkpt lat="43.65962" lon="5.85953">
        <ele>412</ele>
        <time>2016-02-20T10:12:57.958Z</time>
      </trkpt>
      <trkpt lat="43.6596" lon="5.8595">
        <ele>411</ele>
        <time>2016-02-20T10:12:58.866Z</time>
      </trkpt>
      <trkpt lat="43.65955" lon="5.85942">
        <ele>410</ele>
        <time>2016-02-20T10:13:00.887Z</time>
      </trkpt>
      <trkpt lat="43.65952" lon="5.85938">
        <ele>410</ele>
        <time>2016-02-20T10:13:01.896Z</time>
      </trkpt>
      <trkpt lat="43.65949" lon="5.85933">
        <ele>410</ele>
        <time>2016-02-20T10:13:02.893Z</time>
      </trkpt>
      <trkpt lat="43.65947" lon="5.85926">
        <ele>409</ele>
        <time>2016-02-20T10:13:03.884Z</time>
      </trkpt>
      <trkpt lat="43.65943" lon="5.8592">
        <ele>409</ele>
        <time>2016-02-20T10:13:04.895Z</time>
      </trkpt>
      <trkpt lat="43.6594" lon="5.85916">
        <ele>409</ele>
        <time>2016-02-20T10:13:05.895Z</time>
      </trkpt>
      <trkpt lat="43.65937" lon="5.8591">
        <ele>409</ele>
        <time>2016-02-20T10:13:06.892Z</time>
      </trkpt>
      <trkpt lat="43.65933" lon="5.85906">
        <ele>409</ele>
        <time>2016-02-20T10:13:07.889Z</time>
      </trkpt>
      <trkpt lat="43.65929" lon="5.85901">
        <ele>408</ele>
        <time>2016-02-20T10:13:08.963Z</time>
      </trkpt>
      <trkpt lat="43.65924" lon="5.85897">
        <ele>408</ele>
        <time>2016-02-20T10:13:09.886Z</time>
      </trkpt>
      <trkpt lat="43.65921" lon="5.85891">
        <ele>408</ele>
        <time>2016-02-20T10:13:10.954Z</time>
      </trkpt>
      <trkpt lat="43.65918" lon="5.85885">
        <ele>408</ele>
        <time>2016-02-20T10:13:11.887Z</time>
      </trkpt>
      <trkpt lat="43.65914" lon="5.85878">
        <ele>408</ele>
        <time>2016-02-20T10:13:12.961Z</time>
      </trkpt>
      <trkpt lat="43.65911" lon="5.85872">
        <ele>407</ele>
        <time>2016-02-20T10:13:13.863Z</time>
      </trkpt>
      <trkpt lat="43.65908" lon="5.85866">
        <ele>408</ele>
        <time>2016-02-20T10:13:14.958Z</time>
      </trkpt>
      <trkpt lat="43.65905" lon="5.8586">
        <ele>408</ele>
        <time>2016-02-20T10:13:15.887Z</time>
      </trkpt>
      <trkpt lat="43.65902" lon="5.85855">
        <ele>407</ele>
        <time>2016-02-20T10:13:16.951Z</time>
      </trkpt>
      <trkpt lat="43.65898" lon="5.85848">
        <ele>408</ele>
        <time>2016-02-20T10:13:17.897Z</time>
      </trkpt>
      <trkpt lat="43.65894" lon="5.85842">
        <ele>407</ele>
        <time>2016-02-20T10:13:18.914Z</time>
      </trkpt>
      <trkpt lat="43.65892" lon="5.85836">
        <ele>407</ele>
        <time>2016-02-20T10:13:19.891Z</time>
      </trkpt>
      <trkpt lat="43.65884" lon="5.85833">
        <ele>405</ele>
        <time>2016-02-20T10:13:21.941Z</time>
      </trkpt>
      <trkpt lat="43.65881" lon="5.85836">
        <ele>407</ele>
        <time>2016-02-20T10:13:22.891Z</time>
      </trkpt>
      <trkpt lat="43.65876" lon="5.85841">
        <ele>407</ele>
        <time>2016-02-20T10:13:24.974Z</time>
      </trkpt>
      <trkpt lat="43.65873" lon="5.85846">
        <ele>406</ele>
        <time>2016-02-20T10:13:25.861Z</time>
      </trkpt>
      <trkpt lat="43.65868" lon="5.85855">
        <ele>404</ele>
        <time>2016-02-20T10:13:27.960Z</time>
      </trkpt>
      <trkpt lat="43.65865" lon="5.8586">
        <ele>404</ele>
        <time>2016-02-20T10:13:28.889Z</time>
      </trkpt>
      <trkpt lat="43.65859" lon="5.85868">
        <ele>404</ele>
        <time>2016-02-20T10:13:30.961Z</time>
      </trkpt>
      <trkpt lat="43.65856" lon="5.85871">
        <ele>405</ele>
        <time>2016-02-20T10:13:31.887Z</time>
      </trkpt>
      <trkpt lat="43.6585" lon="5.85878">
        <ele>403</ele>
        <time>2016-02-20T10:13:33.968Z</time>
      </trkpt>
      <trkpt lat="43.65848" lon="5.8588">
        <ele>403</ele>
        <time>2016-02-20T10:13:34.895Z</time>
      </trkpt>
      <trkpt lat="43.65841" lon="5.85887">
        <ele>401</ele>
        <time>2016-02-20T10:13:38.950Z</time>
      </trkpt>
      <trkpt lat="43.65839" lon="5.85889">
        <ele>401</ele>
        <time>2016-02-20T10:13:39.883Z</time>
      </trkpt>
      <trkpt lat="43.65833" lon="5.85897">
        <ele>401</ele>
        <time>2016-02-20T10:13:43.954Z</time>
      </trkpt>
      <trkpt lat="43.65831" lon="5.859">
        <ele>402</ele>
        <time>2016-02-20T10:13:44.886Z</time>
      </trkpt>
      <trkpt lat="43.65826" lon="5.85908">
        <ele>405</ele>
        <time>2016-02-20T10:13:48.894Z</time>
      </trkpt>
      <trkpt lat="43.65825" lon="5.8591">
        <ele>405</ele>
        <time>2016-02-20T10:13:49.885Z</time>
      </trkpt>
      <trkpt lat="43.6582" lon="5.85919">
        <ele>406</ele>
        <time>2016-02-20T10:13:53.959Z</time>
      </trkpt>
      <trkpt lat="43.65818" lon="5.85922">
        <ele>407</ele>
        <time>2016-02-20T10:13:54.885Z</time>
      </trkpt>
      <trkpt lat="43.65814" lon="5.85928">
        <ele>409</ele>
        <time>2016-02-20T10:13:56.964Z</time>
      </trkpt>
      <trkpt lat="43.65812" lon="5.85932">
        <ele>408</ele>
        <time>2016-02-20T10:13:57.882Z</time>
      </trkpt>
      <trkpt lat="43.65807" lon="5.85939">
        <ele>407</ele>
        <time>2016-02-20T10:13:59.949Z</time>
      </trkpt>
      <trkpt lat="43.65804" lon="5.85943">
        <ele>406</ele>
        <time>2016-02-20T10:14:00.885Z</time>
      </trkpt>
      <trkpt lat="43.65799" lon="5.85949">
        <ele>406</ele>
        <time>2016-02-20T10:14:02.958Z</time>
      </trkpt>
      <trkpt lat="43.65796" lon="5.85952">
        <ele>406</ele>
        <time>2016-02-20T10:14:03.895Z</time>
      </trkpt>
      <trkpt lat="43.65791" lon="5.85958">
        <ele>406</ele>
        <time>2016-02-20T10:14:05.955Z</time>
      </trkpt>
      <trkpt lat="43.65789" lon="5.8596">
        <ele>406</ele>
        <time>2016-02-20T10:14:06.887Z</time>
      </trkpt>
      <trkpt lat="43.65785" lon="5.85966">
        <ele>406</ele>
        <time>2016-02-20T10:14:08.958Z</time>
      </trkpt>
      <trkpt lat="43.65782" lon="5.85969">
        <ele>406</ele>
        <time>2016-02-20T10:14:09.870Z</time>
      </trkpt>
      <trkpt lat="43.65778" lon="5.85974">
        <ele>407</ele>
        <time>2016-02-20T10:14:11.951Z</time>
      </trkpt>
      <trkpt lat="43.65776" lon="5.85977">
        <ele>407</ele>
        <time>2016-02-20T10:14:12.886Z</time>
      </trkpt>
      <trkpt lat="43.65771" lon="5.85983">
        <ele>407</ele>
        <time>2016-02-20T10:14:14.948Z</time>
      </trkpt>
      <trkpt lat="43.65769" lon="5.85986">
        <ele>407</ele>
        <time>2016-02-20T10:14:15.898Z</time>
      </trkpt>
      <trkpt lat="43.65765" lon="5.85992">
        <ele>408</ele>
        <time>2016-02-20T10:14:17.958Z</time>
      </trkpt>
      <trkpt lat="43.65762" lon="5.85995">
        <ele>408</ele>
        <time>2016-02-20T10:14:18.888Z</time>
      </trkpt>
      <trkpt lat="43.65756" lon="5.86003">
        <ele>410</ele>
        <time>2016-02-20T10:14:21.974Z</time>
      </trkpt>
      <trkpt lat="43.65754" lon="5.86006">
        <ele>409</ele>
        <time>2016-02-20T10:14:22.893Z</time>
      </trkpt>
      <trkpt lat="43.65748" lon="5.86013">
        <ele>410</ele>
        <time>2016-02-20T10:14:25.950Z</time>
      </trkpt>
      <trkpt lat="43.65745" lon="5.86016">
        <ele>410</ele>
        <time>2016-02-20T10:14:26.887Z</time>
      </trkpt>
      <trkpt lat="43.65741" lon="5.86021">
        <ele>410</ele>
        <time>2016-02-20T10:14:28.969Z</time>
      </trkpt>
      <trkpt lat="43.65739" lon="5.86025">
        <ele>410</ele>
        <time>2016-02-20T10:14:29.886Z</time>
      </trkpt>
      <trkpt lat="43.65734" lon="5.8603">
        <ele>413</ele>
        <time>2016-02-20T10:14:31.989Z</time>
      </trkpt>
      <trkpt lat="43.65732" lon="5.86033">
        <ele>414</ele>
        <time>2016-02-20T10:14:32.896Z</time>
      </trkpt>
      <trkpt lat="43.65726" lon="5.86042">
        <ele>414</ele>
        <time>2016-02-20T10:14:35.958Z</time>
      </trkpt>
      <trkpt lat="43.65724" lon="5.86044">
        <ele>415</ele>
        <time>2016-02-20T10:14:36.861Z</time>
      </trkpt>
      <trkpt lat="43.65717" lon="5.86052">
        <ele>418</ele>
        <time>2016-02-20T10:14:40.989Z</time>
      </trkpt>
      <trkpt lat="43.65716" lon="5.86053">
        <ele>420</ele>
        <time>2016-02-20T10:14:41.886Z</time>
      </trkpt>
      <trkpt lat="43.6571" lon="5.86058">
        <ele>421</ele>
        <time>2016-02-20T10:14:44.950Z</time>
      </trkpt>
      <trkpt lat="43.65707" lon="5.8606">
        <ele>423</ele>
        <time>2016-02-20T10:14:45.881Z</time>
      </trkpt>
      <trkpt lat="43.657" lon="5.86064">
        <ele>421</ele>
        <time>2016-02-20T10:14:48.993Z</time>
      </trkpt>
      <trkpt lat="43.65698" lon="5.86066">
        <ele>420</ele>
        <time>2016-02-20T10:14:49.859Z</time>
      </trkpt>
      <trkpt lat="43.65691" lon="5.86074">
        <ele>417</ele>
        <time>2016-02-20T10:14:52.955Z</time>
      </trkpt>
      <trkpt lat="43.65689" lon="5.86077">
        <ele>417</ele>
        <time>2016-02-20T10:14:53.890Z</time>
      </trkpt>
      <trkpt lat="43.65684" lon="5.86086">
        <ele>415</ele>
        <time>2016-02-20T10:14:56.953Z</time>
      </trkpt>
      <trkpt lat="43.65683" lon="5.86088">
        <ele>415</ele>
        <time>2016-02-20T10:14:57.888Z</time>
      </trkpt>
      <trkpt lat="43.65677" lon="5.86096">
        <ele>414</ele>
        <time>2016-02-20T10:15:00.973Z</time>
      </trkpt>
      <trkpt lat="43.65675" lon="5.86099">
        <ele>413</ele>
        <time>2016-02-20T10:15:01.898Z</time>
      </trkpt>
      <trkpt lat="43.6567" lon="5.86106">
        <ele>413</ele>
        <time>2016-02-20T10:15:04.949Z</time>
      </trkpt>
      <trkpt lat="43.65668" lon="5.86109">
        <ele>413</ele>
        <time>2016-02-20T10:15:05.889Z</time>
      </trkpt>
      <trkpt lat="43.65662" lon="5.86118">
        <ele>413</ele>
        <time>2016-02-20T10:15:08.954Z</time>
      </trkpt>
      <trkpt lat="43.6566" lon="5.86121">
        <ele>414</ele>
        <time>2016-02-20T10:15:09.896Z</time>
      </trkpt>
      <trkpt lat="43.65655" lon="5.8613">
        <ele>413</ele>
        <time>2016-02-20T10:15:12.956Z</time>
      </trkpt>
      <trkpt lat="43.65653" lon="5.86132">
        <ele>412</ele>
        <time>2016-02-20T10:15:13.898Z</time>
      </trkpt>
      <trkpt lat="43.65647" lon="5.8614">
        <ele>412</ele>
        <time>2016-02-20T10:15:16.955Z</time>
      </trkpt>
      <trkpt lat="43.65644" lon="5.86142">
        <ele>412</ele>
        <time>2016-02-20T10:15:17.885Z</time>
      </trkpt>
      <trkpt lat="43.65637" lon="5.86147">
        <ele>413</ele>
        <time>2016-02-20T10:15:20.986Z</time>
      </trkpt>
      <trkpt lat="43.65635" lon="5.86149">
        <ele>412</ele>
        <time>2016-02-20T10:15:21.895Z</time>
      </trkpt>
      <trkpt lat="43.65627" lon="5.86154">
        <ele>413</ele>
        <time>2016-02-20T10:15:24.951Z</time>
      </trkpt>
      <trkpt lat="43.65625" lon="5.86156">
        <ele>415</ele>
        <time>2016-02-20T10:15:25.885Z</time>
      </trkpt>
      <trkpt lat="43.65618" lon="5.86162">
        <ele>413</ele>
        <time>2016-02-20T10:15:28.958Z</time>
      </trkpt>
      <trkpt lat="43.65615" lon="5.86165">
        <ele>412</ele>
        <time>2016-02-20T10:15:29.895Z</time>
      </trkpt>
      <trkpt lat="43.6561" lon="5.86172">
        <ele>412</ele>
        <time>2016-02-20T10:15:32.957Z</time>
      </trkpt>
      <trkpt lat="43.65607" lon="5.86175">
        <ele>413</ele>
        <time>2016-02-20T10:15:33.887Z</time>
      </trkpt>
      <trkpt lat="43.65601" lon="5.86182">
        <ele>414</ele>
        <time>2016-02-20T10:15:36.981Z</time>
      </trkpt>
      <trkpt lat="43.65599" lon="5.86185">
        <ele>415</ele>
        <time>2016-02-20T10:15:37.885Z</time>
      </trkpt>
      <trkpt lat="43.65594" lon="5.86192">
        <ele>416</ele>
        <time>2016-02-20T10:15:41.116Z</time>
      </trkpt>
      <trkpt lat="43.65593" lon="5.86194">
        <ele>417</ele>
        <time>2016-02-20T10:15:41.894Z</time>
      </trkpt>
      <trkpt lat="43.65588" lon="5.86201">
        <ele>418</ele>
        <time>2016-02-20T10:15:44.954Z</time>
      </trkpt>
      <trkpt lat="43.65586" lon="5.86203">
        <ele>417</ele>
        <time>2016-02-20T10:15:45.887Z</time>
      </trkpt>
      <trkpt lat="43.65578" lon="5.86209">
        <ele>417</ele>
        <time>2016-02-20T10:15:48.958Z</time>
      </trkpt>
      <trkpt lat="43.65576" lon="5.86212">
        <ele>417</ele>
        <time>2016-02-20T10:15:49.899Z</time>
      </trkpt>
      <trkpt lat="43.65572" lon="5.8622">
        <ele>416</ele>
        <time>2016-02-20T10:15:52.954Z</time>
      </trkpt>
      <trkpt lat="43.6557" lon="5.86222">
        <ele>416</ele>
        <time>2016-02-20T10:15:53.903Z</time>
      </trkpt>
      <trkpt lat="43.65562" lon="5.86228">
        <ele>414</ele>
        <time>2016-02-20T10:15:56.955Z</time>
      </trkpt>
      <trkpt lat="43.6556" lon="5.8623">
        <ele>414</ele>
        <time>2016-02-20T10:15:57.894Z</time>
      </trkpt>
      <trkpt lat="43.65553" lon="5.86237">
        <ele>415</ele>
        <time>2016-02-20T10:16:01.023Z</time>
      </trkpt>
      <trkpt lat="43.65551" lon="5.86239">
        <ele>417</ele>
        <time>2016-02-20T10:16:01.889Z</time>
      </trkpt>
      <trkpt lat="43.65544" lon="5.86244">
        <ele>415</ele>
        <time>2016-02-20T10:16:04.955Z</time>
      </trkpt>
      <trkpt lat="43.65542" lon="5.86247">
        <ele>417</ele>
        <time>2016-02-20T10:16:05.886Z</time>
      </trkpt>
      <trkpt lat="43.65537" lon="5.86253">
        <ele>418</ele>
        <time>2016-02-20T10:16:08.958Z</time>
      </trkpt>
      <trkpt lat="43.65535" lon="5.86254">
        <ele>419</ele>
        <time>2016-02-20T10:16:09.891Z</time>
      </trkpt>
      <trkpt lat="43.65529" lon="5.86262">
        <ele>419</ele>
        <time>2016-02-20T10:16:14.996Z</time>
      </trkpt>
      <trkpt lat="43.65528" lon="5.86263">
        <ele>418</ele>
        <time>2016-02-20T10:16:15.886Z</time>
      </trkpt>
      <trkpt lat="43.65521" lon="5.8627">
        <ele>417</ele>
        <time>2016-02-20T10:16:19.990Z</time>
      </trkpt>
      <trkpt lat="43.65519" lon="5.86271">
        <ele>418</ele>
        <time>2016-02-20T10:16:20.889Z</time>
      </trkpt>
      <trkpt lat="43.65511" lon="5.86274">
        <ele>416</ele>
        <time>2016-02-20T10:16:24.955Z</time>
      </trkpt>
      <trkpt lat="43.65509" lon="5.86275">
        <ele>416</ele>
        <time>2016-02-20T10:16:25.901Z</time>
      </trkpt>
      <trkpt lat="43.65501" lon="5.86276">
        <ele>422</ele>
        <time>2016-02-20T10:16:31.950Z</time>
      </trkpt>
      <trkpt lat="43.65499" lon="5.86276">
        <ele>422</ele>
        <time>2016-02-20T10:16:32.896Z</time>
      </trkpt>
      <trkpt lat="43.65491" lon="5.86275">
        <ele>420</ele>
        <time>2016-02-20T10:16:38.954Z</time>
      </trkpt>
      <trkpt lat="43.65489" lon="5.86275">
        <ele>420</ele>
        <time>2016-02-20T10:16:39.903Z</time>
      </trkpt>
      <trkpt lat="43.65481" lon="5.8627">
        <ele>423</ele>
        <time>2016-02-20T10:16:44.953Z</time>
      </trkpt>
      <trkpt lat="43.65479" lon="5.86269">
        <ele>423</ele>
        <time>2016-02-20T10:16:45.896Z</time>
      </trkpt>
      <trkpt lat="43.65472" lon="5.86265">
        <ele>423</ele>
        <time>2016-02-20T10:16:50.983Z</time>
      </trkpt>
      <trkpt lat="43.65471" lon="5.86264">
        <ele>423</ele>
        <time>2016-02-20T10:16:51.886Z</time>
      </trkpt>
      <trkpt lat="43.65463" lon="5.86261">
        <ele>422</ele>
        <time>2016-02-20T10:16:57.955Z</time>
      </trkpt>
      <trkpt lat="43.65461" lon="5.86261">
        <ele>422</ele>
        <time>2016-02-20T10:16:58.896Z</time>
      </trkpt>
      <trkpt lat="43.65453" lon="5.86259">
        <ele>421</ele>
        <time>2016-02-20T10:17:05.949Z</time>
      </trkpt>
      <trkpt lat="43.65451" lon="5.86258">
        <ele>422</ele>
        <time>2016-02-20T10:17:07.469Z</time>
      </trkpt>
      <trkpt lat="43.65443" lon="5.86256">
        <ele>422</ele>
        <time>2016-02-20T10:17:12.963Z</time>
      </trkpt>
      <trkpt lat="43.65442" lon="5.86255">
        <ele>421</ele>
        <time>2016-02-20T10:17:13.887Z</time>
      </trkpt>
      <trkpt lat="43.65434" lon="5.86253">
        <ele>421</ele>
        <time>2016-02-20T10:17:18.985Z</time>
      </trkpt>
      <trkpt lat="43.65433" lon="5.86253">
        <ele>421</ele>
        <time>2016-02-20T10:17:19.861Z</time>
      </trkpt>
      <trkpt lat="43.65425" lon="5.86248">
        <ele>423</ele>
        <time>2016-02-20T10:17:25.994Z</time>
      </trkpt>
      <trkpt lat="43.65424" lon="5.86247">
        <ele>423</ele>
        <time>2016-02-20T10:17:26.890Z</time>
      </trkpt>
      <trkpt lat="43.65417" lon="5.86243">
        <ele>423</ele>
        <time>2016-02-20T10:17:32.965Z</time>
      </trkpt>
      <trkpt lat="43.65415" lon="5.86243">
        <ele>423</ele>
        <time>2016-02-20T10:17:33.889Z</time>
      </trkpt>
      <trkpt lat="43.65407" lon="5.8624">
        <ele>423</ele>
        <time>2016-02-20T10:17:39.957Z</time>
      </trkpt>
      <trkpt lat="43.65406" lon="5.8624">
        <ele>424</ele>
        <time>2016-02-20T10:17:40.896Z</time>
      </trkpt>
      <trkpt lat="43.65398" lon="5.86238">
        <ele>425</ele>
        <time>2016-02-20T10:17:46.961Z</time>
      </trkpt>
      <trkpt lat="43.65397" lon="5.86237">
        <ele>425</ele>
        <time>2016-02-20T10:17:47.904Z</time>
      </trkpt>
      <trkpt lat="43.65388" lon="5.86234">
        <ele>425</ele>
        <time>2016-02-20T10:17:53.958Z</time>
      </trkpt>
      <trkpt lat="43.65387" lon="5.86234">
        <ele>426</ele>
        <time>2016-02-20T10:17:54.890Z</time>
      </trkpt>
      <trkpt lat="43.65387" lon="5.86245">
        <ele>431</ele>
        <time>2016-02-20T10:18:04.964Z</time>
      </trkpt>
      <trkpt lat="43.65387" lon="5.86247">
        <ele>432</ele>
        <time>2016-02-20T10:18:05.894Z</time>
      </trkpt>
      <trkpt lat="43.65385" lon="5.86257">
        <ele>434</ele>
        <time>2016-02-20T10:18:11.961Z</time>
      </trkpt>
      <trkpt lat="43.65384" lon="5.86259">
        <ele>434</ele>
        <time>2016-02-20T10:18:12.888Z</time>
      </trkpt>
      <trkpt lat="43.65376" lon="5.86265">
        <ele>436</ele>
        <time>2016-02-20T10:18:20.981Z</time>
      </trkpt>
      <trkpt lat="43.65375" lon="5.86265">
        <ele>436</ele>
        <time>2016-02-20T10:18:21.888Z</time>
      </trkpt>
      <trkpt lat="43.65367" lon="5.86267">
        <ele>436</ele>
        <time>2016-02-20T10:18:29.939Z</time>
      </trkpt>
      <trkpt lat="43.65366" lon="5.86267">
        <ele>436</ele>
        <time>2016-02-20T10:18:30.889Z</time>
      </trkpt>
      <trkpt lat="43.65358" lon="5.86269">
        <ele>434</ele>
        <time>2016-02-20T10:18:34.883Z</time>
      </trkpt>
      <trkpt lat="43.65356" lon="5.8627">
        <ele>434</ele>
        <time>2016-02-20T10:18:35.889Z</time>
      </trkpt>
      <trkpt lat="43.65349" lon="5.86273">
        <ele>434</ele>
        <time>2016-02-20T10:18:39.950Z</time>
      </trkpt>
      <trkpt lat="43.65346" lon="5.86274">
        <ele>435</ele>
        <time>2016-02-20T10:18:40.890Z</time>
      </trkpt>
      <trkpt lat="43.65338" lon="5.86279">
        <ele>434</ele>
        <time>2016-02-20T10:18:44.938Z</time>
      </trkpt>
      <trkpt lat="43.65336" lon="5.86281">
        <ele>435</ele>
        <time>2016-02-20T10:18:45.895Z</time>
      </trkpt>
      <trkpt lat="43.6533" lon="5.86286">
        <ele>435</ele>
        <time>2016-02-20T10:18:49.952Z</time>
      </trkpt>
      <trkpt lat="43.65328" lon="5.86288">
        <ele>435</ele>
        <time>2016-02-20T10:18:50.891Z</time>
      </trkpt>
      <trkpt lat="43.65321" lon="5.86294">
        <ele>435</ele>
        <time>2016-02-20T10:18:54.949Z</time>
      </trkpt>
      <trkpt lat="43.6532" lon="5.86296">
        <ele>436</ele>
        <time>2016-02-20T10:18:55.890Z</time>
      </trkpt>
      <trkpt lat="43.65312" lon="5.86298">
        <ele>434</ele>
        <time>2016-02-20T10:18:59.949Z</time>
      </trkpt>
      <trkpt lat="43.65311" lon="5.86298">
        <ele>434</ele>
        <time>2016-02-20T10:19:00.889Z</time>
      </trkpt>
      <trkpt lat="43.65302" lon="5.86297">
        <ele>434</ele>
        <time>2016-02-20T10:19:04.969Z</time>
      </trkpt>
      <trkpt lat="43.653" lon="5.86297">
        <ele>435</ele>
        <time>2016-02-20T10:19:05.887Z</time>
      </trkpt>
      <trkpt lat="43.65292" lon="5.86294">
        <ele>435</ele>
        <time>2016-02-20T10:19:08.948Z</time>
      </trkpt>
      <trkpt lat="43.65289" lon="5.86293">
        <ele>434</ele>
        <time>2016-02-20T10:19:09.886Z</time>
      </trkpt>
      <trkpt lat="43.65283" lon="5.86292">
        <ele>434</ele>
        <time>2016-02-20T10:19:11.887Z</time>
      </trkpt>
      <trkpt lat="43.65279" lon="5.86292">
        <ele>433</ele>
        <time>2016-02-20T10:19:12.860Z</time>
      </trkpt>
      <trkpt lat="43.65273" lon="5.86293">
        <ele>433</ele>
        <time>2016-02-20T10:19:14.935Z</time>
      </trkpt>
      <trkpt lat="43.6527" lon="5.86294">
        <ele>432</ele>
        <time>2016-02-20T10:19:15.894Z</time>
      </trkpt>
      <trkpt lat="43.65263" lon="5.86296">
        <ele>432</ele>
        <time>2016-02-20T10:19:17.936Z</time>
      </trkpt>
      <trkpt lat="43.65261" lon="5.86297">
        <ele>433</ele>
        <time>2016-02-20T10:19:18.887Z</time>
      </trkpt>
      <trkpt lat="43.65253" lon="5.86298">
        <ele>434</ele>
        <time>2016-02-20T10:19:21.947Z</time>
      </trkpt>
      <trkpt lat="43.6525" lon="5.86299">
        <ele>434</ele>
        <time>2016-02-20T10:19:22.887Z</time>
      </trkpt>
      <trkpt lat="43.65242" lon="5.86302">
        <ele>434</ele>
        <time>2016-02-20T10:19:25.959Z</time>
      </trkpt>
      <trkpt lat="43.65239" lon="5.86304">
        <ele>433</ele>
        <time>2016-02-20T10:19:26.906Z</time>
      </trkpt>
      <trkpt lat="43.65231" lon="5.86308">
        <ele>433</ele>
        <time>2016-02-20T10:19:29.944Z</time>
      </trkpt>
      <trkpt lat="43.65228" lon="5.86309">
        <ele>433</ele>
        <time>2016-02-20T10:19:30.890Z</time>
      </trkpt>
      <trkpt lat="43.65221" lon="5.86311">
        <ele>433</ele>
        <time>2016-02-20T10:19:33.950Z</time>
      </trkpt>
      <trkpt lat="43.65219" lon="5.86314">
        <ele>434</ele>
        <time>2016-02-20T10:19:34.888Z</time>
      </trkpt>
      <trkpt lat="43.65212" lon="5.86319">
        <ele>434</ele>
        <time>2016-02-20T10:19:37.947Z</time>
      </trkpt>
      <trkpt lat="43.6521" lon="5.86318">
        <ele>432</ele>
        <time>2016-02-20T10:19:38.888Z</time>
      </trkpt>
      <trkpt lat="43.65202" lon="5.86312">
        <ele>433</ele>
        <time>2016-02-20T10:19:41.938Z</time>
      </trkpt>
      <trkpt lat="43.65199" lon="5.86311">
        <ele>432</ele>
        <time>2016-02-20T10:19:42.894Z</time>
      </trkpt>
      <trkpt lat="43.65193" lon="5.86312">
        <ele>433</ele>
        <time>2016-02-20T10:19:44.955Z</time>
      </trkpt>
      <trkpt lat="43.65191" lon="5.86313">
        <ele>433</ele>
        <time>2016-02-20T10:19:45.892Z</time>
      </trkpt>
      <trkpt lat="43.65185" lon="5.86318">
        <ele>434</ele>
        <time>2016-02-20T10:19:48.562Z</time>
      </trkpt>
      <trkpt lat="43.65182" lon="5.8632">
        <ele>434</ele>
        <time>2016-02-20T10:19:48.862Z</time>
      </trkpt>
      <trkpt lat="43.65177" lon="5.86325">
        <ele>435</ele>
        <time>2016-02-20T10:19:50.937Z</time>
      </trkpt>
      <trkpt lat="43.65174" lon="5.86327">
        <ele>435</ele>
        <time>2016-02-20T10:19:51.889Z</time>
      </trkpt>
      <trkpt lat="43.65169" lon="5.8633">
        <ele>435</ele>
        <time>2016-02-20T10:19:53.945Z</time>
      </trkpt>
      <trkpt lat="43.65166" lon="5.86332">
        <ele>435</ele>
        <time>2016-02-20T10:19:54.887Z</time>
      </trkpt>
      <trkpt lat="43.6516" lon="5.86335">
        <ele>435</ele>
        <time>2016-02-20T10:19:56.941Z</time>
      </trkpt>
      <trkpt lat="43.65157" lon="5.86336">
        <ele>435</ele>
        <time>2016-02-20T10:19:57.891Z</time>
      </trkpt>
      <trkpt lat="43.65151" lon="5.86338">
        <ele>436</ele>
        <time>2016-02-20T10:19:59.895Z</time>
      </trkpt>
      <trkpt lat="43.65148" lon="5.86339">
        <ele>436</ele>
        <time>2016-02-20T10:20:00.893Z</time>
      </trkpt>
      <trkpt lat="43.65142" lon="5.86343">
        <ele>436</ele>
        <time>2016-02-20T10:20:02.944Z</time>
      </trkpt>
      <trkpt lat="43.65139" lon="5.86344">
        <ele>436</ele>
        <time>2016-02-20T10:20:03.886Z</time>
      </trkpt>
      <trkpt lat="43.65132" lon="5.86347">
        <ele>435</ele>
        <time>2016-02-20T10:20:05.994Z</time>
      </trkpt>
      <trkpt lat="43.65129" lon="5.86349">
        <ele>435</ele>
        <time>2016-02-20T10:20:06.896Z</time>
      </trkpt>
      <trkpt lat="43.65123" lon="5.86355">
        <ele>434</ele>
        <time>2016-02-20T10:20:08.935Z</time>
      </trkpt>
      <trkpt lat="43.6512" lon="5.86357">
        <ele>434</ele>
        <time>2016-02-20T10:20:09.888Z</time>
      </trkpt>
      <trkpt lat="43.65113" lon="5.8636">
        <ele>434</ele>
        <time>2016-02-20T10:20:11.931Z</time>
      </trkpt>
      <trkpt lat="43.6511" lon="5.86361">
        <ele>434</ele>
        <time>2016-02-20T10:20:12.890Z</time>
      </trkpt>
      <trkpt lat="43.65104" lon="5.86364">
        <ele>434</ele>
        <time>2016-02-20T10:20:14.948Z</time>
      </trkpt>
      <trkpt lat="43.65101" lon="5.86366">
        <ele>434</ele>
        <time>2016-02-20T10:20:15.900Z</time>
      </trkpt>
      <trkpt lat="43.65096" lon="5.86371">
        <ele>434</ele>
        <time>2016-02-20T10:20:17.939Z</time>
      </trkpt>
      <trkpt lat="43.65093" lon="5.86374">
        <ele>435</ele>
        <time>2016-02-20T10:20:18.891Z</time>
      </trkpt>
      <trkpt lat="43.65088" lon="5.86379">
        <ele>435</ele>
        <time>2016-02-20T10:20:20.961Z</time>
      </trkpt>
      <trkpt lat="43.65085" lon="5.86381">
        <ele>435</ele>
        <time>2016-02-20T10:20:21.889Z</time>
      </trkpt>
      <trkpt lat="43.65081" lon="5.8639">
        <ele>435</ele>
        <time>2016-02-20T10:20:24.940Z</time>
      </trkpt>
      <trkpt lat="43.6508" lon="5.86394">
        <ele>436</ele>
        <time>2016-02-20T10:20:25.889Z</time>
      </trkpt>
      <trkpt lat="43.65078" lon="5.86404">
        <ele>436</ele>
        <time>2016-02-20T10:20:28.953Z</time>
      </trkpt>
      <trkpt lat="43.65076" lon="5.86407">
        <ele>436</ele>
        <time>2016-02-20T10:20:29.888Z</time>
      </trkpt>
      <trkpt lat="43.65074" lon="5.86417">
        <ele>436</ele>
        <time>2016-02-20T10:20:32.938Z</time>
      </trkpt>
      <trkpt lat="43.65072" lon="5.8642">
        <ele>437</ele>
        <time>2016-02-20T10:20:33.890Z</time>
      </trkpt>
      <trkpt lat="43.65067" lon="5.86428">
        <ele>438</ele>
        <time>2016-02-20T10:20:36.940Z</time>
      </trkpt>
      <trkpt lat="43.65066" lon="5.8643">
        <ele>438</ele>
        <time>2016-02-20T10:20:37.876Z</time>
      </trkpt>
      <trkpt lat="43.65061" lon="5.86438">
        <ele>438</ele>
        <time>2016-02-20T10:20:40.937Z</time>
      </trkpt>
      <trkpt lat="43.65059" lon="5.8644">
        <ele>438</ele>
        <time>2016-02-20T10:20:41.892Z</time>
      </trkpt>
      <trkpt lat="43.65055" lon="5.86447">
        <ele>438</ele>
        <time>2016-02-20T10:20:44.934Z</time>
      </trkpt>
      <trkpt lat="43.65053" lon="5.86449">
        <ele>439</ele>
        <time>2016-02-20T10:20:45.890Z</time>
      </trkpt>
      <trkpt lat="43.65047" lon="5.86457">
        <ele>440</ele>
        <time>2016-02-20T10:20:50.946Z</time>
      </trkpt>
      <trkpt lat="43.65046" lon="5.86459">
        <ele>440</ele>
        <time>2016-02-20T10:20:51.890Z</time>
      </trkpt>
      <trkpt lat="43.65038" lon="5.86463">
        <ele>441</ele>
        <time>2016-02-20T10:20:55.997Z</time>
      </trkpt>
      <trkpt lat="43.65036" lon="5.86464">
        <ele>441</ele>
        <time>2016-02-20T10:20:56.895Z</time>
      </trkpt>
      <trkpt lat="43.65028" lon="5.86468">
        <ele>441</ele>
        <time>2016-02-20T10:21:00.938Z</time>
      </trkpt>
      <trkpt lat="43.65026" lon="5.8647">
        <ele>441</ele>
        <time>2016-02-20T10:21:01.886Z</time>
      </trkpt>
      <trkpt lat="43.6502" lon="5.86478">
        <ele>442</ele>
        <time>2016-02-20T10:21:05.939Z</time>
      </trkpt>
      <trkpt lat="43.6502" lon="5.8648">
        <ele>442</ele>
        <time>2016-02-20T10:21:06.890Z</time>
      </trkpt>
      <trkpt lat="43.65014" lon="5.86489">
        <ele>443</ele>
        <time>2016-02-20T10:21:12.557Z</time>
      </trkpt>
      <trkpt lat="43.65013" lon="5.86491">
        <ele>443</ele>
        <time>2016-02-20T10:21:12.869Z</time>
      </trkpt>
      <trkpt lat="43.65007" lon="5.86499">
        <ele>444</ele>
        <time>2016-02-20T10:21:16.948Z</time>
      </trkpt>
      <trkpt lat="43.65005" lon="5.86502">
        <ele>444</ele>
        <time>2016-02-20T10:21:17.887Z</time>
      </trkpt>
      <trkpt lat="43.64997" lon="5.86508">
        <ele>445</ele>
        <time>2016-02-20T10:21:21.975Z</time>
      </trkpt>
      <trkpt lat="43.64995" lon="5.86509">
        <ele>445</ele>
        <time>2016-02-20T10:21:22.887Z</time>
      </trkpt>
      <trkpt lat="43.64989" lon="5.86514">
        <ele>445</ele>
        <time>2016-02-20T10:21:25.887Z</time>
      </trkpt>
      <trkpt lat="43.64987" lon="5.86516">
        <ele>446</ele>
        <time>2016-02-20T10:21:26.888Z</time>
      </trkpt>
      <trkpt lat="43.64981" lon="5.86521">
        <ele>446</ele>
        <time>2016-02-20T10:21:29.940Z</time>
      </trkpt>
      <trkpt lat="43.64979" lon="5.86523">
        <ele>446</ele>
        <time>2016-02-20T10:21:30.892Z</time>
      </trkpt>
      <trkpt lat="43.64973" lon="5.86529">
        <ele>447</ele>
        <time>2016-02-20T10:21:33.940Z</time>
      </trkpt>
      <trkpt lat="43.64971" lon="5.86531">
        <ele>446</ele>
        <time>2016-02-20T10:21:34.889Z</time>
      </trkpt>
      <trkpt lat="43.64965" lon="5.86538">
        <ele>446</ele>
        <time>2016-02-20T10:21:37.941Z</time>
      </trkpt>
      <trkpt lat="43.64963" lon="5.8654">
        <ele>447</ele>
        <time>2016-02-20T10:21:38.890Z</time>
      </trkpt>
      <trkpt lat="43.64957" lon="5.86546">
        <ele>447</ele>
        <time>2016-02-20T10:21:41.943Z</time>
      </trkpt>
      <trkpt lat="43.64955" lon="5.86549">
        <ele>446</ele>
        <time>2016-02-20T10:21:42.891Z</time>
      </trkpt>
      <trkpt lat="43.64949" lon="5.86556">
        <ele>446</ele>
        <time>2016-02-20T10:21:45.938Z</time>
      </trkpt>
      <trkpt lat="43.64947" lon="5.86559">
        <ele>446</ele>
        <time>2016-02-20T10:21:46.887Z</time>
      </trkpt>
      <trkpt lat="43.64941" lon="5.86566">
        <ele>447</ele>
        <time>2016-02-20T10:21:50.137Z</time>
      </trkpt>
      <trkpt lat="43.64939" lon="5.86568">
        <ele>447</ele>
        <time>2016-02-20T10:21:50.890Z</time>
      </trkpt>
      <trkpt lat="43.64933" lon="5.86574">
        <ele>447</ele>
        <time>2016-02-20T10:21:53.939Z</time>
      </trkpt>
      <trkpt lat="43.64931" lon="5.86576">
        <ele>447</ele>
        <time>2016-02-20T10:21:54.895Z</time>
      </trkpt>
      <trkpt lat="43.64925" lon="5.86582">
        <ele>447</ele>
        <time>2016-02-20T10:21:57.945Z</time>
      </trkpt>
      <trkpt lat="43.64923" lon="5.86584">
        <ele>447</ele>
        <time>2016-02-20T10:21:58.890Z</time>
      </trkpt>
      <trkpt lat="43.64917" lon="5.86588">
        <ele>447</ele>
        <time>2016-02-20T10:22:01.927Z</time>
      </trkpt>
      <trkpt lat="43.64915" lon="5.86589">
        <ele>447</ele>
        <time>2016-02-20T10:22:02.899Z</time>
      </trkpt>
      <trkpt lat="43.64906" lon="5.86592">
        <ele>447</ele>
        <time>2016-02-20T10:22:06.945Z</time>
      </trkpt>
      <trkpt lat="43.64904" lon="5.86593">
        <ele>446</ele>
        <time>2016-02-20T10:22:07.889Z</time>
      </trkpt>
      <trkpt lat="43.64897" lon="5.86596">
        <ele>447</ele>
        <time>2016-02-20T10:22:10.979Z</time>
      </trkpt>
      <trkpt lat="43.64895" lon="5.86597">
        <ele>446</ele>
        <time>2016-02-20T10:22:11.887Z</time>
      </trkpt>
      <trkpt lat="43.64888" lon="5.86598">
        <ele>447</ele>
        <time>2016-02-20T10:22:14.929Z</time>
      </trkpt>
      <trkpt lat="43.64885" lon="5.86598">
        <ele>446</ele>
        <time>2016-02-20T10:22:15.891Z</time>
      </trkpt>
      <trkpt lat="43.64878" lon="5.86598">
        <ele>446</ele>
        <time>2016-02-20T10:22:18.942Z</time>
      </trkpt>
      <trkpt lat="43.64875" lon="5.86599">
        <ele>446</ele>
        <time>2016-02-20T10:22:19.891Z</time>
      </trkpt>
      <trkpt lat="43.64868" lon="5.86602">
        <ele>446</ele>
        <time>2016-02-20T10:22:22.945Z</time>
      </trkpt>
      <trkpt lat="43.64865" lon="5.86604">
        <ele>446</ele>
        <time>2016-02-20T10:22:23.888Z</time>
      </trkpt>
      <trkpt lat="43.64858" lon="5.86607">
        <ele>446</ele>
        <time>2016-02-20T10:22:26.939Z</time>
      </trkpt>
      <trkpt lat="43.64855" lon="5.86608">
        <ele>446</ele>
        <time>2016-02-20T10:22:27.882Z</time>
      </trkpt>
      <trkpt lat="43.64848" lon="5.86612">
        <ele>446</ele>
        <time>2016-02-20T10:22:30.943Z</time>
      </trkpt>
      <trkpt lat="43.64846" lon="5.86613">
        <ele>447</ele>
        <time>2016-02-20T10:22:31.891Z</time>
      </trkpt>
      <trkpt lat="43.64839" lon="5.86617">
        <ele>447</ele>
        <time>2016-02-20T10:22:34.960Z</time>
      </trkpt>
      <trkpt lat="43.64837" lon="5.86619">
        <ele>447</ele>
        <time>2016-02-20T10:22:35.891Z</time>
      </trkpt>
      <trkpt lat="43.64831" lon="5.86626">
        <ele>448</ele>
        <time>2016-02-20T10:22:38.886Z</time>
      </trkpt>
      <trkpt lat="43.64829" lon="5.86628">
        <ele>448</ele>
        <time>2016-02-20T10:22:39.892Z</time>
      </trkpt>
      <trkpt lat="43.64824" lon="5.86637">
        <ele>449</ele>
        <time>2016-02-20T10:22:42.944Z</time>
      </trkpt>
      <trkpt lat="43.64823" lon="5.86639">
        <ele>449</ele>
        <time>2016-02-20T10:22:43.889Z</time>
      </trkpt>
      <trkpt lat="43.64817" lon="5.86647">
        <ele>450</ele>
        <time>2016-02-20T10:22:46.944Z</time>
      </trkpt>
      <trkpt lat="43.64815" lon="5.86649">
        <ele>450</ele>
        <time>2016-02-20T10:22:47.892Z</time>
      </trkpt>
      <trkpt lat="43.6481" lon="5.86657">
        <ele>451</ele>
        <time>2016-02-20T10:22:50.898Z</time>
      </trkpt>
      <trkpt lat="43.64809" lon="5.86659">
        <ele>451</ele>
        <time>2016-02-20T10:22:51.890Z</time>
      </trkpt>
      <trkpt lat="43.64804" lon="5.86667">
        <ele>452</ele>
        <time>2016-02-20T10:22:54.941Z</time>
      </trkpt>
      <trkpt lat="43.64803" lon="5.8667">
        <ele>453</ele>
        <time>2016-02-20T10:22:55.893Z</time>
      </trkpt>
      <trkpt lat="43.64798" lon="5.86677">
        <ele>453</ele>
        <time>2016-02-20T10:22:58.935Z</time>
      </trkpt>
      <trkpt lat="43.64796" lon="5.86679">
        <ele>453</ele>
        <time>2016-02-20T10:22:59.893Z</time>
      </trkpt>
      <trkpt lat="43.64791" lon="5.86686">
        <ele>453</ele>
        <time>2016-02-20T10:23:02.938Z</time>
      </trkpt>
      <trkpt lat="43.64789" lon="5.86688">
        <ele>453</ele>
        <time>2016-02-20T10:23:03.889Z</time>
      </trkpt>
      <trkpt lat="43.64782" lon="5.86691">
        <ele>453</ele>
        <time>2016-02-20T10:23:06.940Z</time>
      </trkpt>
      <trkpt lat="43.6478" lon="5.86691">
        <ele>453</ele>
        <time>2016-02-20T10:23:07.890Z</time>
      </trkpt>
      <trkpt lat="43.64773" lon="5.86692">
        <ele>453</ele>
        <time>2016-02-20T10:23:10.953Z</time>
      </trkpt>
      <trkpt lat="43.64771" lon="5.86692">
        <ele>454</ele>
        <time>2016-02-20T10:23:11.906Z</time>
      </trkpt>
      <trkpt lat="43.64764" lon="5.86695">
        <ele>456</ele>
        <time>2016-02-20T10:23:15.520Z</time>
      </trkpt>
      <trkpt lat="43.64762" lon="5.86695">
        <ele>455</ele>
        <time>2016-02-20T10:23:15.864Z</time>
      </trkpt>
      <trkpt lat="43.64754" lon="5.867">
        <ele>456</ele>
        <time>2016-02-20T10:23:19.057Z</time>
      </trkpt>
      <trkpt lat="43.64752" lon="5.86703">
        <ele>455</ele>
        <time>2016-02-20T10:23:19.880Z</time>
      </trkpt>
      <trkpt lat="43.64744" lon="5.86708">
        <ele>455</ele>
        <time>2016-02-20T10:23:22.959Z</time>
      </trkpt>
      <trkpt lat="43.64741" lon="5.86707">
        <ele>455</ele>
        <time>2016-02-20T10:23:23.905Z</time>
      </trkpt>
      <trkpt lat="43.64734" lon="5.86704">
        <ele>454</ele>
        <time>2016-02-20T10:23:26.943Z</time>
      </trkpt>
      <trkpt lat="43.64731" lon="5.86703">
        <ele>455</ele>
        <time>2016-02-20T10:23:27.891Z</time>
      </trkpt>
      <trkpt lat="43.64724" lon="5.86698">
        <ele>454</ele>
        <time>2016-02-20T10:23:30.946Z</time>
      </trkpt>
      <trkpt lat="43.64721" lon="5.86698">
        <ele>454</ele>
        <time>2016-02-20T10:23:31.889Z</time>
      </trkpt>
      <trkpt lat="43.64717" lon="5.86708">
        <ele>454</ele>
        <time>2016-02-20T10:23:34.933Z</time>
      </trkpt>
      <trkpt lat="43.64716" lon="5.86712">
        <ele>455</ele>
        <time>2016-02-20T10:23:35.890Z</time>
      </trkpt>
      <trkpt lat="43.64714" lon="5.86724">
        <ele>458</ele>
        <time>2016-02-20T10:23:38.950Z</time>
      </trkpt>
      <trkpt lat="43.64712" lon="5.86727">
        <ele>458</ele>
        <time>2016-02-20T10:23:39.893Z</time>
      </trkpt>
      <trkpt lat="43.64708" lon="5.86737">
        <ele>459</ele>
        <time>2016-02-20T10:23:42.945Z</time>
      </trkpt>
      <trkpt lat="43.64706" lon="5.86741">
        <ele>458</ele>
        <time>2016-02-20T10:23:43.892Z</time>
      </trkpt>
      <trkpt lat="43.64703" lon="5.86752">
        <ele>458</ele>
        <time>2016-02-20T10:23:46.960Z</time>
      </trkpt>
      <trkpt lat="43.64702" lon="5.86755">
        <ele>458</ele>
        <time>2016-02-20T10:23:47.895Z</time>
      </trkpt>
      <trkpt lat="43.647" lon="5.86766">
        <ele>458</ele>
        <time>2016-02-20T10:23:51.052Z</time>
      </trkpt>
      <trkpt lat="43.64699" lon="5.8677">
        <ele>458</ele>
        <time>2016-02-20T10:23:51.892Z</time>
      </trkpt>
      <trkpt lat="43.64696" lon="5.86778">
        <ele>458</ele>
        <time>2016-02-20T10:23:53.943Z</time>
      </trkpt>
      <trkpt lat="43.64695" lon="5.86781">
        <ele>458</ele>
        <time>2016-02-20T10:23:54.896Z</time>
      </trkpt>
      <trkpt lat="43.64691" lon="5.86792">
        <ele>458</ele>
        <time>2016-02-20T10:23:58.938Z</time>
      </trkpt>
      <trkpt lat="43.6469" lon="5.86795">
        <ele>458</ele>
        <time>2016-02-20T10:23:59.891Z</time>
      </trkpt>
      <trkpt lat="43.64686" lon="5.86806">
        <ele>458</ele>
        <time>2016-02-20T10:24:02.938Z</time>
      </trkpt>
      <trkpt lat="43.64685" lon="5.86809">
        <ele>458</ele>
        <time>2016-02-20T10:24:03.892Z</time>
      </trkpt>
      <trkpt lat="43.6468" lon="5.86818">
        <ele>460</ele>
        <time>2016-02-20T10:24:06.944Z</time>
      </trkpt>
      <trkpt lat="43.64679" lon="5.86821">
        <ele>460</ele>
        <time>2016-02-20T10:24:07.893Z</time>
      </trkpt>
      <trkpt lat="43.64678" lon="5.8683">
        <ele>460</ele>
        <time>2016-02-20T10:24:09.948Z</time>
      </trkpt>
      <trkpt lat="43.64678" lon="5.86835">
        <ele>460</ele>
        <time>2016-02-20T10:24:10.891Z</time>
      </trkpt>
      <trkpt lat="43.64678" lon="5.86845">
        <ele>460</ele>
        <time>2016-02-20T10:24:12.944Z</time>
      </trkpt>
      <trkpt lat="43.64679" lon="5.8685">
        <ele>460</ele>
        <time>2016-02-20T10:24:13.890Z</time>
      </trkpt>
      <trkpt lat="43.64679" lon="5.86859">
        <ele>460</ele>
        <time>2016-02-20T10:24:15.947Z</time>
      </trkpt>
      <trkpt lat="43.64679" lon="5.86864">
        <ele>459</ele>
        <time>2016-02-20T10:24:16.890Z</time>
      </trkpt>
      <trkpt lat="43.64679" lon="5.86874">
        <ele>460</ele>
        <time>2016-02-20T10:24:18.888Z</time>
      </trkpt>
      <trkpt lat="43.64679" lon="5.86879">
        <ele>459</ele>
        <time>2016-02-20T10:24:19.889Z</time>
      </trkpt>
      <trkpt lat="43.64681" lon="5.86889">
        <ele>458</ele>
        <time>2016-02-20T10:24:21.959Z</time>
      </trkpt>
      <trkpt lat="43.64682" lon="5.86894">
        <ele>458</ele>
        <time>2016-02-20T10:24:22.893Z</time>
      </trkpt>
      <trkpt lat="43.64684" lon="5.86903">
        <ele>458</ele>
        <time>2016-02-20T10:24:24.940Z</time>
      </trkpt>
      <trkpt lat="43.64686" lon="5.86907">
        <ele>458</ele>
        <time>2016-02-20T10:24:25.891Z</time>
      </trkpt>
      <trkpt lat="43.6469" lon="5.86915">
        <ele>458</ele>
        <time>2016-02-20T10:24:27.979Z</time>
      </trkpt>
      <trkpt lat="43.64692" lon="5.86918">
        <ele>459</ele>
        <time>2016-02-20T10:24:28.892Z</time>
      </trkpt>
      <trkpt lat="43.64696" lon="5.86926">
        <ele>459</ele>
        <time>2016-02-20T10:24:30.939Z</time>
      </trkpt>
      <trkpt lat="43.64696" lon="5.8693">
        <ele>459</ele>
        <time>2016-02-20T10:24:31.891Z</time>
      </trkpt>
      <trkpt lat="43.64699" lon="5.86939">
        <ele>458</ele>
        <time>2016-02-20T10:24:33.939Z</time>
      </trkpt>
      <trkpt lat="43.64701" lon="5.86942">
        <ele>458</ele>
        <time>2016-02-20T10:24:34.891Z</time>
      </trkpt>
      <trkpt lat="43.64705" lon="5.86949">
        <ele>456</ele>
        <time>2016-02-20T10:24:37.074Z</time>
      </trkpt>
      <trkpt lat="43.64708" lon="5.86952">
        <ele>455</ele>
        <time>2016-02-20T10:24:37.892Z</time>
      </trkpt>
      <trkpt lat="43.64713" lon="5.86957">
        <ele>454</ele>
        <time>2016-02-20T10:24:39.938Z</time>
      </trkpt>
      <trkpt lat="43.64715" lon="5.8696">
        <ele>455</ele>
        <time>2016-02-20T10:24:40.893Z</time>
      </trkpt>
      <trkpt lat="43.64721" lon="5.86964">
        <ele>456</ele>
        <time>2016-02-20T10:24:42.939Z</time>
      </trkpt>
      <trkpt lat="43.64723" lon="5.86967">
        <ele>456</ele>
        <time>2016-02-20T10:24:43.889Z</time>
      </trkpt>
      <trkpt lat="43.64728" lon="5.86973">
        <ele>454</ele>
        <time>2016-02-20T10:24:45.940Z</time>
      </trkpt>
      <trkpt lat="43.64731" lon="5.86976">
        <ele>454</ele>
        <time>2016-02-20T10:24:46.890Z</time>
      </trkpt>
      <trkpt lat="43.64738" lon="5.86982">
        <ele>455</ele>
        <time>2016-02-20T10:24:49.960Z</time>
      </trkpt>
      <trkpt lat="43.6474" lon="5.86984">
        <ele>455</ele>
        <time>2016-02-20T10:24:50.888Z</time>
      </trkpt>
      <trkpt lat="43.64749" lon="5.86988">
        <ele>458</ele>
        <time>2016-02-20T10:24:54.942Z</time>
      </trkpt>
      <trkpt lat="43.64751" lon="5.86988">
        <ele>459</ele>
        <time>2016-02-20T10:24:55.886Z</time>
      </trkpt>
      <trkpt lat="43.64756" lon="5.86994">
        <ele>459</ele>
        <time>2016-02-20T10:24:58.940Z</time>
      </trkpt>
      <trkpt lat="43.64758" lon="5.86996">
        <ele>457</ele>
        <time>2016-02-20T10:24:59.896Z</time>
      </trkpt>
      <trkpt lat="43.64762" lon="5.87004">
        <ele>459</ele>
        <time>2016-02-20T10:25:02.948Z</time>
      </trkpt>
      <trkpt lat="43.64764" lon="5.87006">
        <ele>459</ele>
        <time>2016-02-20T10:25:03.890Z</time>
      </trkpt>
      <trkpt lat="43.64769" lon="5.87011">
        <ele>462</ele>
        <time>2016-02-20T10:25:05.889Z</time>
      </trkpt>
      <trkpt lat="43.64771" lon="5.87014">
        <ele>463</ele>
        <time>2016-02-20T10:25:06.889Z</time>
      </trkpt>
      <trkpt lat="43.64776" lon="5.87019">
        <ele>461</ele>
        <time>2016-02-20T10:25:08.933Z</time>
      </trkpt>
      <trkpt lat="43.64779" lon="5.87021">
        <ele>461</ele>
        <time>2016-02-20T10:25:09.891Z</time>
      </trkpt>
      <trkpt lat="43.64785" lon="5.87029">
        <ele>459</ele>
        <time>2016-02-20T10:25:12.942Z</time>
      </trkpt>
      <trkpt lat="43.64788" lon="5.87031">
        <ele>461</ele>
        <time>2016-02-20T10:25:13.891Z</time>
      </trkpt>
      <trkpt lat="43.64794" lon="5.87037">
        <ele>463</ele>
        <time>2016-02-20T10:25:16.936Z</time>
      </trkpt>
      <trkpt lat="43.64797" lon="5.87038">
        <ele>462</ele>
        <time>2016-02-20T10:25:17.890Z</time>
      </trkpt>
      <trkpt lat="43.64804" lon="5.87042">
        <ele>463</ele>
        <time>2016-02-20T10:25:20.957Z</time>
      </trkpt>
      <trkpt lat="43.64806" lon="5.87043">
        <ele>463</ele>
        <time>2016-02-20T10:25:21.892Z</time>
      </trkpt>
      <trkpt lat="43.64813" lon="5.87048">
        <ele>464</ele>
        <time>2016-02-20T10:25:24.939Z</time>
      </trkpt>
      <trkpt lat="43.64815" lon="5.8705">
        <ele>465</ele>
        <time>2016-02-20T10:25:25.885Z</time>
      </trkpt>
      <trkpt lat="43.64823" lon="5.87055">
        <ele>464</ele>
        <time>2016-02-20T10:25:28.948Z</time>
      </trkpt>
      <trkpt lat="43.64825" lon="5.87057">
        <ele>463</ele>
        <time>2016-02-20T10:25:29.891Z</time>
      </trkpt>
      <trkpt lat="43.64832" lon="5.87062">
        <ele>464</ele>
        <time>2016-02-20T10:25:32.966Z</time>
      </trkpt>
      <trkpt lat="43.64835" lon="5.87064">
        <ele>464</ele>
        <time>2016-02-20T10:25:33.892Z</time>
      </trkpt>
      <trkpt lat="43.64841" lon="5.8707">
        <ele>464</ele>
        <time>2016-02-20T10:25:36.941Z</time>
      </trkpt>
      <trkpt lat="43.64843" lon="5.87072">
        <ele>463</ele>
        <time>2016-02-20T10:25:37.891Z</time>
      </trkpt>
      <trkpt lat="43.6485" lon="5.87076">
        <ele>463</ele>
        <time>2016-02-20T10:25:40.933Z</time>
      </trkpt>
      <trkpt lat="43.64853" lon="5.87078">
        <ele>464</ele>
        <time>2016-02-20T10:25:41.890Z</time>
      </trkpt>
      <trkpt lat="43.64861" lon="5.87082">
        <ele>462</ele>
        <time>2016-02-20T10:25:44.943Z</time>
      </trkpt>
      <trkpt lat="43.64863" lon="5.87084">
        <ele>462</ele>
        <time>2016-02-20T10:25:45.892Z</time>
      </trkpt>
      <trkpt lat="43.64871" lon="5.87087">
        <ele>459</ele>
        <time>2016-02-20T10:25:48.944Z</time>
      </trkpt>
      <trkpt lat="43.64874" lon="5.87089">
        <ele>458</ele>
        <time>2016-02-20T10:25:49.898Z</time>
      </trkpt>
      <trkpt lat="43.6488" lon="5.87093">
        <ele>457</ele>
        <time>2016-02-20T10:25:51.939Z</time>
      </trkpt>
      <trkpt lat="43.64883" lon="5.87095">
        <ele>457</ele>
        <time>2016-02-20T10:25:52.890Z</time>
      </trkpt>
      <trkpt lat="43.64889" lon="5.871">
        <ele>458</ele>
        <time>2016-02-20T10:25:54.886Z</time>
      </trkpt>
      <trkpt lat="43.64891" lon="5.87102">
        <ele>460</ele>
        <time>2016-02-20T10:25:55.891Z</time>
      </trkpt>
      <trkpt lat="43.64898" lon="5.87106">
        <ele>461</ele>
        <time>2016-02-20T10:25:58.950Z</time>
      </trkpt>
      <trkpt lat="43.649" lon="5.87108">
        <ele>461</ele>
        <time>2016-02-20T10:25:59.883Z</time>
      </trkpt>
      <trkpt lat="43.64907" lon="5.87112">
        <ele>463</ele>
        <time>2016-02-20T10:26:02.947Z</time>
      </trkpt>
      <trkpt lat="43.64909" lon="5.87114">
        <ele>464</ele>
        <time>2016-02-20T10:26:03.894Z</time>
      </trkpt>
      <trkpt lat="43.64915" lon="5.8712">
        <ele>463</ele>
        <time>2016-02-20T10:26:05.949Z</time>
      </trkpt>
      <trkpt lat="43.64917" lon="5.87123">
        <ele>463</ele>
        <time>2016-02-20T10:26:06.889Z</time>
      </trkpt>
      <trkpt lat="43.64923" lon="5.87129">
        <ele>462</ele>
        <time>2016-02-20T10:26:08.936Z</time>
      </trkpt>
      <trkpt lat="43.64926" lon="5.87131">
        <ele>462</ele>
        <time>2016-02-20T10:26:09.892Z</time>
      </trkpt>
      <trkpt lat="43.64932" lon="5.87136">
        <ele>463</ele>
        <time>2016-02-20T10:26:11.949Z</time>
      </trkpt>
      <trkpt lat="43.64934" lon="5.87139">
        <ele>463</ele>
        <time>2016-02-20T10:26:12.885Z</time>
      </trkpt>
      <trkpt lat="43.64939" lon="5.87144">
        <ele>461</ele>
        <time>2016-02-20T10:26:14.948Z</time>
      </trkpt>
      <trkpt lat="43.64942" lon="5.87147">
        <ele>462</ele>
        <time>2016-02-20T10:26:15.896Z</time>
      </trkpt>
      <trkpt lat="43.64947" lon="5.87153">
        <ele>460</ele>
        <time>2016-02-20T10:26:17.937Z</time>
      </trkpt>
      <trkpt lat="43.64949" lon="5.87157">
        <ele>460</ele>
        <time>2016-02-20T10:26:18.898Z</time>
      </trkpt>
      <trkpt lat="43.64953" lon="5.87165">
        <ele>459</ele>
        <time>2016-02-20T10:26:20.946Z</time>
      </trkpt>
      <trkpt lat="43.64955" lon="5.8717">
        <ele>458</ele>
        <time>2016-02-20T10:26:21.891Z</time>
      </trkpt>
      <trkpt lat="43.64959" lon="5.8718">
        <ele>457</ele>
        <time>2016-02-20T10:26:23.944Z</time>
      </trkpt>
      <trkpt lat="43.64961" lon="5.87185">
        <ele>456</ele>
        <time>2016-02-20T10:26:24.886Z</time>
      </trkpt>
      <trkpt lat="43.64966" lon="5.87193">
        <ele>455</ele>
        <time>2016-02-20T10:26:26.950Z</time>
      </trkpt>
      <trkpt lat="43.64969" lon="5.87197">
        <ele>454</ele>
        <time>2016-02-20T10:26:27.894Z</time>
      </trkpt>
      <trkpt lat="43.64973" lon="5.87207">
        <ele>455</ele>
        <time>2016-02-20T10:26:29.936Z</time>
      </trkpt>
      <trkpt lat="43.64975" lon="5.87212">
        <ele>454</ele>
        <time>2016-02-20T10:26:30.886Z</time>
      </trkpt>
      <trkpt lat="43.64979" lon="5.87222">
        <ele>454</ele>
        <time>2016-02-20T10:26:32.943Z</time>
      </trkpt>
      <trkpt lat="43.64981" lon="5.87227">
        <ele>453</ele>
        <time>2016-02-20T10:26:33.892Z</time>
      </trkpt>
      <trkpt lat="43.64984" lon="5.87236">
        <ele>453</ele>
        <time>2016-02-20T10:26:35.943Z</time>
      </trkpt>
      <trkpt lat="43.64986" lon="5.87241">
        <ele>453</ele>
        <time>2016-02-20T10:26:36.892Z</time>
      </trkpt>
      <trkpt lat="43.64987" lon="5.87251">
        <ele>453</ele>
        <time>2016-02-20T10:26:38.969Z</time>
      </trkpt>
      <trkpt lat="43.64987" lon="5.87257">
        <ele>453</ele>
        <time>2016-02-20T10:26:39.890Z</time>
      </trkpt>
      <trkpt lat="43.64987" lon="5.87267">
        <ele>453</ele>
        <time>2016-02-20T10:26:41.955Z</time>
      </trkpt>
      <trkpt lat="43.64987" lon="5.87273">
        <ele>453</ele>
        <time>2016-02-20T10:26:42.867Z</time>
      </trkpt>
      <trkpt lat="43.64989" lon="5.87282">
        <ele>452</ele>
        <time>2016-02-20T10:26:44.939Z</time>
      </trkpt>
      <trkpt lat="43.64991" lon="5.87286">
        <ele>452</ele>
        <time>2016-02-20T10:26:45.895Z</time>
      </trkpt>
      <trkpt lat="43.64996" lon="5.87293">
        <ele>453</ele>
        <time>2016-02-20T10:26:47.944Z</time>
      </trkpt>
      <trkpt lat="43.64999" lon="5.87297">
        <ele>453</ele>
        <time>2016-02-20T10:26:48.889Z</time>
      </trkpt>
      <trkpt lat="43.65004" lon="5.87304">
        <ele>454</ele>
        <time>2016-02-20T10:26:50.938Z</time>
      </trkpt>
      <trkpt lat="43.65007" lon="5.87307">
        <ele>455</ele>
        <time>2016-02-20T10:26:51.889Z</time>
      </trkpt>
      <trkpt lat="43.65015" lon="5.87309">
        <ele>451</ele>
        <time>2016-02-20T10:26:55.942Z</time>
      </trkpt>
      <trkpt lat="43.65016" lon="5.87307">
        <ele>451</ele>
        <time>2016-02-20T10:26:56.895Z</time>
      </trkpt>
      <trkpt lat="43.6502" lon="5.87296">
        <ele>450</ele>
        <time>2016-02-20T10:27:00.968Z</time>
      </trkpt>
      <trkpt lat="43.65021" lon="5.87293">
        <ele>449</ele>
        <time>2016-02-20T10:27:01.874Z</time>
      </trkpt>
      <trkpt lat="43.65024" lon="5.87284">
        <ele>449</ele>
        <time>2016-02-20T10:27:04.950Z</time>
      </trkpt>
      <trkpt lat="43.65025" lon="5.87282">
        <ele>450</ele>
        <time>2016-02-20T10:27:05.890Z</time>
      </trkpt>
      <trkpt lat="43.65028" lon="5.87273">
        <ele>450</ele>
        <time>2016-02-20T10:27:08.943Z</time>
      </trkpt>
      <trkpt lat="43.65029" lon="5.87269">
        <ele>450</ele>
        <time>2016-02-20T10:27:09.898Z</time>
      </trkpt>
      <trkpt lat="43.65032" lon="5.87261">
        <ele>449</ele>
        <time>2016-02-20T10:27:12.966Z</time>
      </trkpt>
      <trkpt lat="43.65033" lon="5.87258">
        <ele>449</ele>
        <time>2016-02-20T10:27:13.884Z</time>
      </trkpt>
      <trkpt lat="43.65037" lon="5.87249">
        <ele>449</ele>
        <time>2016-02-20T10:27:16.965Z</time>
      </trkpt>
      <trkpt lat="43.65038" lon="5.87247">
        <ele>450</ele>
        <time>2016-02-20T10:27:17.885Z</time>
      </trkpt>
      <trkpt lat="43.65042" lon="5.87236">
        <ele>450</ele>
        <time>2016-02-20T10:27:21.941Z</time>
      </trkpt>
      <trkpt lat="43.65042" lon="5.87232">
        <ele>450</ele>
        <time>2016-02-20T10:27:22.895Z</time>
      </trkpt>
      <trkpt lat="43.65043" lon="5.8722">
        <ele>450</ele>
        <time>2016-02-20T10:27:26.937Z</time>
      </trkpt>
      <trkpt lat="43.65043" lon="5.87217">
        <ele>451</ele>
        <time>2016-02-20T10:27:27.903Z</time>
      </trkpt>
      <trkpt lat="43.65045" lon="5.87208">
        <ele>451</ele>
        <time>2016-02-20T10:27:30.941Z</time>
      </trkpt>
      <trkpt lat="43.65045" lon="5.87205">
        <ele>451</ele>
        <time>2016-02-20T10:27:31.896Z</time>
      </trkpt>
      <trkpt lat="43.65046" lon="5.87193">
        <ele>451</ele>
        <time>2016-02-20T10:27:35.944Z</time>
      </trkpt>
      <trkpt lat="43.65046" lon="5.87189">
        <ele>451</ele>
        <time>2016-02-20T10:27:36.887Z</time>
      </trkpt>
      <trkpt lat="43.65045" lon="5.8718">
        <ele>452</ele>
        <time>2016-02-20T10:27:39.953Z</time>
      </trkpt>
      <trkpt lat="43.65045" lon="5.87177">
        <ele>452</ele>
        <time>2016-02-20T10:27:40.896Z</time>
      </trkpt>
      <trkpt lat="43.65047" lon="5.87165">
        <ele>452</ele>
        <time>2016-02-20T10:27:44.946Z</time>
      </trkpt>
      <trkpt lat="43.65048" lon="5.87162">
        <ele>452</ele>
        <time>2016-02-20T10:27:45.865Z</time>
      </trkpt>
      <trkpt lat="43.65053" lon="5.87152">
        <ele>451</ele>
        <time>2016-02-20T10:27:49.984Z</time>
      </trkpt>
      <trkpt lat="43.65054" lon="5.8715">
        <ele>452</ele>
        <time>2016-02-20T10:27:50.891Z</time>
      </trkpt>
      <trkpt lat="43.6506" lon="5.87141">
        <ele>452</ele>
        <time>2016-02-20T10:27:54.964Z</time>
      </trkpt>
      <trkpt lat="43.65062" lon="5.87139">
        <ele>452</ele>
        <time>2016-02-20T10:27:55.887Z</time>
      </trkpt>
      <trkpt lat="43.65068" lon="5.8713">
        <ele>452</ele>
        <time>2016-02-20T10:27:59.935Z</time>
      </trkpt>
      <trkpt lat="43.6507" lon="5.87128">
        <ele>452</ele>
        <time>2016-02-20T10:28:00.863Z</time>
      </trkpt>
      <trkpt lat="43.65075" lon="5.87118">
        <ele>453</ele>
        <time>2016-02-20T10:28:05.110Z</time>
      </trkpt>
      <trkpt lat="43.65077" lon="5.87116">
        <ele>453</ele>
        <time>2016-02-20T10:28:05.884Z</time>
      </trkpt>
      <trkpt lat="43.65082" lon="5.87108">
        <ele>453</ele>
        <time>2016-02-20T10:28:08.889Z</time>
      </trkpt>
      <trkpt lat="43.65083" lon="5.87106">
        <ele>453</ele>
        <time>2016-02-20T10:28:09.859Z</time>
      </trkpt>
      <trkpt lat="43.65089" lon="5.87102">
        <ele>454</ele>
        <time>2016-02-20T10:28:12.885Z</time>
      </trkpt>
      <trkpt lat="43.65092" lon="5.87101">
        <ele>454</ele>
        <time>2016-02-20T10:28:13.892Z</time>
      </trkpt>
      <trkpt lat="43.651" lon="5.87098">
        <ele>455</ele>
        <time>2016-02-20T10:28:17.943Z</time>
      </trkpt>
      <trkpt lat="43.65103" lon="5.87098">
        <ele>454</ele>
        <time>2016-02-20T10:28:18.891Z</time>
      </trkpt>
      <trkpt lat="43.65112" lon="5.87098">
        <ele>455</ele>
        <time>2016-02-20T10:28:22.988Z</time>
      </trkpt>
      <trkpt lat="43.65114" lon="5.87098">
        <ele>455</ele>
        <time>2016-02-20T10:28:23.892Z</time>
      </trkpt>
      <trkpt lat="43.6512" lon="5.87102">
        <ele>456</ele>
        <time>2016-02-20T10:28:26.958Z</time>
      </trkpt>
      <trkpt lat="43.65121" lon="5.87105">
        <ele>456</ele>
        <time>2016-02-20T10:28:27.895Z</time>
      </trkpt>
      <trkpt lat="43.65123" lon="5.87115">
        <ele>457</ele>
        <time>2016-02-20T10:28:30.942Z</time>
      </trkpt>
      <trkpt lat="43.65123" lon="5.8712">
        <ele>457</ele>
        <time>2016-02-20T10:28:31.893Z</time>
      </trkpt>
      <trkpt lat="43.65123" lon="5.8713">
        <ele>456</ele>
        <time>2016-02-20T10:28:33.953Z</time>
      </trkpt>
      <trkpt lat="43.65122" lon="5.87135">
        <ele>456</ele>
        <time>2016-02-20T10:28:34.893Z</time>
      </trkpt>
      <trkpt lat="43.65122" lon="5.87145">
        <ele>456</ele>
        <time>2016-02-20T10:28:36.951Z</time>
      </trkpt>
      <trkpt lat="43.65123" lon="5.87151">
        <ele>456</ele>
        <time>2016-02-20T10:28:37.890Z</time>
      </trkpt>
      <trkpt lat="43.65123" lon="5.87161">
        <ele>456</ele>
        <time>2016-02-20T10:28:39.943Z</time>
      </trkpt>
      <trkpt lat="43.65123" lon="5.87166">
        <ele>456</ele>
        <time>2016-02-20T10:28:40.895Z</time>
      </trkpt>
      <trkpt lat="43.65123" lon="5.87176">
        <ele>456</ele>
        <time>2016-02-20T10:28:42.941Z</time>
      </trkpt>
      <trkpt lat="43.65122" lon="5.87181">
        <ele>456</ele>
        <time>2016-02-20T10:28:43.895Z</time>
      </trkpt>
      <trkpt lat="43.65123" lon="5.8719">
        <ele>456</ele>
        <time>2016-02-20T10:28:45.943Z</time>
      </trkpt>
      <trkpt lat="43.65122" lon="5.87194">
        <ele>455</ele>
        <time>2016-02-20T10:28:46.887Z</time>
      </trkpt>
      <trkpt lat="43.65121" lon="5.87203">
        <ele>455</ele>
        <time>2016-02-20T10:28:48.949Z</time>
      </trkpt>
      <trkpt lat="43.6512" lon="5.87207">
        <ele>454</ele>
        <time>2016-02-20T10:28:49.899Z</time>
      </trkpt>
      <trkpt lat="43.65119" lon="5.87215">
        <ele>454</ele>
        <time>2016-02-20T10:28:51.951Z</time>
      </trkpt>
      <trkpt lat="43.65119" lon="5.8722">
        <ele>454</ele>
        <time>2016-02-20T10:28:52.896Z</time>
      </trkpt>
      <trkpt lat="43.6512" lon="5.87229">
        <ele>455</ele>
        <time>2016-02-20T10:28:54.942Z</time>
      </trkpt>
      <trkpt lat="43.6512" lon="5.87234">
        <ele>455</ele>
        <time>2016-02-20T10:28:55.894Z</time>
      </trkpt>
      <trkpt lat="43.6512" lon="5.87243">
        <ele>454</ele>
        <time>2016-02-20T10:28:57.959Z</time>
      </trkpt>
      <trkpt lat="43.6512" lon="5.87248">
        <ele>455</ele>
        <time>2016-02-20T10:28:58.897Z</time>
      </trkpt>
      <trkpt lat="43.65121" lon="5.87257">
        <ele>455</ele>
        <time>2016-02-20T10:29:00.990Z</time>
      </trkpt>
      <trkpt lat="43.65121" lon="5.87262">
        <ele>455</ele>
        <time>2016-02-20T10:29:01.891Z</time>
      </trkpt>
      <trkpt lat="43.65121" lon="5.87271">
        <ele>456</ele>
        <time>2016-02-20T10:29:03.944Z</time>
      </trkpt>
      <trkpt lat="43.65121" lon="5.87275">
        <ele>456</ele>
        <time>2016-02-20T10:29:04.894Z</time>
      </trkpt>
      <trkpt lat="43.65122" lon="5.87285">
        <ele>455</ele>
        <time>2016-02-20T10:29:06.942Z</time>
      </trkpt>
      <trkpt lat="43.65122" lon="5.8729">
        <ele>455</ele>
        <time>2016-02-20T10:29:07.919Z</time>
      </trkpt>
      <trkpt lat="43.65122" lon="5.87301">
        <ele>456</ele>
        <time>2016-02-20T10:29:09.939Z</time>
      </trkpt>
      <trkpt lat="43.65122" lon="5.87306">
        <ele>455</ele>
        <time>2016-02-20T10:29:10.886Z</time>
      </trkpt>
      <trkpt lat="43.65122" lon="5.87317">
        <ele>456</ele>
        <time>2016-02-20T10:29:12.969Z</time>
      </trkpt>
      <trkpt lat="43.65122" lon="5.87322">
        <ele>456</ele>
        <time>2016-02-20T10:29:13.899Z</time>
      </trkpt>
      <trkpt lat="43.65122" lon="5.87333">
        <ele>456</ele>
        <time>2016-02-20T10:29:15.944Z</time>
      </trkpt>
      <trkpt lat="43.65122" lon="5.87339">
        <ele>456</ele>
        <time>2016-02-20T10:29:16.882Z</time>
      </trkpt>
      <trkpt lat="43.65122" lon="5.87346">
        <ele>455</ele>
        <time>2016-02-20T10:29:17.941Z</time>
      </trkpt>
      <trkpt lat="43.65122" lon="5.87351">
        <ele>455</ele>
        <time>2016-02-20T10:29:18.894Z</time>
      </trkpt>
      <trkpt lat="43.65122" lon="5.87364">
        <ele>454</ele>
        <time>2016-02-20T10:29:20.949Z</time>
      </trkpt>
      <trkpt lat="43.65122" lon="5.87369">
        <ele>454</ele>
        <time>2016-02-20T10:29:21.895Z</time>
      </trkpt>
      <trkpt lat="43.65122" lon="5.87381">
        <ele>455</ele>
        <time>2016-02-20T10:29:23.941Z</time>
      </trkpt>
      <trkpt lat="43.65122" lon="5.87386">
        <ele>455</ele>
        <time>2016-02-20T10:29:24.864Z</time>
      </trkpt>
      <trkpt lat="43.65123" lon="5.87397">
        <ele>455</ele>
        <time>2016-02-20T10:29:26.940Z</time>
      </trkpt>
      <trkpt lat="43.65124" lon="5.87402">
        <ele>455</ele>
        <time>2016-02-20T10:29:27.889Z</time>
      </trkpt>
      <trkpt lat="43.65126" lon="5.87412">
        <ele>455</ele>
        <time>2016-02-20T10:29:29.933Z</time>
      </trkpt>
      <trkpt lat="43.65127" lon="5.87416">
        <ele>455</ele>
        <time>2016-02-20T10:29:30.893Z</time>
      </trkpt>
      <trkpt lat="43.6513" lon="5.87427">
        <ele>456</ele>
        <time>2016-02-20T10:29:33.945Z</time>
      </trkpt>
      <trkpt lat="43.65132" lon="5.8743">
        <ele>456</ele>
        <time>2016-02-20T10:29:34.894Z</time>
      </trkpt>
      <trkpt lat="43.65139" lon="5.87436">
        <ele>457</ele>
        <time>2016-02-20T10:29:37.963Z</time>
      </trkpt>
      <trkpt lat="43.65141" lon="5.87438">
        <ele>457</ele>
        <time>2016-02-20T10:29:38.906Z</time>
      </trkpt>
      <trkpt lat="43.65148" lon="5.87444">
        <ele>457</ele>
        <time>2016-02-20T10:29:42.938Z</time>
      </trkpt>
      <trkpt lat="43.6515" lon="5.87445">
        <ele>457</ele>
        <time>2016-02-20T10:29:43.894Z</time>
      </trkpt>
      <trkpt lat="43.65157" lon="5.8745">
        <ele>458</ele>
        <time>2016-02-20T10:29:47.939Z</time>
      </trkpt>
      <trkpt lat="43.65158" lon="5.87453">
        <ele>458</ele>
        <time>2016-02-20T10:29:48.890Z</time>
      </trkpt>
      <trkpt lat="43.65163" lon="5.87459">
        <ele>460</ele>
        <time>2016-02-20T10:29:51.956Z</time>
      </trkpt>
      <trkpt lat="43.65165" lon="5.87462">
        <ele>460</ele>
        <time>2016-02-20T10:29:52.886Z</time>
      </trkpt>
      <trkpt lat="43.65174" lon="5.87465">
        <ele>460</ele>
        <time>2016-02-20T10:29:57.542Z</time>
      </trkpt>
      <trkpt lat="43.65175" lon="5.87464">
        <ele>460</ele>
        <time>2016-02-20T10:29:57.869Z</time>
      </trkpt>
      <trkpt lat="43.65178" lon="5.87454">
        <ele>459</ele>
        <time>2016-02-20T10:30:02.959Z</time>
      </trkpt>
      <trkpt lat="43.65178" lon="5.87451">
        <ele>459</ele>
        <time>2016-02-20T10:30:03.894Z</time>
      </trkpt>
      <trkpt lat="43.6518" lon="5.87439">
        <ele>457</ele>
        <time>2016-02-20T10:30:08.933Z</time>
      </trkpt>
      <trkpt lat="43.6518" lon="5.87437">
        <ele>458</ele>
        <time>2016-02-20T10:30:09.897Z</time>
      </trkpt>
      <trkpt lat="43.65183" lon="5.87428">
        <ele>460</ele>
        <time>2016-02-20T10:30:13.960Z</time>
      </trkpt>
      <trkpt lat="43.65183" lon="5.87425">
        <ele>460</ele>
        <time>2016-02-20T10:30:14.901Z</time>
      </trkpt>
      <trkpt lat="43.65186" lon="5.87415">
        <ele>462</ele>
        <time>2016-02-20T10:30:18.945Z</time>
      </trkpt>
      <trkpt lat="43.65187" lon="5.87413">
        <ele>461</ele>
        <time>2016-02-20T10:30:19.897Z</time>
      </trkpt>
      <trkpt lat="43.65189" lon="5.87404">
        <ele>462</ele>
        <time>2016-02-20T10:30:23.954Z</time>
      </trkpt>
      <trkpt lat="43.6519" lon="5.87401">
        <ele>462</ele>
        <time>2016-02-20T10:30:24.908Z</time>
      </trkpt>
      <trkpt lat="43.65194" lon="5.8739">
        <ele>463</ele>
        <time>2016-02-20T10:30:29.953Z</time>
      </trkpt>
      <trkpt lat="43.65195" lon="5.87389">
        <ele>463</ele>
        <time>2016-02-20T10:30:30.889Z</time>
      </trkpt>
      <trkpt lat="43.652" lon="5.8738">
        <ele>463</ele>
        <time>2016-02-20T10:30:35.889Z</time>
      </trkpt>
      <trkpt lat="43.65201" lon="5.87379">
        <ele>464</ele>
        <time>2016-02-20T10:30:36.890Z</time>
      </trkpt>
      <trkpt lat="43.65206" lon="5.8737">
        <ele>463</ele>
        <time>2016-02-20T10:30:41.941Z</time>
      </trkpt>
      <trkpt lat="43.65207" lon="5.87368">
        <ele>464</ele>
        <time>2016-02-20T10:30:42.893Z</time>
      </trkpt>
      <trkpt lat="43.65211" lon="5.87358">
        <ele>463</ele>
        <time>2016-02-20T10:30:50.003Z</time>
      </trkpt>
      <trkpt lat="43.65212" lon="5.87356">
        <ele>463</ele>
        <time>2016-02-20T10:30:50.896Z</time>
      </trkpt>
      <trkpt lat="43.65214" lon="5.87345">
        <ele>464</ele>
        <time>2016-02-20T10:30:58.939Z</time>
      </trkpt>
      <trkpt lat="43.65214" lon="5.87343">
        <ele>464</ele>
        <time>2016-02-20T10:30:59.896Z</time>
      </trkpt>
      <trkpt lat="43.65214" lon="5.87334">
        <ele>463</ele>
        <time>2016-02-20T10:31:03.943Z</time>
      </trkpt>
      <trkpt lat="43.65215" lon="5.87331">
        <ele>463</ele>
        <time>2016-02-20T10:31:04.892Z</time>
      </trkpt>
      <trkpt lat="43.65218" lon="5.87321">
        <ele>463</ele>
        <time>2016-02-20T10:31:08.945Z</time>
      </trkpt>
      <trkpt lat="43.65219" lon="5.87318">
        <ele>463</ele>
        <time>2016-02-20T10:31:09.896Z</time>
      </trkpt>
      <trkpt lat="43.65222" lon="5.87307">
        <ele>464</ele>
        <time>2016-02-20T10:31:13.941Z</time>
      </trkpt>
      <trkpt lat="43.65223" lon="5.87304">
        <ele>464</ele>
        <time>2016-02-20T10:31:14.890Z</time>
      </trkpt>
      <trkpt lat="43.65225" lon="5.87294">
        <ele>464</ele>
        <time>2016-02-20T10:31:19.963Z</time>
      </trkpt>
      <trkpt lat="43.65226" lon="5.87292">
        <ele>464</ele>
        <time>2016-02-20T10:31:20.892Z</time>
      </trkpt>
      <trkpt lat="43.6523" lon="5.87282">
        <ele>465</ele>
        <time>2016-02-20T10:31:25.536Z</time>
      </trkpt>
      <trkpt lat="43.65232" lon="5.8728">
        <ele>465</ele>
        <time>2016-02-20T10:31:25.866Z</time>
      </trkpt>
      <trkpt lat="43.65237" lon="5.87272">
        <ele>465</ele>
        <time>2016-02-20T10:31:29.954Z</time>
      </trkpt>
      <trkpt lat="43.65239" lon="5.8727">
        <ele>465</ele>
        <time>2016-02-20T10:31:30.892Z</time>
      </trkpt>
      <trkpt lat="43.65245" lon="5.87262">
        <ele>465</ele>
        <time>2016-02-20T10:31:34.949Z</time>
      </trkpt>
      <trkpt lat="43.65247" lon="5.8726">
        <ele>466</ele>
        <time>2016-02-20T10:31:35.885Z</time>
      </trkpt>
      <trkpt lat="43.65253" lon="5.87253">
        <ele>467</ele>
        <time>2016-02-20T10:31:39.942Z</time>
      </trkpt>
      <trkpt lat="43.65254" lon="5.87251">
        <ele>467</ele>
        <time>2016-02-20T10:31:40.889Z</time>
      </trkpt>
      <trkpt lat="43.6526" lon="5.87243">
        <ele>467</ele>
        <time>2016-02-20T10:31:44.940Z</time>
      </trkpt>
      <trkpt lat="43.65261" lon="5.87241">
        <ele>468</ele>
        <time>2016-02-20T10:31:45.887Z</time>
      </trkpt>
      <trkpt lat="43.65265" lon="5.8723">
        <ele>468</ele>
        <time>2016-02-20T10:31:49.978Z</time>
      </trkpt>
      <trkpt lat="43.65266" lon="5.87227">
        <ele>468</ele>
        <time>2016-02-20T10:31:50.869Z</time>
      </trkpt>
      <trkpt lat="43.6527" lon="5.87217">
        <ele>469</ele>
        <time>2016-02-20T10:31:54.943Z</time>
      </trkpt>
      <trkpt lat="43.65272" lon="5.87215">
        <ele>469</ele>
        <time>2016-02-20T10:31:55.895Z</time>
      </trkpt>
      <trkpt lat="43.65279" lon="5.87209">
        <ele>469</ele>
        <time>2016-02-20T10:31:59.938Z</time>
      </trkpt>
      <trkpt lat="43.6528" lon="5.87208">
        <ele>469</ele>
        <time>2016-02-20T10:32:00.894Z</time>
      </trkpt>
      <trkpt lat="43.65288" lon="5.87202">
        <ele>470</ele>
        <time>2016-02-20T10:32:04.938Z</time>
      </trkpt>
      <trkpt lat="43.65289" lon="5.87201">
        <ele>469</ele>
        <time>2016-02-20T10:32:05.886Z</time>
      </trkpt>
      <trkpt lat="43.65295" lon="5.87191">
        <ele>468</ele>
        <time>2016-02-20T10:32:28.971Z</time>
      </trkpt>
      <trkpt lat="43.65295" lon="5.87191">
        <ele>468</ele>
        <time>2016-02-20T10:32:29.865Z</time>
      </trkpt>
      <trkpt lat="43.65298" lon="5.87182">
        <ele>469</ele>
        <time>2016-02-20T10:33:06.001Z</time>
      </trkpt>
      <trkpt lat="43.65299" lon="5.87179">
        <ele>470</ele>
        <time>2016-02-20T10:33:06.896Z</time>
      </trkpt>
      <trkpt lat="43.65303" lon="5.87171">
        <ele>471</ele>
        <time>2016-02-20T10:33:09.893Z</time>
      </trkpt>
      <trkpt lat="43.65304" lon="5.87169">
        <ele>471</ele>
        <time>2016-02-20T10:33:10.893Z</time>
      </trkpt>
      <trkpt lat="43.6531" lon="5.87159">
        <ele>472</ele>
        <time>2016-02-20T10:33:14.944Z</time>
      </trkpt>
      <trkpt lat="43.65311" lon="5.87157">
        <ele>472</ele>
        <time>2016-02-20T10:33:15.898Z</time>
      </trkpt>
      <trkpt lat="43.65316" lon="5.87147">
        <ele>472</ele>
        <time>2016-02-20T10:33:19.902Z</time>
      </trkpt>
      <trkpt lat="43.65317" lon="5.87145">
        <ele>472</ele>
        <time>2016-02-20T10:33:20.909Z</time>
      </trkpt>
      <trkpt lat="43.65322" lon="5.87135">
        <ele>471</ele>
        <time>2016-02-20T10:33:25.134Z</time>
      </trkpt>
      <trkpt lat="43.65324" lon="5.87132">
        <ele>472</ele>
        <time>2016-02-20T10:33:25.916Z</time>
      </trkpt>
      <trkpt lat="43.65328" lon="5.87124">
        <ele>474</ele>
        <time>2016-02-20T10:33:28.961Z</time>
      </trkpt>
      <trkpt lat="43.6533" lon="5.87122">
        <ele>474</ele>
        <time>2016-02-20T10:33:29.892Z</time>
      </trkpt>
      <trkpt lat="43.65335" lon="5.87114">
        <ele>475</ele>
        <time>2016-02-20T10:33:32.953Z</time>
      </trkpt>
      <trkpt lat="43.65337" lon="5.87112">
        <ele>476</ele>
        <time>2016-02-20T10:33:33.898Z</time>
      </trkpt>
      <trkpt lat="43.65343" lon="5.87103">
        <ele>476</ele>
        <time>2016-02-20T10:33:37.961Z</time>
      </trkpt>
      <trkpt lat="43.65345" lon="5.87101">
        <ele>476</ele>
        <time>2016-02-20T10:33:38.903Z</time>
      </trkpt>
      <trkpt lat="43.6535" lon="5.87092">
        <ele>476</ele>
        <time>2016-02-20T10:33:42.967Z</time>
      </trkpt>
      <trkpt lat="43.65352" lon="5.8709">
        <ele>476</ele>
        <time>2016-02-20T10:33:43.901Z</time>
      </trkpt>
      <trkpt lat="43.65357" lon="5.87084">
        <ele>476</ele>
        <time>2016-02-20T10:33:47.502Z</time>
      </trkpt>
      <trkpt lat="43.65359" lon="5.87082">
        <ele>476</ele>
        <time>2016-02-20T10:33:47.876Z</time>
      </trkpt>
      <trkpt lat="43.65366" lon="5.87076">
        <ele>476</ele>
        <time>2016-02-20T10:33:51.966Z</time>
      </trkpt>
      <trkpt lat="43.65368" lon="5.87075">
        <ele>476</ele>
        <time>2016-02-20T10:33:52.888Z</time>
      </trkpt>
      <trkpt lat="43.65375" lon="5.87071">
        <ele>477</ele>
        <time>2016-02-20T10:33:56.958Z</time>
      </trkpt>
      <trkpt lat="43.65376" lon="5.8707">
        <ele>477</ele>
        <time>2016-02-20T10:33:57.896Z</time>
      </trkpt>
      <trkpt lat="43.65383" lon="5.87065">
        <ele>477</ele>
        <time>2016-02-20T10:34:01.966Z</time>
      </trkpt>
      <trkpt lat="43.65385" lon="5.87063">
        <ele>477</ele>
        <time>2016-02-20T10:34:02.906Z</time>
      </trkpt>
      <trkpt lat="43.65393" lon="5.87058">
        <ele>477</ele>
        <time>2016-02-20T10:34:06.993Z</time>
      </trkpt>
      <trkpt lat="43.65395" lon="5.87056">
        <ele>478</ele>
        <time>2016-02-20T10:34:07.894Z</time>
      </trkpt>
      <trkpt lat="43.65402" lon="5.87051">
        <ele>478</ele>
        <time>2016-02-20T10:34:11.975Z</time>
      </trkpt>
      <trkpt lat="43.65404" lon="5.8705">
        <ele>477</ele>
        <time>2016-02-20T10:34:12.901Z</time>
      </trkpt>
      <trkpt lat="43.65411" lon="5.87043">
        <ele>478</ele>
        <time>2016-02-20T10:34:16.958Z</time>
      </trkpt>
      <trkpt lat="43.65413" lon="5.87042">
        <ele>478</ele>
        <time>2016-02-20T10:34:17.896Z</time>
      </trkpt>
      <trkpt lat="43.65421" lon="5.87035">
        <ele>478</ele>
        <time>2016-02-20T10:34:21.960Z</time>
      </trkpt>
      <trkpt lat="43.65422" lon="5.87034">
        <ele>479</ele>
        <time>2016-02-20T10:34:22.913Z</time>
      </trkpt>
      <trkpt lat="43.65429" lon="5.8703">
        <ele>479</ele>
        <time>2016-02-20T10:34:25.966Z</time>
      </trkpt>
      <trkpt lat="43.65431" lon="5.87029">
        <ele>479</ele>
        <time>2016-02-20T10:34:26.901Z</time>
      </trkpt>
      <trkpt lat="43.65437" lon="5.87023">
        <ele>479</ele>
        <time>2016-02-20T10:34:29.893Z</time>
      </trkpt>
      <trkpt lat="43.65439" lon="5.87022">
        <ele>480</ele>
        <time>2016-02-20T10:34:30.896Z</time>
      </trkpt>
      <trkpt lat="43.65445" lon="5.87016">
        <ele>480</ele>
        <time>2016-02-20T10:34:33.961Z</time>
      </trkpt>
      <trkpt lat="43.65447" lon="5.87014">
        <ele>480</ele>
        <time>2016-02-20T10:34:34.897Z</time>
      </trkpt>
      <trkpt lat="43.65452" lon="5.87007">
        <ele>480</ele>
        <time>2016-02-20T10:34:37.959Z</time>
      </trkpt>
      <trkpt lat="43.65454" lon="5.87004">
        <ele>479</ele>
        <time>2016-02-20T10:34:38.906Z</time>
      </trkpt>
      <trkpt lat="43.6546" lon="5.86998">
        <ele>480</ele>
        <time>2016-02-20T10:34:41.981Z</time>
      </trkpt>
      <trkpt lat="43.65462" lon="5.86996">
        <ele>479</ele>
        <time>2016-02-20T10:34:42.892Z</time>
      </trkpt>
      <trkpt lat="43.65468" lon="5.86989">
        <ele>479</ele>
        <time>2016-02-20T10:34:45.957Z</time>
      </trkpt>
      <trkpt lat="43.6547" lon="5.86988">
        <ele>480</ele>
        <time>2016-02-20T10:34:46.891Z</time>
      </trkpt>
      <trkpt lat="43.65476" lon="5.86981">
        <ele>480</ele>
        <time>2016-02-20T10:34:49.999Z</time>
      </trkpt>
      <trkpt lat="43.65478" lon="5.86979">
        <ele>480</ele>
        <time>2016-02-20T10:34:50.895Z</time>
      </trkpt>
      <trkpt lat="43.65484" lon="5.86972">
        <ele>480</ele>
        <time>2016-02-20T10:34:53.962Z</time>
      </trkpt>
      <trkpt lat="43.65485" lon="5.8697">
        <ele>481</ele>
        <time>2016-02-20T10:34:54.888Z</time>
      </trkpt>
      <trkpt lat="43.65492" lon="5.86963">
        <ele>483</ele>
        <time>2016-02-20T10:37:10.910Z</time>
      </trkpt>
      <trkpt lat="43.65493" lon="5.86961">
        <ele>483</ele>
        <time>2016-02-20T10:37:11.888Z</time>
      </trkpt>
      <trkpt lat="43.65499" lon="5.86955">
        <ele>483</ele>
        <time>2016-02-20T10:37:15.970Z</time>
      </trkpt>
      <trkpt lat="43.655" lon="5.86954">
        <ele>482</ele>
        <time>2016-02-20T10:37:16.895Z</time>
      </trkpt>
      <trkpt lat="43.65508" lon="5.86948">
        <ele>483</ele>
        <time>2016-02-20T10:37:22.109Z</time>
      </trkpt>
      <trkpt lat="43.65509" lon="5.86946">
        <ele>483</ele>
        <time>2016-02-20T10:37:22.887Z</time>
      </trkpt>
      <trkpt lat="43.65516" lon="5.86941">
        <ele>484</ele>
        <time>2016-02-20T10:37:27.009Z</time>
      </trkpt>
      <trkpt lat="43.65517" lon="5.86939">
        <ele>483</ele>
        <time>2016-02-20T10:37:27.888Z</time>
      </trkpt>
      <trkpt lat="43.65523" lon="5.86931">
        <ele>484</ele>
        <time>2016-02-20T10:37:30.973Z</time>
      </trkpt>
      <trkpt lat="43.65525" lon="5.86929">
        <ele>484</ele>
        <time>2016-02-20T10:37:31.895Z</time>
      </trkpt>
      <trkpt lat="43.6553" lon="5.86922">
        <ele>484</ele>
        <time>2016-02-20T10:37:34.967Z</time>
      </trkpt>
      <trkpt lat="43.65531" lon="5.8692">
        <ele>484</ele>
        <time>2016-02-20T10:37:35.887Z</time>
      </trkpt>
      <trkpt lat="43.65537" lon="5.86913">
        <ele>485</ele>
        <time>2016-02-20T10:37:39.964Z</time>
      </trkpt>
      <trkpt lat="43.65539" lon="5.86912">
        <ele>486</ele>
        <time>2016-02-20T10:37:40.889Z</time>
      </trkpt>
      <trkpt lat="43.65546" lon="5.86906">
        <ele>486</ele>
        <time>2016-02-20T10:37:45.965Z</time>
      </trkpt>
      <trkpt lat="43.65548" lon="5.86905">
        <ele>485</ele>
        <time>2016-02-20T10:37:46.898Z</time>
      </trkpt>
      <trkpt lat="43.65555" lon="5.869">
        <ele>485</ele>
        <time>2016-02-20T10:37:50.969Z</time>
      </trkpt>
      <trkpt lat="43.65557" lon="5.86899">
        <ele>485</ele>
        <time>2016-02-20T10:37:51.898Z</time>
      </trkpt>
      <trkpt lat="43.65564" lon="5.86896">
        <ele>484</ele>
        <time>2016-02-20T10:37:54.895Z</time>
      </trkpt>
      <trkpt lat="43.65566" lon="5.86895">
        <ele>485</ele>
        <time>2016-02-20T10:37:55.868Z</time>
      </trkpt>
      <trkpt lat="43.65573" lon="5.86892">
        <ele>485</ele>
        <time>2016-02-20T10:37:58.967Z</time>
      </trkpt>
      <trkpt lat="43.65575" lon="5.8689">
        <ele>486</ele>
        <time>2016-02-20T10:37:59.907Z</time>
      </trkpt>
      <trkpt lat="43.65581" lon="5.86885">
        <ele>486</ele>
        <time>2016-02-20T10:38:02.966Z</time>
      </trkpt>
      <trkpt lat="43.65583" lon="5.86882">
        <ele>486</ele>
        <time>2016-02-20T10:38:03.895Z</time>
      </trkpt>
      <trkpt lat="43.65587" lon="5.86875">
        <ele>486</ele>
        <time>2016-02-20T10:38:06.949Z</time>
      </trkpt>
      <trkpt lat="43.65588" lon="5.86872">
        <ele>486</ele>
        <time>2016-02-20T10:38:07.899Z</time>
      </trkpt>
      <trkpt lat="43.65595" lon="5.86865">
        <ele>485</ele>
        <time>2016-02-20T10:38:10.963Z</time>
      </trkpt>
      <trkpt lat="43.65597" lon="5.86862">
        <ele>485</ele>
        <time>2016-02-20T10:38:11.886Z</time>
      </trkpt>
      <trkpt lat="43.65603" lon="5.86855">
        <ele>485</ele>
        <time>2016-02-20T10:38:15.008Z</time>
      </trkpt>
      <trkpt lat="43.65605" lon="5.86852">
        <ele>485</ele>
        <time>2016-02-20T10:38:15.875Z</time>
      </trkpt>
      <trkpt lat="43.65612" lon="5.86845">
        <ele>484</ele>
        <time>2016-02-20T10:38:18.894Z</time>
      </trkpt>
      <trkpt lat="43.65614" lon="5.86843">
        <ele>484</ele>
        <time>2016-02-20T10:38:19.907Z</time>
      </trkpt>
      <trkpt lat="43.65618" lon="5.86836">
        <ele>485</ele>
        <time>2016-02-20T10:38:21.962Z</time>
      </trkpt>
      <trkpt lat="43.65619" lon="5.86832">
        <ele>485</ele>
        <time>2016-02-20T10:38:22.889Z</time>
      </trkpt>
      <trkpt lat="43.65622" lon="5.86824">
        <ele>485</ele>
        <time>2016-02-20T10:38:24.960Z</time>
      </trkpt>
      <trkpt lat="43.65624" lon="5.86821">
        <ele>485</ele>
        <time>2016-02-20T10:38:25.907Z</time>
      </trkpt>
      <trkpt lat="43.65628" lon="5.8681">
        <ele>485</ele>
        <time>2016-02-20T10:38:28.965Z</time>
      </trkpt>
      <trkpt lat="43.6563" lon="5.86807">
        <ele>485</ele>
        <time>2016-02-20T10:38:29.898Z</time>
      </trkpt>
      <trkpt lat="43.65636" lon="5.86799">
        <ele>485</ele>
        <time>2016-02-20T10:38:32.959Z</time>
      </trkpt>
      <trkpt lat="43.65638" lon="5.86798">
        <ele>485</ele>
        <time>2016-02-20T10:38:33.898Z</time>
      </trkpt>
      <trkpt lat="43.65647" lon="5.86796">
        <ele>485</ele>
        <time>2016-02-20T10:38:38.968Z</time>
      </trkpt>
      <trkpt lat="43.65649" lon="5.86795">
        <ele>485</ele>
        <time>2016-02-20T10:38:39.896Z</time>
      </trkpt>
      <trkpt lat="43.65654" lon="5.86786">
        <ele>485</ele>
        <time>2016-02-20T10:38:43.554Z</time>
      </trkpt>
      <trkpt lat="43.65655" lon="5.86783">
        <ele>484</ele>
        <time>2016-02-20T10:38:43.898Z</time>
      </trkpt>
      <trkpt lat="43.65657" lon="5.86773">
        <ele>484</ele>
        <time>2016-02-20T10:38:46.958Z</time>
      </trkpt>
      <trkpt lat="43.65656" lon="5.8677">
        <ele>485</ele>
        <time>2016-02-20T10:38:47.894Z</time>
      </trkpt>
      <trkpt lat="43.65654" lon="5.86759">
        <ele>484</ele>
        <time>2016-02-20T10:38:50.982Z</time>
      </trkpt>
      <trkpt lat="43.65654" lon="5.86756">
        <ele>484</ele>
        <time>2016-02-20T10:38:51.906Z</time>
      </trkpt>
      <trkpt lat="43.65659" lon="5.86747">
        <ele>485</ele>
        <time>2016-02-20T10:38:55.958Z</time>
      </trkpt>
      <trkpt lat="43.65661" lon="5.86745">
        <ele>485</ele>
        <time>2016-02-20T10:38:56.907Z</time>
      </trkpt>
      <trkpt lat="43.65666" lon="5.86738">
        <ele>485</ele>
        <time>2016-02-20T10:38:59.991Z</time>
      </trkpt>
      <trkpt lat="43.65668" lon="5.86736">
        <ele>485</ele>
        <time>2016-02-20T10:39:00.904Z</time>
      </trkpt>
      <trkpt lat="43.65674" lon="5.8673">
        <ele>485</ele>
        <time>2016-02-20T10:39:03.959Z</time>
      </trkpt>
      <trkpt lat="43.65676" lon="5.86728">
        <ele>485</ele>
        <time>2016-02-20T10:39:04.895Z</time>
      </trkpt>
      <trkpt lat="43.65682" lon="5.86725">
        <ele>486</ele>
        <time>2016-02-20T10:39:07.562Z</time>
      </trkpt>
      <trkpt lat="43.65685" lon="5.86724">
        <ele>485</ele>
        <time>2016-02-20T10:39:07.862Z</time>
      </trkpt>
      <trkpt lat="43.65691" lon="5.8672">
        <ele>485</ele>
        <time>2016-02-20T10:39:09.988Z</time>
      </trkpt>
      <trkpt lat="43.65693" lon="5.86717">
        <ele>485</ele>
        <time>2016-02-20T10:39:10.899Z</time>
      </trkpt>
      <trkpt lat="43.657" lon="5.86711">
        <ele>485</ele>
        <time>2016-02-20T10:39:12.960Z</time>
      </trkpt>
      <trkpt lat="43.65702" lon="5.86708">
        <ele>485</ele>
        <time>2016-02-20T10:39:13.900Z</time>
      </trkpt>
      <trkpt lat="43.65708" lon="5.86703">
        <ele>484</ele>
        <time>2016-02-20T10:39:15.978Z</time>
      </trkpt>
      <trkpt lat="43.65711" lon="5.86701">
        <ele>484</ele>
        <time>2016-02-20T10:39:16.896Z</time>
      </trkpt>
      <trkpt lat="43.65717" lon="5.86696">
        <ele>485</ele>
        <time>2016-02-20T10:39:18.977Z</time>
      </trkpt>
      <trkpt lat="43.65721" lon="5.86694">
        <ele>484</ele>
        <time>2016-02-20T10:39:19.896Z</time>
      </trkpt>
      <trkpt lat="43.65727" lon="5.86689">
        <ele>485</ele>
        <time>2016-02-20T10:39:21.959Z</time>
      </trkpt>
      <trkpt lat="43.6573" lon="5.86687">
        <ele>484</ele>
        <time>2016-02-20T10:39:22.896Z</time>
      </trkpt>
      <trkpt lat="43.65737" lon="5.86684">
        <ele>485</ele>
        <time>2016-02-20T10:39:25.147Z</time>
      </trkpt>
      <trkpt lat="43.65741" lon="5.86682">
        <ele>484</ele>
        <time>2016-02-20T10:39:25.896Z</time>
      </trkpt>
      <trkpt lat="43.65749" lon="5.86679">
        <ele>484</ele>
        <time>2016-02-20T10:39:27.958Z</time>
      </trkpt>
      <trkpt lat="43.65753" lon="5.86678">
        <ele>484</ele>
        <time>2016-02-20T10:39:28.895Z</time>
      </trkpt>
      <trkpt lat="43.65761" lon="5.86675">
        <ele>484</ele>
        <time>2016-02-20T10:39:31.334Z</time>
      </trkpt>
      <trkpt lat="43.65765" lon="5.86674">
        <ele>484</ele>
        <time>2016-02-20T10:39:31.867Z</time>
      </trkpt>
      <trkpt lat="43.65773" lon="5.86674">
        <ele>483</ele>
        <time>2016-02-20T10:39:33.961Z</time>
      </trkpt>
      <trkpt lat="43.65776" lon="5.86674">
        <ele>483</ele>
        <time>2016-02-20T10:39:34.900Z</time>
      </trkpt>
      <trkpt lat="43.65784" lon="5.86673">
        <ele>483</ele>
        <time>2016-02-20T10:39:37.009Z</time>
      </trkpt>
      <trkpt lat="43.65788" lon="5.86672">
        <ele>484</ele>
        <time>2016-02-20T10:39:37.890Z</time>
      </trkpt>
      <trkpt lat="43.65797" lon="5.86671">
        <ele>483</ele>
        <time>2016-02-20T10:39:39.973Z</time>
      </trkpt>
      <trkpt lat="43.65801" lon="5.8667">
        <ele>483</ele>
        <time>2016-02-20T10:39:40.891Z</time>
      </trkpt>
      <trkpt lat="43.65809" lon="5.86669">
        <ele>482</ele>
        <time>2016-02-20T10:39:42.973Z</time>
      </trkpt>
      <trkpt lat="43.65813" lon="5.86668">
        <ele>482</ele>
        <time>2016-02-20T10:39:43.871Z</time>
      </trkpt>
      <trkpt lat="43.65821" lon="5.86665">
        <ele>482</ele>
        <time>2016-02-20T10:39:45.959Z</time>
      </trkpt>
      <trkpt lat="43.65826" lon="5.86664">
        <ele>482</ele>
        <time>2016-02-20T10:39:46.902Z</time>
      </trkpt>
      <trkpt lat="43.65835" lon="5.86662">
        <ele>482</ele>
        <time>2016-02-20T10:39:48.960Z</time>
      </trkpt>
      <trkpt lat="43.65839" lon="5.8666">
        <ele>481</ele>
        <time>2016-02-20T10:39:49.905Z</time>
      </trkpt>
      <trkpt lat="43.65848" lon="5.86657">
        <ele>481</ele>
        <time>2016-02-20T10:39:51.966Z</time>
      </trkpt>
      <trkpt lat="43.65852" lon="5.86657">
        <ele>480</ele>
        <time>2016-02-20T10:39:52.893Z</time>
      </trkpt>
      <trkpt lat="43.6586" lon="5.86658">
        <ele>481</ele>
        <time>2016-02-20T10:39:54.965Z</time>
      </trkpt>
      <trkpt lat="43.65865" lon="5.86659">
        <ele>481</ele>
        <time>2016-02-20T10:39:55.868Z</time>
      </trkpt>
      <trkpt lat="43.65873" lon="5.8666">
        <ele>480</ele>
        <time>2016-02-20T10:39:57.979Z</time>
      </trkpt>
      <trkpt lat="43.65877" lon="5.86659">
        <ele>480</ele>
        <time>2016-02-20T10:39:58.898Z</time>
      </trkpt>
      <trkpt lat="43.65885" lon="5.86658">
        <ele>480</ele>
        <time>2016-02-20T10:40:00.960Z</time>
      </trkpt>
      <trkpt lat="43.65888" lon="5.86658">
        <ele>480</ele>
        <time>2016-02-20T10:40:01.897Z</time>
      </trkpt>
      <trkpt lat="43.65895" lon="5.86657">
        <ele>478</ele>
        <time>2016-02-20T10:40:03.958Z</time>
      </trkpt>
      <trkpt lat="43.65899" lon="5.86657">
        <ele>478</ele>
        <time>2016-02-20T10:40:04.906Z</time>
      </trkpt>
      <trkpt lat="43.65907" lon="5.86657">
        <ele>478</ele>
        <time>2016-02-20T10:40:06.898Z</time>
      </trkpt>
      <trkpt lat="43.65912" lon="5.86657">
        <ele>478</ele>
        <time>2016-02-20T10:40:07.892Z</time>
      </trkpt>
      <trkpt lat="43.65912" lon="5.86657">
        <ele>478</ele>
        <time>2016-02-20T10:40:07.966Z</time>
      </trkpt>
      <trkpt lat="43.65921" lon="5.86656">
        <ele>479</ele>
        <time>2016-02-20T10:40:08.899Z</time>
      </trkpt>
      <trkpt lat="43.65926" lon="5.86656">
        <ele>479</ele>
        <time>2016-02-20T10:40:09.905Z</time>
      </trkpt>
      <trkpt lat="43.65932" lon="5.86655">
        <ele>479</ele>
        <time>2016-02-20T10:40:10.897Z</time>
      </trkpt>
      <trkpt lat="43.65937" lon="5.86655">
        <ele>479</ele>
        <time>2016-02-20T10:40:11.896Z</time>
      </trkpt>
      <trkpt lat="43.65942" lon="5.86654">
        <ele>478</ele>
        <time>2016-02-20T10:40:12.897Z</time>
      </trkpt>
      <trkpt lat="43.65947" lon="5.86653">
        <ele>477</ele>
        <time>2016-02-20T10:40:13.896Z</time>
      </trkpt>
      <trkpt lat="43.65953" lon="5.86651">
        <ele>478</ele>
        <time>2016-02-20T10:40:14.892Z</time>
      </trkpt>
      <trkpt lat="43.65958" lon="5.8665">
        <ele>477</ele>
        <time>2016-02-20T10:40:15.901Z</time>
      </trkpt>
      <trkpt lat="43.65963" lon="5.86648">
        <ele>477</ele>
        <time>2016-02-20T10:40:16.893Z</time>
      </trkpt>
      <trkpt lat="43.65968" lon="5.86647">
        <ele>477</ele>
        <time>2016-02-20T10:40:17.967Z</time>
      </trkpt>
      <trkpt lat="43.65973" lon="5.86647">
        <ele>478</ele>
        <time>2016-02-20T10:40:18.892Z</time>
      </trkpt>
      <trkpt lat="43.65978" lon="5.86647">
        <ele>478</ele>
        <time>2016-02-20T10:40:19.959Z</time>
      </trkpt>
      <trkpt lat="43.65983" lon="5.86646">
        <ele>477</ele>
        <time>2016-02-20T10:40:20.897Z</time>
      </trkpt>
      <trkpt lat="43.65989" lon="5.86645">
        <ele>477</ele>
        <time>2016-02-20T10:40:21.901Z</time>
      </trkpt>
      <trkpt lat="43.65993" lon="5.86643">
        <ele>477</ele>
        <time>2016-02-20T10:40:22.901Z</time>
      </trkpt>
      <trkpt lat="43.65998" lon="5.86641">
        <ele>477</ele>
        <time>2016-02-20T10:40:23.966Z</time>
      </trkpt>
      <trkpt lat="43.66004" lon="5.86639">
        <ele>477</ele>
        <time>2016-02-20T10:40:24.892Z</time>
      </trkpt>
      <trkpt lat="43.66008" lon="5.86638">
        <ele>477</ele>
        <time>2016-02-20T10:40:25.972Z</time>
      </trkpt>
      <trkpt lat="43.66013" lon="5.86637">
        <ele>476</ele>
        <time>2016-02-20T10:40:26.895Z</time>
      </trkpt>
      <trkpt lat="43.66018" lon="5.86636">
        <ele>476</ele>
        <time>2016-02-20T10:40:27.961Z</time>
      </trkpt>
      <trkpt lat="43.66022" lon="5.86635">
        <ele>476</ele>
        <time>2016-02-20T10:40:28.908Z</time>
      </trkpt>
      <trkpt lat="43.66027" lon="5.86634">
        <ele>476</ele>
        <time>2016-02-20T10:40:29.961Z</time>
      </trkpt>
      <trkpt lat="43.66031" lon="5.86632">
        <ele>475</ele>
        <time>2016-02-20T10:40:30.891Z</time>
      </trkpt>
      <trkpt lat="43.66036" lon="5.86631">
        <ele>475</ele>
        <time>2016-02-20T10:40:31.952Z</time>
      </trkpt>
      <trkpt lat="43.66041" lon="5.86629">
        <ele>475</ele>
        <time>2016-02-20T10:40:32.894Z</time>
      </trkpt>
      <trkpt lat="43.66045" lon="5.86626">
        <ele>474</ele>
        <time>2016-02-20T10:40:33.960Z</time>
      </trkpt>
      <trkpt lat="43.6605" lon="5.86624">
        <ele>475</ele>
        <time>2016-02-20T10:40:34.890Z</time>
      </trkpt>
      <trkpt lat="43.66058" lon="5.86619">
        <ele>474</ele>
        <time>2016-02-20T10:40:36.992Z</time>
      </trkpt>
      <trkpt lat="43.66063" lon="5.86615">
        <ele>474</ele>
        <time>2016-02-20T10:40:37.895Z</time>
      </trkpt>
      <trkpt lat="43.66067" lon="5.86611">
        <ele>474</ele>
        <time>2016-02-20T10:40:38.956Z</time>
      </trkpt>
      <trkpt lat="43.6607" lon="5.86607">
        <ele>474</ele>
        <time>2016-02-20T10:40:39.900Z</time>
      </trkpt>
      <trkpt lat="43.66074" lon="5.86603">
        <ele>474</ele>
        <time>2016-02-20T10:40:40.898Z</time>
      </trkpt>
      <trkpt lat="43.66077" lon="5.86599">
        <ele>474</ele>
        <time>2016-02-20T10:40:41.901Z</time>
      </trkpt>
      <trkpt lat="43.66082" lon="5.86595">
        <ele>474</ele>
        <time>2016-02-20T10:40:42.964Z</time>
      </trkpt>
      <trkpt lat="43.66086" lon="5.86591">
        <ele>474</ele>
        <time>2016-02-20T10:40:43.899Z</time>
      </trkpt>
      <trkpt lat="43.66089" lon="5.86587">
        <ele>474</ele>
        <time>2016-02-20T10:40:44.966Z</time>
      </trkpt>
      <trkpt lat="43.66094" lon="5.86583">
        <ele>474</ele>
        <time>2016-02-20T10:40:45.897Z</time>
      </trkpt>
      <trkpt lat="43.66097" lon="5.86578">
        <ele>474</ele>
        <time>2016-02-20T10:40:46.961Z</time>
      </trkpt>
      <trkpt lat="43.661" lon="5.86574">
        <ele>474</ele>
        <time>2016-02-20T10:40:47.889Z</time>
      </trkpt>
      <trkpt lat="43.66104" lon="5.86569">
        <ele>474</ele>
        <time>2016-02-20T10:40:48.953Z</time>
      </trkpt>
      <trkpt lat="43.66108" lon="5.86565">
        <ele>474</ele>
        <time>2016-02-20T10:40:49.896Z</time>
      </trkpt>
      <trkpt lat="43.66112" lon="5.8656">
        <ele>473</ele>
        <time>2016-02-20T10:40:50.963Z</time>
      </trkpt>
      <trkpt lat="43.66116" lon="5.86556">
        <ele>473</ele>
        <time>2016-02-20T10:40:51.867Z</time>
      </trkpt>
      <trkpt lat="43.66119" lon="5.86552">
        <ele>473</ele>
        <time>2016-02-20T10:40:52.991Z</time>
      </trkpt>
      <trkpt lat="43.66123" lon="5.86548">
        <ele>473</ele>
        <time>2016-02-20T10:40:53.893Z</time>
      </trkpt>
      <trkpt lat="43.6613" lon="5.86541">
        <ele>473</ele>
        <time>2016-02-20T10:40:55.966Z</time>
      </trkpt>
      <trkpt lat="43.66134" lon="5.86537">
        <ele>473</ele>
        <time>2016-02-20T10:40:56.905Z</time>
      </trkpt>
      <trkpt lat="43.66137" lon="5.86533">
        <ele>474</ele>
        <time>2016-02-20T10:40:57.973Z</time>
      </trkpt>
      <trkpt lat="43.66142" lon="5.86529">
        <ele>474</ele>
        <time>2016-02-20T10:40:58.900Z</time>
      </trkpt>
      <trkpt lat="43.66146" lon="5.86526">
        <ele>474</ele>
        <time>2016-02-20T10:40:59.971Z</time>
      </trkpt>
      <trkpt lat="43.66149" lon="5.86523">
        <ele>474</ele>
        <time>2016-02-20T10:41:00.909Z</time>
      </trkpt>
      <trkpt lat="43.66153" lon="5.86518">
        <ele>473</ele>
        <time>2016-02-20T10:41:01.962Z</time>
      </trkpt>
      <trkpt lat="43.66156" lon="5.86513">
        <ele>473</ele>
        <time>2016-02-20T10:41:02.897Z</time>
      </trkpt>
      <trkpt lat="43.66159" lon="5.86509">
        <ele>473</ele>
        <time>2016-02-20T10:41:03.991Z</time>
      </trkpt>
      <trkpt lat="43.66163" lon="5.86505">
        <ele>473</ele>
        <time>2016-02-20T10:41:04.907Z</time>
      </trkpt>
      <trkpt lat="43.66166" lon="5.86502">
        <ele>473</ele>
        <time>2016-02-20T10:41:05.964Z</time>
      </trkpt>
      <trkpt lat="43.6617" lon="5.86498">
        <ele>473</ele>
        <time>2016-02-20T10:41:06.899Z</time>
      </trkpt>
      <trkpt lat="43.66174" lon="5.86495">
        <ele>473</ele>
        <time>2016-02-20T10:41:07.957Z</time>
      </trkpt>
      <trkpt lat="43.66178" lon="5.86491">
        <ele>473</ele>
        <time>2016-02-20T10:41:08.897Z</time>
      </trkpt>
      <trkpt lat="43.66182" lon="5.86488">
        <ele>473</ele>
        <time>2016-02-20T10:41:09.959Z</time>
      </trkpt>
      <trkpt lat="43.66186" lon="5.86485">
        <ele>473</ele>
        <time>2016-02-20T10:41:10.888Z</time>
      </trkpt>
      <trkpt lat="43.66189" lon="5.86482">
        <ele>473</ele>
        <time>2016-02-20T10:41:11.978Z</time>
      </trkpt>
      <trkpt lat="43.66193" lon="5.86477">
        <ele>473</ele>
        <time>2016-02-20T10:41:12.900Z</time>
      </trkpt>
      <trkpt lat="43.662" lon="5.8647">
        <ele>473</ele>
        <time>2016-02-20T10:41:14.963Z</time>
      </trkpt>
      <trkpt lat="43.66204" lon="5.86467">
        <ele>473</ele>
        <time>2016-02-20T10:41:15.895Z</time>
      </trkpt>
      <trkpt lat="43.6621" lon="5.86461">
        <ele>473</ele>
        <time>2016-02-20T10:41:17.959Z</time>
      </trkpt>
      <trkpt lat="43.66213" lon="5.86458">
        <ele>473</ele>
        <time>2016-02-20T10:41:18.895Z</time>
      </trkpt>
      <trkpt lat="43.66221" lon="5.86452">
        <ele>472</ele>
        <time>2016-02-20T10:41:20.964Z</time>
      </trkpt>
      <trkpt lat="43.66225" lon="5.86449">
        <ele>472</ele>
        <time>2016-02-20T10:41:21.897Z</time>
      </trkpt>
      <trkpt lat="43.66233" lon="5.86444">
        <ele>472</ele>
        <time>2016-02-20T10:41:24.570Z</time>
      </trkpt>
      <trkpt lat="43.66237" lon="5.86442">
        <ele>472</ele>
        <time>2016-02-20T10:41:24.867Z</time>
      </trkpt>
      <trkpt lat="43.66245" lon="5.8644">
        <ele>472</ele>
        <time>2016-02-20T10:41:26.957Z</time>
      </trkpt>
      <trkpt lat="43.6625" lon="5.86439">
        <ele>472</ele>
        <time>2016-02-20T10:41:27.891Z</time>
      </trkpt>
      <trkpt lat="43.66258" lon="5.86436">
        <ele>472</ele>
        <time>2016-02-20T10:41:29.942Z</time>
      </trkpt>
      <trkpt lat="43.66263" lon="5.86434">
        <ele>472</ele>
        <time>2016-02-20T10:41:30.901Z</time>
      </trkpt>
      <trkpt lat="43.66271" lon="5.86432">
        <ele>472</ele>
        <time>2016-02-20T10:41:32.953Z</time>
      </trkpt>
      <trkpt lat="43.66275" lon="5.86432">
        <ele>473</ele>
        <time>2016-02-20T10:41:33.894Z</time>
      </trkpt>
      <trkpt lat="43.66284" lon="5.86436">
        <ele>472</ele>
        <time>2016-02-20T10:41:35.943Z</time>
      </trkpt>
      <trkpt lat="43.66288" lon="5.8644">
        <ele>472</ele>
        <time>2016-02-20T10:41:36.896Z</time>
      </trkpt>
      <trkpt lat="43.66293" lon="5.86443">
        <ele>472</ele>
        <time>2016-02-20T10:41:37.946Z</time>
      </trkpt>
      <trkpt lat="43.66297" lon="5.86445">
        <ele>472</ele>
        <time>2016-02-20T10:41:38.899Z</time>
      </trkpt>
      <trkpt lat="43.66304" lon="5.86451">
        <ele>472</ele>
        <time>2016-02-20T10:41:40.951Z</time>
      </trkpt>
      <trkpt lat="43.66308" lon="5.86454">
        <ele>472</ele>
        <time>2016-02-20T10:41:41.903Z</time>
      </trkpt>
      <trkpt lat="43.66312" lon="5.86456">
        <ele>473</ele>
        <time>2016-02-20T10:41:42.939Z</time>
      </trkpt>
      <trkpt lat="43.66316" lon="5.86459">
        <ele>472</ele>
        <time>2016-02-20T10:41:43.901Z</time>
      </trkpt>
      <trkpt lat="43.66324" lon="5.86464">
        <ele>472</ele>
        <time>2016-02-20T10:41:45.942Z</time>
      </trkpt>
      <trkpt lat="43.66329" lon="5.86466">
        <ele>473</ele>
        <time>2016-02-20T10:41:46.895Z</time>
      </trkpt>
      <trkpt lat="43.66334" lon="5.86469">
        <ele>473</ele>
        <time>2016-02-20T10:41:47.893Z</time>
      </trkpt>
      <trkpt lat="43.66338" lon="5.86471">
        <ele>473</ele>
        <time>2016-02-20T10:41:48.900Z</time>
      </trkpt>
      <trkpt lat="43.66343" lon="5.86474">
        <ele>474</ele>
        <time>2016-02-20T10:41:49.943Z</time>
      </trkpt>
      <trkpt lat="43.66347" lon="5.86476">
        <ele>474</ele>
        <time>2016-02-20T10:41:50.895Z</time>
      </trkpt>
      <trkpt lat="43.66352" lon="5.86479">
        <ele>473</ele>
        <time>2016-02-20T10:41:51.940Z</time>
      </trkpt>
      <trkpt lat="43.66357" lon="5.86482">
        <ele>473</ele>
        <time>2016-02-20T10:41:52.897Z</time>
      </trkpt>
      <trkpt lat="43.66361" lon="5.86484">
        <ele>473</ele>
        <time>2016-02-20T10:41:53.950Z</time>
      </trkpt>
      <trkpt lat="43.66366" lon="5.86487">
        <ele>473</ele>
        <time>2016-02-20T10:41:54.900Z</time>
      </trkpt>
      <trkpt lat="43.66371" lon="5.86489">
        <ele>473</ele>
        <time>2016-02-20T10:41:55.947Z</time>
      </trkpt>
      <trkpt lat="43.66376" lon="5.86491">
        <ele>473</ele>
        <time>2016-02-20T10:41:56.897Z</time>
      </trkpt>
      <trkpt lat="43.66381" lon="5.86494">
        <ele>473</ele>
        <time>2016-02-20T10:41:57.965Z</time>
      </trkpt>
      <trkpt lat="43.66385" lon="5.86496">
        <ele>473</ele>
        <time>2016-02-20T10:41:58.887Z</time>
      </trkpt>
      <trkpt lat="43.6639" lon="5.86499">
        <ele>473</ele>
        <time>2016-02-20T10:41:59.955Z</time>
      </trkpt>
      <trkpt lat="43.66395" lon="5.86502">
        <ele>473</ele>
        <time>2016-02-20T10:42:00.895Z</time>
      </trkpt>
      <trkpt lat="43.66399" lon="5.86505">
        <ele>473</ele>
        <time>2016-02-20T10:42:01.946Z</time>
      </trkpt>
      <trkpt lat="43.66404" lon="5.86508">
        <ele>473</ele>
        <time>2016-02-20T10:42:02.894Z</time>
      </trkpt>
      <trkpt lat="43.66409" lon="5.8651">
        <ele>473</ele>
        <time>2016-02-20T10:42:03.943Z</time>
      </trkpt>
      <trkpt lat="43.66413" lon="5.86513">
        <ele>472</ele>
        <time>2016-02-20T10:42:04.899Z</time>
      </trkpt>
      <trkpt lat="43.66418" lon="5.86515">
        <ele>472</ele>
        <time>2016-02-20T10:42:05.942Z</time>
      </trkpt>
      <trkpt lat="43.66423" lon="5.86517">
        <ele>473</ele>
        <time>2016-02-20T10:42:06.893Z</time>
      </trkpt>
      <trkpt lat="43.66428" lon="5.86519">
        <ele>473</ele>
        <time>2016-02-20T10:42:07.948Z</time>
      </trkpt>
      <trkpt lat="43.66434" lon="5.8652">
        <ele>473</ele>
        <time>2016-02-20T10:42:08.880Z</time>
      </trkpt>
      <trkpt lat="43.66442" lon="5.86523">
        <ele>473</ele>
        <time>2016-02-20T10:42:10.891Z</time>
      </trkpt>
      <trkpt lat="43.66446" lon="5.86525">
        <ele>473</ele>
        <time>2016-02-20T10:42:11.897Z</time>
      </trkpt>
      <trkpt lat="43.6645" lon="5.86526">
        <ele>473</ele>
        <time>2016-02-20T10:42:12.950Z</time>
      </trkpt>
      <trkpt lat="43.66456" lon="5.86527">
        <ele>473</ele>
        <time>2016-02-20T10:42:13.902Z</time>
      </trkpt>
      <trkpt lat="43.6646" lon="5.86528">
        <ele>473</ele>
        <time>2016-02-20T10:42:14.949Z</time>
      </trkpt>
      <trkpt lat="43.66464" lon="5.8653">
        <ele>473</ele>
        <time>2016-02-20T10:42:15.899Z</time>
      </trkpt>
      <trkpt lat="43.6647" lon="5.86532">
        <ele>473</ele>
        <time>2016-02-20T10:42:16.944Z</time>
      </trkpt>
      <trkpt lat="43.66474" lon="5.86533">
        <ele>473</ele>
        <time>2016-02-20T10:42:17.899Z</time>
      </trkpt>
      <trkpt lat="43.66479" lon="5.86535">
        <ele>473</ele>
        <time>2016-02-20T10:42:18.968Z</time>
      </trkpt>
      <trkpt lat="43.66483" lon="5.86537">
        <ele>473</ele>
        <time>2016-02-20T10:42:19.901Z</time>
      </trkpt>
      <trkpt lat="43.66487" lon="5.86539">
        <ele>473</ele>
        <time>2016-02-20T10:42:20.941Z</time>
      </trkpt>
      <trkpt lat="43.66492" lon="5.8654">
        <ele>473</ele>
        <time>2016-02-20T10:42:21.872Z</time>
      </trkpt>
      <trkpt lat="43.665" lon="5.86544">
        <ele>473</ele>
        <time>2016-02-20T10:42:23.939Z</time>
      </trkpt>
      <trkpt lat="43.66505" lon="5.86547">
        <ele>473</ele>
        <time>2016-02-20T10:42:24.890Z</time>
      </trkpt>
      <trkpt lat="43.66514" lon="5.86549">
        <ele>473</ele>
        <time>2016-02-20T10:42:26.957Z</time>
      </trkpt>
      <trkpt lat="43.66518" lon="5.86552">
        <ele>473</ele>
        <time>2016-02-20T10:42:27.900Z</time>
      </trkpt>
      <trkpt lat="43.66522" lon="5.86554">
        <ele>473</ele>
        <time>2016-02-20T10:42:28.949Z</time>
      </trkpt>
      <trkpt lat="43.66527" lon="5.86556">
        <ele>472</ele>
        <time>2016-02-20T10:42:29.895Z</time>
      </trkpt>
      <trkpt lat="43.66534" lon="5.86561">
        <ele>472</ele>
        <time>2016-02-20T10:42:31.962Z</time>
      </trkpt>
      <trkpt lat="43.66538" lon="5.86565">
        <ele>472</ele>
        <time>2016-02-20T10:42:32.890Z</time>
      </trkpt>
      <trkpt lat="43.66546" lon="5.86568">
        <ele>472</ele>
        <time>2016-02-20T10:42:34.981Z</time>
      </trkpt>
      <trkpt lat="43.66551" lon="5.86569">
        <ele>473</ele>
        <time>2016-02-20T10:42:35.899Z</time>
      </trkpt>
      <trkpt lat="43.66559" lon="5.86571">
        <ele>473</ele>
        <time>2016-02-20T10:42:37.947Z</time>
      </trkpt>
      <trkpt lat="43.66562" lon="5.86571">
        <ele>473</ele>
        <time>2016-02-20T10:42:38.893Z</time>
      </trkpt>
      <trkpt lat="43.6657" lon="5.8657">
        <ele>473</ele>
        <time>2016-02-20T10:42:40.957Z</time>
      </trkpt>
      <trkpt lat="43.66574" lon="5.86569">
        <ele>472</ele>
        <time>2016-02-20T10:42:41.904Z</time>
      </trkpt>
      <trkpt lat="43.66581" lon="5.86567">
        <ele>471</ele>
        <time>2016-02-20T10:42:43.951Z</time>
      </trkpt>
      <trkpt lat="43.66585" lon="5.86566">
        <ele>471</ele>
        <time>2016-02-20T10:42:44.871Z</time>
      </trkpt>
      <trkpt lat="43.66593" lon="5.86565">
        <ele>471</ele>
        <time>2016-02-20T10:42:46.950Z</time>
      </trkpt>
      <trkpt lat="43.66597" lon="5.86564">
        <ele>471</ele>
        <time>2016-02-20T10:42:47.899Z</time>
      </trkpt>
      <trkpt lat="43.66606" lon="5.86562">
        <ele>471</ele>
        <time>2016-02-20T10:42:49.951Z</time>
      </trkpt>
      <trkpt lat="43.66611" lon="5.86561">
        <ele>470</ele>
        <time>2016-02-20T10:42:50.894Z</time>
      </trkpt>
      <trkpt lat="43.66617" lon="5.86558">
        <ele>470</ele>
        <time>2016-02-20T10:42:51.948Z</time>
      </trkpt>
      <trkpt lat="43.66621" lon="5.86557">
        <ele>470</ele>
        <time>2016-02-20T10:42:52.928Z</time>
      </trkpt>
      <trkpt lat="43.66626" lon="5.86556">
        <ele>470</ele>
        <time>2016-02-20T10:42:53.949Z</time>
      </trkpt>
      <trkpt lat="43.66631" lon="5.86554">
        <ele>470</ele>
        <time>2016-02-20T10:42:54.900Z</time>
      </trkpt>
      <trkpt lat="43.66636" lon="5.86553">
        <ele>470</ele>
        <time>2016-02-20T10:42:56.254Z</time>
      </trkpt>
      <trkpt lat="43.66641" lon="5.86553">
        <ele>469</ele>
        <time>2016-02-20T10:42:56.876Z</time>
      </trkpt>
      <trkpt lat="43.66646" lon="5.86553">
        <ele>469</ele>
        <time>2016-02-20T10:42:57.949Z</time>
      </trkpt>
      <trkpt lat="43.66651" lon="5.86552">
        <ele>469</ele>
        <time>2016-02-20T10:42:58.890Z</time>
      </trkpt>
      <trkpt lat="43.66656" lon="5.86551">
        <ele>470</ele>
        <time>2016-02-20T10:42:59.937Z</time>
      </trkpt>
      <trkpt lat="43.66661" lon="5.86549">
        <ele>470</ele>
        <time>2016-02-20T10:43:01.209Z</time>
      </trkpt>
      <trkpt lat="43.66666" lon="5.86547">
        <ele>470</ele>
        <time>2016-02-20T10:43:01.919Z</time>
      </trkpt>
      <trkpt lat="43.6667" lon="5.86546">
        <ele>469</ele>
        <time>2016-02-20T10:43:02.899Z</time>
      </trkpt>
      <trkpt lat="43.66674" lon="5.86545">
        <ele>469</ele>
        <time>2016-02-20T10:43:03.990Z</time>
      </trkpt>
      <trkpt lat="43.66679" lon="5.86544">
        <ele>470</ele>
        <time>2016-02-20T10:43:04.885Z</time>
      </trkpt>
      <trkpt lat="43.66686" lon="5.8654">
        <ele>470</ele>
        <time>2016-02-20T10:43:06.946Z</time>
      </trkpt>
      <trkpt lat="43.66689" lon="5.86537">
        <ele>469</ele>
        <time>2016-02-20T10:43:07.870Z</time>
      </trkpt>
      <trkpt lat="43.66692" lon="5.86533">
        <ele>469</ele>
        <time>2016-02-20T10:43:08.946Z</time>
      </trkpt>
      <trkpt lat="43.66695" lon="5.86528">
        <ele>468</ele>
        <time>2016-02-20T10:43:09.898Z</time>
      </trkpt>
      <trkpt lat="43.66699" lon="5.86523">
        <ele>468</ele>
        <time>2016-02-20T10:43:10.955Z</time>
      </trkpt>
      <trkpt lat="43.66703" lon="5.8652">
        <ele>469</ele>
        <time>2016-02-20T10:43:11.896Z</time>
      </trkpt>
      <trkpt lat="43.66707" lon="5.86517">
        <ele>468</ele>
        <time>2016-02-20T10:43:12.892Z</time>
      </trkpt>
      <trkpt lat="43.66712" lon="5.86515">
        <ele>468</ele>
        <time>2016-02-20T10:43:13.897Z</time>
      </trkpt>
      <trkpt lat="43.66717" lon="5.86515">
        <ele>468</ele>
        <time>2016-02-20T10:43:14.965Z</time>
      </trkpt>
      <trkpt lat="43.66721" lon="5.86515">
        <ele>467</ele>
        <time>2016-02-20T10:43:15.871Z</time>
      </trkpt>
      <trkpt lat="43.66726" lon="5.86515">
        <ele>467</ele>
        <time>2016-02-20T10:43:16.941Z</time>
      </trkpt>
      <trkpt lat="43.66732" lon="5.86514">
        <ele>468</ele>
        <time>2016-02-20T10:43:17.900Z</time>
      </trkpt>
      <trkpt lat="43.66736" lon="5.86513">
        <ele>468</ele>
        <time>2016-02-20T10:43:18.895Z</time>
      </trkpt>
      <trkpt lat="43.66741" lon="5.86512">
        <ele>468</ele>
        <time>2016-02-20T10:43:19.866Z</time>
      </trkpt>
      <trkpt lat="43.66746" lon="5.86512">
        <ele>468</ele>
        <time>2016-02-20T10:43:20.902Z</time>
      </trkpt>
      <trkpt lat="43.6675" lon="5.86508">
        <ele>467</ele>
        <time>2016-02-20T10:43:21.913Z</time>
      </trkpt>
      <trkpt lat="43.66755" lon="5.86506">
        <ele>468</ele>
        <time>2016-02-20T10:43:22.937Z</time>
      </trkpt>
      <trkpt lat="43.6676" lon="5.86505">
        <ele>468</ele>
        <time>2016-02-20T10:43:23.905Z</time>
      </trkpt>
      <trkpt lat="43.66763" lon="5.86502">
        <ele>468</ele>
        <time>2016-02-20T10:43:24.937Z</time>
      </trkpt>
      <trkpt lat="43.66768" lon="5.86499">
        <ele>467</ele>
        <time>2016-02-20T10:43:25.869Z</time>
      </trkpt>
      <trkpt lat="43.66772" lon="5.86496">
        <ele>468</ele>
        <time>2016-02-20T10:43:26.901Z</time>
      </trkpt>
      <trkpt lat="43.66776" lon="5.86492">
        <ele>469</ele>
        <time>2016-02-20T10:43:27.903Z</time>
      </trkpt>
      <trkpt lat="43.66781" lon="5.86489">
        <ele>469</ele>
        <time>2016-02-20T10:43:28.966Z</time>
      </trkpt>
      <trkpt lat="43.66785" lon="5.86489">
        <ele>470</ele>
        <time>2016-02-20T10:43:29.871Z</time>
      </trkpt>
      <trkpt lat="43.66791" lon="5.86488">
        <ele>469</ele>
        <time>2016-02-20T10:43:30.966Z</time>
      </trkpt>
      <trkpt lat="43.66795" lon="5.86489">
        <ele>469</ele>
        <time>2016-02-20T10:43:31.899Z</time>
      </trkpt>
      <trkpt lat="43.66799" lon="5.86488">
        <ele>468</ele>
        <time>2016-02-20T10:43:32.944Z</time>
      </trkpt>
      <trkpt lat="43.66804" lon="5.86488">
        <ele>467</ele>
        <time>2016-02-20T10:43:33.898Z</time>
      </trkpt>
      <trkpt lat="43.66812" lon="5.86486">
        <ele>467</ele>
        <time>2016-02-20T10:43:35.952Z</time>
      </trkpt>
      <trkpt lat="43.66818" lon="5.86484">
        <ele>467</ele>
        <time>2016-02-20T10:43:36.900Z</time>
      </trkpt>
      <trkpt lat="43.66822" lon="5.86483">
        <ele>467</ele>
        <time>2016-02-20T10:43:37.944Z</time>
      </trkpt>
      <trkpt lat="43.66827" lon="5.86482">
        <ele>467</ele>
        <time>2016-02-20T10:43:38.898Z</time>
      </trkpt>
      <trkpt lat="43.66834" lon="5.8648">
        <ele>467</ele>
        <time>2016-02-20T10:43:40.890Z</time>
      </trkpt>
      <trkpt lat="43.66837" lon="5.8648">
        <ele>468</ele>
        <time>2016-02-20T10:43:41.919Z</time>
      </trkpt>
      <trkpt lat="43.66843" lon="5.86474">
        <ele>468</ele>
        <time>2016-02-20T10:43:44.941Z</time>
      </trkpt>
      <trkpt lat="43.66845" lon="5.8647">
        <ele>468</ele>
        <time>2016-02-20T10:43:45.900Z</time>
      </trkpt>
      <trkpt lat="43.6685" lon="5.86464">
        <ele>468</ele>
        <time>2016-02-20T10:43:47.946Z</time>
      </trkpt>
      <trkpt lat="43.66853" lon="5.86464">
        <ele>468</ele>
        <time>2016-02-20T10:43:48.898Z</time>
      </trkpt>
      <trkpt lat="43.66862" lon="5.86464">
        <ele>467</ele>
        <time>2016-02-20T10:43:51.942Z</time>
      </trkpt>
      <trkpt lat="43.66864" lon="5.86462">
        <ele>467</ele>
        <time>2016-02-20T10:43:52.904Z</time>
      </trkpt>
      <trkpt lat="43.6687" lon="5.86459">
        <ele>468</ele>
        <time>2016-02-20T10:43:54.943Z</time>
      </trkpt>
      <trkpt lat="43.66872" lon="5.86456">
        <ele>468</ele>
        <time>2016-02-20T10:43:55.897Z</time>
      </trkpt>
      <trkpt lat="43.66876" lon="5.86449">
        <ele>468</ele>
        <time>2016-02-20T10:43:57.950Z</time>
      </trkpt>
      <trkpt lat="43.66878" lon="5.86446">
        <ele>468</ele>
        <time>2016-02-20T10:43:58.890Z</time>
      </trkpt>
      <trkpt lat="43.66883" lon="5.86436">
        <ele>468</ele>
        <time>2016-02-20T10:44:01.965Z</time>
      </trkpt>
      <trkpt lat="43.66885" lon="5.86435">
        <ele>468</ele>
        <time>2016-02-20T10:44:02.898Z</time>
      </trkpt>
      <trkpt lat="43.66894" lon="5.86437">
        <ele>469</ele>
        <time>2016-02-20T10:44:06.260Z</time>
      </trkpt>
      <trkpt lat="43.66896" lon="5.86438">
        <ele>468</ele>
        <time>2016-02-20T10:44:06.872Z</time>
      </trkpt>
      <trkpt lat="43.66904" lon="5.86443">
        <ele>469</ele>
        <time>2016-02-20T10:44:09.955Z</time>
      </trkpt>
      <trkpt lat="43.66907" lon="5.86445">
        <ele>468</ele>
        <time>2016-02-20T10:44:10.894Z</time>
      </trkpt>
      <trkpt lat="43.66914" lon="5.86448">
        <ele>468</ele>
        <time>2016-02-20T10:44:12.953Z</time>
      </trkpt>
      <trkpt lat="43.66917" lon="5.8645">
        <ele>468</ele>
        <time>2016-02-20T10:44:13.898Z</time>
      </trkpt>
      <trkpt lat="43.66923" lon="5.86452">
        <ele>468</ele>
        <time>2016-02-20T10:44:15.955Z</time>
      </trkpt>
      <trkpt lat="43.66927" lon="5.86454">
        <ele>468</ele>
        <time>2016-02-20T10:44:16.896Z</time>
      </trkpt>
      <trkpt lat="43.66933" lon="5.86455">
        <ele>468</ele>
        <time>2016-02-20T10:44:18.899Z</time>
      </trkpt>
      <trkpt lat="43.66936" lon="5.86455">
        <ele>468</ele>
        <time>2016-02-20T10:44:19.902Z</time>
      </trkpt>
      <trkpt lat="43.66943" lon="5.86455">
        <ele>468</ele>
        <time>2016-02-20T10:44:21.955Z</time>
      </trkpt>
      <trkpt lat="43.66947" lon="5.86455">
        <ele>468</ele>
        <time>2016-02-20T10:44:22.899Z</time>
      </trkpt>
      <trkpt lat="43.66954" lon="5.86454">
        <ele>468</ele>
        <time>2016-02-20T10:44:24.943Z</time>
      </trkpt>
      <trkpt lat="43.66957" lon="5.86454">
        <ele>468</ele>
        <time>2016-02-20T10:44:25.898Z</time>
      </trkpt>
      <trkpt lat="43.66964" lon="5.86453">
        <ele>469</ele>
        <time>2016-02-20T10:44:27.947Z</time>
      </trkpt>
      <trkpt lat="43.66967" lon="5.86452">
        <ele>469</ele>
        <time>2016-02-20T10:44:29.455Z</time>
      </trkpt>
      <trkpt lat="43.66974" lon="5.8645">
        <ele>469</ele>
        <time>2016-02-20T10:44:30.898Z</time>
      </trkpt>
      <trkpt lat="43.66978" lon="5.86449">
        <ele>470</ele>
        <time>2016-02-20T10:44:31.899Z</time>
      </trkpt>
      <trkpt lat="43.66984" lon="5.86446">
        <ele>469</ele>
        <time>2016-02-20T10:44:33.945Z</time>
      </trkpt>
      <trkpt lat="43.66988" lon="5.86444">
        <ele>469</ele>
        <time>2016-02-20T10:44:34.898Z</time>
      </trkpt>
      <trkpt lat="43.66994" lon="5.86441">
        <ele>469</ele>
        <time>2016-02-20T10:44:36.950Z</time>
      </trkpt>
      <trkpt lat="43.66997" lon="5.86439">
        <ele>468</ele>
        <time>2016-02-20T10:44:37.895Z</time>
      </trkpt>
      <trkpt lat="43.67004" lon="5.86434">
        <ele>468</ele>
        <time>2016-02-20T10:44:39.955Z</time>
      </trkpt>
      <trkpt lat="43.67007" lon="5.86432">
        <ele>468</ele>
        <time>2016-02-20T10:44:40.900Z</time>
      </trkpt>
      <trkpt lat="43.67013" lon="5.86426">
        <ele>468</ele>
        <time>2016-02-20T10:44:42.946Z</time>
      </trkpt>
      <trkpt lat="43.67016" lon="5.86422">
        <ele>467</ele>
        <time>2016-02-20T10:44:43.896Z</time>
      </trkpt>
      <trkpt lat="43.67021" lon="5.86414">
        <ele>467</ele>
        <time>2016-02-20T10:44:45.950Z</time>
      </trkpt>
      <trkpt lat="43.67024" lon="5.86411">
        <ele>467</ele>
        <time>2016-02-20T10:44:46.897Z</time>
      </trkpt>
      <trkpt lat="43.6703" lon="5.86403">
        <ele>466</ele>
        <time>2016-02-20T10:44:48.949Z</time>
      </trkpt>
      <trkpt lat="43.67033" lon="5.86399">
        <ele>466</ele>
        <time>2016-02-20T10:44:49.899Z</time>
      </trkpt>
      <trkpt lat="43.67038" lon="5.86394">
        <ele>466</ele>
        <time>2016-02-20T10:44:50.953Z</time>
      </trkpt>
      <trkpt lat="43.67041" lon="5.86391">
        <ele>466</ele>
        <time>2016-02-20T10:44:51.905Z</time>
      </trkpt>
      <trkpt lat="43.67045" lon="5.86387">
        <ele>466</ele>
        <time>2016-02-20T10:44:52.904Z</time>
      </trkpt>
      <trkpt lat="43.6705" lon="5.86385">
        <ele>465</ele>
        <time>2016-02-20T10:44:53.900Z</time>
      </trkpt>
      <trkpt lat="43.67055" lon="5.86383">
        <ele>465</ele>
        <time>2016-02-20T10:44:54.941Z</time>
      </trkpt>
      <trkpt lat="43.6706" lon="5.8638">
        <ele>465</ele>
        <time>2016-02-20T10:44:55.899Z</time>
      </trkpt>
      <trkpt lat="43.67065" lon="5.86377">
        <ele>465</ele>
        <time>2016-02-20T10:44:56.954Z</time>
      </trkpt>
      <trkpt lat="43.6707" lon="5.86373">
        <ele>465</ele>
        <time>2016-02-20T10:44:57.897Z</time>
      </trkpt>
      <trkpt lat="43.67075" lon="5.86368">
        <ele>465</ele>
        <time>2016-02-20T10:44:58.951Z</time>
      </trkpt>
      <trkpt lat="43.6708" lon="5.86364">
        <ele>464</ele>
        <time>2016-02-20T10:44:59.900Z</time>
      </trkpt>
      <trkpt lat="43.67084" lon="5.86359">
        <ele>464</ele>
        <time>2016-02-20T10:45:00.945Z</time>
      </trkpt>
      <trkpt lat="43.67088" lon="5.86352">
        <ele>464</ele>
        <time>2016-02-20T10:45:01.898Z</time>
      </trkpt>
      <trkpt lat="43.67092" lon="5.86346">
        <ele>464</ele>
        <time>2016-02-20T10:45:02.980Z</time>
      </trkpt>
      <trkpt lat="43.67095" lon="5.8634">
        <ele>464</ele>
        <time>2016-02-20T10:45:03.898Z</time>
      </trkpt>
      <trkpt lat="43.67099" lon="5.86333">
        <ele>464</ele>
        <time>2016-02-20T10:45:04.945Z</time>
      </trkpt>
      <trkpt lat="43.67102" lon="5.86328">
        <ele>464</ele>
        <time>2016-02-20T10:45:05.900Z</time>
      </trkpt>
      <trkpt lat="43.67106" lon="5.86322">
        <ele>464</ele>
        <time>2016-02-20T10:45:06.956Z</time>
      </trkpt>
      <trkpt lat="43.67109" lon="5.86318">
        <ele>464</ele>
        <time>2016-02-20T10:45:07.898Z</time>
      </trkpt>
      <trkpt lat="43.67111" lon="5.86313">
        <ele>464</ele>
        <time>2016-02-20T10:45:08.962Z</time>
      </trkpt>
      <trkpt lat="43.67115" lon="5.86309">
        <ele>464</ele>
        <time>2016-02-20T10:45:09.895Z</time>
      </trkpt>
      <trkpt lat="43.67122" lon="5.86302">
        <ele>463</ele>
        <time>2016-02-20T10:45:11.975Z</time>
      </trkpt>
      <trkpt lat="43.67126" lon="5.86299">
        <ele>463</ele>
        <time>2016-02-20T10:45:12.899Z</time>
      </trkpt>
      <trkpt lat="43.67131" lon="5.86296">
        <ele>462</ele>
        <time>2016-02-20T10:45:13.980Z</time>
      </trkpt>
      <trkpt lat="43.67135" lon="5.86293">
        <ele>462</ele>
        <time>2016-02-20T10:45:14.898Z</time>
      </trkpt>
      <trkpt lat="43.67139" lon="5.8629">
        <ele>463</ele>
        <time>2016-02-20T10:45:15.888Z</time>
      </trkpt>
      <trkpt lat="43.67143" lon="5.86288">
        <ele>463</ele>
        <time>2016-02-20T10:45:16.900Z</time>
      </trkpt>
      <trkpt lat="43.67148" lon="5.86285">
        <ele>463</ele>
        <time>2016-02-20T10:45:17.951Z</time>
      </trkpt>
      <trkpt lat="43.67152" lon="5.86283">
        <ele>464</ele>
        <time>2016-02-20T10:45:18.902Z</time>
      </trkpt>
      <trkpt lat="43.67156" lon="5.86279">
        <ele>464</ele>
        <time>2016-02-20T10:45:19.947Z</time>
      </trkpt>
      <trkpt lat="43.67161" lon="5.86276">
        <ele>464</ele>
        <time>2016-02-20T10:45:20.900Z</time>
      </trkpt>
      <trkpt lat="43.67164" lon="5.86272">
        <ele>464</ele>
        <time>2016-02-20T10:45:21.941Z</time>
      </trkpt>
      <trkpt lat="43.67169" lon="5.86268">
        <ele>465</ele>
        <time>2016-02-20T10:45:22.892Z</time>
      </trkpt>
      <trkpt lat="43.67173" lon="5.86264">
        <ele>465</ele>
        <time>2016-02-20T10:45:23.941Z</time>
      </trkpt>
      <trkpt lat="43.67176" lon="5.8626">
        <ele>465</ele>
        <time>2016-02-20T10:45:24.906Z</time>
      </trkpt>
      <trkpt lat="43.67183" lon="5.86254">
        <ele>465</ele>
        <time>2016-02-20T10:45:26.950Z</time>
      </trkpt>
      <trkpt lat="43.67186" lon="5.8625">
        <ele>465</ele>
        <time>2016-02-20T10:45:27.895Z</time>
      </trkpt>
      <trkpt lat="43.67191" lon="5.86243">
        <ele>466</ele>
        <time>2016-02-20T10:45:29.946Z</time>
      </trkpt>
      <trkpt lat="43.67193" lon="5.8624">
        <ele>466</ele>
        <time>2016-02-20T10:45:30.899Z</time>
      </trkpt>
      <trkpt lat="43.67197" lon="5.86233">
        <ele>466</ele>
        <time>2016-02-20T10:45:32.951Z</time>
      </trkpt>
      <trkpt lat="43.67198" lon="5.86229">
        <ele>466</ele>
        <time>2016-02-20T10:45:33.888Z</time>
      </trkpt>
      <trkpt lat="43.67199" lon="5.86217">
        <ele>466</ele>
        <time>2016-02-20T10:45:36.958Z</time>
      </trkpt>
      <trkpt lat="43.67199" lon="5.86213">
        <ele>466</ele>
        <time>2016-02-20T10:45:38.481Z</time>
      </trkpt>
      <trkpt lat="43.67206" lon="5.86207">
        <ele>465</ele>
        <time>2016-02-20T10:47:23.953Z</time>
      </trkpt>
      <trkpt lat="43.67208" lon="5.86206">
        <ele>465</ele>
        <time>2016-02-20T10:47:24.914Z</time>
      </trkpt>
      <trkpt lat="43.67216" lon="5.86201">
        <ele>465</ele>
        <time>2016-02-20T10:47:27.956Z</time>
      </trkpt>
      <trkpt lat="43.67219" lon="5.862">
        <ele>465</ele>
        <time>2016-02-20T10:47:28.898Z</time>
      </trkpt>
      <trkpt lat="43.67226" lon="5.86195">
        <ele>465</ele>
        <time>2016-02-20T10:47:31.951Z</time>
      </trkpt>
      <trkpt lat="43.67228" lon="5.86193">
        <ele>466</ele>
        <time>2016-02-20T10:47:32.899Z</time>
      </trkpt>
      <trkpt lat="43.67232" lon="5.86182">
        <ele>466</ele>
        <time>2016-02-20T10:47:36.951Z</time>
      </trkpt>
      <trkpt lat="43.67231" lon="5.86179">
        <ele>466</ele>
        <time>2016-02-20T10:47:37.897Z</time>
      </trkpt>
      <trkpt lat="43.67225" lon="5.86174">
        <ele>466</ele>
        <time>2016-02-20T10:47:41.003Z</time>
      </trkpt>
      <trkpt lat="43.67223" lon="5.86174">
        <ele>467</ele>
        <time>2016-02-20T10:47:41.906Z</time>
      </trkpt>
      <trkpt lat="43.67215" lon="5.86174">
        <ele>467</ele>
        <time>2016-02-20T10:47:44.951Z</time>
      </trkpt>
      <trkpt lat="43.67213" lon="5.86173">
        <ele>467</ele>
        <time>2016-02-20T10:47:45.899Z</time>
      </trkpt>
      <trkpt lat="43.67206" lon="5.86172">
        <ele>467</ele>
        <time>2016-02-20T10:47:48.951Z</time>
      </trkpt>
      <trkpt lat="43.67203" lon="5.86172">
        <ele>468</ele>
        <time>2016-02-20T10:47:50.498Z</time>
      </trkpt>
      <trkpt lat="43.67196" lon="5.8617">
        <ele>466</ele>
        <time>2016-02-20T10:47:52.949Z</time>
      </trkpt>
      <trkpt lat="43.67193" lon="5.8617">
        <ele>466</ele>
        <time>2016-02-20T10:47:53.900Z</time>
      </trkpt>
      <trkpt lat="43.67186" lon="5.86168">
        <ele>466</ele>
        <time>2016-02-20T10:47:56.951Z</time>
      </trkpt>
      <trkpt lat="43.67183" lon="5.86166">
        <ele>466</ele>
        <time>2016-02-20T10:47:57.901Z</time>
      </trkpt>
      <trkpt lat="43.67183" lon="5.86154">
        <ele>468</ele>
        <time>2016-02-20T10:48:02.979Z</time>
      </trkpt>
      <trkpt lat="43.67185" lon="5.86153">
        <ele>468</ele>
        <time>2016-02-20T10:48:03.896Z</time>
      </trkpt>
      <trkpt lat="43.67192" lon="5.86146">
        <ele>471</ele>
        <time>2016-02-20T10:48:10.957Z</time>
      </trkpt>
      <trkpt lat="43.67193" lon="5.86146">
        <ele>471</ele>
        <time>2016-02-20T10:48:11.900Z</time>
      </trkpt>
      <trkpt lat="43.67185" lon="5.86146">
        <ele>469</ele>
        <time>2016-02-20T10:48:43.949Z</time>
      </trkpt>
      <trkpt lat="43.67183" lon="5.86146">
        <ele>469</ele>
        <time>2016-02-20T10:48:44.894Z</time>
      </trkpt>
      <trkpt lat="43.67175" lon="5.86145">
        <ele>469</ele>
        <time>2016-02-20T10:48:48.949Z</time>
      </trkpt>
      <trkpt lat="43.67173" lon="5.86144">
        <ele>468</ele>
        <time>2016-02-20T10:48:49.901Z</time>
      </trkpt>
      <trkpt lat="43.67164" lon="5.86142">
        <ele>471</ele>
        <time>2016-02-20T10:49:00.949Z</time>
      </trkpt>
      <trkpt lat="43.67163" lon="5.86141">
        <ele>471</ele>
        <time>2016-02-20T10:49:01.900Z</time>
      </trkpt>
      <trkpt lat="43.67172" lon="5.86144">
        <ele>472</ele>
        <time>2016-02-20T10:50:16.903Z</time>
      </trkpt>
      <trkpt lat="43.67172" lon="5.86144">
        <ele>472</ele>
        <time>2016-02-20T10:50:17.901Z</time>
      </trkpt>
      <trkpt lat="43.67181" lon="5.86144">
        <ele>471</ele>
        <time>2016-02-20T10:50:25.961Z</time>
      </trkpt>
      <trkpt lat="43.67182" lon="5.86144">
        <ele>471</ele>
        <time>2016-02-20T10:50:26.902Z</time>
      </trkpt>
      <trkpt lat="43.6719" lon="5.86141">
        <ele>472</ele>
        <time>2016-02-20T10:51:03.973Z</time>
      </trkpt>
      <trkpt lat="43.67191" lon="5.8614">
        <ele>472</ele>
        <time>2016-02-20T10:51:04.899Z</time>
      </trkpt>
      <trkpt lat="43.67195" lon="5.8613">
        <ele>471</ele>
        <time>2016-02-20T10:51:27.949Z</time>
      </trkpt>
      <trkpt lat="43.67194" lon="5.86129">
        <ele>472</ele>
        <time>2016-02-20T10:51:28.895Z</time>
      </trkpt>
      <trkpt lat="43.67193" lon="5.8613">
        <ele>474</ele>
        <time>2016-02-20T10:54:08.250Z</time>
      </trkpt>
    </trkseg>
  </trk>
</gpx>